<?xml version="1.0" encoding="UTF-8"?>
<gpx xmlns="http://www.topografix.com/GPX/1/1" version="1.1" creator="Nokia Sports Tracker" xmlns:xsi="http://www.w3.org/2001/XMLSchema-instance" xsi:schemaLocation="http://www.topografix.com/GPX/1/1 http://www.topografix.com/GPX/1/1/gpx.xsd">
<metadata>
<name>03.03.2010 15:53</name>
<desc>Nordic Walking on Bodo9</desc>
<author><name>Jörg U.</name></author>
<time>2010-03-03T15:54:37.48</time>
</metadata>
<trk>
<name>03.03.2010 15:53</name>
<trkseg>
<trkpt lat="48.942197" lon="8.667245">
<ele>320.5</ele>
<speed>0.8</speed>
<course>128.1</course>
<desc>Speed 0.8 km/h Distance 0.00 km</desc>
<time>2010-03-03T15:54:38.06</time>
<name>1</name>
</trkpt>
<trkpt lat="48.942195" lon="8.667248">
<ele>320.5</ele>
<speed>0.2</speed>
<course>270.0</course>
<desc>Speed 0.2 km/h Distance 0.00 km</desc>
<time>2010-03-03T15:54:39.06</time>
<name>2</name>
</trkpt>
<trkpt lat="48.942195" lon="8.667247">
<ele>320.5</ele>
<speed>0.5</speed>
<course>172.6</course>
<desc>Speed 0.5 km/h Distance 0.00 km</desc>
<time>2010-03-03T15:54:40.06</time>
<name>3</name>
</trkpt>
<trkpt lat="48.942188" lon="8.667247">
<ele>320.5</ele>
<speed>2.3</speed>
<course>128.1</course>
<desc>Speed 2.3 km/h Distance 0.00 km</desc>
<time>2010-03-03T15:54:41.06</time>
<name>4</name>
</trkpt>
<trkpt lat="48.942187" lon="8.667250">
<ele>320.5</ele>
<speed>2.1</speed>
<course>132.6</course>
<desc>Speed 2.1 km/h Distance 0.00 km</desc>
<time>2010-03-03T15:54:42.06</time>
<name>5</name>
</trkpt>
<trkpt lat="48.942182" lon="8.667258">
<ele>320.5</ele>
<speed>3.7</speed>
<course>142.8</course>
<desc>Speed 3.7 km/h Distance 0.00 km</desc>
<time>2010-03-03T15:54:43.15</time>
<name>6</name>
</trkpt>
<trkpt lat="48.942180" lon="8.667260">
<ele>320.5</ele>
<speed>2.6</speed>
<course>192.6</course>
<desc>Speed 2.6 km/h Distance 0.00 km</desc>
<time>2010-03-03T15:54:44.05</time>
<name>7</name>
</trkpt>
<trkpt lat="48.942173" lon="8.667258">
<ele>320.5</ele>
<speed>3.1</speed>
<course>221.4</course>
<desc>Speed 3.1 km/h Distance 0.00 km</desc>
<time>2010-03-03T15:54:45.21</time>
<name>8</name>
</trkpt>
<trkpt lat="48.942168" lon="8.667252">
<ele>320.5</ele>
<speed>3.3</speed>
<course>166.0</course>
<desc>Speed 3.3 km/h Distance 0.00 km</desc>
<time>2010-03-03T15:54:48.87</time>
<name>9</name>
</trkpt>
<trkpt lat="48.942147" lon="8.667260">
<ele>320.5</ele>
<speed>3.3</speed>
<course>65.4</course>
<desc>Speed 3.3 km/h Distance 0.01 km</desc>
<time>2010-03-03T15:54:50.08</time>
<name>10</name>
</trkpt>
<trkpt lat="48.942152" lon="8.667277">
<ele>320.5</ele>
<speed>2.0</speed>
<course>90.0</course>
<desc>Speed 2.0 km/h Distance 0.01 km</desc>
<time>2010-03-03T15:54:51.05</time>
<name>11</name>
</trkpt>
<trkpt lat="48.942152" lon="8.667283">
<ele>320.5</ele>
<speed>2.0</speed>
<course>90.0</course>
<desc>Speed 2.0 km/h Distance 0.01 km</desc>
<time>2010-03-03T15:54:52.05</time>
<name>12</name>
</trkpt>
<trkpt lat="48.942152" lon="8.667288">
<ele>320.5</ele>
<speed>2.0</speed>
<course>90.0</course>
<desc>Speed 2.0 km/h Distance 0.01 km</desc>
<time>2010-03-03T15:54:53.05</time>
<name>13</name>
</trkpt>
<trkpt lat="48.942152" lon="8.667292">
<ele>320.5</ele>
<speed>2.0</speed>
<course>90.0</course>
<desc>Speed 2.0 km/h Distance 0.01 km</desc>
<time>2010-03-03T15:54:54.05</time>
<name>14</name>
</trkpt>
<trkpt lat="48.942152" lon="8.667298">
<ele>320.5</ele>
<speed>2.0</speed>
<course>186.3</course>
<desc>Speed 2.0 km/h Distance 0.01 km</desc>
<time>2010-03-03T15:54:55.05</time>
<name>15</name>
</trkpt>
<trkpt lat="48.942140" lon="8.667297">
<ele>320.5</ele>
<speed>1.4</speed>
<course>322.8</course>
<desc>Speed 1.4 km/h Distance 0.01 km</desc>
<time>2010-03-03T15:54:56.04</time>
<name>16</name>
</trkpt>
<trkpt lat="48.942142" lon="8.667295">
<ele>320.5</ele>
<speed>1.4</speed>
<course>135.5</course>
<desc>Speed 1.4 km/h Distance 0.01 km</desc>
<time>2010-03-03T15:54:57.04</time>
<name>17</name>
</trkpt>
<trkpt lat="48.942138" lon="8.667300">
<ele>320.5</ele>
<speed>2.2</speed>
<course>167.4</course>
<desc>Speed 2.2 km/h Distance 0.01 km</desc>
<time>2010-03-03T15:54:58.03</time>
<name>18</name>
</trkpt>
<trkpt lat="48.942135" lon="8.667302">
<ele>320.5</ele>
<speed>1.1</speed>
<course>167.4</course>
<desc>Speed 1.1 km/h Distance 0.01 km</desc>
<time>2010-03-03T15:54:59.03</time>
<name>19</name>
</trkpt>
<trkpt lat="48.942132" lon="8.667303">
<ele>320.5</ele>
<speed>1.1</speed>
<course>117.4</course>
<desc>Speed 1.1 km/h Distance 0.01 km</desc>
<time>2010-03-03T15:55:00.05</time>
<name>20</name>
</trkpt>
<trkpt lat="48.942130" lon="8.667308">
<ele>320.5</ele>
<speed>1.1</speed>
<course>106.7</course>
<desc>Speed 1.1 km/h Distance 0.01 km</desc>
<time>2010-03-03T15:55:01.05</time>
<name>21</name>
</trkpt>
<trkpt lat="48.942128" lon="8.667317">
<ele>320.5</ele>
<speed>1.1</speed>
<course>80.4</course>
<desc>Speed 1.1 km/h Distance 0.01 km</desc>
<time>2010-03-03T15:55:02.05</time>
<name>22</name>
</trkpt>
<trkpt lat="48.942130" lon="8.667332">
<ele>320.5</ele>
<speed>1.4</speed>
<course>172.3</course>
<desc>Speed 1.4 km/h Distance 0.01 km</desc>
<time>2010-03-03T15:55:03.05</time>
<name>23</name>
</trkpt>
<trkpt lat="48.942122" lon="8.667333">
<ele>320.5</ele>
<speed>3.3</speed>
<course>154.0</course>
<desc>Speed 3.3 km/h Distance 0.02 km</desc>
<time>2010-03-03T15:55:05.22</time>
<name>24</name>
</trkpt>
<trkpt lat="48.942108" lon="8.667343">
<ele>320.5</ele>
<speed>4.8</speed>
<course>155.2</course>
<desc>Speed 4.8 km/h Distance 0.02 km</desc>
<time>2010-03-03T15:55:06.15</time>
<name>25</name>
</trkpt>
<trkpt lat="48.942102" lon="8.667348">
<ele>320.5</ele>
<speed>4.8</speed>
<course>162.5</course>
<desc>Speed 4.8 km/h Distance 0.02 km</desc>
<time>2010-03-03T15:55:07.10</time>
<name>26</name>
</trkpt>
<trkpt lat="48.942095" lon="8.667352">
<ele>320.5</ele>
<speed>4.8</speed>
<course>171.9</course>
<desc>Speed 4.8 km/h Distance 0.02 km</desc>
<time>2010-03-03T15:55:08.10</time>
<name>27</name>
</trkpt>
<trkpt lat="48.942090" lon="8.667352">
<ele>320.5</ele>
<speed>4.8</speed>
<course>211.6</course>
<desc>Speed 4.8 km/h Distance 0.02 km</desc>
<time>2010-03-03T15:55:09.10</time>
<name>28</name>
</trkpt>
<trkpt lat="48.942087" lon="8.667348">
<ele>320.5</ele>
<speed>4.8</speed>
<course>180.0</course>
<desc>Speed 4.8 km/h Distance 0.02 km</desc>
<time>2010-03-03T15:55:10.10</time>
<name>29</name>
</trkpt>
<trkpt lat="48.942083" lon="8.667348">
<ele>320.5</ele>
<speed>4.8</speed>
<course>47.4</course>
<desc>Speed 4.8 km/h Distance 0.02 km</desc>
<time>2010-03-03T15:55:11.10</time>
<name>30</name>
</trkpt>
<trkpt lat="48.942200" lon="8.667542">
<ele>320.5</ele>
<speed>29.5</speed>
<course>17.9</course>
<desc>Speed 29.5 km/h Distance 0.04 km</desc>
<time>2010-03-03T15:55:37.01</time>
<name>31</name>
</trkpt>
<trkpt lat="48.942292" lon="8.667587">
<ele>320.5</ele>
<speed>29.5</speed>
<course>21.9</course>
<desc>Speed 29.5 km/h Distance 0.05 km</desc>
<time>2010-03-03T15:55:38.19</time>
<name>32</name>
</trkpt>
<trkpt lat="48.942352" lon="8.667623">
<ele>320.5</ele>
<speed>29.5</speed>
<course>16.0</course>
<desc>Speed 29.5 km/h Distance 0.06 km</desc>
<time>2010-03-03T15:55:39.19</time>
<name>33</name>
</trkpt>
<trkpt lat="48.942432" lon="8.667658">
<ele>320.5</ele>
<speed>29.5</speed>
<course>134.0</course>
<desc>Speed 29.5 km/h Distance 0.07 km</desc>
<time>2010-03-03T15:55:41.19</time>
<name>34</name>
</trkpt>
<trkpt lat="48.942368" lon="8.667758">
<ele>320.5</ele>
<speed>29.5</speed>
<course>182.5</course>
<desc>Speed 29.5 km/h Distance 0.08 km</desc>
<time>2010-03-03T15:56:11.98</time>
<name>35</name>
</trkpt>
<trkpt lat="48.942297" lon="8.667753">
<ele>320.5</ele>
<speed>29.5</speed>
<course>186.0</course>
<desc>Speed 29.5 km/h Distance 0.08 km</desc>
<time>2010-03-03T15:56:15.26</time>
<name>36</name>
</trkpt>
<trkpt lat="48.942110" lon="8.667723">
<ele>320.5</ele>
<speed>29.5</speed>
<course>185.6</course>
<desc>Speed 29.5 km/h Distance 0.11 km</desc>
<time>2010-03-03T15:56:17.22</time>
<name>37</name>
</trkpt>
<trkpt lat="48.942008" lon="8.667708">
<ele>320.5</ele>
<speed>29.5</speed>
<course>177.8</course>
<desc>Speed 29.5 km/h Distance 0.12 km</desc>
<time>2010-03-03T15:56:20.22</time>
<name>38</name>
</trkpt>
<trkpt lat="48.941955" lon="8.667712">
<ele>320.5</ele>
<speed>29.5</speed>
<course>188.6</course>
<desc>Speed 29.5 km/h Distance 0.12 km</desc>
<time>2010-03-03T15:56:24.25</time>
<name>39</name>
</trkpt>
<trkpt lat="48.941897" lon="8.667698">
<ele>320.5</ele>
<speed>29.5</speed>
<course>146.7</course>
<desc>Speed 29.5 km/h Distance 0.13 km</desc>
<time>2010-03-03T15:56:28.36</time>
<name>40</name>
</trkpt>
<trkpt lat="48.941870" lon="8.667725">
<ele>320.5</ele>
<speed>29.5</speed>
<course>147.2</course>
<desc>Speed 29.5 km/h Distance 0.13 km</desc>
<time>2010-03-03T15:56:32.38</time>
<name>41</name>
</trkpt>
<trkpt lat="48.941780" lon="8.667813">
<ele>320.5</ele>
<speed>29.5</speed>
<course>124.6</course>
<desc>Speed 29.5 km/h Distance 0.14 km</desc>
<time>2010-03-03T15:56:33.97</time>
<name>42</name>
</trkpt>
<trkpt lat="48.941748" lon="8.667883">
<ele>320.5</ele>
<speed>29.5</speed>
<course>51.1</course>
<desc>Speed 29.5 km/h Distance 0.15 km</desc>
<time>2010-03-03T15:56:37.38</time>
<name>43</name>
</trkpt>
<trkpt lat="48.941763" lon="8.667912">
<ele>320.5</ele>
<speed>29.5</speed>
<course>55.3</course>
<desc>Speed 29.5 km/h Distance 0.15 km</desc>
<time>2010-03-03T15:56:41.38</time>
<name>44</name>
</trkpt>
<trkpt lat="48.941788" lon="8.667967">
<ele>320.5</ele>
<speed>29.5</speed>
<course>33.3</course>
<desc>Speed 29.5 km/h Distance 0.16 km</desc>
<time>2010-03-03T15:56:45.38</time>
<name>45</name>
</trkpt>
<trkpt lat="48.941817" lon="8.667995">
<ele>320.5</ele>
<speed>29.5</speed>
<course>39.0</course>
<desc>Speed 29.5 km/h Distance 0.16 km</desc>
<time>2010-03-03T15:56:49.38</time>
<name>46</name>
</trkpt>
<trkpt lat="48.941838" lon="8.668022">
<ele>320.5</ele>
<speed>29.5</speed>
<course>132.1</course>
<desc>Speed 29.5 km/h Distance 0.17 km</desc>
<time>2010-03-03T15:56:53.96</time>
<name>47</name>
</trkpt>
<trkpt lat="48.941753" lon="8.668165">
<ele>320.5</ele>
<speed>29.5</speed>
<course>106.5</course>
<desc>Speed 29.5 km/h Distance 0.18 km</desc>
<time>2010-03-03T15:56:55.38</time>
<name>48</name>
</trkpt>
<trkpt lat="48.941732" lon="8.668277">
<ele>320.5</ele>
<speed>29.5</speed>
<course>100.2</course>
<desc>Speed 29.5 km/h Distance 0.19 km</desc>
<time>2010-03-03T15:56:56.38</time>
<name>49</name>
</trkpt>
<trkpt lat="48.941717" lon="8.668403">
<ele>320.5</ele>
<speed>29.5</speed>
<course>96.7</course>
<desc>Speed 29.5 km/h Distance 0.20 km</desc>
<time>2010-03-03T15:56:57.38</time>
<name>50</name>
</trkpt>
<trkpt lat="48.941702" lon="8.668598">
<ele>320.5</ele>
<speed>2.1</speed>
<course>40.9</course>
<desc>Speed 2.1 km/h Distance 0.21 km</desc>
<time>2010-03-03T15:57:01.38</time>
<name>51</name>
</trkpt>
<trkpt lat="48.941738" lon="8.668647">
<ele>320.5</ele>
<speed>7.5</speed>
<course>18.4</course>
<desc>Speed 7.5 km/h Distance 0.22 km</desc>
<time>2010-03-03T15:57:03.38</time>
<name>52</name>
</trkpt>
<trkpt lat="48.941752" lon="8.668653">
<ele>320.5</ele>
<speed>7.5</speed>
<course>12.6</course>
<desc>Speed 7.5 km/h Distance 0.22 km</desc>
<time>2010-03-03T15:57:04.38</time>
<name>53</name>
</trkpt>
<trkpt lat="48.941762" lon="8.668657">
<ele>320.5</ele>
<speed>7.5</speed>
<course>154.4</course>
<desc>Speed 7.5 km/h Distance 0.22 km</desc>
<time>2010-03-03T15:57:05.38</time>
<name>54</name>
</trkpt>
<trkpt lat="48.941743" lon="8.668670">
<ele>320.5</ele>
<speed>3.5</speed>
<course>146.6</course>
<desc>Speed 3.5 km/h Distance 0.22 km</desc>
<time>2010-03-03T15:57:06.38</time>
<name>55</name>
</trkpt>
<trkpt lat="48.941732" lon="8.668682">
<ele>320.5</ele>
<speed>3.5</speed>
<course>154.4</course>
<desc>Speed 3.5 km/h Distance 0.22 km</desc>
<time>2010-03-03T15:57:07.38</time>
<name>56</name>
</trkpt>
<trkpt lat="48.941725" lon="8.668687">
<ele>320.5</ele>
<speed>3.5</speed>
<course>119.0</course>
<desc>Speed 3.5 km/h Distance 0.22 km</desc>
<time>2010-03-03T15:57:08.38</time>
<name>57</name>
</trkpt>
<trkpt lat="48.941718" lon="8.668705">
<ele>320.5</ele>
<speed>3.5</speed>
<course>170.0</course>
<desc>Speed 3.5 km/h Distance 0.23 km</desc>
<time>2010-03-03T15:57:09.38</time>
<name>58</name>
</trkpt>
<trkpt lat="48.941657" lon="8.668722">
<ele>320.5</ele>
<speed>5.0</speed>
<course>159.4</course>
<desc>Speed 5.0 km/h Distance 0.23 km</desc>
<time>2010-03-03T15:57:11.38</time>
<name>59</name>
</trkpt>
<trkpt lat="48.941645" lon="8.668728">
<ele>320.5</ele>
<speed>5.0</speed>
<course>153.6</course>
<desc>Speed 5.0 km/h Distance 0.23 km</desc>
<time>2010-03-03T15:57:12.38</time>
<name>60</name>
</trkpt>
<trkpt lat="48.941638" lon="8.668733">
<ele>320.5</ele>
<speed>5.0</speed>
<course>189.5</course>
<desc>Speed 5.0 km/h Distance 0.24 km</desc>
<time>2010-03-03T15:57:13.38</time>
<name>61</name>
</trkpt>
<trkpt lat="48.941618" lon="8.668728">
<ele>320.5</ele>
<speed>2.4</speed>
<course>188.1</course>
<desc>Speed 2.4 km/h Distance 0.24 km</desc>
<time>2010-03-03T15:57:14.38</time>
<name>62</name>
</trkpt>
<trkpt lat="48.941595" lon="8.668723">
<ele>320.5</ele>
<speed>2.4</speed>
<course>189.0</course>
<desc>Speed 2.4 km/h Distance 0.24 km</desc>
<time>2010-03-03T15:57:15.38</time>
<name>63</name>
</trkpt>
<trkpt lat="48.941582" lon="8.668720">
<ele>320.5</ele>
<speed>2.4</speed>
<course>187.4</course>
<desc>Speed 2.4 km/h Distance 0.24 km</desc>
<time>2010-03-03T15:57:16.38</time>
<name>64</name>
</trkpt>
<trkpt lat="48.941575" lon="8.668718">
<ele>320.5</ele>
<speed>2.4</speed>
<course>178.8</course>
<desc>Speed 2.4 km/h Distance 0.24 km</desc>
<time>2010-03-03T15:57:17.38</time>
<name>65</name>
</trkpt>
<trkpt lat="48.941555" lon="8.668718">
<ele>320.5</ele>
<speed>2.4</speed>
<course>187.4</course>
<desc>Speed 2.4 km/h Distance 0.24 km</desc>
<time>2010-03-03T15:57:18.38</time>
<name>66</name>
</trkpt>
<trkpt lat="48.941548" lon="8.668717">
<ele>320.5</ele>
<speed>2.4</speed>
<course>218.0</course>
<desc>Speed 2.4 km/h Distance 0.25 km</desc>
<time>2010-03-03T15:57:19.38</time>
<name>67</name>
</trkpt>
<trkpt lat="48.941513" lon="8.668675">
<ele>320.5</ele>
<speed>2.4</speed>
<course>218.0</course>
<desc>Speed 2.4 km/h Distance 0.25 km</desc>
<time>2010-03-03T15:57:25.94</time>
<name>68</name>
</trkpt>
<trkpt lat="48.941513" lon="8.668675">
<ele>320.5</ele>
<speed>2.4</speed>
<course>222.1</course>
<desc>Speed 2.4 km/h Distance 0.25 km</desc>
<time>2010-03-03T15:57:26.38</time>
<name>69</name>
</trkpt>
<trkpt lat="48.941500" lon="8.668657">
<ele>320.5</ele>
<speed>2.4</speed>
<course>193.9</course>
<desc>Speed 2.4 km/h Distance 0.25 km</desc>
<time>2010-03-03T15:57:27.38</time>
<name>70</name>
</trkpt>
<trkpt lat="48.941297" lon="8.668580">
<ele>320.5</ele>
<speed>2.4</speed>
<course>193.9</course>
<desc>Speed 2.4 km/h Distance 0.28 km</desc>
<time>2010-03-03T15:57:30.97</time>
<name>71</name>
</trkpt>
<trkpt lat="48.941297" lon="8.668580">
<ele>320.5</ele>
<speed>2.4</speed>
<course>213.0</course>
<desc>Speed 2.4 km/h Distance 0.28 km</desc>
<time>2010-03-03T15:57:31.40</time>
<name>72</name>
</trkpt>
<trkpt lat="48.941162" lon="8.668447">
<ele>320.5</ele>
<speed>2.4</speed>
<course>142.5</course>
<desc>Speed 2.4 km/h Distance 0.29 km</desc>
<time>2010-03-03T15:57:34.40</time>
<name>73</name>
</trkpt>
<trkpt lat="48.941152" lon="8.668458">
<ele>320.5</ele>
<speed>2.4</speed>
<course>254.5</course>
<desc>Speed 2.4 km/h Distance 0.29 km</desc>
<time>2010-03-03T15:57:35.40</time>
<name>74</name>
</trkpt>
<trkpt lat="48.941148" lon="8.668440">
<ele>320.5</ele>
<speed>2.4</speed>
<course>333.6</course>
<desc>Speed 2.4 km/h Distance 0.30 km</desc>
<time>2010-03-03T15:57:36.41</time>
<name>75</name>
</trkpt>
<trkpt lat="48.941155" lon="8.668435">
<ele>320.5</ele>
<speed>2.4</speed>
<course>288.7</course>
<desc>Speed 2.4 km/h Distance 0.30 km</desc>
<time>2010-03-03T15:57:37.41</time>
<name>76</name>
</trkpt>
<trkpt lat="48.941158" lon="8.668420">
<ele>320.5</ele>
<speed>2.4</speed>
<course>270.0</course>
<desc>Speed 2.4 km/h Distance 0.30 km</desc>
<time>2010-03-03T15:57:38.41</time>
<name>77</name>
</trkpt>
<trkpt lat="48.941158" lon="8.668417">
<ele>320.5</ele>
<speed>2.4</speed>
<course>276.7</course>
<desc>Speed 2.4 km/h Distance 0.30 km</desc>
<time>2010-03-03T15:57:39.41</time>
<name>78</name>
</trkpt>
<trkpt lat="48.941160" lon="8.668395">
<ele>320.5</ele>
<speed>2.3</speed>
<course>307.2</course>
<desc>Speed 2.3 km/h Distance 0.30 km</desc>
<time>2010-03-03T15:57:40.41</time>
<name>79</name>
</trkpt>
<trkpt lat="48.941165" lon="8.668385">
<ele>320.5</ele>
<speed>2.3</speed>
<course>262.8</course>
<desc>Speed 2.3 km/h Distance 0.30 km</desc>
<time>2010-03-03T15:57:41.41</time>
<name>80</name>
</trkpt>
<trkpt lat="48.941163" lon="8.668365">
<ele>320.5</ele>
<speed>1.9</speed>
<course>198.8</course>
<desc>Speed 1.9 km/h Distance 0.30 km</desc>
<time>2010-03-03T15:57:42.41</time>
<name>81</name>
</trkpt>
<trkpt lat="48.941157" lon="8.668362">
<ele>320.5</ele>
<speed>1.9</speed>
<course>219.4</course>
<desc>Speed 1.9 km/h Distance 0.30 km</desc>
<time>2010-03-03T15:57:43.41</time>
<name>82</name>
</trkpt>
<trkpt lat="48.941150" lon="8.668353">
<ele>320.5</ele>
<speed>1.9</speed>
<course>178.8</course>
<desc>Speed 1.9 km/h Distance 0.30 km</desc>
<time>2010-03-03T15:57:44.41</time>
<name>83</name>
</trkpt>
<trkpt lat="48.941143" lon="8.668353">
<ele>320.5</ele>
<speed>1.9</speed>
<course>156.2</course>
<desc>Speed 1.9 km/h Distance 0.31 km</desc>
<time>2010-03-03T15:57:45.41</time>
<name>84</name>
</trkpt>
<trkpt lat="48.941138" lon="8.668357">
<ele>320.5</ele>
<speed>1.9</speed>
<course>154.0</course>
<desc>Speed 1.9 km/h Distance 0.31 km</desc>
<time>2010-03-03T15:57:46.41</time>
<name>85</name>
</trkpt>
<trkpt lat="48.941125" lon="8.668367">
<ele>320.5</ele>
<speed>1.9</speed>
<course>133.1</course>
<desc>Speed 1.9 km/h Distance 0.31 km</desc>
<time>2010-03-03T15:57:47.41</time>
<name>86</name>
</trkpt>
<trkpt lat="48.941112" lon="8.668388">
<ele>320.5</ele>
<speed>5.8</speed>
<course>121.4</course>
<desc>Speed 5.8 km/h Distance 0.31 km</desc>
<time>2010-03-03T15:57:48.41</time>
<name>87</name>
</trkpt>
<trkpt lat="48.941102" lon="8.668413">
<ele>320.5</ele>
<speed>5.8</speed>
<course>133.6</course>
<desc>Speed 5.8 km/h Distance 0.31 km</desc>
<time>2010-03-03T15:57:49.41</time>
<name>88</name>
</trkpt>
<trkpt lat="48.941085" lon="8.668440">
<ele>321.0</ele>
<speed>4.2</speed>
<course>139.4</course>
<desc>Speed 4.2 km/h Distance 0.31 km</desc>
<time>2010-03-03T15:57:50.41</time>
<name>89</name>
</trkpt>
<trkpt lat="48.941063" lon="8.668468">
<ele>321.0</ele>
<speed>4.2</speed>
<course>331.8</course>
<desc>Speed 4.2 km/h Distance 0.32 km</desc>
<time>2010-03-03T15:57:51.43</time>
<name>90</name>
</trkpt>
<trkpt lat="48.941108" lon="8.668432">
<ele>321.0</ele>
<speed>13.2</speed>
<course>128.1</course>
<desc>Speed 13.2 km/h Distance 0.32 km</desc>
<time>2010-03-03T15:57:53.43</time>
<name>91</name>
</trkpt>
<trkpt lat="48.941080" lon="8.668487">
<ele>321.0</ele>
<speed>3.7</speed>
<course>105.8</course>
<desc>Speed 3.7 km/h Distance 0.33 km</desc>
<time>2010-03-03T15:57:55.43</time>
<name>92</name>
</trkpt>
<trkpt lat="48.941067" lon="8.668558">
<ele>321.0</ele>
<speed>2.9</speed>
<course>124.7</course>
<desc>Speed 2.9 km/h Distance 0.33 km</desc>
<time>2010-03-03T15:57:57.43</time>
<name>93</name>
</trkpt>
<trkpt lat="48.941058" lon="8.668577">
<ele>321.0</ele>
<speed>2.7</speed>
<course>145.5</course>
<desc>Speed 2.7 km/h Distance 0.34 km</desc>
<time>2010-03-03T15:57:58.43</time>
<name>94</name>
</trkpt>
<trkpt lat="48.941023" lon="8.668613">
<ele>321.5</ele>
<speed>3.9</speed>
<course>135.4</course>
<desc>Speed 3.9 km/h Distance 0.34 km</desc>
<time>2010-03-03T15:57:59.94</time>
<name>95</name>
</trkpt>
<trkpt lat="48.940987" lon="8.668668">
<ele>321.5</ele>
<speed>4.2</speed>
<course>129.3</course>
<desc>Speed 4.2 km/h Distance 0.35 km</desc>
<time>2010-03-03T15:58:01.94</time>
<name>96</name>
</trkpt>
<trkpt lat="48.940975" lon="8.668690">
<ele>321.5</ele>
<speed>4.2</speed>
<course>129.6</course>
<desc>Speed 4.2 km/h Distance 0.35 km</desc>
<time>2010-03-03T15:58:02.93</time>
<name>97</name>
</trkpt>
<trkpt lat="48.940933" lon="8.668767">
<ele>321.5</ele>
<speed>5.2</speed>
<course>147.5</course>
<desc>Speed 5.2 km/h Distance 0.36 km</desc>
<time>2010-03-03T15:58:04.94</time>
<name>98</name>
</trkpt>
<trkpt lat="48.940877" lon="8.668822">
<ele>321.5</ele>
<speed>2.4</speed>
<course>170.2</course>
<desc>Speed 2.4 km/h Distance 0.36 km</desc>
<time>2010-03-03T15:58:06.94</time>
<name>99</name>
</trkpt>
<trkpt lat="48.940858" lon="8.668827">
<ele>321.5</ele>
<speed>4.3</speed>
<course>190.4</course>
<desc>Speed 4.3 km/h Distance 0.36 km</desc>
<time>2010-03-03T15:58:07.94</time>
<name>100</name>
</trkpt>
<trkpt lat="48.940847" lon="8.668823">
<ele>321.5</ele>
<speed>4.3</speed>
<course>133.6</course>
<desc>Speed 4.3 km/h Distance 0.37 km</desc>
<time>2010-03-03T15:58:08.94</time>
<name>101</name>
</trkpt>
<trkpt lat="48.940830" lon="8.668850">
<ele>321.5</ele>
<speed>4.2</speed>
<course>144.6</course>
<desc>Speed 4.2 km/h Distance 0.37 km</desc>
<time>2010-03-03T15:58:09.94</time>
<name>102</name>
</trkpt>
<trkpt lat="48.940810" lon="8.668872">
<ele>321.5</ele>
<speed>4.2</speed>
<course>127.3</course>
<desc>Speed 4.2 km/h Distance 0.37 km</desc>
<time>2010-03-03T15:58:10.93</time>
<name>103</name>
</trkpt>
<trkpt lat="48.940797" lon="8.668898">
<ele>321.5</ele>
<speed>2.1</speed>
<course>127.3</course>
<desc>Speed 2.1 km/h Distance 0.37 km</desc>
<time>2010-03-03T15:58:11.92</time>
<name>104</name>
</trkpt>
<trkpt lat="48.940790" lon="8.668912">
<ele>321.5</ele>
<speed>2.1</speed>
<course>131.0</course>
<desc>Speed 2.1 km/h Distance 0.38 km</desc>
<time>2010-03-03T15:58:12.93</time>
<name>105</name>
</trkpt>
<trkpt lat="48.940777" lon="8.668935">
<ele>321.5</ele>
<speed>2.9</speed>
<course>132.6</course>
<desc>Speed 2.9 km/h Distance 0.38 km</desc>
<time>2010-03-03T15:58:13.93</time>
<name>106</name>
</trkpt>
<trkpt lat="48.940772" lon="8.668943">
<ele>321.5</ele>
<speed>2.9</speed>
<course>108.1</course>
<desc>Speed 2.9 km/h Distance 0.38 km</desc>
<time>2010-03-03T15:58:14.93</time>
<name>107</name>
</trkpt>
<trkpt lat="48.940767" lon="8.668967">
<ele>321.5</ele>
<speed>3.0</speed>
<course>105.4</course>
<desc>Speed 3.0 km/h Distance 0.38 km</desc>
<time>2010-03-03T15:58:15.92</time>
<name>108</name>
</trkpt>
<trkpt lat="48.940763" lon="8.668985">
<ele>321.5</ele>
<speed>3.0</speed>
<course>124.0</course>
<desc>Speed 3.0 km/h Distance 0.38 km</desc>
<time>2010-03-03T15:58:17.24</time>
<name>109</name>
</trkpt>
<trkpt lat="48.940750" lon="8.669015">
<ele>321.5</ele>
<speed>3.0</speed>
<course>146.3</course>
<desc>Speed 3.0 km/h Distance 0.38 km</desc>
<time>2010-03-03T15:58:18.93</time>
<name>110</name>
</trkpt>
<trkpt lat="48.940743" lon="8.669022">
<ele>321.5</ele>
<speed>3.0</speed>
<course>127.2</course>
<desc>Speed 3.0 km/h Distance 0.38 km</desc>
<time>2010-03-03T15:58:19.92</time>
<name>111</name>
</trkpt>
<trkpt lat="48.940738" lon="8.669032">
<ele>322.0</ele>
<speed>3.0</speed>
<course>110.9</course>
<desc>Speed 3.0 km/h Distance 0.39 km</desc>
<time>2010-03-03T15:58:20.93</time>
<name>112</name>
</trkpt>
<trkpt lat="48.940737" lon="8.669038">
<ele>322.0</ele>
<speed>3.0</speed>
<course>107.4</course>
<desc>Speed 3.0 km/h Distance 0.39 km</desc>
<time>2010-03-03T15:58:21.96</time>
<name>113</name>
</trkpt>
<trkpt lat="48.940712" lon="8.669160">
<ele>322.0</ele>
<speed>4.5</speed>
<course>96.7</course>
<desc>Speed 4.5 km/h Distance 0.40 km</desc>
<time>2010-03-03T15:58:23.93</time>
<name>114</name>
</trkpt>
<trkpt lat="48.940710" lon="8.669182">
<ele>322.0</ele>
<speed>4.5</speed>
<course>114.5</course>
<desc>Speed 4.5 km/h Distance 0.40 km</desc>
<time>2010-03-03T15:58:24.93</time>
<name>115</name>
</trkpt>
<trkpt lat="48.940705" lon="8.669198">
<ele>322.0</ele>
<speed>4.5</speed>
<course>146.8</course>
<desc>Speed 4.5 km/h Distance 0.40 km</desc>
<time>2010-03-03T15:58:25.93</time>
<name>116</name>
</trkpt>
<trkpt lat="48.940695" lon="8.669208">
<ele>322.0</ele>
<speed>4.5</speed>
<course>113.5</course>
<desc>Speed 4.5 km/h Distance 0.40 km</desc>
<time>2010-03-03T15:58:26.92</time>
<name>117</name>
</trkpt>
<trkpt lat="48.940685" lon="8.669243">
<ele>322.0</ele>
<speed>4.5</speed>
<course>108.1</course>
<desc>Speed 4.5 km/h Distance 0.40 km</desc>
<time>2010-03-03T15:58:27.93</time>
<name>118</name>
</trkpt>
<trkpt lat="48.940680" lon="8.669267">
<ele>322.0</ele>
<speed>4.5</speed>
<course>110.9</course>
<desc>Speed 4.5 km/h Distance 0.40 km</desc>
<time>2010-03-03T15:58:28.98</time>
<name>119</name>
</trkpt>
<trkpt lat="48.940677" lon="8.669280">
<ele>322.0</ele>
<speed>4.5</speed>
<course>140.6</course>
<desc>Speed 4.5 km/h Distance 0.41 km</desc>
<time>2010-03-03T15:58:29.93</time>
<name>120</name>
</trkpt>
<trkpt lat="48.940670" lon="8.669288">
<ele>322.0</ele>
<speed>4.5</speed>
<course>123.1</course>
<desc>Speed 4.5 km/h Distance 0.41 km</desc>
<time>2010-03-03T15:58:30.92</time>
<name>121</name>
</trkpt>
<trkpt lat="48.940665" lon="8.669300">
<ele>322.0</ele>
<speed>4.5</speed>
<course>69.2</course>
<desc>Speed 4.5 km/h Distance 0.41 km</desc>
<time>2010-03-03T15:58:32.00</time>
<name>122</name>
</trkpt>
<trkpt lat="48.940672" lon="8.669327">
<ele>322.0</ele>
<speed>4.5</speed>
<course>99.6</course>
<desc>Speed 4.5 km/h Distance 0.41 km</desc>
<time>2010-03-03T15:58:32.92</time>
<name>123</name>
</trkpt>
<trkpt lat="48.940670" lon="8.669342">
<ele>322.0</ele>
<speed>4.5</speed>
<course>127.0</course>
<desc>Speed 4.5 km/h Distance 0.41 km</desc>
<time>2010-03-03T15:58:33.92</time>
<name>124</name>
</trkpt>
<trkpt lat="48.940667" lon="8.669348">
<ele>322.0</ele>
<speed>4.5</speed>
<course>127.2</course>
<desc>Speed 4.5 km/h Distance 0.41 km</desc>
<time>2010-03-03T15:58:34.95</time>
<name>125</name>
</trkpt>
<trkpt lat="48.940662" lon="8.669358">
<ele>322.0</ele>
<speed>4.5</speed>
<course>63.1</course>
<desc>Speed 4.5 km/h Distance 0.41 km</desc>
<time>2010-03-03T15:58:35.92</time>
<name>126</name>
</trkpt>
<trkpt lat="48.940670" lon="8.669383">
<ele>322.0</ele>
<speed>4.5</speed>
<course>116.9</course>
<desc>Speed 4.5 km/h Distance 0.41 km</desc>
<time>2010-03-03T15:58:36.92</time>
<name>127</name>
</trkpt>
<trkpt lat="48.940665" lon="8.669398">
<ele>322.0</ele>
<speed>4.5</speed>
<course>161.8</course>
<desc>Speed 4.5 km/h Distance 0.42 km</desc>
<time>2010-03-03T15:58:37.92</time>
<name>128</name>
</trkpt>
<trkpt lat="48.940645" lon="8.669408">
<ele>322.0</ele>
<speed>4.5</speed>
<course>127.3</course>
<desc>Speed 4.5 km/h Distance 0.42 km</desc>
<time>2010-03-03T15:58:38.92</time>
<name>129</name>
</trkpt>
<trkpt lat="48.940610" lon="8.669478">
<ele>322.0</ele>
<speed>13.4</speed>
<course>175.9</course>
<desc>Speed 13.4 km/h Distance 0.42 km</desc>
<time>2010-03-03T15:58:40.92</time>
<name>130</name>
</trkpt>
<trkpt lat="48.940593" lon="8.669480">
<ele>322.0</ele>
<speed>13.4</speed>
<course>137.9</course>
<desc>Speed 13.4 km/h Distance 0.43 km</desc>
<time>2010-03-03T15:58:41.91</time>
<name>131</name>
</trkpt>
<trkpt lat="48.940567" lon="8.669517">
<ele>322.0</ele>
<speed>3.7</speed>
<course>107.3</course>
<desc>Speed 3.7 km/h Distance 0.43 km</desc>
<time>2010-03-03T15:58:43.92</time>
<name>132</name>
</trkpt>
<trkpt lat="48.940525" lon="8.669720">
<ele>322.5</ele>
<speed>3.7</speed>
<course>277.4</course>
<desc>Speed 3.7 km/h Distance 0.45 km</desc>
<time>2010-03-03T15:58:46.92</time>
<name>133</name>
</trkpt>
<trkpt lat="48.940530" lon="8.669662">
<ele>322.5</ele>
<speed>3.3</speed>
<course>138.6</course>
<desc>Speed 3.3 km/h Distance 0.45 km</desc>
<time>2010-03-03T15:58:48.92</time>
<name>134</name>
</trkpt>
<trkpt lat="48.940525" lon="8.669668">
<ele>322.5</ele>
<speed>3.3</speed>
<course>172.6</course>
<desc>Speed 3.3 km/h Distance 0.45 km</desc>
<time>2010-03-03T15:58:49.91</time>
<name>135</name>
</trkpt>
<trkpt lat="48.940518" lon="8.669670">
<ele>322.5</ele>
<speed>3.3</speed>
<course>180.0</course>
<desc>Speed 3.3 km/h Distance 0.45 km</desc>
<time>2010-03-03T15:58:50.91</time>
<name>136</name>
</trkpt>
<trkpt lat="48.940503" lon="8.669670">
<ele>322.5</ele>
<speed>3.2</speed>
<course>124.7</course>
<desc>Speed 3.2 km/h Distance 0.45 km</desc>
<time>2010-03-03T15:58:51.91</time>
<name>137</name>
</trkpt>
<trkpt lat="48.940495" lon="8.669688">
<ele>322.5</ele>
<speed>5.8</speed>
<course>116.9</course>
<desc>Speed 5.8 km/h Distance 0.45 km</desc>
<time>2010-03-03T15:58:52.92</time>
<name>138</name>
</trkpt>
<trkpt lat="48.940490" lon="8.669703">
<ele>322.5</ele>
<speed>5.8</speed>
<course>131.3</course>
<desc>Speed 5.8 km/h Distance 0.46 km</desc>
<time>2010-03-03T15:58:53.91</time>
<name>139</name>
</trkpt>
<trkpt lat="48.940483" lon="8.669715">
<ele>322.5</ele>
<speed>5.8</speed>
<course>196.0</course>
<desc>Speed 5.8 km/h Distance 0.46 km</desc>
<time>2010-03-03T15:58:54.91</time>
<name>140</name>
</trkpt>
<trkpt lat="48.940477" lon="8.669712">
<ele>322.5</ele>
<speed>2.4</speed>
<course>110.9</course>
<desc>Speed 2.4 km/h Distance 0.46 km</desc>
<time>2010-03-03T15:58:55.91</time>
<name>141</name>
</trkpt>
<trkpt lat="48.940475" lon="8.669718">
<ele>322.5</ele>
<speed>2.4</speed>
<course>135.5</course>
<desc>Speed 2.4 km/h Distance 0.46 km</desc>
<time>2010-03-03T15:58:56.91</time>
<name>142</name>
</trkpt>
<trkpt lat="48.940472" lon="8.669723">
<ele>322.5</ele>
<speed>2.4</speed>
<course>156.2</course>
<desc>Speed 2.4 km/h Distance 0.46 km</desc>
<time>2010-03-03T15:58:57.91</time>
<name>143</name>
</trkpt>
<trkpt lat="48.940467" lon="8.669727">
<ele>322.5</ele>
<speed>2.4</speed>
<course>175.3</course>
<desc>Speed 2.4 km/h Distance 0.46 km</desc>
<time>2010-03-03T15:58:58.91</time>
<name>144</name>
</trkpt>
<trkpt lat="48.940455" lon="8.669728">
<ele>322.5</ele>
<speed>3.2</speed>
<course>104.5</course>
<desc>Speed 3.2 km/h Distance 0.46 km</desc>
<time>2010-03-03T15:58:59.92</time>
<name>145</name>
</trkpt>
<trkpt lat="48.940442" lon="8.669807">
<ele>322.5</ele>
<speed>6.6</speed>
<course>125.3</course>
<desc>Speed 6.6 km/h Distance 0.47 km</desc>
<time>2010-03-03T15:59:01.90</time>
<name>146</name>
</trkpt>
<trkpt lat="48.940430" lon="8.669832">
<ele>322.5</ele>
<speed>6.6</speed>
<course>205.6</course>
<desc>Speed 6.6 km/h Distance 0.47 km</desc>
<time>2010-03-03T15:59:02.90</time>
<name>147</name>
</trkpt>
<trkpt lat="48.940423" lon="8.669827">
<ele>322.5</ele>
<speed>2.4</speed>
<course>90.0</course>
<desc>Speed 2.4 km/h Distance 0.47 km</desc>
<time>2010-03-03T15:59:03.91</time>
<name>148</name>
</trkpt>
<trkpt lat="48.940423" lon="8.669858">
<ele>322.5</ele>
<speed>3.2</speed>
<course>96.2</course>
<desc>Speed 3.2 km/h Distance 0.47 km</desc>
<time>2010-03-03T15:59:04.91</time>
<name>149</name>
</trkpt>
<trkpt lat="48.940422" lon="8.669882">
<ele>322.5</ele>
<speed>3.2</speed>
<course>119.7</course>
<desc>Speed 3.2 km/h Distance 0.47 km</desc>
<time>2010-03-03T15:59:05.90</time>
<name>150</name>
</trkpt>
<trkpt lat="48.940417" lon="8.669895">
<ele>322.5</ele>
<speed>3.2</speed>
<course>146.8</course>
<desc>Speed 3.2 km/h Distance 0.48 km</desc>
<time>2010-03-03T15:59:06.90</time>
<name>151</name>
</trkpt>
<trkpt lat="48.940407" lon="8.669905">
<ele>322.5</ele>
<speed>3.6</speed>
<course>98.5</course>
<desc>Speed 3.6 km/h Distance 0.48 km</desc>
<time>2010-03-03T15:59:07.91</time>
<name>152</name>
</trkpt>
<trkpt lat="48.940395" lon="8.670023">
<ele>322.5</ele>
<speed>6.9</speed>
<course>108.1</course>
<desc>Speed 6.9 km/h Distance 0.49 km</desc>
<time>2010-03-03T15:59:09.90</time>
<name>153</name>
</trkpt>
<trkpt lat="48.940390" lon="8.670047">
<ele>322.5</ele>
<speed>6.9</speed>
<course>198.8</course>
<desc>Speed 6.9 km/h Distance 0.49 km</desc>
<time>2010-03-03T15:59:10.91</time>
<name>154</name>
</trkpt>
<trkpt lat="48.940387" lon="8.670045">
<ele>322.5</ele>
<speed>1.5</speed>
<course>192.6</course>
<desc>Speed 1.5 km/h Distance 0.49 km</desc>
<time>2010-03-03T15:59:11.90</time>
<name>155</name>
</trkpt>
<trkpt lat="48.940383" lon="8.670043">
<ele>322.5</ele>
<speed>1.5</speed>
<course>90.0</course>
<desc>Speed 1.5 km/h Distance 0.49 km</desc>
<time>2010-03-03T15:59:12.91</time>
<name>156</name>
</trkpt>
<trkpt lat="48.940383" lon="8.670067">
<ele>322.5</ele>
<speed>1.5</speed>
<course>127.2</course>
<desc>Speed 1.5 km/h Distance 0.49 km</desc>
<time>2010-03-03T15:59:13.90</time>
<name>157</name>
</trkpt>
<trkpt lat="48.940378" lon="8.670077">
<ele>322.5</ele>
<speed>1.5</speed>
<course>173.4</course>
<desc>Speed 1.5 km/h Distance 0.49 km</desc>
<time>2010-03-03T15:59:14.89</time>
<name>158</name>
</trkpt>
<trkpt lat="48.940368" lon="8.670078">
<ele>322.5</ele>
<speed>2.4</speed>
<course>168.8</course>
<desc>Speed 2.4 km/h Distance 0.49 km</desc>
<time>2010-03-03T15:59:15.90</time>
<name>159</name>
</trkpt>
<trkpt lat="48.940352" lon="8.670083">
<ele>322.5</ele>
<speed>2.4</speed>
<course>96.2</course>
<desc>Speed 2.4 km/h Distance 0.49 km</desc>
<time>2010-03-03T15:59:16.90</time>
<name>160</name>
</trkpt>
<trkpt lat="48.940350" lon="8.670107">
<ele>322.5</ele>
<speed>2.4</speed>
<course>127.2</course>
<desc>Speed 2.4 km/h Distance 0.50 km</desc>
<time>2010-03-03T15:59:17.90</time>
<name>161</name>
</trkpt>
<trkpt lat="48.940345" lon="8.670117">
<ele>322.5</ele>
<speed>2.4</speed>
<course>191.2</course>
<desc>Speed 2.4 km/h Distance 0.50 km</desc>
<time>2010-03-03T15:59:18.89</time>
<name>162</name>
</trkpt>
<trkpt lat="48.940333" lon="8.670113">
<ele>322.5</ele>
<speed>3.3</speed>
<course>178.8</course>
<desc>Speed 3.3 km/h Distance 0.50 km</desc>
<time>2010-03-03T15:59:19.90</time>
<name>163</name>
</trkpt>
<trkpt lat="48.940320" lon="8.670113">
<ele>322.5</ele>
<speed>3.3</speed>
<course>83.8</course>
<desc>Speed 3.3 km/h Distance 0.50 km</desc>
<time>2010-03-03T15:59:20.90</time>
<name>164</name>
</trkpt>
<trkpt lat="48.940322" lon="8.670137">
<ele>322.5</ele>
<speed>3.3</speed>
<course>142.5</course>
<desc>Speed 3.3 km/h Distance 0.50 km</desc>
<time>2010-03-03T15:59:21.90</time>
<name>165</name>
</trkpt>
<trkpt lat="48.940312" lon="8.670148">
<ele>322.5</ele>
<speed>3.3</speed>
<course>155.5</course>
<desc>Speed 3.3 km/h Distance 0.50 km</desc>
<time>2010-03-03T15:59:22.90</time>
<name>166</name>
</trkpt>
<trkpt lat="48.940290" lon="8.670163">
<ele>322.5</ele>
<speed>3.1</speed>
<course>146.7</course>
<desc>Speed 3.1 km/h Distance 0.50 km</desc>
<time>2010-03-03T15:59:23.90</time>
<name>167</name>
</trkpt>
<trkpt lat="48.940257" lon="8.670197">
<ele>322.5</ele>
<speed>3.1</speed>
<course>146.6</course>
<desc>Speed 3.1 km/h Distance 0.51 km</desc>
<time>2010-03-03T15:59:25.90</time>
<name>168</name>
</trkpt>
<trkpt lat="48.940243" lon="8.670210">
<ele>322.5</ele>
<speed>3.1</speed>
<course>143.9</course>
<desc>Speed 3.1 km/h Distance 0.51 km</desc>
<time>2010-03-03T15:59:26.90</time>
<name>169</name>
</trkpt>
<trkpt lat="48.940198" lon="8.670260">
<ele>322.5</ele>
<speed>5.1</speed>
<course>104.2</course>
<desc>Speed 5.1 km/h Distance 0.52 km</desc>
<time>2010-03-03T15:59:28.88</time>
<name>170</name>
</trkpt>
<trkpt lat="48.940195" lon="8.670280">
<ele>322.5</ele>
<speed>5.1</speed>
<course>123.9</course>
<desc>Speed 5.1 km/h Distance 0.52 km</desc>
<time>2010-03-03T15:59:29.89</time>
<name>171</name>
</trkpt>
<trkpt lat="48.940188" lon="8.670295">
<ele>322.5</ele>
<speed>5.1</speed>
<course>146.5</course>
<desc>Speed 5.1 km/h Distance 0.52 km</desc>
<time>2010-03-03T15:59:30.89</time>
<name>172</name>
</trkpt>
<trkpt lat="48.940180" lon="8.670303">
<ele>322.5</ele>
<speed>2.0</speed>
<course>141.9</course>
<desc>Speed 2.0 km/h Distance 0.52 km</desc>
<time>2010-03-03T15:59:31.89</time>
<name>173</name>
</trkpt>
<trkpt lat="48.940172" lon="8.670313">
<ele>322.5</ele>
<speed>2.0</speed>
<course>103.2</course>
<desc>Speed 2.0 km/h Distance 0.52 km</desc>
<time>2010-03-03T15:59:32.89</time>
<name>174</name>
</trkpt>
<trkpt lat="48.940168" lon="8.670335">
<ele>322.5</ele>
<speed>2.0</speed>
<course>146.6</course>
<desc>Speed 2.0 km/h Distance 0.52 km</desc>
<time>2010-03-03T15:59:33.89</time>
<name>175</name>
</trkpt>
<trkpt lat="48.940157" lon="8.670347">
<ele>322.5</ele>
<speed>2.0</speed>
<course>146.6</course>
<desc>Speed 2.0 km/h Distance 0.53 km</desc>
<time>2010-03-03T15:59:34.89</time>
<name>176</name>
</trkpt>
<trkpt lat="48.940143" lon="8.670360">
<ele>322.5</ele>
<speed>4.3</speed>
<course>153.0</course>
<desc>Speed 4.3 km/h Distance 0.53 km</desc>
<time>2010-03-03T15:59:35.89</time>
<name>177</name>
</trkpt>
<trkpt lat="48.940128" lon="8.670372">
<ele>322.5</ele>
<speed>4.3</speed>
<course>97.5</course>
<desc>Speed 4.3 km/h Distance 0.53 km</desc>
<time>2010-03-03T15:59:36.88</time>
<name>178</name>
</trkpt>
<trkpt lat="48.940125" lon="8.670410">
<ele>322.5</ele>
<speed>4.3</speed>
<course>110.9</course>
<desc>Speed 4.3 km/h Distance 0.53 km</desc>
<time>2010-03-03T15:59:37.89</time>
<name>179</name>
</trkpt>
<trkpt lat="48.940122" lon="8.670423">
<ele>322.5</ele>
<speed>4.3</speed>
<course>162.4</course>
<desc>Speed 4.3 km/h Distance 0.53 km</desc>
<time>2010-03-03T15:59:38.89</time>
<name>180</name>
</trkpt>
<trkpt lat="48.940112" lon="8.670428">
<ele>322.5</ele>
<speed>2.2</speed>
<course>159.1</course>
<desc>Speed 2.2 km/h Distance 0.53 km</desc>
<time>2010-03-03T15:59:39.89</time>
<name>181</name>
</trkpt>
<trkpt lat="48.940100" lon="8.670435">
<ele>322.5</ele>
<speed>2.2</speed>
<course>87.0</course>
<desc>Speed 2.2 km/h Distance 0.54 km</desc>
<time>2010-03-03T15:59:40.88</time>
<name>182</name>
</trkpt>
<trkpt lat="48.940102" lon="8.670483">
<ele>322.5</ele>
<speed>2.2</speed>
<course>203.8</course>
<desc>Speed 2.2 km/h Distance 0.54 km</desc>
<time>2010-03-03T15:59:42.89</time>
<name>183</name>
</trkpt>
<trkpt lat="48.940092" lon="8.670477">
<ele>322.5</ele>
<speed>2.8</speed>
<course>185.3</course>
<desc>Speed 2.8 km/h Distance 0.54 km</desc>
<time>2010-03-03T15:59:43.89</time>
<name>184</name>
</trkpt>
<trkpt lat="48.940078" lon="8.670475">
<ele>322.5</ele>
<speed>2.8</speed>
<course>159.1</course>
<desc>Speed 2.8 km/h Distance 0.54 km</desc>
<time>2010-03-03T15:59:44.88</time>
<name>185</name>
</trkpt>
<trkpt lat="48.940067" lon="8.670482">
<ele>322.5</ele>
<speed>2.8</speed>
<course>167.4</course>
<desc>Speed 2.8 km/h Distance 0.54 km</desc>
<time>2010-03-03T15:59:45.89</time>
<name>186</name>
</trkpt>
<trkpt lat="48.940052" lon="8.670487">
<ele>322.5</ele>
<speed>2.8</speed>
<course>155.2</course>
<desc>Speed 2.8 km/h Distance 0.54 km</desc>
<time>2010-03-03T15:59:46.88</time>
<name>187</name>
</trkpt>
<trkpt lat="48.940045" lon="8.670492">
<ele>322.5</ele>
<speed>2.2</speed>
<course>162.4</course>
<desc>Speed 2.2 km/h Distance 0.55 km</desc>
<time>2010-03-03T15:59:47.88</time>
<name>188</name>
</trkpt>
<trkpt lat="48.940035" lon="8.670497">
<ele>322.5</ele>
<speed>2.2</speed>
<course>51.9</course>
<desc>Speed 2.2 km/h Distance 0.55 km</desc>
<time>2010-03-03T15:59:48.88</time>
<name>189</name>
</trkpt>
<trkpt lat="48.940037" lon="8.670500">
<ele>322.5</ele>
<speed>2.2</speed>
<course>128.1</course>
<desc>Speed 2.2 km/h Distance 0.55 km</desc>
<time>2010-03-03T15:59:49.88</time>
<name>190</name>
</trkpt>
<trkpt lat="48.940035" lon="8.670503">
<ele>322.5</ele>
<speed>2.2</speed>
<course>297.4</course>
<desc>Speed 2.2 km/h Distance 0.55 km</desc>
<time>2010-03-03T15:59:50.88</time>
<name>191</name>
</trkpt>
<trkpt lat="48.940037" lon="8.670498">
<ele>322.5</ele>
<speed>2.1</speed>
<course>270.0</course>
<desc>Speed 2.1 km/h Distance 0.55 km</desc>
<time>2010-03-03T15:59:51.88</time>
<name>192</name>
</trkpt>
<trkpt lat="48.940037" lon="8.670493">
<ele>322.5</ele>
<speed>2.1</speed>
<course>25.6</course>
<desc>Speed 2.1 km/h Distance 0.55 km</desc>
<time>2010-03-03T15:59:52.88</time>
<name>193</name>
</trkpt>
<trkpt lat="48.940043" lon="8.670498">
<ele>322.5</ele>
<speed>2.1</speed>
<course>308.1</course>
<desc>Speed 2.1 km/h Distance 0.55 km</desc>
<time>2010-03-03T15:59:53.88</time>
<name>194</name>
</trkpt>
<trkpt lat="48.940045" lon="8.670495">
<ele>322.5</ele>
<speed>2.1</speed>
<course>270.0</course>
<desc>Speed 2.1 km/h Distance 0.55 km</desc>
<time>2010-03-03T15:59:54.88</time>
<name>195</name>
</trkpt>
<trkpt lat="48.940045" lon="8.670488">
<ele>322.5</ele>
<speed>2.3</speed>
<course>224.5</course>
<desc>Speed 2.3 km/h Distance 0.55 km</desc>
<time>2010-03-03T15:59:55.88</time>
<name>196</name>
</trkpt>
<trkpt lat="48.940042" lon="8.670483">
<ele>322.5</ele>
<speed>2.3</speed>
<course>44.5</course>
<desc>Speed 2.3 km/h Distance 0.55 km</desc>
<time>2010-03-03T15:59:56.88</time>
<name>197</name>
</trkpt>
<trkpt lat="48.940045" lon="8.670488">
<ele>322.5</ele>
<speed>2.3</speed>
<course>117.4</course>
<desc>Speed 2.3 km/h Distance 0.55 km</desc>
<time>2010-03-03T15:59:57.88</time>
<name>198</name>
</trkpt>
<trkpt lat="48.940043" lon="8.670493">
<ele>322.5</ele>
<speed>2.3</speed>
<course>224.5</course>
<desc>Speed 2.3 km/h Distance 0.55 km</desc>
<time>2010-03-03T15:59:58.88</time>
<name>199</name>
</trkpt>
<trkpt lat="48.940040" lon="8.670488">
<ele>322.5</ele>
<speed>2.0</speed>
<course>180.0</course>
<desc>Speed 2.0 km/h Distance 0.55 km</desc>
<time>2010-03-03T15:59:59.88</time>
<name>200</name>
</trkpt>
<trkpt lat="48.940037" lon="8.670488">
<ele>322.5</ele>
<speed>2.0</speed>
<course>34.1</course>
<desc>Speed 2.0 km/h Distance 0.55 km</desc>
<time>2010-03-03T16:00:00.88</time>
<name>201</name>
</trkpt>
<trkpt lat="48.940042" lon="8.670493">
<ele>322.5</ele>
<speed>2.0</speed>
<course>69.1</course>
<desc>Speed 2.0 km/h Distance 0.55 km</desc>
<time>2010-03-03T16:00:01.87</time>
<name>202</name>
</trkpt>
<trkpt lat="48.940043" lon="8.670500">
<ele>322.5</ele>
<speed>2.0</speed>
<course>125.7</course>
<desc>Speed 2.0 km/h Distance 0.55 km</desc>
<time>2010-03-03T16:00:02.87</time>
<name>203</name>
</trkpt>
<trkpt lat="48.940015" lon="8.670560">
<ele>322.5</ele>
<speed>5.8</speed>
<course>122.1</course>
<desc>Speed 5.8 km/h Distance 0.56 km</desc>
<time>2010-03-03T16:00:04.87</time>
<name>204</name>
</trkpt>
<trkpt lat="48.940003" lon="8.670588">
<ele>322.5</ele>
<speed>5.8</speed>
<course>124.0</course>
<desc>Speed 5.8 km/h Distance 0.56 km</desc>
<time>2010-03-03T16:00:05.87</time>
<name>205</name>
</trkpt>
<trkpt lat="48.939997" lon="8.670603">
<ele>322.5</ele>
<speed>5.8</speed>
<course>146.6</course>
<desc>Speed 5.8 km/h Distance 0.56 km</desc>
<time>2010-03-03T16:00:06.88</time>
<name>206</name>
</trkpt>
<trkpt lat="48.939983" lon="8.670617">
<ele>322.5</ele>
<speed>5.8</speed>
<course>127.3</course>
<desc>Speed 5.8 km/h Distance 0.56 km</desc>
<time>2010-03-03T16:00:07.86</time>
<name>207</name>
</trkpt>
<trkpt lat="48.939972" lon="8.670640">
<ele>322.5</ele>
<speed>5.8</speed>
<course>105.0</course>
<desc>Speed 5.8 km/h Distance 0.57 km</desc>
<time>2010-03-03T16:00:08.87</time>
<name>208</name>
</trkpt>
<trkpt lat="48.939967" lon="8.670668">
<ele>322.5</ele>
<speed>5.8</speed>
<course>141.2</course>
<desc>Speed 5.8 km/h Distance 0.57 km</desc>
<time>2010-03-03T16:00:09.87</time>
<name>209</name>
</trkpt>
<trkpt lat="48.939952" lon="8.670687">
<ele>322.5</ele>
<speed>5.8</speed>
<course>146.2</course>
<desc>Speed 5.8 km/h Distance 0.57 km</desc>
<time>2010-03-03T16:00:10.88</time>
<name>210</name>
</trkpt>
<trkpt lat="48.939943" lon="8.670695">
<ele>322.5</ele>
<speed>5.8</speed>
<course>121.3</course>
<desc>Speed 5.8 km/h Distance 0.57 km</desc>
<time>2010-03-03T16:00:11.87</time>
<name>211</name>
</trkpt>
<trkpt lat="48.939933" lon="8.670720">
<ele>322.5</ele>
<speed>5.8</speed>
<course>95.4</course>
<desc>Speed 5.8 km/h Distance 0.57 km</desc>
<time>2010-03-03T16:00:12.87</time>
<name>212</name>
</trkpt>
<trkpt lat="48.939932" lon="8.670747">
<ele>322.5</ele>
<speed>5.8</speed>
<course>144.2</course>
<desc>Speed 5.8 km/h Distance 0.58 km</desc>
<time>2010-03-03T16:00:13.87</time>
<name>213</name>
</trkpt>
<trkpt lat="48.939915" lon="8.670765">
<ele>322.5</ele>
<speed>5.8</speed>
<course>127.0</course>
<desc>Speed 5.8 km/h Distance 0.58 km</desc>
<time>2010-03-03T16:00:14.87</time>
<name>214</name>
</trkpt>
<trkpt lat="48.939912" lon="8.670772">
<ele>322.5</ele>
<speed>5.8</speed>
<course>106.4</course>
<desc>Speed 5.8 km/h Distance 0.58 km</desc>
<time>2010-03-03T16:00:15.87</time>
<name>215</name>
</trkpt>
<trkpt lat="48.939892" lon="8.670875">
<ele>322.5</ele>
<speed>2.7</speed>
<course>131.0</course>
<desc>Speed 2.7 km/h Distance 0.59 km</desc>
<time>2010-03-03T16:00:17.86</time>
<name>216</name>
</trkpt>
<trkpt lat="48.939878" lon="8.670898">
<ele>322.5</ele>
<speed>2.7</speed>
<course>158.0</course>
<desc>Speed 2.7 km/h Distance 0.59 km</desc>
<time>2010-03-03T16:00:18.87</time>
<name>217</name>
</trkpt>
<trkpt lat="48.939857" lon="8.670912">
<ele>322.5</ele>
<speed>2.7</speed>
<course>116.9</course>
<desc>Speed 2.7 km/h Distance 0.59 km</desc>
<time>2010-03-03T16:00:19.86</time>
<name>218</name>
</trkpt>
<trkpt lat="48.939828" lon="8.670997">
<ele>322.5</ele>
<speed>2.2</speed>
<course>114.5</course>
<desc>Speed 2.2 km/h Distance 0.60 km</desc>
<time>2010-03-03T16:00:21.87</time>
<name>219</name>
</trkpt>
<trkpt lat="48.939823" lon="8.671013">
<ele>322.5</ele>
<speed>2.2</speed>
<course>157.0</course>
<desc>Speed 2.2 km/h Distance 0.60 km</desc>
<time>2010-03-03T16:00:22.86</time>
<name>220</name>
</trkpt>
<trkpt lat="48.939820" lon="8.671015">
<ele>322.5</ele>
<speed>2.2</speed>
<course>146.3</course>
<desc>Speed 2.2 km/h Distance 0.60 km</desc>
<time>2010-03-03T16:00:23.85</time>
<name>221</name>
</trkpt>
<trkpt lat="48.939813" lon="8.671022">
<ele>322.5</ele>
<speed>0.5</speed>
<course>129.2</course>
<desc>Speed 0.5 km/h Distance 0.60 km</desc>
<time>2010-03-03T16:00:24.87</time>
<name>222</name>
</trkpt>
<trkpt lat="48.939788" lon="8.671068">
<ele>322.5</ele>
<speed>2.4</speed>
<course>154.4</course>
<desc>Speed 2.4 km/h Distance 0.61 km</desc>
<time>2010-03-03T16:00:26.86</time>
<name>223</name>
</trkpt>
<trkpt lat="48.939770" lon="8.671082">
<ele>322.5</ele>
<speed>2.4</speed>
<course>122.0</course>
<desc>Speed 2.4 km/h Distance 0.61 km</desc>
<time>2010-03-03T16:00:27.85</time>
<name>224</name>
</trkpt>
<trkpt lat="48.939728" lon="8.671183">
<ele>322.5</ele>
<speed>4.0</speed>
<course>134.3</course>
<desc>Speed 4.0 km/h Distance 0.62 km</desc>
<time>2010-03-03T16:00:29.86</time>
<name>225</name>
</trkpt>
<trkpt lat="48.939687" lon="8.671248">
<ele>322.5</ele>
<speed>4.0</speed>
<course>116.9</course>
<desc>Speed 4.0 km/h Distance 0.62 km</desc>
<time>2010-03-03T16:00:31.86</time>
<name>226</name>
</trkpt>
<trkpt lat="48.939677" lon="8.671278">
<ele>322.5</ele>
<speed>2.4</speed>
<course>93.9</course>
<desc>Speed 2.4 km/h Distance 0.63 km</desc>
<time>2010-03-03T16:00:32.86</time>
<name>227</name>
</trkpt>
<trkpt lat="48.939673" lon="8.671353">
<ele>322.5</ele>
<speed>3.4</speed>
<course>217.2</course>
<desc>Speed 3.4 km/h Distance 0.63 km</desc>
<time>2010-03-03T16:00:34.86</time>
<name>228</name>
</trkpt>
<trkpt lat="48.939672" lon="8.671352">
<ele>322.5</ele>
<speed>3.4</speed>
<course>270.0</course>
<desc>Speed 3.4 km/h Distance 0.63 km</desc>
<time>2010-03-03T16:00:35.86</time>
<name>229</name>
</trkpt>
<trkpt lat="48.939672" lon="8.671350">
<ele>322.5</ele>
<speed>3.4</speed>
<course>297.0</course>
<desc>Speed 3.4 km/h Distance 0.63 km</desc>
<time>2010-03-03T16:00:36.86</time>
<name>230</name>
</trkpt>
<trkpt lat="48.939675" lon="8.671340">
<ele>322.5</ele>
<speed>5.9</speed>
<course>270.0</course>
<desc>Speed 5.9 km/h Distance 0.63 km</desc>
<time>2010-03-03T16:00:37.86</time>
<name>231</name>
</trkpt>
<trkpt lat="48.939675" lon="8.671332">
<ele>322.5</ele>
<speed>5.9</speed>
<course>233.0</course>
<desc>Speed 5.9 km/h Distance 0.63 km</desc>
<time>2010-03-03T16:00:38.86</time>
<name>232</name>
</trkpt>
<trkpt lat="48.939672" lon="8.671325">
<ele>322.5</ele>
<speed>5.9</speed>
<course>131.6</course>
<desc>Speed 5.9 km/h Distance 0.63 km</desc>
<time>2010-03-03T16:00:39.85</time>
<name>233</name>
</trkpt>
<trkpt lat="48.939660" lon="8.671345">
<ele>322.5</ele>
<speed>3.1</speed>
<course>103.5</course>
<desc>Speed 3.1 km/h Distance 0.64 km</desc>
<time>2010-03-03T16:00:40.86</time>
<name>234</name>
</trkpt>
<trkpt lat="48.939655" lon="8.671377">
<ele>322.5</ele>
<speed>2.7</speed>
<course>110.8</course>
<desc>Speed 2.7 km/h Distance 0.64 km</desc>
<time>2010-03-03T16:00:41.86</time>
<name>235</name>
</trkpt>
<trkpt lat="48.939650" lon="8.671397">
<ele>322.5</ele>
<speed>2.7</speed>
<course>138.7</course>
<desc>Speed 2.7 km/h Distance 0.64 km</desc>
<time>2010-03-03T16:00:42.85</time>
<name>236</name>
</trkpt>
<trkpt lat="48.939640" lon="8.671410">
<ele>322.5</ele>
<speed>2.7</speed>
<course>135.4</course>
<desc>Speed 2.7 km/h Distance 0.64 km</desc>
<time>2010-03-03T16:00:43.86</time>
<name>237</name>
</trkpt>
<trkpt lat="48.939623" lon="8.671435">
<ele>322.5</ele>
<speed>3.5</speed>
<course>109.6</course>
<desc>Speed 3.5 km/h Distance 0.64 km</desc>
<time>2010-03-03T16:00:44.85</time>
<name>238</name>
</trkpt>
<trkpt lat="48.939575" lon="8.671642">
<ele>322.5</ele>
<speed>14.6</speed>
<course>105.5</course>
<desc>Speed 14.6 km/h Distance 0.66 km</desc>
<time>2010-03-03T16:00:47.85</time>
<name>239</name>
</trkpt>
<trkpt lat="48.939565" lon="8.671697">
<ele>322.5</ele>
<speed>5.8</speed>
<course>99.6</course>
<desc>Speed 5.8 km/h Distance 0.66 km</desc>
<time>2010-03-03T16:00:49.85</time>
<name>240</name>
</trkpt>
<trkpt lat="48.939562" lon="8.671727">
<ele>322.5</ele>
<speed>5.8</speed>
<course>121.3</course>
<desc>Speed 5.8 km/h Distance 0.67 km</desc>
<time>2010-03-03T16:00:50.85</time>
<name>241</name>
</trkpt>
<trkpt lat="48.939555" lon="8.671743">
<ele>322.5</ele>
<speed>5.8</speed>
<course>250.3</course>
<desc>Speed 5.8 km/h Distance 0.67 km</desc>
<time>2010-03-03T16:00:51.85</time>
<name>242</name>
</trkpt>
<trkpt lat="48.939548" lon="8.671715">
<ele>322.5</ele>
<speed>3.6</speed>
<course>235.9</course>
<desc>Speed 3.6 km/h Distance 0.67 km</desc>
<time>2010-03-03T16:00:52.85</time>
<name>243</name>
</trkpt>
<trkpt lat="48.939542" lon="8.671700">
<ele>322.5</ele>
<speed>3.6</speed>
<course>106.9</course>
<desc>Speed 3.6 km/h Distance 0.67 km</desc>
<time>2010-03-03T16:00:53.85</time>
<name>244</name>
</trkpt>
<trkpt lat="48.939538" lon="8.671717">
<ele>322.5</ele>
<speed>3.6</speed>
<course>158.5</course>
<desc>Speed 3.6 km/h Distance 0.67 km</desc>
<time>2010-03-03T16:00:54.85</time>
<name>245</name>
</trkpt>
<trkpt lat="48.939530" lon="8.671722">
<ele>322.5</ele>
<speed>3.6</speed>
<course>206.2</course>
<desc>Speed 3.6 km/h Distance 0.67 km</desc>
<time>2010-03-03T16:00:55.85</time>
<name>246</name>
</trkpt>
<trkpt lat="48.939517" lon="8.671712">
<ele>322.5</ele>
<speed>4.2</speed>
<course>175.6</course>
<desc>Speed 4.2 km/h Distance 0.67 km</desc>
<time>2010-03-03T16:00:56.85</time>
<name>247</name>
</trkpt>
<trkpt lat="48.939507" lon="8.671713">
<ele>322.5</ele>
<speed>4.2</speed>
<course>155.2</course>
<desc>Speed 4.2 km/h Distance 0.68 km</desc>
<time>2010-03-03T16:00:57.85</time>
<name>248</name>
</trkpt>
<trkpt lat="48.939500" lon="8.671718">
<ele>322.5</ele>
<speed>4.2</speed>
<course>147.7</course>
<desc>Speed 4.2 km/h Distance 0.68 km</desc>
<time>2010-03-03T16:00:58.85</time>
<name>249</name>
</trkpt>
<trkpt lat="48.939495" lon="8.671723">
<ele>322.5</ele>
<speed>4.2</speed>
<course>226.4</course>
<desc>Speed 4.2 km/h Distance 0.68 km</desc>
<time>2010-03-03T16:00:59.85</time>
<name>250</name>
</trkpt>
<trkpt lat="48.939487" lon="8.671710">
<ele>322.5</ele>
<speed>2.3</speed>
<course>178.8</course>
<desc>Speed 2.3 km/h Distance 0.68 km</desc>
<time>2010-03-03T16:01:00.85</time>
<name>251</name>
</trkpt>
<trkpt lat="48.939473" lon="8.671710">
<ele>322.5</ele>
<speed>2.3</speed>
<course>164.0</course>
<desc>Speed 2.3 km/h Distance 0.68 km</desc>
<time>2010-03-03T16:01:01.83</time>
<name>252</name>
</trkpt>
<trkpt lat="48.939462" lon="8.671715">
<ele>322.5</ele>
<speed>2.3</speed>
<course>161.2</course>
<desc>Speed 2.3 km/h Distance 0.68 km</desc>
<time>2010-03-03T16:01:02.85</time>
<name>253</name>
</trkpt>
<trkpt lat="48.939455" lon="8.671718">
<ele>322.5</ele>
<speed>2.3</speed>
<course>171.9</course>
<desc>Speed 2.3 km/h Distance 0.68 km</desc>
<time>2010-03-03T16:01:03.84</time>
<name>254</name>
</trkpt>
<trkpt lat="48.939440" lon="8.671722">
<ele>322.5</ele>
<speed>3.3</speed>
<course>178.8</course>
<desc>Speed 3.3 km/h Distance 0.68 km</desc>
<time>2010-03-03T16:01:04.84</time>
<name>255</name>
</trkpt>
<trkpt lat="48.939427" lon="8.671722">
<ele>322.5</ele>
<speed>3.3</speed>
<course>164.0</course>
<desc>Speed 3.3 km/h Distance 0.69 km</desc>
<time>2010-03-03T16:01:05.83</time>
<name>256</name>
</trkpt>
<trkpt lat="48.939420" lon="8.671725">
<ele>322.5</ele>
<speed>3.3</speed>
<course>161.2</course>
<desc>Speed 3.3 km/h Distance 0.69 km</desc>
<time>2010-03-03T16:01:06.84</time>
<name>257</name>
</trkpt>
<trkpt lat="48.939413" lon="8.671728">
<ele>322.5</ele>
<speed>3.3</speed>
<course>175.3</course>
<desc>Speed 3.3 km/h Distance 0.69 km</desc>
<time>2010-03-03T16:01:07.84</time>
<name>258</name>
</trkpt>
<trkpt lat="48.939402" lon="8.671730">
<ele>322.5</ele>
<speed>2.7</speed>
<course>192.6</course>
<desc>Speed 2.7 km/h Distance 0.69 km</desc>
<time>2010-03-03T16:01:08.84</time>
<name>259</name>
</trkpt>
<trkpt lat="48.939397" lon="8.671728">
<ele>322.5</ele>
<speed>2.7</speed>
<course>58.6</course>
<desc>Speed 2.7 km/h Distance 0.69 km</desc>
<time>2010-03-03T16:01:09.83</time>
<name>260</name>
</trkpt>
<trkpt lat="48.939400" lon="8.671737">
<ele>322.5</ele>
<speed>2.7</speed>
<course>146.3</course>
<desc>Speed 2.7 km/h Distance 0.69 km</desc>
<time>2010-03-03T16:01:10.85</time>
<name>261</name>
</trkpt>
<trkpt lat="48.939397" lon="8.671740">
<ele>322.5</ele>
<speed>2.7</speed>
<course>127.3</course>
<desc>Speed 2.7 km/h Distance 0.69 km</desc>
<time>2010-03-03T16:01:11.84</time>
<name>262</name>
</trkpt>
<trkpt lat="48.939385" lon="8.671763">
<ele>322.5</ele>
<speed>4.6</speed>
<course>133.6</course>
<desc>Speed 4.6 km/h Distance 0.69 km</desc>
<time>2010-03-03T16:01:12.84</time>
<name>263</name>
</trkpt>
<trkpt lat="48.939377" lon="8.671777">
<ele>322.5</ele>
<speed>4.6</speed>
<course>102.3</course>
<desc>Speed 4.6 km/h Distance 0.69 km</desc>
<time>2010-03-03T16:01:13.85</time>
<name>264</name>
</trkpt>
<trkpt lat="48.939373" lon="8.671800">
<ele>322.5</ele>
<speed>4.6</speed>
<course>124.1</course>
<desc>Speed 4.6 km/h Distance 0.70 km</desc>
<time>2010-03-03T16:01:14.84</time>
<name>265</name>
</trkpt>
<trkpt lat="48.939367" lon="8.671815">
<ele>322.5</ele>
<speed>4.6</speed>
<course>146.6</course>
<desc>Speed 4.6 km/h Distance 0.70 km</desc>
<time>2010-03-03T16:01:15.84</time>
<name>266</name>
</trkpt>
<trkpt lat="48.939353" lon="8.671828">
<ele>322.5</ele>
<speed>2.5</speed>
<course>165.1</course>
<desc>Speed 2.5 km/h Distance 0.70 km</desc>
<time>2010-03-03T16:01:16.84</time>
<name>267</name>
</trkpt>
<trkpt lat="48.939337" lon="8.671835">
<ele>322.5</ele>
<speed>2.5</speed>
<course>121.3</course>
<desc>Speed 2.5 km/h Distance 0.70 km</desc>
<time>2010-03-03T16:01:17.84</time>
<name>268</name>
</trkpt>
<trkpt lat="48.939327" lon="8.671860">
<ele>322.5</ele>
<speed>2.5</speed>
<course>158.5</course>
<desc>Speed 2.5 km/h Distance 0.70 km</desc>
<time>2010-03-03T16:01:18.84</time>
<name>269</name>
</trkpt>
<trkpt lat="48.939310" lon="8.671870">
<ele>322.5</ele>
<speed>2.5</speed>
<course>138.8</course>
<desc>Speed 2.5 km/h Distance 0.70 km</desc>
<time>2010-03-03T16:01:19.83</time>
<name>270</name>
</trkpt>
<trkpt lat="48.939295" lon="8.671890">
<ele>322.5</ele>
<speed>4.0</speed>
<course>146.6</course>
<desc>Speed 4.0 km/h Distance 0.71 km</desc>
<time>2010-03-03T16:01:20.84</time>
<name>271</name>
</trkpt>
<trkpt lat="48.939283" lon="8.671902">
<ele>322.5</ele>
<speed>4.0</speed>
<course>99.6</course>
<desc>Speed 4.0 km/h Distance 0.71 km</desc>
<time>2010-03-03T16:01:21.83</time>
<name>272</name>
</trkpt>
<trkpt lat="48.939280" lon="8.671932">
<ele>323.0</ele>
<speed>4.0</speed>
<course>153.1</course>
<desc>Speed 4.0 km/h Distance 0.71 km</desc>
<time>2010-03-03T16:01:22.83</time>
<name>273</name>
</trkpt>
<trkpt lat="48.939265" lon="8.671943">
<ele>323.0</ele>
<speed>4.0</speed>
<course>144.7</course>
<desc>Speed 4.0 km/h Distance 0.71 km</desc>
<time>2010-03-03T16:01:23.84</time>
<name>274</name>
</trkpt>
<trkpt lat="48.939243" lon="8.671967">
<ele>323.0</ele>
<speed>3.2</speed>
<course>166.5</course>
<desc>Speed 3.2 km/h Distance 0.72 km</desc>
<time>2010-03-03T16:01:24.83</time>
<name>275</name>
</trkpt>
<trkpt lat="48.939230" lon="8.671972">
<ele>323.0</ele>
<speed>3.2</speed>
<course>135.5</course>
<desc>Speed 3.2 km/h Distance 0.72 km</desc>
<time>2010-03-03T16:01:25.84</time>
<name>276</name>
</trkpt>
<trkpt lat="48.939227" lon="8.671977">
<ele>323.0</ele>
<speed>3.2</speed>
<course>156.2</course>
<desc>Speed 3.2 km/h Distance 0.72 km</desc>
<time>2010-03-03T16:01:26.83</time>
<name>277</name>
</trkpt>
<trkpt lat="48.939222" lon="8.671980">
<ele>323.0</ele>
<speed>3.2</speed>
<course>159.8</course>
<desc>Speed 3.2 km/h Distance 0.72 km</desc>
<time>2010-03-03T16:01:27.83</time>
<name>278</name>
</trkpt>
<trkpt lat="48.939210" lon="8.671987">
<ele>323.0</ele>
<speed>3.5</speed>
<course>166.5</course>
<desc>Speed 3.5 km/h Distance 0.72 km</desc>
<time>2010-03-03T16:01:28.84</time>
<name>279</name>
</trkpt>
<trkpt lat="48.939197" lon="8.671992">
<ele>323.0</ele>
<speed>3.5</speed>
<course>133.4</course>
<desc>Speed 3.5 km/h Distance 0.72 km</desc>
<time>2010-03-03T16:01:29.83</time>
<name>280</name>
</trkpt>
<trkpt lat="48.939188" lon="8.672005">
<ele>323.0</ele>
<speed>3.5</speed>
<course>159.9</course>
<desc>Speed 3.5 km/h Distance 0.72 km</desc>
<time>2010-03-03T16:01:30.83</time>
<name>281</name>
</trkpt>
<trkpt lat="48.939173" lon="8.672013">
<ele>323.0</ele>
<speed>3.5</speed>
<course>125.8</course>
<desc>Speed 3.5 km/h Distance 0.72 km</desc>
<time>2010-03-03T16:01:31.83</time>
<name>282</name>
</trkpt>
<trkpt lat="48.939158" lon="8.672045">
<ele>323.0</ele>
<speed>4.0</speed>
<course>144.2</course>
<desc>Speed 4.0 km/h Distance 0.73 km</desc>
<time>2010-03-03T16:01:32.83</time>
<name>283</name>
</trkpt>
<trkpt lat="48.939142" lon="8.672063">
<ele>323.0</ele>
<speed>4.0</speed>
<course>90.0</course>
<desc>Speed 4.0 km/h Distance 0.73 km</desc>
<time>2010-03-03T16:01:33.83</time>
<name>284</name>
</trkpt>
<trkpt lat="48.939142" lon="8.672083">
<ele>323.0</ele>
<speed>4.0</speed>
<course>100.8</course>
<desc>Speed 4.0 km/h Distance 0.73 km</desc>
<time>2010-03-03T16:01:34.83</time>
<name>285</name>
</trkpt>
<trkpt lat="48.939140" lon="8.672097">
<ele>323.0</ele>
<speed>4.0</speed>
<course>110.9</course>
<desc>Speed 4.0 km/h Distance 0.73 km</desc>
<time>2010-03-03T16:01:35.83</time>
<name>286</name>
</trkpt>
<trkpt lat="48.939137" lon="8.672110">
<ele>323.0</ele>
<speed>2.2</speed>
<course>138.1</course>
<desc>Speed 2.2 km/h Distance 0.73 km</desc>
<time>2010-03-03T16:01:36.83</time>
<name>287</name>
</trkpt>
<trkpt lat="48.939132" lon="8.672117">
<ele>323.0</ele>
<speed>2.2</speed>
<course>47.8</course>
<desc>Speed 2.2 km/h Distance 0.73 km</desc>
<time>2010-03-03T16:01:37.82</time>
<name>288</name>
</trkpt>
<trkpt lat="48.939137" lon="8.672125">
<ele>323.0</ele>
<speed>2.2</speed>
<course>90.0</course>
<desc>Speed 2.2 km/h Distance 0.73 km</desc>
<time>2010-03-03T16:01:38.83</time>
<name>289</name>
</trkpt>
<trkpt lat="48.939137" lon="8.672130">
<ele>323.0</ele>
<speed>2.2</speed>
<course>115.1</course>
<desc>Speed 2.2 km/h Distance 0.73 km</desc>
<time>2010-03-03T16:01:39.83</time>
<name>290</name>
</trkpt>
<trkpt lat="48.939130" lon="8.672152">
<ele>323.0</ele>
<speed>2.3</speed>
<course>127.3</course>
<desc>Speed 2.3 km/h Distance 0.74 km</desc>
<time>2010-03-03T16:01:40.82</time>
<name>291</name>
</trkpt>
<trkpt lat="48.939120" lon="8.672172">
<ele>323.0</ele>
<speed>4.0</speed>
<course>90.0</course>
<desc>Speed 4.0 km/h Distance 0.74 km</desc>
<time>2010-03-03T16:01:41.83</time>
<name>292</name>
</trkpt>
<trkpt lat="48.939120" lon="8.672210">
<ele>323.0</ele>
<speed>4.5</speed>
<course>124.7</course>
<desc>Speed 4.5 km/h Distance 0.74 km</desc>
<time>2010-03-03T16:01:42.82</time>
<name>293</name>
</trkpt>
<trkpt lat="48.939112" lon="8.672228">
<ele>323.0</ele>
<speed>5.3</speed>
<course>133.6</course>
<desc>Speed 5.3 km/h Distance 0.74 km</desc>
<time>2010-03-03T16:01:43.83</time>
<name>294</name>
</trkpt>
<trkpt lat="48.939103" lon="8.672242">
<ele>323.0</ele>
<speed>5.5</speed>
<course>154.8</course>
<desc>Speed 5.5 km/h Distance 0.74 km</desc>
<time>2010-03-03T16:01:44.82</time>
<name>295</name>
</trkpt>
<trkpt lat="48.939092" lon="8.672250">
<ele>323.0</ele>
<speed>5.0</speed>
<course>41.4</course>
<desc>Speed 5.0 km/h Distance 0.75 km</desc>
<time>2010-03-03T16:01:45.82</time>
<name>296</name>
</trkpt>
<trkpt lat="48.939102" lon="8.672263">
<ele>323.0</ele>
<speed>4.3</speed>
<course>90.0</course>
<desc>Speed 4.3 km/h Distance 0.75 km</desc>
<time>2010-03-03T16:01:46.82</time>
<name>297</name>
</trkpt>
<trkpt lat="48.939102" lon="8.672270">
<ele>323.0</ele>
<speed>1.1</speed>
<course>167.4</course>
<desc>Speed 1.1 km/h Distance 0.75 km</desc>
<time>2010-03-03T16:01:47.82</time>
<name>298</name>
</trkpt>
<trkpt lat="48.939097" lon="8.672272">
<ele>323.0</ele>
<speed>1.1</speed>
<course>165.1</course>
<desc>Speed 1.1 km/h Distance 0.75 km</desc>
<time>2010-03-03T16:01:48.82</time>
<name>299</name>
</trkpt>
<trkpt lat="48.939088" lon="8.672275">
<ele>323.0</ele>
<speed>1.1</speed>
<course>83.3</course>
<desc>Speed 1.1 km/h Distance 0.75 km</desc>
<time>2010-03-03T16:01:49.82</time>
<name>300</name>
</trkpt>
<trkpt lat="48.939090" lon="8.672297">
<ele>323.0</ele>
<speed>2.8</speed>
<course>159.9</course>
<desc>Speed 2.8 km/h Distance 0.75 km</desc>
<time>2010-03-03T16:01:50.82</time>
<name>301</name>
</trkpt>
<trkpt lat="48.939075" lon="8.672305">
<ele>323.0</ele>
<speed>2.8</speed>
<course>201.5</course>
<desc>Speed 2.8 km/h Distance 0.75 km</desc>
<time>2010-03-03T16:01:51.82</time>
<name>302</name>
</trkpt>
<trkpt lat="48.939067" lon="8.672300">
<ele>323.0</ele>
<speed>2.3</speed>
<course>136.7</course>
<desc>Speed 2.3 km/h Distance 0.75 km</desc>
<time>2010-03-03T16:01:52.82</time>
<name>303</name>
</trkpt>
<trkpt lat="48.939055" lon="8.672317">
<ele>323.0</ele>
<speed>5.0</speed>
<course>146.8</course>
<desc>Speed 5.0 km/h Distance 0.76 km</desc>
<time>2010-03-03T16:01:53.82</time>
<name>304</name>
</trkpt>
<trkpt lat="48.939050" lon="8.672322">
<ele>323.0</ele>
<speed>4.6</speed>
<course>142.5</course>
<desc>Speed 4.6 km/h Distance 0.76 km</desc>
<time>2010-03-03T16:01:54.82</time>
<name>305</name>
</trkpt>
<trkpt lat="48.939040" lon="8.672333">
<ele>323.0</ele>
<speed>4.9</speed>
<course>143.1</course>
<desc>Speed 4.9 km/h Distance 0.76 km</desc>
<time>2010-03-03T16:01:56.15</time>
<name>306</name>
</trkpt>
<trkpt lat="48.939028" lon="8.672347">
<ele>323.0</ele>
<speed>4.6</speed>
<course>150.6</course>
<desc>Speed 4.6 km/h Distance 0.76 km</desc>
<time>2010-03-03T16:01:56.83</time>
<name>307</name>
</trkpt>
<trkpt lat="48.939017" lon="8.672357">
<ele>323.0</ele>
<speed>4.6</speed>
<course>122.4</course>
<desc>Speed 4.6 km/h Distance 0.76 km</desc>
<time>2010-03-03T16:01:57.82</time>
<name>308</name>
</trkpt>
<trkpt lat="48.939008" lon="8.672377">
<ele>323.0</ele>
<speed>4.2</speed>
<course>146.3</course>
<desc>Speed 4.2 km/h Distance 0.76 km</desc>
<time>2010-03-03T16:01:58.82</time>
<name>309</name>
</trkpt>
<trkpt lat="48.939002" lon="8.672383">
<ele>323.0</ele>
<speed>4.2</speed>
<course>158.5</course>
<desc>Speed 4.2 km/h Distance 0.76 km</desc>
<time>2010-03-03T16:01:59.82</time>
<name>310</name>
</trkpt>
<trkpt lat="48.938993" lon="8.672388">
<ele>323.0</ele>
<speed>2.7</speed>
<course>164.0</course>
<desc>Speed 2.7 km/h Distance 0.76 km</desc>
<time>2010-03-03T16:02:00.82</time>
<name>311</name>
</trkpt>
<trkpt lat="48.938982" lon="8.672393">
<ele>323.0</ele>
<speed>2.7</speed>
<course>100.8</course>
<desc>Speed 2.7 km/h Distance 0.77 km</desc>
<time>2010-03-03T16:02:01.81</time>
<name>312</name>
</trkpt>
<trkpt lat="48.938978" lon="8.672420">
<ele>323.0</ele>
<speed>2.7</speed>
<course>139.7</course>
<desc>Speed 2.7 km/h Distance 0.77 km</desc>
<time>2010-03-03T16:02:02.81</time>
<name>313</name>
</trkpt>
<trkpt lat="48.938967" lon="8.672435">
<ele>323.0</ele>
<speed>2.7</speed>
<course>160.2</course>
<desc>Speed 2.7 km/h Distance 0.77 km</desc>
<time>2010-03-03T16:02:03.81</time>
<name>314</name>
</trkpt>
<trkpt lat="48.938948" lon="8.672445">
<ele>323.0</ele>
<speed>2.7</speed>
<course>167.4</course>
<desc>Speed 2.7 km/h Distance 0.77 km</desc>
<time>2010-03-03T16:02:04.80</time>
<name>315</name>
</trkpt>
<trkpt lat="48.938933" lon="8.672450">
<ele>323.0</ele>
<speed>2.7</speed>
<course>105.5</course>
<desc>Speed 2.7 km/h Distance 0.77 km</desc>
<time>2010-03-03T16:02:05.80</time>
<name>316</name>
</trkpt>
<trkpt lat="48.938927" lon="8.672487">
<ele>323.0</ele>
<speed>3.7</speed>
<course>136.4</course>
<desc>Speed 3.7 km/h Distance 0.78 km</desc>
<time>2010-03-03T16:02:06.82</time>
<name>317</name>
</trkpt>
<trkpt lat="48.938878" lon="8.672557">
<ele>323.0</ele>
<speed>4.8</speed>
<course>149.9</course>
<desc>Speed 4.8 km/h Distance 0.78 km</desc>
<time>2010-03-03T16:02:08.81</time>
<name>318</name>
</trkpt>
<trkpt lat="48.938865" lon="8.672568">
<ele>323.0</ele>
<speed>2.6</speed>
<course>115.7</course>
<desc>Speed 2.6 km/h Distance 0.78 km</desc>
<time>2010-03-03T16:02:09.81</time>
<name>319</name>
</trkpt>
<trkpt lat="48.938855" lon="8.672600">
<ele>323.0</ele>
<speed>6.9</speed>
<course>110.1</course>
<desc>Speed 6.9 km/h Distance 0.79 km</desc>
<time>2010-03-03T16:02:10.82</time>
<name>320</name>
</trkpt>
<trkpt lat="48.938823" lon="8.672732">
<ele>323.0</ele>
<speed>15.9</speed>
<course>115.2</course>
<desc>Speed 15.9 km/h Distance 0.80 km</desc>
<time>2010-03-03T16:02:12.81</time>
<name>321</name>
</trkpt>
<trkpt lat="48.938795" lon="8.672823">
<ele>323.0</ele>
<speed>4.8</speed>
<course>121.9</course>
<desc>Speed 4.8 km/h Distance 0.80 km</desc>
<time>2010-03-03T16:02:14.81</time>
<name>322</name>
</trkpt>
<trkpt lat="48.938780" lon="8.672860">
<ele>323.5</ele>
<speed>3.7</speed>
<course>108.0</course>
<desc>Speed 3.7 km/h Distance 0.81 km</desc>
<time>2010-03-03T16:02:15.81</time>
<name>323</name>
</trkpt>
<trkpt lat="48.938742" lon="8.673040">
<ele>323.5</ele>
<speed>4.6</speed>
<course>127.4</course>
<desc>Speed 4.6 km/h Distance 0.82 km</desc>
<time>2010-03-03T16:02:18.81</time>
<name>324</name>
</trkpt>
<trkpt lat="48.938737" lon="8.673050">
<ele>323.5</ele>
<speed>3.1</speed>
<course>146.8</course>
<desc>Speed 3.1 km/h Distance 0.82 km</desc>
<time>2010-03-03T16:02:19.81</time>
<name>325</name>
</trkpt>
<trkpt lat="48.938728" lon="8.673058">
<ele>323.5</ele>
<speed>3.1</speed>
<course>151.4</course>
<desc>Speed 3.1 km/h Distance 0.82 km</desc>
<time>2010-03-03T16:02:20.80</time>
<name>326</name>
</trkpt>
<trkpt lat="48.938718" lon="8.673067">
<ele>323.5</ele>
<speed>3.7</speed>
<course>62.6</course>
<desc>Speed 3.7 km/h Distance 0.83 km</desc>
<time>2010-03-03T16:02:21.80</time>
<name>327</name>
</trkpt>
<trkpt lat="48.938720" lon="8.673072">
<ele>323.5</ele>
<speed>3.2</speed>
<course>117.0</course>
<desc>Speed 3.2 km/h Distance 0.83 km</desc>
<time>2010-03-03T16:02:22.81</time>
<name>328</name>
</trkpt>
<trkpt lat="48.938717" lon="8.673082">
<ele>323.5</ele>
<speed>3.2</speed>
<course>171.0</course>
<desc>Speed 3.2 km/h Distance 0.83 km</desc>
<time>2010-03-03T16:02:23.80</time>
<name>329</name>
</trkpt>
<trkpt lat="48.938703" lon="8.673085">
<ele>323.5</ele>
<speed>4.8</speed>
<course>176.2</course>
<desc>Speed 4.8 km/h Distance 0.83 km</desc>
<time>2010-03-03T16:02:24.80</time>
<name>330</name>
</trkpt>
<trkpt lat="48.938688" lon="8.673087">
<ele>323.5</ele>
<speed>4.5</speed>
<course>97.9</course>
<desc>Speed 4.5 km/h Distance 0.83 km</desc>
<time>2010-03-03T16:02:25.80</time>
<name>331</name>
</trkpt>
<trkpt lat="48.938687" lon="8.673105">
<ele>323.5</ele>
<speed>3.9</speed>
<course>114.5</course>
<desc>Speed 3.9 km/h Distance 0.83 km</desc>
<time>2010-03-03T16:02:26.80</time>
<name>332</name>
</trkpt>
<trkpt lat="48.938682" lon="8.673122">
<ele>323.5</ele>
<speed>4.3</speed>
<course>136.7</course>
<desc>Speed 4.3 km/h Distance 0.83 km</desc>
<time>2010-03-03T16:02:27.80</time>
<name>333</name>
</trkpt>
<trkpt lat="48.938670" lon="8.673138">
<ele>323.5</ele>
<speed>5.5</speed>
<course>143.1</course>
<desc>Speed 5.5 km/h Distance 0.83 km</desc>
<time>2010-03-03T16:02:28.80</time>
<name>334</name>
</trkpt>
<trkpt lat="48.938658" lon="8.673152">
<ele>323.5</ele>
<speed>4.8</speed>
<course>75.8</course>
<desc>Speed 4.8 km/h Distance 0.84 km</desc>
<time>2010-03-03T16:02:29.80</time>
<name>335</name>
</trkpt>
<trkpt lat="48.938662" lon="8.673172">
<ele>323.5</ele>
<speed>4.4</speed>
<course>154.8</course>
<desc>Speed 4.4 km/h Distance 0.84 km</desc>
<time>2010-03-03T16:02:30.80</time>
<name>336</name>
</trkpt>
<trkpt lat="48.938650" lon="8.673180">
<ele>323.5</ele>
<speed>5.3</speed>
<course>165.1</course>
<desc>Speed 5.3 km/h Distance 0.84 km</desc>
<time>2010-03-03T16:02:31.80</time>
<name>337</name>
</trkpt>
<trkpt lat="48.938633" lon="8.673187">
<ele>323.5</ele>
<speed>5.3</speed>
<course>150.4</course>
<desc>Speed 5.3 km/h Distance 0.84 km</desc>
<time>2010-03-03T16:02:32.80</time>
<name>338</name>
</trkpt>
<trkpt lat="48.938622" lon="8.673197">
<ele>323.5</ele>
<speed>4.9</speed>
<course>143.8</course>
<desc>Speed 4.9 km/h Distance 0.84 km</desc>
<time>2010-03-03T16:02:33.80</time>
<name>339</name>
</trkpt>
<trkpt lat="48.938607" lon="8.673213">
<ele>323.5</ele>
<speed>6.4</speed>
<course>132.4</course>
<desc>Speed 6.4 km/h Distance 0.84 km</desc>
<time>2010-03-03T16:02:34.80</time>
<name>340</name>
</trkpt>
<trkpt lat="48.938597" lon="8.673230">
<ele>323.5</ele>
<speed>6.0</speed>
<course>154.8</course>
<desc>Speed 6.0 km/h Distance 0.85 km</desc>
<time>2010-03-03T16:02:35.80</time>
<name>341</name>
</trkpt>
<trkpt lat="48.938585" lon="8.673238">
<ele>323.5</ele>
<speed>5.1</speed>
<course>154.0</course>
<desc>Speed 5.1 km/h Distance 0.85 km</desc>
<time>2010-03-03T16:02:36.80</time>
<name>342</name>
</trkpt>
<trkpt lat="48.938572" lon="8.673248">
<ele>323.5</ele>
<speed>5.1</speed>
<course>161.9</course>
<desc>Speed 5.1 km/h Distance 0.85 km</desc>
<time>2010-03-03T16:02:37.79</time>
<name>343</name>
</trkpt>
<trkpt lat="48.938555" lon="8.673257">
<ele>323.5</ele>
<speed>6.1</speed>
<course>132.6</course>
<desc>Speed 6.1 km/h Distance 0.85 km</desc>
<time>2010-03-03T16:02:38.80</time>
<name>344</name>
</trkpt>
<trkpt lat="48.938550" lon="8.673265">
<ele>323.5</ele>
<speed>6.2</speed>
<course>150.2</course>
<desc>Speed 6.2 km/h Distance 0.85 km</desc>
<time>2010-03-03T16:02:39.80</time>
<name>345</name>
</trkpt>
<trkpt lat="48.938537" lon="8.673277">
<ele>323.5</ele>
<speed>5.7</speed>
<course>150.2</course>
<desc>Speed 5.7 km/h Distance 0.85 km</desc>
<time>2010-03-03T16:02:40.79</time>
<name>346</name>
</trkpt>
<trkpt lat="48.938523" lon="8.673288">
<ele>323.5</ele>
<speed>5.0</speed>
<course>146.6</course>
<desc>Speed 5.0 km/h Distance 0.86 km</desc>
<time>2010-03-03T16:02:41.80</time>
<name>347</name>
</trkpt>
<trkpt lat="48.938510" lon="8.673302">
<ele>323.5</ele>
<speed>5.9</speed>
<course>154.8</course>
<desc>Speed 5.9 km/h Distance 0.86 km</desc>
<time>2010-03-03T16:02:42.79</time>
<name>348</name>
</trkpt>
<trkpt lat="48.938498" lon="8.673310">
<ele>323.5</ele>
<speed>5.3</speed>
<course>154.0</course>
<desc>Speed 5.3 km/h Distance 0.86 km</desc>
<time>2010-03-03T16:02:43.80</time>
<name>349</name>
</trkpt>
<trkpt lat="48.938485" lon="8.673320">
<ele>323.5</ele>
<speed>5.4</speed>
<course>153.1</course>
<desc>Speed 5.4 km/h Distance 0.86 km</desc>
<time>2010-03-03T16:02:44.80</time>
<name>350</name>
</trkpt>
<trkpt lat="48.938470" lon="8.673332">
<ele>323.5</ele>
<speed>5.6</speed>
<course>146.6</course>
<desc>Speed 5.6 km/h Distance 0.86 km</desc>
<time>2010-03-03T16:02:45.80</time>
<name>351</name>
</trkpt>
<trkpt lat="48.938455" lon="8.673347">
<ele>323.5</ele>
<speed>5.8</speed>
<course>150.2</course>
<desc>Speed 5.8 km/h Distance 0.86 km</desc>
<time>2010-03-03T16:02:46.78</time>
<name>352</name>
</trkpt>
<trkpt lat="48.938442" lon="8.673358">
<ele>323.5</ele>
<speed>5.1</speed>
<course>156.3</course>
<desc>Speed 5.1 km/h Distance 0.87 km</desc>
<time>2010-03-03T16:02:47.79</time>
<name>353</name>
</trkpt>
<trkpt lat="48.938427" lon="8.673368">
<ele>323.5</ele>
<speed>5.7</speed>
<course>163.4</course>
<desc>Speed 5.7 km/h Distance 0.87 km</desc>
<time>2010-03-03T16:02:48.80</time>
<name>354</name>
</trkpt>
<trkpt lat="48.938408" lon="8.673377">
<ele>323.5</ele>
<speed>5.9</speed>
<course>160.1</course>
<desc>Speed 5.9 km/h Distance 0.87 km</desc>
<time>2010-03-03T16:02:49.79</time>
<name>355</name>
</trkpt>
<trkpt lat="48.938393" lon="8.673385">
<ele>323.5</ele>
<speed>5.5</speed>
<course>156.3</course>
<desc>Speed 5.5 km/h Distance 0.87 km</desc>
<time>2010-03-03T16:02:50.78</time>
<name>356</name>
</trkpt>
<trkpt lat="48.938378" lon="8.673395">
<ele>323.5</ele>
<speed>5.9</speed>
<course>171.0</course>
<desc>Speed 5.9 km/h Distance 0.87 km</desc>
<time>2010-03-03T16:02:51.79</time>
<name>357</name>
</trkpt>
<trkpt lat="48.938365" lon="8.673398">
<ele>323.5</ele>
<speed>5.1</speed>
<course>176.1</course>
<desc>Speed 5.1 km/h Distance 0.87 km</desc>
<time>2010-03-03T16:02:52.79</time>
<name>358</name>
</trkpt>
<trkpt lat="48.938352" lon="8.673400">
<ele>323.5</ele>
<speed>5.5</speed>
<course>172.3</course>
<desc>Speed 5.5 km/h Distance 0.88 km</desc>
<time>2010-03-03T16:02:53.79</time>
<name>359</name>
</trkpt>
<trkpt lat="48.938335" lon="8.673403">
<ele>323.5</ele>
<speed>5.9</speed>
<course>176.1</course>
<desc>Speed 5.9 km/h Distance 0.88 km</desc>
<time>2010-03-03T16:02:54.78</time>
<name>360</name>
</trkpt>
<trkpt lat="48.938322" lon="8.673405">
<ele>323.5</ele>
<speed>6.0</speed>
<course>171.0</course>
<desc>Speed 6.0 km/h Distance 0.88 km</desc>
<time>2010-03-03T16:02:55.78</time>
<name>361</name>
</trkpt>
<trkpt lat="48.938308" lon="8.673408">
<ele>323.5</ele>
<speed>5.4</speed>
<course>164.0</course>
<desc>Speed 5.4 km/h Distance 0.88 km</desc>
<time>2010-03-03T16:02:56.78</time>
<name>362</name>
</trkpt>
<trkpt lat="48.938293" lon="8.673415">
<ele>323.5</ele>
<speed>5.7</speed>
<course>168.3</course>
<desc>Speed 5.7 km/h Distance 0.88 km</desc>
<time>2010-03-03T16:02:57.78</time>
<name>363</name>
</trkpt>
<trkpt lat="48.938278" lon="8.673420">
<ele>323.5</ele>
<speed>6.0</speed>
<course>172.9</course>
<desc>Speed 6.0 km/h Distance 0.88 km</desc>
<time>2010-03-03T16:02:58.78</time>
<name>364</name>
</trkpt>
<trkpt lat="48.938262" lon="8.673423">
<ele>323.5</ele>
<speed>6.3</speed>
<course>171.0</course>
<desc>Speed 6.3 km/h Distance 0.89 km</desc>
<time>2010-03-03T16:02:59.79</time>
<name>365</name>
</trkpt>
<trkpt lat="48.938248" lon="8.673427">
<ele>323.5</ele>
<speed>5.5</speed>
<course>166.5</course>
<desc>Speed 5.5 km/h Distance 0.89 km</desc>
<time>2010-03-03T16:03:00.79</time>
<name>366</name>
</trkpt>
<trkpt lat="48.938235" lon="8.673432">
<ele>323.5</ele>
<speed>5.4</speed>
<course>166.0</course>
<desc>Speed 5.4 km/h Distance 0.89 km</desc>
<time>2010-03-03T16:03:01.78</time>
<name>367</name>
</trkpt>
<trkpt lat="48.938222" lon="8.673437">
<ele>323.5</ele>
<speed>5.7</speed>
<course>171.9</course>
<desc>Speed 5.7 km/h Distance 0.89 km</desc>
<time>2010-03-03T16:03:02.77</time>
<name>368</name>
</trkpt>
<trkpt lat="48.938207" lon="8.673440">
<ele>323.5</ele>
<speed>6.1</speed>
<course>166.5</course>
<desc>Speed 6.1 km/h Distance 0.89 km</desc>
<time>2010-03-03T16:03:03.78</time>
<name>369</name>
</trkpt>
<trkpt lat="48.938193" lon="8.673445">
<ele>323.5</ele>
<speed>5.4</speed>
<course>166.5</course>
<desc>Speed 5.4 km/h Distance 0.89 km</desc>
<time>2010-03-03T16:03:04.79</time>
<name>370</name>
</trkpt>
<trkpt lat="48.938180" lon="8.673450">
<ele>323.5</ele>
<speed>5.3</speed>
<course>176.2</course>
<desc>Speed 5.3 km/h Distance 0.90 km</desc>
<time>2010-03-03T16:03:05.78</time>
<name>371</name>
</trkpt>
<trkpt lat="48.938165" lon="8.673452">
<ele>323.5</ele>
<speed>5.5</speed>
<course>159.1</course>
<desc>Speed 5.5 km/h Distance 0.90 km</desc>
<time>2010-03-03T16:03:06.78</time>
<name>372</name>
</trkpt>
<trkpt lat="48.938153" lon="8.673458">
<ele>323.5</ele>
<speed>5.8</speed>
<course>163.4</course>
<desc>Speed 5.8 km/h Distance 0.90 km</desc>
<time>2010-03-03T16:03:07.78</time>
<name>373</name>
</trkpt>
<trkpt lat="48.938138" lon="8.673465">
<ele>323.5</ele>
<speed>6.0</speed>
<course>167.4</course>
<desc>Speed 6.0 km/h Distance 0.90 km</desc>
<time>2010-03-03T16:03:08.78</time>
<name>374</name>
</trkpt>
<trkpt lat="48.938123" lon="8.673470">
<ele>323.5</ele>
<speed>5.5</speed>
<course>165.1</course>
<desc>Speed 5.5 km/h Distance 0.90 km</desc>
<time>2010-03-03T16:03:09.78</time>
<name>375</name>
</trkpt>
<trkpt lat="48.938107" lon="8.673477">
<ele>323.5</ele>
<speed>6.4</speed>
<course>176.1</course>
<desc>Speed 6.4 km/h Distance 0.90 km</desc>
<time>2010-03-03T16:03:10.79</time>
<name>376</name>
</trkpt>
<trkpt lat="48.938093" lon="8.673478">
<ele>323.5</ele>
<speed>6.2</speed>
<course>178.8</course>
<desc>Speed 6.2 km/h Distance 0.91 km</desc>
<time>2010-03-03T16:03:11.78</time>
<name>377</name>
</trkpt>
<trkpt lat="48.938080" lon="8.673478">
<ele>323.5</ele>
<speed>5.4</speed>
<course>169.2</course>
<desc>Speed 5.4 km/h Distance 0.91 km</desc>
<time>2010-03-03T16:03:12.78</time>
<name>378</name>
</trkpt>
<trkpt lat="48.938063" lon="8.673483">
<ele>323.5</ele>
<speed>6.0</speed>
<course>171.0</course>
<desc>Speed 6.0 km/h Distance 0.91 km</desc>
<time>2010-03-03T16:03:13.77</time>
<name>379</name>
</trkpt>
<trkpt lat="48.938050" lon="8.673487">
<ele>323.5</ele>
<speed>5.7</speed>
<course>157.4</course>
<desc>Speed 5.7 km/h Distance 0.91 km</desc>
<time>2010-03-03T16:03:14.78</time>
<name>380</name>
</trkpt>
<trkpt lat="48.938037" lon="8.673495">
<ele>324.0</ele>
<speed>6.0</speed>
<course>186.3</course>
<desc>Speed 6.0 km/h Distance 0.91 km</desc>
<time>2010-03-03T16:03:15.78</time>
<name>381</name>
</trkpt>
<trkpt lat="48.938025" lon="8.673493">
<ele>324.0</ele>
<speed>4.8</speed>
<course>175.0</course>
<desc>Speed 4.8 km/h Distance 0.91 km</desc>
<time>2010-03-03T16:03:16.78</time>
<name>382</name>
</trkpt>
<trkpt lat="48.938008" lon="8.673495">
<ele>324.0</ele>
<speed>6.2</speed>
<course>190.3</course>
<desc>Speed 6.2 km/h Distance 0.92 km</desc>
<time>2010-03-03T16:03:17.77</time>
<name>383</name>
</trkpt>
<trkpt lat="48.937995" lon="8.673492">
<ele>324.0</ele>
<speed>4.9</speed>
<course>172.3</course>
<desc>Speed 4.9 km/h Distance 0.92 km</desc>
<time>2010-03-03T16:03:18.77</time>
<name>384</name>
</trkpt>
<trkpt lat="48.937987" lon="8.673493">
<ele>324.0</ele>
<speed>5.1</speed>
<course>174.7</course>
<desc>Speed 5.1 km/h Distance 0.92 km</desc>
<time>2010-03-03T16:03:19.78</time>
<name>385</name>
</trkpt>
<trkpt lat="48.937973" lon="8.673495">
<ele>324.0</ele>
<speed>5.3</speed>
<course>176.2</course>
<desc>Speed 5.3 km/h Distance 0.92 km</desc>
<time>2010-03-03T16:03:20.77</time>
<name>386</name>
</trkpt>
<trkpt lat="48.937958" lon="8.673495">
<ele>324.0</ele>
<speed>5.2</speed>
<course>171.2</course>
<desc>Speed 5.2 km/h Distance 0.92 km</desc>
<time>2010-03-03T16:03:21.77</time>
<name>387</name>
</trkpt>
<trkpt lat="48.937943" lon="8.673498">
<ele>324.0</ele>
<speed>5.5</speed>
<course>176.1</course>
<desc>Speed 5.5 km/h Distance 0.92 km</desc>
<time>2010-03-03T16:03:22.77</time>
<name>388</name>
</trkpt>
<trkpt lat="48.937930" lon="8.673500">
<ele>324.0</ele>
<speed>4.4</speed>
<course>171.0</course>
<desc>Speed 4.4 km/h Distance 0.92 km</desc>
<time>2010-03-03T16:03:23.77</time>
<name>389</name>
</trkpt>
<trkpt lat="48.937917" lon="8.673503">
<ele>324.0</ele>
<speed>5.8</speed>
<course>166.5</course>
<desc>Speed 5.8 km/h Distance 0.93 km</desc>
<time>2010-03-03T16:03:24.77</time>
<name>390</name>
</trkpt>
<trkpt lat="48.937903" lon="8.673508">
<ele>324.0</ele>
<speed>5.3</speed>
<course>175.3</course>
<desc>Speed 5.3 km/h Distance 0.93 km</desc>
<time>2010-03-03T16:03:25.77</time>
<name>391</name>
</trkpt>
<trkpt lat="48.937892" lon="8.673510">
<ele>324.0</ele>
<speed>4.6</speed>
<course>166.5</course>
<desc>Speed 4.6 km/h Distance 0.93 km</desc>
<time>2010-03-03T16:03:26.77</time>
<name>392</name>
</trkpt>
<trkpt lat="48.937878" lon="8.673515">
<ele>324.0</ele>
<speed>5.9</speed>
<course>176.2</course>
<desc>Speed 5.9 km/h Distance 0.93 km</desc>
<time>2010-03-03T16:03:27.78</time>
<name>393</name>
</trkpt>
<trkpt lat="48.937863" lon="8.673517">
<ele>324.0</ele>
<speed>5.2</speed>
<course>171.0</course>
<desc>Speed 5.2 km/h Distance 0.93 km</desc>
<time>2010-03-03T16:03:28.77</time>
<name>394</name>
</trkpt>
<trkpt lat="48.937850" lon="8.673520">
<ele>324.0</ele>
<speed>5.5</speed>
<course>178.8</course>
<desc>Speed 5.5 km/h Distance 0.93 km</desc>
<time>2010-03-03T16:03:29.77</time>
<name>395</name>
</trkpt>
<trkpt lat="48.937837" lon="8.673520">
<ele>324.0</ele>
<speed>5.1</speed>
<course>165.1</course>
<desc>Speed 5.1 km/h Distance 0.93 km</desc>
<time>2010-03-03T16:03:30.77</time>
<name>396</name>
</trkpt>
<trkpt lat="48.937828" lon="8.673523">
<ele>324.0</ele>
<speed>5.1</speed>
<course>174.7</course>
<desc>Speed 5.1 km/h Distance 0.94 km</desc>
<time>2010-03-03T16:03:31.77</time>
<name>397</name>
</trkpt>
<trkpt lat="48.937815" lon="8.673525">
<ele>324.0</ele>
<speed>5.3</speed>
<course>178.1</course>
<desc>Speed 5.3 km/h Distance 0.94 km</desc>
<time>2010-03-03T16:03:32.77</time>
<name>398</name>
</trkpt>
<trkpt lat="48.937800" lon="8.673525">
<ele>324.0</ele>
<speed>5.5</speed>
<course>163.4</course>
<desc>Speed 5.5 km/h Distance 0.94 km</desc>
<time>2010-03-03T16:03:33.77</time>
<name>399</name>
</trkpt>
<trkpt lat="48.937785" lon="8.673532">
<ele>324.0</ele>
<speed>5.7</speed>
<course>157.7</course>
<desc>Speed 5.7 km/h Distance 0.94 km</desc>
<time>2010-03-03T16:03:34.77</time>
<name>400</name>
</trkpt>
<trkpt lat="48.937772" lon="8.673540">
<ele>324.0</ele>
<speed>5.5</speed>
<course>170.3</course>
<desc>Speed 5.5 km/h Distance 0.94 km</desc>
<time>2010-03-03T16:03:35.77</time>
<name>401</name>
</trkpt>
<trkpt lat="48.937758" lon="8.673543">
<ele>324.0</ele>
<speed>4.5</speed>
<course>150.2</course>
<desc>Speed 4.5 km/h Distance 0.94 km</desc>
<time>2010-03-03T16:03:36.77</time>
<name>402</name>
</trkpt>
<trkpt lat="48.937745" lon="8.673555">
<ele>324.0</ele>
<speed>5.5</speed>
<course>157.9</course>
<desc>Speed 5.5 km/h Distance 0.95 km</desc>
<time>2010-03-03T16:03:37.77</time>
<name>403</name>
</trkpt>
<trkpt lat="48.937732" lon="8.673563">
<ele>324.0</ele>
<speed>5.4</speed>
<course>161.8</course>
<desc>Speed 5.4 km/h Distance 0.95 km</desc>
<time>2010-03-03T16:03:38.77</time>
<name>404</name>
</trkpt>
<trkpt lat="48.937722" lon="8.673568">
<ele>324.0</ele>
<speed>4.4</speed>
<course>136.8</course>
<desc>Speed 4.4 km/h Distance 0.95 km</desc>
<time>2010-03-03T16:03:39.77</time>
<name>405</name>
</trkpt>
<trkpt lat="48.937710" lon="8.673585">
<ele>324.0</ele>
<speed>6.3</speed>
<course>138.8</course>
<desc>Speed 6.3 km/h Distance 0.95 km</desc>
<time>2010-03-03T16:03:40.77</time>
<name>406</name>
</trkpt>
<trkpt lat="48.937700" lon="8.673598">
<ele>324.0</ele>
<speed>4.6</speed>
<course>142.5</course>
<desc>Speed 4.6 km/h Distance 0.95 km</desc>
<time>2010-03-03T16:03:41.77</time>
<name>407</name>
</trkpt>
<trkpt lat="48.937690" lon="8.673610">
<ele>324.0</ele>
<speed>4.7</speed>
<course>133.4</course>
<desc>Speed 4.7 km/h Distance 0.95 km</desc>
<time>2010-03-03T16:03:42.77</time>
<name>408</name>
</trkpt>
<trkpt lat="48.937682" lon="8.673623">
<ele>324.0</ele>
<speed>4.5</speed>
<course>133.4</course>
<desc>Speed 4.5 km/h Distance 0.95 km</desc>
<time>2010-03-03T16:03:43.76</time>
<name>409</name>
</trkpt>
<trkpt lat="48.937673" lon="8.673637">
<ele>324.0</ele>
<speed>4.2</speed>
<course>143.1</course>
<desc>Speed 4.2 km/h Distance 0.96 km</desc>
<time>2010-03-03T16:03:44.76</time>
<name>410</name>
</trkpt>
<trkpt lat="48.937662" lon="8.673650">
<ele>324.0</ele>
<speed>4.2</speed>
<course>150.6</course>
<desc>Speed 4.2 km/h Distance 0.96 km</desc>
<time>2010-03-03T16:03:45.76</time>
<name>411</name>
</trkpt>
<trkpt lat="48.937650" lon="8.673660">
<ele>324.0</ele>
<speed>4.2</speed>
<course>138.8</course>
<desc>Speed 4.2 km/h Distance 0.96 km</desc>
<time>2010-03-03T16:03:46.76</time>
<name>412</name>
</trkpt>
<trkpt lat="48.937635" lon="8.673680">
<ele>324.0</ele>
<speed>6.3</speed>
<course>149.2</course>
<desc>Speed 6.3 km/h Distance 0.96 km</desc>
<time>2010-03-03T16:03:47.76</time>
<name>413</name>
</trkpt>
<trkpt lat="48.937618" lon="8.673695">
<ele>324.0</ele>
<speed>5.6</speed>
<course>156.3</course>
<desc>Speed 5.6 km/h Distance 0.96 km</desc>
<time>2010-03-03T16:03:48.76</time>
<name>414</name>
</trkpt>
<trkpt lat="48.937603" lon="8.673705">
<ele>324.0</ele>
<speed>5.0</speed>
<course>160.3</course>
<desc>Speed 5.0 km/h Distance 0.96 km</desc>
<time>2010-03-03T16:03:49.76</time>
<name>415</name>
</trkpt>
<trkpt lat="48.937585" lon="8.673715">
<ele>324.0</ele>
<speed>5.5</speed>
<course>168.8</course>
<desc>Speed 5.5 km/h Distance 0.97 km</desc>
<time>2010-03-03T16:03:50.76</time>
<name>416</name>
</trkpt>
<trkpt lat="48.937573" lon="8.673718">
<ele>324.0</ele>
<speed>5.7</speed>
<course>171.0</course>
<desc>Speed 5.7 km/h Distance 0.97 km</desc>
<time>2010-03-03T16:03:51.76</time>
<name>417</name>
</trkpt>
<trkpt lat="48.937560" lon="8.673722">
<ele>324.0</ele>
<speed>5.4</speed>
<course>169.8</course>
<desc>Speed 5.4 km/h Distance 0.97 km</desc>
<time>2010-03-03T16:03:52.76</time>
<name>418</name>
</trkpt>
<trkpt lat="48.937542" lon="8.673727">
<ele>324.0</ele>
<speed>6.0</speed>
<course>172.5</course>
<desc>Speed 6.0 km/h Distance 0.97 km</desc>
<time>2010-03-03T16:03:53.76</time>
<name>419</name>
</trkpt>
<trkpt lat="48.937527" lon="8.673730">
<ele>324.0</ele>
<speed>5.7</speed>
<course>175.6</course>
<desc>Speed 5.7 km/h Distance 0.97 km</desc>
<time>2010-03-03T16:03:54.76</time>
<name>420</name>
</trkpt>
<trkpt lat="48.937517" lon="8.673732">
<ele>324.0</ele>
<speed>5.9</speed>
<course>164.0</course>
<desc>Speed 5.9 km/h Distance 0.97 km</desc>
<time>2010-03-03T16:03:55.76</time>
<name>421</name>
</trkpt>
<trkpt lat="48.937502" lon="8.673738">
<ele>324.0</ele>
<speed>6.0</speed>
<course>177.5</course>
<desc>Speed 6.0 km/h Distance 0.98 km</desc>
<time>2010-03-03T16:03:56.76</time>
<name>422</name>
</trkpt>
<trkpt lat="48.937483" lon="8.673740">
<ele>324.0</ele>
<speed>5.7</speed>
<course>176.2</course>
<desc>Speed 5.7 km/h Distance 0.98 km</desc>
<time>2010-03-03T16:03:57.75</time>
<name>423</name>
</trkpt>
<trkpt lat="48.937468" lon="8.673742">
<ele>324.0</ele>
<speed>5.4</speed>
<course>201.5</course>
<desc>Speed 5.4 km/h Distance 0.98 km</desc>
<time>2010-03-03T16:03:58.75</time>
<name>424</name>
</trkpt>
<trkpt lat="48.937460" lon="8.673737">
<ele>324.0</ele>
<speed>5.5</speed>
<course>178.8</course>
<desc>Speed 5.5 km/h Distance 0.98 km</desc>
<time>2010-03-03T16:03:59.76</time>
<name>425</name>
</trkpt>
<trkpt lat="48.937447" lon="8.673737">
<ele>324.0</ele>
<speed>5.3</speed>
<course>176.2</course>
<desc>Speed 5.3 km/h Distance 0.98 km</desc>
<time>2010-03-03T16:04:00.75</time>
<name>426</name>
</trkpt>
<trkpt lat="48.937432" lon="8.673738">
<ele>324.0</ele>
<speed>5.3</speed>
<course>163.2</course>
<desc>Speed 5.3 km/h Distance 0.98 km</desc>
<time>2010-03-03T16:04:01.75</time>
<name>427</name>
</trkpt>
<trkpt lat="48.937413" lon="8.673747">
<ele>324.0</ele>
<speed>6.3</speed>
<course>175.0</course>
<desc>Speed 6.3 km/h Distance 0.99 km</desc>
<time>2010-03-03T16:04:02.75</time>
<name>428</name>
</trkpt>
<trkpt lat="48.937398" lon="8.673748">
<ele>324.0</ele>
<speed>5.4</speed>
<course>178.8</course>
<desc>Speed 5.4 km/h Distance 0.99 km</desc>
<time>2010-03-03T16:04:03.76</time>
<name>429</name>
</trkpt>
<trkpt lat="48.937385" lon="8.673750">
<ele>324.0</ele>
<speed>5.2</speed>
<course>169.2</course>
<desc>Speed 5.2 km/h Distance 0.99 km</desc>
<time>2010-03-03T16:04:04.76</time>
<name>430</name>
</trkpt>
<trkpt lat="48.937368" lon="8.673755">
<ele>324.0</ele>
<speed>5.8</speed>
<course>169.8</course>
<desc>Speed 5.8 km/h Distance 0.99 km</desc>
<time>2010-03-03T16:04:05.76</time>
<name>431</name>
</trkpt>
<trkpt lat="48.937350" lon="8.673760">
<ele>324.0</ele>
<speed>6.2</speed>
<course>159.9</course>
<desc>Speed 6.2 km/h Distance 0.99 km</desc>
<time>2010-03-03T16:04:06.76</time>
<name>432</name>
</trkpt>
<trkpt lat="48.937335" lon="8.673768">
<ele>324.0</ele>
<speed>6.2</speed>
<course>165.1</course>
<desc>Speed 6.2 km/h Distance 1.00 km</desc>
<time>2010-03-03T16:04:07.76</time>
<name>433</name>
</trkpt>
<trkpt lat="48.937318" lon="8.673775">
<ele>324.0</ele>
<speed>5.8</speed>
<course>159.0</course>
<desc>Speed 5.8 km/h Distance 1.00 km</desc>
<time>2010-03-03T16:04:08.75</time>
<name>434</name>
</trkpt>
<trkpt lat="48.937298" lon="8.673787">
<ele>324.0</ele>
<speed>6.6</speed>
<course>163.2</course>
<desc>Speed 6.6 km/h Distance 1.00 km</desc>
<time>2010-03-03T16:04:09.75</time>
<name>435</name>
</trkpt>
<trkpt lat="48.937280" lon="8.673795">
<ele>324.0</ele>
<speed>6.3</speed>
<course>161.2</course>
<desc>Speed 6.3 km/h Distance 1.00 km</desc>
<time>2010-03-03T16:04:10.76</time>
<name>436</name>
</trkpt>
<trkpt lat="48.937267" lon="8.673802">
<ele>324.0</ele>
<speed>5.1</speed>
<course>168.8</course>
<desc>Speed 5.1 km/h Distance 1.00 km</desc>
<time>2010-03-03T16:04:11.75</time>
<name>437</name>
</trkpt>
<trkpt lat="48.937250" lon="8.673807">
<ele>324.0</ele>
<speed>6.3</speed>
<course>166.7</course>
<desc>Speed 6.3 km/h Distance 1.01 km</desc>
<time>2010-03-03T16:04:12.75</time>
<name>438</name>
</trkpt>
<trkpt lat="48.937232" lon="8.673813">
<ele>324.0</ele>
<speed>5.9</speed>
<course>155.4</course>
<desc>Speed 5.9 km/h Distance 1.01 km</desc>
<time>2010-03-03T16:04:13.75</time>
<name>439</name>
</trkpt>
<trkpt lat="48.937215" lon="8.673825">
<ele>324.0</ele>
<speed>6.1</speed>
<course>168.8</course>
<desc>Speed 6.1 km/h Distance 1.01 km</desc>
<time>2010-03-03T16:04:14.75</time>
<name>440</name>
</trkpt>
<trkpt lat="48.937198" lon="8.673830">
<ele>324.0</ele>
<speed>5.9</speed>
<course>151.4</course>
<desc>Speed 5.9 km/h Distance 1.01 km</desc>
<time>2010-03-03T16:04:15.75</time>
<name>441</name>
</trkpt>
<trkpt lat="48.937188" lon="8.673838">
<ele>324.0</ele>
<speed>4.9</speed>
<course>163.7</course>
<desc>Speed 4.9 km/h Distance 1.01 km</desc>
<time>2010-03-03T16:04:16.75</time>
<name>442</name>
</trkpt>
<trkpt lat="48.937173" lon="8.673845">
<ele>324.0</ele>
<speed>5.7</speed>
<course>180.0</course>
<desc>Speed 5.7 km/h Distance 1.01 km</desc>
<time>2010-03-03T16:04:17.75</time>
<name>443</name>
</trkpt>
<trkpt lat="48.937155" lon="8.673845">
<ele>324.0</ele>
<speed>6.3</speed>
<course>196.6</course>
<desc>Speed 6.3 km/h Distance 1.02 km</desc>
<time>2010-03-03T16:04:18.76</time>
<name>444</name>
</trkpt>
<trkpt lat="48.937137" lon="8.673837">
<ele>324.5</ele>
<speed>6.3</speed>
<course>207.7</course>
<desc>Speed 6.3 km/h Distance 1.02 km</desc>
<time>2010-03-03T16:04:19.75</time>
<name>445</name>
</trkpt>
<trkpt lat="48.937120" lon="8.673823">
<ele>324.5</ele>
<speed>6.0</speed>
<course>180.0</course>
<desc>Speed 6.0 km/h Distance 1.02 km</desc>
<time>2010-03-03T16:04:20.75</time>
<name>446</name>
</trkpt>
<trkpt lat="48.937103" lon="8.673823">
<ele>324.5</ele>
<speed>6.2</speed>
<course>187.5</course>
<desc>Speed 6.2 km/h Distance 1.02 km</desc>
<time>2010-03-03T16:04:21.75</time>
<name>447</name>
</trkpt>
<trkpt lat="48.937088" lon="8.673820">
<ele>324.5</ele>
<speed>5.7</speed>
<course>201.5</course>
<desc>Speed 5.7 km/h Distance 1.02 km</desc>
<time>2010-03-03T16:04:22.75</time>
<name>448</name>
</trkpt>
<trkpt lat="48.937072" lon="8.673810">
<ele>324.5</ele>
<speed>5.8</speed>
<course>184.7</course>
<desc>Speed 5.8 km/h Distance 1.03 km</desc>
<time>2010-03-03T16:04:23.75</time>
<name>449</name>
</trkpt>
<trkpt lat="48.937060" lon="8.673808">
<ele>324.5</ele>
<speed>5.8</speed>
<course>184.7</course>
<desc>Speed 5.8 km/h Distance 1.03 km</desc>
<time>2010-03-03T16:04:24.75</time>
<name>450</name>
</trkpt>
<trkpt lat="48.937048" lon="8.673807">
<ele>324.5</ele>
<speed>6.0</speed>
<course>192.6</course>
<desc>Speed 6.0 km/h Distance 1.03 km</desc>
<time>2010-03-03T16:04:25.74</time>
<name>451</name>
</trkpt>
<trkpt lat="48.937038" lon="8.673803">
<ele>324.5</ele>
<speed>5.8</speed>
<course>174.7</course>
<desc>Speed 5.8 km/h Distance 1.03 km</desc>
<time>2010-03-03T16:04:26.74</time>
<name>452</name>
</trkpt>
<trkpt lat="48.937025" lon="8.673805">
<ele>324.5</ele>
<speed>5.6</speed>
<course>175.3</course>
<desc>Speed 5.6 km/h Distance 1.03 km</desc>
<time>2010-03-03T16:04:27.74</time>
<name>453</name>
</trkpt>
<trkpt lat="48.937013" lon="8.673807">
<ele>324.5</ele>
<speed>5.7</speed>
<course>171.9</course>
<desc>Speed 5.7 km/h Distance 1.03 km</desc>
<time>2010-03-03T16:04:28.74</time>
<name>454</name>
</trkpt>
<trkpt lat="48.936998" lon="8.673810">
<ele>324.5</ele>
<speed>5.8</speed>
<course>204.6</course>
<desc>Speed 5.8 km/h Distance 1.03 km</desc>
<time>2010-03-03T16:04:29.74</time>
<name>455</name>
</trkpt>
<trkpt lat="48.936982" lon="8.673798">
<ele>324.5</ele>
<speed>5.7</speed>
<course>213.4</course>
<desc>Speed 5.7 km/h Distance 1.04 km</desc>
<time>2010-03-03T16:04:30.75</time>
<name>456</name>
</trkpt>
<trkpt lat="48.936967" lon="8.673783">
<ele>324.5</ele>
<speed>5.3</speed>
<course>213.3</course>
<desc>Speed 5.3 km/h Distance 1.04 km</desc>
<time>2010-03-03T16:04:31.74</time>
<name>457</name>
</trkpt>
<trkpt lat="48.936950" lon="8.673767">
<ele>325.0</ele>
<speed>5.7</speed>
<course>202.7</course>
<desc>Speed 5.7 km/h Distance 1.04 km</desc>
<time>2010-03-03T16:04:32.74</time>
<name>458</name>
</trkpt>
<trkpt lat="48.936932" lon="8.673755">
<ele>325.0</ele>
<speed>5.7</speed>
<course>213.2</course>
<desc>Speed 5.7 km/h Distance 1.04 km</desc>
<time>2010-03-03T16:04:33.74</time>
<name>459</name>
</trkpt>
<trkpt lat="48.936917" lon="8.673740">
<ele>325.0</ele>
<speed>5.9</speed>
<course>216.0</course>
<desc>Speed 5.9 km/h Distance 1.04 km</desc>
<time>2010-03-03T16:04:34.75</time>
<name>460</name>
</trkpt>
<trkpt lat="48.936902" lon="8.673723">
<ele>325.0</ele>
<speed>5.9</speed>
<course>218.8</course>
<desc>Speed 5.9 km/h Distance 1.05 km</desc>
<time>2010-03-03T16:04:35.74</time>
<name>461</name>
</trkpt>
<trkpt lat="48.936887" lon="8.673705">
<ele>325.0</ele>
<speed>6.1</speed>
<course>190.3</course>
<desc>Speed 6.1 km/h Distance 1.05 km</desc>
<time>2010-03-03T16:04:36.74</time>
<name>462</name>
</trkpt>
<trkpt lat="48.936873" lon="8.673702">
<ele>325.0</ele>
<speed>4.8</speed>
<course>177.2</course>
<desc>Speed 4.8 km/h Distance 1.05 km</desc>
<time>2010-03-03T16:04:37.74</time>
<name>463</name>
</trkpt>
<trkpt lat="48.936857" lon="8.673703">
<ele>325.0</ele>
<speed>5.6</speed>
<course>164.0</course>
<desc>Speed 5.6 km/h Distance 1.05 km</desc>
<time>2010-03-03T16:04:38.74</time>
<name>464</name>
</trkpt>
<trkpt lat="48.936842" lon="8.673710">
<ele>325.0</ele>
<speed>6.2</speed>
<course>183.8</course>
<desc>Speed 6.2 km/h Distance 1.05 km</desc>
<time>2010-03-03T16:04:39.74</time>
<name>465</name>
</trkpt>
<trkpt lat="48.936827" lon="8.673708">
<ele>325.0</ele>
<speed>5.1</speed>
<course>183.9</course>
<desc>Speed 5.1 km/h Distance 1.06 km</desc>
<time>2010-03-03T16:04:40.74</time>
<name>466</name>
</trkpt>
<trkpt lat="48.936813" lon="8.673707">
<ele>325.0</ele>
<speed>5.3</speed>
<course>185.0</course>
<desc>Speed 5.3 km/h Distance 1.06 km</desc>
<time>2010-03-03T16:04:41.74</time>
<name>467</name>
</trkpt>
<trkpt lat="48.936798" lon="8.673705">
<ele>325.5</ele>
<speed>4.9</speed>
<course>196.6</course>
<desc>Speed 4.9 km/h Distance 1.06 km</desc>
<time>2010-03-03T16:04:42.74</time>
<name>468</name>
</trkpt>
<trkpt lat="48.936783" lon="8.673698">
<ele>325.5</ele>
<speed>5.1</speed>
<course>191.7</course>
<desc>Speed 5.1 km/h Distance 1.06 km</desc>
<time>2010-03-03T16:04:43.74</time>
<name>469</name>
</trkpt>
<trkpt lat="48.936768" lon="8.673693">
<ele>325.5</ele>
<speed>5.4</speed>
<course>201.3</course>
<desc>Speed 5.4 km/h Distance 1.06 km</desc>
<time>2010-03-03T16:04:44.74</time>
<name>470</name>
</trkpt>
<trkpt lat="48.936752" lon="8.673683">
<ele>325.5</ele>
<speed>5.5</speed>
<course>180.0</course>
<desc>Speed 5.5 km/h Distance 1.06 km</desc>
<time>2010-03-03T16:04:45.73</time>
<name>471</name>
</trkpt>
<trkpt lat="48.936737" lon="8.673683">
<ele>325.5</ele>
<speed>5.0</speed>
<course>184.1</course>
<desc>Speed 5.0 km/h Distance 1.07 km</desc>
<time>2010-03-03T16:04:46.74</time>
<name>472</name>
</trkpt>
<trkpt lat="48.936720" lon="8.673682">
<ele>325.5</ele>
<speed>5.9</speed>
<course>180.0</course>
<desc>Speed 5.9 km/h Distance 1.07 km</desc>
<time>2010-03-03T16:04:47.73</time>
<name>473</name>
</trkpt>
<trkpt lat="48.936703" lon="8.673682">
<ele>325.5</ele>
<speed>5.8</speed>
<course>168.8</course>
<desc>Speed 5.8 km/h Distance 1.07 km</desc>
<time>2010-03-03T16:04:48.73</time>
<name>474</name>
</trkpt>
<trkpt lat="48.936687" lon="8.673687">
<ele>325.5</ele>
<speed>6.5</speed>
<course>188.8</course>
<desc>Speed 6.5 km/h Distance 1.07 km</desc>
<time>2010-03-03T16:04:49.74</time>
<name>475</name>
</trkpt>
<trkpt lat="48.936672" lon="8.673683">
<ele>325.5</ele>
<speed>5.2</speed>
<course>184.1</course>
<desc>Speed 5.2 km/h Distance 1.07 km</desc>
<time>2010-03-03T16:04:50.73</time>
<name>476</name>
</trkpt>
<trkpt lat="48.936655" lon="8.673682">
<ele>325.5</ele>
<speed>5.9</speed>
<course>195.1</course>
<desc>Speed 5.9 km/h Distance 1.07 km</desc>
<time>2010-03-03T16:04:51.73</time>
<name>477</name>
</trkpt>
<trkpt lat="48.936638" lon="8.673675">
<ele>325.5</ele>
<speed>5.8</speed>
<course>185.0</course>
<desc>Speed 5.8 km/h Distance 1.08 km</desc>
<time>2010-03-03T16:04:52.73</time>
<name>478</name>
</trkpt>
<trkpt lat="48.936623" lon="8.673673">
<ele>325.5</ele>
<speed>5.8</speed>
<course>192.6</course>
<desc>Speed 5.8 km/h Distance 1.08 km</desc>
<time>2010-03-03T16:04:53.73</time>
<name>479</name>
</trkpt>
<trkpt lat="48.936608" lon="8.673668">
<ele>325.5</ele>
<speed>5.6</speed>
<course>193.5</course>
<desc>Speed 5.6 km/h Distance 1.08 km</desc>
<time>2010-03-03T16:04:54.73</time>
<name>480</name>
</trkpt>
<trkpt lat="48.936595" lon="8.673663">
<ele>325.5</ele>
<speed>5.5</speed>
<course>196.6</course>
<desc>Speed 5.5 km/h Distance 1.08 km</desc>
<time>2010-03-03T16:04:55.73</time>
<name>481</name>
</trkpt>
<trkpt lat="48.936580" lon="8.673657">
<ele>325.5</ele>
<speed>5.9</speed>
<course>232.7</course>
<desc>Speed 5.9 km/h Distance 1.08 km</desc>
<time>2010-03-03T16:04:56.73</time>
<name>482</name>
</trkpt>
<trkpt lat="48.936572" lon="8.673640">
<ele>325.5</ele>
<speed>5.1</speed>
<course>205.2</course>
<desc>Speed 5.1 km/h Distance 1.09 km</desc>
<time>2010-03-03T16:04:57.72</time>
<name>483</name>
</trkpt>
<trkpt lat="48.936560" lon="8.673632">
<ele>325.5</ele>
<speed>4.7</speed>
<course>221.3</course>
<desc>Speed 4.7 km/h Distance 1.09 km</desc>
<time>2010-03-03T16:04:58.73</time>
<name>484</name>
</trkpt>
<trkpt lat="48.936550" lon="8.673618">
<ele>325.5</ele>
<speed>4.6</speed>
<course>254.5</course>
<desc>Speed 4.6 km/h Distance 1.09 km</desc>
<time>2010-03-03T16:04:59.72</time>
<name>485</name>
</trkpt>
<trkpt lat="48.936547" lon="8.673600">
<ele>325.5</ele>
<speed>4.3</speed>
<course>254.0</course>
<desc>Speed 4.3 km/h Distance 1.09 km</desc>
<time>2010-03-03T16:05:00.73</time>
<name>486</name>
</trkpt>
<trkpt lat="48.936542" lon="8.673573">
<ele>326.0</ele>
<speed>5.3</speed>
<course>209.8</course>
<desc>Speed 5.3 km/h Distance 1.09 km</desc>
<time>2010-03-03T16:05:01.73</time>
<name>487</name>
</trkpt>
<trkpt lat="48.936528" lon="8.673562">
<ele>326.0</ele>
<speed>5.3</speed>
<course>244.9</course>
<desc>Speed 5.3 km/h Distance 1.09 km</desc>
<time>2010-03-03T16:05:02.73</time>
<name>488</name>
</trkpt>
<trkpt lat="48.936522" lon="8.673540">
<ele>326.0</ele>
<speed>4.8</speed>
<course>246.5</course>
<desc>Speed 4.8 km/h Distance 1.09 km</desc>
<time>2010-03-03T16:05:03.73</time>
<name>489</name>
</trkpt>
<trkpt lat="48.936515" lon="8.673517">
<ele>326.0</ele>
<speed>5.5</speed>
<course>243.1</course>
<desc>Speed 5.5 km/h Distance 1.10 km</desc>
<time>2010-03-03T16:05:04.73</time>
<name>490</name>
</trkpt>
<trkpt lat="48.936507" lon="8.673492">
<ele>326.0</ele>
<speed>5.1</speed>
<course>222.6</course>
<desc>Speed 5.1 km/h Distance 1.10 km</desc>
<time>2010-03-03T16:05:05.73</time>
<name>491</name>
</trkpt>
<trkpt lat="48.936498" lon="8.673480">
<ele>326.0</ele>
<speed>4.2</speed>
<course>229.9</course>
<desc>Speed 4.2 km/h Distance 1.10 km</desc>
<time>2010-03-03T16:05:06.72</time>
<name>492</name>
</trkpt>
<trkpt lat="48.936490" lon="8.673465">
<ele>326.0</ele>
<speed>4.7</speed>
<course>220.2</course>
<desc>Speed 4.7 km/h Distance 1.10 km</desc>
<time>2010-03-03T16:05:07.73</time>
<name>493</name>
</trkpt>
<trkpt lat="48.936478" lon="8.673450">
<ele>326.0</ele>
<speed>4.9</speed>
<course>264.6</course>
<desc>Speed 4.9 km/h Distance 1.10 km</desc>
<time>2010-03-03T16:05:08.72</time>
<name>494</name>
</trkpt>
<trkpt lat="48.936477" lon="8.673423">
<ele>326.0</ele>
<speed>5.5</speed>
<course>264.6</course>
<desc>Speed 5.5 km/h Distance 1.11 km</desc>
<time>2010-03-03T16:05:09.72</time>
<name>495</name>
</trkpt>
<trkpt lat="48.936475" lon="8.673397">
<ele>326.0</ele>
<speed>5.0</speed>
<course>241.0</course>
<desc>Speed 5.0 km/h Distance 1.11 km</desc>
<time>2010-03-03T16:05:10.74</time>
<name>496</name>
</trkpt>
<trkpt lat="48.936468" lon="8.673378">
<ele>326.0</ele>
<speed>4.8</speed>
<course>237.6</course>
<desc>Speed 4.8 km/h Distance 1.11 km</desc>
<time>2010-03-03T16:05:11.73</time>
<name>497</name>
</trkpt>
<trkpt lat="48.936460" lon="8.673358">
<ele>326.0</ele>
<speed>5.3</speed>
<course>243.1</course>
<desc>Speed 5.3 km/h Distance 1.11 km</desc>
<time>2010-03-03T16:05:12.73</time>
<name>498</name>
</trkpt>
<trkpt lat="48.936453" lon="8.673338">
<ele>326.0</ele>
<speed>5.3</speed>
<course>221.3</course>
<desc>Speed 5.3 km/h Distance 1.11 km</desc>
<time>2010-03-03T16:05:13.72</time>
<name>499</name>
</trkpt>
<trkpt lat="48.936443" lon="8.673325">
<ele>326.0</ele>
<speed>4.8</speed>
<course>241.0</course>
<desc>Speed 4.8 km/h Distance 1.11 km</desc>
<time>2010-03-03T16:05:14.73</time>
<name>500</name>
</trkpt>
<trkpt lat="48.936437" lon="8.673307">
<ele>326.0</ele>
<speed>5.2</speed>
<course>221.2</course>
<desc>Speed 5.2 km/h Distance 1.12 km</desc>
<time>2010-03-03T16:05:15.72</time>
<name>501</name>
</trkpt>
<trkpt lat="48.936427" lon="8.673293">
<ele>326.0</ele>
<speed>4.9</speed>
<course>224.5</course>
<desc>Speed 4.9 km/h Distance 1.12 km</desc>
<time>2010-03-03T16:05:16.72</time>
<name>502</name>
</trkpt>
<trkpt lat="48.936420" lon="8.673283">
<ele>326.0</ele>
<speed>3.7</speed>
<course>222.6</course>
<desc>Speed 3.7 km/h Distance 1.12 km</desc>
<time>2010-03-03T16:05:17.73</time>
<name>503</name>
</trkpt>
<trkpt lat="48.936412" lon="8.673272">
<ele>326.0</ele>
<speed>4.4</speed>
<course>222.6</course>
<desc>Speed 4.4 km/h Distance 1.12 km</desc>
<time>2010-03-03T16:05:18.73</time>
<name>504</name>
</trkpt>
<trkpt lat="48.936403" lon="8.673260">
<ele>326.0</ele>
<speed>4.7</speed>
<course>208.6</course>
<desc>Speed 4.7 km/h Distance 1.12 km</desc>
<time>2010-03-03T16:05:19.73</time>
<name>505</name>
</trkpt>
<trkpt lat="48.936393" lon="8.673252">
<ele>326.0</ele>
<speed>4.4</speed>
<course>222.6</course>
<desc>Speed 4.4 km/h Distance 1.12 km</desc>
<time>2010-03-03T16:05:20.72</time>
<name>506</name>
</trkpt>
<trkpt lat="48.936385" lon="8.673240">
<ele>326.0</ele>
<speed>4.8</speed>
<course>226.4</course>
<desc>Speed 4.8 km/h Distance 1.12 km</desc>
<time>2010-03-03T16:05:21.72</time>
<name>507</name>
</trkpt>
<trkpt lat="48.936377" lon="8.673227">
<ele>326.0</ele>
<speed>4.4</speed>
<course>247.4</course>
<desc>Speed 4.4 km/h Distance 1.12 km</desc>
<time>2010-03-03T16:05:22.72</time>
<name>508</name>
</trkpt>
<trkpt lat="48.936372" lon="8.673208">
<ele>326.5</ele>
<speed>4.8</speed>
<course>243.1</course>
<desc>Speed 4.8 km/h Distance 1.13 km</desc>
<time>2010-03-03T16:05:23.72</time>
<name>509</name>
</trkpt>
<trkpt lat="48.936365" lon="8.673188">
<ele>326.5</ele>
<speed>4.6</speed>
<course>236.7</course>
<desc>Speed 4.6 km/h Distance 1.13 km</desc>
<time>2010-03-03T16:05:24.96</time>
<name>510</name>
</trkpt>
<trkpt lat="48.936360" lon="8.673177">
<ele>326.5</ele>
<speed>4.3</speed>
<course>229.7</course>
<desc>Speed 4.3 km/h Distance 1.13 km</desc>
<time>2010-03-03T16:05:25.74</time>
<name>511</name>
</trkpt>
<trkpt lat="48.936352" lon="8.673162">
<ele>326.5</ele>
<speed>4.3</speed>
<course>232.7</course>
<desc>Speed 4.3 km/h Distance 1.13 km</desc>
<time>2010-03-03T16:05:26.74</time>
<name>512</name>
</trkpt>
<trkpt lat="48.936343" lon="8.673145">
<ele>326.5</ele>
<speed>4.9</speed>
<course>247.5</course>
<desc>Speed 4.9 km/h Distance 1.13 km</desc>
<time>2010-03-03T16:05:27.74</time>
<name>513</name>
</trkpt>
<trkpt lat="48.936338" lon="8.673127">
<ele>326.5</ele>
<speed>5.1</speed>
<course>237.7</course>
<desc>Speed 5.1 km/h Distance 1.13 km</desc>
<time>2010-03-03T16:05:28.74</time>
<name>514</name>
</trkpt>
<trkpt lat="48.936330" lon="8.673107">
<ele>326.5</ele>
<speed>4.4</speed>
<course>245.5</course>
<desc>Speed 4.4 km/h Distance 1.13 km</desc>
<time>2010-03-03T16:05:29.85</time>
<name>515</name>
</trkpt>
<trkpt lat="48.936325" lon="8.673090">
<ele>326.5</ele>
<speed>4.9</speed>
<course>232.7</course>
<desc>Speed 4.9 km/h Distance 1.14 km</desc>
<time>2010-03-03T16:05:30.75</time>
<name>516</name>
</trkpt>
<trkpt lat="48.936317" lon="8.673073">
<ele>326.5</ele>
<speed>4.8</speed>
<course>262.8</course>
<desc>Speed 4.8 km/h Distance 1.14 km</desc>
<time>2010-03-03T16:05:31.75</time>
<name>517</name>
</trkpt>
<trkpt lat="48.936315" lon="8.673053">
<ele>326.5</ele>
<speed>5.0</speed>
<course>232.7</course>
<desc>Speed 5.0 km/h Distance 1.14 km</desc>
<time>2010-03-03T16:05:32.75</time>
<name>518</name>
</trkpt>
<trkpt lat="48.936305" lon="8.673033">
<ele>326.5</ele>
<speed>5.1</speed>
<course>216.6</course>
<desc>Speed 5.1 km/h Distance 1.14 km</desc>
<time>2010-03-03T16:05:33.75</time>
<name>519</name>
</trkpt>
<trkpt lat="48.936292" lon="8.673018">
<ele>326.5</ele>
<speed>4.5</speed>
<course>232.8</course>
<desc>Speed 4.5 km/h Distance 1.14 km</desc>
<time>2010-03-03T16:05:34.75</time>
<name>520</name>
</trkpt>
<trkpt lat="48.936285" lon="8.673005">
<ele>326.5</ele>
<speed>4.7</speed>
<course>238.7</course>
<desc>Speed 4.7 km/h Distance 1.14 km</desc>
<time>2010-03-03T16:05:35.75</time>
<name>521</name>
</trkpt>
<trkpt lat="48.936275" lon="8.672980">
<ele>326.5</ele>
<speed>5.5</speed>
<course>226.9</course>
<desc>Speed 5.5 km/h Distance 1.15 km</desc>
<time>2010-03-03T16:05:36.75</time>
<name>522</name>
</trkpt>
<trkpt lat="48.936262" lon="8.672958">
<ele>326.5</ele>
<speed>4.5</speed>
<course>224.7</course>
<desc>Speed 4.5 km/h Distance 1.15 km</desc>
<time>2010-03-03T16:05:37.75</time>
<name>523</name>
</trkpt>
<trkpt lat="48.936252" lon="8.672943">
<ele>326.5</ele>
<speed>4.8</speed>
<course>224.6</course>
<desc>Speed 4.8 km/h Distance 1.15 km</desc>
<time>2010-03-03T16:05:38.75</time>
<name>524</name>
</trkpt>
<trkpt lat="48.936242" lon="8.672928">
<ele>326.5</ele>
<speed>4.4</speed>
<course>232.7</course>
<desc>Speed 4.4 km/h Distance 1.15 km</desc>
<time>2010-03-03T16:05:39.75</time>
<name>525</name>
</trkpt>
<trkpt lat="48.936235" lon="8.672915">
<ele>326.5</ele>
<speed>4.6</speed>
<course>222.6</course>
<desc>Speed 4.6 km/h Distance 1.15 km</desc>
<time>2010-03-03T16:05:40.75</time>
<name>526</name>
</trkpt>
<trkpt lat="48.936227" lon="8.672903">
<ele>326.5</ele>
<speed>4.7</speed>
<course>253.0</course>
<desc>Speed 4.7 km/h Distance 1.15 km</desc>
<time>2010-03-03T16:05:41.75</time>
<name>527</name>
</trkpt>
<trkpt lat="48.936223" lon="8.672887">
<ele>326.5</ele>
<speed>4.9</speed>
<course>259.2</course>
<desc>Speed 4.9 km/h Distance 1.15 km</desc>
<time>2010-03-03T16:05:42.75</time>
<name>528</name>
</trkpt>
<trkpt lat="48.936220" lon="8.672860">
<ele>327.0</ele>
<speed>5.7</speed>
<course>227.6</course>
<desc>Speed 5.7 km/h Distance 1.16 km</desc>
<time>2010-03-03T16:05:43.75</time>
<name>529</name>
</trkpt>
<trkpt lat="48.936210" lon="8.672843">
<ele>327.0</ele>
<speed>4.8</speed>
<course>249.2</course>
<desc>Speed 4.8 km/h Distance 1.16 km</desc>
<time>2010-03-03T16:05:44.75</time>
<name>530</name>
</trkpt>
<trkpt lat="48.936203" lon="8.672817">
<ele>327.0</ele>
<speed>5.6</speed>
<course>238.6</course>
<desc>Speed 5.6 km/h Distance 1.16 km</desc>
<time>2010-03-03T16:05:45.75</time>
<name>531</name>
</trkpt>
<trkpt lat="48.936193" lon="8.672792">
<ele>327.0</ele>
<speed>5.2</speed>
<course>218.6</course>
<desc>Speed 5.2 km/h Distance 1.16 km</desc>
<time>2010-03-03T16:05:46.75</time>
<name>532</name>
</trkpt>
<trkpt lat="48.936178" lon="8.672773">
<ele>327.0</ele>
<speed>4.8</speed>
<course>210.3</course>
<desc>Speed 4.8 km/h Distance 1.16 km</desc>
<time>2010-03-03T16:05:47.75</time>
<name>533</name>
</trkpt>
<trkpt lat="48.936163" lon="8.672760">
<ele>327.0</ele>
<speed>3.8</speed>
<course>210.7</course>
<desc>Speed 3.8 km/h Distance 1.17 km</desc>
<time>2010-03-03T16:05:48.75</time>
<name>534</name>
</trkpt>
<trkpt lat="48.936147" lon="8.672745">
<ele>327.0</ele>
<speed>4.0</speed>
<course>226.4</course>
<desc>Speed 4.0 km/h Distance 1.17 km</desc>
<time>2010-03-03T16:05:49.75</time>
<name>535</name>
</trkpt>
<trkpt lat="48.936138" lon="8.672732">
<ele>327.0</ele>
<speed>4.1</speed>
<course>216.9</course>
<desc>Speed 4.1 km/h Distance 1.17 km</desc>
<time>2010-03-03T16:05:50.75</time>
<name>536</name>
</trkpt>
<trkpt lat="48.936127" lon="8.672718">
<ele>327.0</ele>
<speed>4.3</speed>
<course>253.0</course>
<desc>Speed 4.3 km/h Distance 1.17 km</desc>
<time>2010-03-03T16:05:51.75</time>
<name>537</name>
</trkpt>
<trkpt lat="48.936123" lon="8.672702">
<ele>327.0</ele>
<speed>5.3</speed>
<course>229.7</course>
<desc>Speed 5.3 km/h Distance 1.17 km</desc>
<time>2010-03-03T16:05:52.75</time>
<name>538</name>
</trkpt>
<trkpt lat="48.936115" lon="8.672687">
<ele>327.0</ele>
<speed>4.8</speed>
<course>247.5</course>
<desc>Speed 4.8 km/h Distance 1.17 km</desc>
<time>2010-03-03T16:05:53.75</time>
<name>539</name>
</trkpt>
<trkpt lat="48.936110" lon="8.672668">
<ele>327.0</ele>
<speed>5.1</speed>
<course>254.5</course>
<desc>Speed 5.1 km/h Distance 1.18 km</desc>
<time>2010-03-03T16:05:54.75</time>
<name>540</name>
</trkpt>
<trkpt lat="48.936107" lon="8.672650">
<ele>327.0</ele>
<speed>5.3</speed>
<course>239.7</course>
<desc>Speed 5.3 km/h Distance 1.18 km</desc>
<time>2010-03-03T16:05:55.75</time>
<name>541</name>
</trkpt>
<trkpt lat="48.936098" lon="8.672628">
<ele>327.0</ele>
<speed>6.9</speed>
<course>253.1</course>
<desc>Speed 6.9 km/h Distance 1.18 km</desc>
<time>2010-03-03T16:05:56.75</time>
<name>542</name>
</trkpt>
<trkpt lat="48.936095" lon="8.672612">
<ele>327.0</ele>
<speed>4.6</speed>
<course>247.5</course>
<desc>Speed 4.6 km/h Distance 1.18 km</desc>
<time>2010-03-03T16:05:57.75</time>
<name>543</name>
</trkpt>
<trkpt lat="48.936090" lon="8.672593">
<ele>327.0</ele>
<speed>5.3</speed>
<course>263.3</course>
<desc>Speed 5.3 km/h Distance 1.18 km</desc>
<time>2010-03-03T16:05:58.75</time>
<name>544</name>
</trkpt>
<trkpt lat="48.936088" lon="8.672572">
<ele>327.5</ele>
<speed>5.5</speed>
<course>250.6</course>
<desc>Speed 5.5 km/h Distance 1.18 km</desc>
<time>2010-03-03T16:05:59.75</time>
<name>545</name>
</trkpt>
<trkpt lat="48.936083" lon="8.672550">
<ele>327.5</ele>
<speed>5.6</speed>
<course>249.2</course>
<desc>Speed 5.6 km/h Distance 1.19 km</desc>
<time>2010-03-03T16:06:00.75</time>
<name>546</name>
</trkpt>
<trkpt lat="48.936078" lon="8.672530">
<ele>327.5</ele>
<speed>5.7</speed>
<course>243.1</course>
<desc>Speed 5.7 km/h Distance 1.19 km</desc>
<time>2010-03-03T16:06:01.75</time>
<name>547</name>
</trkpt>
<trkpt lat="48.936072" lon="8.672510">
<ele>327.5</ele>
<speed>5.2</speed>
<course>230.4</course>
<desc>Speed 5.2 km/h Distance 1.19 km</desc>
<time>2010-03-03T16:06:02.75</time>
<name>548</name>
</trkpt>
<trkpt lat="48.936062" lon="8.672492">
<ele>327.5</ele>
<speed>5.5</speed>
<course>237.6</course>
<desc>Speed 5.5 km/h Distance 1.19 km</desc>
<time>2010-03-03T16:06:03.75</time>
<name>549</name>
</trkpt>
<trkpt lat="48.936053" lon="8.672472">
<ele>327.5</ele>
<speed>5.0</speed>
<course>230.6</course>
<desc>Speed 5.0 km/h Distance 1.19 km</desc>
<time>2010-03-03T16:06:04.76</time>
<name>550</name>
</trkpt>
<trkpt lat="48.936042" lon="8.672450">
<ele>327.5</ele>
<speed>5.2</speed>
<course>250.3</course>
<desc>Speed 5.2 km/h Distance 1.19 km</desc>
<time>2010-03-03T16:06:05.77</time>
<name>551</name>
</trkpt>
<trkpt lat="48.936035" lon="8.672422">
<ele>327.5</ele>
<speed>4.8</speed>
<course>248.2</course>
<desc>Speed 4.8 km/h Distance 1.20 km</desc>
<time>2010-03-03T16:06:06.77</time>
<name>552</name>
</trkpt>
<trkpt lat="48.936027" lon="8.672390">
<ele>327.5</ele>
<speed>5.4</speed>
<course>243.1</course>
<desc>Speed 5.4 km/h Distance 1.20 km</desc>
<time>2010-03-03T16:06:07.77</time>
<name>553</name>
</trkpt>
<trkpt lat="48.936018" lon="8.672365">
<ele>327.5</ele>
<speed>5.1</speed>
<course>234.7</course>
<desc>Speed 5.1 km/h Distance 1.20 km</desc>
<time>2010-03-03T16:06:08.77</time>
<name>554</name>
</trkpt>
<trkpt lat="48.936007" lon="8.672340">
<ele>327.5</ele>
<speed>5.4</speed>
<course>235.0</course>
<desc>Speed 5.4 km/h Distance 1.20 km</desc>
<time>2010-03-03T16:06:09.77</time>
<name>555</name>
</trkpt>
<trkpt lat="48.935997" lon="8.672318">
<ele>327.5</ele>
<speed>5.8</speed>
<course>228.4</course>
<desc>Speed 5.8 km/h Distance 1.20 km</desc>
<time>2010-03-03T16:06:10.77</time>
<name>556</name>
</trkpt>
<trkpt lat="48.935985" lon="8.672298">
<ele>327.5</ele>
<speed>5.5</speed>
<course>234.9</course>
<desc>Speed 5.5 km/h Distance 1.21 km</desc>
<time>2010-03-03T16:06:11.77</time>
<name>557</name>
</trkpt>
<trkpt lat="48.935975" lon="8.672277">
<ele>327.5</ele>
<speed>5.2</speed>
<course>254.9</course>
<desc>Speed 5.2 km/h Distance 1.21 km</desc>
<time>2010-03-03T16:06:12.77</time>
<name>558</name>
</trkpt>
<trkpt lat="48.935970" lon="8.672248">
<ele>328.0</ele>
<speed>5.5</speed>
<course>249.2</course>
<desc>Speed 5.5 km/h Distance 1.21 km</desc>
<time>2010-03-03T16:06:13.77</time>
<name>559</name>
</trkpt>
<trkpt lat="48.935963" lon="8.672222">
<ele>328.0</ele>
<speed>5.4</speed>
<course>243.1</course>
<desc>Speed 5.4 km/h Distance 1.21 km</desc>
<time>2010-03-03T16:06:14.77</time>
<name>560</name>
</trkpt>
<trkpt lat="48.935955" lon="8.672197">
<ele>328.0</ele>
<speed>4.9</speed>
<course>235.4</course>
<desc>Speed 4.9 km/h Distance 1.21 km</desc>
<time>2010-03-03T16:06:15.77</time>
<name>561</name>
</trkpt>
<trkpt lat="48.935947" lon="8.672178">
<ele>328.0</ele>
<speed>5.4</speed>
<course>235.4</course>
<desc>Speed 5.4 km/h Distance 1.22 km</desc>
<time>2010-03-03T16:06:16.77</time>
<name>562</name>
</trkpt>
<trkpt lat="48.935938" lon="8.672160">
<ele>328.0</ele>
<speed>5.2</speed>
<course>241.5</course>
<desc>Speed 5.2 km/h Distance 1.22 km</desc>
<time>2010-03-03T16:06:17.77</time>
<name>563</name>
</trkpt>
<trkpt lat="48.935930" lon="8.672137">
<ele>328.0</ele>
<speed>5.2</speed>
<course>235.0</course>
<desc>Speed 5.2 km/h Distance 1.22 km</desc>
<time>2010-03-03T16:06:18.77</time>
<name>564</name>
</trkpt>
<trkpt lat="48.935920" lon="8.672115">
<ele>328.0</ele>
<speed>5.4</speed>
<course>236.1</course>
<desc>Speed 5.4 km/h Distance 1.22 km</desc>
<time>2010-03-03T16:06:19.77</time>
<name>565</name>
</trkpt>
<trkpt lat="48.935913" lon="8.672100">
<ele>328.0</ele>
<speed>4.8</speed>
<course>216.9</course>
<desc>Speed 4.8 km/h Distance 1.22 km</desc>
<time>2010-03-03T16:06:20.77</time>
<name>566</name>
</trkpt>
<trkpt lat="48.935902" lon="8.672087">
<ele>328.0</ele>
<speed>4.9</speed>
<course>252.0</course>
<desc>Speed 4.9 km/h Distance 1.22 km</desc>
<time>2010-03-03T16:06:21.77</time>
<name>567</name>
</trkpt>
<trkpt lat="48.935897" lon="8.672063">
<ele>328.0</ele>
<speed>5.5</speed>
<course>213.4</course>
<desc>Speed 5.5 km/h Distance 1.23 km</desc>
<time>2010-03-03T16:06:22.77</time>
<name>568</name>
</trkpt>
<trkpt lat="48.935885" lon="8.672052">
<ele>328.0</ele>
<speed>5.4</speed>
<course>209.4</course>
<desc>Speed 5.4 km/h Distance 1.23 km</desc>
<time>2010-03-03T16:06:23.77</time>
<name>569</name>
</trkpt>
<trkpt lat="48.935873" lon="8.672042">
<ele>328.0</ele>
<speed>5.1</speed>
<course>213.2</course>
<desc>Speed 5.1 km/h Distance 1.23 km</desc>
<time>2010-03-03T16:06:24.77</time>
<name>570</name>
</trkpt>
<trkpt lat="48.935865" lon="8.672033">
<ele>328.5</ele>
<speed>3.6</speed>
<course>235.9</course>
<desc>Speed 3.6 km/h Distance 1.23 km</desc>
<time>2010-03-03T16:06:25.77</time>
<name>571</name>
</trkpt>
<trkpt lat="48.935858" lon="8.672018">
<ele>328.5</ele>
<speed>4.1</speed>
<course>200.1</course>
<desc>Speed 4.1 km/h Distance 1.23 km</desc>
<time>2010-03-03T16:06:26.77</time>
<name>572</name>
</trkpt>
<trkpt lat="48.935843" lon="8.672010">
<ele>328.5</ele>
<speed>4.1</speed>
<course>193.6</course>
<desc>Speed 4.1 km/h Distance 1.23 km</desc>
<time>2010-03-03T16:06:27.77</time>
<name>573</name>
</trkpt>
<trkpt lat="48.935825" lon="8.672003">
<ele>328.5</ele>
<speed>4.6</speed>
<course>194.0</course>
<desc>Speed 4.6 km/h Distance 1.24 km</desc>
<time>2010-03-03T16:06:28.77</time>
<name>574</name>
</trkpt>
<trkpt lat="48.935812" lon="8.671998">
<ele>328.5</ele>
<speed>4.8</speed>
<course>175.3</course>
<desc>Speed 4.8 km/h Distance 1.24 km</desc>
<time>2010-03-03T16:06:29.77</time>
<name>575</name>
</trkpt>
<trkpt lat="48.935800" lon="8.672000">
<ele>328.5</ele>
<speed>4.5</speed>
<course>187.7</course>
<desc>Speed 4.5 km/h Distance 1.24 km</desc>
<time>2010-03-03T16:06:30.77</time>
<name>576</name>
</trkpt>
<trkpt lat="48.935792" lon="8.671998">
<ele>329.0</ele>
<speed>4.5</speed>
<course>194.9</course>
<desc>Speed 4.5 km/h Distance 1.24 km</desc>
<time>2010-03-03T16:06:31.77</time>
<name>577</name>
</trkpt>
<trkpt lat="48.935783" lon="8.671995">
<ele>329.0</ele>
<speed>3.3</speed>
<course>191.2</course>
<desc>Speed 3.3 km/h Distance 1.24 km</desc>
<time>2010-03-03T16:06:32.79</time>
<name>578</name>
</trkpt>
<trkpt lat="48.935772" lon="8.671992">
<ele>329.0</ele>
<speed>3.5</speed>
<course>165.1</course>
<desc>Speed 3.5 km/h Distance 1.24 km</desc>
<time>2010-03-03T16:06:33.79</time>
<name>579</name>
</trkpt>
<trkpt lat="48.935763" lon="8.671995">
<ele>329.0</ele>
<speed>3.2</speed>
<course>157.0</course>
<desc>Speed 3.2 km/h Distance 1.24 km</desc>
<time>2010-03-03T16:06:34.79</time>
<name>580</name>
</trkpt>
<trkpt lat="48.935760" lon="8.671997">
<ele>329.0</ele>
<speed>2.3</speed>
<course>198.8</course>
<desc>Speed 2.3 km/h Distance 1.24 km</desc>
<time>2010-03-03T16:06:35.79</time>
<name>581</name>
</trkpt>
<trkpt lat="48.935753" lon="8.671993">
<ele>329.0</ele>
<speed>2.2</speed>
<course>172.6</course>
<desc>Speed 2.2 km/h Distance 1.24 km</desc>
<time>2010-03-03T16:06:36.79</time>
<name>582</name>
</trkpt>
<trkpt lat="48.935747" lon="8.671995">
<ele>329.0</ele>
<speed>2.7</speed>
<course>146.8</course>
<desc>Speed 2.7 km/h Distance 1.25 km</desc>
<time>2010-03-03T16:06:37.79</time>
<name>583</name>
</trkpt>
<trkpt lat="48.935737" lon="8.672005">
<ele>329.5</ele>
<speed>1.4</speed>
<course>158.5</course>
<desc>Speed 1.4 km/h Distance 1.25 km</desc>
<time>2010-03-03T16:06:38.79</time>
<name>584</name>
</trkpt>
<trkpt lat="48.935728" lon="8.672010">
<ele>329.5</ele>
<speed>3.0</speed>
<course>172.6</course>
<desc>Speed 3.0 km/h Distance 1.25 km</desc>
<time>2010-03-03T16:06:39.79</time>
<name>585</name>
</trkpt>
<trkpt lat="48.935722" lon="8.672012">
<ele>329.5</ele>
<speed>3.1</speed>
<course>157.7</course>
<desc>Speed 3.1 km/h Distance 1.25 km</desc>
<time>2010-03-03T16:06:40.79</time>
<name>586</name>
</trkpt>
<trkpt lat="48.935708" lon="8.672020">
<ele>329.5</ele>
<speed>4.2</speed>
<course>150.2</course>
<desc>Speed 4.2 km/h Distance 1.25 km</desc>
<time>2010-03-03T16:06:41.79</time>
<name>587</name>
</trkpt>
<trkpt lat="48.935695" lon="8.672032">
<ele>329.5</ele>
<speed>4.1</speed>
<course>149.3</course>
<desc>Speed 4.1 km/h Distance 1.25 km</desc>
<time>2010-03-03T16:06:42.79</time>
<name>588</name>
</trkpt>
<trkpt lat="48.935678" lon="8.672047">
<ele>329.0</ele>
<speed>4.2</speed>
<course>144.4</course>
<desc>Speed 4.2 km/h Distance 1.25 km</desc>
<time>2010-03-03T16:06:43.79</time>
<name>589</name>
</trkpt>
<trkpt lat="48.935660" lon="8.672067">
<ele>329.5</ele>
<speed>3.9</speed>
<course>139.8</course>
<desc>Speed 3.9 km/h Distance 1.26 km</desc>
<time>2010-03-03T16:06:44.79</time>
<name>590</name>
</trkpt>
<trkpt lat="48.935648" lon="8.672082">
<ele>329.5</ele>
<speed>2.4</speed>
<course>143.8</course>
<desc>Speed 2.4 km/h Distance 1.26 km</desc>
<time>2010-03-03T16:06:45.79</time>
<name>591</name>
</trkpt>
<trkpt lat="48.935633" lon="8.672098">
<ele>329.5</ele>
<speed>2.1</speed>
<course>175.0</course>
<desc>Speed 2.1 km/h Distance 1.26 km</desc>
<time>2010-03-03T16:06:46.79</time>
<name>592</name>
</trkpt>
<trkpt lat="48.935625" lon="8.672098">
<ele>330.0</ele>
<speed>3.2</speed>
<course>213.2</course>
<desc>Speed 3.2 km/h Distance 1.26 km</desc>
<time>2010-03-03T16:06:47.79</time>
<name>593</name>
</trkpt>
<trkpt lat="48.935617" lon="8.672090">
<ele>330.0</ele>
<speed>2.5</speed>
<course>192.6</course>
<desc>Speed 2.5 km/h Distance 1.26 km</desc>
<time>2010-03-03T16:06:48.79</time>
<name>594</name>
</trkpt>
<trkpt lat="48.935612" lon="8.672088">
<ele>330.0</ele>
<speed>1.9</speed>
<course>146.6</course>
<desc>Speed 1.9 km/h Distance 1.26 km</desc>
<time>2010-03-03T16:06:49.79</time>
<name>595</name>
</trkpt>
<trkpt lat="48.935600" lon="8.672100">
<ele>330.0</ele>
<speed>5.3</speed>
<course>152.1</course>
<desc>Speed 5.3 km/h Distance 1.26 km</desc>
<time>2010-03-03T16:06:50.79</time>
<name>596</name>
</trkpt>
<trkpt lat="48.935592" lon="8.672107">
<ele>330.5</ele>
<speed>3.1</speed>
<course>166.2</course>
<desc>Speed 3.1 km/h Distance 1.27 km</desc>
<time>2010-03-03T16:06:51.79</time>
<name>597</name>
</trkpt>
<trkpt lat="48.935583" lon="8.672110">
<ele>330.5</ele>
<speed>2.8</speed>
<course>173.4</course>
<desc>Speed 2.8 km/h Distance 1.27 km</desc>
<time>2010-03-03T16:06:52.79</time>
<name>598</name>
</trkpt>
<trkpt lat="48.935573" lon="8.672112">
<ele>330.5</ele>
<speed>2.8</speed>
<course>161.2</course>
<desc>Speed 2.8 km/h Distance 1.27 km</desc>
<time>2010-03-03T16:06:53.79</time>
<name>599</name>
</trkpt>
<trkpt lat="48.935567" lon="8.672115">
<ele>331.0</ele>
<speed>2.8</speed>
<course>164.0</course>
<desc>Speed 2.8 km/h Distance 1.27 km</desc>
<time>2010-03-03T16:06:54.79</time>
<name>600</name>
</trkpt>
<trkpt lat="48.935555" lon="8.672120">
<ele>331.0</ele>
<speed>4.0</speed>
<course>155.1</course>
<desc>Speed 4.0 km/h Distance 1.27 km</desc>
<time>2010-03-03T16:06:55.79</time>
<name>601</name>
</trkpt>
<trkpt lat="48.935543" lon="8.672128">
<ele>331.0</ele>
<speed>3.7</speed>
<course>142.5</course>
<desc>Speed 3.7 km/h Distance 1.27 km</desc>
<time>2010-03-03T16:06:56.79</time>
<name>602</name>
</trkpt>
<trkpt lat="48.935533" lon="8.672140">
<ele>331.0</ele>
<speed>3.3</speed>
<course>133.4</course>
<desc>Speed 3.3 km/h Distance 1.27 km</desc>
<time>2010-03-03T16:06:57.79</time>
<name>603</name>
</trkpt>
<trkpt lat="48.935525" lon="8.672153">
<ele>331.5</ele>
<speed>3.3</speed>
<course>127.3</course>
<desc>Speed 3.3 km/h Distance 1.27 km</desc>
<time>2010-03-03T16:06:58.79</time>
<name>604</name>
</trkpt>
<trkpt lat="48.935515" lon="8.672173">
<ele>331.0</ele>
<speed>2.2</speed>
<course>172.3</course>
<desc>Speed 2.2 km/h Distance 1.28 km</desc>
<time>2010-03-03T16:06:59.79</time>
<name>605</name>
</trkpt>
<trkpt lat="48.935507" lon="8.672175">
<ele>331.0</ele>
<speed>2.9</speed>
<course>154.8</course>
<desc>Speed 2.9 km/h Distance 1.28 km</desc>
<time>2010-03-03T16:07:00.79</time>
<name>606</name>
</trkpt>
<trkpt lat="48.935495" lon="8.672183">
<ele>331.0</ele>
<speed>3.3</speed>
<course>164.5</course>
<desc>Speed 3.3 km/h Distance 1.28 km</desc>
<time>2010-03-03T16:07:01.79</time>
<name>607</name>
</trkpt>
<trkpt lat="48.935483" lon="8.672188">
<ele>331.5</ele>
<speed>4.0</speed>
<course>175.6</course>
<desc>Speed 4.0 km/h Distance 1.28 km</desc>
<time>2010-03-03T16:07:02.79</time>
<name>608</name>
</trkpt>
<trkpt lat="48.935473" lon="8.672190">
<ele>331.5</ele>
<speed>2.6</speed>
<course>132.4</course>
<desc>Speed 2.6 km/h Distance 1.28 km</desc>
<time>2010-03-03T16:07:03.79</time>
<name>609</name>
</trkpt>
<trkpt lat="48.935463" lon="8.672207">
<ele>331.5</ele>
<speed>4.2</speed>
<course>150.6</course>
<desc>Speed 4.2 km/h Distance 1.28 km</desc>
<time>2010-03-03T16:07:04.79</time>
<name>610</name>
</trkpt>
<trkpt lat="48.935452" lon="8.672217">
<ele>332.0</ele>
<speed>3.2</speed>
<course>142.7</course>
<desc>Speed 3.2 km/h Distance 1.28 km</desc>
<time>2010-03-03T16:07:05.79</time>
<name>611</name>
</trkpt>
<trkpt lat="48.935442" lon="8.672228">
<ele>332.5</ele>
<speed>2.1</speed>
<course>180.0</course>
<desc>Speed 2.1 km/h Distance 1.28 km</desc>
<time>2010-03-03T16:07:06.79</time>
<name>612</name>
</trkpt>
<trkpt lat="48.935437" lon="8.672228">
<ele>332.0</ele>
<speed>2.6</speed>
<course>182.2</course>
<desc>Speed 2.6 km/h Distance 1.29 km</desc>
<time>2010-03-03T16:07:07.79</time>
<name>613</name>
</trkpt>
<trkpt lat="48.935425" lon="8.672227">
<ele>332.5</ele>
<speed>2.7</speed>
<course>138.8</course>
<desc>Speed 2.7 km/h Distance 1.29 km</desc>
<time>2010-03-03T16:07:08.79</time>
<name>614</name>
</trkpt>
<trkpt lat="48.935415" lon="8.672240">
<ele>333.0</ele>
<speed>4.0</speed>
<course>150.6</course>
<desc>Speed 4.0 km/h Distance 1.29 km</desc>
<time>2010-03-03T16:07:09.79</time>
<name>615</name>
</trkpt>
<trkpt lat="48.935403" lon="8.672250">
<ele>333.0</ele>
<speed>3.9</speed>
<course>141.6</course>
<desc>Speed 3.9 km/h Distance 1.29 km</desc>
<time>2010-03-03T16:07:10.79</time>
<name>616</name>
</trkpt>
<trkpt lat="48.935395" lon="8.672260">
<ele>333.5</ele>
<speed>3.9</speed>
<course>146.6</course>
<desc>Speed 3.9 km/h Distance 1.29 km</desc>
<time>2010-03-03T16:07:11.79</time>
<name>617</name>
</trkpt>
<trkpt lat="48.935382" lon="8.672273">
<ele>334.0</ele>
<speed>3.9</speed>
<course>180.0</course>
<desc>Speed 3.9 km/h Distance 1.29 km</desc>
<time>2010-03-03T16:07:12.79</time>
<name>618</name>
</trkpt>
<trkpt lat="48.935375" lon="8.672273">
<ele>334.5</ele>
<speed>2.6</speed>
<course>172.6</course>
<desc>Speed 2.6 km/h Distance 1.29 km</desc>
<time>2010-03-03T16:07:13.79</time>
<name>619</name>
</trkpt>
<trkpt lat="48.935368" lon="8.672275">
<ele>335.0</ele>
<speed>2.7</speed>
<course>167.4</course>
<desc>Speed 2.7 km/h Distance 1.29 km</desc>
<time>2010-03-03T16:07:14.79</time>
<name>620</name>
</trkpt>
<trkpt lat="48.935363" lon="8.672277">
<ele>335.0</ele>
<speed>2.3</speed>
<course>138.8</course>
<desc>Speed 2.3 km/h Distance 1.29 km</desc>
<time>2010-03-03T16:07:15.79</time>
<name>621</name>
</trkpt>
<trkpt lat="48.935353" lon="8.672290">
<ele>335.5</ele>
<speed>5.3</speed>
<course>142.5</course>
<desc>Speed 5.3 km/h Distance 1.30 km</desc>
<time>2010-03-03T16:07:16.79</time>
<name>622</name>
</trkpt>
<trkpt lat="48.935343" lon="8.672302">
<ele>335.5</ele>
<speed>3.8</speed>
<course>161.2</course>
<desc>Speed 3.8 km/h Distance 1.30 km</desc>
<time>2010-03-03T16:07:17.79</time>
<name>623</name>
</trkpt>
<trkpt lat="48.935337" lon="8.672305">
<ele>336.0</ele>
<speed>2.8</speed>
<course>153.6</course>
<desc>Speed 2.8 km/h Distance 1.30 km</desc>
<time>2010-03-03T16:07:18.79</time>
<name>624</name>
</trkpt>
<trkpt lat="48.935330" lon="8.672310">
<ele>335.5</ele>
<speed>3.4</speed>
<course>137.4</course>
<desc>Speed 3.4 km/h Distance 1.30 km</desc>
<time>2010-03-03T16:07:19.79</time>
<name>625</name>
</trkpt>
<trkpt lat="48.935322" lon="8.672322">
<ele>336.0</ele>
<speed>5.1</speed>
<course>167.4</course>
<desc>Speed 5.1 km/h Distance 1.30 km</desc>
<time>2010-03-03T16:07:20.79</time>
<name>626</name>
</trkpt>
<trkpt lat="48.935317" lon="8.672323">
<ele>336.5</ele>
<speed>2.2</speed>
<course>37.2</course>
<desc>Speed 2.2 km/h Distance 1.30 km</desc>
<time>2010-03-03T16:07:21.79</time>
<name>627</name>
</trkpt>
<trkpt lat="48.935318" lon="8.672325">
<ele>336.5</ele>
<speed>0.4</speed>
<course>129.6</course>
<desc>Speed 0.4 km/h Distance 1.30 km</desc>
<time>2010-03-03T16:07:22.79</time>
<name>628</name>
</trkpt>
<trkpt lat="48.935308" lon="8.672343">
<ele>337.0</ele>
<speed>3.7</speed>
<course>12.6</course>
<desc>Speed 3.7 km/h Distance 1.30 km</desc>
<time>2010-03-03T16:07:23.79</time>
<name>629</name>
</trkpt>
<trkpt lat="48.935310" lon="8.672343">
<ele>337.5</ele>
<speed>1.0</speed>
<course>134.1</course>
<desc>Speed 1.0 km/h Distance 1.30 km</desc>
<time>2010-03-03T16:07:24.79</time>
<name>630</name>
</trkpt>
<trkpt lat="48.935287" lon="8.672380">
<ele>337.5</ele>
<speed>3.5</speed>
<course>132.4</course>
<desc>Speed 3.5 km/h Distance 1.31 km</desc>
<time>2010-03-03T16:07:26.79</time>
<name>631</name>
</trkpt>
<trkpt lat="48.935272" lon="8.672405">
<ele>338.5</ele>
<speed>8.6</speed>
<course>146.6</course>
<desc>Speed 8.6 km/h Distance 1.31 km</desc>
<time>2010-03-03T16:07:27.79</time>
<name>632</name>
</trkpt>
<trkpt lat="48.935258" lon="8.672418">
<ele>338.5</ele>
<speed>6.1</speed>
<course>187.7</course>
<desc>Speed 6.1 km/h Distance 1.31 km</desc>
<time>2010-03-03T16:07:28.79</time>
<name>633</name>
</trkpt>
<trkpt lat="48.935250" lon="8.672417">
<ele>339.0</ele>
<speed>2.3</speed>
<course>172.6</course>
<desc>Speed 2.3 km/h Distance 1.31 km</desc>
<time>2010-03-03T16:07:29.79</time>
<name>634</name>
</trkpt>
<trkpt lat="48.935243" lon="8.672418">
<ele>339.5</ele>
<speed>2.4</speed>
<course>245.5</course>
<desc>Speed 2.4 km/h Distance 1.31 km</desc>
<time>2010-03-03T16:07:30.79</time>
<name>635</name>
</trkpt>
<trkpt lat="48.935238" lon="8.672402">
<ele>340.0</ele>
<speed>4.7</speed>
<course>141.2</course>
<desc>Speed 4.7 km/h Distance 1.31 km</desc>
<time>2010-03-03T16:07:31.79</time>
<name>636</name>
</trkpt>
<trkpt lat="48.935223" lon="8.672420">
<ele>341.0</ele>
<speed>5.5</speed>
<course>127.3</course>
<desc>Speed 5.5 km/h Distance 1.32 km</desc>
<time>2010-03-03T16:07:32.79</time>
<name>637</name>
</trkpt>
<trkpt lat="48.935217" lon="8.672433">
<ele>341.5</ele>
<speed>4.3</speed>
<course>127.3</course>
<desc>Speed 4.3 km/h Distance 1.32 km</desc>
<time>2010-03-03T16:07:33.79</time>
<name>638</name>
</trkpt>
<trkpt lat="48.935207" lon="8.672453">
<ele>342.0</ele>
<speed>5.5</speed>
<course>140.6</course>
<desc>Speed 5.5 km/h Distance 1.32 km</desc>
<time>2010-03-03T16:07:34.79</time>
<name>639</name>
</trkpt>
<trkpt lat="48.935193" lon="8.672470">
<ele>342.0</ele>
<speed>5.5</speed>
<course>130.3</course>
<desc>Speed 5.5 km/h Distance 1.32 km</desc>
<time>2010-03-03T16:07:35.79</time>
<name>640</name>
</trkpt>
<trkpt lat="48.935185" lon="8.672485">
<ele>342.0</ele>
<speed>3.6</speed>
<course>146.9</course>
<desc>Speed 3.6 km/h Distance 1.32 km</desc>
<time>2010-03-03T16:07:36.79</time>
<name>641</name>
</trkpt>
<trkpt lat="48.935173" lon="8.672497">
<ele>342.5</ele>
<speed>3.5</speed>
<course>146.8</course>
<desc>Speed 3.5 km/h Distance 1.32 km</desc>
<time>2010-03-03T16:07:37.79</time>
<name>642</name>
</trkpt>
<trkpt lat="48.935167" lon="8.672503">
<ele>342.5</ele>
<speed>1.7</speed>
<course>127.6</course>
<desc>Speed 1.7 km/h Distance 1.33 km</desc>
<time>2010-03-03T16:07:38.79</time>
<name>643</name>
</trkpt>
<trkpt lat="48.935163" lon="8.672510">
<ele>342.0</ele>
<speed>1.3</speed>
<course>142.5</course>
<desc>Speed 1.3 km/h Distance 1.33 km</desc>
<time>2010-03-03T16:07:39.79</time>
<name>644</name>
</trkpt>
<trkpt lat="48.935153" lon="8.672522">
<ele>342.5</ele>
<speed>4.0</speed>
<course>132.4</course>
<desc>Speed 4.0 km/h Distance 1.33 km</desc>
<time>2010-03-03T16:07:40.79</time>
<name>645</name>
</trkpt>
<trkpt lat="48.935143" lon="8.672538">
<ele>342.5</ele>
<speed>5.4</speed>
<course>127.4</course>
<desc>Speed 5.4 km/h Distance 1.33 km</desc>
<time>2010-03-03T16:07:41.79</time>
<name>646</name>
</trkpt>
<trkpt lat="48.935138" lon="8.672548">
<ele>343.0</ele>
<speed>2.4</speed>
<course>124.7</course>
<desc>Speed 2.4 km/h Distance 1.33 km</desc>
<time>2010-03-03T16:07:42.79</time>
<name>647</name>
</trkpt>
<trkpt lat="48.935130" lon="8.672567">
<ele>343.0</ele>
<speed>4.0</speed>
<course>122.4</course>
<desc>Speed 4.0 km/h Distance 1.33 km</desc>
<time>2010-03-03T16:07:43.79</time>
<name>648</name>
</trkpt>
<trkpt lat="48.935122" lon="8.672587">
<ele>343.5</ele>
<speed>2.6</speed>
<course>118.3</course>
<desc>Speed 2.6 km/h Distance 1.33 km</desc>
<time>2010-03-03T16:07:44.79</time>
<name>649</name>
</trkpt>
<trkpt lat="48.935112" lon="8.672615">
<ele>344.0</ele>
<speed>2.9</speed>
<course>122.7</course>
<desc>Speed 2.9 km/h Distance 1.34 km</desc>
<time>2010-03-03T16:07:45.79</time>
<name>650</name>
</trkpt>
<trkpt lat="48.935080" lon="8.672690">
<ele>345.5</ele>
<speed>3.9</speed>
<course>114.9</course>
<desc>Speed 3.9 km/h Distance 1.34 km</desc>
<time>2010-03-03T16:07:47.79</time>
<name>651</name>
</trkpt>
<trkpt lat="48.935050" lon="8.672788">
<ele>347.5</ele>
<speed>4.4</speed>
<course>123.9</course>
<desc>Speed 4.4 km/h Distance 1.35 km</desc>
<time>2010-03-03T16:07:49.79</time>
<name>652</name>
</trkpt>
<trkpt lat="48.935018" lon="8.672860">
<ele>350.0</ele>
<speed>4.2</speed>
<course>116.9</course>
<desc>Speed 4.2 km/h Distance 1.36 km</desc>
<time>2010-03-03T16:07:51.79</time>
<name>653</name>
</trkpt>
<trkpt lat="48.935010" lon="8.672885">
<ele>351.5</ele>
<speed>3.9</speed>
<course>125.4</course>
<desc>Speed 3.9 km/h Distance 1.36 km</desc>
<time>2010-03-03T16:07:52.79</time>
<name>654</name>
</trkpt>
<trkpt lat="48.934998" lon="8.672910">
<ele>352.0</ele>
<speed>2.8</speed>
<course>130.1</course>
<desc>Speed 2.8 km/h Distance 1.36 km</desc>
<time>2010-03-03T16:07:53.79</time>
<name>655</name>
</trkpt>
<trkpt lat="48.934963" lon="8.672973">
<ele>353.0</ele>
<speed>4.7</speed>
<course>129.7</course>
<desc>Speed 4.7 km/h Distance 1.37 km</desc>
<time>2010-03-03T16:07:55.79</time>
<name>656</name>
</trkpt>
<trkpt lat="48.934933" lon="8.673028">
<ele>354.5</ele>
<speed>4.6</speed>
<course>121.3</course>
<desc>Speed 4.6 km/h Distance 1.37 km</desc>
<time>2010-03-03T16:07:57.79</time>
<name>657</name>
</trkpt>
<trkpt lat="48.934927" lon="8.673045">
<ele>354.5</ele>
<speed>3.7</speed>
<course>113.5</course>
<desc>Speed 3.7 km/h Distance 1.37 km</desc>
<time>2010-03-03T16:07:58.79</time>
<name>658</name>
</trkpt>
<trkpt lat="48.934923" lon="8.673057">
<ele>355.0</ele>
<speed>3.6</speed>
<course>114.6</course>
<desc>Speed 3.6 km/h Distance 1.37 km</desc>
<time>2010-03-03T16:07:59.79</time>
<name>659</name>
</trkpt>
<trkpt lat="48.934918" lon="8.673073">
<ele>355.0</ele>
<speed>4.2</speed>
<course>114.6</course>
<desc>Speed 4.2 km/h Distance 1.38 km</desc>
<time>2010-03-03T16:08:00.79</time>
<name>660</name>
</trkpt>
<trkpt lat="48.934913" lon="8.673090">
<ele>355.5</ele>
<speed>4.4</speed>
<course>110.9</course>
<desc>Speed 4.4 km/h Distance 1.38 km</desc>
<time>2010-03-03T16:08:01.79</time>
<name>661</name>
</trkpt>
<trkpt lat="48.934908" lon="8.673110">
<ele>355.5</ele>
<speed>4.4</speed>
<course>122.4</course>
<desc>Speed 4.4 km/h Distance 1.38 km</desc>
<time>2010-03-03T16:08:02.79</time>
<name>662</name>
</trkpt>
<trkpt lat="48.934900" lon="8.673130">
<ele>356.0</ele>
<speed>5.3</speed>
<course>113.5</course>
<desc>Speed 5.3 km/h Distance 1.38 km</desc>
<time>2010-03-03T16:08:03.79</time>
<name>663</name>
</trkpt>
<trkpt lat="48.934893" lon="8.673153">
<ele>356.5</ele>
<speed>4.8</speed>
<course>116.9</course>
<desc>Speed 4.8 km/h Distance 1.38 km</desc>
<time>2010-03-03T16:08:04.79</time>
<name>664</name>
</trkpt>
<trkpt lat="48.934888" lon="8.673168">
<ele>357.0</ele>
<speed>4.3</speed>
<course>127.3</course>
<desc>Speed 4.3 km/h Distance 1.38 km</desc>
<time>2010-03-03T16:08:05.79</time>
<name>665</name>
</trkpt>
<trkpt lat="48.934882" lon="8.673182">
<ele>357.5</ele>
<speed>4.2</speed>
<course>121.3</course>
<desc>Speed 4.2 km/h Distance 1.38 km</desc>
<time>2010-03-03T16:08:06.79</time>
<name>666</name>
</trkpt>
<trkpt lat="48.934875" lon="8.673198">
<ele>358.0</ele>
<speed>3.6</speed>
<course>116.9</course>
<desc>Speed 3.6 km/h Distance 1.39 km</desc>
<time>2010-03-03T16:08:07.79</time>
<name>667</name>
</trkpt>
<trkpt lat="48.934868" lon="8.673218">
<ele>358.0</ele>
<speed>4.1</speed>
<course>116.9</course>
<desc>Speed 4.1 km/h Distance 1.39 km</desc>
<time>2010-03-03T16:08:08.79</time>
<name>668</name>
</trkpt>
<trkpt lat="48.934860" lon="8.673243">
<ele>359.0</ele>
<speed>4.2</speed>
<course>102.3</course>
<desc>Speed 4.2 km/h Distance 1.39 km</desc>
<time>2010-03-03T16:08:09.79</time>
<name>669</name>
</trkpt>
<trkpt lat="48.934857" lon="8.673267">
<ele>359.5</ele>
<speed>3.7</speed>
<course>90.0</course>
<desc>Speed 3.7 km/h Distance 1.39 km</desc>
<time>2010-03-03T16:08:10.79</time>
<name>670</name>
</trkpt>
<trkpt lat="48.934857" lon="8.673280">
<ele>360.0</ele>
<speed>3.7</speed>
<course>103.2</course>
<desc>Speed 3.7 km/h Distance 1.39 km</desc>
<time>2010-03-03T16:08:11.79</time>
<name>671</name>
</trkpt>
<trkpt lat="48.934853" lon="8.673302">
<ele>360.0</ele>
<speed>4.6</speed>
<course>116.9</course>
<desc>Speed 4.6 km/h Distance 1.39 km</desc>
<time>2010-03-03T16:08:12.79</time>
<name>672</name>
</trkpt>
<trkpt lat="48.934848" lon="8.673317">
<ele>360.5</ele>
<speed>2.8</speed>
<course>96.7</course>
<desc>Speed 2.8 km/h Distance 1.40 km</desc>
<time>2010-03-03T16:08:13.79</time>
<name>673</name>
</trkpt>
<trkpt lat="48.934847" lon="8.673338">
<ele>361.0</ele>
<speed>3.2</speed>
<course>90.0</course>
<desc>Speed 3.2 km/h Distance 1.40 km</desc>
<time>2010-03-03T16:08:14.79</time>
<name>674</name>
</trkpt>
<trkpt lat="48.934847" lon="8.673353">
<ele>361.0</ele>
<speed>3.4</speed>
<course>105.5</course>
<desc>Speed 3.4 km/h Distance 1.40 km</desc>
<time>2010-03-03T16:08:15.80</time>
<name>675</name>
</trkpt>
<trkpt lat="48.934843" lon="8.673372">
<ele>361.5</ele>
<speed>4.3</speed>
<course>129.7</course>
<desc>Speed 4.3 km/h Distance 1.40 km</desc>
<time>2010-03-03T16:08:16.80</time>
<name>676</name>
</trkpt>
<trkpt lat="48.934833" lon="8.673390">
<ele>361.5</ele>
<speed>3.9</speed>
<course>104.2</course>
<desc>Speed 3.9 km/h Distance 1.40 km</desc>
<time>2010-03-03T16:08:17.80</time>
<name>677</name>
</trkpt>
<trkpt lat="48.934832" lon="8.673400">
<ele>361.5</ele>
<speed>2.4</speed>
<course>119.7</course>
<desc>Speed 2.4 km/h Distance 1.40 km</desc>
<time>2010-03-03T16:08:18.80</time>
<name>678</name>
</trkpt>
<trkpt lat="48.934827" lon="8.673413">
<ele>362.0</ele>
<speed>3.7</speed>
<course>121.4</course>
<desc>Speed 3.7 km/h Distance 1.40 km</desc>
<time>2010-03-03T16:08:19.80</time>
<name>679</name>
</trkpt>
<trkpt lat="48.934820" lon="8.673430">
<ele>362.0</ele>
<speed>3.9</speed>
<course>120.3</course>
<desc>Speed 3.9 km/h Distance 1.40 km</desc>
<time>2010-03-03T16:08:20.80</time>
<name>680</name>
</trkpt>
<trkpt lat="48.934812" lon="8.673452">
<ele>362.5</ele>
<speed>4.0</speed>
<course>108.6</course>
<desc>Speed 4.0 km/h Distance 1.41 km</desc>
<time>2010-03-03T16:08:21.80</time>
<name>681</name>
</trkpt>
<trkpt lat="48.934808" lon="8.673467">
<ele>362.5</ele>
<speed>3.9</speed>
<course>110.8</course>
<desc>Speed 3.9 km/h Distance 1.41 km</desc>
<time>2010-03-03T16:08:22.80</time>
<name>682</name>
</trkpt>
<trkpt lat="48.934805" lon="8.673480">
<ele>362.5</ele>
<speed>3.2</speed>
<course>127.2</course>
<desc>Speed 3.2 km/h Distance 1.41 km</desc>
<time>2010-03-03T16:08:23.80</time>
<name>683</name>
</trkpt>
<trkpt lat="48.934798" lon="8.673493">
<ele>363.0</ele>
<speed>3.0</speed>
<course>132.6</course>
<desc>Speed 3.0 km/h Distance 1.41 km</desc>
<time>2010-03-03T16:08:24.80</time>
<name>684</name>
</trkpt>
<trkpt lat="48.934793" lon="8.673502">
<ele>363.0</ele>
<speed>2.9</speed>
<course>132.6</course>
<desc>Speed 2.9 km/h Distance 1.41 km</desc>
<time>2010-03-03T16:08:25.80</time>
<name>685</name>
</trkpt>
<trkpt lat="48.934788" lon="8.673510">
<ele>363.5</ele>
<speed>2.1</speed>
<course>139.1</course>
<desc>Speed 2.1 km/h Distance 1.41 km</desc>
<time>2010-03-03T16:08:26.80</time>
<name>686</name>
</trkpt>
<trkpt lat="48.934783" lon="8.673517">
<ele>363.5</ele>
<speed>2.7</speed>
<course>127.3</course>
<desc>Speed 2.7 km/h Distance 1.41 km</desc>
<time>2010-03-03T16:08:27.80</time>
<name>687</name>
</trkpt>
<trkpt lat="48.934775" lon="8.673533">
<ele>363.5</ele>
<speed>4.5</speed>
<course>136.5</course>
<desc>Speed 4.5 km/h Distance 1.41 km</desc>
<time>2010-03-03T16:08:28.80</time>
<name>688</name>
</trkpt>
<trkpt lat="48.934772" lon="8.673538">
<ele>364.0</ele>
<speed>1.6</speed>
<course>121.4</course>
<desc>Speed 1.6 km/h Distance 1.41 km</desc>
<time>2010-03-03T16:08:29.80</time>
<name>689</name>
</trkpt>
<trkpt lat="48.934768" lon="8.673547">
<ele>364.0</ele>
<speed>1.8</speed>
<course>121.3</course>
<desc>Speed 1.8 km/h Distance 1.41 km</desc>
<time>2010-03-03T16:08:30.80</time>
<name>690</name>
</trkpt>
<trkpt lat="48.934762" lon="8.673563">
<ele>364.0</ele>
<speed>4.3</speed>
<course>132.2</course>
<desc>Speed 4.3 km/h Distance 1.42 km</desc>
<time>2010-03-03T16:08:31.80</time>
<name>691</name>
</trkpt>
<trkpt lat="48.934757" lon="8.673572">
<ele>364.0</ele>
<speed>1.5</speed>
<course>140.6</course>
<desc>Speed 1.5 km/h Distance 1.42 km</desc>
<time>2010-03-03T16:08:32.80</time>
<name>692</name>
</trkpt>
<trkpt lat="48.934750" lon="8.673580">
<ele>364.0</ele>
<speed>3.0</speed>
<course>153.6</course>
<desc>Speed 3.0 km/h Distance 1.42 km</desc>
<time>2010-03-03T16:08:33.80</time>
<name>693</name>
</trkpt>
<trkpt lat="48.934743" lon="8.673585">
<ele>364.0</ele>
<speed>2.1</speed>
<course>113.5</course>
<desc>Speed 2.1 km/h Distance 1.42 km</desc>
<time>2010-03-03T16:08:34.80</time>
<name>694</name>
</trkpt>
<trkpt lat="48.934740" lon="8.673597">
<ele>364.5</ele>
<speed>3.4</speed>
<course>117.4</course>
<desc>Speed 3.4 km/h Distance 1.42 km</desc>
<time>2010-03-03T16:08:35.80</time>
<name>695</name>
</trkpt>
<trkpt lat="48.934738" lon="8.673602">
<ele>364.5</ele>
<speed>2.8</speed>
<course>121.3</course>
<desc>Speed 2.8 km/h Distance 1.42 km</desc>
<time>2010-03-03T16:08:36.80</time>
<name>696</name>
</trkpt>
<trkpt lat="48.934732" lon="8.673618">
<ele>365.0</ele>
<speed>2.2</speed>
<course>119.7</course>
<desc>Speed 2.2 km/h Distance 1.42 km</desc>
<time>2010-03-03T16:08:37.80</time>
<name>697</name>
</trkpt>
<trkpt lat="48.934722" lon="8.673645">
<ele>365.0</ele>
<speed>3.6</speed>
<course>127.2</course>
<desc>Speed 3.6 km/h Distance 1.42 km</desc>
<time>2010-03-03T16:08:38.80</time>
<name>698</name>
</trkpt>
<trkpt lat="48.934717" lon="8.673655">
<ele>365.5</ele>
<speed>3.5</speed>
<course>127.2</course>
<desc>Speed 3.5 km/h Distance 1.42 km</desc>
<time>2010-03-03T16:08:39.80</time>
<name>699</name>
</trkpt>
<trkpt lat="48.934712" lon="8.673665">
<ele>365.5</ele>
<speed>3.1</speed>
<course>127.3</course>
<desc>Speed 3.1 km/h Distance 1.43 km</desc>
<time>2010-03-03T16:08:40.80</time>
<name>700</name>
</trkpt>
<trkpt lat="48.934705" lon="8.673678">
<ele>365.5</ele>
<speed>3.2</speed>
<course>133.5</course>
<desc>Speed 3.2 km/h Distance 1.43 km</desc>
<time>2010-03-03T16:08:41.80</time>
<name>701</name>
</trkpt>
<trkpt lat="48.934697" lon="8.673692">
<ele>365.5</ele>
<speed>2.7</speed>
<course>125.1</course>
<desc>Speed 2.7 km/h Distance 1.43 km</desc>
<time>2010-03-03T16:08:42.80</time>
<name>702</name>
</trkpt>
<trkpt lat="48.934687" lon="8.673713">
<ele>366.0</ele>
<speed>3.7</speed>
<course>123.1</course>
<desc>Speed 3.7 km/h Distance 1.43 km</desc>
<time>2010-03-03T16:08:43.80</time>
<name>703</name>
</trkpt>
<trkpt lat="48.934677" lon="8.673737">
<ele>366.5</ele>
<speed>2.7</speed>
<course>124.1</course>
<desc>Speed 2.7 km/h Distance 1.43 km</desc>
<time>2010-03-03T16:08:44.80</time>
<name>704</name>
</trkpt>
<trkpt lat="48.934670" lon="8.673752">
<ele>366.5</ele>
<speed>3.4</speed>
<course>122.3</course>
<desc>Speed 3.4 km/h Distance 1.43 km</desc>
<time>2010-03-03T16:08:45.80</time>
<name>705</name>
</trkpt>
<trkpt lat="48.934662" lon="8.673772">
<ele>366.5</ele>
<speed>3.9</speed>
<course>122.3</course>
<desc>Speed 3.9 km/h Distance 1.44 km</desc>
<time>2010-03-03T16:08:46.80</time>
<name>706</name>
</trkpt>
<trkpt lat="48.934653" lon="8.673792">
<ele>367.0</ele>
<speed>3.1</speed>
<course>127.3</course>
<desc>Speed 3.1 km/h Distance 1.44 km</desc>
<time>2010-03-03T16:08:47.80</time>
<name>707</name>
</trkpt>
<trkpt lat="48.934640" lon="8.673818">
<ele>367.5</ele>
<speed>3.1</speed>
<course>122.8</course>
<desc>Speed 3.1 km/h Distance 1.44 km</desc>
<time>2010-03-03T16:08:48.96</time>
<name>708</name>
</trkpt>
<trkpt lat="48.934622" lon="8.673862">
<ele>367.5</ele>
<speed>4.0</speed>
<course>124.6</course>
<desc>Speed 4.0 km/h Distance 1.44 km</desc>
<time>2010-03-03T16:08:50.82</time>
<name>709</name>
</trkpt>
<trkpt lat="48.934613" lon="8.673880">
<ele>368.0</ele>
<speed>3.6</speed>
<course>125.1</course>
<desc>Speed 3.6 km/h Distance 1.44 km</desc>
<time>2010-03-03T16:08:51.82</time>
<name>710</name>
</trkpt>
<trkpt lat="48.934603" lon="8.673902">
<ele>367.5</ele>
<speed>3.5</speed>
<course>121.4</course>
<desc>Speed 3.5 km/h Distance 1.45 km</desc>
<time>2010-03-03T16:08:52.82</time>
<name>711</name>
</trkpt>
<trkpt lat="48.934593" lon="8.673927">
<ele>368.0</ele>
<speed>2.3</speed>
<course>124.1</course>
<desc>Speed 2.3 km/h Distance 1.45 km</desc>
<time>2010-03-03T16:08:53.85</time>
<name>712</name>
</trkpt>
<trkpt lat="48.934587" lon="8.673942">
<ele>368.0</ele>
<speed>4.1</speed>
<course>114.6</course>
<desc>Speed 4.1 km/h Distance 1.45 km</desc>
<time>2010-03-03T16:08:54.83</time>
<name>713</name>
</trkpt>
<trkpt lat="48.934582" lon="8.673958">
<ele>368.0</ele>
<speed>3.2</speed>
<course>117.0</course>
<desc>Speed 3.2 km/h Distance 1.45 km</desc>
<time>2010-03-03T16:08:55.83</time>
<name>714</name>
</trkpt>
<trkpt lat="48.934575" lon="8.673978">
<ele>368.0</ele>
<speed>3.5</speed>
<course>115.1</course>
<desc>Speed 3.5 km/h Distance 1.45 km</desc>
<time>2010-03-03T16:08:56.83</time>
<name>715</name>
</trkpt>
<trkpt lat="48.934568" lon="8.674000">
<ele>368.5</ele>
<speed>3.1</speed>
<course>108.7</course>
<desc>Speed 3.1 km/h Distance 1.45 km</desc>
<time>2010-03-03T16:08:57.83</time>
<name>716</name>
</trkpt>
<trkpt lat="48.934562" lon="8.674030">
<ele>368.5</ele>
<speed>3.1</speed>
<course>122.6</course>
<desc>Speed 3.1 km/h Distance 1.46 km</desc>
<time>2010-03-03T16:08:58.83</time>
<name>717</name>
</trkpt>
<trkpt lat="48.934548" lon="8.674062">
<ele>369.5</ele>
<speed>2.9</speed>
<course>326.6</course>
<desc>Speed 2.9 km/h Distance 1.46 km</desc>
<time>2010-03-03T16:08:59.83</time>
<name>718</name>
</trkpt>
<trkpt lat="48.934560" lon="8.674050">
<ele>370.0</ele>
<speed>4.9</speed>
<course>127.7</course>
<desc>Speed 4.9 km/h Distance 1.46 km</desc>
<time>2010-03-03T16:09:00.83</time>
<name>719</name>
</trkpt>
<trkpt lat="48.934503" lon="8.674162">
<ele>372.0</ele>
<speed>3.8</speed>
<course>108.4</course>
<desc>Speed 3.8 km/h Distance 1.47 km</desc>
<time>2010-03-03T16:09:02.83</time>
<name>720</name>
</trkpt>
<trkpt lat="48.934492" lon="8.674215">
<ele>372.0</ele>
<speed>2.6</speed>
<course>20.1</course>
<desc>Speed 2.6 km/h Distance 1.48 km</desc>
<time>2010-03-03T16:09:04.83</time>
<name>721</name>
</trkpt>
<trkpt lat="48.934507" lon="8.674223">
<ele>372.0</ele>
<speed>2.4</speed>
<course>106.9</course>
<desc>Speed 2.4 km/h Distance 1.48 km</desc>
<time>2010-03-03T16:09:05.84</time>
<name>722</name>
</trkpt>
<trkpt lat="48.934502" lon="8.674248">
<ele>372.5</ele>
<speed>4.8</speed>
<course>106.9</course>
<desc>Speed 4.8 km/h Distance 1.48 km</desc>
<time>2010-03-03T16:09:06.83</time>
<name>723</name>
</trkpt>
<trkpt lat="48.934498" lon="8.674265">
<ele>372.5</ele>
<speed>4.1</speed>
<course>112.5</course>
<desc>Speed 4.1 km/h Distance 1.48 km</desc>
<time>2010-03-03T16:09:07.83</time>
<name>724</name>
</trkpt>
<trkpt lat="48.934493" lon="8.674283">
<ele>372.0</ele>
<speed>4.6</speed>
<course>104.2</course>
<desc>Speed 4.6 km/h Distance 1.48 km</desc>
<time>2010-03-03T16:09:08.83</time>
<name>725</name>
</trkpt>
<trkpt lat="48.934490" lon="8.674303">
<ele>372.5</ele>
<speed>4.0</speed>
<course>103.2</course>
<desc>Speed 4.0 km/h Distance 1.48 km</desc>
<time>2010-03-03T16:09:09.83</time>
<name>726</name>
</trkpt>
<trkpt lat="48.934487" lon="8.674325">
<ele>372.5</ele>
<speed>4.2</speed>
<course>116.9</course>
<desc>Speed 4.2 km/h Distance 1.49 km</desc>
<time>2010-03-03T16:09:10.84</time>
<name>727</name>
</trkpt>
<trkpt lat="48.934478" lon="8.674350">
<ele>373.0</ele>
<speed>4.2</speed>
<course>129.0</course>
<desc>Speed 4.2 km/h Distance 1.49 km</desc>
<time>2010-03-03T16:09:11.83</time>
<name>728</name>
</trkpt>
<trkpt lat="48.934465" lon="8.674375">
<ele>372.0</ele>
<speed>3.5</speed>
<course>105.9</course>
<desc>Speed 3.5 km/h Distance 1.49 km</desc>
<time>2010-03-03T16:09:12.83</time>
<name>729</name>
</trkpt>
<trkpt lat="48.934460" lon="8.674402">
<ele>372.5</ele>
<speed>3.0</speed>
<course>119.9</course>
<desc>Speed 3.0 km/h Distance 1.49 km</desc>
<time>2010-03-03T16:09:13.83</time>
<name>730</name>
</trkpt>
<trkpt lat="48.934432" lon="8.674477">
<ele>374.0</ele>
<speed>4.4</speed>
<course>101.5</course>
<desc>Speed 4.4 km/h Distance 1.50 km</desc>
<time>2010-03-03T16:09:15.83</time>
<name>731</name>
</trkpt>
<trkpt lat="48.934428" lon="8.674502">
<ele>374.0</ele>
<speed>4.8</speed>
<course>106.9</course>
<desc>Speed 4.8 km/h Distance 1.50 km</desc>
<time>2010-03-03T16:09:16.83</time>
<name>732</name>
</trkpt>
<trkpt lat="48.934423" lon="8.674527">
<ele>374.0</ele>
<speed>4.3</speed>
<course>107.8</course>
<desc>Speed 4.3 km/h Distance 1.50 km</desc>
<time>2010-03-03T16:09:17.83</time>
<name>733</name>
</trkpt>
<trkpt lat="48.934417" lon="8.674558">
<ele>374.0</ele>
<speed>4.8</speed>
<course>98.3</course>
<desc>Speed 4.8 km/h Distance 1.50 km</desc>
<time>2010-03-03T16:09:18.85</time>
<name>734</name>
</trkpt>
<trkpt lat="48.934413" lon="8.674593">
<ele>374.5</ele>
<speed>4.8</speed>
<course>101.7</course>
<desc>Speed 4.8 km/h Distance 1.51 km</desc>
<time>2010-03-03T16:09:19.85</time>
<name>735</name>
</trkpt>
<trkpt lat="48.934408" lon="8.674630">
<ele>374.5</ele>
<speed>4.9</speed>
<course>60.3</course>
<desc>Speed 4.9 km/h Distance 1.51 km</desc>
<time>2010-03-03T16:09:20.85</time>
<name>736</name>
</trkpt>
<trkpt lat="48.934413" lon="8.674643">
<ele>374.0</ele>
<speed>3.7</speed>
<course>77.7</course>
<desc>Speed 3.7 km/h Distance 1.51 km</desc>
<time>2010-03-03T16:09:21.85</time>
<name>737</name>
</trkpt>
<trkpt lat="48.934415" lon="8.674655">
<ele>374.5</ele>
<speed>2.7</speed>
<course>106.9</course>
<desc>Speed 2.7 km/h Distance 1.51 km</desc>
<time>2010-03-03T16:09:22.85</time>
<name>738</name>
</trkpt>
<trkpt lat="48.934412" lon="8.674672">
<ele>374.5</ele>
<speed>3.7</speed>
<course>98.6</course>
<desc>Speed 3.7 km/h Distance 1.51 km</desc>
<time>2010-03-03T16:09:23.85</time>
<name>739</name>
</trkpt>
<trkpt lat="48.934410" lon="8.674688">
<ele>374.5</ele>
<speed>3.6</speed>
<course>103.2</course>
<desc>Speed 3.6 km/h Distance 1.51 km</desc>
<time>2010-03-03T16:09:24.85</time>
<name>740</name>
</trkpt>
<trkpt lat="48.934407" lon="8.674710">
<ele>375.0</ele>
<speed>4.5</speed>
<course>101.5</course>
<desc>Speed 4.5 km/h Distance 1.52 km</desc>
<time>2010-03-03T16:09:25.85</time>
<name>741</name>
</trkpt>
<trkpt lat="48.934403" lon="8.674735">
<ele>375.0</ele>
<speed>4.7</speed>
<course>95.4</course>
<desc>Speed 4.7 km/h Distance 1.52 km</desc>
<time>2010-03-03T16:09:26.85</time>
<name>742</name>
</trkpt>
<trkpt lat="48.934402" lon="8.674762">
<ele>375.5</ele>
<speed>4.2</speed>
<course>110.9</course>
<desc>Speed 4.2 km/h Distance 1.52 km</desc>
<time>2010-03-03T16:09:27.85</time>
<name>743</name>
</trkpt>
<trkpt lat="48.934397" lon="8.674782">
<ele>375.5</ele>
<speed>5.0</speed>
<course>104.2</course>
<desc>Speed 5.0 km/h Distance 1.52 km</desc>
<time>2010-03-03T16:09:28.85</time>
<name>744</name>
</trkpt>
<trkpt lat="48.934393" lon="8.674802">
<ele>375.5</ele>
<speed>4.2</speed>
<course>82.1</course>
<desc>Speed 4.2 km/h Distance 1.52 km</desc>
<time>2010-03-03T16:09:29.85</time>
<name>745</name>
</trkpt>
<trkpt lat="48.934395" lon="8.674820">
<ele>376.0</ele>
<speed>3.0</speed>
<course>90.0</course>
<desc>Speed 3.0 km/h Distance 1.52 km</desc>
<time>2010-03-03T16:09:30.85</time>
<name>746</name>
</trkpt>
<trkpt lat="48.934395" lon="8.674843">
<ele>376.5</ele>
<speed>3.9</speed>
<course>90.0</course>
<desc>Speed 3.9 km/h Distance 1.53 km</desc>
<time>2010-03-03T16:09:31.85</time>
<name>747</name>
</trkpt>
<trkpt lat="48.934395" lon="8.674872">
<ele>377.5</ele>
<speed>4.1</speed>
<course>90.0</course>
<desc>Speed 4.1 km/h Distance 1.53 km</desc>
<time>2010-03-03T16:09:32.85</time>
<name>748</name>
</trkpt>
<trkpt lat="48.934395" lon="8.674903">
<ele>378.0</ele>
<speed>4.8</speed>
<course>69.1</course>
<desc>Speed 4.8 km/h Distance 1.53 km</desc>
<time>2010-03-03T16:09:33.85</time>
<name>749</name>
</trkpt>
<trkpt lat="48.934400" lon="8.674923">
<ele>378.5</ele>
<speed>4.0</speed>
<course>73.1</course>
<desc>Speed 4.0 km/h Distance 1.53 km</desc>
<time>2010-03-03T16:09:34.85</time>
<name>750</name>
</trkpt>
<trkpt lat="48.934403" lon="8.674940">
<ele>378.5</ele>
<speed>4.4</speed>
<course>90.0</course>
<desc>Speed 4.4 km/h Distance 1.53 km</desc>
<time>2010-03-03T16:09:35.85</time>
<name>751</name>
</trkpt>
<trkpt lat="48.934403" lon="8.674958">
<ele>378.0</ele>
<speed>3.7</speed>
<course>97.9</course>
<desc>Speed 3.7 km/h Distance 1.53 km</desc>
<time>2010-03-03T16:09:36.85</time>
<name>752</name>
</trkpt>
<trkpt lat="48.934402" lon="8.674977">
<ele>378.5</ele>
<speed>4.0</speed>
<course>95.4</course>
<desc>Speed 4.0 km/h Distance 1.54 km</desc>
<time>2010-03-03T16:09:37.85</time>
<name>753</name>
</trkpt>
<trkpt lat="48.934400" lon="8.675003">
<ele>378.5</ele>
<speed>4.8</speed>
<course>95.4</course>
<desc>Speed 4.8 km/h Distance 1.54 km</desc>
<time>2010-03-03T16:09:38.85</time>
<name>754</name>
</trkpt>
<trkpt lat="48.934398" lon="8.675030">
<ele>378.5</ele>
<speed>4.5</speed>
<course>103.5</course>
<desc>Speed 4.5 km/h Distance 1.54 km</desc>
<time>2010-03-03T16:09:39.85</time>
<name>755</name>
</trkpt>
<trkpt lat="48.934393" lon="8.675062">
<ele>379.0</ele>
<speed>4.9</speed>
<course>102.3</course>
<desc>Speed 4.9 km/h Distance 1.54 km</desc>
<time>2010-03-03T16:09:40.85</time>
<name>756</name>
</trkpt>
<trkpt lat="48.934388" lon="8.675097">
<ele>380.0</ele>
<speed>5.1</speed>
<course>90.0</course>
<desc>Speed 5.1 km/h Distance 1.54 km</desc>
<time>2010-03-03T16:09:41.85</time>
<name>757</name>
</trkpt>
<trkpt lat="48.934388" lon="8.675127">
<ele>380.5</ele>
<speed>4.8</speed>
<course>98.3</course>
<desc>Speed 4.8 km/h Distance 1.55 km</desc>
<time>2010-03-03T16:09:42.85</time>
<name>758</name>
</trkpt>
<trkpt lat="48.934385" lon="8.675162">
<ele>380.5</ele>
<speed>5.1</speed>
<course>101.2</course>
<desc>Speed 5.1 km/h Distance 1.55 km</desc>
<time>2010-03-03T16:09:43.85</time>
<name>759</name>
</trkpt>
<trkpt lat="48.934380" lon="8.675200">
<ele>381.0</ele>
<speed>5.3</speed>
<course>106.9</course>
<desc>Speed 5.3 km/h Distance 1.55 km</desc>
<time>2010-03-03T16:09:44.85</time>
<name>760</name>
</trkpt>
<trkpt lat="48.934375" lon="8.675225">
<ele>382.5</ele>
<speed>5.2</speed>
<course>105.0</course>
<desc>Speed 5.2 km/h Distance 1.55 km</desc>
<time>2010-03-03T16:09:45.85</time>
<name>761</name>
</trkpt>
<trkpt lat="48.934370" lon="8.675253">
<ele>382.5</ele>
<speed>5.6</speed>
<course>90.0</course>
<desc>Speed 5.6 km/h Distance 1.56 km</desc>
<time>2010-03-03T16:09:46.85</time>
<name>762</name>
</trkpt>
<trkpt lat="48.934370" lon="8.675277">
<ele>382.5</ele>
<speed>5.3</speed>
<course>96.7</course>
<desc>Speed 5.3 km/h Distance 1.56 km</desc>
<time>2010-03-03T16:09:47.85</time>
<name>763</name>
</trkpt>
<trkpt lat="48.934368" lon="8.675298">
<ele>383.0</ele>
<speed>4.0</speed>
<course>112.1</course>
<desc>Speed 4.0 km/h Distance 1.56 km</desc>
<time>2010-03-03T16:09:48.85</time>
<name>764</name>
</trkpt>
<trkpt lat="48.934362" lon="8.675323">
<ele>383.0</ele>
<speed>4.9</speed>
<course>96.7</course>
<desc>Speed 4.9 km/h Distance 1.56 km</desc>
<time>2010-03-03T16:09:49.85</time>
<name>765</name>
</trkpt>
<trkpt lat="48.934360" lon="8.675345">
<ele>383.0</ele>
<speed>4.9</speed>
<course>95.8</course>
<desc>Speed 4.9 km/h Distance 1.56 km</desc>
<time>2010-03-03T16:09:50.85</time>
<name>766</name>
</trkpt>
<trkpt lat="48.934358" lon="8.675370">
<ele>383.0</ele>
<speed>5.5</speed>
<course>103.2</course>
<desc>Speed 5.5 km/h Distance 1.57 km</desc>
<time>2010-03-03T16:09:51.85</time>
<name>767</name>
</trkpt>
<trkpt lat="48.934355" lon="8.675392">
<ele>382.5</ele>
<speed>4.7</speed>
<course>114.5</course>
<desc>Speed 4.7 km/h Distance 1.57 km</desc>
<time>2010-03-03T16:09:52.85</time>
<name>768</name>
</trkpt>
<trkpt lat="48.934350" lon="8.675408">
<ele>382.5</ele>
<speed>4.7</speed>
<course>114.6</course>
<desc>Speed 4.7 km/h Distance 1.57 km</desc>
<time>2010-03-03T16:09:53.85</time>
<name>769</name>
</trkpt>
<trkpt lat="48.934345" lon="8.675425">
<ele>382.5</ele>
<speed>4.8</speed>
<course>116.9</course>
<desc>Speed 4.8 km/h Distance 1.57 km</desc>
<time>2010-03-03T16:09:54.85</time>
<name>770</name>
</trkpt>
<trkpt lat="48.934338" lon="8.675445">
<ele>382.5</ele>
<speed>5.2</speed>
<course>119.0</course>
<desc>Speed 5.2 km/h Distance 1.57 km</desc>
<time>2010-03-03T16:09:55.85</time>
<name>771</name>
</trkpt>
<trkpt lat="48.934332" lon="8.675463">
<ele>382.5</ele>
<speed>5.0</speed>
<course>119.0</course>
<desc>Speed 5.0 km/h Distance 1.57 km</desc>
<time>2010-03-03T16:09:56.85</time>
<name>772</name>
</trkpt>
<trkpt lat="48.934325" lon="8.675482">
<ele>382.0</ele>
<speed>4.6</speed>
<course>114.1</course>
<desc>Speed 4.6 km/h Distance 1.57 km</desc>
<time>2010-03-03T16:09:57.85</time>
<name>773</name>
</trkpt>
<trkpt lat="48.934317" lon="8.675510">
<ele>382.0</ele>
<speed>7.1</speed>
<course>109.4</course>
<desc>Speed 7.1 km/h Distance 1.58 km</desc>
<time>2010-03-03T16:09:58.85</time>
<name>774</name>
</trkpt>
<trkpt lat="48.934312" lon="8.675532">
<ele>381.5</ele>
<speed>6.2</speed>
<course>120.3</course>
<desc>Speed 6.2 km/h Distance 1.58 km</desc>
<time>2010-03-03T16:09:59.85</time>
<name>775</name>
</trkpt>
<trkpt lat="48.934303" lon="8.675553">
<ele>381.5</ele>
<speed>6.1</speed>
<course>125.1</course>
<desc>Speed 6.1 km/h Distance 1.58 km</desc>
<time>2010-03-03T16:10:00.85</time>
<name>776</name>
</trkpt>
<trkpt lat="48.934293" lon="8.675575">
<ele>381.0</ele>
<speed>6.7</speed>
<course>119.0</course>
<desc>Speed 6.7 km/h Distance 1.58 km</desc>
<time>2010-03-03T16:10:01.85</time>
<name>777</name>
</trkpt>
<trkpt lat="48.934287" lon="8.675593">
<ele>381.0</ele>
<speed>5.4</speed>
<course>130.3</course>
<desc>Speed 5.4 km/h Distance 1.58 km</desc>
<time>2010-03-03T16:10:02.85</time>
<name>778</name>
</trkpt>
<trkpt lat="48.934278" lon="8.675608">
<ele>380.5</ele>
<speed>4.7</speed>
<course>133.1</course>
<desc>Speed 4.7 km/h Distance 1.58 km</desc>
<time>2010-03-03T16:10:03.85</time>
<name>779</name>
</trkpt>
<trkpt lat="48.934265" lon="8.675630">
<ele>380.5</ele>
<speed>7.4</speed>
<course>120.3</course>
<desc>Speed 7.4 km/h Distance 1.59 km</desc>
<time>2010-03-03T16:10:04.85</time>
<name>780</name>
</trkpt>
<trkpt lat="48.934257" lon="8.675652">
<ele>380.5</ele>
<speed>6.0</speed>
<course>127.2</course>
<desc>Speed 6.0 km/h Distance 1.59 km</desc>
<time>2010-03-03T16:10:05.85</time>
<name>781</name>
</trkpt>
<trkpt lat="48.934245" lon="8.675675">
<ele>380.0</ele>
<speed>6.5</speed>
<course>127.2</course>
<desc>Speed 6.5 km/h Distance 1.59 km</desc>
<time>2010-03-03T16:10:06.85</time>
<name>782</name>
</trkpt>
<trkpt lat="48.934233" lon="8.675698">
<ele>380.5</ele>
<speed>6.8</speed>
<course>137.9</course>
<desc>Speed 6.8 km/h Distance 1.59 km</desc>
<time>2010-03-03T16:10:07.85</time>
<name>783</name>
</trkpt>
<trkpt lat="48.934220" lon="8.675717">
<ele>380.0</ele>
<speed>5.9</speed>
<course>138.8</course>
<desc>Speed 5.9 km/h Distance 1.60 km</desc>
<time>2010-03-03T16:10:08.85</time>
<name>784</name>
</trkpt>
<trkpt lat="48.934210" lon="8.675730">
<ele>380.5</ele>
<speed>5.8</speed>
<course>161.8</course>
<desc>Speed 5.8 km/h Distance 1.60 km</desc>
<time>2010-03-03T16:10:09.85</time>
<name>785</name>
</trkpt>
<trkpt lat="48.934200" lon="8.675735">
<ele>380.5</ele>
<speed>3.7</speed>
<course>157.9</course>
<desc>Speed 3.7 km/h Distance 1.60 km</desc>
<time>2010-03-03T16:10:10.85</time>
<name>786</name>
</trkpt>
<trkpt lat="48.934187" lon="8.675743">
<ele>380.5</ele>
<speed>4.5</speed>
<course>143.6</course>
<desc>Speed 4.5 km/h Distance 1.60 km</desc>
<time>2010-03-03T16:10:11.85</time>
<name>787</name>
</trkpt>
<trkpt lat="48.934173" lon="8.675758">
<ele>380.5</ele>
<speed>6.2</speed>
<course>107.0</course>
<desc>Speed 6.2 km/h Distance 1.60 km</desc>
<time>2010-03-03T16:10:12.85</time>
<name>788</name>
</trkpt>
<trkpt lat="48.934168" lon="8.675783">
<ele>381.0</ele>
<speed>6.3</speed>
<course>65.4</course>
<desc>Speed 6.3 km/h Distance 1.60 km</desc>
<time>2010-03-03T16:10:13.85</time>
<name>789</name>
</trkpt>
<trkpt lat="48.934173" lon="8.675800">
<ele>382.0</ele>
<speed>2.4</speed>
<course>90.0</course>
<desc>Speed 2.4 km/h Distance 1.60 km</desc>
<time>2010-03-03T16:10:14.85</time>
<name>790</name>
</trkpt>
<trkpt lat="48.934173" lon="8.675835">
<ele>382.5</ele>
<speed>8.6</speed>
<course>106.9</course>
<desc>Speed 8.6 km/h Distance 1.61 km</desc>
<time>2010-03-03T16:10:15.85</time>
<name>791</name>
</trkpt>
<trkpt lat="48.934170" lon="8.675852">
<ele>382.5</ele>
<speed>2.5</speed>
<course>113.5</course>
<desc>Speed 2.5 km/h Distance 1.61 km</desc>
<time>2010-03-03T16:10:16.85</time>
<name>792</name>
</trkpt>
<trkpt lat="48.934167" lon="8.675863">
<ele>382.5</ele>
<speed>0.5</speed>
<course>127.0</course>
<desc>Speed 0.5 km/h Distance 1.61 km</desc>
<time>2010-03-03T16:10:17.85</time>
<name>793</name>
</trkpt>
<trkpt lat="48.934163" lon="8.675870">
<ele>382.5</ele>
<speed>0.1</speed>
<course>110.9</course>
<desc>Speed 0.1 km/h Distance 1.61 km</desc>
<time>2010-03-03T16:10:18.85</time>
<name>794</name>
</trkpt>
<trkpt lat="48.934160" lon="8.675883">
<ele>382.5</ele>
<speed>2.1</speed>
<course>118.3</course>
<desc>Speed 2.1 km/h Distance 1.61 km</desc>
<time>2010-03-03T16:10:19.85</time>
<name>795</name>
</trkpt>
<trkpt lat="48.934150" lon="8.675912">
<ele>383.0</ele>
<speed>4.1</speed>
<course>114.6</course>
<desc>Speed 4.1 km/h Distance 1.61 km</desc>
<time>2010-03-03T16:10:20.85</time>
<name>796</name>
</trkpt>
<trkpt lat="48.934145" lon="8.675928">
<ele>383.5</ele>
<speed>4.7</speed>
<course>123.6</course>
<desc>Speed 4.7 km/h Distance 1.61 km</desc>
<time>2010-03-03T16:10:21.85</time>
<name>797</name>
</trkpt>
<trkpt lat="48.934117" lon="8.675993">
<ele>384.0</ele>
<speed>5.9</speed>
<course>140.6</course>
<desc>Speed 5.9 km/h Distance 1.62 km</desc>
<time>2010-03-03T16:10:23.85</time>
<name>798</name>
</trkpt>
<trkpt lat="48.934103" lon="8.676010">
<ele>384.0</ele>
<speed>6.3</speed>
<course>137.4</course>
<desc>Speed 6.3 km/h Distance 1.62 km</desc>
<time>2010-03-03T16:10:24.85</time>
<name>799</name>
</trkpt>
<trkpt lat="48.934095" lon="8.676022">
<ele>384.0</ele>
<speed>4.4</speed>
<course>140.6</course>
<desc>Speed 4.4 km/h Distance 1.62 km</desc>
<time>2010-03-03T16:10:25.85</time>
<name>800</name>
</trkpt>
<trkpt lat="48.934082" lon="8.676038">
<ele>384.5</ele>
<speed>6.1</speed>
<course>142.8</course>
<desc>Speed 6.1 km/h Distance 1.63 km</desc>
<time>2010-03-03T16:10:26.86</time>
<name>801</name>
</trkpt>
<trkpt lat="48.934070" lon="8.676052">
<ele>384.5</ele>
<speed>6.1</speed>
<course>143.4</course>
<desc>Speed 6.1 km/h Distance 1.63 km</desc>
<time>2010-03-03T16:10:27.86</time>
<name>802</name>
</trkpt>
<trkpt lat="48.934057" lon="8.676067">
<ele>384.5</ele>
<speed>6.4</speed>
<course>139.5</course>
<desc>Speed 6.4 km/h Distance 1.63 km</desc>
<time>2010-03-03T16:10:28.86</time>
<name>803</name>
</trkpt>
<trkpt lat="48.934040" lon="8.676088">
<ele>384.5</ele>
<speed>8.0</speed>
<course>137.8</course>
<desc>Speed 8.0 km/h Distance 1.63 km</desc>
<time>2010-03-03T16:10:29.86</time>
<name>804</name>
</trkpt>
<trkpt lat="48.934027" lon="8.676107">
<ele>385.0</ele>
<speed>6.5</speed>
<course>143.0</course>
<desc>Speed 6.5 km/h Distance 1.63 km</desc>
<time>2010-03-03T16:10:30.86</time>
<name>805</name>
</trkpt>
<trkpt lat="48.934015" lon="8.676120">
<ele>385.5</ele>
<speed>5.3</speed>
<course>143.1</course>
<desc>Speed 5.3 km/h Distance 1.63 km</desc>
<time>2010-03-03T16:10:31.86</time>
<name>806</name>
</trkpt>
<trkpt lat="48.934003" lon="8.676133">
<ele>386.0</ele>
<speed>4.8</speed>
<course>143.4</course>
<desc>Speed 4.8 km/h Distance 1.64 km</desc>
<time>2010-03-03T16:10:32.86</time>
<name>807</name>
</trkpt>
<trkpt lat="48.933990" lon="8.676148">
<ele>386.5</ele>
<speed>5.4</speed>
<course>144.0</course>
<desc>Speed 5.4 km/h Distance 1.64 km</desc>
<time>2010-03-03T16:10:33.86</time>
<name>808</name>
</trkpt>
<trkpt lat="48.933975" lon="8.676165">
<ele>386.5</ele>
<speed>6.0</speed>
<course>143.6</course>
<desc>Speed 6.0 km/h Distance 1.64 km</desc>
<time>2010-03-03T16:10:34.86</time>
<name>809</name>
</trkpt>
<trkpt lat="48.933962" lon="8.676180">
<ele>387.0</ele>
<speed>5.9</speed>
<course>141.3</course>
<desc>Speed 5.9 km/h Distance 1.64 km</desc>
<time>2010-03-03T16:10:35.86</time>
<name>810</name>
</trkpt>
<trkpt lat="48.933947" lon="8.676198">
<ele>387.0</ele>
<speed>5.9</speed>
<course>143.5</course>
<desc>Speed 5.9 km/h Distance 1.64 km</desc>
<time>2010-03-03T16:10:36.86</time>
<name>811</name>
</trkpt>
<trkpt lat="48.933933" lon="8.676213">
<ele>387.5</ele>
<speed>6.2</speed>
<course>143.6</course>
<desc>Speed 6.2 km/h Distance 1.65 km</desc>
<time>2010-03-03T16:10:37.86</time>
<name>812</name>
</trkpt>
<trkpt lat="48.933920" lon="8.676228">
<ele>388.0</ele>
<speed>5.9</speed>
<course>139.8</course>
<desc>Speed 5.9 km/h Distance 1.65 km</desc>
<time>2010-03-03T16:10:38.86</time>
<name>813</name>
</trkpt>
<trkpt lat="48.933908" lon="8.676243">
<ele>388.0</ele>
<speed>5.8</speed>
<course>143.2</course>
<desc>Speed 5.8 km/h Distance 1.65 km</desc>
<time>2010-03-03T16:10:39.86</time>
<name>814</name>
</trkpt>
<trkpt lat="48.933897" lon="8.676257">
<ele>388.0</ele>
<speed>5.5</speed>
<course>139.7</course>
<desc>Speed 5.5 km/h Distance 1.65 km</desc>
<time>2010-03-03T16:10:40.86</time>
<name>815</name>
</trkpt>
<trkpt lat="48.933885" lon="8.676272">
<ele>388.0</ele>
<speed>5.6</speed>
<course>140.6</course>
<desc>Speed 5.6 km/h Distance 1.65 km</desc>
<time>2010-03-03T16:10:41.86</time>
<name>816</name>
</trkpt>
<trkpt lat="48.933872" lon="8.676288">
<ele>388.0</ele>
<speed>5.8</speed>
<course>139.8</course>
<desc>Speed 5.8 km/h Distance 1.65 km</desc>
<time>2010-03-03T16:10:42.86</time>
<name>817</name>
</trkpt>
<trkpt lat="48.933860" lon="8.676303">
<ele>388.0</ele>
<speed>5.5</speed>
<course>140.6</course>
<desc>Speed 5.5 km/h Distance 1.66 km</desc>
<time>2010-03-03T16:10:43.86</time>
<name>818</name>
</trkpt>
<trkpt lat="48.933847" lon="8.676320">
<ele>388.0</ele>
<speed>5.7</speed>
<course>136.7</course>
<desc>Speed 5.7 km/h Distance 1.66 km</desc>
<time>2010-03-03T16:10:44.86</time>
<name>819</name>
</trkpt>
<trkpt lat="48.933835" lon="8.676337">
<ele>388.0</ele>
<speed>5.5</speed>
<course>140.6</course>
<desc>Speed 5.5 km/h Distance 1.66 km</desc>
<time>2010-03-03T16:10:45.86</time>
<name>820</name>
</trkpt>
<trkpt lat="48.933822" lon="8.676353">
<ele>388.0</ele>
<speed>5.7</speed>
<course>136.7</course>
<desc>Speed 5.7 km/h Distance 1.66 km</desc>
<time>2010-03-03T16:10:46.86</time>
<name>821</name>
</trkpt>
<trkpt lat="48.933810" lon="8.676370">
<ele>388.0</ele>
<speed>5.7</speed>
<course>143.1</course>
<desc>Speed 5.7 km/h Distance 1.66 km</desc>
<time>2010-03-03T16:10:47.86</time>
<name>822</name>
</trkpt>
<trkpt lat="48.933798" lon="8.676383">
<ele>388.0</ele>
<speed>5.5</speed>
<course>135.4</course>
<desc>Speed 5.5 km/h Distance 1.67 km</desc>
<time>2010-03-03T16:10:48.86</time>
<name>823</name>
</trkpt>
<trkpt lat="48.933788" lon="8.676398">
<ele>388.0</ele>
<speed>5.2</speed>
<course>143.1</course>
<desc>Speed 5.2 km/h Distance 1.67 km</desc>
<time>2010-03-03T16:10:49.86</time>
<name>824</name>
</trkpt>
<trkpt lat="48.933777" lon="8.676412">
<ele>388.0</ele>
<speed>5.0</speed>
<course>133.4</course>
<desc>Speed 5.0 km/h Distance 1.67 km</desc>
<time>2010-03-03T16:10:50.86</time>
<name>825</name>
</trkpt>
<trkpt lat="48.933768" lon="8.676425">
<ele>387.5</ele>
<speed>4.6</speed>
<course>143.1</course>
<desc>Speed 4.6 km/h Distance 1.67 km</desc>
<time>2010-03-03T16:10:51.86</time>
<name>826</name>
</trkpt>
<trkpt lat="48.933757" lon="8.676438">
<ele>387.5</ele>
<speed>5.2</speed>
<course>139.8</course>
<desc>Speed 5.2 km/h Distance 1.67 km</desc>
<time>2010-03-03T16:10:52.86</time>
<name>827</name>
</trkpt>
<trkpt lat="48.933745" lon="8.676453">
<ele>387.5</ele>
<speed>5.2</speed>
<course>135.4</course>
<desc>Speed 5.2 km/h Distance 1.67 km</desc>
<time>2010-03-03T16:10:53.86</time>
<name>828</name>
</trkpt>
<trkpt lat="48.933735" lon="8.676468">
<ele>387.5</ele>
<speed>4.8</speed>
<course>130.9</course>
<desc>Speed 4.8 km/h Distance 1.68 km</desc>
<time>2010-03-03T16:10:54.86</time>
<name>829</name>
</trkpt>
<trkpt lat="48.933728" lon="8.676480">
<ele>387.5</ele>
<speed>4.2</speed>
<course>141.9</course>
<desc>Speed 4.2 km/h Distance 1.68 km</desc>
<time>2010-03-03T16:10:55.86</time>
<name>830</name>
</trkpt>
<trkpt lat="48.933720" lon="8.676490">
<ele>387.0</ele>
<speed>4.1</speed>
<course>137.5</course>
<desc>Speed 4.1 km/h Distance 1.68 km</desc>
<time>2010-03-03T16:10:56.86</time>
<name>831</name>
</trkpt>
<trkpt lat="48.933712" lon="8.676502">
<ele>387.0</ele>
<speed>3.7</speed>
<course>141.9</course>
<desc>Speed 3.7 km/h Distance 1.68 km</desc>
<time>2010-03-03T16:10:57.86</time>
<name>832</name>
</trkpt>
<trkpt lat="48.933703" lon="8.676512">
<ele>387.0</ele>
<speed>4.1</speed>
<course>134.3</course>
<desc>Speed 4.1 km/h Distance 1.68 km</desc>
<time>2010-03-03T16:10:58.86</time>
<name>833</name>
</trkpt>
<trkpt lat="48.933688" lon="8.676535">
<ele>387.0</ele>
<speed>7.8</speed>
<course>147.7</course>
<desc>Speed 7.8 km/h Distance 1.68 km</desc>
<time>2010-03-03T16:10:59.86</time>
<name>834</name>
</trkpt>
<trkpt lat="48.933683" lon="8.676540">
<ele>387.0</ele>
<speed>2.4</speed>
<course>140.6</course>
<desc>Speed 2.4 km/h Distance 1.68 km</desc>
<time>2010-03-03T16:11:00.86</time>
<name>835</name>
</trkpt>
<trkpt lat="48.933677" lon="8.676548">
<ele>387.0</ele>
<speed>2.6</speed>
<course>138.7</course>
<desc>Speed 2.6 km/h Distance 1.68 km</desc>
<time>2010-03-03T16:11:01.86</time>
<name>836</name>
</trkpt>
<trkpt lat="48.933667" lon="8.676562">
<ele>387.5</ele>
<speed>4.9</speed>
<course>146.6</course>
<desc>Speed 4.9 km/h Distance 1.69 km</desc>
<time>2010-03-03T16:11:02.86</time>
<name>837</name>
</trkpt>
<trkpt lat="48.933653" lon="8.676575">
<ele>387.5</ele>
<speed>5.0</speed>
<course>139.8</course>
<desc>Speed 5.0 km/h Distance 1.69 km</desc>
<time>2010-03-03T16:11:03.86</time>
<name>838</name>
</trkpt>
<trkpt lat="48.933642" lon="8.676590">
<ele>387.0</ele>
<speed>5.5</speed>
<course>149.7</course>
<desc>Speed 5.5 km/h Distance 1.69 km</desc>
<time>2010-03-03T16:11:04.86</time>
<name>839</name>
</trkpt>
<trkpt lat="48.933627" lon="8.676603">
<ele>387.0</ele>
<speed>5.4</speed>
<course>146.7</course>
<desc>Speed 5.4 km/h Distance 1.69 km</desc>
<time>2010-03-03T16:11:05.86</time>
<name>840</name>
</trkpt>
<trkpt lat="48.933615" lon="8.676615">
<ele>387.5</ele>
<speed>4.8</speed>
<course>143.1</course>
<desc>Speed 4.8 km/h Distance 1.69 km</desc>
<time>2010-03-03T16:11:06.86</time>
<name>841</name>
</trkpt>
<trkpt lat="48.933603" lon="8.676628">
<ele>387.5</ele>
<speed>4.5</speed>
<course>143.1</course>
<desc>Speed 4.5 km/h Distance 1.69 km</desc>
<time>2010-03-03T16:11:07.86</time>
<name>842</name>
</trkpt>
<trkpt lat="48.933592" lon="8.676642">
<ele>387.5</ele>
<speed>5.3</speed>
<course>141.4</course>
<desc>Speed 5.3 km/h Distance 1.70 km</desc>
<time>2010-03-03T16:11:08.86</time>
<name>843</name>
</trkpt>
<trkpt lat="48.933583" lon="8.676652">
<ele>387.0</ele>
<speed>4.2</speed>
<course>143.1</course>
<desc>Speed 4.2 km/h Distance 1.70 km</desc>
<time>2010-03-03T16:11:09.86</time>
<name>844</name>
</trkpt>
<trkpt lat="48.933572" lon="8.676665">
<ele>387.0</ele>
<speed>5.3</speed>
<course>139.9</course>
<desc>Speed 5.3 km/h Distance 1.70 km</desc>
<time>2010-03-03T16:11:10.86</time>
<name>845</name>
</trkpt>
<trkpt lat="48.933560" lon="8.676680">
<ele>387.0</ele>
<speed>5.8</speed>
<course>136.8</course>
<desc>Speed 5.8 km/h Distance 1.70 km</desc>
<time>2010-03-03T16:11:11.86</time>
<name>846</name>
</trkpt>
<trkpt lat="48.933548" lon="8.676697">
<ele>387.0</ele>
<speed>5.9</speed>
<course>139.7</course>
<desc>Speed 5.9 km/h Distance 1.70 km</desc>
<time>2010-03-03T16:11:12.86</time>
<name>847</name>
</trkpt>
<trkpt lat="48.933537" lon="8.676712">
<ele>386.5</ele>
<speed>5.6</speed>
<course>138.7</course>
<desc>Speed 5.6 km/h Distance 1.70 km</desc>
<time>2010-03-03T16:11:13.86</time>
<name>848</name>
</trkpt>
<trkpt lat="48.933527" lon="8.676725">
<ele>386.5</ele>
<speed>5.0</speed>
<course>139.8</course>
<desc>Speed 5.0 km/h Distance 1.71 km</desc>
<time>2010-03-03T16:11:14.86</time>
<name>849</name>
</trkpt>
<trkpt lat="48.933515" lon="8.676740">
<ele>386.5</ele>
<speed>5.1</speed>
<course>138.7</course>
<desc>Speed 5.1 km/h Distance 1.71 km</desc>
<time>2010-03-03T16:11:15.86</time>
<name>850</name>
</trkpt>
<trkpt lat="48.933505" lon="8.676753">
<ele>386.5</ele>
<speed>4.9</speed>
<course>137.9</course>
<desc>Speed 4.9 km/h Distance 1.71 km</desc>
<time>2010-03-03T16:11:16.86</time>
<name>851</name>
</trkpt>
<trkpt lat="48.933492" lon="8.676772">
<ele>386.5</ele>
<speed>6.1</speed>
<course>138.0</course>
<desc>Speed 6.1 km/h Distance 1.71 km</desc>
<time>2010-03-03T16:11:17.86</time>
<name>852</name>
</trkpt>
<trkpt lat="48.933478" lon="8.676790">
<ele>386.0</ele>
<speed>6.2</speed>
<course>140.6</course>
<desc>Speed 6.2 km/h Distance 1.71 km</desc>
<time>2010-03-03T16:11:18.86</time>
<name>853</name>
</trkpt>
<trkpt lat="48.933465" lon="8.676807">
<ele>386.0</ele>
<speed>5.4</speed>
<course>136.8</course>
<desc>Speed 5.4 km/h Distance 1.71 km</desc>
<time>2010-03-03T16:11:19.86</time>
<name>854</name>
</trkpt>
<trkpt lat="48.933453" lon="8.676823">
<ele>386.0</ele>
<speed>5.0</speed>
<course>141.9</course>
<desc>Speed 5.0 km/h Distance 1.72 km</desc>
<time>2010-03-03T16:11:20.86</time>
<name>855</name>
</trkpt>
<trkpt lat="48.933445" lon="8.676833">
<ele>385.5</ele>
<speed>3.7</speed>
<course>180.0</course>
<desc>Speed 3.7 km/h Distance 1.72 km</desc>
<time>2010-03-03T16:11:21.86</time>
<name>856</name>
</trkpt>
<trkpt lat="48.933442" lon="8.676833">
<ele>385.5</ele>
<speed>1.2</speed>
<course>231.9</course>
<desc>Speed 1.2 km/h Distance 1.72 km</desc>
<time>2010-03-03T16:11:22.86</time>
<name>857</name>
</trkpt>
<trkpt lat="48.933440" lon="8.676830">
<ele>385.5</ele>
<speed>1.0</speed>
<course>231.9</course>
<desc>Speed 1.0 km/h Distance 1.72 km</desc>
<time>2010-03-03T16:11:23.86</time>
<name>858</name>
</trkpt>
<trkpt lat="48.933440" lon="8.676830">
<ele>385.5</ele>
<speed>0.3</speed>
<course>128.1</course>
<desc>Speed 0.3 km/h Distance 1.72 km</desc>
<time>2010-03-03T16:11:24.86</time>
<name>859</name>
</trkpt>
<trkpt lat="48.933438" lon="8.676833">
<ele>385.5</ele>
<speed>0.4</speed>
<course>90.0</course>
<desc>Speed 0.4 km/h Distance 1.72 km</desc>
<time>2010-03-03T16:11:25.86</time>
<name>860</name>
</trkpt>
<trkpt lat="48.933438" lon="8.676837">
<ele>385.5</ele>
<speed>0.1</speed>
<course>90.0</course>
<desc>Speed 0.1 km/h Distance 1.72 km</desc>
<time>2010-03-03T16:11:26.86</time>
<name>861</name>
</trkpt>
<trkpt lat="48.933438" lon="8.676837">
<ele>385.5</ele>
<speed>0.5</speed>
<course>90.0</course>
<desc>Speed 0.5 km/h Distance 1.72 km</desc>
<time>2010-03-03T16:11:27.86</time>
<name>862</name>
</trkpt>
<trkpt lat="48.933438" lon="8.676837">
<ele>385.5</ele>
<speed>0.4</speed>
<course>110.2</course>
<desc>Speed 0.4 km/h Distance 1.72 km</desc>
<time>2010-03-03T16:11:28.86</time>
<name>863</name>
</trkpt>
<trkpt lat="48.933437" lon="8.676843">
<ele>386.0</ele>
<speed>1.7</speed>
<course>140.6</course>
<desc>Speed 1.7 km/h Distance 1.72 km</desc>
<time>2010-03-03T16:11:29.86</time>
<name>864</name>
</trkpt>
<trkpt lat="48.933403" lon="8.676885">
<ele>386.5</ele>
<speed>6.2</speed>
<course>146.7</course>
<desc>Speed 6.2 km/h Distance 1.72 km</desc>
<time>2010-03-03T16:11:31.86</time>
<name>865</name>
</trkpt>
<trkpt lat="48.933388" lon="8.676900">
<ele>386.5</ele>
<speed>6.0</speed>
<course>141.2</course>
<desc>Speed 6.0 km/h Distance 1.73 km</desc>
<time>2010-03-03T16:11:32.86</time>
<name>866</name>
</trkpt>
<trkpt lat="48.933373" lon="8.676918">
<ele>386.5</ele>
<speed>6.0</speed>
<course>137.9</course>
<desc>Speed 6.0 km/h Distance 1.73 km</desc>
<time>2010-03-03T16:11:33.86</time>
<name>867</name>
</trkpt>
<trkpt lat="48.933360" lon="8.676937">
<ele>386.0</ele>
<speed>6.1</speed>
<course>153.8</course>
<desc>Speed 6.1 km/h Distance 1.73 km</desc>
<time>2010-03-03T16:11:34.86</time>
<name>868</name>
</trkpt>
<trkpt lat="48.933347" lon="8.676947">
<ele>386.5</ele>
<speed>5.4</speed>
<course>150.2</course>
<desc>Speed 5.4 km/h Distance 1.73 km</desc>
<time>2010-03-03T16:11:35.86</time>
<name>869</name>
</trkpt>
<trkpt lat="48.933333" lon="8.676958">
<ele>386.5</ele>
<speed>5.3</speed>
<course>136.9</course>
<desc>Speed 5.3 km/h Distance 1.73 km</desc>
<time>2010-03-03T16:11:36.86</time>
<name>870</name>
</trkpt>
<trkpt lat="48.933322" lon="8.676975">
<ele>386.0</ele>
<speed>5.9</speed>
<course>140.6</course>
<desc>Speed 5.9 km/h Distance 1.73 km</desc>
<time>2010-03-03T16:11:37.86</time>
<name>871</name>
</trkpt>
<trkpt lat="48.933308" lon="8.676992">
<ele>386.0</ele>
<speed>6.0</speed>
<course>143.9</course>
<desc>Speed 6.0 km/h Distance 1.74 km</desc>
<time>2010-03-03T16:11:38.86</time>
<name>872</name>
</trkpt>
<trkpt lat="48.933293" lon="8.677008">
<ele>386.0</ele>
<speed>6.5</speed>
<course>141.2</course>
<desc>Speed 6.5 km/h Distance 1.74 km</desc>
<time>2010-03-03T16:11:39.86</time>
<name>873</name>
</trkpt>
<trkpt lat="48.933278" lon="8.677027">
<ele>385.5</ele>
<speed>6.6</speed>
<course>138.0</course>
<desc>Speed 6.6 km/h Distance 1.74 km</desc>
<time>2010-03-03T16:11:40.86</time>
<name>874</name>
</trkpt>
<trkpt lat="48.933265" lon="8.677045">
<ele>385.5</ele>
<speed>6.0</speed>
<course>143.4</course>
<desc>Speed 6.0 km/h Distance 1.74 km</desc>
<time>2010-03-03T16:11:41.86</time>
<name>875</name>
</trkpt>
<trkpt lat="48.933252" lon="8.677060">
<ele>385.5</ele>
<speed>6.5</speed>
<course>149.6</course>
<desc>Speed 6.5 km/h Distance 1.74 km</desc>
<time>2010-03-03T16:11:42.86</time>
<name>876</name>
</trkpt>
<trkpt lat="48.933237" lon="8.677073">
<ele>385.5</ele>
<speed>6.2</speed>
<course>139.8</course>
<desc>Speed 6.2 km/h Distance 1.75 km</desc>
<time>2010-03-03T16:11:43.86</time>
<name>877</name>
</trkpt>
<trkpt lat="48.933225" lon="8.677088">
<ele>385.5</ele>
<speed>6.3</speed>
<course>149.9</course>
<desc>Speed 6.3 km/h Distance 1.75 km</desc>
<time>2010-03-03T16:11:44.86</time>
<name>878</name>
</trkpt>
<trkpt lat="48.933210" lon="8.677102">
<ele>385.5</ele>
<speed>6.3</speed>
<course>149.7</course>
<desc>Speed 6.3 km/h Distance 1.75 km</desc>
<time>2010-03-03T16:11:45.86</time>
<name>879</name>
</trkpt>
<trkpt lat="48.933195" lon="8.677115">
<ele>385.0</ele>
<speed>6.3</speed>
<course>150.2</course>
<desc>Speed 6.3 km/h Distance 1.75 km</desc>
<time>2010-03-03T16:11:46.86</time>
<name>880</name>
</trkpt>
<trkpt lat="48.933182" lon="8.677127">
<ele>385.0</ele>
<speed>6.0</speed>
<course>146.7</course>
<desc>Speed 6.0 km/h Distance 1.75 km</desc>
<time>2010-03-03T16:11:47.86</time>
<name>881</name>
</trkpt>
<trkpt lat="48.933167" lon="8.677142">
<ele>385.0</ele>
<speed>6.4</speed>
<course>146.6</course>
<desc>Speed 6.4 km/h Distance 1.76 km</desc>
<time>2010-03-03T16:11:48.86</time>
<name>882</name>
</trkpt>
<trkpt lat="48.933153" lon="8.677155">
<ele>385.0</ele>
<speed>6.2</speed>
<course>153.0</course>
<desc>Speed 6.2 km/h Distance 1.76 km</desc>
<time>2010-03-03T16:11:49.86</time>
<name>883</name>
</trkpt>
<trkpt lat="48.933138" lon="8.677167">
<ele>385.0</ele>
<speed>6.3</speed>
<course>153.1</course>
<desc>Speed 6.3 km/h Distance 1.76 km</desc>
<time>2010-03-03T16:11:50.86</time>
<name>884</name>
</trkpt>
<trkpt lat="48.933123" lon="8.677178">
<ele>385.0</ele>
<speed>6.4</speed>
<course>149.7</course>
<desc>Speed 6.4 km/h Distance 1.76 km</desc>
<time>2010-03-03T16:11:51.87</time>
<name>885</name>
</trkpt>
<trkpt lat="48.933108" lon="8.677192">
<ele>385.5</ele>
<speed>6.3</speed>
<course>146.6</course>
<desc>Speed 6.3 km/h Distance 1.76 km</desc>
<time>2010-03-03T16:11:52.88</time>
<name>886</name>
</trkpt>
<trkpt lat="48.933095" lon="8.677205">
<ele>385.5</ele>
<speed>6.3</speed>
<course>149.7</course>
<desc>Speed 6.3 km/h Distance 1.77 km</desc>
<time>2010-03-03T16:11:53.88</time>
<name>887</name>
</trkpt>
<trkpt lat="48.933080" lon="8.677218">
<ele>385.0</ele>
<speed>6.1</speed>
<course>146.6</course>
<desc>Speed 6.1 km/h Distance 1.77 km</desc>
<time>2010-03-03T16:11:54.88</time>
<name>888</name>
</trkpt>
<trkpt lat="48.933067" lon="8.677232">
<ele>384.5</ele>
<speed>6.1</speed>
<course>154.0</course>
<desc>Speed 6.1 km/h Distance 1.77 km</desc>
<time>2010-03-03T16:11:55.88</time>
<name>889</name>
</trkpt>
<trkpt lat="48.933053" lon="8.677242">
<ele>384.5</ele>
<speed>6.0</speed>
<course>161.6</course>
<desc>Speed 6.0 km/h Distance 1.77 km</desc>
<time>2010-03-03T16:11:56.88</time>
<name>890</name>
</trkpt>
<trkpt lat="48.933040" lon="8.677248">
<ele>384.5</ele>
<speed>5.3</speed>
<course>150.2</course>
<desc>Speed 5.3 km/h Distance 1.77 km</desc>
<time>2010-03-03T16:11:57.88</time>
<name>891</name>
</trkpt>
<trkpt lat="48.933027" lon="8.677260">
<ele>384.5</ele>
<speed>5.6</speed>
<course>153.0</course>
<desc>Speed 5.6 km/h Distance 1.77 km</desc>
<time>2010-03-03T16:11:58.88</time>
<name>892</name>
</trkpt>
<trkpt lat="48.933012" lon="8.677272">
<ele>384.5</ele>
<speed>6.2</speed>
<course>154.0</course>
<desc>Speed 6.2 km/h Distance 1.78 km</desc>
<time>2010-03-03T16:11:59.88</time>
<name>893</name>
</trkpt>
<trkpt lat="48.932998" lon="8.677282">
<ele>384.5</ele>
<speed>6.3</speed>
<course>155.5</course>
<desc>Speed 6.3 km/h Distance 1.78 km</desc>
<time>2010-03-03T16:12:00.88</time>
<name>894</name>
</trkpt>
<trkpt lat="48.932982" lon="8.677293">
<ele>384.5</ele>
<speed>6.4</speed>
<course>150.2</course>
<desc>Speed 6.4 km/h Distance 1.78 km</desc>
<time>2010-03-03T16:12:01.88</time>
<name>895</name>
</trkpt>
<trkpt lat="48.932968" lon="8.677305">
<ele>384.5</ele>
<speed>6.1</speed>
<course>156.3</course>
<desc>Speed 6.1 km/h Distance 1.78 km</desc>
<time>2010-03-03T16:12:02.88</time>
<name>896</name>
</trkpt>
<trkpt lat="48.932953" lon="8.677315">
<ele>384.5</ele>
<speed>6.6</speed>
<course>153.6</course>
<desc>Speed 6.6 km/h Distance 1.78 km</desc>
<time>2010-03-03T16:12:03.88</time>
<name>897</name>
</trkpt>
<trkpt lat="48.932940" lon="8.677325">
<ele>384.5</ele>
<speed>5.9</speed>
<course>157.4</course>
<desc>Speed 5.9 km/h Distance 1.78 km</desc>
<time>2010-03-03T16:12:04.88</time>
<name>898</name>
</trkpt>
<trkpt lat="48.932927" lon="8.677333">
<ele>384.5</ele>
<speed>5.9</speed>
<course>154.0</course>
<desc>Speed 5.9 km/h Distance 1.79 km</desc>
<time>2010-03-03T16:12:05.88</time>
<name>899</name>
</trkpt>
<trkpt lat="48.932913" lon="8.677343">
<ele>384.5</ele>
<speed>6.3</speed>
<course>152.8</course>
<desc>Speed 6.3 km/h Distance 1.79 km</desc>
<time>2010-03-03T16:12:06.90</time>
<name>900</name>
</trkpt>
<trkpt lat="48.932898" lon="8.677355">
<ele>384.5</ele>
<speed>6.3</speed>
<course>146.6</course>
<desc>Speed 6.3 km/h Distance 1.79 km</desc>
<time>2010-03-03T16:12:07.90</time>
<name>901</name>
</trkpt>
<trkpt lat="48.932887" lon="8.677367">
<ele>384.0</ele>
<speed>5.9</speed>
<course>146.6</course>
<desc>Speed 5.9 km/h Distance 1.79 km</desc>
<time>2010-03-03T16:12:08.90</time>
<name>902</name>
</trkpt>
<trkpt lat="48.932875" lon="8.677378">
<ele>384.0</ele>
<speed>5.7</speed>
<course>143.0</course>
<desc>Speed 5.7 km/h Distance 1.79 km</desc>
<time>2010-03-03T16:12:09.90</time>
<name>903</name>
</trkpt>
<trkpt lat="48.932863" lon="8.677392">
<ele>384.0</ele>
<speed>5.9</speed>
<course>139.8</course>
<desc>Speed 5.9 km/h Distance 1.79 km</desc>
<time>2010-03-03T16:12:10.90</time>
<name>904</name>
</trkpt>
<trkpt lat="48.932852" lon="8.677407">
<ele>384.0</ele>
<speed>6.3</speed>
<course>119.7</course>
<desc>Speed 6.3 km/h Distance 1.80 km</desc>
<time>2010-03-03T16:12:11.90</time>
<name>905</name>
</trkpt>
<trkpt lat="48.932847" lon="8.677420">
<ele>383.0</ele>
<speed>4.1</speed>
<course>112.5</course>
<desc>Speed 4.1 km/h Distance 1.80 km</desc>
<time>2010-03-03T16:12:12.90</time>
<name>906</name>
</trkpt>
<trkpt lat="48.932842" lon="8.677438">
<ele>383.0</ele>
<speed>5.0</speed>
<course>110.8</course>
<desc>Speed 5.0 km/h Distance 1.80 km</desc>
<time>2010-03-03T16:12:13.90</time>
<name>907</name>
</trkpt>
<trkpt lat="48.932837" lon="8.677458">
<ele>383.0</ele>
<speed>5.7</speed>
<course>90.0</course>
<desc>Speed 5.7 km/h Distance 1.80 km</desc>
<time>2010-03-03T16:12:14.90</time>
<name>908</name>
</trkpt>
<trkpt lat="48.932837" lon="8.677478">
<ele>383.0</ele>
<speed>5.2</speed>
<course>109.4</course>
<desc>Speed 5.2 km/h Distance 1.80 km</desc>
<time>2010-03-03T16:12:15.90</time>
<name>909</name>
</trkpt>
<trkpt lat="48.932832" lon="8.677500">
<ele>382.5</ele>
<speed>6.0</speed>
<course>90.0</course>
<desc>Speed 6.0 km/h Distance 1.80 km</desc>
<time>2010-03-03T16:12:16.90</time>
<name>910</name>
</trkpt>
<trkpt lat="48.932832" lon="8.677517">
<ele>382.0</ele>
<speed>4.4</speed>
<course>90.0</course>
<desc>Speed 4.4 km/h Distance 1.80 km</desc>
<time>2010-03-03T16:12:17.90</time>
<name>911</name>
</trkpt>
<trkpt lat="48.932832" lon="8.677528">
<ele>382.0</ele>
<speed>3.3</speed>
<course>110.5</course>
<desc>Speed 3.3 km/h Distance 1.81 km</desc>
<time>2010-03-03T16:12:18.90</time>
<name>912</name>
</trkpt>
<trkpt lat="48.932830" lon="8.677535">
<ele>382.0</ele>
<speed>1.7</speed>
<course>12.6</course>
<desc>Speed 1.7 km/h Distance 1.81 km</desc>
<time>2010-03-03T16:12:19.91</time>
<name>913</name>
</trkpt>
<trkpt lat="48.932832" lon="8.677535">
<ele>381.5</ele>
<speed>0.3</speed>
<course>270.0</course>
<desc>Speed 0.3 km/h Distance 1.81 km</desc>
<time>2010-03-03T16:12:21.05</time>
<name>914</name>
</trkpt>
<trkpt lat="48.932832" lon="8.677533">
<ele>381.5</ele>
<speed>0.3</speed>
<course>106.7</course>
<desc>Speed 0.3 km/h Distance 1.81 km</desc>
<time>2010-03-03T16:12:21.93</time>
<name>915</name>
</trkpt>
<trkpt lat="48.932830" lon="8.677542">
<ele>381.5</ele>
<speed>2.2</speed>
<course>52.7</course>
<desc>Speed 2.2 km/h Distance 1.81 km</desc>
<time>2010-03-03T16:12:22.93</time>
<name>916</name>
</trkpt>
<trkpt lat="48.932837" lon="8.677555">
<ele>381.5</ele>
<speed>4.4</speed>
<course>47.6</course>
<desc>Speed 4.4 km/h Distance 1.81 km</desc>
<time>2010-03-03T16:12:23.93</time>
<name>917</name>
</trkpt>
<trkpt lat="48.932847" lon="8.677572">
<ele>381.5</ele>
<speed>5.5</speed>
<course>52.7</course>
<desc>Speed 5.5 km/h Distance 1.81 km</desc>
<time>2010-03-03T16:12:24.93</time>
<name>918</name>
</trkpt>
<trkpt lat="48.932855" lon="8.677588">
<ele>381.5</ele>
<speed>5.7</speed>
<course>40.4</course>
<desc>Speed 5.7 km/h Distance 1.81 km</desc>
<time>2010-03-03T16:12:25.93</time>
<name>919</name>
</trkpt>
<trkpt lat="48.932867" lon="8.677603">
<ele>381.5</ele>
<speed>5.8</speed>
<course>47.6</course>
<desc>Speed 5.8 km/h Distance 1.81 km</desc>
<time>2010-03-03T16:12:26.93</time>
<name>920</name>
</trkpt>
<trkpt lat="48.932877" lon="8.677620">
<ele>381.5</ele>
<speed>5.8</speed>
<course>47.6</course>
<desc>Speed 5.8 km/h Distance 1.81 km</desc>
<time>2010-03-03T16:12:27.93</time>
<name>921</name>
</trkpt>
<trkpt lat="48.932887" lon="8.677637">
<ele>381.0</ele>
<speed>5.7</speed>
<course>37.0</course>
<desc>Speed 5.7 km/h Distance 1.82 km</desc>
<time>2010-03-03T16:12:28.93</time>
<name>922</name>
</trkpt>
<trkpt lat="48.932898" lon="8.677650">
<ele>381.0</ele>
<speed>5.7</speed>
<course>106.7</course>
<desc>Speed 5.7 km/h Distance 1.82 km</desc>
<time>2010-03-03T16:12:29.93</time>
<name>923</name>
</trkpt>
<trkpt lat="48.932897" lon="8.677658">
<ele>381.0</ele>
<speed>2.3</speed>
<course>128.1</course>
<desc>Speed 2.3 km/h Distance 1.82 km</desc>
<time>2010-03-03T16:12:30.93</time>
<name>924</name>
</trkpt>
<trkpt lat="48.932895" lon="8.677662">
<ele>380.5</ele>
<speed>1.4</speed>
<course>180.0</course>
<desc>Speed 1.4 km/h Distance 1.82 km</desc>
<time>2010-03-03T16:12:31.93</time>
<name>925</name>
</trkpt>
<trkpt lat="48.932892" lon="8.677662">
<ele>380.5</ele>
<speed>1.7</speed>
<course>142.8</course>
<desc>Speed 1.7 km/h Distance 1.82 km</desc>
<time>2010-03-03T16:12:32.93</time>
<name>926</name>
</trkpt>
<trkpt lat="48.932890" lon="8.677663">
<ele>380.5</ele>
<speed>1.5</speed>
<course>167.4</course>
<desc>Speed 1.5 km/h Distance 1.82 km</desc>
<time>2010-03-03T16:12:33.93</time>
<name>927</name>
</trkpt>
<trkpt lat="48.932888" lon="8.677663">
<ele>379.5</ele>
<speed>0.8</speed>
<course>167.4</course>
<desc>Speed 0.8 km/h Distance 1.82 km</desc>
<time>2010-03-03T16:12:34.93</time>
<name>928</name>
</trkpt>
<trkpt lat="48.932888" lon="8.677663">
<ele>379.5</ele>
<speed>0.1</speed>
<course>270.0</course>
<desc>Speed 0.1 km/h Distance 1.82 km</desc>
<time>2010-03-03T16:12:35.93</time>
<name>929</name>
</trkpt>
<trkpt lat="48.932888" lon="8.677662">
<ele>379.5</ele>
<speed>0.1</speed>
<course>270.0</course>
<desc>Speed 0.1 km/h Distance 1.82 km</desc>
<time>2010-03-03T16:12:36.93</time>
<name>930</name>
</trkpt>
<trkpt lat="48.932888" lon="8.677662">
<ele>379.5</ele>
<speed>0.1</speed>
<course>90.0</course>
<desc>Speed 0.1 km/h Distance 1.82 km</desc>
<time>2010-03-03T16:12:37.93</time>
<name>931</name>
</trkpt>
<trkpt lat="48.932888" lon="8.677663">
<ele>379.5</ele>
<speed>0.1</speed>
<course>90.0</course>
<desc>Speed 0.1 km/h Distance 1.82 km</desc>
<time>2010-03-03T16:12:38.93</time>
<name>932</name>
</trkpt>
<trkpt lat="48.932888" lon="8.677663">
<ele>379.5</ele>
<speed>0.5</speed>
<course>90.0</course>
<desc>Speed 0.5 km/h Distance 1.82 km</desc>
<time>2010-03-03T16:12:39.93</time>
<name>933</name>
</trkpt>
<trkpt lat="48.932888" lon="8.677663">
<ele>379.5</ele>
<speed>0.4</speed>
<course>12.6</course>
<desc>Speed 0.4 km/h Distance 1.82 km</desc>
<time>2010-03-03T16:12:40.93</time>
<name>934</name>
</trkpt>
<trkpt lat="48.932890" lon="8.677663">
<ele>379.5</ele>
<speed>0.3</speed>
<course>180.0</course>
<desc>Speed 0.3 km/h Distance 1.82 km</desc>
<time>2010-03-03T16:12:41.93</time>
<name>935</name>
</trkpt>
<trkpt lat="48.932885" lon="8.677663">
<ele>379.5</ele>
<speed>1.6</speed>
<course>180.0</course>
<desc>Speed 1.6 km/h Distance 1.82 km</desc>
<time>2010-03-03T16:12:42.93</time>
<name>936</name>
</trkpt>
<trkpt lat="48.932885" lon="8.677663">
<ele>379.5</ele>
<speed>0.1</speed>
<course>12.6</course>
<desc>Speed 0.1 km/h Distance 1.82 km</desc>
<time>2010-03-03T16:12:43.93</time>
<name>937</name>
</trkpt>
<trkpt lat="48.932887" lon="8.677663">
<ele>379.5</ele>
<speed>0.1</speed>
<course>90.0</course>
<desc>Speed 0.1 km/h Distance 1.82 km</desc>
<time>2010-03-03T16:12:44.93</time>
<name>938</name>
</trkpt>
<trkpt lat="48.932887" lon="8.677665">
<ele>379.5</ele>
<speed>0.1</speed>
<course>90.0</course>
<desc>Speed 0.1 km/h Distance 1.82 km</desc>
<time>2010-03-03T16:12:45.93</time>
<name>939</name>
</trkpt>
<trkpt lat="48.932887" lon="8.677665">
<ele>379.5</ele>
<speed>0.2</speed>
<course>90.0</course>
<desc>Speed 0.2 km/h Distance 1.82 km</desc>
<time>2010-03-03T16:12:46.93</time>
<name>940</name>
</trkpt>
<trkpt lat="48.932887" lon="8.677665">
<ele>379.5</ele>
<speed>0.3</speed>
<course>347.4</course>
<desc>Speed 0.3 km/h Distance 1.82 km</desc>
<time>2010-03-03T16:12:47.93</time>
<name>941</name>
</trkpt>
<trkpt lat="48.932890" lon="8.677663">
<ele>380.5</ele>
<speed>1.5</speed>
<course>37.2</course>
<desc>Speed 1.5 km/h Distance 1.82 km</desc>
<time>2010-03-03T16:12:48.93</time>
<name>942</name>
</trkpt>
<trkpt lat="48.932892" lon="8.677665">
<ele>380.5</ele>
<speed>0.5</speed>
<course>37.2</course>
<desc>Speed 0.5 km/h Distance 1.82 km</desc>
<time>2010-03-03T16:12:49.93</time>
<name>943</name>
</trkpt>
<trkpt lat="48.932892" lon="8.677665">
<ele>380.5</ele>
<speed>0.5</speed>
<course>37.2</course>
<desc>Speed 0.5 km/h Distance 1.82 km</desc>
<time>2010-03-03T16:12:50.93</time>
<name>944</name>
</trkpt>
<trkpt lat="48.932892" lon="8.677665">
<ele>380.5</ele>
<speed>0.4</speed>
<course>90.0</course>
<desc>Speed 0.4 km/h Distance 1.82 km</desc>
<time>2010-03-03T16:12:51.93</time>
<name>945</name>
</trkpt>
<trkpt lat="48.932892" lon="8.677667">
<ele>380.5</ele>
<speed>0.2</speed>
<course>0.0</course>
<desc>Speed 0.2 km/h Distance 1.82 km</desc>
<time>2010-03-03T16:12:52.93</time>
<name>946</name>
</trkpt>
<trkpt lat="48.932893" lon="8.677667">
<ele>380.5</ele>
<speed>0.1</speed>
<course>0.0</course>
<desc>Speed 0.1 km/h Distance 1.82 km</desc>
<time>2010-03-03T16:12:53.93</time>
<name>947</name>
</trkpt>
<trkpt lat="48.932893" lon="8.677667">
<ele>380.5</ele>
<speed>0.3</speed>
<course>90.0</course>
<desc>Speed 0.3 km/h Distance 1.82 km</desc>
<time>2010-03-03T16:12:54.93</time>
<name>948</name>
</trkpt>
<trkpt lat="48.932893" lon="8.677668">
<ele>381.0</ele>
<speed>0.2</speed>
<course>90.0</course>
<desc>Speed 0.2 km/h Distance 1.82 km</desc>
<time>2010-03-03T16:12:55.93</time>
<name>949</name>
</trkpt>
<trkpt lat="48.932893" lon="8.677668">
<ele>381.0</ele>
<speed>0.4</speed>
<course>12.6</course>
<desc>Speed 0.4 km/h Distance 1.82 km</desc>
<time>2010-03-03T16:12:56.93</time>
<name>950</name>
</trkpt>
<trkpt lat="48.932895" lon="8.677670">
<ele>381.0</ele>
<speed>0.6</speed>
<course>12.6</course>
<desc>Speed 0.6 km/h Distance 1.82 km</desc>
<time>2010-03-03T16:12:57.93</time>
<name>951</name>
</trkpt>
<trkpt lat="48.932895" lon="8.677670">
<ele>381.0</ele>
<speed>0.3</speed>
<course>12.6</course>
<desc>Speed 0.3 km/h Distance 1.82 km</desc>
<time>2010-03-03T16:12:58.93</time>
<name>952</name>
</trkpt>
<trkpt lat="48.932895" lon="8.677670">
<ele>381.0</ele>
<speed>0.1</speed>
<course>12.6</course>
<desc>Speed 0.1 km/h Distance 1.82 km</desc>
<time>2010-03-03T16:12:59.93</time>
<name>953</name>
</trkpt>
<trkpt lat="48.932895" lon="8.677670">
<ele>381.0</ele>
<speed>0.4</speed>
<course>12.6</course>
<desc>Speed 0.4 km/h Distance 1.82 km</desc>
<time>2010-03-03T16:13:00.93</time>
<name>954</name>
</trkpt>
<trkpt lat="48.932895" lon="8.677670">
<ele>381.0</ele>
<speed>0.1</speed>
<course>12.6</course>
<desc>Speed 0.1 km/h Distance 1.82 km</desc>
<time>2010-03-03T16:13:01.93</time>
<name>955</name>
</trkpt>
<trkpt lat="48.932895" lon="8.677670">
<ele>381.0</ele>
<speed>0.1</speed>
<course>12.6</course>
<desc>Speed 0.1 km/h Distance 1.82 km</desc>
<time>2010-03-03T16:13:02.93</time>
<name>956</name>
</trkpt>
<trkpt lat="48.932895" lon="8.677672">
<ele>381.0</ele>
<speed>0.3</speed>
<course>12.6</course>
<desc>Speed 0.3 km/h Distance 1.82 km</desc>
<time>2010-03-03T16:13:03.93</time>
<name>957</name>
</trkpt>
<trkpt lat="48.932895" lon="8.677672">
<ele>381.0</ele>
<speed>0.4</speed>
<course>12.6</course>
<desc>Speed 0.4 km/h Distance 1.82 km</desc>
<time>2010-03-03T16:13:04.93</time>
<name>958</name>
</trkpt>
<trkpt lat="48.932895" lon="8.677672">
<ele>381.0</ele>
<speed>0.0</speed>
<course>12.6</course>
<desc>Speed 0.0 km/h Distance 1.82 km</desc>
<time>2010-03-03T16:13:05.93</time>
<name>959</name>
</trkpt>
<trkpt lat="48.932895" lon="8.677672">
<ele>381.0</ele>
<speed>0.3</speed>
<course>12.6</course>
<desc>Speed 0.3 km/h Distance 1.82 km</desc>
<time>2010-03-03T16:13:06.93</time>
<name>960</name>
</trkpt>
<trkpt lat="48.932895" lon="8.677672">
<ele>381.0</ele>
<speed>0.3</speed>
<course>12.6</course>
<desc>Speed 0.3 km/h Distance 1.82 km</desc>
<time>2010-03-03T16:13:07.93</time>
<name>961</name>
</trkpt>
<trkpt lat="48.932895" lon="8.677672">
<ele>381.0</ele>
<speed>0.1</speed>
<course>12.6</course>
<desc>Speed 0.1 km/h Distance 1.82 km</desc>
<time>2010-03-03T16:13:08.93</time>
<name>962</name>
</trkpt>
<trkpt lat="48.932895" lon="8.677672">
<ele>381.0</ele>
<speed>0.3</speed>
<course>12.6</course>
<desc>Speed 0.3 km/h Distance 1.82 km</desc>
<time>2010-03-03T16:13:09.93</time>
<name>963</name>
</trkpt>
<trkpt lat="48.932895" lon="8.677672">
<ele>381.0</ele>
<speed>0.4</speed>
<course>12.6</course>
<desc>Speed 0.4 km/h Distance 1.82 km</desc>
<time>2010-03-03T16:13:10.93</time>
<name>964</name>
</trkpt>
<trkpt lat="48.932895" lon="8.677672">
<ele>381.5</ele>
<speed>0.1</speed>
<course>12.6</course>
<desc>Speed 0.1 km/h Distance 1.82 km</desc>
<time>2010-03-03T16:13:11.93</time>
<name>965</name>
</trkpt>
<trkpt lat="48.932895" lon="8.677672">
<ele>381.5</ele>
<speed>0.4</speed>
<course>0.0</course>
<desc>Speed 0.4 km/h Distance 1.82 km</desc>
<time>2010-03-03T16:13:12.93</time>
<name>966</name>
</trkpt>
<trkpt lat="48.932897" lon="8.677672">
<ele>381.5</ele>
<speed>0.2</speed>
<course>0.0</course>
<desc>Speed 0.2 km/h Distance 1.82 km</desc>
<time>2010-03-03T16:13:13.93</time>
<name>967</name>
</trkpt>
<trkpt lat="48.932897" lon="8.677672">
<ele>381.5</ele>
<speed>0.2</speed>
<course>90.0</course>
<desc>Speed 0.2 km/h Distance 1.82 km</desc>
<time>2010-03-03T16:13:14.93</time>
<name>968</name>
</trkpt>
<trkpt lat="48.932897" lon="8.677673">
<ele>381.5</ele>
<speed>0.6</speed>
<course>90.0</course>
<desc>Speed 0.6 km/h Distance 1.82 km</desc>
<time>2010-03-03T16:13:15.93</time>
<name>969</name>
</trkpt>
<trkpt lat="48.932897" lon="8.677673">
<ele>381.5</ele>
<speed>0.1</speed>
<course>90.0</course>
<desc>Speed 0.1 km/h Distance 1.82 km</desc>
<time>2010-03-03T16:13:16.93</time>
<name>970</name>
</trkpt>
<trkpt lat="48.932897" lon="8.677673">
<ele>381.5</ele>
<speed>0.2</speed>
<course>90.0</course>
<desc>Speed 0.2 km/h Distance 1.82 km</desc>
<time>2010-03-03T16:13:17.93</time>
<name>971</name>
</trkpt>
<trkpt lat="48.932897" lon="8.677673">
<ele>381.5</ele>
<speed>0.3</speed>
<course>90.0</course>
<desc>Speed 0.3 km/h Distance 1.82 km</desc>
<time>2010-03-03T16:13:18.93</time>
<name>972</name>
</trkpt>
<trkpt lat="48.932897" lon="8.677673">
<ele>381.5</ele>
<speed>0.3</speed>
<course>90.0</course>
<desc>Speed 0.3 km/h Distance 1.82 km</desc>
<time>2010-03-03T16:13:19.93</time>
<name>973</name>
</trkpt>
<trkpt lat="48.932897" lon="8.677673">
<ele>381.5</ele>
<speed>0.1</speed>
<course>90.0</course>
<desc>Speed 0.1 km/h Distance 1.82 km</desc>
<time>2010-03-03T16:13:20.93</time>
<name>974</name>
</trkpt>
<trkpt lat="48.932897" lon="8.677673">
<ele>381.5</ele>
<speed>0.2</speed>
<course>90.0</course>
<desc>Speed 0.2 km/h Distance 1.82 km</desc>
<time>2010-03-03T16:13:21.93</time>
<name>975</name>
</trkpt>
<trkpt lat="48.932897" lon="8.677673">
<ele>381.5</ele>
<speed>0.3</speed>
<course>107.1</course>
<desc>Speed 0.3 km/h Distance 1.82 km</desc>
<time>2010-03-03T16:13:22.93</time>
<name>976</name>
</trkpt>
<trkpt lat="48.932895" lon="8.677682">
<ele>381.5</ele>
<speed>2.5</speed>
<course>107.1</course>
<desc>Speed 2.5 km/h Distance 1.82 km</desc>
<time>2010-03-03T16:13:23.93</time>
<name>977</name>
</trkpt>
<trkpt lat="48.932895" lon="8.677682">
<ele>381.5</ele>
<speed>0.6</speed>
<course>337.0</course>
<desc>Speed 0.6 km/h Distance 1.82 km</desc>
<time>2010-03-03T16:13:24.93</time>
<name>978</name>
</trkpt>
<trkpt lat="48.932898" lon="8.677680">
<ele>382.0</ele>
<speed>0.9</speed>
<course>12.6</course>
<desc>Speed 0.9 km/h Distance 1.82 km</desc>
<time>2010-03-03T16:13:25.93</time>
<name>979</name>
</trkpt>
<trkpt lat="48.932900" lon="8.677680">
<ele>382.0</ele>
<speed>0.7</speed>
<course>12.6</course>
<desc>Speed 0.7 km/h Distance 1.82 km</desc>
<time>2010-03-03T16:13:26.93</time>
<name>980</name>
</trkpt>
<trkpt lat="48.932900" lon="8.677680">
<ele>382.0</ele>
<speed>0.1</speed>
<course>12.6</course>
<desc>Speed 0.1 km/h Distance 1.82 km</desc>
<time>2010-03-03T16:13:27.93</time>
<name>981</name>
</trkpt>
<trkpt lat="48.932902" lon="8.677680">
<ele>381.5</ele>
<speed>0.5</speed>
<course>7.4</course>
<desc>Speed 0.5 km/h Distance 1.82 km</desc>
<time>2010-03-03T16:13:28.93</time>
<name>982</name>
</trkpt>
<trkpt lat="48.932908" lon="8.677682">
<ele>381.5</ele>
<speed>2.3</speed>
<course>4.4</course>
<desc>Speed 2.3 km/h Distance 1.83 km</desc>
<time>2010-03-03T16:13:29.93</time>
<name>983</name>
</trkpt>
<trkpt lat="48.932918" lon="8.677682">
<ele>381.5</ele>
<speed>4.0</speed>
<course>8.8</course>
<desc>Speed 4.0 km/h Distance 1.83 km</desc>
<time>2010-03-03T16:13:30.93</time>
<name>984</name>
</trkpt>
<trkpt lat="48.932933" lon="8.677685">
<ele>380.5</ele>
<speed>5.4</speed>
<course>0.0</course>
<desc>Speed 5.4 km/h Distance 1.83 km</desc>
<time>2010-03-03T16:13:31.93</time>
<name>985</name>
</trkpt>
<trkpt lat="48.932945" lon="8.677685">
<ele>379.5</ele>
<speed>4.4</speed>
<course>355.0</course>
<desc>Speed 4.4 km/h Distance 1.83 km</desc>
<time>2010-03-03T16:13:32.93</time>
<name>986</name>
</trkpt>
<trkpt lat="48.932960" lon="8.677683">
<ele>379.0</ele>
<speed>4.6</speed>
<course>332.1</course>
<desc>Speed 4.6 km/h Distance 1.83 km</desc>
<time>2010-03-03T16:13:33.93</time>
<name>987</name>
</trkpt>
<trkpt lat="48.932968" lon="8.677677">
<ele>379.0</ele>
<speed>3.6</speed>
<course>326.8</course>
<desc>Speed 3.6 km/h Distance 1.83 km</desc>
<time>2010-03-03T16:13:34.93</time>
<name>988</name>
</trkpt>
<trkpt lat="48.932977" lon="8.677668">
<ele>379.0</ele>
<speed>3.6</speed>
<course>330.6</course>
<desc>Speed 3.6 km/h Distance 1.83 km</desc>
<time>2010-03-03T16:13:35.93</time>
<name>989</name>
</trkpt>
<trkpt lat="48.932988" lon="8.677658">
<ele>378.5</ele>
<speed>4.5</speed>
<course>346.5</course>
<desc>Speed 4.5 km/h Distance 1.83 km</desc>
<time>2010-03-03T16:13:36.93</time>
<name>990</name>
</trkpt>
<trkpt lat="48.933002" lon="8.677653">
<ele>377.0</ele>
<speed>4.6</speed>
<course>344.5</course>
<desc>Speed 4.6 km/h Distance 1.84 km</desc>
<time>2010-03-03T16:13:37.93</time>
<name>991</name>
</trkpt>
<trkpt lat="48.933013" lon="8.677648">
<ele>377.0</ele>
<speed>3.9</speed>
<course>332.1</course>
<desc>Speed 3.9 km/h Distance 1.84 km</desc>
<time>2010-03-03T16:13:38.93</time>
<name>992</name>
</trkpt>
<trkpt lat="48.933022" lon="8.677642">
<ele>377.5</ele>
<speed>2.4</speed>
<course>355.0</course>
<desc>Speed 2.4 km/h Distance 1.84 km</desc>
<time>2010-03-03T16:13:39.93</time>
<name>993</name>
</trkpt>
<trkpt lat="48.933030" lon="8.677640">
<ele>377.5</ele>
<speed>2.7</speed>
<course>330.2</course>
<desc>Speed 2.7 km/h Distance 1.84 km</desc>
<time>2010-03-03T16:13:40.93</time>
<name>994</name>
</trkpt>
<trkpt lat="48.933043" lon="8.677628">
<ele>377.0</ele>
<speed>5.1</speed>
<course>333.1</course>
<desc>Speed 5.1 km/h Distance 1.84 km</desc>
<time>2010-03-03T16:13:41.93</time>
<name>995</name>
</trkpt>
<trkpt lat="48.933058" lon="8.677617">
<ele>377.0</ele>
<speed>5.4</speed>
<course>323.4</course>
<desc>Speed 5.4 km/h Distance 1.84 km</desc>
<time>2010-03-03T16:13:42.93</time>
<name>996</name>
</trkpt>
<trkpt lat="48.933072" lon="8.677602">
<ele>376.5</ele>
<speed>5.4</speed>
<course>323.6</course>
<desc>Speed 5.4 km/h Distance 1.84 km</desc>
<time>2010-03-03T16:13:43.93</time>
<name>997</name>
</trkpt>
<trkpt lat="48.933085" lon="8.677587">
<ele>377.0</ele>
<speed>5.5</speed>
<course>333.1</course>
<desc>Speed 5.5 km/h Distance 1.85 km</desc>
<time>2010-03-03T16:13:44.93</time>
<name>998</name>
</trkpt>
<trkpt lat="48.933100" lon="8.677575">
<ele>376.5</ele>
<speed>5.5</speed>
<course>338.5</course>
<desc>Speed 5.5 km/h Distance 1.85 km</desc>
<time>2010-03-03T16:13:45.93</time>
<name>999</name>
</trkpt>
<trkpt lat="48.933117" lon="8.677565">
<ele>376.5</ele>
<speed>5.6</speed>
<course>336.3</course>
<desc>Speed 5.6 km/h Distance 1.85 km</desc>
<time>2010-03-03T16:13:46.93</time>
<name>1000</name>
</trkpt>
<trkpt lat="48.933132" lon="8.677555">
<ele>376.5</ele>
<speed>5.5</speed>
<course>330.2</course>
<desc>Speed 5.5 km/h Distance 1.85 km</desc>
<time>2010-03-03T16:13:47.93</time>
<name>1001</name>
</trkpt>
<trkpt lat="48.933145" lon="8.677543">
<ele>376.5</ele>
<speed>5.7</speed>
<course>333.0</course>
<desc>Speed 5.7 km/h Distance 1.85 km</desc>
<time>2010-03-03T16:13:48.93</time>
<name>1002</name>
</trkpt>
<trkpt lat="48.933160" lon="8.677532">
<ele>377.0</ele>
<speed>5.3</speed>
<course>330.2</course>
<desc>Speed 5.3 km/h Distance 1.86 km</desc>
<time>2010-03-03T16:13:49.93</time>
<name>1003</name>
</trkpt>
<trkpt lat="48.933173" lon="8.677520">
<ele>377.5</ele>
<speed>5.5</speed>
<course>326.7</course>
<desc>Speed 5.5 km/h Distance 1.86 km</desc>
<time>2010-03-03T16:13:50.93</time>
<name>1004</name>
</trkpt>
<trkpt lat="48.933187" lon="8.677507">
<ele>377.5</ele>
<speed>5.5</speed>
<course>341.9</course>
<desc>Speed 5.5 km/h Distance 1.86 km</desc>
<time>2010-03-03T16:13:51.93</time>
<name>1005</name>
</trkpt>
<trkpt lat="48.933200" lon="8.677500">
<ele>378.5</ele>
<speed>5.5</speed>
<course>330.2</course>
<desc>Speed 5.5 km/h Distance 1.86 km</desc>
<time>2010-03-03T16:13:52.93</time>
<name>1006</name>
</trkpt>
<trkpt lat="48.933213" lon="8.677488">
<ele>378.5</ele>
<speed>5.6</speed>
<course>326.7</course>
<desc>Speed 5.6 km/h Distance 1.86 km</desc>
<time>2010-03-03T16:13:53.93</time>
<name>1007</name>
</trkpt>
<trkpt lat="48.933225" lon="8.677477">
<ele>378.5</ele>
<speed>5.8</speed>
<course>326.8</course>
<desc>Speed 5.8 km/h Distance 1.86 km</desc>
<time>2010-03-03T16:13:54.93</time>
<name>1008</name>
</trkpt>
<trkpt lat="48.933238" lon="8.677463">
<ele>378.0</ele>
<speed>5.8</speed>
<course>330.2</course>
<desc>Speed 5.8 km/h Distance 1.87 km</desc>
<time>2010-03-03T16:13:55.93</time>
<name>1009</name>
</trkpt>
<trkpt lat="48.933252" lon="8.677452">
<ele>378.5</ele>
<speed>5.8</speed>
<course>333.6</course>
<desc>Speed 5.8 km/h Distance 1.87 km</desc>
<time>2010-03-03T16:13:56.93</time>
<name>1010</name>
</trkpt>
<trkpt lat="48.933265" lon="8.677442">
<ele>378.0</ele>
<speed>5.7</speed>
<course>337.9</course>
<desc>Speed 5.7 km/h Distance 1.87 km</desc>
<time>2010-03-03T16:13:57.93</time>
<name>1011</name>
</trkpt>
<trkpt lat="48.933278" lon="8.677433">
<ele>378.0</ele>
<speed>5.9</speed>
<course>336.3</course>
<desc>Speed 5.9 km/h Distance 1.87 km</desc>
<time>2010-03-03T16:13:58.93</time>
<name>1012</name>
</trkpt>
<trkpt lat="48.933293" lon="8.677423">
<ele>378.0</ele>
<speed>5.8</speed>
<course>337.7</course>
<desc>Speed 5.8 km/h Distance 1.87 km</desc>
<time>2010-03-03T16:13:59.93</time>
<name>1013</name>
</trkpt>
<trkpt lat="48.933307" lon="8.677415">
<ele>378.5</ele>
<speed>5.9</speed>
<course>337.7</course>
<desc>Speed 5.9 km/h Distance 1.87 km</desc>
<time>2010-03-03T16:14:00.93</time>
<name>1014</name>
</trkpt>
<trkpt lat="48.933320" lon="8.677407">
<ele>378.5</ele>
<speed>5.8</speed>
<course>336.3</course>
<desc>Speed 5.8 km/h Distance 1.88 km</desc>
<time>2010-03-03T16:14:01.93</time>
<name>1015</name>
</trkpt>
<trkpt lat="48.933335" lon="8.677397">
<ele>378.5</ele>
<speed>5.8</speed>
<course>337.7</course>
<desc>Speed 5.8 km/h Distance 1.88 km</desc>
<time>2010-03-03T16:14:02.93</time>
<name>1016</name>
</trkpt>
<trkpt lat="48.933348" lon="8.677388">
<ele>379.0</ele>
<speed>5.7</speed>
<course>323.0</course>
<desc>Speed 5.7 km/h Distance 1.88 km</desc>
<time>2010-03-03T16:14:03.93</time>
<name>1017</name>
</trkpt>
<trkpt lat="48.933360" lon="8.677375">
<ele>379.0</ele>
<speed>5.8</speed>
<course>330.2</course>
<desc>Speed 5.8 km/h Distance 1.88 km</desc>
<time>2010-03-03T16:14:04.93</time>
<name>1018</name>
</trkpt>
<trkpt lat="48.933373" lon="8.677363">
<ele>379.0</ele>
<speed>5.8</speed>
<course>330.0</course>
<desc>Speed 5.8 km/h Distance 1.88 km</desc>
<time>2010-03-03T16:14:05.93</time>
<name>1019</name>
</trkpt>
<trkpt lat="48.933387" lon="8.677352">
<ele>379.0</ele>
<speed>6.0</speed>
<course>333.6</course>
<desc>Speed 6.0 km/h Distance 1.88 km</desc>
<time>2010-03-03T16:14:06.93</time>
<name>1020</name>
</trkpt>
<trkpt lat="48.933400" lon="8.677342">
<ele>379.0</ele>
<speed>5.8</speed>
<course>330.2</course>
<desc>Speed 5.8 km/h Distance 1.89 km</desc>
<time>2010-03-03T16:14:07.93</time>
<name>1021</name>
</trkpt>
<trkpt lat="48.933413" lon="8.677330">
<ele>379.0</ele>
<speed>5.7</speed>
<course>326.6</course>
<desc>Speed 5.7 km/h Distance 1.89 km</desc>
<time>2010-03-03T16:14:08.93</time>
<name>1022</name>
</trkpt>
<trkpt lat="48.933425" lon="8.677318">
<ele>379.0</ele>
<speed>5.9</speed>
<course>330.0</course>
<desc>Speed 5.9 km/h Distance 1.89 km</desc>
<time>2010-03-03T16:14:09.93</time>
<name>1023</name>
</trkpt>
<trkpt lat="48.933438" lon="8.677307">
<ele>379.0</ele>
<speed>5.7</speed>
<course>326.6</course>
<desc>Speed 5.7 km/h Distance 1.89 km</desc>
<time>2010-03-03T16:14:10.93</time>
<name>1024</name>
</trkpt>
<trkpt lat="48.933452" lon="8.677293">
<ele>379.5</ele>
<speed>6.0</speed>
<course>330.2</course>
<desc>Speed 6.0 km/h Distance 1.89 km</desc>
<time>2010-03-03T16:14:11.93</time>
<name>1025</name>
</trkpt>
<trkpt lat="48.933465" lon="8.677282">
<ele>379.0</ele>
<speed>6.0</speed>
<course>330.2</course>
<desc>Speed 6.0 km/h Distance 1.89 km</desc>
<time>2010-03-03T16:14:12.93</time>
<name>1026</name>
</trkpt>
<trkpt lat="48.933478" lon="8.677270">
<ele>379.5</ele>
<speed>5.9</speed>
<course>330.2</course>
<desc>Speed 5.9 km/h Distance 1.90 km</desc>
<time>2010-03-03T16:14:13.93</time>
<name>1027</name>
</trkpt>
<trkpt lat="48.933492" lon="8.677258">
<ele>379.5</ele>
<speed>6.0</speed>
<course>336.5</course>
<desc>Speed 6.0 km/h Distance 1.90 km</desc>
<time>2010-03-03T16:14:14.93</time>
<name>1028</name>
</trkpt>
<trkpt lat="48.933507" lon="8.677248">
<ele>379.5</ele>
<speed>6.0</speed>
<course>323.1</course>
<desc>Speed 6.0 km/h Distance 1.90 km</desc>
<time>2010-03-03T16:14:15.93</time>
<name>1029</name>
</trkpt>
<trkpt lat="48.933518" lon="8.677235">
<ele>380.0</ele>
<speed>5.9</speed>
<course>329.9</course>
<desc>Speed 5.9 km/h Distance 1.90 km</desc>
<time>2010-03-03T16:14:16.93</time>
<name>1030</name>
</trkpt>
<trkpt lat="48.933532" lon="8.677223">
<ele>380.0</ele>
<speed>5.9</speed>
<course>323.1</course>
<desc>Speed 5.9 km/h Distance 1.90 km</desc>
<time>2010-03-03T16:14:17.93</time>
<name>1031</name>
</trkpt>
<trkpt lat="48.933543" lon="8.677210">
<ele>380.5</ele>
<speed>5.9</speed>
<course>330.2</course>
<desc>Speed 5.9 km/h Distance 1.90 km</desc>
<time>2010-03-03T16:14:18.93</time>
<name>1032</name>
</trkpt>
<trkpt lat="48.933557" lon="8.677198">
<ele>380.5</ele>
<speed>5.8</speed>
<course>330.2</course>
<desc>Speed 5.8 km/h Distance 1.91 km</desc>
<time>2010-03-03T16:14:19.93</time>
<name>1033</name>
</trkpt>
<trkpt lat="48.933570" lon="8.677187">
<ele>381.0</ele>
<speed>5.8</speed>
<course>330.2</course>
<desc>Speed 5.8 km/h Distance 1.91 km</desc>
<time>2010-03-03T16:14:20.93</time>
<name>1034</name>
</trkpt>
<trkpt lat="48.933583" lon="8.677175">
<ele>381.0</ele>
<speed>5.8</speed>
<course>326.6</course>
<desc>Speed 5.8 km/h Distance 1.91 km</desc>
<time>2010-03-03T16:14:21.93</time>
<name>1035</name>
</trkpt>
<trkpt lat="48.933595" lon="8.677163">
<ele>381.0</ele>
<speed>5.8</speed>
<course>330.2</course>
<desc>Speed 5.8 km/h Distance 1.91 km</desc>
<time>2010-03-03T16:14:22.93</time>
<name>1036</name>
</trkpt>
<trkpt lat="48.933608" lon="8.677152">
<ele>381.0</ele>
<speed>5.8</speed>
<course>334.0</course>
<desc>Speed 5.8 km/h Distance 1.91 km</desc>
<time>2010-03-03T16:14:23.93</time>
<name>1037</name>
</trkpt>
<trkpt lat="48.933622" lon="8.677142">
<ele>381.0</ele>
<speed>5.6</speed>
<course>326.6</course>
<desc>Speed 5.6 km/h Distance 1.91 km</desc>
<time>2010-03-03T16:14:24.93</time>
<name>1038</name>
</trkpt>
<trkpt lat="48.933635" lon="8.677128">
<ele>381.5</ele>
<speed>5.8</speed>
<course>330.2</course>
<desc>Speed 5.8 km/h Distance 1.92 km</desc>
<time>2010-03-03T16:14:25.93</time>
<name>1039</name>
</trkpt>
<trkpt lat="48.933648" lon="8.677117">
<ele>381.5</ele>
<speed>5.9</speed>
<course>326.6</course>
<desc>Speed 5.9 km/h Distance 1.92 km</desc>
<time>2010-03-03T16:14:26.93</time>
<name>1040</name>
</trkpt>
<trkpt lat="48.933662" lon="8.677103">
<ele>382.0</ele>
<speed>5.8</speed>
<course>330.2</course>
<desc>Speed 5.8 km/h Distance 1.92 km</desc>
<time>2010-03-03T16:14:27.93</time>
<name>1041</name>
</trkpt>
<trkpt lat="48.933675" lon="8.677092">
<ele>382.0</ele>
<speed>5.8</speed>
<course>326.7</course>
<desc>Speed 5.8 km/h Distance 1.92 km</desc>
<time>2010-03-03T16:14:28.93</time>
<name>1042</name>
</trkpt>
<trkpt lat="48.933687" lon="8.677080">
<ele>382.5</ele>
<speed>5.7</speed>
<course>334.0</course>
<desc>Speed 5.7 km/h Distance 1.92 km</desc>
<time>2010-03-03T16:14:29.93</time>
<name>1043</name>
</trkpt>
<trkpt lat="48.933700" lon="8.677070">
<ele>383.0</ele>
<speed>5.7</speed>
<course>330.2</course>
<desc>Speed 5.7 km/h Distance 1.93 km</desc>
<time>2010-03-03T16:14:30.93</time>
<name>1044</name>
</trkpt>
<trkpt lat="48.933713" lon="8.677058">
<ele>383.5</ele>
<speed>5.6</speed>
<course>330.2</course>
<desc>Speed 5.6 km/h Distance 1.93 km</desc>
<time>2010-03-03T16:14:31.93</time>
<name>1045</name>
</trkpt>
<trkpt lat="48.933727" lon="8.677047">
<ele>383.5</ele>
<speed>5.7</speed>
<course>326.6</course>
<desc>Speed 5.7 km/h Distance 1.93 km</desc>
<time>2010-03-03T16:14:32.93</time>
<name>1046</name>
</trkpt>
<trkpt lat="48.933738" lon="8.677035">
<ele>384.0</ele>
<speed>5.7</speed>
<course>323.1</course>
<desc>Speed 5.7 km/h Distance 1.93 km</desc>
<time>2010-03-03T16:14:33.93</time>
<name>1047</name>
</trkpt>
<trkpt lat="48.933750" lon="8.677022">
<ele>384.0</ele>
<speed>5.5</speed>
<course>334.8</course>
<desc>Speed 5.5 km/h Distance 1.93 km</desc>
<time>2010-03-03T16:14:34.93</time>
<name>1048</name>
</trkpt>
<trkpt lat="48.933762" lon="8.677013">
<ele>384.5</ele>
<speed>5.6</speed>
<course>330.2</course>
<desc>Speed 5.6 km/h Distance 1.93 km</desc>
<time>2010-03-03T16:14:35.93</time>
<name>1049</name>
</trkpt>
<trkpt lat="48.933775" lon="8.677002">
<ele>384.5</ele>
<speed>5.8</speed>
<course>337.4</course>
<desc>Speed 5.8 km/h Distance 1.93 km</desc>
<time>2010-03-03T16:14:36.93</time>
<name>1050</name>
</trkpt>
<trkpt lat="48.933788" lon="8.676993">
<ele>384.5</ele>
<speed>5.6</speed>
<course>337.4</course>
<desc>Speed 5.6 km/h Distance 1.94 km</desc>
<time>2010-03-03T16:14:37.93</time>
<name>1051</name>
</trkpt>
<trkpt lat="48.933802" lon="8.676985">
<ele>385.0</ele>
<speed>5.3</speed>
<course>4.4</course>
<desc>Speed 5.3 km/h Distance 1.94 km</desc>
<time>2010-03-03T16:14:38.93</time>
<name>1052</name>
</trkpt>
<trkpt lat="48.933812" lon="8.676985">
<ele>384.5</ele>
<speed>5.0</speed>
<course>36.9</course>
<desc>Speed 5.0 km/h Distance 1.94 km</desc>
<time>2010-03-03T16:14:39.93</time>
<name>1053</name>
</trkpt>
<trkpt lat="48.933823" lon="8.676998">
<ele>383.5</ele>
<speed>5.9</speed>
<course>47.1</course>
<desc>Speed 5.9 km/h Distance 1.94 km</desc>
<time>2010-03-03T16:14:40.93</time>
<name>1054</name>
</trkpt>
<trkpt lat="48.933828" lon="8.677007">
<ele>384.0</ele>
<speed>4.7</speed>
<course>104.2</course>
<desc>Speed 4.7 km/h Distance 1.94 km</desc>
<time>2010-03-03T16:14:41.93</time>
<name>1055</name>
</trkpt>
<trkpt lat="48.933827" lon="8.677017">
<ele>384.0</ele>
<speed>5.0</speed>
<course>99.6</course>
<desc>Speed 5.0 km/h Distance 1.94 km</desc>
<time>2010-03-03T16:14:42.93</time>
<name>1056</name>
</trkpt>
<trkpt lat="48.933825" lon="8.677032">
<ele>384.5</ele>
<speed>4.4</speed>
<course>97.2</course>
<desc>Speed 4.4 km/h Distance 1.94 km</desc>
<time>2010-03-03T16:14:43.93</time>
<name>1057</name>
</trkpt>
<trkpt lat="48.933823" lon="8.677052">
<ele>383.5</ele>
<speed>5.5</speed>
<course>116.9</course>
<desc>Speed 5.5 km/h Distance 1.94 km</desc>
<time>2010-03-03T16:14:44.93</time>
<name>1058</name>
</trkpt>
<trkpt lat="48.933818" lon="8.677067">
<ele>383.0</ele>
<speed>5.0</speed>
<course>119.7</course>
<desc>Speed 5.0 km/h Distance 1.95 km</desc>
<time>2010-03-03T16:14:45.93</time>
<name>1059</name>
</trkpt>
<trkpt lat="48.933813" lon="8.677080">
<ele>383.0</ele>
<speed>4.5</speed>
<course>114.6</course>
<desc>Speed 4.5 km/h Distance 1.95 km</desc>
<time>2010-03-03T16:14:46.93</time>
<name>1060</name>
</trkpt>
<trkpt lat="48.933808" lon="8.677097">
<ele>384.0</ele>
<speed>5.3</speed>
<course>108.7</course>
<desc>Speed 5.3 km/h Distance 1.95 km</desc>
<time>2010-03-03T16:14:47.93</time>
<name>1061</name>
</trkpt>
<trkpt lat="48.933805" lon="8.677112">
<ele>384.5</ele>
<speed>5.1</speed>
<course>112.5</course>
<desc>Speed 5.1 km/h Distance 1.95 km</desc>
<time>2010-03-03T16:14:48.93</time>
<name>1062</name>
</trkpt>
<trkpt lat="48.933800" lon="8.677130">
<ele>385.0</ele>
<speed>5.3</speed>
<course>98.7</course>
<desc>Speed 5.3 km/h Distance 1.95 km</desc>
<time>2010-03-03T16:14:49.93</time>
<name>1063</name>
</trkpt>
<trkpt lat="48.933798" lon="8.677147">
<ele>386.0</ele>
<speed>4.9</speed>
<course>106.9</course>
<desc>Speed 4.9 km/h Distance 1.95 km</desc>
<time>2010-03-03T16:14:50.93</time>
<name>1064</name>
</trkpt>
<trkpt lat="48.933795" lon="8.677163">
<ele>386.0</ele>
<speed>5.4</speed>
<course>98.7</course>
<desc>Speed 5.4 km/h Distance 1.95 km</desc>
<time>2010-03-03T16:14:51.93</time>
<name>1065</name>
</trkpt>
<trkpt lat="48.933793" lon="8.677180">
<ele>387.0</ele>
<speed>4.7</speed>
<course>105.5</course>
<desc>Speed 4.7 km/h Distance 1.95 km</desc>
<time>2010-03-03T16:14:52.93</time>
<name>1066</name>
</trkpt>
<trkpt lat="48.933790" lon="8.677198">
<ele>387.0</ele>
<speed>4.8</speed>
<course>97.2</course>
<desc>Speed 4.8 km/h Distance 1.96 km</desc>
<time>2010-03-03T16:14:53.93</time>
<name>1067</name>
</trkpt>
<trkpt lat="48.933788" lon="8.677218">
<ele>387.0</ele>
<speed>5.4</speed>
<course>76.8</course>
<desc>Speed 5.4 km/h Distance 1.96 km</desc>
<time>2010-03-03T16:14:54.93</time>
<name>1068</name>
</trkpt>
<trkpt lat="48.933792" lon="8.677240">
<ele>388.0</ele>
<speed>5.6</speed>
<course>104.2</course>
<desc>Speed 5.6 km/h Distance 1.96 km</desc>
<time>2010-03-03T16:14:55.93</time>
<name>1069</name>
</trkpt>
<trkpt lat="48.933788" lon="8.677260">
<ele>388.5</ele>
<speed>5.3</speed>
<course>110.8</course>
<desc>Speed 5.3 km/h Distance 1.96 km</desc>
<time>2010-03-03T16:14:56.93</time>
<name>1070</name>
</trkpt>
<trkpt lat="48.933783" lon="8.677280">
<ele>388.5</ele>
<speed>5.5</speed>
<course>103.2</course>
<desc>Speed 5.5 km/h Distance 1.96 km</desc>
<time>2010-03-03T16:14:57.93</time>
<name>1071</name>
</trkpt>
<trkpt lat="48.933780" lon="8.677302">
<ele>388.5</ele>
<speed>6.0</speed>
<course>133.5</course>
<desc>Speed 6.0 km/h Distance 1.96 km</desc>
<time>2010-03-03T16:14:58.93</time>
<name>1072</name>
</trkpt>
<trkpt lat="48.933772" lon="8.677315">
<ele>389.0</ele>
<speed>5.0</speed>
<course>127.2</course>
<desc>Speed 5.0 km/h Distance 1.97 km</desc>
<time>2010-03-03T16:14:59.93</time>
<name>1073</name>
</trkpt>
<trkpt lat="48.933763" lon="8.677332">
<ele>389.0</ele>
<speed>5.7</speed>
<course>114.5</course>
<desc>Speed 5.7 km/h Distance 1.97 km</desc>
<time>2010-03-03T16:15:00.93</time>
<name>1074</name>
</trkpt>
<trkpt lat="48.933758" lon="8.677348">
<ele>389.0</ele>
<speed>5.0</speed>
<course>124.1</course>
<desc>Speed 5.0 km/h Distance 1.97 km</desc>
<time>2010-03-03T16:15:01.93</time>
<name>1075</name>
</trkpt>
<trkpt lat="48.933752" lon="8.677363">
<ele>389.5</ele>
<speed>4.5</speed>
<course>104.2</course>
<desc>Speed 4.5 km/h Distance 1.97 km</desc>
<time>2010-03-03T16:15:02.93</time>
<name>1076</name>
</trkpt>
<trkpt lat="48.933748" lon="8.677383">
<ele>390.0</ele>
<speed>5.4</speed>
<course>112.6</course>
<desc>Speed 5.4 km/h Distance 1.97 km</desc>
<time>2010-03-03T16:15:03.93</time>
<name>1077</name>
</trkpt>
<trkpt lat="48.933743" lon="8.677402">
<ele>390.0</ele>
<speed>5.5</speed>
<course>105.5</course>
<desc>Speed 5.5 km/h Distance 1.97 km</desc>
<time>2010-03-03T16:15:04.93</time>
<name>1078</name>
</trkpt>
<trkpt lat="48.933740" lon="8.677420">
<ele>391.0</ele>
<speed>5.2</speed>
<course>112.5</course>
<desc>Speed 5.2 km/h Distance 1.97 km</desc>
<time>2010-03-03T16:15:05.93</time>
<name>1079</name>
</trkpt>
<trkpt lat="48.933735" lon="8.677438">
<ele>391.0</ele>
<speed>5.3</speed>
<course>110.8</course>
<desc>Speed 5.3 km/h Distance 1.98 km</desc>
<time>2010-03-03T16:15:06.93</time>
<name>1080</name>
</trkpt>
<trkpt lat="48.933730" lon="8.677458">
<ele>391.0</ele>
<speed>5.4</speed>
<course>105.5</course>
<desc>Speed 5.4 km/h Distance 1.98 km</desc>
<time>2010-03-03T16:15:07.93</time>
<name>1081</name>
</trkpt>
<trkpt lat="48.933727" lon="8.677477">
<ele>391.5</ele>
<speed>5.1</speed>
<course>112.6</course>
<desc>Speed 5.1 km/h Distance 1.98 km</desc>
<time>2010-03-03T16:15:08.93</time>
<name>1082</name>
</trkpt>
<trkpt lat="48.933722" lon="8.677495">
<ele>392.0</ele>
<speed>5.2</speed>
<course>104.2</course>
<desc>Speed 5.2 km/h Distance 1.98 km</desc>
<time>2010-03-03T16:15:09.93</time>
<name>1083</name>
</trkpt>
<trkpt lat="48.933718" lon="8.677515">
<ele>392.5</ele>
<speed>5.6</speed>
<course>107.0</course>
<desc>Speed 5.6 km/h Distance 1.98 km</desc>
<time>2010-03-03T16:15:10.93</time>
<name>1084</name>
</trkpt>
<trkpt lat="48.933715" lon="8.677532">
<ele>393.5</ele>
<speed>5.1</speed>
<course>127.3</course>
<desc>Speed 5.1 km/h Distance 1.98 km</desc>
<time>2010-03-03T16:15:11.93</time>
<name>1085</name>
</trkpt>
<trkpt lat="48.933707" lon="8.677548">
<ele>393.5</ele>
<speed>5.2</speed>
<course>115.1</course>
<desc>Speed 5.2 km/h Distance 1.98 km</desc>
<time>2010-03-03T16:15:12.93</time>
<name>1086</name>
</trkpt>
<trkpt lat="48.933700" lon="8.677570">
<ele>393.5</ele>
<speed>6.0</speed>
<course>119.0</course>
<desc>Speed 6.0 km/h Distance 1.99 km</desc>
<time>2010-03-03T16:15:13.93</time>
<name>1087</name>
</trkpt>
<trkpt lat="48.933693" lon="8.677588">
<ele>394.0</ele>
<speed>5.4</speed>
<course>50.6</course>
<desc>Speed 5.4 km/h Distance 1.99 km</desc>
<time>2010-03-03T16:15:14.93</time>
<name>1088</name>
</trkpt>
<trkpt lat="48.933705" lon="8.677610">
<ele>394.0</ele>
<speed>6.8</speed>
<course>82.1</course>
<desc>Speed 6.8 km/h Distance 1.99 km</desc>
<time>2010-03-03T16:15:15.93</time>
<name>1089</name>
</trkpt>
<trkpt lat="48.933707" lon="8.677628">
<ele>394.0</ele>
<speed>5.0</speed>
<course>77.7</course>
<desc>Speed 5.0 km/h Distance 1.99 km</desc>
<time>2010-03-03T16:15:16.93</time>
<name>1090</name>
</trkpt>
<trkpt lat="48.933710" lon="8.677652">
<ele>394.0</ele>
<speed>5.2</speed>
<course>124.7</course>
<desc>Speed 5.2 km/h Distance 1.99 km</desc>
<time>2010-03-03T16:15:17.93</time>
<name>1091</name>
</trkpt>
<trkpt lat="48.933702" lon="8.677670">
<ele>395.5</ele>
<speed>5.0</speed>
<course>83.3</course>
<desc>Speed 5.0 km/h Distance 1.99 km</desc>
<time>2010-03-03T16:15:18.93</time>
<name>1092</name>
</trkpt>
<trkpt lat="48.933703" lon="8.677692">
<ele>395.0</ele>
<speed>4.7</speed>
<course>103.2</course>
<desc>Speed 4.7 km/h Distance 2.00 km</desc>
<time>2010-03-03T16:15:19.93</time>
<name>1093</name>
</trkpt>
<trkpt lat="48.933700" lon="8.677713">
<ele>394.0</ele>
<speed>4.9</speed>
<course>90.0</course>
<desc>Speed 4.9 km/h Distance 2.00 km</desc>
<time>2010-03-03T16:15:20.93</time>
<name>1094</name>
</trkpt>
<trkpt lat="48.933700" lon="8.677735">
<ele>393.5</ele>
<speed>4.5</speed>
<course>123.3</course>
<desc>Speed 4.5 km/h Distance 2.00 km</desc>
<time>2010-03-03T16:15:21.93</time>
<name>1095</name>
</trkpt>
<trkpt lat="48.933695" lon="8.677747">
<ele>392.5</ele>
<speed>3.4</speed>
<course>147.7</course>
<desc>Speed 3.4 km/h Distance 2.00 km</desc>
<time>2010-03-03T16:15:22.93</time>
<name>1096</name>
</trkpt>
<trkpt lat="48.933690" lon="8.677752">
<ele>392.0</ele>
<speed>1.8</speed>
<course>142.8</course>
<desc>Speed 1.8 km/h Distance 2.00 km</desc>
<time>2010-03-03T16:15:23.93</time>
<name>1097</name>
</trkpt>
<trkpt lat="48.933688" lon="8.677753">
<ele>391.5</ele>
<speed>0.6</speed>
<course>167.4</course>
<desc>Speed 0.6 km/h Distance 2.00 km</desc>
<time>2010-03-03T16:15:24.93</time>
<name>1098</name>
</trkpt>
<trkpt lat="48.933687" lon="8.677753">
<ele>392.0</ele>
<speed>0.3</speed>
<course>75.8</course>
<desc>Speed 0.3 km/h Distance 2.00 km</desc>
<time>2010-03-03T16:15:25.93</time>
<name>1099</name>
</trkpt>
<trkpt lat="48.933688" lon="8.677763">
<ele>390.5</ele>
<speed>3.2</speed>
<course>90.0</course>
<desc>Speed 3.2 km/h Distance 2.00 km</desc>
<time>2010-03-03T16:15:26.93</time>
<name>1100</name>
</trkpt>
<trkpt lat="48.933688" lon="8.677783">
<ele>389.5</ele>
<speed>5.3</speed>
<course>108.6</course>
<desc>Speed 5.3 km/h Distance 2.00 km</desc>
<time>2010-03-03T16:15:27.93</time>
<name>1101</name>
</trkpt>
<trkpt lat="48.933685" lon="8.677798">
<ele>389.5</ele>
<speed>4.4</speed>
<course>119.7</course>
<desc>Speed 4.4 km/h Distance 2.00 km</desc>
<time>2010-03-03T16:15:28.93</time>
<name>1102</name>
</trkpt>
<trkpt lat="48.933680" lon="8.677812">
<ele>390.0</ele>
<speed>4.0</speed>
<course>104.1</course>
<desc>Speed 4.0 km/h Distance 2.01 km</desc>
<time>2010-03-03T16:15:29.93</time>
<name>1103</name>
</trkpt>
<trkpt lat="48.933678" lon="8.677822">
<ele>388.5</ele>
<speed>2.5</speed>
<course>104.1</course>
<desc>Speed 2.5 km/h Distance 2.01 km</desc>
<time>2010-03-03T16:15:30.93</time>
<name>1104</name>
</trkpt>
<trkpt lat="48.933678" lon="8.677822">
<ele>388.5</ele>
<speed>0.3</speed>
<course>104.1</course>
<desc>Speed 0.3 km/h Distance 2.01 km</desc>
<time>2010-03-03T16:15:31.93</time>
<name>1105</name>
</trkpt>
<trkpt lat="48.933678" lon="8.677822">
<ele>388.5</ele>
<speed>0.1</speed>
<course>104.1</course>
<desc>Speed 0.1 km/h Distance 2.01 km</desc>
<time>2010-03-03T16:15:32.93</time>
<name>1106</name>
</trkpt>
<trkpt lat="48.933678" lon="8.677822">
<ele>388.5</ele>
<speed>0.3</speed>
<course>167.4</course>
<desc>Speed 0.3 km/h Distance 2.01 km</desc>
<time>2010-03-03T16:15:33.94</time>
<name>1107</name>
</trkpt>
<trkpt lat="48.933677" lon="8.677822">
<ele>388.5</ele>
<speed>0.6</speed>
<course>167.4</course>
<desc>Speed 0.6 km/h Distance 2.01 km</desc>
<time>2010-03-03T16:15:34.94</time>
<name>1108</name>
</trkpt>
<trkpt lat="48.933677" lon="8.677822">
<ele>388.5</ele>
<speed>0.5</speed>
<course>167.4</course>
<desc>Speed 0.5 km/h Distance 2.01 km</desc>
<time>2010-03-03T16:15:35.94</time>
<name>1109</name>
</trkpt>
<trkpt lat="48.933677" lon="8.677822">
<ele>388.5</ele>
<speed>0.2</speed>
<course>167.4</course>
<desc>Speed 0.2 km/h Distance 2.01 km</desc>
<time>2010-03-03T16:15:36.94</time>
<name>1110</name>
</trkpt>
<trkpt lat="48.933677" lon="8.677822">
<ele>388.5</ele>
<speed>0.5</speed>
<course>270.0</course>
<desc>Speed 0.5 km/h Distance 2.01 km</desc>
<time>2010-03-03T16:15:37.94</time>
<name>1111</name>
</trkpt>
<trkpt lat="48.933677" lon="8.677820">
<ele>388.5</ele>
<speed>0.3</speed>
<course>167.4</course>
<desc>Speed 0.3 km/h Distance 2.01 km</desc>
<time>2010-03-03T16:15:38.94</time>
<name>1112</name>
</trkpt>
<trkpt lat="48.933675" lon="8.677820">
<ele>389.0</ele>
<speed>0.2</speed>
<course>167.4</course>
<desc>Speed 0.2 km/h Distance 2.01 km</desc>
<time>2010-03-03T16:15:39.94</time>
<name>1113</name>
</trkpt>
<trkpt lat="48.933675" lon="8.677820">
<ele>389.0</ele>
<speed>0.1</speed>
<course>270.0</course>
<desc>Speed 0.1 km/h Distance 2.01 km</desc>
<time>2010-03-03T16:15:40.94</time>
<name>1114</name>
</trkpt>
<trkpt lat="48.933675" lon="8.677818">
<ele>389.0</ele>
<speed>0.2</speed>
<course>180.0</course>
<desc>Speed 0.2 km/h Distance 2.01 km</desc>
<time>2010-03-03T16:15:41.94</time>
<name>1115</name>
</trkpt>
<trkpt lat="48.933673" lon="8.677818">
<ele>389.0</ele>
<speed>0.3</speed>
<course>180.0</course>
<desc>Speed 0.3 km/h Distance 2.01 km</desc>
<time>2010-03-03T16:15:42.94</time>
<name>1116</name>
</trkpt>
<trkpt lat="48.933673" lon="8.677818">
<ele>389.5</ele>
<speed>0.4</speed>
<course>69.1</course>
<desc>Speed 0.4 km/h Distance 2.01 km</desc>
<time>2010-03-03T16:15:44.08</time>
<name>1117</name>
</trkpt>
<trkpt lat="48.933675" lon="8.677825">
<ele>390.5</ele>
<speed>1.9</speed>
<course>90.0</course>
<desc>Speed 1.9 km/h Distance 2.01 km</desc>
<time>2010-03-03T16:15:44.94</time>
<name>1118</name>
</trkpt>
<trkpt lat="48.933675" lon="8.677840">
<ele>390.5</ele>
<speed>4.1</speed>
<course>105.5</course>
<desc>Speed 4.1 km/h Distance 2.01 km</desc>
<time>2010-03-03T16:15:45.94</time>
<name>1119</name>
</trkpt>
<trkpt lat="48.933672" lon="8.677858">
<ele>389.5</ele>
<speed>4.5</speed>
<course>116.9</course>
<desc>Speed 4.5 km/h Distance 2.01 km</desc>
<time>2010-03-03T16:15:46.94</time>
<name>1120</name>
</trkpt>
<trkpt lat="48.933665" lon="8.677878">
<ele>390.5</ele>
<speed>5.3</speed>
<course>104.2</course>
<desc>Speed 5.3 km/h Distance 2.01 km</desc>
<time>2010-03-03T16:15:47.94</time>
<name>1121</name>
</trkpt>
<trkpt lat="48.933662" lon="8.677898">
<ele>391.0</ele>
<speed>5.4</speed>
<course>90.0</course>
<desc>Speed 5.4 km/h Distance 2.01 km</desc>
<time>2010-03-03T16:15:48.94</time>
<name>1122</name>
</trkpt>
<trkpt lat="48.933662" lon="8.677918">
<ele>391.0</ele>
<speed>4.8</speed>
<course>97.9</course>
<desc>Speed 4.8 km/h Distance 2.01 km</desc>
<time>2010-03-03T16:15:49.94</time>
<name>1123</name>
</trkpt>
<trkpt lat="48.933660" lon="8.677937">
<ele>391.5</ele>
<speed>4.8</speed>
<course>110.8</course>
<desc>Speed 4.8 km/h Distance 2.02 km</desc>
<time>2010-03-03T16:15:50.94</time>
<name>1124</name>
</trkpt>
<trkpt lat="48.933655" lon="8.677957">
<ele>391.5</ele>
<speed>4.9</speed>
<course>103.2</course>
<desc>Speed 4.9 km/h Distance 2.02 km</desc>
<time>2010-03-03T16:15:51.94</time>
<name>1125</name>
</trkpt>
<trkpt lat="48.933652" lon="8.677978">
<ele>391.5</ele>
<speed>5.3</speed>
<course>106.9</course>
<desc>Speed 5.3 km/h Distance 2.02 km</desc>
<time>2010-03-03T16:15:52.94</time>
<name>1126</name>
</trkpt>
<trkpt lat="48.933643" lon="8.678020">
<ele>391.5</ele>
<speed>5.0</speed>
<course>96.7</course>
<desc>Speed 5.0 km/h Distance 2.02 km</desc>
<time>2010-03-03T16:15:54.44</time>
<name>1127</name>
</trkpt>
<trkpt lat="48.933642" lon="8.678042">
<ele>391.5</ele>
<speed>5.7</speed>
<course>111.5</course>
<desc>Speed 5.7 km/h Distance 2.02 km</desc>
<time>2010-03-03T16:15:55.45</time>
<name>1128</name>
</trkpt>
<trkpt lat="48.933630" lon="8.678087">
<ele>391.5</ele>
<speed>5.4</speed>
<course>96.7</course>
<desc>Speed 5.4 km/h Distance 2.03 km</desc>
<time>2010-03-03T16:15:57.43</time>
<name>1129</name>
</trkpt>
<trkpt lat="48.933628" lon="8.678108">
<ele>391.5</ele>
<speed>5.4</speed>
<course>104.2</course>
<desc>Speed 5.4 km/h Distance 2.03 km</desc>
<time>2010-03-03T16:15:58.43</time>
<name>1130</name>
</trkpt>
<trkpt lat="48.933625" lon="8.678128">
<ele>391.5</ele>
<speed>4.7</speed>
<course>103.2</course>
<desc>Speed 4.7 km/h Distance 2.03 km</desc>
<time>2010-03-03T16:15:59.43</time>
<name>1131</name>
</trkpt>
<trkpt lat="48.933622" lon="8.678150">
<ele>392.0</ele>
<speed>4.8</speed>
<course>104.2</course>
<desc>Speed 4.8 km/h Distance 2.03 km</desc>
<time>2010-03-03T16:16:00.43</time>
<name>1132</name>
</trkpt>
<trkpt lat="48.933618" lon="8.678170">
<ele>392.5</ele>
<speed>5.3</speed>
<course>90.0</course>
<desc>Speed 5.3 km/h Distance 2.03 km</desc>
<time>2010-03-03T16:16:01.43</time>
<name>1133</name>
</trkpt>
<trkpt lat="48.933618" lon="8.678192">
<ele>392.0</ele>
<speed>5.1</speed>
<course>97.2</course>
<desc>Speed 5.1 km/h Distance 2.04 km</desc>
<time>2010-03-03T16:16:02.44</time>
<name>1134</name>
</trkpt>
<trkpt lat="48.933617" lon="8.678212">
<ele>391.5</ele>
<speed>4.5</speed>
<course>97.9</course>
<desc>Speed 4.5 km/h Distance 2.04 km</desc>
<time>2010-03-03T16:16:03.43</time>
<name>1135</name>
</trkpt>
<trkpt lat="48.933615" lon="8.678230">
<ele>391.5</ele>
<speed>4.5</speed>
<course>90.0</course>
<desc>Speed 4.5 km/h Distance 2.04 km</desc>
<time>2010-03-03T16:16:04.44</time>
<name>1136</name>
</trkpt>
<trkpt lat="48.933615" lon="8.678253">
<ele>391.5</ele>
<speed>5.4</speed>
<course>90.0</course>
<desc>Speed 5.4 km/h Distance 2.04 km</desc>
<time>2010-03-03T16:16:05.44</time>
<name>1137</name>
</trkpt>
<trkpt lat="48.933615" lon="8.678277">
<ele>391.5</ele>
<speed>5.4</speed>
<course>90.0</course>
<desc>Speed 5.4 km/h Distance 2.04 km</desc>
<time>2010-03-03T16:16:06.43</time>
<name>1138</name>
</trkpt>
<trkpt lat="48.933615" lon="8.678295">
<ele>391.5</ele>
<speed>4.5</speed>
<course>90.0</course>
<desc>Speed 4.5 km/h Distance 2.04 km</desc>
<time>2010-03-03T16:16:07.43</time>
<name>1139</name>
</trkpt>
<trkpt lat="48.933615" lon="8.678315">
<ele>392.0</ele>
<speed>4.5</speed>
<course>90.0</course>
<desc>Speed 4.5 km/h Distance 2.04 km</desc>
<time>2010-03-03T16:16:08.43</time>
<name>1140</name>
</trkpt>
<trkpt lat="48.933615" lon="8.678335">
<ele>391.5</ele>
<speed>4.4</speed>
<course>90.0</course>
<desc>Speed 4.4 km/h Distance 2.05 km</desc>
<time>2010-03-03T16:16:09.42</time>
<name>1141</name>
</trkpt>
<trkpt lat="48.933615" lon="8.678355">
<ele>392.0</ele>
<speed>4.6</speed>
<course>90.0</course>
<desc>Speed 4.6 km/h Distance 2.05 km</desc>
<time>2010-03-03T16:16:10.43</time>
<name>1142</name>
</trkpt>
<trkpt lat="48.933615" lon="8.678372">
<ele>392.0</ele>
<speed>3.9</speed>
<course>90.0</course>
<desc>Speed 3.9 km/h Distance 2.05 km</desc>
<time>2010-03-03T16:16:11.43</time>
<name>1143</name>
</trkpt>
<trkpt lat="48.933615" lon="8.678393">
<ele>392.5</ele>
<speed>4.9</speed>
<course>90.0</course>
<desc>Speed 4.9 km/h Distance 2.05 km</desc>
<time>2010-03-03T16:16:12.43</time>
<name>1144</name>
</trkpt>
<trkpt lat="48.933615" lon="8.678415">
<ele>392.5</ele>
<speed>5.3</speed>
<course>103.2</course>
<desc>Speed 5.3 km/h Distance 2.05 km</desc>
<time>2010-03-03T16:16:13.43</time>
<name>1145</name>
</trkpt>
<trkpt lat="48.933612" lon="8.678437">
<ele>392.5</ele>
<speed>4.8</speed>
<course>90.0</course>
<desc>Speed 4.8 km/h Distance 2.05 km</desc>
<time>2010-03-03T16:16:14.43</time>
<name>1146</name>
</trkpt>
<trkpt lat="48.933612" lon="8.678457">
<ele>393.0</ele>
<speed>5.1</speed>
<course>83.8</course>
<desc>Speed 5.1 km/h Distance 2.05 km</desc>
<time>2010-03-03T16:16:15.43</time>
<name>1147</name>
</trkpt>
<trkpt lat="48.933613" lon="8.678480">
<ele>393.0</ele>
<speed>5.3</speed>
<course>82.8</course>
<desc>Speed 5.3 km/h Distance 2.06 km</desc>
<time>2010-03-03T16:16:16.43</time>
<name>1148</name>
</trkpt>
<trkpt lat="48.933615" lon="8.678500">
<ele>393.5</ele>
<speed>4.9</speed>
<course>90.0</course>
<desc>Speed 4.9 km/h Distance 2.06 km</desc>
<time>2010-03-03T16:16:17.42</time>
<name>1149</name>
</trkpt>
<trkpt lat="48.933615" lon="8.678520">
<ele>393.5</ele>
<speed>4.7</speed>
<course>83.3</course>
<desc>Speed 4.7 km/h Distance 2.06 km</desc>
<time>2010-03-03T16:16:18.43</time>
<name>1150</name>
</trkpt>
<trkpt lat="48.933617" lon="8.678542">
<ele>393.5</ele>
<speed>5.0</speed>
<course>74.6</course>
<desc>Speed 5.0 km/h Distance 2.06 km</desc>
<time>2010-03-03T16:16:19.43</time>
<name>1151</name>
</trkpt>
<trkpt lat="48.933620" lon="8.678560">
<ele>394.0</ele>
<speed>5.1</speed>
<course>90.0</course>
<desc>Speed 5.1 km/h Distance 2.06 km</desc>
<time>2010-03-03T16:16:20.43</time>
<name>1152</name>
</trkpt>
<trkpt lat="48.933620" lon="8.678580">
<ele>394.0</ele>
<speed>4.6</speed>
<course>75.8</course>
<desc>Speed 4.6 km/h Distance 2.06 km</desc>
<time>2010-03-03T16:16:21.42</time>
<name>1153</name>
</trkpt>
<trkpt lat="48.933623" lon="8.678600">
<ele>394.0</ele>
<speed>4.5</speed>
<course>90.0</course>
<desc>Speed 4.5 km/h Distance 2.07 km</desc>
<time>2010-03-03T16:16:22.42</time>
<name>1154</name>
</trkpt>
<trkpt lat="48.933623" lon="8.678618">
<ele>394.0</ele>
<speed>4.2</speed>
<course>90.0</course>
<desc>Speed 4.2 km/h Distance 2.07 km</desc>
<time>2010-03-03T16:16:23.42</time>
<name>1155</name>
</trkpt>
<trkpt lat="48.933623" lon="8.678640">
<ele>394.0</ele>
<speed>4.3</speed>
<course>90.0</course>
<desc>Speed 4.3 km/h Distance 2.07 km</desc>
<time>2010-03-03T16:16:24.42</time>
<name>1156</name>
</trkpt>
<trkpt lat="48.933623" lon="8.678658">
<ele>394.0</ele>
<speed>4.3</speed>
<course>90.0</course>
<desc>Speed 4.3 km/h Distance 2.07 km</desc>
<time>2010-03-03T16:16:25.41</time>
<name>1157</name>
</trkpt>
<trkpt lat="48.933623" lon="8.678678">
<ele>394.5</ele>
<speed>4.8</speed>
<course>83.8</course>
<desc>Speed 4.8 km/h Distance 2.07 km</desc>
<time>2010-03-03T16:16:26.42</time>
<name>1158</name>
</trkpt>
<trkpt lat="48.933625" lon="8.678702">
<ele>395.0</ele>
<speed>5.1</speed>
<course>90.0</course>
<desc>Speed 5.1 km/h Distance 2.07 km</desc>
<time>2010-03-03T16:16:27.42</time>
<name>1159</name>
</trkpt>
<trkpt lat="48.933625" lon="8.678722">
<ele>395.0</ele>
<speed>5.2</speed>
<course>76.8</course>
<desc>Speed 5.2 km/h Distance 2.07 km</desc>
<time>2010-03-03T16:16:28.42</time>
<name>1160</name>
</trkpt>
<trkpt lat="48.933628" lon="8.678743">
<ele>395.0</ele>
<speed>4.6</speed>
<course>97.9</course>
<desc>Speed 4.6 km/h Distance 2.08 km</desc>
<time>2010-03-03T16:16:29.42</time>
<name>1161</name>
</trkpt>
<trkpt lat="48.933627" lon="8.678762">
<ele>395.0</ele>
<speed>4.4</speed>
<course>83.3</course>
<desc>Speed 4.4 km/h Distance 2.08 km</desc>
<time>2010-03-03T16:16:30.42</time>
<name>1162</name>
</trkpt>
<trkpt lat="48.933628" lon="8.678783">
<ele>395.0</ele>
<speed>5.0</speed>
<course>64.9</course>
<desc>Speed 5.0 km/h Distance 2.08 km</desc>
<time>2010-03-03T16:16:31.41</time>
<name>1163</name>
</trkpt>
<trkpt lat="48.933635" lon="8.678805">
<ele>396.0</ele>
<speed>5.1</speed>
<course>81.3</course>
<desc>Speed 5.1 km/h Distance 2.08 km</desc>
<time>2010-03-03T16:16:32.41</time>
<name>1164</name>
</trkpt>
<trkpt lat="48.933637" lon="8.678822">
<ele>396.5</ele>
<speed>4.0</speed>
<course>71.3</course>
<desc>Speed 4.0 km/h Distance 2.08 km</desc>
<time>2010-03-03T16:16:33.41</time>
<name>1165</name>
</trkpt>
<trkpt lat="48.933640" lon="8.678837">
<ele>396.5</ele>
<speed>3.6</speed>
<course>82.8</course>
<desc>Speed 3.6 km/h Distance 2.08 km</desc>
<time>2010-03-03T16:16:34.42</time>
<name>1166</name>
</trkpt>
<trkpt lat="48.933642" lon="8.678857">
<ele>397.0</ele>
<speed>4.1</speed>
<course>71.9</course>
<desc>Speed 4.1 km/h Distance 2.08 km</desc>
<time>2010-03-03T16:16:35.41</time>
<name>1167</name>
</trkpt>
<trkpt lat="48.933647" lon="8.678880">
<ele>397.5</ele>
<speed>4.4</speed>
<course>82.8</course>
<desc>Speed 4.4 km/h Distance 2.09 km</desc>
<time>2010-03-03T16:16:36.41</time>
<name>1168</name>
</trkpt>
<trkpt lat="48.933648" lon="8.678900">
<ele>397.5</ele>
<speed>4.8</speed>
<course>90.0</course>
<desc>Speed 4.8 km/h Distance 2.09 km</desc>
<time>2010-03-03T16:16:37.41</time>
<name>1169</name>
</trkpt>
<trkpt lat="48.933648" lon="8.678917">
<ele>398.0</ele>
<speed>4.5</speed>
<course>99.6</course>
<desc>Speed 4.5 km/h Distance 2.09 km</desc>
<time>2010-03-03T16:16:38.41</time>
<name>1170</name>
</trkpt>
<trkpt lat="48.933647" lon="8.678932">
<ele>399.5</ele>
<speed>3.6</speed>
<course>75.8</course>
<desc>Speed 3.6 km/h Distance 2.09 km</desc>
<time>2010-03-03T16:16:39.41</time>
<name>1171</name>
</trkpt>
<trkpt lat="48.933650" lon="8.678952">
<ele>400.5</ele>
<speed>5.3</speed>
<course>82.8</course>
<desc>Speed 5.3 km/h Distance 2.09 km</desc>
<time>2010-03-03T16:16:40.42</time>
<name>1172</name>
</trkpt>
<trkpt lat="48.933652" lon="8.678972">
<ele>402.0</ele>
<speed>4.2</speed>
<course>97.2</course>
<desc>Speed 4.2 km/h Distance 2.09 km</desc>
<time>2010-03-03T16:16:41.41</time>
<name>1173</name>
</trkpt>
<trkpt lat="48.933650" lon="8.678992">
<ele>402.0</ele>
<speed>5.0</speed>
<course>104.2</course>
<desc>Speed 5.0 km/h Distance 2.09 km</desc>
<time>2010-03-03T16:16:42.41</time>
<name>1174</name>
</trkpt>
<trkpt lat="48.933647" lon="8.679012">
<ele>402.0</ele>
<speed>5.1</speed>
<course>82.8</course>
<desc>Speed 5.1 km/h Distance 2.10 km</desc>
<time>2010-03-03T16:16:43.40</time>
<name>1175</name>
</trkpt>
<trkpt lat="48.933648" lon="8.679032">
<ele>402.0</ele>
<speed>5.0</speed>
<course>74.5</course>
<desc>Speed 5.0 km/h Distance 2.10 km</desc>
<time>2010-03-03T16:16:44.40</time>
<name>1176</name>
</trkpt>
<trkpt lat="48.933652" lon="8.679050">
<ele>401.5</ele>
<speed>4.4</speed>
<course>83.8</course>
<desc>Speed 4.4 km/h Distance 2.10 km</desc>
<time>2010-03-03T16:16:45.40</time>
<name>1177</name>
</trkpt>
<trkpt lat="48.933653" lon="8.679073">
<ele>401.5</ele>
<speed>5.0</speed>
<course>97.2</course>
<desc>Speed 5.0 km/h Distance 2.10 km</desc>
<time>2010-03-03T16:16:46.40</time>
<name>1178</name>
</trkpt>
<trkpt lat="48.933652" lon="8.679093">
<ele>401.5</ele>
<speed>4.8</speed>
<course>97.2</course>
<desc>Speed 4.8 km/h Distance 2.10 km</desc>
<time>2010-03-03T16:16:47.40</time>
<name>1179</name>
</trkpt>
<trkpt lat="48.933650" lon="8.679113">
<ele>401.5</ele>
<speed>4.8</speed>
<course>74.5</course>
<desc>Speed 4.8 km/h Distance 2.10 km</desc>
<time>2010-03-03T16:16:48.40</time>
<name>1180</name>
</trkpt>
<trkpt lat="48.933653" lon="8.679132">
<ele>401.5</ele>
<speed>4.3</speed>
<course>90.0</course>
<desc>Speed 4.3 km/h Distance 2.11 km</desc>
<time>2010-03-03T16:16:49.40</time>
<name>1181</name>
</trkpt>
<trkpt lat="48.933653" lon="8.679153">
<ele>402.5</ele>
<speed>4.9</speed>
<course>97.2</course>
<desc>Speed 4.9 km/h Distance 2.11 km</desc>
<time>2010-03-03T16:16:50.41</time>
<name>1182</name>
</trkpt>
<trkpt lat="48.933652" lon="8.679173">
<ele>403.0</ele>
<speed>5.1</speed>
<course>83.8</course>
<desc>Speed 5.1 km/h Distance 2.11 km</desc>
<time>2010-03-03T16:16:51.41</time>
<name>1183</name>
</trkpt>
<trkpt lat="48.933653" lon="8.679197">
<ele>403.0</ele>
<speed>4.9</speed>
<course>46.9</course>
<desc>Speed 4.9 km/h Distance 2.11 km</desc>
<time>2010-03-03T16:16:52.39</time>
<name>1184</name>
</trkpt>
<trkpt lat="48.933667" lon="8.679218">
<ele>403.0</ele>
<speed>6.4</speed>
<course>67.9</course>
<desc>Speed 6.4 km/h Distance 2.11 km</desc>
<time>2010-03-03T16:16:53.40</time>
<name>1185</name>
</trkpt>
<trkpt lat="48.933673" lon="8.679243">
<ele>402.0</ele>
<speed>5.1</speed>
<course>60.3</course>
<desc>Speed 5.1 km/h Distance 2.11 km</desc>
<time>2010-03-03T16:16:54.40</time>
<name>1186</name>
</trkpt>
<trkpt lat="48.933683" lon="8.679270">
<ele>401.0</ele>
<speed>5.2</speed>
<course>76.8</course>
<desc>Speed 5.2 km/h Distance 2.12 km</desc>
<time>2010-03-03T16:16:55.40</time>
<name>1187</name>
</trkpt>
<trkpt lat="48.933687" lon="8.679292">
<ele>401.5</ele>
<speed>4.8</speed>
<course>97.9</course>
<desc>Speed 4.8 km/h Distance 2.12 km</desc>
<time>2010-03-03T16:16:56.40</time>
<name>1188</name>
</trkpt>
<trkpt lat="48.933685" lon="8.679310">
<ele>400.5</ele>
<speed>4.2</speed>
<course>67.5</course>
<desc>Speed 4.2 km/h Distance 2.12 km</desc>
<time>2010-03-03T16:16:57.40</time>
<name>1189</name>
</trkpt>
<trkpt lat="48.933690" lon="8.679328">
<ele>400.0</ele>
<speed>4.6</speed>
<course>90.0</course>
<desc>Speed 4.6 km/h Distance 2.12 km</desc>
<time>2010-03-03T16:16:58.40</time>
<name>1190</name>
</trkpt>
<trkpt lat="48.933690" lon="8.679350">
<ele>398.5</ele>
<speed>4.2</speed>
<course>121.3</course>
<desc>Speed 4.2 km/h Distance 2.12 km</desc>
<time>2010-03-03T16:16:59.40</time>
<name>1191</name>
</trkpt>
<trkpt lat="48.933680" lon="8.679375">
<ele>398.0</ele>
<speed>6.9</speed>
<course>73.1</course>
<desc>Speed 6.9 km/h Distance 2.12 km</desc>
<time>2010-03-03T16:17:00.39</time>
<name>1192</name>
</trkpt>
<trkpt lat="48.933685" lon="8.679400">
<ele>398.0</ele>
<speed>5.0</speed>
<course>104.2</course>
<desc>Speed 5.0 km/h Distance 2.13 km</desc>
<time>2010-03-03T16:17:01.39</time>
<name>1193</name>
</trkpt>
<trkpt lat="48.933682" lon="8.679420">
<ele>398.0</ele>
<speed>5.1</speed>
<course>97.2</course>
<desc>Speed 5.1 km/h Distance 2.13 km</desc>
<time>2010-03-03T16:17:02.39</time>
<name>1194</name>
</trkpt>
<trkpt lat="48.933680" lon="8.679440">
<ele>396.5</ele>
<speed>4.7</speed>
<course>84.6</course>
<desc>Speed 4.7 km/h Distance 2.13 km</desc>
<time>2010-03-03T16:17:03.38</time>
<name>1195</name>
</trkpt>
<trkpt lat="48.933682" lon="8.679467">
<ele>395.0</ele>
<speed>4.5</speed>
<course>35.8</course>
<desc>Speed 4.5 km/h Distance 2.13 km</desc>
<time>2010-03-03T16:17:04.38</time>
<name>1196</name>
</trkpt>
<trkpt lat="48.933698" lon="8.679485">
<ele>396.0</ele>
<speed>4.4</speed>
<course>76.8</course>
<desc>Speed 4.4 km/h Distance 2.13 km</desc>
<time>2010-03-03T16:17:05.39</time>
<name>1197</name>
</trkpt>
<trkpt lat="48.933702" lon="8.679507">
<ele>395.5</ele>
<speed>4.8</speed>
<course>61.0</course>
<desc>Speed 4.8 km/h Distance 2.14 km</desc>
<time>2010-03-03T16:17:06.38</time>
<name>1198</name>
</trkpt>
<trkpt lat="48.933708" lon="8.679525">
<ele>395.0</ele>
<speed>4.4</speed>
<course>82.8</course>
<desc>Speed 4.4 km/h Distance 2.14 km</desc>
<time>2010-03-03T16:17:07.38</time>
<name>1199</name>
</trkpt>
<trkpt lat="48.933710" lon="8.679545">
<ele>395.0</ele>
<speed>4.8</speed>
<course>90.0</course>
<desc>Speed 4.8 km/h Distance 2.14 km</desc>
<time>2010-03-03T16:17:08.39</time>
<name>1200</name>
</trkpt>
<trkpt lat="48.933710" lon="8.679568">
<ele>395.0</ele>
<speed>5.0</speed>
<course>83.8</course>
<desc>Speed 5.0 km/h Distance 2.14 km</desc>
<time>2010-03-03T16:17:09.39</time>
<name>1201</name>
</trkpt>
<trkpt lat="48.933712" lon="8.679592">
<ele>394.5</ele>
<speed>4.6</speed>
<course>78.5</course>
<desc>Speed 4.6 km/h Distance 2.14 km</desc>
<time>2010-03-03T16:17:10.40</time>
<name>1202</name>
</trkpt>
<trkpt lat="48.933715" lon="8.679617">
<ele>394.5</ele>
<speed>4.5</speed>
<course>44.5</course>
<desc>Speed 4.5 km/h Distance 2.14 km</desc>
<time>2010-03-03T16:17:11.39</time>
<name>1203</name>
</trkpt>
<trkpt lat="48.933728" lon="8.679637">
<ele>394.5</ele>
<speed>5.6</speed>
<course>71.9</course>
<desc>Speed 5.6 km/h Distance 2.15 km</desc>
<time>2010-03-03T16:17:12.39</time>
<name>1204</name>
</trkpt>
<trkpt lat="48.933733" lon="8.679660">
<ele>394.5</ele>
<speed>5.0</speed>
<course>73.1</course>
<desc>Speed 5.0 km/h Distance 2.15 km</desc>
<time>2010-03-03T16:17:13.38</time>
<name>1205</name>
</trkpt>
<trkpt lat="48.933738" lon="8.679685">
<ele>395.0</ele>
<speed>5.1</speed>
<course>97.2</course>
<desc>Speed 5.1 km/h Distance 2.15 km</desc>
<time>2010-03-03T16:17:14.38</time>
<name>1206</name>
</trkpt>
<trkpt lat="48.933737" lon="8.679705">
<ele>394.5</ele>
<speed>4.9</speed>
<course>83.3</course>
<desc>Speed 4.9 km/h Distance 2.15 km</desc>
<time>2010-03-03T16:17:15.38</time>
<name>1207</name>
</trkpt>
<trkpt lat="48.933738" lon="8.679727">
<ele>394.0</ele>
<speed>4.7</speed>
<course>97.2</course>
<desc>Speed 4.7 km/h Distance 2.15 km</desc>
<time>2010-03-03T16:17:16.38</time>
<name>1208</name>
</trkpt>
<trkpt lat="48.933737" lon="8.679747">
<ele>393.5</ele>
<speed>4.6</speed>
<course>46.1</course>
<desc>Speed 4.6 km/h Distance 2.15 km</desc>
<time>2010-03-03T16:17:17.37</time>
<name>1209</name>
</trkpt>
<trkpt lat="48.933757" lon="8.679778">
<ele>394.0</ele>
<speed>6.3</speed>
<course>43.3</course>
<desc>Speed 6.3 km/h Distance 2.16 km</desc>
<time>2010-03-03T16:17:18.39</time>
<name>1210</name>
</trkpt>
<trkpt lat="48.933768" lon="8.679795">
<ele>394.5</ele>
<speed>5.3</speed>
<course>33.3</course>
<desc>Speed 5.3 km/h Distance 2.16 km</desc>
<time>2010-03-03T16:17:19.38</time>
<name>1211</name>
</trkpt>
<trkpt lat="48.933783" lon="8.679810">
<ele>396.0</ele>
<speed>4.5</speed>
<course>39.4</course>
<desc>Speed 4.5 km/h Distance 2.16 km</desc>
<time>2010-03-03T16:17:20.37</time>
<name>1212</name>
</trkpt>
<trkpt lat="48.933790" lon="8.679818">
<ele>395.5</ele>
<speed>3.1</speed>
<course>23.4</course>
<desc>Speed 3.1 km/h Distance 2.16 km</desc>
<time>2010-03-03T16:17:21.38</time>
<name>1213</name>
</trkpt>
<trkpt lat="48.933800" lon="8.679825">
<ele>395.5</ele>
<speed>3.7</speed>
<course>17.0</course>
<desc>Speed 3.7 km/h Distance 2.16 km</desc>
<time>2010-03-03T16:17:22.37</time>
<name>1214</name>
</trkpt>
<trkpt lat="48.933825" lon="8.679837">
<ele>395.0</ele>
<speed>4.2</speed>
<course>2.2</course>
<desc>Speed 4.2 km/h Distance 2.17 km</desc>
<time>2010-03-03T16:17:23.38</time>
<name>1215</name>
</trkpt>
<trkpt lat="48.933837" lon="8.679837">
<ele>394.5</ele>
<speed>4.5</speed>
<course>355.0</course>
<desc>Speed 4.5 km/h Distance 2.17 km</desc>
<time>2010-03-03T16:17:24.37</time>
<name>1216</name>
</trkpt>
<trkpt lat="48.933852" lon="8.679835">
<ele>394.5</ele>
<speed>4.6</speed>
<course>355.3</course>
<desc>Speed 4.6 km/h Distance 2.17 km</desc>
<time>2010-03-03T16:17:25.38</time>
<name>1217</name>
</trkpt>
<trkpt lat="48.933863" lon="8.679833">
<ele>393.5</ele>
<speed>3.2</speed>
<course>347.4</course>
<desc>Speed 3.2 km/h Distance 2.17 km</desc>
<time>2010-03-03T16:17:26.37</time>
<name>1218</name>
</trkpt>
<trkpt lat="48.933873" lon="8.679830">
<ele>393.0</ele>
<speed>4.0</speed>
<course>357.2</course>
<desc>Speed 4.0 km/h Distance 2.17 km</desc>
<time>2010-03-03T16:17:27.38</time>
<name>1219</name>
</trkpt>
<trkpt lat="48.933890" lon="8.679828">
<ele>394.0</ele>
<speed>3.9</speed>
<course>357.8</course>
<desc>Speed 3.9 km/h Distance 2.17 km</desc>
<time>2010-03-03T16:17:28.37</time>
<name>1220</name>
</trkpt>
<trkpt lat="48.933902" lon="8.679827">
<ele>394.0</ele>
<speed>4.4</speed>
<course>5.6</course>
<desc>Speed 4.4 km/h Distance 2.17 km</desc>
<time>2010-03-03T16:17:29.37</time>
<name>1221</name>
</trkpt>
<trkpt lat="48.933925" lon="8.679830">
<ele>395.5</ele>
<speed>4.6</speed>
<course>0.0</course>
<desc>Speed 4.6 km/h Distance 2.18 km</desc>
<time>2010-03-03T16:17:30.37</time>
<name>1222</name>
</trkpt>
<trkpt lat="48.933935" lon="8.679830">
<ele>395.5</ele>
<speed>3.7</speed>
<course>355.3</course>
<desc>Speed 3.7 km/h Distance 2.18 km</desc>
<time>2010-03-03T16:17:31.37</time>
<name>1223</name>
</trkpt>
<trkpt lat="48.933947" lon="8.679828">
<ele>395.0</ele>
<speed>3.7</speed>
<course>0.0</course>
<desc>Speed 3.7 km/h Distance 2.18 km</desc>
<time>2010-03-03T16:17:32.36</time>
<name>1224</name>
</trkpt>
<trkpt lat="48.933962" lon="8.679828">
<ele>395.0</ele>
<speed>4.5</speed>
<course>3.8</course>
<desc>Speed 4.5 km/h Distance 2.18 km</desc>
<time>2010-03-03T16:17:33.36</time>
<name>1225</name>
</trkpt>
<trkpt lat="48.933977" lon="8.679830">
<ele>395.5</ele>
<speed>4.5</speed>
<course>2.8</course>
<desc>Speed 4.5 km/h Distance 2.18 km</desc>
<time>2010-03-03T16:17:34.36</time>
<name>1226</name>
</trkpt>
<trkpt lat="48.933993" lon="8.679832">
<ele>395.5</ele>
<speed>5.1</speed>
<course>0.0</course>
<desc>Speed 5.1 km/h Distance 2.18 km</desc>
<time>2010-03-03T16:17:35.36</time>
<name>1227</name>
</trkpt>
<trkpt lat="48.934010" lon="8.679832">
<ele>396.5</ele>
<speed>4.4</speed>
<course>0.0</course>
<desc>Speed 4.4 km/h Distance 2.19 km</desc>
<time>2010-03-03T16:17:36.36</time>
<name>1228</name>
</trkpt>
<trkpt lat="48.934028" lon="8.679832">
<ele>397.5</ele>
<speed>4.8</speed>
<course>8.8</course>
<desc>Speed 4.8 km/h Distance 2.19 km</desc>
<time>2010-03-03T16:17:37.36</time>
<name>1229</name>
</trkpt>
<trkpt lat="48.934043" lon="8.679835">
<ele>398.0</ele>
<speed>3.7</speed>
<course>8.8</course>
<desc>Speed 3.7 km/h Distance 2.19 km</desc>
<time>2010-03-03T16:17:38.37</time>
<name>1230</name>
</trkpt>
<trkpt lat="48.934058" lon="8.679838">
<ele>398.5</ele>
<speed>4.6</speed>
<course>357.0</course>
<desc>Speed 4.6 km/h Distance 2.19 km</desc>
<time>2010-03-03T16:17:39.37</time>
<name>1231</name>
</trkpt>
<trkpt lat="48.934082" lon="8.679837">
<ele>400.0</ele>
<speed>4.8</speed>
<course>348.8</course>
<desc>Speed 4.8 km/h Distance 2.19 km</desc>
<time>2010-03-03T16:17:40.37</time>
<name>1232</name>
</trkpt>
<trkpt lat="48.934098" lon="8.679832">
<ele>400.5</ele>
<speed>4.8</speed>
<course>357.2</course>
<desc>Speed 4.8 km/h Distance 2.20 km</desc>
<time>2010-03-03T16:17:41.37</time>
<name>1233</name>
</trkpt>
<trkpt lat="48.934115" lon="8.679830">
<ele>401.0</ele>
<speed>5.4</speed>
<course>349.8</course>
<desc>Speed 5.4 km/h Distance 2.20 km</desc>
<time>2010-03-03T16:17:42.37</time>
<name>1234</name>
</trkpt>
<trkpt lat="48.934133" lon="8.679825">
<ele>401.5</ele>
<speed>5.3</speed>
<course>357.5</course>
<desc>Speed 5.3 km/h Distance 2.20 km</desc>
<time>2010-03-03T16:17:43.37</time>
<name>1235</name>
</trkpt>
<trkpt lat="48.934152" lon="8.679823">
<ele>402.0</ele>
<speed>5.0</speed>
<course>2.7</course>
<desc>Speed 5.0 km/h Distance 2.20 km</desc>
<time>2010-03-03T16:17:44.36</time>
<name>1236</name>
</trkpt>
<trkpt lat="48.934172" lon="8.679825">
<ele>402.0</ele>
<speed>5.1</speed>
<course>7.5</course>
<desc>Speed 5.1 km/h Distance 2.20 km</desc>
<time>2010-03-03T16:17:45.36</time>
<name>1237</name>
</trkpt>
<trkpt lat="48.934195" lon="8.679830">
<ele>403.5</ele>
<speed>5.1</speed>
<course>357.5</course>
<desc>Speed 5.1 km/h Distance 2.21 km</desc>
<time>2010-03-03T16:17:46.35</time>
<name>1238</name>
</trkpt>
<trkpt lat="48.934213" lon="8.679828">
<ele>404.5</ele>
<speed>4.6</speed>
<course>341.9</course>
<desc>Speed 4.6 km/h Distance 2.21 km</desc>
<time>2010-03-03T16:17:47.35</time>
<name>1239</name>
</trkpt>
<trkpt lat="48.934227" lon="8.679822">
<ele>405.0</ele>
<speed>4.3</speed>
<course>336.6</course>
<desc>Speed 4.3 km/h Distance 2.21 km</desc>
<time>2010-03-03T16:17:48.36</time>
<name>1240</name>
</trkpt>
<trkpt lat="48.934237" lon="8.679815">
<ele>405.0</ele>
<speed>4.4</speed>
<course>351.0</course>
<desc>Speed 4.4 km/h Distance 2.21 km</desc>
<time>2010-03-03T16:17:49.35</time>
<name>1241</name>
</trkpt>
<trkpt lat="48.934250" lon="8.679812">
<ele>405.0</ele>
<speed>4.4</speed>
<course>346.5</course>
<desc>Speed 4.4 km/h Distance 2.21 km</desc>
<time>2010-03-03T16:17:50.35</time>
<name>1242</name>
</trkpt>
<trkpt lat="48.934263" lon="8.679807">
<ele>405.5</ele>
<speed>4.2</speed>
<course>351.0</course>
<desc>Speed 4.2 km/h Distance 2.22 km</desc>
<time>2010-03-03T16:17:51.35</time>
<name>1243</name>
</trkpt>
<trkpt lat="48.934277" lon="8.679803">
<ele>406.0</ele>
<speed>4.3</speed>
<course>5.3</course>
<desc>Speed 4.3 km/h Distance 2.22 km</desc>
<time>2010-03-03T16:17:52.35</time>
<name>1244</name>
</trkpt>
<trkpt lat="48.934290" lon="8.679805">
<ele>405.5</ele>
<speed>4.6</speed>
<course>346.5</course>
<desc>Speed 4.6 km/h Distance 2.22 km</desc>
<time>2010-03-03T16:17:53.35</time>
<name>1245</name>
</trkpt>
<trkpt lat="48.934303" lon="8.679800">
<ele>405.5</ele>
<speed>5.0</speed>
<course>344.0</course>
<desc>Speed 5.0 km/h Distance 2.22 km</desc>
<time>2010-03-03T16:17:54.35</time>
<name>1246</name>
</trkpt>
<trkpt lat="48.934318" lon="8.679793">
<ele>405.5</ele>
<speed>5.1</speed>
<course>352.3</course>
<desc>Speed 5.1 km/h Distance 2.22 km</desc>
<time>2010-03-03T16:17:55.35</time>
<name>1247</name>
</trkpt>
<trkpt lat="48.934335" lon="8.679790">
<ele>405.5</ele>
<speed>4.6</speed>
<course>341.9</course>
<desc>Speed 4.6 km/h Distance 2.22 km</desc>
<time>2010-03-03T16:17:56.36</time>
<name>1248</name>
</trkpt>
<trkpt lat="48.934348" lon="8.679783">
<ele>406.5</ele>
<speed>5.0</speed>
<course>13.6</course>
<desc>Speed 5.0 km/h Distance 2.22 km</desc>
<time>2010-03-03T16:17:57.36</time>
<name>1249</name>
</trkpt>
<trkpt lat="48.934367" lon="8.679790">
<ele>408.0</ele>
<speed>5.3</speed>
<course>343.7</course>
<desc>Speed 5.3 km/h Distance 2.23 km</desc>
<time>2010-03-03T16:17:58.36</time>
<name>1250</name>
</trkpt>
<trkpt lat="48.934382" lon="8.679783">
<ele>408.0</ele>
<speed>5.0</speed>
<course>348.3</course>
<desc>Speed 5.0 km/h Distance 2.23 km</desc>
<time>2010-03-03T16:17:59.36</time>
<name>1251</name>
</trkpt>
<trkpt lat="48.934397" lon="8.679778">
<ele>408.0</ele>
<speed>5.3</speed>
<course>337.7</course>
<desc>Speed 5.3 km/h Distance 2.23 km</desc>
<time>2010-03-03T16:18:00.35</time>
<name>1252</name>
</trkpt>
<trkpt lat="48.934410" lon="8.679770">
<ele>408.0</ele>
<speed>4.7</speed>
<course>339.1</course>
<desc>Speed 4.7 km/h Distance 2.23 km</desc>
<time>2010-03-03T16:18:01.35</time>
<name>1253</name>
</trkpt>
<trkpt lat="48.934422" lon="8.679763">
<ele>407.5</ele>
<speed>5.1</speed>
<course>341.9</course>
<desc>Speed 5.1 km/h Distance 2.23 km</desc>
<time>2010-03-03T16:18:02.35</time>
<name>1254</name>
</trkpt>
<trkpt lat="48.934435" lon="8.679757">
<ele>406.5</ele>
<speed>5.0</speed>
<course>330.2</course>
<desc>Speed 5.0 km/h Distance 2.24 km</desc>
<time>2010-03-03T16:18:03.34</time>
<name>1255</name>
</trkpt>
<trkpt lat="48.934448" lon="8.679745">
<ele>406.5</ele>
<speed>5.2</speed>
<course>330.2</course>
<desc>Speed 5.2 km/h Distance 2.24 km</desc>
<time>2010-03-03T16:18:04.35</time>
<name>1256</name>
</trkpt>
<trkpt lat="48.934462" lon="8.679733">
<ele>405.5</ele>
<speed>5.6</speed>
<course>341.8</course>
<desc>Speed 5.6 km/h Distance 2.24 km</desc>
<time>2010-03-03T16:18:05.34</time>
<name>1257</name>
</trkpt>
<trkpt lat="48.934472" lon="8.679728">
<ele>405.5</ele>
<speed>4.5</speed>
<course>341.9</course>
<desc>Speed 4.5 km/h Distance 2.24 km</desc>
<time>2010-03-03T16:18:06.35</time>
<name>1258</name>
</trkpt>
<trkpt lat="48.934485" lon="8.679722">
<ele>405.5</ele>
<speed>4.8</speed>
<course>344.5</course>
<desc>Speed 4.8 km/h Distance 2.24 km</desc>
<time>2010-03-03T16:18:07.35</time>
<name>1259</name>
</trkpt>
<trkpt lat="48.934497" lon="8.679717">
<ele>405.5</ele>
<speed>4.2</speed>
<course>330.8</course>
<desc>Speed 4.2 km/h Distance 2.24 km</desc>
<time>2010-03-03T16:18:08.34</time>
<name>1260</name>
</trkpt>
<trkpt lat="48.934508" lon="8.679707">
<ele>404.5</ele>
<speed>4.5</speed>
<course>337.4</course>
<desc>Speed 4.5 km/h Distance 2.24 km</desc>
<time>2010-03-03T16:18:09.35</time>
<name>1261</name>
</trkpt>
<trkpt lat="48.934522" lon="8.679698">
<ele>403.5</ele>
<speed>4.9</speed>
<course>330.8</course>
<desc>Speed 4.9 km/h Distance 2.25 km</desc>
<time>2010-03-03T16:18:10.35</time>
<name>1262</name>
</trkpt>
<trkpt lat="48.934533" lon="8.679688">
<ele>402.0</ele>
<speed>4.8</speed>
<course>339.9</course>
<desc>Speed 4.8 km/h Distance 2.25 km</desc>
<time>2010-03-03T16:18:11.35</time>
<name>1263</name>
</trkpt>
<trkpt lat="48.934548" lon="8.679680">
<ele>401.0</ele>
<speed>5.4</speed>
<course>339.1</course>
<desc>Speed 5.4 km/h Distance 2.25 km</desc>
<time>2010-03-03T16:18:12.35</time>
<name>1264</name>
</trkpt>
<trkpt lat="48.934560" lon="8.679673">
<ele>400.0</ele>
<speed>4.6</speed>
<course>351.0</course>
<desc>Speed 4.6 km/h Distance 2.25 km</desc>
<time>2010-03-03T16:18:13.34</time>
<name>1265</name>
</trkpt>
<trkpt lat="48.934573" lon="8.679670">
<ele>399.0</ele>
<speed>4.6</speed>
<course>339.8</course>
<desc>Speed 4.6 km/h Distance 2.25 km</desc>
<time>2010-03-03T16:18:14.34</time>
<name>1266</name>
</trkpt>
<trkpt lat="48.934585" lon="8.679663">
<ele>398.5</ele>
<speed>4.5</speed>
<course>335.1</course>
<desc>Speed 4.5 km/h Distance 2.25 km</desc>
<time>2010-03-03T16:18:15.34</time>
<name>1267</name>
</trkpt>
<trkpt lat="48.934597" lon="8.679655">
<ele>398.5</ele>
<speed>4.5</speed>
<course>337.4</course>
<desc>Speed 4.5 km/h Distance 2.25 km</desc>
<time>2010-03-03T16:18:16.34</time>
<name>1268</name>
</trkpt>
<trkpt lat="48.934610" lon="8.679647">
<ele>398.0</ele>
<speed>4.7</speed>
<course>341.9</course>
<desc>Speed 4.7 km/h Distance 2.26 km</desc>
<time>2010-03-03T16:18:17.34</time>
<name>1269</name>
</trkpt>
<trkpt lat="48.934623" lon="8.679640">
<ele>397.5</ele>
<speed>5.0</speed>
<course>355.3</course>
<desc>Speed 5.0 km/h Distance 2.26 km</desc>
<time>2010-03-03T16:18:18.34</time>
<name>1270</name>
</trkpt>
<trkpt lat="48.934635" lon="8.679638">
<ele>397.5</ele>
<speed>4.3</speed>
<course>354.7</course>
<desc>Speed 4.3 km/h Distance 2.26 km</desc>
<time>2010-03-03T16:18:19.33</time>
<name>1271</name>
</trkpt>
<trkpt lat="48.934648" lon="8.679637">
<ele>397.5</ele>
<speed>4.5</speed>
<course>4.7</course>
<desc>Speed 4.5 km/h Distance 2.26 km</desc>
<time>2010-03-03T16:18:20.33</time>
<name>1272</name>
</trkpt>
<trkpt lat="48.934660" lon="8.679638">
<ele>397.0</ele>
<speed>4.4</speed>
<course>23.4</course>
<desc>Speed 4.4 km/h Distance 2.26 km</desc>
<time>2010-03-03T16:18:21.33</time>
<name>1273</name>
</trkpt>
<trkpt lat="48.934670" lon="8.679645">
<ele>396.5</ele>
<speed>4.3</speed>
<course>9.0</course>
<desc>Speed 4.3 km/h Distance 2.26 km</desc>
<time>2010-03-03T16:18:22.34</time>
<name>1274</name>
</trkpt>
<trkpt lat="48.934683" lon="8.679648">
<ele>396.5</ele>
<speed>4.6</speed>
<course>3.9</course>
<desc>Speed 4.6 km/h Distance 2.26 km</desc>
<time>2010-03-03T16:18:23.34</time>
<name>1275</name>
</trkpt>
<trkpt lat="48.934697" lon="8.679650">
<ele>396.5</ele>
<speed>4.6</speed>
<course>2.8</course>
<desc>Speed 4.6 km/h Distance 2.27 km</desc>
<time>2010-03-03T16:18:24.34</time>
<name>1276</name>
</trkpt>
<trkpt lat="48.934713" lon="8.679650">
<ele>396.0</ele>
<speed>5.2</speed>
<course>355.9</course>
<desc>Speed 5.2 km/h Distance 2.27 km</desc>
<time>2010-03-03T16:18:25.34</time>
<name>1277</name>
</trkpt>
<trkpt lat="48.934730" lon="8.679648">
<ele>395.5</ele>
<speed>5.4</speed>
<course>1.2</course>
<desc>Speed 5.4 km/h Distance 2.27 km</desc>
<time>2010-03-03T16:18:26.33</time>
<name>1278</name>
</trkpt>
<trkpt lat="48.934743" lon="8.679650">
<ele>395.5</ele>
<speed>4.6</speed>
<course>4.4</course>
<desc>Speed 4.6 km/h Distance 2.27 km</desc>
<time>2010-03-03T16:18:27.34</time>
<name>1279</name>
</trkpt>
<trkpt lat="48.934753" lon="8.679652">
<ele>395.0</ele>
<speed>4.1</speed>
<course>1.2</course>
<desc>Speed 4.1 km/h Distance 2.27 km</desc>
<time>2010-03-03T16:18:28.33</time>
<name>1280</name>
</trkpt>
<trkpt lat="48.934767" lon="8.679652">
<ele>395.0</ele>
<speed>4.8</speed>
<course>4.7</course>
<desc>Speed 4.8 km/h Distance 2.27 km</desc>
<time>2010-03-03T16:18:29.34</time>
<name>1281</name>
</trkpt>
<trkpt lat="48.934778" lon="8.679652">
<ele>394.5</ele>
<speed>4.2</speed>
<course>4.7</course>
<desc>Speed 4.2 km/h Distance 2.28 km</desc>
<time>2010-03-03T16:18:30.33</time>
<name>1282</name>
</trkpt>
<trkpt lat="48.934790" lon="8.679653">
<ele>394.0</ele>
<speed>5.0</speed>
<course>7.7</course>
<desc>Speed 5.0 km/h Distance 2.28 km</desc>
<time>2010-03-03T16:18:31.33</time>
<name>1283</name>
</trkpt>
<trkpt lat="48.934807" lon="8.679657">
<ele>395.5</ele>
<speed>5.3</speed>
<course>13.5</course>
<desc>Speed 5.3 km/h Distance 2.28 km</desc>
<time>2010-03-03T16:18:32.32</time>
<name>1284</name>
</trkpt>
<trkpt lat="48.934820" lon="8.679662">
<ele>395.5</ele>
<speed>4.6</speed>
<course>4.4</course>
<desc>Speed 4.6 km/h Distance 2.28 km</desc>
<time>2010-03-03T16:18:33.32</time>
<name>1285</name>
</trkpt>
<trkpt lat="48.934830" lon="8.679662">
<ele>397.0</ele>
<speed>4.1</speed>
<course>6.3</course>
<desc>Speed 4.1 km/h Distance 2.28 km</desc>
<time>2010-03-03T16:18:34.33</time>
<name>1286</name>
</trkpt>
<trkpt lat="48.934842" lon="8.679663">
<ele>397.5</ele>
<speed>3.8</speed>
<course>356.1</course>
<desc>Speed 3.8 km/h Distance 2.28 km</desc>
<time>2010-03-03T16:18:35.32</time>
<name>1287</name>
</trkpt>
<trkpt lat="48.934855" lon="8.679662">
<ele>397.5</ele>
<speed>5.1</speed>
<course>344.5</course>
<desc>Speed 5.1 km/h Distance 2.28 km</desc>
<time>2010-03-03T16:18:36.32</time>
<name>1288</name>
</trkpt>
<trkpt lat="48.934867" lon="8.679657">
<ele>397.0</ele>
<speed>4.5</speed>
<course>348.8</course>
<desc>Speed 4.5 km/h Distance 2.29 km</desc>
<time>2010-03-03T16:18:37.33</time>
<name>1289</name>
</trkpt>
<trkpt lat="48.934878" lon="8.679653">
<ele>397.0</ele>
<speed>4.4</speed>
<course>341.9</course>
<desc>Speed 4.4 km/h Distance 2.29 km</desc>
<time>2010-03-03T16:18:38.32</time>
<name>1290</name>
</trkpt>
<trkpt lat="48.934892" lon="8.679647">
<ele>397.0</ele>
<speed>4.3</speed>
<course>344.0</course>
<desc>Speed 4.3 km/h Distance 2.29 km</desc>
<time>2010-03-03T16:18:39.33</time>
<name>1291</name>
</trkpt>
<trkpt lat="48.934903" lon="8.679642">
<ele>397.0</ele>
<speed>4.4</speed>
<course>354.7</course>
<desc>Speed 4.4 km/h Distance 2.29 km</desc>
<time>2010-03-03T16:18:40.36</time>
<name>1292</name>
</trkpt>
<trkpt lat="48.934917" lon="8.679640">
<ele>397.0</ele>
<speed>4.5</speed>
<course>4.7</course>
<desc>Speed 4.5 km/h Distance 2.29 km</desc>
<time>2010-03-03T16:18:41.32</time>
<name>1293</name>
</trkpt>
<trkpt lat="48.934928" lon="8.679640">
<ele>396.0</ele>
<speed>4.1</speed>
<course>0.0</course>
<desc>Speed 4.1 km/h Distance 2.29 km</desc>
<time>2010-03-03T16:18:42.33</time>
<name>1294</name>
</trkpt>
<trkpt lat="48.934940" lon="8.679640">
<ele>395.0</ele>
<speed>3.4</speed>
<course>4.7</course>
<desc>Speed 3.4 km/h Distance 2.29 km</desc>
<time>2010-03-03T16:18:43.32</time>
<name>1295</name>
</trkpt>
<trkpt lat="48.934952" lon="8.679642">
<ele>394.0</ele>
<speed>3.9</speed>
<course>1.2</course>
<desc>Speed 3.9 km/h Distance 2.29 km</desc>
<time>2010-03-03T16:18:44.32</time>
<name>1296</name>
</trkpt>
<trkpt lat="48.934965" lon="8.679642">
<ele>393.5</ele>
<speed>4.2</speed>
<course>14.9</course>
<desc>Speed 4.2 km/h Distance 2.30 km</desc>
<time>2010-03-03T16:18:45.31</time>
<name>1297</name>
</trkpt>
<trkpt lat="48.934973" lon="8.679645">
<ele>393.5</ele>
<speed>3.1</speed>
<course>18.2</course>
<desc>Speed 3.1 km/h Distance 2.30 km</desc>
<time>2010-03-03T16:18:46.40</time>
<name>1298</name>
</trkpt>
<trkpt lat="48.934983" lon="8.679650">
<ele>393.5</ele>
<speed>3.3</speed>
<course>22.2</course>
<desc>Speed 3.3 km/h Distance 2.30 km</desc>
<time>2010-03-03T16:18:47.31</time>
<name>1299</name>
</trkpt>
<trkpt lat="48.934988" lon="8.679653">
<ele>393.5</ele>
<speed>2.2</speed>
<course>44.5</course>
<desc>Speed 2.2 km/h Distance 2.30 km</desc>
<time>2010-03-03T16:18:48.31</time>
<name>1300</name>
</trkpt>
<trkpt lat="48.934995" lon="8.679663">
<ele>393.5</ele>
<speed>3.6</speed>
<course>44.5</course>
<desc>Speed 3.6 km/h Distance 2.30 km</desc>
<time>2010-03-03T16:18:49.32</time>
<name>1301</name>
</trkpt>
<trkpt lat="48.935002" lon="8.679673">
<ele>393.0</ele>
<speed>3.3</speed>
<course>21.5</course>
<desc>Speed 3.3 km/h Distance 2.30 km</desc>
<time>2010-03-03T16:18:50.31</time>
<name>1302</name>
</trkpt>
<trkpt lat="48.935010" lon="8.679678">
<ele>393.0</ele>
<speed>3.2</speed>
<course>18.2</course>
<desc>Speed 3.2 km/h Distance 2.30 km</desc>
<time>2010-03-03T16:18:51.31</time>
<name>1303</name>
</trkpt>
<trkpt lat="48.935020" lon="8.679683">
<ele>392.5</ele>
<speed>4.2</speed>
<course>23.8</course>
<desc>Speed 4.2 km/h Distance 2.30 km</desc>
<time>2010-03-03T16:18:52.32</time>
<name>1304</name>
</trkpt>
<trkpt lat="48.935030" lon="8.679690">
<ele>392.5</ele>
<speed>4.3</speed>
<course>24.9</course>
<desc>Speed 4.3 km/h Distance 2.30 km</desc>
<time>2010-03-03T16:18:53.32</time>
<name>1305</name>
</trkpt>
<trkpt lat="48.935042" lon="8.679698">
<ele>392.0</ele>
<speed>4.2</speed>
<course>33.2</course>
<desc>Speed 4.2 km/h Distance 2.31 km</desc>
<time>2010-03-03T16:18:54.32</time>
<name>1306</name>
</trkpt>
<trkpt lat="48.935050" lon="8.679707">
<ele>391.5</ele>
<speed>3.4</speed>
<course>12.6</course>
<desc>Speed 3.4 km/h Distance 2.31 km</desc>
<time>2010-03-03T16:18:55.32</time>
<name>1307</name>
</trkpt>
<trkpt lat="48.935060" lon="8.679710">
<ele>391.0</ele>
<speed>4.0</speed>
<course>9.5</course>
<desc>Speed 4.0 km/h Distance 2.31 km</desc>
<time>2010-03-03T16:18:56.32</time>
<name>1308</name>
</trkpt>
<trkpt lat="48.935072" lon="8.679713">
<ele>390.5</ele>
<speed>4.1</speed>
<course>1.2</course>
<desc>Speed 4.1 km/h Distance 2.31 km</desc>
<time>2010-03-03T16:18:57.31</time>
<name>1309</name>
</trkpt>
<trkpt lat="48.935085" lon="8.679715">
<ele>390.0</ele>
<speed>4.5</speed>
<course>357.2</course>
<desc>Speed 4.5 km/h Distance 2.31 km</desc>
<time>2010-03-03T16:18:58.32</time>
<name>1310</name>
</trkpt>
<trkpt lat="48.935102" lon="8.679713">
<ele>389.5</ele>
<speed>4.7</speed>
<course>1.2</course>
<desc>Speed 4.7 km/h Distance 2.31 km</desc>
<time>2010-03-03T16:18:59.31</time>
<name>1311</name>
</trkpt>
<trkpt lat="48.935115" lon="8.679713">
<ele>389.0</ele>
<speed>4.9</speed>
<course>356.2</course>
<desc>Speed 4.9 km/h Distance 2.31 km</desc>
<time>2010-03-03T16:19:00.31</time>
<name>1312</name>
</trkpt>
<trkpt lat="48.935130" lon="8.679712">
<ele>389.0</ele>
<speed>4.5</speed>
<course>1.2</course>
<desc>Speed 4.5 km/h Distance 2.32 km</desc>
<time>2010-03-03T16:19:01.31</time>
<name>1313</name>
</trkpt>
<trkpt lat="48.935143" lon="8.679712">
<ele>388.0</ele>
<speed>4.0</speed>
<course>355.0</course>
<desc>Speed 4.0 km/h Distance 2.32 km</desc>
<time>2010-03-03T16:19:02.31</time>
<name>1314</name>
</trkpt>
<trkpt lat="48.935152" lon="8.679710">
<ele>388.0</ele>
<speed>3.0</speed>
<course>7.7</course>
<desc>Speed 3.0 km/h Distance 2.32 km</desc>
<time>2010-03-03T16:19:03.32</time>
<name>1315</name>
</trkpt>
<trkpt lat="48.935160" lon="8.679712">
<ele>387.5</ele>
<speed>2.7</speed>
<course>4.7</course>
<desc>Speed 2.7 km/h Distance 2.32 km</desc>
<time>2010-03-03T16:19:04.32</time>
<name>1316</name>
</trkpt>
<trkpt lat="48.935172" lon="8.679712">
<ele>387.5</ele>
<speed>4.5</speed>
<course>0.0</course>
<desc>Speed 4.5 km/h Distance 2.32 km</desc>
<time>2010-03-03T16:19:05.31</time>
<name>1317</name>
</trkpt>
<trkpt lat="48.935187" lon="8.679712">
<ele>387.5</ele>
<speed>5.4</speed>
<course>2.8</course>
<desc>Speed 5.4 km/h Distance 2.32 km</desc>
<time>2010-03-03T16:19:06.31</time>
<name>1318</name>
</trkpt>
<trkpt lat="48.935203" lon="8.679712">
<ele>387.0</ele>
<speed>5.7</speed>
<course>3.8</course>
<desc>Speed 5.7 km/h Distance 2.32 km</desc>
<time>2010-03-03T16:19:07.30</time>
<name>1319</name>
</trkpt>
<trkpt lat="48.935218" lon="8.679713">
<ele>387.0</ele>
<speed>4.5</speed>
<course>2.8</course>
<desc>Speed 4.5 km/h Distance 2.33 km</desc>
<time>2010-03-03T16:19:08.30</time>
<name>1320</name>
</trkpt>
<trkpt lat="48.935235" lon="8.679715">
<ele>387.0</ele>
<speed>5.4</speed>
<course>2.5</course>
<desc>Speed 5.4 km/h Distance 2.33 km</desc>
<time>2010-03-03T16:19:09.30</time>
<name>1321</name>
</trkpt>
<trkpt lat="48.935253" lon="8.679717">
<ele>387.0</ele>
<speed>5.7</speed>
<course>4.1</course>
<desc>Speed 5.7 km/h Distance 2.33 km</desc>
<time>2010-03-03T16:19:10.40</time>
<name>1322</name>
</trkpt>
<trkpt lat="48.935270" lon="8.679718">
<ele>386.5</ele>
<speed>5.5</speed>
<course>3.8</course>
<desc>Speed 5.5 km/h Distance 2.33 km</desc>
<time>2010-03-03T16:19:11.31</time>
<name>1323</name>
</trkpt>
<trkpt lat="48.935285" lon="8.679720">
<ele>386.5</ele>
<speed>5.5</speed>
<course>7.1</course>
<desc>Speed 5.5 km/h Distance 2.33 km</desc>
<time>2010-03-03T16:19:12.30</time>
<name>1324</name>
</trkpt>
<trkpt lat="48.935302" lon="8.679723">
<ele>386.0</ele>
<speed>5.9</speed>
<course>10.8</course>
<desc>Speed 5.9 km/h Distance 2.34 km</desc>
<time>2010-03-03T16:19:13.30</time>
<name>1325</name>
</trkpt>
<trkpt lat="48.935318" lon="8.679728">
<ele>385.0</ele>
<speed>5.8</speed>
<course>7.7</course>
<desc>Speed 5.8 km/h Distance 2.34 km</desc>
<time>2010-03-03T16:19:14.31</time>
<name>1326</name>
</trkpt>
<trkpt lat="48.935335" lon="8.679732">
<ele>384.5</ele>
<speed>5.7</speed>
<course>11.7</course>
<desc>Speed 5.7 km/h Distance 2.34 km</desc>
<time>2010-03-03T16:19:15.31</time>
<name>1327</name>
</trkpt>
<trkpt lat="48.935350" lon="8.679737">
<ele>384.0</ele>
<speed>5.9</speed>
<course>9.5</course>
<desc>Speed 5.9 km/h Distance 2.34 km</desc>
<time>2010-03-03T16:19:16.30</time>
<name>1328</name>
</trkpt>
<trkpt lat="48.935370" lon="8.679742">
<ele>383.5</ele>
<speed>5.9</speed>
<course>14.9</course>
<desc>Speed 5.9 km/h Distance 2.34 km</desc>
<time>2010-03-03T16:19:17.31</time>
<name>1329</name>
</trkpt>
<trkpt lat="48.935387" lon="8.679748">
<ele>383.5</ele>
<speed>5.8</speed>
<course>23.7</course>
<desc>Speed 5.8 km/h Distance 2.34 km</desc>
<time>2010-03-03T16:19:18.30</time>
<name>1330</name>
</trkpt>
<trkpt lat="48.935402" lon="8.679758">
<ele>383.0</ele>
<speed>6.0</speed>
<course>22.6</course>
<desc>Speed 6.0 km/h Distance 2.35 km</desc>
<time>2010-03-03T16:19:19.30</time>
<name>1331</name>
</trkpt>
<trkpt lat="48.935415" lon="8.679767">
<ele>383.0</ele>
<speed>5.3</speed>
<course>20.1</course>
<desc>Speed 5.3 km/h Distance 2.35 km</desc>
<time>2010-03-03T16:19:20.30</time>
<name>1332</name>
</trkpt>
<trkpt lat="48.935430" lon="8.679775">
<ele>383.0</ele>
<speed>5.2</speed>
<course>14.9</course>
<desc>Speed 5.2 km/h Distance 2.35 km</desc>
<time>2010-03-03T16:19:21.30</time>
<name>1333</name>
</trkpt>
<trkpt lat="48.935447" lon="8.679782">
<ele>383.0</ele>
<speed>4.9</speed>
<course>29.4</course>
<desc>Speed 4.9 km/h Distance 2.35 km</desc>
<time>2010-03-03T16:19:22.30</time>
<name>1334</name>
</trkpt>
<trkpt lat="48.935458" lon="8.679792">
<ele>382.5</ele>
<speed>4.8</speed>
<course>24.9</course>
<desc>Speed 4.8 km/h Distance 2.35 km</desc>
<time>2010-03-03T16:19:23.30</time>
<name>1335</name>
</trkpt>
<trkpt lat="48.935470" lon="8.679800">
<ele>382.0</ele>
<speed>4.7</speed>
<course>16.0</course>
<desc>Speed 4.7 km/h Distance 2.35 km</desc>
<time>2010-03-03T16:19:24.30</time>
<name>1336</name>
</trkpt>
<trkpt lat="48.935485" lon="8.679807">
<ele>382.0</ele>
<speed>4.8</speed>
<course>10.8</course>
<desc>Speed 4.8 km/h Distance 2.36 km</desc>
<time>2010-03-03T16:19:25.30</time>
<name>1337</name>
</trkpt>
<trkpt lat="48.935502" lon="8.679812">
<ele>382.0</ele>
<speed>5.1</speed>
<course>13.5</course>
<desc>Speed 5.1 km/h Distance 2.36 km</desc>
<time>2010-03-03T16:19:26.30</time>
<name>1338</name>
</trkpt>
<trkpt lat="48.935515" lon="8.679817">
<ele>381.5</ele>
<speed>5.2</speed>
<course>16.0</course>
<desc>Speed 5.2 km/h Distance 2.36 km</desc>
<time>2010-03-03T16:19:27.29</time>
<name>1339</name>
</trkpt>
<trkpt lat="48.935527" lon="8.679822">
<ele>381.5</ele>
<speed>4.8</speed>
<course>12.2</course>
<desc>Speed 4.8 km/h Distance 2.36 km</desc>
<time>2010-03-03T16:19:28.29</time>
<name>1340</name>
</trkpt>
<trkpt lat="48.935542" lon="8.679827">
<ele>381.0</ele>
<speed>5.2</speed>
<course>13.5</course>
<desc>Speed 5.2 km/h Distance 2.36 km</desc>
<time>2010-03-03T16:19:29.30</time>
<name>1341</name>
</trkpt>
<trkpt lat="48.935555" lon="8.679832">
<ele>381.0</ele>
<speed>5.3</speed>
<course>13.5</course>
<desc>Speed 5.3 km/h Distance 2.36 km</desc>
<time>2010-03-03T16:19:30.29</time>
<name>1342</name>
</trkpt>
<trkpt lat="48.935568" lon="8.679837">
<ele>381.0</ele>
<speed>4.9</speed>
<course>14.0</course>
<desc>Speed 4.9 km/h Distance 2.37 km</desc>
<time>2010-03-03T16:19:31.29</time>
<name>1343</name>
</trkpt>
<trkpt lat="48.935582" lon="8.679842">
<ele>380.5</ele>
<speed>5.2</speed>
<course>12.6</course>
<desc>Speed 5.2 km/h Distance 2.37 km</desc>
<time>2010-03-03T16:19:32.29</time>
<name>1344</name>
</trkpt>
<trkpt lat="48.935597" lon="8.679847">
<ele>380.5</ele>
<speed>5.2</speed>
<course>14.0</course>
<desc>Speed 5.2 km/h Distance 2.37 km</desc>
<time>2010-03-03T16:19:33.29</time>
<name>1345</name>
</trkpt>
<trkpt lat="48.935610" lon="8.679852">
<ele>381.0</ele>
<speed>4.7</speed>
<course>20.9</course>
<desc>Speed 4.7 km/h Distance 2.37 km</desc>
<time>2010-03-03T16:19:34.29</time>
<name>1346</name>
</trkpt>
<trkpt lat="48.935622" lon="8.679858">
<ele>381.0</ele>
<speed>4.6</speed>
<course>18.1</course>
<desc>Speed 4.6 km/h Distance 2.37 km</desc>
<time>2010-03-03T16:19:35.30</time>
<name>1347</name>
</trkpt>
<trkpt lat="48.935635" lon="8.679865">
<ele>381.0</ele>
<speed>4.8</speed>
<course>20.9</course>
<desc>Speed 4.8 km/h Distance 2.37 km</desc>
<time>2010-03-03T16:19:36.29</time>
<name>1348</name>
</trkpt>
<trkpt lat="48.935647" lon="8.679872">
<ele>381.0</ele>
<speed>4.6</speed>
<course>18.1</course>
<desc>Speed 4.6 km/h Distance 2.38 km</desc>
<time>2010-03-03T16:19:37.29</time>
<name>1349</name>
</trkpt>
<trkpt lat="48.935660" lon="8.679878">
<ele>381.0</ele>
<speed>5.3</speed>
<course>16.6</course>
<desc>Speed 5.3 km/h Distance 2.38 km</desc>
<time>2010-03-03T16:19:38.29</time>
<name>1350</name>
</trkpt>
<trkpt lat="48.935675" lon="8.679885">
<ele>381.5</ele>
<speed>5.5</speed>
<course>16.6</course>
<desc>Speed 5.5 km/h Distance 2.38 km</desc>
<time>2010-03-03T16:19:39.29</time>
<name>1351</name>
</trkpt>
<trkpt lat="48.935690" lon="8.679892">
<ele>382.0</ele>
<speed>5.5</speed>
<course>12.6</course>
<desc>Speed 5.5 km/h Distance 2.38 km</desc>
<time>2010-03-03T16:19:40.29</time>
<name>1352</name>
</trkpt>
<trkpt lat="48.935705" lon="8.679897">
<ele>382.0</ele>
<speed>5.4</speed>
<course>16.0</course>
<desc>Speed 5.4 km/h Distance 2.38 km</desc>
<time>2010-03-03T16:19:41.30</time>
<name>1353</name>
</trkpt>
<trkpt lat="48.935717" lon="8.679902">
<ele>382.0</ele>
<speed>5.0</speed>
<course>18.1</course>
<desc>Speed 5.0 km/h Distance 2.38 km</desc>
<time>2010-03-03T16:19:42.30</time>
<name>1354</name>
</trkpt>
<trkpt lat="48.935730" lon="8.679908">
<ele>382.0</ele>
<speed>5.2</speed>
<course>22.3</course>
<desc>Speed 5.2 km/h Distance 2.38 km</desc>
<time>2010-03-03T16:19:43.29</time>
<name>1355</name>
</trkpt>
<trkpt lat="48.935743" lon="8.679917">
<ele>382.0</ele>
<speed>5.3</speed>
<course>42.6</course>
<desc>Speed 5.3 km/h Distance 2.39 km</desc>
<time>2010-03-03T16:19:44.29</time>
<name>1356</name>
</trkpt>
<trkpt lat="48.935752" lon="8.679928">
<ele>381.5</ele>
<speed>4.4</speed>
<course>12.6</course>
<desc>Speed 4.4 km/h Distance 2.39 km</desc>
<time>2010-03-03T16:19:45.30</time>
<name>1357</name>
</trkpt>
<trkpt lat="48.935757" lon="8.679930">
<ele>381.5</ele>
<speed>2.0</speed>
<course>25.4</course>
<desc>Speed 2.0 km/h Distance 2.39 km</desc>
<time>2010-03-03T16:19:46.29</time>
<name>1358</name>
</trkpt>
<trkpt lat="48.935762" lon="8.679933">
<ele>381.0</ele>
<speed>2.1</speed>
<course>69.5</course>
<desc>Speed 2.1 km/h Distance 2.39 km</desc>
<time>2010-03-03T16:19:47.29</time>
<name>1359</name>
</trkpt>
<trkpt lat="48.935763" lon="8.679940">
<ele>380.5</ele>
<speed>1.8</speed>
<course>270.0</course>
<desc>Speed 1.8 km/h Distance 2.39 km</desc>
<time>2010-03-03T16:19:48.32</time>
<name>1360</name>
</trkpt>
<trkpt lat="48.935763" lon="8.679937">
<ele>379.5</ele>
<speed>1.1</speed>
<course>270.0</course>
<desc>Speed 1.1 km/h Distance 2.39 km</desc>
<time>2010-03-03T16:19:49.29</time>
<name>1361</name>
</trkpt>
<trkpt lat="48.935763" lon="8.679937">
<ele>379.5</ele>
<speed>0.2</speed>
<course>12.6</course>
<desc>Speed 0.2 km/h Distance 2.39 km</desc>
<time>2010-03-03T16:19:50.28</time>
<name>1362</name>
</trkpt>
<trkpt lat="48.935765" lon="8.679937">
<ele>379.5</ele>
<speed>0.7</speed>
<course>12.6</course>
<desc>Speed 0.7 km/h Distance 2.39 km</desc>
<time>2010-03-03T16:19:51.29</time>
<name>1363</name>
</trkpt>
<trkpt lat="48.935765" lon="8.679937">
<ele>379.5</ele>
<speed>0.4</speed>
<course>12.6</course>
<desc>Speed 0.4 km/h Distance 2.39 km</desc>
<time>2010-03-03T16:19:52.28</time>
<name>1364</name>
</trkpt>
<trkpt lat="48.935765" lon="8.679937">
<ele>379.0</ele>
<speed>0.2</speed>
<course>142.8</course>
<desc>Speed 0.2 km/h Distance 2.39 km</desc>
<time>2010-03-03T16:19:53.29</time>
<name>1365</name>
</trkpt>
<trkpt lat="48.935763" lon="8.679938">
<ele>378.5</ele>
<speed>1.0</speed>
<course>142.8</course>
<desc>Speed 1.0 km/h Distance 2.39 km</desc>
<time>2010-03-03T16:19:54.28</time>
<name>1366</name>
</trkpt>
<trkpt lat="48.935763" lon="8.679938">
<ele>378.5</ele>
<speed>0.2</speed>
<course>142.8</course>
<desc>Speed 0.2 km/h Distance 2.39 km</desc>
<time>2010-03-03T16:19:55.29</time>
<name>1367</name>
</trkpt>
<trkpt lat="48.935763" lon="8.679938">
<ele>378.5</ele>
<speed>0.0</speed>
<course>142.8</course>
<desc>Speed 0.0 km/h Distance 2.39 km</desc>
<time>2010-03-03T16:19:56.29</time>
<name>1368</name>
</trkpt>
<trkpt lat="48.935763" lon="8.679938">
<ele>378.5</ele>
<speed>0.1</speed>
<course>142.8</course>
<desc>Speed 0.1 km/h Distance 2.39 km</desc>
<time>2010-03-03T16:19:57.31</time>
<name>1369</name>
</trkpt>
<trkpt lat="48.935763" lon="8.679938">
<ele>378.5</ele>
<speed>0.3</speed>
<course>142.8</course>
<desc>Speed 0.3 km/h Distance 2.39 km</desc>
<time>2010-03-03T16:19:58.28</time>
<name>1370</name>
</trkpt>
<trkpt lat="48.935763" lon="8.679938">
<ele>378.0</ele>
<speed>0.1</speed>
<course>142.8</course>
<desc>Speed 0.1 km/h Distance 2.39 km</desc>
<time>2010-03-03T16:19:59.29</time>
<name>1371</name>
</trkpt>
<trkpt lat="48.935763" lon="8.679938">
<ele>378.0</ele>
<speed>0.1</speed>
<course>90.0</course>
<desc>Speed 0.1 km/h Distance 2.39 km</desc>
<time>2010-03-03T16:20:00.28</time>
<name>1372</name>
</trkpt>
<trkpt lat="48.935763" lon="8.679940">
<ele>378.0</ele>
<speed>0.3</speed>
<course>90.0</course>
<desc>Speed 0.3 km/h Distance 2.39 km</desc>
<time>2010-03-03T16:20:01.33</time>
<name>1373</name>
</trkpt>
<trkpt lat="48.935763" lon="8.679940">
<ele>377.5</ele>
<speed>0.3</speed>
<course>90.0</course>
<desc>Speed 0.3 km/h Distance 2.39 km</desc>
<time>2010-03-03T16:20:02.28</time>
<name>1374</name>
</trkpt>
<trkpt lat="48.935763" lon="8.679945">
<ele>377.5</ele>
<speed>0.9</speed>
<course>232.4</course>
<desc>Speed 0.9 km/h Distance 2.39 km</desc>
<time>2010-03-03T16:20:03.28</time>
<name>1375</name>
</trkpt>
<trkpt lat="48.935758" lon="8.679935">
<ele>377.0</ele>
<speed>3.3</speed>
<course>37.2</course>
<desc>Speed 3.3 km/h Distance 2.39 km</desc>
<time>2010-03-03T16:20:04.28</time>
<name>1376</name>
</trkpt>
<trkpt lat="48.935760" lon="8.679937">
<ele>377.0</ele>
<speed>0.6</speed>
<course>23.0</course>
<desc>Speed 0.6 km/h Distance 2.39 km</desc>
<time>2010-03-03T16:20:05.28</time>
<name>1377</name>
</trkpt>
<trkpt lat="48.935763" lon="8.679938">
<ele>377.0</ele>
<speed>1.1</speed>
<course>20.9</course>
<desc>Speed 1.1 km/h Distance 2.39 km</desc>
<time>2010-03-03T16:20:06.28</time>
<name>1378</name>
</trkpt>
<trkpt lat="48.935775" lon="8.679945">
<ele>377.0</ele>
<speed>5.0</speed>
<course>33.3</course>
<desc>Speed 5.0 km/h Distance 2.39 km</desc>
<time>2010-03-03T16:20:07.28</time>
<name>1379</name>
</trkpt>
<trkpt lat="48.935787" lon="8.679957">
<ele>377.0</ele>
<speed>4.8</speed>
<course>33.2</course>
<desc>Speed 4.8 km/h Distance 2.40 km</desc>
<time>2010-03-03T16:20:08.27</time>
<name>1380</name>
</trkpt>
<trkpt lat="48.935797" lon="8.679967">
<ele>377.0</ele>
<speed>4.8</speed>
<course>27.2</course>
<desc>Speed 4.8 km/h Distance 2.40 km</desc>
<time>2010-03-03T16:20:09.28</time>
<name>1381</name>
</trkpt>
<trkpt lat="48.935812" lon="8.679978">
<ele>377.0</ele>
<speed>5.2</speed>
<course>33.4</course>
<desc>Speed 5.2 km/h Distance 2.40 km</desc>
<time>2010-03-03T16:20:10.28</time>
<name>1382</name>
</trkpt>
<trkpt lat="48.935823" lon="8.679990">
<ele>377.0</ele>
<speed>5.3</speed>
<course>33.4</course>
<desc>Speed 5.3 km/h Distance 2.40 km</desc>
<time>2010-03-03T16:20:11.28</time>
<name>1383</name>
</trkpt>
<trkpt lat="48.935835" lon="8.680002">
<ele>377.5</ele>
<speed>5.2</speed>
<course>30.0</course>
<desc>Speed 5.2 km/h Distance 2.40 km</desc>
<time>2010-03-03T16:20:12.28</time>
<name>1384</name>
</trkpt>
<trkpt lat="48.935848" lon="8.680013">
<ele>377.0</ele>
<speed>5.2</speed>
<course>38.4</course>
<desc>Speed 5.2 km/h Distance 2.40 km</desc>
<time>2010-03-03T16:20:13.28</time>
<name>1385</name>
</trkpt>
<trkpt lat="48.935857" lon="8.680023">
<ele>377.5</ele>
<speed>4.8</speed>
<course>29.4</course>
<desc>Speed 4.8 km/h Distance 2.40 km</desc>
<time>2010-03-03T16:20:14.27</time>
<name>1386</name>
</trkpt>
<trkpt lat="48.935868" lon="8.680033">
<ele>377.5</ele>
<speed>4.9</speed>
<course>28.3</course>
<desc>Speed 4.9 km/h Distance 2.41 km</desc>
<time>2010-03-03T16:20:15.28</time>
<name>1387</name>
</trkpt>
<trkpt lat="48.935878" lon="8.680042">
<ele>377.5</ele>
<speed>4.8</speed>
<course>25.2</course>
<desc>Speed 4.8 km/h Distance 2.41 km</desc>
<time>2010-03-03T16:20:16.28</time>
<name>1388</name>
</trkpt>
<trkpt lat="48.935890" lon="8.680050">
<ele>377.0</ele>
<speed>5.0</speed>
<course>33.2</course>
<desc>Speed 5.0 km/h Distance 2.41 km</desc>
<time>2010-03-03T16:20:17.28</time>
<name>1389</name>
</trkpt>
<trkpt lat="48.935900" lon="8.680060">
<ele>377.0</ele>
<speed>4.6</speed>
<course>33.1</course>
<desc>Speed 4.6 km/h Distance 2.41 km</desc>
<time>2010-03-03T16:20:18.28</time>
<name>1390</name>
</trkpt>
<trkpt lat="48.935912" lon="8.680072">
<ele>376.5</ele>
<speed>4.9</speed>
<course>29.4</course>
<desc>Speed 4.9 km/h Distance 2.41 km</desc>
<time>2010-03-03T16:20:19.28</time>
<name>1391</name>
</trkpt>
<trkpt lat="48.935923" lon="8.680082">
<ele>376.5</ele>
<speed>4.8</speed>
<course>41.2</course>
<desc>Speed 4.8 km/h Distance 2.41 km</desc>
<time>2010-03-03T16:20:20.27</time>
<name>1392</name>
</trkpt>
<trkpt lat="48.935933" lon="8.680095">
<ele>376.5</ele>
<speed>4.9</speed>
<course>33.3</course>
<desc>Speed 4.9 km/h Distance 2.41 km</desc>
<time>2010-03-03T16:20:21.27</time>
<name>1393</name>
</trkpt>
<trkpt lat="48.935945" lon="8.680107">
<ele>376.0</ele>
<speed>5.0</speed>
<course>44.6</course>
<desc>Speed 5.0 km/h Distance 2.42 km</desc>
<time>2010-03-03T16:20:22.27</time>
<name>1394</name>
</trkpt>
<trkpt lat="48.935955" lon="8.680122">
<ele>376.5</ele>
<speed>4.9</speed>
<course>37.5</course>
<desc>Speed 4.9 km/h Distance 2.42 km</desc>
<time>2010-03-03T16:20:23.28</time>
<name>1395</name>
</trkpt>
<trkpt lat="48.935965" lon="8.680133">
<ele>376.0</ele>
<speed>4.6</speed>
<course>41.2</course>
<desc>Speed 4.6 km/h Distance 2.42 km</desc>
<time>2010-03-03T16:20:24.28</time>
<name>1396</name>
</trkpt>
<trkpt lat="48.935975" lon="8.680147">
<ele>376.0</ele>
<speed>5.0</speed>
<course>41.2</course>
<desc>Speed 5.0 km/h Distance 2.42 km</desc>
<time>2010-03-03T16:20:25.27</time>
<name>1397</name>
</trkpt>
<trkpt lat="48.935985" lon="8.680160">
<ele>376.0</ele>
<speed>5.0</speed>
<course>33.3</course>
<desc>Speed 5.0 km/h Distance 2.42 km</desc>
<time>2010-03-03T16:20:26.27</time>
<name>1398</name>
</trkpt>
<trkpt lat="48.935997" lon="8.680172">
<ele>376.0</ele>
<speed>4.9</speed>
<course>36.9</course>
<desc>Speed 4.9 km/h Distance 2.42 km</desc>
<time>2010-03-03T16:20:27.27</time>
<name>1399</name>
</trkpt>
<trkpt lat="48.936008" lon="8.680185">
<ele>376.0</ele>
<speed>5.1</speed>
<course>49.7</course>
<desc>Speed 5.1 km/h Distance 2.42 km</desc>
<time>2010-03-03T16:20:28.26</time>
<name>1400</name>
</trkpt>
<trkpt lat="48.936017" lon="8.680200">
<ele>376.0</ele>
<speed>4.8</speed>
<course>40.2</course>
<desc>Speed 4.8 km/h Distance 2.43 km</desc>
<time>2010-03-03T16:20:29.27</time>
<name>1401</name>
</trkpt>
<trkpt lat="48.936028" lon="8.680215">
<ele>376.0</ele>
<speed>5.5</speed>
<course>37.5</course>
<desc>Speed 5.5 km/h Distance 2.43 km</desc>
<time>2010-03-03T16:20:30.27</time>
<name>1402</name>
</trkpt>
<trkpt lat="48.936038" lon="8.680227">
<ele>376.0</ele>
<speed>4.9</speed>
<course>42.6</course>
<desc>Speed 4.9 km/h Distance 2.43 km</desc>
<time>2010-03-03T16:20:31.27</time>
<name>1403</name>
</trkpt>
<trkpt lat="48.936047" lon="8.680238">
<ele>376.5</ele>
<speed>4.4</speed>
<course>29.2</course>
<desc>Speed 4.4 km/h Distance 2.43 km</desc>
<time>2010-03-03T16:20:32.27</time>
<name>1404</name>
</trkpt>
<trkpt lat="48.936058" lon="8.680248">
<ele>376.5</ele>
<speed>4.5</speed>
<course>33.2</course>
<desc>Speed 4.5 km/h Distance 2.43 km</desc>
<time>2010-03-03T16:20:33.26</time>
<name>1405</name>
</trkpt>
<trkpt lat="48.936068" lon="8.680258">
<ele>375.5</ele>
<speed>4.7</speed>
<course>25.2</course>
<desc>Speed 4.7 km/h Distance 2.43 km</desc>
<time>2010-03-03T16:20:34.26</time>
<name>1406</name>
</trkpt>
<trkpt lat="48.936080" lon="8.680267">
<ele>376.0</ele>
<speed>4.0</speed>
<course>37.5</course>
<desc>Speed 4.0 km/h Distance 2.44 km</desc>
<time>2010-03-03T16:20:35.27</time>
<name>1407</name>
</trkpt>
<trkpt lat="48.936090" lon="8.680278">
<ele>376.5</ele>
<speed>4.4</speed>
<course>29.8</course>
<desc>Speed 4.4 km/h Distance 2.44 km</desc>
<time>2010-03-03T16:20:36.26</time>
<name>1408</name>
</trkpt>
<trkpt lat="48.936103" lon="8.680290">
<ele>376.0</ele>
<speed>4.8</speed>
<course>46.4</course>
<desc>Speed 4.8 km/h Distance 2.44 km</desc>
<time>2010-03-03T16:20:37.26</time>
<name>1409</name>
</trkpt>
<trkpt lat="48.936112" lon="8.680303">
<ele>376.0</ele>
<speed>4.8</speed>
<course>41.2</course>
<desc>Speed 4.8 km/h Distance 2.44 km</desc>
<time>2010-03-03T16:20:38.26</time>
<name>1410</name>
</trkpt>
<trkpt lat="48.936122" lon="8.680317">
<ele>376.0</ele>
<speed>4.8</speed>
<course>41.2</course>
<desc>Speed 4.8 km/h Distance 2.44 km</desc>
<time>2010-03-03T16:20:39.27</time>
<name>1411</name>
</trkpt>
<trkpt lat="48.936132" lon="8.680330">
<ele>376.0</ele>
<speed>4.8</speed>
<course>49.7</course>
<desc>Speed 4.8 km/h Distance 2.44 km</desc>
<time>2010-03-03T16:20:40.27</time>
<name>1412</name>
</trkpt>
<trkpt lat="48.936140" lon="8.680345">
<ele>376.0</ele>
<speed>4.6</speed>
<course>37.5</course>
<desc>Speed 4.6 km/h Distance 2.44 km</desc>
<time>2010-03-03T16:20:41.27</time>
<name>1413</name>
</trkpt>
<trkpt lat="48.936150" lon="8.680357">
<ele>376.5</ele>
<speed>4.9</speed>
<course>37.5</course>
<desc>Speed 4.9 km/h Distance 2.45 km</desc>
<time>2010-03-03T16:20:42.26</time>
<name>1414</name>
</trkpt>
<trkpt lat="48.936160" lon="8.680368">
<ele>376.5</ele>
<speed>4.4</speed>
<course>33.3</course>
<desc>Speed 4.4 km/h Distance 2.45 km</desc>
<time>2010-03-03T16:20:43.27</time>
<name>1415</name>
</trkpt>
<trkpt lat="48.936172" lon="8.680380">
<ele>376.0</ele>
<speed>4.6</speed>
<course>37.5</course>
<desc>Speed 4.6 km/h Distance 2.45 km</desc>
<time>2010-03-03T16:20:44.27</time>
<name>1416</name>
</trkpt>
<trkpt lat="48.936182" lon="8.680392">
<ele>376.0</ele>
<speed>4.0</speed>
<course>33.3</course>
<desc>Speed 4.0 km/h Distance 2.45 km</desc>
<time>2010-03-03T16:20:45.27</time>
<name>1417</name>
</trkpt>
<trkpt lat="48.936193" lon="8.680403">
<ele>376.5</ele>
<speed>4.7</speed>
<course>37.3</course>
<desc>Speed 4.7 km/h Distance 2.45 km</desc>
<time>2010-03-03T16:20:46.27</time>
<name>1418</name>
</trkpt>
<trkpt lat="48.936203" lon="8.680415">
<ele>376.5</ele>
<speed>4.8</speed>
<course>46.5</course>
<desc>Speed 4.8 km/h Distance 2.45 km</desc>
<time>2010-03-03T16:20:47.26</time>
<name>1419</name>
</trkpt>
<trkpt lat="48.936212" lon="8.680428">
<ele>376.0</ele>
<speed>4.9</speed>
<course>41.3</course>
<desc>Speed 4.9 km/h Distance 2.45 km</desc>
<time>2010-03-03T16:20:48.26</time>
<name>1420</name>
</trkpt>
<trkpt lat="48.936222" lon="8.680442">
<ele>376.0</ele>
<speed>4.9</speed>
<course>37.5</course>
<desc>Speed 4.9 km/h Distance 2.46 km</desc>
<time>2010-03-03T16:20:49.26</time>
<name>1421</name>
</trkpt>
<trkpt lat="48.936232" lon="8.680453">
<ele>376.0</ele>
<speed>4.8</speed>
<course>41.2</course>
<desc>Speed 4.8 km/h Distance 2.46 km</desc>
<time>2010-03-03T16:20:50.26</time>
<name>1422</name>
</trkpt>
<trkpt lat="48.936242" lon="8.680467">
<ele>376.0</ele>
<speed>4.7</speed>
<course>33.3</course>
<desc>Speed 4.7 km/h Distance 2.46 km</desc>
<time>2010-03-03T16:20:51.26</time>
<name>1423</name>
</trkpt>
<trkpt lat="48.936253" lon="8.680478">
<ele>376.0</ele>
<speed>5.1</speed>
<course>33.1</course>
<desc>Speed 5.1 km/h Distance 2.46 km</desc>
<time>2010-03-03T16:20:52.25</time>
<name>1424</name>
</trkpt>
<trkpt lat="48.936265" lon="8.680490">
<ele>376.5</ele>
<speed>5.3</speed>
<course>36.9</course>
<desc>Speed 5.3 km/h Distance 2.46 km</desc>
<time>2010-03-03T16:20:53.26</time>
<name>1425</name>
</trkpt>
<trkpt lat="48.936277" lon="8.680503">
<ele>376.5</ele>
<speed>4.9</speed>
<course>41.4</course>
<desc>Speed 4.9 km/h Distance 2.46 km</desc>
<time>2010-03-03T16:20:54.26</time>
<name>1426</name>
</trkpt>
<trkpt lat="48.936287" lon="8.680517">
<ele>376.5</ele>
<speed>4.6</speed>
<course>33.4</course>
<desc>Speed 4.6 km/h Distance 2.46 km</desc>
<time>2010-03-03T16:20:55.26</time>
<name>1427</name>
</trkpt>
<trkpt lat="48.936300" lon="8.680530">
<ele>376.0</ele>
<speed>5.1</speed>
<course>44.6</course>
<desc>Speed 5.1 km/h Distance 2.47 km</desc>
<time>2010-03-03T16:20:56.26</time>
<name>1428</name>
</trkpt>
<trkpt lat="48.936310" lon="8.680545">
<ele>375.5</ele>
<speed>5.0</speed>
<course>41.2</course>
<desc>Speed 5.0 km/h Distance 2.47 km</desc>
<time>2010-03-03T16:20:57.26</time>
<name>1429</name>
</trkpt>
<trkpt lat="48.936320" lon="8.680558">
<ele>374.5</ele>
<speed>4.7</speed>
<course>41.3</course>
<desc>Speed 4.7 km/h Distance 2.47 km</desc>
<time>2010-03-03T16:20:58.26</time>
<name>1430</name>
</trkpt>
<trkpt lat="48.936330" lon="8.680572">
<ele>375.0</ele>
<speed>4.9</speed>
<course>41.4</course>
<desc>Speed 4.9 km/h Distance 2.47 km</desc>
<time>2010-03-03T16:20:59.26</time>
<name>1431</name>
</trkpt>
<trkpt lat="48.936340" lon="8.680585">
<ele>375.0</ele>
<speed>4.9</speed>
<course>33.3</course>
<desc>Speed 4.9 km/h Distance 2.47 km</desc>
<time>2010-03-03T16:21:00.25</time>
<name>1432</name>
</trkpt>
<trkpt lat="48.936352" lon="8.680597">
<ele>375.0</ele>
<speed>4.9</speed>
<course>33.1</course>
<desc>Speed 4.9 km/h Distance 2.47 km</desc>
<time>2010-03-03T16:21:01.26</time>
<name>1433</name>
</trkpt>
<trkpt lat="48.936363" lon="8.680608">
<ele>375.0</ele>
<speed>5.0</speed>
<course>41.3</course>
<desc>Speed 5.0 km/h Distance 2.48 km</desc>
<time>2010-03-03T16:21:02.26</time>
<name>1434</name>
</trkpt>
<trkpt lat="48.936373" lon="8.680622">
<ele>375.0</ele>
<speed>5.3</speed>
<course>41.4</course>
<desc>Speed 5.3 km/h Distance 2.48 km</desc>
<time>2010-03-03T16:21:03.26</time>
<name>1435</name>
</trkpt>
<trkpt lat="48.936383" lon="8.680635">
<ele>375.5</ele>
<speed>4.9</speed>
<course>46.4</course>
<desc>Speed 4.9 km/h Distance 2.48 km</desc>
<time>2010-03-03T16:21:04.26</time>
<name>1436</name>
</trkpt>
<trkpt lat="48.936392" lon="8.680648">
<ele>375.5</ele>
<speed>4.8</speed>
<course>49.7</course>
<desc>Speed 4.8 km/h Distance 2.48 km</desc>
<time>2010-03-03T16:21:05.25</time>
<name>1437</name>
</trkpt>
<trkpt lat="48.936400" lon="8.680663">
<ele>375.5</ele>
<speed>4.6</speed>
<course>46.4</course>
<desc>Speed 4.6 km/h Distance 2.48 km</desc>
<time>2010-03-03T16:21:06.26</time>
<name>1438</name>
</trkpt>
<trkpt lat="48.936408" lon="8.680677">
<ele>375.0</ele>
<speed>4.9</speed>
<course>36.9</course>
<desc>Speed 4.9 km/h Distance 2.48 km</desc>
<time>2010-03-03T16:21:07.25</time>
<name>1439</name>
</trkpt>
<trkpt lat="48.936420" lon="8.680690">
<ele>374.5</ele>
<speed>5.5</speed>
<course>40.2</course>
<desc>Speed 5.5 km/h Distance 2.48 km</desc>
<time>2010-03-03T16:21:08.25</time>
<name>1440</name>
</trkpt>
<trkpt lat="48.936432" lon="8.680705">
<ele>377.0</ele>
<speed>5.2</speed>
<course>44.5</course>
<desc>Speed 5.2 km/h Distance 2.49 km</desc>
<time>2010-03-03T16:21:09.25</time>
<name>1441</name>
</trkpt>
<trkpt lat="48.936442" lon="8.680720">
<ele>377.5</ele>
<speed>5.5</speed>
<course>49.7</course>
<desc>Speed 5.5 km/h Distance 2.49 km</desc>
<time>2010-03-03T16:21:10.26</time>
<name>1442</name>
</trkpt>
<trkpt lat="48.936450" lon="8.680735">
<ele>377.5</ele>
<speed>4.5</speed>
<course>44.6</course>
<desc>Speed 4.5 km/h Distance 2.49 km</desc>
<time>2010-03-03T16:21:11.24</time>
<name>1443</name>
</trkpt>
<trkpt lat="48.936460" lon="8.680750">
<ele>378.0</ele>
<speed>5.3</speed>
<course>47.5</course>
<desc>Speed 5.3 km/h Distance 2.49 km</desc>
<time>2010-03-03T16:21:12.24</time>
<name>1444</name>
</trkpt>
<trkpt lat="48.936470" lon="8.680767">
<ele>378.0</ele>
<speed>5.5</speed>
<course>33.4</course>
<desc>Speed 5.5 km/h Distance 2.49 km</desc>
<time>2010-03-03T16:21:13.25</time>
<name>1445</name>
</trkpt>
<trkpt lat="48.936483" lon="8.680780">
<ele>376.5</ele>
<speed>6.1</speed>
<course>40.2</course>
<desc>Speed 6.1 km/h Distance 2.49 km</desc>
<time>2010-03-03T16:21:14.25</time>
<name>1446</name>
</trkpt>
<trkpt lat="48.936495" lon="8.680795">
<ele>375.5</ele>
<speed>5.4</speed>
<course>29.8</course>
<desc>Speed 5.4 km/h Distance 2.50 km</desc>
<time>2010-03-03T16:21:15.25</time>
<name>1447</name>
</trkpt>
<trkpt lat="48.936508" lon="8.680807">
<ele>375.0</ele>
<speed>5.2</speed>
<course>36.5</course>
<desc>Speed 5.2 km/h Distance 2.50 km</desc>
<time>2010-03-03T16:21:16.25</time>
<name>1448</name>
</trkpt>
<trkpt lat="48.936522" lon="8.680822">
<ele>374.0</ele>
<speed>5.3</speed>
<course>40.2</course>
<desc>Speed 5.3 km/h Distance 2.50 km</desc>
<time>2010-03-03T16:21:17.24</time>
<name>1449</name>
</trkpt>
<trkpt lat="48.936533" lon="8.680837">
<ele>374.0</ele>
<speed>4.9</speed>
<course>37.0</course>
<desc>Speed 4.9 km/h Distance 2.50 km</desc>
<time>2010-03-03T16:21:18.24</time>
<name>1450</name>
</trkpt>
<trkpt lat="48.936545" lon="8.680850">
<ele>374.0</ele>
<speed>5.0</speed>
<course>37.0</course>
<desc>Speed 5.0 km/h Distance 2.50 km</desc>
<time>2010-03-03T16:21:19.24</time>
<name>1451</name>
</trkpt>
<trkpt lat="48.936557" lon="8.680863">
<ele>373.5</ele>
<speed>4.3</speed>
<course>36.9</course>
<desc>Speed 4.3 km/h Distance 2.50 km</desc>
<time>2010-03-03T16:21:20.24</time>
<name>1452</name>
</trkpt>
<trkpt lat="48.936568" lon="8.680877">
<ele>373.5</ele>
<speed>4.8</speed>
<course>33.3</course>
<desc>Speed 4.8 km/h Distance 2.51 km</desc>
<time>2010-03-03T16:21:21.24</time>
<name>1453</name>
</trkpt>
<trkpt lat="48.936583" lon="8.680892">
<ele>373.5</ele>
<speed>5.4</speed>
<course>47.6</course>
<desc>Speed 5.4 km/h Distance 2.51 km</desc>
<time>2010-03-03T16:21:22.24</time>
<name>1454</name>
</trkpt>
<trkpt lat="48.936593" lon="8.680908">
<ele>373.5</ele>
<speed>5.5</speed>
<course>39.4</course>
<desc>Speed 5.5 km/h Distance 2.51 km</desc>
<time>2010-03-03T16:21:23.25</time>
<name>1455</name>
</trkpt>
<trkpt lat="48.936607" lon="8.680925">
<ele>373.5</ele>
<speed>5.6</speed>
<course>44.5</course>
<desc>Speed 5.6 km/h Distance 2.51 km</desc>
<time>2010-03-03T16:21:24.25</time>
<name>1456</name>
</trkpt>
<trkpt lat="48.936617" lon="8.680940">
<ele>373.5</ele>
<speed>5.3</speed>
<course>40.2</course>
<desc>Speed 5.3 km/h Distance 2.51 km</desc>
<time>2010-03-03T16:21:25.25</time>
<name>1457</name>
</trkpt>
<trkpt lat="48.936628" lon="8.680955">
<ele>373.5</ele>
<speed>5.2</speed>
<course>33.3</course>
<desc>Speed 5.2 km/h Distance 2.51 km</desc>
<time>2010-03-03T16:21:26.24</time>
<name>1458</name>
</trkpt>
<trkpt lat="48.936640" lon="8.680967">
<ele>373.5</ele>
<speed>5.0</speed>
<course>26.2</course>
<desc>Speed 5.0 km/h Distance 2.52 km</desc>
<time>2010-03-03T16:21:27.25</time>
<name>1459</name>
</trkpt>
<trkpt lat="48.936653" lon="8.680977">
<ele>373.5</ele>
<speed>5.4</speed>
<course>36.9</course>
<desc>Speed 5.4 km/h Distance 2.52 km</desc>
<time>2010-03-03T16:21:28.24</time>
<name>1460</name>
</trkpt>
<trkpt lat="48.936665" lon="8.680990">
<ele>373.5</ele>
<speed>5.0</speed>
<course>33.4</course>
<desc>Speed 5.0 km/h Distance 2.52 km</desc>
<time>2010-03-03T16:21:29.24</time>
<name>1461</name>
</trkpt>
<trkpt lat="48.936675" lon="8.681000">
<ele>373.0</ele>
<speed>4.3</speed>
<course>38.1</course>
<desc>Speed 4.3 km/h Distance 2.52 km</desc>
<time>2010-03-03T16:21:30.23</time>
<name>1462</name>
</trkpt>
<trkpt lat="48.936683" lon="8.681010">
<ele>373.0</ele>
<speed>3.6</speed>
<course>22.1</course>
<desc>Speed 3.6 km/h Distance 2.52 km</desc>
<time>2010-03-03T16:21:31.23</time>
<name>1463</name>
</trkpt>
<trkpt lat="48.936697" lon="8.681018">
<ele>373.5</ele>
<speed>4.5</speed>
<course>26.0</course>
<desc>Speed 4.5 km/h Distance 2.52 km</desc>
<time>2010-03-03T16:21:32.23</time>
<name>1464</name>
</trkpt>
<trkpt lat="48.936710" lon="8.681028">
<ele>373.5</ele>
<speed>5.0</speed>
<course>33.4</course>
<desc>Speed 5.0 km/h Distance 2.53 km</desc>
<time>2010-03-03T16:21:33.24</time>
<name>1465</name>
</trkpt>
<trkpt lat="48.936722" lon="8.681040">
<ele>373.5</ele>
<speed>4.9</speed>
<course>33.1</course>
<desc>Speed 4.9 km/h Distance 2.53 km</desc>
<time>2010-03-03T16:21:34.24</time>
<name>1466</name>
</trkpt>
<trkpt lat="48.936733" lon="8.681052">
<ele>373.5</ele>
<speed>5.3</speed>
<course>23.7</course>
<desc>Speed 5.3 km/h Distance 2.53 km</desc>
<time>2010-03-03T16:21:35.23</time>
<name>1467</name>
</trkpt>
<trkpt lat="48.936748" lon="8.681062">
<ele>373.5</ele>
<speed>5.7</speed>
<course>23.7</course>
<desc>Speed 5.7 km/h Distance 2.53 km</desc>
<time>2010-03-03T16:21:36.24</time>
<name>1468</name>
</trkpt>
<trkpt lat="48.936763" lon="8.681072">
<ele>373.5</ele>
<speed>5.4</speed>
<course>27.2</course>
<desc>Speed 5.4 km/h Distance 2.53 km</desc>
<time>2010-03-03T16:21:37.24</time>
<name>1469</name>
</trkpt>
<trkpt lat="48.936778" lon="8.681083">
<ele>373.5</ele>
<speed>5.2</speed>
<course>26.4</course>
<desc>Speed 5.2 km/h Distance 2.53 km</desc>
<time>2010-03-03T16:21:38.24</time>
<name>1470</name>
</trkpt>
<trkpt lat="48.936792" lon="8.681093">
<ele>373.5</ele>
<speed>5.4</speed>
<course>26.2</course>
<desc>Speed 5.4 km/h Distance 2.54 km</desc>
<time>2010-03-03T16:21:39.23</time>
<name>1471</name>
</trkpt>
<trkpt lat="48.936805" lon="8.681103">
<ele>373.5</ele>
<speed>5.5</speed>
<course>27.2</course>
<desc>Speed 5.5 km/h Distance 2.54 km</desc>
<time>2010-03-03T16:21:40.23</time>
<name>1472</name>
</trkpt>
<trkpt lat="48.936820" lon="8.681115">
<ele>373.5</ele>
<speed>5.4</speed>
<course>30.3</course>
<desc>Speed 5.4 km/h Distance 2.54 km</desc>
<time>2010-03-03T16:21:41.23</time>
<name>1473</name>
</trkpt>
<trkpt lat="48.936835" lon="8.681128">
<ele>374.0</ele>
<speed>5.9</speed>
<course>29.8</course>
<desc>Speed 5.9 km/h Distance 2.54 km</desc>
<time>2010-03-03T16:21:42.23</time>
<name>1474</name>
</trkpt>
<trkpt lat="48.936848" lon="8.681140">
<ele>374.0</ele>
<speed>5.6</speed>
<course>29.8</course>
<desc>Speed 5.6 km/h Distance 2.54 km</desc>
<time>2010-03-03T16:21:43.23</time>
<name>1475</name>
</trkpt>
<trkpt lat="48.936862" lon="8.681152">
<ele>374.5</ele>
<speed>5.2</speed>
<course>26.0</course>
<desc>Speed 5.2 km/h Distance 2.54 km</desc>
<time>2010-03-03T16:21:44.23</time>
<name>1476</name>
</trkpt>
<trkpt lat="48.936875" lon="8.681162">
<ele>374.5</ele>
<speed>5.2</speed>
<course>20.1</course>
<desc>Speed 5.2 km/h Distance 2.55 km</desc>
<time>2010-03-03T16:21:45.23</time>
<name>1477</name>
</trkpt>
<trkpt lat="48.936890" lon="8.681170">
<ele>374.5</ele>
<speed>5.1</speed>
<course>29.4</course>
<desc>Speed 5.1 km/h Distance 2.55 km</desc>
<time>2010-03-03T16:21:46.24</time>
<name>1478</name>
</trkpt>
<trkpt lat="48.936902" lon="8.681180">
<ele>374.5</ele>
<speed>5.3</speed>
<course>23.3</course>
<desc>Speed 5.3 km/h Distance 2.55 km</desc>
<time>2010-03-03T16:21:47.23</time>
<name>1479</name>
</trkpt>
<trkpt lat="48.936917" lon="8.681190">
<ele>375.0</ele>
<speed>5.0</speed>
<course>33.1</course>
<desc>Speed 5.0 km/h Distance 2.55 km</desc>
<time>2010-03-03T16:21:48.23</time>
<name>1480</name>
</trkpt>
<trkpt lat="48.936928" lon="8.681202">
<ele>375.0</ele>
<speed>5.3</speed>
<course>27.2</course>
<desc>Speed 5.3 km/h Distance 2.55 km</desc>
<time>2010-03-03T16:21:49.23</time>
<name>1481</name>
</trkpt>
<trkpt lat="48.936943" lon="8.681213">
<ele>375.0</ele>
<speed>5.7</speed>
<course>24.7</course>
<desc>Speed 5.7 km/h Distance 2.55 km</desc>
<time>2010-03-03T16:21:50.24</time>
<name>1482</name>
</trkpt>
<trkpt lat="48.936960" lon="8.681225">
<ele>375.0</ele>
<speed>5.7</speed>
<course>22.3</course>
<desc>Speed 5.7 km/h Distance 2.56 km</desc>
<time>2010-03-03T16:21:51.22</time>
<name>1483</name>
</trkpt>
<trkpt lat="48.936973" lon="8.681233">
<ele>375.0</ele>
<speed>5.6</speed>
<course>16.3</course>
<desc>Speed 5.6 km/h Distance 2.56 km</desc>
<time>2010-03-03T16:21:52.22</time>
<name>1484</name>
</trkpt>
<trkpt lat="48.936988" lon="8.681240">
<ele>375.5</ele>
<speed>5.2</speed>
<course>22.1</course>
<desc>Speed 5.2 km/h Distance 2.56 km</desc>
<time>2010-03-03T16:21:53.22</time>
<name>1485</name>
</trkpt>
<trkpt lat="48.937002" lon="8.681248">
<ele>375.5</ele>
<speed>5.0</speed>
<course>23.7</course>
<desc>Speed 5.0 km/h Distance 2.56 km</desc>
<time>2010-03-03T16:21:54.22</time>
<name>1486</name>
</trkpt>
<trkpt lat="48.937017" lon="8.681258">
<ele>376.0</ele>
<speed>5.5</speed>
<course>18.1</course>
<desc>Speed 5.5 km/h Distance 2.56 km</desc>
<time>2010-03-03T16:21:55.22</time>
<name>1487</name>
</trkpt>
<trkpt lat="48.937033" lon="8.681267">
<ele>376.0</ele>
<speed>5.5</speed>
<course>19.9</course>
<desc>Speed 5.5 km/h Distance 2.57 km</desc>
<time>2010-03-03T16:21:56.22</time>
<name>1488</name>
</trkpt>
<trkpt lat="48.937048" lon="8.681275">
<ele>376.5</ele>
<speed>5.4</speed>
<course>20.1</course>
<desc>Speed 5.4 km/h Distance 2.57 km</desc>
<time>2010-03-03T16:21:57.22</time>
<name>1489</name>
</trkpt>
<trkpt lat="48.937063" lon="8.681283">
<ele>376.5</ele>
<speed>5.5</speed>
<course>16.6</course>
<desc>Speed 5.5 km/h Distance 2.57 km</desc>
<time>2010-03-03T16:21:58.22</time>
<name>1490</name>
</trkpt>
<trkpt lat="48.937078" lon="8.681290">
<ele>377.0</ele>
<speed>5.7</speed>
<course>23.7</course>
<desc>Speed 5.7 km/h Distance 2.57 km</desc>
<time>2010-03-03T16:21:59.22</time>
<name>1491</name>
</trkpt>
<trkpt lat="48.937093" lon="8.681300">
<ele>377.0</ele>
<speed>5.6</speed>
<course>26.2</course>
<desc>Speed 5.6 km/h Distance 2.57 km</desc>
<time>2010-03-03T16:22:00.22</time>
<name>1492</name>
</trkpt>
<trkpt lat="48.937107" lon="8.681310">
<ele>377.0</ele>
<speed>5.4</speed>
<course>26.2</course>
<desc>Speed 5.4 km/h Distance 2.57 km</desc>
<time>2010-03-03T16:22:01.22</time>
<name>1493</name>
</trkpt>
<trkpt lat="48.937120" lon="8.681320">
<ele>377.0</ele>
<speed>5.4</speed>
<course>26.4</course>
<desc>Speed 5.4 km/h Distance 2.58 km</desc>
<time>2010-03-03T16:22:02.22</time>
<name>1494</name>
</trkpt>
<trkpt lat="48.937133" lon="8.681330">
<ele>377.0</ele>
<speed>5.7</speed>
<course>20.1</course>
<desc>Speed 5.7 km/h Distance 2.58 km</desc>
<time>2010-03-03T16:22:03.22</time>
<name>1495</name>
</trkpt>
<trkpt lat="48.937148" lon="8.681338">
<ele>377.0</ele>
<speed>5.7</speed>
<course>20.1</course>
<desc>Speed 5.7 km/h Distance 2.58 km</desc>
<time>2010-03-03T16:22:04.23</time>
<name>1496</name>
</trkpt>
<trkpt lat="48.937163" lon="8.681347">
<ele>377.0</ele>
<speed>5.7</speed>
<course>26.2</course>
<desc>Speed 5.7 km/h Distance 2.58 km</desc>
<time>2010-03-03T16:22:05.22</time>
<name>1497</name>
</trkpt>
<trkpt lat="48.937177" lon="8.681357">
<ele>377.5</ele>
<speed>5.3</speed>
<course>20.1</course>
<desc>Speed 5.3 km/h Distance 2.58 km</desc>
<time>2010-03-03T16:22:06.22</time>
<name>1498</name>
</trkpt>
<trkpt lat="48.937192" lon="8.681365">
<ele>377.5</ele>
<speed>5.7</speed>
<course>12.6</course>
<desc>Speed 5.7 km/h Distance 2.58 km</desc>
<time>2010-03-03T16:22:07.22</time>
<name>1499</name>
</trkpt>
<trkpt lat="48.937207" lon="8.681370">
<ele>377.5</ele>
<speed>5.5</speed>
<course>20.1</course>
<desc>Speed 5.5 km/h Distance 2.59 km</desc>
<time>2010-03-03T16:22:08.22</time>
<name>1500</name>
</trkpt>
<trkpt lat="48.937222" lon="8.681378">
<ele>377.5</ele>
<speed>5.9</speed>
<course>29.8</course>
<desc>Speed 5.9 km/h Distance 2.59 km</desc>
<time>2010-03-03T16:22:09.22</time>
<name>1501</name>
</trkpt>
<trkpt lat="48.937235" lon="8.681390">
<ele>377.0</ele>
<speed>5.7</speed>
<course>25.2</course>
<desc>Speed 5.7 km/h Distance 2.59 km</desc>
<time>2010-03-03T16:22:10.23</time>
<name>1502</name>
</trkpt>
<trkpt lat="48.937247" lon="8.681398">
<ele>377.0</ele>
<speed>5.5</speed>
<course>20.1</course>
<desc>Speed 5.5 km/h Distance 2.59 km</desc>
<time>2010-03-03T16:22:11.22</time>
<name>1503</name>
</trkpt>
<trkpt lat="48.937262" lon="8.681407">
<ele>377.0</ele>
<speed>5.7</speed>
<course>22.6</course>
<desc>Speed 5.7 km/h Distance 2.59 km</desc>
<time>2010-03-03T16:22:12.22</time>
<name>1504</name>
</trkpt>
<trkpt lat="48.937275" lon="8.681415">
<ele>377.0</ele>
<speed>5.5</speed>
<course>26.0</course>
<desc>Speed 5.5 km/h Distance 2.59 km</desc>
<time>2010-03-03T16:22:13.21</time>
<name>1505</name>
</trkpt>
<trkpt lat="48.937288" lon="8.681425">
<ele>377.0</ele>
<speed>5.8</speed>
<course>22.3</course>
<desc>Speed 5.8 km/h Distance 2.60 km</desc>
<time>2010-03-03T16:22:14.21</time>
<name>1506</name>
</trkpt>
<trkpt lat="48.937302" lon="8.681433">
<ele>377.0</ele>
<speed>5.5</speed>
<course>26.4</course>
<desc>Speed 5.5 km/h Distance 2.60 km</desc>
<time>2010-03-03T16:22:15.21</time>
<name>1507</name>
</trkpt>
<trkpt lat="48.937315" lon="8.681443">
<ele>377.0</ele>
<speed>5.7</speed>
<course>40.2</course>
<desc>Speed 5.7 km/h Distance 2.60 km</desc>
<time>2010-03-03T16:22:16.21</time>
<name>1508</name>
</trkpt>
<trkpt lat="48.937327" lon="8.681458">
<ele>377.0</ele>
<speed>5.6</speed>
<course>52.7</course>
<desc>Speed 5.6 km/h Distance 2.60 km</desc>
<time>2010-03-03T16:22:17.21</time>
<name>1509</name>
</trkpt>
<trkpt lat="48.937335" lon="8.681475">
<ele>377.0</ele>
<speed>5.9</speed>
<course>57.6</course>
<desc>Speed 5.9 km/h Distance 2.60 km</desc>
<time>2010-03-03T16:22:18.21</time>
<name>1510</name>
</trkpt>
<trkpt lat="48.937343" lon="8.681495">
<ele>377.0</ele>
<speed>6.1</speed>
<course>64.9</course>
<desc>Speed 6.1 km/h Distance 2.60 km</desc>
<time>2010-03-03T16:22:19.22</time>
<name>1511</name>
</trkpt>
<trkpt lat="48.937350" lon="8.681517">
<ele>377.0</ele>
<speed>5.7</speed>
<course>76.8</course>
<desc>Speed 5.7 km/h Distance 2.61 km</desc>
<time>2010-03-03T16:22:20.21</time>
<name>1512</name>
</trkpt>
<trkpt lat="48.937353" lon="8.681538">
<ele>376.5</ele>
<speed>6.0</speed>
<course>72.0</course>
<desc>Speed 6.0 km/h Distance 2.61 km</desc>
<time>2010-03-03T16:22:21.20</time>
<name>1513</name>
</trkpt>
<trkpt lat="48.937358" lon="8.681562">
<ele>376.5</ele>
<speed>6.0</speed>
<course>83.3</course>
<desc>Speed 6.0 km/h Distance 2.61 km</desc>
<time>2010-03-03T16:22:22.20</time>
<name>1514</name>
</trkpt>
<trkpt lat="48.937360" lon="8.681583">
<ele>376.5</ele>
<speed>5.8</speed>
<course>90.0</course>
<desc>Speed 5.8 km/h Distance 2.61 km</desc>
<time>2010-03-03T16:22:23.21</time>
<name>1515</name>
</trkpt>
<trkpt lat="48.937360" lon="8.681605">
<ele>376.0</ele>
<speed>5.4</speed>
<course>90.0</course>
<desc>Speed 5.4 km/h Distance 2.61 km</desc>
<time>2010-03-03T16:22:24.20</time>
<name>1516</name>
</trkpt>
<trkpt lat="48.937360" lon="8.681627">
<ele>375.5</ele>
<speed>5.3</speed>
<course>90.0</course>
<desc>Speed 5.3 km/h Distance 2.61 km</desc>
<time>2010-03-03T16:22:25.20</time>
<name>1517</name>
</trkpt>
<trkpt lat="48.937360" lon="8.681648">
<ele>375.0</ele>
<speed>5.8</speed>
<course>90.0</course>
<desc>Speed 5.8 km/h Distance 2.62 km</desc>
<time>2010-03-03T16:22:26.20</time>
<name>1518</name>
</trkpt>
<trkpt lat="48.937360" lon="8.681673">
<ele>374.5</ele>
<speed>6.0</speed>
<course>103.2</course>
<desc>Speed 6.0 km/h Distance 2.62 km</desc>
<time>2010-03-03T16:22:27.20</time>
<name>1519</name>
</trkpt>
<trkpt lat="48.937357" lon="8.681695">
<ele>374.5</ele>
<speed>5.9</speed>
<course>110.8</course>
<desc>Speed 5.9 km/h Distance 2.62 km</desc>
<time>2010-03-03T16:22:28.20</time>
<name>1520</name>
</trkpt>
<trkpt lat="48.937352" lon="8.681715">
<ele>374.5</ele>
<speed>5.9</speed>
<course>104.2</course>
<desc>Speed 5.9 km/h Distance 2.62 km</desc>
<time>2010-03-03T16:22:29.20</time>
<name>1521</name>
</trkpt>
<trkpt lat="48.937348" lon="8.681735">
<ele>374.5</ele>
<speed>5.8</speed>
<course>109.4</course>
<desc>Speed 5.8 km/h Distance 2.62 km</desc>
<time>2010-03-03T16:22:30.20</time>
<name>1522</name>
</trkpt>
<trkpt lat="48.937343" lon="8.681757">
<ele>374.5</ele>
<speed>5.8</speed>
<course>110.8</course>
<desc>Speed 5.8 km/h Distance 2.62 km</desc>
<time>2010-03-03T16:22:31.20</time>
<name>1523</name>
</trkpt>
<trkpt lat="48.937338" lon="8.681777">
<ele>374.0</ele>
<speed>5.9</speed>
<course>110.8</course>
<desc>Speed 5.9 km/h Distance 2.63 km</desc>
<time>2010-03-03T16:22:32.20</time>
<name>1524</name>
</trkpt>
<trkpt lat="48.937333" lon="8.681797">
<ele>374.0</ele>
<speed>5.7</speed>
<course>110.8</course>
<desc>Speed 5.7 km/h Distance 2.63 km</desc>
<time>2010-03-03T16:22:33.20</time>
<name>1525</name>
</trkpt>
<trkpt lat="48.937328" lon="8.681817">
<ele>374.0</ele>
<speed>5.5</speed>
<course>110.8</course>
<desc>Speed 5.5 km/h Distance 2.63 km</desc>
<time>2010-03-03T16:22:34.20</time>
<name>1526</name>
</trkpt>
<trkpt lat="48.937323" lon="8.681837">
<ele>374.0</ele>
<speed>5.8</speed>
<course>115.1</course>
<desc>Speed 5.8 km/h Distance 2.63 km</desc>
<time>2010-03-03T16:22:35.20</time>
<name>1527</name>
</trkpt>
<trkpt lat="48.937317" lon="8.681858">
<ele>373.5</ele>
<speed>5.9</speed>
<course>110.8</course>
<desc>Speed 5.9 km/h Distance 2.63 km</desc>
<time>2010-03-03T16:22:36.20</time>
<name>1528</name>
</trkpt>
<trkpt lat="48.937312" lon="8.681878">
<ele>373.5</ele>
<speed>5.7</speed>
<course>110.8</course>
<desc>Speed 5.7 km/h Distance 2.63 km</desc>
<time>2010-03-03T16:22:37.20</time>
<name>1529</name>
</trkpt>
<trkpt lat="48.937307" lon="8.681898">
<ele>373.0</ele>
<speed>5.6</speed>
<course>109.4</course>
<desc>Speed 5.6 km/h Distance 2.64 km</desc>
<time>2010-03-03T16:22:38.20</time>
<name>1530</name>
</trkpt>
<trkpt lat="48.937302" lon="8.681920">
<ele>372.5</ele>
<speed>5.9</speed>
<course>96.2</course>
<desc>Speed 5.9 km/h Distance 2.64 km</desc>
<time>2010-03-03T16:22:39.20</time>
<name>1531</name>
</trkpt>
<trkpt lat="48.937300" lon="8.681943">
<ele>372.5</ele>
<speed>6.2</speed>
<course>90.0</course>
<desc>Speed 6.2 km/h Distance 2.64 km</desc>
<time>2010-03-03T16:22:40.20</time>
<name>1532</name>
</trkpt>
<trkpt lat="48.937300" lon="8.681968">
<ele>372.0</ele>
<speed>6.2</speed>
<course>90.0</course>
<desc>Speed 6.2 km/h Distance 2.64 km</desc>
<time>2010-03-03T16:22:41.20</time>
<name>1533</name>
</trkpt>
<trkpt lat="48.937300" lon="8.681992">
<ele>372.0</ele>
<speed>6.3</speed>
<course>96.2</course>
<desc>Speed 6.3 km/h Distance 2.64 km</desc>
<time>2010-03-03T16:22:42.19</time>
<name>1534</name>
</trkpt>
<trkpt lat="48.937298" lon="8.682015">
<ele>372.0</ele>
<speed>5.7</speed>
<course>90.0</course>
<desc>Speed 5.7 km/h Distance 2.64 km</desc>
<time>2010-03-03T16:22:43.19</time>
<name>1535</name>
</trkpt>
<trkpt lat="48.937298" lon="8.682035">
<ele>372.0</ele>
<speed>5.3</speed>
<course>75.8</course>
<desc>Speed 5.3 km/h Distance 2.65 km</desc>
<time>2010-03-03T16:22:44.19</time>
<name>1536</name>
</trkpt>
<trkpt lat="48.937302" lon="8.682055">
<ele>372.0</ele>
<speed>5.0</speed>
<course>65.5</course>
<desc>Speed 5.0 km/h Distance 2.65 km</desc>
<time>2010-03-03T16:22:45.20</time>
<name>1537</name>
</trkpt>
<trkpt lat="48.937307" lon="8.682072">
<ele>371.5</ele>
<speed>4.8</speed>
<course>82.1</course>
<desc>Speed 4.8 km/h Distance 2.65 km</desc>
<time>2010-03-03T16:22:46.19</time>
<name>1538</name>
</trkpt>
<trkpt lat="48.937308" lon="8.682090">
<ele>371.0</ele>
<speed>4.5</speed>
<course>67.5</course>
<desc>Speed 4.5 km/h Distance 2.65 km</desc>
<time>2010-03-03T16:22:47.19</time>
<name>1539</name>
</trkpt>
<trkpt lat="48.937313" lon="8.682108">
<ele>371.0</ele>
<speed>5.1</speed>
<course>69.2</course>
<desc>Speed 5.1 km/h Distance 2.65 km</desc>
<time>2010-03-03T16:22:48.19</time>
<name>1540</name>
</trkpt>
<trkpt lat="48.937318" lon="8.682128">
<ele>370.5</ele>
<speed>5.5</speed>
<course>61.0</course>
<desc>Speed 5.5 km/h Distance 2.65 km</desc>
<time>2010-03-03T16:22:49.19</time>
<name>1541</name>
</trkpt>
<trkpt lat="48.937325" lon="8.682147">
<ele>370.5</ele>
<speed>5.3</speed>
<course>55.3</course>
<desc>Speed 5.3 km/h Distance 2.65 km</desc>
<time>2010-03-03T16:22:50.38</time>
<name>1542</name>
</trkpt>
<trkpt lat="48.937333" lon="8.682165">
<ele>370.0</ele>
<speed>5.7</speed>
<course>52.7</course>
<desc>Speed 5.7 km/h Distance 2.66 km</desc>
<time>2010-03-03T16:22:51.19</time>
<name>1543</name>
</trkpt>
<trkpt lat="48.937342" lon="8.682182">
<ele>370.0</ele>
<speed>5.7</speed>
<course>47.6</course>
<desc>Speed 5.7 km/h Distance 2.66 km</desc>
<time>2010-03-03T16:22:52.19</time>
<name>1544</name>
</trkpt>
<trkpt lat="48.937352" lon="8.682198">
<ele>370.0</ele>
<speed>5.7</speed>
<course>52.7</course>
<desc>Speed 5.7 km/h Distance 2.66 km</desc>
<time>2010-03-03T16:22:53.19</time>
<name>1545</name>
</trkpt>
<trkpt lat="48.937360" lon="8.682215">
<ele>370.0</ele>
<speed>5.8</speed>
<course>50.3</course>
<desc>Speed 5.8 km/h Distance 2.66 km</desc>
<time>2010-03-03T16:22:54.19</time>
<name>1546</name>
</trkpt>
<trkpt lat="48.937370" lon="8.682233">
<ele>369.5</ele>
<speed>5.7</speed>
<course>52.7</course>
<desc>Speed 5.7 km/h Distance 2.66 km</desc>
<time>2010-03-03T16:22:55.24</time>
<name>1547</name>
</trkpt>
<trkpt lat="48.937378" lon="8.682250">
<ele>369.5</ele>
<speed>5.8</speed>
<course>57.6</course>
<desc>Speed 5.8 km/h Distance 2.66 km</desc>
<time>2010-03-03T16:22:56.19</time>
<name>1548</name>
</trkpt>
<trkpt lat="48.937387" lon="8.682270">
<ele>369.5</ele>
<speed>5.6</speed>
<course>70.6</course>
<desc>Speed 5.6 km/h Distance 2.67 km</desc>
<time>2010-03-03T16:22:57.19</time>
<name>1549</name>
</trkpt>
<trkpt lat="48.937392" lon="8.682292">
<ele>369.0</ele>
<speed>6.0</speed>
<course>77.7</course>
<desc>Speed 6.0 km/h Distance 2.67 km</desc>
<time>2010-03-03T16:22:58.19</time>
<name>1550</name>
</trkpt>
<trkpt lat="48.937395" lon="8.682315">
<ele>368.5</ele>
<speed>6.3</speed>
<course>90.0</course>
<desc>Speed 6.3 km/h Distance 2.67 km</desc>
<time>2010-03-03T16:22:59.19</time>
<name>1551</name>
</trkpt>
<trkpt lat="48.937395" lon="8.682340">
<ele>368.0</ele>
<speed>6.6</speed>
<course>109.4</course>
<desc>Speed 6.6 km/h Distance 2.67 km</desc>
<time>2010-03-03T16:23:00.19</time>
<name>1552</name>
</trkpt>
<trkpt lat="48.937390" lon="8.682362">
<ele>367.5</ele>
<speed>6.1</speed>
<course>110.8</course>
<desc>Speed 6.1 km/h Distance 2.67 km</desc>
<time>2010-03-03T16:23:01.19</time>
<name>1553</name>
</trkpt>
<trkpt lat="48.937385" lon="8.682382">
<ele>368.0</ele>
<speed>5.6</speed>
<course>104.2</course>
<desc>Speed 5.6 km/h Distance 2.67 km</desc>
<time>2010-03-03T16:23:02.19</time>
<name>1554</name>
</trkpt>
<trkpt lat="48.937382" lon="8.682402">
<ele>368.0</ele>
<speed>5.5</speed>
<course>104.2</course>
<desc>Speed 5.5 km/h Distance 2.68 km</desc>
<time>2010-03-03T16:23:03.18</time>
<name>1555</name>
</trkpt>
<trkpt lat="48.937378" lon="8.682422">
<ele>368.0</ele>
<speed>5.6</speed>
<course>103.2</course>
<desc>Speed 5.6 km/h Distance 2.68 km</desc>
<time>2010-03-03T16:23:04.18</time>
<name>1556</name>
</trkpt>
<trkpt lat="48.937375" lon="8.682443">
<ele>368.0</ele>
<speed>5.7</speed>
<course>104.2</course>
<desc>Speed 5.7 km/h Distance 2.68 km</desc>
<time>2010-03-03T16:23:05.18</time>
<name>1557</name>
</trkpt>
<trkpt lat="48.937372" lon="8.682463">
<ele>368.5</ele>
<speed>5.8</speed>
<course>119.0</course>
<desc>Speed 5.8 km/h Distance 2.68 km</desc>
<time>2010-03-03T16:23:06.19</time>
<name>1558</name>
</trkpt>
<trkpt lat="48.937365" lon="8.682482">
<ele>368.5</ele>
<speed>5.6</speed>
<course>119.0</course>
<desc>Speed 5.6 km/h Distance 2.68 km</desc>
<time>2010-03-03T16:23:07.18</time>
<name>1559</name>
</trkpt>
<trkpt lat="48.937358" lon="8.682500">
<ele>369.0</ele>
<speed>5.5</speed>
<course>124.6</course>
<desc>Speed 5.5 km/h Distance 2.68 km</desc>
<time>2010-03-03T16:23:08.18</time>
<name>1560</name>
</trkpt>
<trkpt lat="48.937350" lon="8.682518">
<ele>369.0</ele>
<speed>5.7</speed>
<course>130.2</course>
<desc>Speed 5.7 km/h Distance 2.68 km</desc>
<time>2010-03-03T16:23:09.18</time>
<name>1561</name>
</trkpt>
<trkpt lat="48.937342" lon="8.682533">
<ele>369.5</ele>
<speed>5.5</speed>
<course>130.3</course>
<desc>Speed 5.5 km/h Distance 2.69 km</desc>
<time>2010-03-03T16:23:10.19</time>
<name>1562</name>
</trkpt>
<trkpt lat="48.937333" lon="8.682548">
<ele>370.0</ele>
<speed>5.5</speed>
<course>135.5</course>
<desc>Speed 5.5 km/h Distance 2.69 km</desc>
<time>2010-03-03T16:23:11.18</time>
<name>1563</name>
</trkpt>
<trkpt lat="48.937323" lon="8.682563">
<ele>370.0</ele>
<speed>5.3</speed>
<course>124.1</course>
<desc>Speed 5.3 km/h Distance 2.69 km</desc>
<time>2010-03-03T16:23:12.18</time>
<name>1564</name>
</trkpt>
<trkpt lat="48.937317" lon="8.682578">
<ele>370.0</ele>
<speed>5.2</speed>
<course>135.4</course>
<desc>Speed 5.2 km/h Distance 2.69 km</desc>
<time>2010-03-03T16:23:13.18</time>
<name>1565</name>
</trkpt>
<trkpt lat="48.937307" lon="8.682593">
<ele>370.5</ele>
<speed>5.5</speed>
<course>127.3</course>
<desc>Speed 5.5 km/h Distance 2.69 km</desc>
<time>2010-03-03T16:23:14.18</time>
<name>1566</name>
</trkpt>
<trkpt lat="48.937298" lon="8.682610">
<ele>370.5</ele>
<speed>5.9</speed>
<course>132.4</course>
<desc>Speed 5.9 km/h Distance 2.69 km</desc>
<time>2010-03-03T16:23:15.18</time>
<name>1567</name>
</trkpt>
<trkpt lat="48.937288" lon="8.682627">
<ele>370.5</ele>
<speed>5.8</speed>
<course>135.5</course>
<desc>Speed 5.8 km/h Distance 2.70 km</desc>
<time>2010-03-03T16:23:16.18</time>
<name>1568</name>
</trkpt>
<trkpt lat="48.937278" lon="8.682642">
<ele>371.0</ele>
<speed>5.7</speed>
<course>135.4</course>
<desc>Speed 5.7 km/h Distance 2.70 km</desc>
<time>2010-03-03T16:23:17.18</time>
<name>1569</name>
</trkpt>
<trkpt lat="48.937268" lon="8.682657">
<ele>371.0</ele>
<speed>5.7</speed>
<course>135.5</course>
<desc>Speed 5.7 km/h Distance 2.70 km</desc>
<time>2010-03-03T16:23:18.18</time>
<name>1570</name>
</trkpt>
<trkpt lat="48.937258" lon="8.682672">
<ele>371.0</ele>
<speed>5.9</speed>
<course>135.5</course>
<desc>Speed 5.9 km/h Distance 2.70 km</desc>
<time>2010-03-03T16:23:19.18</time>
<name>1571</name>
</trkpt>
<trkpt lat="48.937248" lon="8.682687">
<ele>371.0</ele>
<speed>5.7</speed>
<course>127.3</course>
<desc>Speed 5.7 km/h Distance 2.70 km</desc>
<time>2010-03-03T16:23:20.18</time>
<name>1572</name>
</trkpt>
<trkpt lat="48.937240" lon="8.682703">
<ele>371.0</ele>
<speed>5.7</speed>
<course>135.5</course>
<desc>Speed 5.7 km/h Distance 2.70 km</desc>
<time>2010-03-03T16:23:21.18</time>
<name>1573</name>
</trkpt>
<trkpt lat="48.937230" lon="8.682718">
<ele>371.0</ele>
<speed>5.8</speed>
<course>132.4</course>
<desc>Speed 5.8 km/h Distance 2.70 km</desc>
<time>2010-03-03T16:23:22.18</time>
<name>1574</name>
</trkpt>
<trkpt lat="48.937220" lon="8.682735">
<ele>371.0</ele>
<speed>5.8</speed>
<course>119.0</course>
<desc>Speed 5.8 km/h Distance 2.71 km</desc>
<time>2010-03-03T16:23:23.18</time>
<name>1575</name>
</trkpt>
<trkpt lat="48.937213" lon="8.682753">
<ele>371.0</ele>
<speed>5.8</speed>
<course>127.3</course>
<desc>Speed 5.8 km/h Distance 2.71 km</desc>
<time>2010-03-03T16:23:24.18</time>
<name>1576</name>
</trkpt>
<trkpt lat="48.937205" lon="8.682770">
<ele>371.0</ele>
<speed>5.7</speed>
<course>119.0</course>
<desc>Speed 5.7 km/h Distance 2.71 km</desc>
<time>2010-03-03T16:23:25.17</time>
<name>1577</name>
</trkpt>
<trkpt lat="48.937198" lon="8.682788">
<ele>371.0</ele>
<speed>5.9</speed>
<course>127.3</course>
<desc>Speed 5.9 km/h Distance 2.71 km</desc>
<time>2010-03-03T16:23:26.17</time>
<name>1578</name>
</trkpt>
<trkpt lat="48.937190" lon="8.682805">
<ele>371.0</ele>
<speed>5.4</speed>
<course>119.0</course>
<desc>Speed 5.4 km/h Distance 2.71 km</desc>
<time>2010-03-03T16:23:27.17</time>
<name>1579</name>
</trkpt>
<trkpt lat="48.937183" lon="8.682823">
<ele>371.0</ele>
<speed>5.7</speed>
<course>124.7</course>
<desc>Speed 5.7 km/h Distance 2.71 km</desc>
<time>2010-03-03T16:23:28.17</time>
<name>1580</name>
</trkpt>
<trkpt lat="48.937175" lon="8.682842">
<ele>371.0</ele>
<speed>5.9</speed>
<course>122.4</course>
<desc>Speed 5.9 km/h Distance 2.72 km</desc>
<time>2010-03-03T16:23:29.17</time>
<name>1581</name>
</trkpt>
<trkpt lat="48.937167" lon="8.682862">
<ele>371.0</ele>
<speed>6.2</speed>
<course>124.7</course>
<desc>Speed 6.2 km/h Distance 2.72 km</desc>
<time>2010-03-03T16:23:30.17</time>
<name>1582</name>
</trkpt>
<trkpt lat="48.937158" lon="8.682880">
<ele>371.0</ele>
<speed>5.9</speed>
<course>124.7</course>
<desc>Speed 5.9 km/h Distance 2.72 km</desc>
<time>2010-03-03T16:23:31.17</time>
<name>1583</name>
</trkpt>
<trkpt lat="48.937150" lon="8.682898">
<ele>371.0</ele>
<speed>6.0</speed>
<course>127.3</course>
<desc>Speed 6.0 km/h Distance 2.72 km</desc>
<time>2010-03-03T16:23:32.17</time>
<name>1584</name>
</trkpt>
<trkpt lat="48.937142" lon="8.682915">
<ele>371.5</ele>
<speed>5.9</speed>
<course>122.4</course>
<desc>Speed 5.9 km/h Distance 2.72 km</desc>
<time>2010-03-03T16:23:33.17</time>
<name>1585</name>
</trkpt>
<trkpt lat="48.937133" lon="8.682935">
<ele>371.0</ele>
<speed>6.1</speed>
<course>124.6</course>
<desc>Speed 6.1 km/h Distance 2.72 km</desc>
<time>2010-03-03T16:23:34.17</time>
<name>1586</name>
</trkpt>
<trkpt lat="48.937125" lon="8.682953">
<ele>371.5</ele>
<speed>5.8</speed>
<course>129.7</course>
<desc>Speed 5.8 km/h Distance 2.73 km</desc>
<time>2010-03-03T16:23:35.17</time>
<name>1587</name>
</trkpt>
<trkpt lat="48.937115" lon="8.682972">
<ele>371.5</ele>
<speed>5.9</speed>
<course>119.0</course>
<desc>Speed 5.9 km/h Distance 2.73 km</desc>
<time>2010-03-03T16:23:36.17</time>
<name>1588</name>
</trkpt>
<trkpt lat="48.937108" lon="8.682990">
<ele>371.5</ele>
<speed>5.7</speed>
<course>124.7</course>
<desc>Speed 5.7 km/h Distance 2.73 km</desc>
<time>2010-03-03T16:23:37.18</time>
<name>1589</name>
</trkpt>
<trkpt lat="48.937100" lon="8.683008">
<ele>371.5</ele>
<speed>5.8</speed>
<course>124.7</course>
<desc>Speed 5.8 km/h Distance 2.73 km</desc>
<time>2010-03-03T16:23:38.17</time>
<name>1590</name>
</trkpt>
<trkpt lat="48.937092" lon="8.683027">
<ele>371.5</ele>
<speed>5.9</speed>
<course>124.7</course>
<desc>Speed 5.9 km/h Distance 2.73 km</desc>
<time>2010-03-03T16:23:39.17</time>
<name>1591</name>
</trkpt>
<trkpt lat="48.937083" lon="8.683045">
<ele>371.5</ele>
<speed>5.8</speed>
<course>119.0</course>
<desc>Speed 5.8 km/h Distance 2.73 km</desc>
<time>2010-03-03T16:23:40.17</time>
<name>1592</name>
</trkpt>
<trkpt lat="48.937077" lon="8.683063">
<ele>371.5</ele>
<speed>5.7</speed>
<course>117.4</course>
<desc>Speed 5.7 km/h Distance 2.73 km</desc>
<time>2010-03-03T16:23:41.17</time>
<name>1593</name>
</trkpt>
<trkpt lat="48.937075" lon="8.683068">
<ele>371.0</ele>
<speed>1.5</speed>
<course>167.4</course>
<desc>Speed 1.5 km/h Distance 2.74 km</desc>
<time>2010-03-03T16:23:42.17</time>
<name>1594</name>
</trkpt>
<trkpt lat="48.937073" lon="8.683068">
<ele>371.5</ele>
<speed>0.9</speed>
<course>127.0</course>
<desc>Speed 0.9 km/h Distance 2.74 km</desc>
<time>2010-03-03T16:23:43.16</time>
<name>1595</name>
</trkpt>
<trkpt lat="48.937070" lon="8.683075">
<ele>371.5</ele>
<speed>2.4</speed>
<course>116.9</course>
<desc>Speed 2.4 km/h Distance 2.74 km</desc>
<time>2010-03-03T16:23:44.16</time>
<name>1596</name>
</trkpt>
<trkpt lat="48.937065" lon="8.683090">
<ele>371.5</ele>
<speed>4.7</speed>
<course>122.4</course>
<desc>Speed 4.7 km/h Distance 2.74 km</desc>
<time>2010-03-03T16:23:45.16</time>
<name>1597</name>
</trkpt>
<trkpt lat="48.937057" lon="8.683110">
<ele>371.5</ele>
<speed>5.9</speed>
<course>119.0</course>
<desc>Speed 5.9 km/h Distance 2.74 km</desc>
<time>2010-03-03T16:23:46.17</time>
<name>1598</name>
</trkpt>
<trkpt lat="48.937050" lon="8.683128">
<ele>371.5</ele>
<speed>5.9</speed>
<course>122.3</course>
<desc>Speed 5.9 km/h Distance 2.74 km</desc>
<time>2010-03-03T16:23:47.16</time>
<name>1599</name>
</trkpt>
<trkpt lat="48.937042" lon="8.683148">
<ele>371.5</ele>
<speed>5.9</speed>
<course>119.0</course>
<desc>Speed 5.9 km/h Distance 2.74 km</desc>
<time>2010-03-03T16:23:48.16</time>
<name>1600</name>
</trkpt>
<trkpt lat="48.937035" lon="8.683167">
<ele>371.5</ele>
<speed>6.0</speed>
<course>122.4</course>
<desc>Speed 6.0 km/h Distance 2.74 km</desc>
<time>2010-03-03T16:23:49.16</time>
<name>1601</name>
</trkpt>
<trkpt lat="48.937027" lon="8.683187">
<ele>371.5</ele>
<speed>5.8</speed>
<course>119.0</course>
<desc>Speed 5.8 km/h Distance 2.75 km</desc>
<time>2010-03-03T16:23:50.16</time>
<name>1602</name>
</trkpt>
<trkpt lat="48.937020" lon="8.683205">
<ele>371.5</ele>
<speed>5.9</speed>
<course>122.4</course>
<desc>Speed 5.9 km/h Distance 2.75 km</desc>
<time>2010-03-03T16:23:51.16</time>
<name>1603</name>
</trkpt>
<trkpt lat="48.937012" lon="8.683225">
<ele>371.5</ele>
<speed>5.9</speed>
<course>124.7</course>
<desc>Speed 5.9 km/h Distance 2.75 km</desc>
<time>2010-03-03T16:23:52.16</time>
<name>1604</name>
</trkpt>
<trkpt lat="48.937003" lon="8.683243">
<ele>371.5</ele>
<speed>6.1</speed>
<course>116.9</course>
<desc>Speed 6.1 km/h Distance 2.75 km</desc>
<time>2010-03-03T16:23:53.16</time>
<name>1605</name>
</trkpt>
<trkpt lat="48.936997" lon="8.683263">
<ele>371.5</ele>
<speed>5.9</speed>
<course>124.7</course>
<desc>Speed 5.9 km/h Distance 2.75 km</desc>
<time>2010-03-03T16:23:54.16</time>
<name>1606</name>
</trkpt>
<trkpt lat="48.936988" lon="8.683282">
<ele>371.5</ele>
<speed>5.8</speed>
<course>119.0</course>
<desc>Speed 5.8 km/h Distance 2.75 km</desc>
<time>2010-03-03T16:23:55.16</time>
<name>1607</name>
</trkpt>
<trkpt lat="48.936982" lon="8.683300">
<ele>371.5</ele>
<speed>5.6</speed>
<course>116.9</course>
<desc>Speed 5.6 km/h Distance 2.76 km</desc>
<time>2010-03-03T16:23:56.16</time>
<name>1608</name>
</trkpt>
<trkpt lat="48.936975" lon="8.683320">
<ele>371.5</ele>
<speed>5.9</speed>
<course>116.9</course>
<desc>Speed 5.9 km/h Distance 2.76 km</desc>
<time>2010-03-03T16:23:57.16</time>
<name>1609</name>
</trkpt>
<trkpt lat="48.936968" lon="8.683340">
<ele>371.5</ele>
<speed>5.9</speed>
<course>116.9</course>
<desc>Speed 5.9 km/h Distance 2.76 km</desc>
<time>2010-03-03T16:23:58.16</time>
<name>1610</name>
</trkpt>
<trkpt lat="48.936962" lon="8.683360">
<ele>372.0</ele>
<speed>6.0</speed>
<course>119.0</course>
<desc>Speed 6.0 km/h Distance 2.76 km</desc>
<time>2010-03-03T16:23:59.16</time>
<name>1611</name>
</trkpt>
<trkpt lat="48.936955" lon="8.683378">
<ele>372.0</ele>
<speed>6.0</speed>
<course>115.1</course>
<desc>Speed 6.0 km/h Distance 2.76 km</desc>
<time>2010-03-03T16:24:00.16</time>
<name>1612</name>
</trkpt>
<trkpt lat="48.936948" lon="8.683400">
<ele>372.0</ele>
<speed>6.3</speed>
<course>122.4</course>
<desc>Speed 6.3 km/h Distance 2.76 km</desc>
<time>2010-03-03T16:24:01.16</time>
<name>1613</name>
</trkpt>
<trkpt lat="48.936940" lon="8.683420">
<ele>372.0</ele>
<speed>6.4</speed>
<course>122.4</course>
<desc>Speed 6.4 km/h Distance 2.77 km</desc>
<time>2010-03-03T16:24:02.15</time>
<name>1614</name>
</trkpt>
<trkpt lat="48.936932" lon="8.683440">
<ele>372.5</ele>
<speed>6.3</speed>
<course>122.4</course>
<desc>Speed 6.3 km/h Distance 2.77 km</desc>
<time>2010-03-03T16:24:03.15</time>
<name>1615</name>
</trkpt>
<trkpt lat="48.936923" lon="8.683460">
<ele>372.5</ele>
<speed>6.2</speed>
<course>115.1</course>
<desc>Speed 6.2 km/h Distance 2.77 km</desc>
<time>2010-03-03T16:24:04.15</time>
<name>1616</name>
</trkpt>
<trkpt lat="48.936917" lon="8.683482">
<ele>372.5</ele>
<speed>6.3</speed>
<course>116.9</course>
<desc>Speed 6.3 km/h Distance 2.77 km</desc>
<time>2010-03-03T16:24:05.16</time>
<name>1617</name>
</trkpt>
<trkpt lat="48.936910" lon="8.683502">
<ele>372.5</ele>
<speed>6.1</speed>
<course>120.4</course>
<desc>Speed 6.1 km/h Distance 2.77 km</desc>
<time>2010-03-03T16:24:06.15</time>
<name>1618</name>
</trkpt>
<trkpt lat="48.936902" lon="8.683523">
<ele>372.5</ele>
<speed>6.1</speed>
<course>110.8</course>
<desc>Speed 6.1 km/h Distance 2.77 km</desc>
<time>2010-03-03T16:24:07.15</time>
<name>1619</name>
</trkpt>
<trkpt lat="48.936897" lon="8.683543">
<ele>372.5</ele>
<speed>6.0</speed>
<course>116.9</course>
<desc>Speed 6.0 km/h Distance 2.78 km</desc>
<time>2010-03-03T16:24:08.15</time>
<name>1620</name>
</trkpt>
<trkpt lat="48.936890" lon="8.683563">
<ele>372.5</ele>
<speed>5.9</speed>
<course>103.2</course>
<desc>Speed 5.9 km/h Distance 2.78 km</desc>
<time>2010-03-03T16:24:09.15</time>
<name>1621</name>
</trkpt>
<trkpt lat="48.936887" lon="8.683585">
<ele>372.5</ele>
<speed>5.8</speed>
<course>109.4</course>
<desc>Speed 5.8 km/h Distance 2.78 km</desc>
<time>2010-03-03T16:24:10.16</time>
<name>1622</name>
</trkpt>
<trkpt lat="48.936882" lon="8.683607">
<ele>372.0</ele>
<speed>5.7</speed>
<course>103.2</course>
<desc>Speed 5.7 km/h Distance 2.78 km</desc>
<time>2010-03-03T16:24:11.15</time>
<name>1623</name>
</trkpt>
<trkpt lat="48.936878" lon="8.683628">
<ele>372.0</ele>
<speed>6.0</speed>
<course>103.2</course>
<desc>Speed 6.0 km/h Distance 2.78 km</desc>
<time>2010-03-03T16:24:12.15</time>
<name>1624</name>
</trkpt>
<trkpt lat="48.936875" lon="8.683650">
<ele>372.0</ele>
<speed>5.7</speed>
<course>109.3</course>
<desc>Speed 5.7 km/h Distance 2.78 km</desc>
<time>2010-03-03T16:24:13.15</time>
<name>1625</name>
</trkpt>
<trkpt lat="48.936870" lon="8.683672">
<ele>372.0</ele>
<speed>5.9</speed>
<course>104.2</course>
<desc>Speed 5.9 km/h Distance 2.79 km</desc>
<time>2010-03-03T16:24:14.15</time>
<name>1626</name>
</trkpt>
<trkpt lat="48.936867" lon="8.683692">
<ele>372.0</ele>
<speed>5.6</speed>
<course>103.2</course>
<desc>Speed 5.6 km/h Distance 2.79 km</desc>
<time>2010-03-03T16:24:15.15</time>
<name>1627</name>
</trkpt>
<trkpt lat="48.936863" lon="8.683713">
<ele>372.0</ele>
<speed>5.7</speed>
<course>109.4</course>
<desc>Speed 5.7 km/h Distance 2.79 km</desc>
<time>2010-03-03T16:24:16.15</time>
<name>1628</name>
</trkpt>
<trkpt lat="48.936858" lon="8.683735">
<ele>372.0</ele>
<speed>5.8</speed>
<course>103.2</course>
<desc>Speed 5.8 km/h Distance 2.79 km</desc>
<time>2010-03-03T16:24:17.15</time>
<name>1629</name>
</trkpt>
<trkpt lat="48.936855" lon="8.683757">
<ele>372.0</ele>
<speed>5.9</speed>
<course>102.3</course>
<desc>Speed 5.9 km/h Distance 2.79 km</desc>
<time>2010-03-03T16:24:18.15</time>
<name>1630</name>
</trkpt>
<trkpt lat="48.936852" lon="8.683780">
<ele>372.0</ele>
<speed>6.0</speed>
<course>101.5</course>
<desc>Speed 6.0 km/h Distance 2.79 km</desc>
<time>2010-03-03T16:24:19.15</time>
<name>1631</name>
</trkpt>
<trkpt lat="48.936848" lon="8.683805">
<ele>372.0</ele>
<speed>6.2</speed>
<course>102.3</course>
<desc>Speed 6.2 km/h Distance 2.80 km</desc>
<time>2010-03-03T16:24:20.15</time>
<name>1632</name>
</trkpt>
<trkpt lat="48.936845" lon="8.683828">
<ele>372.0</ele>
<speed>6.1</speed>
<course>102.3</course>
<desc>Speed 6.1 km/h Distance 2.80 km</desc>
<time>2010-03-03T16:24:21.15</time>
<name>1633</name>
</trkpt>
<trkpt lat="48.936842" lon="8.683852">
<ele>372.5</ele>
<speed>6.3</speed>
<course>109.4</course>
<desc>Speed 6.3 km/h Distance 2.80 km</desc>
<time>2010-03-03T16:24:22.14</time>
<name>1634</name>
</trkpt>
<trkpt lat="48.936837" lon="8.683873">
<ele>372.5</ele>
<speed>6.1</speed>
<course>102.3</course>
<desc>Speed 6.1 km/h Distance 2.80 km</desc>
<time>2010-03-03T16:24:23.15</time>
<name>1635</name>
</trkpt>
<trkpt lat="48.936833" lon="8.683897">
<ele>372.0</ele>
<speed>6.0</speed>
<course>102.3</course>
<desc>Speed 6.0 km/h Distance 2.80 km</desc>
<time>2010-03-03T16:24:24.15</time>
<name>1636</name>
</trkpt>
<trkpt lat="48.936830" lon="8.683920">
<ele>372.0</ele>
<speed>6.2</speed>
<course>102.3</course>
<desc>Speed 6.2 km/h Distance 2.80 km</desc>
<time>2010-03-03T16:24:25.15</time>
<name>1637</name>
</trkpt>
<trkpt lat="48.936827" lon="8.683943">
<ele>372.5</ele>
<speed>6.0</speed>
<course>102.3</course>
<desc>Speed 6.0 km/h Distance 2.81 km</desc>
<time>2010-03-03T16:24:26.15</time>
<name>1638</name>
</trkpt>
<trkpt lat="48.936823" lon="8.683967">
<ele>372.0</ele>
<speed>6.1</speed>
<course>102.3</course>
<desc>Speed 6.1 km/h Distance 2.81 km</desc>
<time>2010-03-03T16:24:27.15</time>
<name>1639</name>
</trkpt>
<trkpt lat="48.936820" lon="8.683990">
<ele>372.0</ele>
<speed>6.0</speed>
<course>96.2</course>
<desc>Speed 6.0 km/h Distance 2.81 km</desc>
<time>2010-03-03T16:24:28.15</time>
<name>1640</name>
</trkpt>
<trkpt lat="48.936818" lon="8.684013">
<ele>372.0</ele>
<speed>5.9</speed>
<course>96.7</course>
<desc>Speed 5.9 km/h Distance 2.81 km</desc>
<time>2010-03-03T16:24:29.15</time>
<name>1641</name>
</trkpt>
<trkpt lat="48.936817" lon="8.684035">
<ele>372.0</ele>
<speed>5.9</speed>
<course>102.3</course>
<desc>Speed 5.9 km/h Distance 2.81 km</desc>
<time>2010-03-03T16:24:30.15</time>
<name>1642</name>
</trkpt>
<trkpt lat="48.936813" lon="8.684058">
<ele>372.0</ele>
<speed>6.1</speed>
<course>102.3</course>
<desc>Speed 6.1 km/h Distance 2.81 km</desc>
<time>2010-03-03T16:24:31.15</time>
<name>1643</name>
</trkpt>
<trkpt lat="48.936810" lon="8.684082">
<ele>372.5</ele>
<speed>6.0</speed>
<course>96.2</course>
<desc>Speed 6.0 km/h Distance 2.82 km</desc>
<time>2010-03-03T16:24:32.15</time>
<name>1644</name>
</trkpt>
<trkpt lat="48.936808" lon="8.684105">
<ele>372.5</ele>
<speed>6.0</speed>
<course>102.3</course>
<desc>Speed 6.0 km/h Distance 2.82 km</desc>
<time>2010-03-03T16:24:33.15</time>
<name>1645</name>
</trkpt>
<trkpt lat="48.936805" lon="8.684128">
<ele>372.5</ele>
<speed>5.9</speed>
<course>103.2</course>
<desc>Speed 5.9 km/h Distance 2.82 km</desc>
<time>2010-03-03T16:24:34.15</time>
<name>1646</name>
</trkpt>
<trkpt lat="48.936802" lon="8.684150">
<ele>372.5</ele>
<speed>5.8</speed>
<course>102.3</course>
<desc>Speed 5.8 km/h Distance 2.82 km</desc>
<time>2010-03-03T16:24:35.15</time>
<name>1647</name>
</trkpt>
<trkpt lat="48.936798" lon="8.684173">
<ele>372.0</ele>
<speed>5.9</speed>
<course>102.3</course>
<desc>Speed 5.9 km/h Distance 2.82 km</desc>
<time>2010-03-03T16:24:36.15</time>
<name>1648</name>
</trkpt>
<trkpt lat="48.936795" lon="8.684197">
<ele>372.0</ele>
<speed>5.9</speed>
<course>103.2</course>
<desc>Speed 5.9 km/h Distance 2.82 km</desc>
<time>2010-03-03T16:24:37.15</time>
<name>1649</name>
</trkpt>
<trkpt lat="48.936792" lon="8.684218">
<ele>372.0</ele>
<speed>5.9</speed>
<course>102.3</course>
<desc>Speed 5.9 km/h Distance 2.83 km</desc>
<time>2010-03-03T16:24:38.15</time>
<name>1650</name>
</trkpt>
<trkpt lat="48.936788" lon="8.684242">
<ele>372.0</ele>
<speed>5.9</speed>
<course>96.2</course>
<desc>Speed 5.9 km/h Distance 2.83 km</desc>
<time>2010-03-03T16:24:39.15</time>
<name>1651</name>
</trkpt>
<trkpt lat="48.936787" lon="8.684265">
<ele>372.0</ele>
<speed>5.9</speed>
<course>103.2</course>
<desc>Speed 5.9 km/h Distance 2.83 km</desc>
<time>2010-03-03T16:24:40.15</time>
<name>1652</name>
</trkpt>
<trkpt lat="48.936783" lon="8.684287">
<ele>372.0</ele>
<speed>6.0</speed>
<course>102.3</course>
<desc>Speed 6.0 km/h Distance 2.83 km</desc>
<time>2010-03-03T16:24:41.15</time>
<name>1653</name>
</trkpt>
<trkpt lat="48.936780" lon="8.684310">
<ele>372.0</ele>
<speed>5.9</speed>
<course>103.2</course>
<desc>Speed 5.9 km/h Distance 2.83 km</desc>
<time>2010-03-03T16:24:42.15</time>
<name>1654</name>
</trkpt>
<trkpt lat="48.936777" lon="8.684332">
<ele>372.0</ele>
<speed>6.0</speed>
<course>102.2</course>
<desc>Speed 6.0 km/h Distance 2.83 km</desc>
<time>2010-03-03T16:24:43.15</time>
<name>1655</name>
</trkpt>
<trkpt lat="48.936773" lon="8.684355">
<ele>372.0</ele>
<speed>6.0</speed>
<course>96.2</course>
<desc>Speed 6.0 km/h Distance 2.84 km</desc>
<time>2010-03-03T16:24:44.15</time>
<name>1656</name>
</trkpt>
<trkpt lat="48.936772" lon="8.684378">
<ele>372.0</ele>
<speed>6.0</speed>
<course>96.2</course>
<desc>Speed 6.0 km/h Distance 2.84 km</desc>
<time>2010-03-03T16:24:45.15</time>
<name>1657</name>
</trkpt>
<trkpt lat="48.936770" lon="8.684402">
<ele>372.0</ele>
<speed>5.9</speed>
<course>103.2</course>
<desc>Speed 5.9 km/h Distance 2.84 km</desc>
<time>2010-03-03T16:24:46.15</time>
<name>1658</name>
</trkpt>
<trkpt lat="48.936767" lon="8.684423">
<ele>372.0</ele>
<speed>5.9</speed>
<course>96.2</course>
<desc>Speed 5.9 km/h Distance 2.84 km</desc>
<time>2010-03-03T16:24:47.15</time>
<name>1659</name>
</trkpt>
<trkpt lat="48.936765" lon="8.684447">
<ele>372.0</ele>
<speed>5.9</speed>
<course>102.3</course>
<desc>Speed 5.9 km/h Distance 2.84 km</desc>
<time>2010-03-03T16:24:48.15</time>
<name>1660</name>
</trkpt>
<trkpt lat="48.936762" lon="8.684470">
<ele>372.0</ele>
<speed>6.0</speed>
<course>96.7</course>
<desc>Speed 6.0 km/h Distance 2.85 km</desc>
<time>2010-03-03T16:24:49.15</time>
<name>1661</name>
</trkpt>
<trkpt lat="48.936760" lon="8.684492">
<ele>372.0</ele>
<speed>6.2</speed>
<course>102.3</course>
<desc>Speed 6.2 km/h Distance 2.85 km</desc>
<time>2010-03-03T16:24:50.15</time>
<name>1662</name>
</trkpt>
<trkpt lat="48.936757" lon="8.684515">
<ele>372.0</ele>
<speed>6.1</speed>
<course>102.3</course>
<desc>Speed 6.1 km/h Distance 2.85 km</desc>
<time>2010-03-03T16:24:51.15</time>
<name>1663</name>
</trkpt>
<trkpt lat="48.936753" lon="8.684538">
<ele>372.0</ele>
<speed>6.2</speed>
<course>115.1</course>
<desc>Speed 6.2 km/h Distance 2.85 km</desc>
<time>2010-03-03T16:24:52.15</time>
<name>1664</name>
</trkpt>
<trkpt lat="48.936747" lon="8.684560">
<ele>372.0</ele>
<speed>6.4</speed>
<course>98.7</course>
<desc>Speed 6.4 km/h Distance 2.85 km</desc>
<time>2010-03-03T16:24:53.15</time>
<name>1665</name>
</trkpt>
<trkpt lat="48.936745" lon="8.684577">
<ele>372.0</ele>
<speed>4.0</speed>
<course>112.5</course>
<desc>Speed 4.0 km/h Distance 2.85 km</desc>
<time>2010-03-03T16:24:54.15</time>
<name>1666</name>
</trkpt>
<trkpt lat="48.936740" lon="8.684595">
<ele>372.0</ele>
<speed>5.3</speed>
<course>109.4</course>
<desc>Speed 5.3 km/h Distance 2.85 km</desc>
<time>2010-03-03T16:24:55.15</time>
<name>1667</name>
</trkpt>
<trkpt lat="48.936735" lon="8.684617">
<ele>372.0</ele>
<speed>6.0</speed>
<course>108.1</course>
<desc>Speed 6.0 km/h Distance 2.86 km</desc>
<time>2010-03-03T16:24:56.15</time>
<name>1668</name>
</trkpt>
<trkpt lat="48.936730" lon="8.684640">
<ele>372.0</ele>
<speed>6.0</speed>
<course>96.7</course>
<desc>Speed 6.0 km/h Distance 2.86 km</desc>
<time>2010-03-03T16:24:57.15</time>
<name>1669</name>
</trkpt>
<trkpt lat="48.936728" lon="8.684662">
<ele>372.0</ele>
<speed>6.0</speed>
<course>108.1</course>
<desc>Speed 6.0 km/h Distance 2.86 km</desc>
<time>2010-03-03T16:24:58.15</time>
<name>1670</name>
</trkpt>
<trkpt lat="48.936723" lon="8.684685">
<ele>372.0</ele>
<speed>6.1</speed>
<course>109.4</course>
<desc>Speed 6.1 km/h Distance 2.86 km</desc>
<time>2010-03-03T16:24:59.15</time>
<name>1671</name>
</trkpt>
<trkpt lat="48.936718" lon="8.684707">
<ele>372.0</ele>
<speed>6.2</speed>
<course>115.1</course>
<desc>Speed 6.2 km/h Distance 2.86 km</desc>
<time>2010-03-03T16:25:00.15</time>
<name>1672</name>
</trkpt>
<trkpt lat="48.936712" lon="8.684728">
<ele>372.0</ele>
<speed>6.0</speed>
<course>115.1</course>
<desc>Speed 6.0 km/h Distance 2.86 km</desc>
<time>2010-03-03T16:25:01.15</time>
<name>1673</name>
</trkpt>
<trkpt lat="48.936705" lon="8.684750">
<ele>372.0</ele>
<speed>6.2</speed>
<course>115.1</course>
<desc>Speed 6.2 km/h Distance 2.87 km</desc>
<time>2010-03-03T16:25:02.15</time>
<name>1674</name>
</trkpt>
<trkpt lat="48.936698" lon="8.684772">
<ele>372.0</ele>
<speed>6.2</speed>
<course>115.1</course>
<desc>Speed 6.2 km/h Distance 2.87 km</desc>
<time>2010-03-03T16:25:03.15</time>
<name>1675</name>
</trkpt>
<trkpt lat="48.936692" lon="8.684793">
<ele>372.0</ele>
<speed>6.2</speed>
<course>116.9</course>
<desc>Speed 6.2 km/h Distance 2.87 km</desc>
<time>2010-03-03T16:25:04.15</time>
<name>1676</name>
</trkpt>
<trkpt lat="48.936685" lon="8.684813">
<ele>372.0</ele>
<speed>6.0</speed>
<course>115.1</course>
<desc>Speed 6.0 km/h Distance 2.87 km</desc>
<time>2010-03-03T16:25:05.15</time>
<name>1677</name>
</trkpt>
<trkpt lat="48.936678" lon="8.684835">
<ele>372.0</ele>
<speed>6.1</speed>
<course>124.6</course>
<desc>Speed 6.1 km/h Distance 2.87 km</desc>
<time>2010-03-03T16:25:06.15</time>
<name>1678</name>
</trkpt>
<trkpt lat="48.936670" lon="8.684853">
<ele>372.0</ele>
<speed>6.0</speed>
<course>122.3</course>
<desc>Speed 6.0 km/h Distance 2.88 km</desc>
<time>2010-03-03T16:25:07.15</time>
<name>1679</name>
</trkpt>
<trkpt lat="48.936662" lon="8.684873">
<ele>372.0</ele>
<speed>5.9</speed>
<course>124.6</course>
<desc>Speed 5.9 km/h Distance 2.88 km</desc>
<time>2010-03-03T16:25:08.15</time>
<name>1680</name>
</trkpt>
<trkpt lat="48.936653" lon="8.684892">
<ele>372.0</ele>
<speed>5.9</speed>
<course>127.3</course>
<desc>Speed 5.9 km/h Distance 2.88 km</desc>
<time>2010-03-03T16:25:09.15</time>
<name>1681</name>
</trkpt>
<trkpt lat="48.936645" lon="8.684908">
<ele>371.5</ele>
<speed>5.9</speed>
<course>129.7</course>
<desc>Speed 5.9 km/h Distance 2.88 km</desc>
<time>2010-03-03T16:25:10.15</time>
<name>1682</name>
</trkpt>
<trkpt lat="48.936635" lon="8.684927">
<ele>371.5</ele>
<speed>6.2</speed>
<course>129.7</course>
<desc>Speed 6.2 km/h Distance 2.88 km</desc>
<time>2010-03-03T16:25:11.16</time>
<name>1683</name>
</trkpt>
<trkpt lat="48.936625" lon="8.684945">
<ele>371.5</ele>
<speed>6.2</speed>
<course>129.7</course>
<desc>Speed 6.2 km/h Distance 2.88 km</desc>
<time>2010-03-03T16:25:12.16</time>
<name>1684</name>
</trkpt>
<trkpt lat="48.936615" lon="8.684963">
<ele>371.5</ele>
<speed>6.0</speed>
<course>129.7</course>
<desc>Speed 6.0 km/h Distance 2.89 km</desc>
<time>2010-03-03T16:25:13.16</time>
<name>1685</name>
</trkpt>
<trkpt lat="48.936605" lon="8.684982">
<ele>371.5</ele>
<speed>6.2</speed>
<course>132.4</course>
<desc>Speed 6.2 km/h Distance 2.89 km</desc>
<time>2010-03-03T16:25:14.16</time>
<name>1686</name>
</trkpt>
<trkpt lat="48.936595" lon="8.684998">
<ele>371.5</ele>
<speed>6.2</speed>
<course>132.4</course>
<desc>Speed 6.2 km/h Distance 2.89 km</desc>
<time>2010-03-03T16:25:15.16</time>
<name>1687</name>
</trkpt>
<trkpt lat="48.936585" lon="8.685015">
<ele>371.5</ele>
<speed>6.2</speed>
<course>132.4</course>
<desc>Speed 6.2 km/h Distance 2.89 km</desc>
<time>2010-03-03T16:25:16.16</time>
<name>1688</name>
</trkpt>
<trkpt lat="48.936575" lon="8.685032">
<ele>371.5</ele>
<speed>5.9</speed>
<course>132.4</course>
<desc>Speed 5.9 km/h Distance 2.89 km</desc>
<time>2010-03-03T16:25:17.16</time>
<name>1689</name>
</trkpt>
<trkpt lat="48.936565" lon="8.685048">
<ele>371.5</ele>
<speed>6.1</speed>
<course>136.9</course>
<desc>Speed 6.1 km/h Distance 2.89 km</desc>
<time>2010-03-03T16:25:18.16</time>
<name>1690</name>
</trkpt>
<trkpt lat="48.936553" lon="8.685065">
<ele>371.5</ele>
<speed>6.2</speed>
<course>132.5</course>
<desc>Speed 6.2 km/h Distance 2.90 km</desc>
<time>2010-03-03T16:25:19.16</time>
<name>1691</name>
</trkpt>
<trkpt lat="48.936543" lon="8.685082">
<ele>371.5</ele>
<speed>6.1</speed>
<course>136.7</course>
<desc>Speed 6.1 km/h Distance 2.90 km</desc>
<time>2010-03-03T16:25:20.16</time>
<name>1692</name>
</trkpt>
<trkpt lat="48.936532" lon="8.685098">
<ele>371.5</ele>
<speed>6.2</speed>
<course>135.5</course>
<desc>Speed 6.2 km/h Distance 2.90 km</desc>
<time>2010-03-03T16:25:21.16</time>
<name>1693</name>
</trkpt>
<trkpt lat="48.936522" lon="8.685113">
<ele>371.5</ele>
<speed>6.0</speed>
<course>135.5</course>
<desc>Speed 6.0 km/h Distance 2.90 km</desc>
<time>2010-03-03T16:25:22.16</time>
<name>1694</name>
</trkpt>
<trkpt lat="48.936512" lon="8.685128">
<ele>372.0</ele>
<speed>6.0</speed>
<course>139.8</course>
<desc>Speed 6.0 km/h Distance 2.90 km</desc>
<time>2010-03-03T16:25:23.16</time>
<name>1695</name>
</trkpt>
<trkpt lat="48.936500" lon="8.685143">
<ele>372.0</ele>
<speed>6.1</speed>
<course>135.5</course>
<desc>Speed 6.1 km/h Distance 2.90 km</desc>
<time>2010-03-03T16:25:24.16</time>
<name>1696</name>
</trkpt>
<trkpt lat="48.936490" lon="8.685158">
<ele>372.0</ele>
<speed>5.9</speed>
<course>139.8</course>
<desc>Speed 5.9 km/h Distance 2.91 km</desc>
<time>2010-03-03T16:25:25.16</time>
<name>1697</name>
</trkpt>
<trkpt lat="48.936478" lon="8.685173">
<ele>372.0</ele>
<speed>6.1</speed>
<course>139.8</course>
<desc>Speed 6.1 km/h Distance 2.91 km</desc>
<time>2010-03-03T16:25:26.16</time>
<name>1698</name>
</trkpt>
<trkpt lat="48.936467" lon="8.685188">
<ele>372.0</ele>
<speed>6.4</speed>
<course>139.7</course>
<desc>Speed 6.4 km/h Distance 2.91 km</desc>
<time>2010-03-03T16:25:27.16</time>
<name>1699</name>
</trkpt>
<trkpt lat="48.936455" lon="8.685203">
<ele>372.0</ele>
<speed>6.0</speed>
<course>143.1</course>
<desc>Speed 6.0 km/h Distance 2.91 km</desc>
<time>2010-03-03T16:25:28.16</time>
<name>1700</name>
</trkpt>
<trkpt lat="48.936443" lon="8.685217">
<ele>372.0</ele>
<speed>6.0</speed>
<course>139.8</course>
<desc>Speed 6.0 km/h Distance 2.91 km</desc>
<time>2010-03-03T16:25:29.16</time>
<name>1701</name>
</trkpt>
<trkpt lat="48.936432" lon="8.685232">
<ele>372.0</ele>
<speed>5.9</speed>
<course>129.7</course>
<desc>Speed 5.9 km/h Distance 2.91 km</desc>
<time>2010-03-03T16:25:30.16</time>
<name>1702</name>
</trkpt>
<trkpt lat="48.936422" lon="8.685250">
<ele>372.0</ele>
<speed>6.0</speed>
<course>116.9</course>
<desc>Speed 6.0 km/h Distance 2.92 km</desc>
<time>2010-03-03T16:25:31.16</time>
<name>1703</name>
</trkpt>
<trkpt lat="48.936415" lon="8.685270">
<ele>372.0</ele>
<speed>5.8</speed>
<course>109.3</course>
<desc>Speed 5.8 km/h Distance 2.92 km</desc>
<time>2010-03-03T16:25:32.16</time>
<name>1704</name>
</trkpt>
<trkpt lat="48.936410" lon="8.685292">
<ele>372.0</ele>
<speed>5.9</speed>
<course>90.0</course>
<desc>Speed 5.9 km/h Distance 2.92 km</desc>
<time>2010-03-03T16:25:33.16</time>
<name>1705</name>
</trkpt>
<trkpt lat="48.936410" lon="8.685313">
<ele>372.0</ele>
<speed>5.7</speed>
<course>75.8</course>
<desc>Speed 5.7 km/h Distance 2.92 km</desc>
<time>2010-03-03T16:25:34.16</time>
<name>1706</name>
</trkpt>
<trkpt lat="48.936413" lon="8.685333">
<ele>372.0</ele>
<speed>5.4</speed>
<course>69.1</course>
<desc>Speed 5.4 km/h Distance 2.92 km</desc>
<time>2010-03-03T16:25:35.16</time>
<name>1707</name>
</trkpt>
<trkpt lat="48.936418" lon="8.685353">
<ele>372.0</ele>
<speed>5.7</speed>
<course>61.0</course>
<desc>Speed 5.7 km/h Distance 2.92 km</desc>
<time>2010-03-03T16:25:36.16</time>
<name>1708</name>
</trkpt>
<trkpt lat="48.936425" lon="8.685372">
<ele>372.0</ele>
<speed>5.7</speed>
<course>57.6</course>
<desc>Speed 5.7 km/h Distance 2.92 km</desc>
<time>2010-03-03T16:25:37.16</time>
<name>1709</name>
</trkpt>
<trkpt lat="48.936433" lon="8.685392">
<ele>372.0</ele>
<speed>5.9</speed>
<course>55.3</course>
<desc>Speed 5.9 km/h Distance 2.93 km</desc>
<time>2010-03-03T16:25:38.16</time>
<name>1710</name>
</trkpt>
<trkpt lat="48.936442" lon="8.685410">
<ele>371.5</ele>
<speed>5.8</speed>
<course>55.3</course>
<desc>Speed 5.8 km/h Distance 2.93 km</desc>
<time>2010-03-03T16:25:39.16</time>
<name>1711</name>
</trkpt>
<trkpt lat="48.936450" lon="8.685428">
<ele>371.5</ele>
<speed>5.8</speed>
<course>47.6</course>
<desc>Speed 5.8 km/h Distance 2.93 km</desc>
<time>2010-03-03T16:25:40.16</time>
<name>1712</name>
</trkpt>
<trkpt lat="48.936460" lon="8.685445">
<ele>371.5</ele>
<speed>5.9</speed>
<course>55.3</course>
<desc>Speed 5.9 km/h Distance 2.93 km</desc>
<time>2010-03-03T16:25:41.16</time>
<name>1713</name>
</trkpt>
<trkpt lat="48.936468" lon="8.685463">
<ele>371.0</ele>
<speed>5.9</speed>
<course>55.3</course>
<desc>Speed 5.9 km/h Distance 2.93 km</desc>
<time>2010-03-03T16:25:42.16</time>
<name>1714</name>
</trkpt>
<trkpt lat="48.936477" lon="8.685482">
<ele>371.0</ele>
<speed>6.2</speed>
<course>63.1</course>
<desc>Speed 6.2 km/h Distance 2.93 km</desc>
<time>2010-03-03T16:25:43.16</time>
<name>1715</name>
</trkpt>
<trkpt lat="48.936483" lon="8.685502">
<ele>371.0</ele>
<speed>5.9</speed>
<course>55.3</course>
<desc>Speed 5.9 km/h Distance 2.94 km</desc>
<time>2010-03-03T16:25:44.16</time>
<name>1716</name>
</trkpt>
<trkpt lat="48.936492" lon="8.685520">
<ele>370.5</ele>
<speed>5.7</speed>
<course>63.1</course>
<desc>Speed 5.7 km/h Distance 2.94 km</desc>
<time>2010-03-03T16:25:45.16</time>
<name>1717</name>
</trkpt>
<trkpt lat="48.936498" lon="8.685540">
<ele>370.5</ele>
<speed>6.0</speed>
<course>57.6</course>
<desc>Speed 6.0 km/h Distance 2.94 km</desc>
<time>2010-03-03T16:25:46.16</time>
<name>1718</name>
</trkpt>
<trkpt lat="48.936507" lon="8.685560">
<ele>370.5</ele>
<speed>6.0</speed>
<course>50.3</course>
<desc>Speed 6.0 km/h Distance 2.94 km</desc>
<time>2010-03-03T16:25:47.16</time>
<name>1719</name>
</trkpt>
<trkpt lat="48.936517" lon="8.685578">
<ele>370.5</ele>
<speed>6.2</speed>
<course>55.4</course>
<desc>Speed 6.2 km/h Distance 2.94 km</desc>
<time>2010-03-03T16:25:48.16</time>
<name>1720</name>
</trkpt>
<trkpt lat="48.936525" lon="8.685597">
<ele>370.0</ele>
<speed>6.0</speed>
<course>47.6</course>
<desc>Speed 6.0 km/h Distance 2.94 km</desc>
<time>2010-03-03T16:25:49.16</time>
<name>1721</name>
</trkpt>
<trkpt lat="48.936535" lon="8.685613">
<ele>370.0</ele>
<speed>5.9</speed>
<course>50.3</course>
<desc>Speed 5.9 km/h Distance 2.95 km</desc>
<time>2010-03-03T16:25:50.16</time>
<name>1722</name>
</trkpt>
<trkpt lat="48.936545" lon="8.685632">
<ele>370.0</ele>
<speed>5.9</speed>
<course>50.3</course>
<desc>Speed 5.9 km/h Distance 2.95 km</desc>
<time>2010-03-03T16:25:51.16</time>
<name>1723</name>
</trkpt>
<trkpt lat="48.936555" lon="8.685650">
<ele>370.0</ele>
<speed>6.3</speed>
<course>55.3</course>
<desc>Speed 6.3 km/h Distance 2.95 km</desc>
<time>2010-03-03T16:25:52.16</time>
<name>1724</name>
</trkpt>
<trkpt lat="48.936563" lon="8.685668">
<ele>370.0</ele>
<speed>5.8</speed>
<course>50.3</course>
<desc>Speed 5.8 km/h Distance 2.95 km</desc>
<time>2010-03-03T16:25:53.16</time>
<name>1725</name>
</trkpt>
<trkpt lat="48.936573" lon="8.685687">
<ele>370.0</ele>
<speed>6.2</speed>
<course>50.4</course>
<desc>Speed 6.2 km/h Distance 2.95 km</desc>
<time>2010-03-03T16:25:54.16</time>
<name>1726</name>
</trkpt>
<trkpt lat="48.936583" lon="8.685705">
<ele>370.0</ele>
<speed>6.0</speed>
<course>47.6</course>
<desc>Speed 6.0 km/h Distance 2.96 km</desc>
<time>2010-03-03T16:25:55.16</time>
<name>1727</name>
</trkpt>
<trkpt lat="48.936593" lon="8.685722">
<ele>370.0</ele>
<speed>6.0</speed>
<course>50.3</course>
<desc>Speed 6.0 km/h Distance 2.96 km</desc>
<time>2010-03-03T16:25:56.16</time>
<name>1728</name>
</trkpt>
<trkpt lat="48.936603" lon="8.685740">
<ele>370.0</ele>
<speed>6.0</speed>
<course>61.0</course>
<desc>Speed 6.0 km/h Distance 2.96 km</desc>
<time>2010-03-03T16:25:57.16</time>
<name>1729</name>
</trkpt>
<trkpt lat="48.936610" lon="8.685758">
<ele>370.0</ele>
<speed>5.6</speed>
<course>43.3</course>
<desc>Speed 5.6 km/h Distance 2.96 km</desc>
<time>2010-03-03T16:25:58.16</time>
<name>1730</name>
</trkpt>
<trkpt lat="48.936622" lon="8.685775">
<ele>370.0</ele>
<speed>5.9</speed>
<course>47.6</course>
<desc>Speed 5.9 km/h Distance 2.96 km</desc>
<time>2010-03-03T16:25:59.16</time>
<name>1731</name>
</trkpt>
<trkpt lat="48.936632" lon="8.685792">
<ele>370.0</ele>
<speed>5.8</speed>
<course>50.3</course>
<desc>Speed 5.8 km/h Distance 2.96 km</desc>
<time>2010-03-03T16:26:00.16</time>
<name>1732</name>
</trkpt>
<trkpt lat="48.936642" lon="8.685810">
<ele>370.0</ele>
<speed>5.9</speed>
<course>55.3</course>
<desc>Speed 5.9 km/h Distance 2.97 km</desc>
<time>2010-03-03T16:26:01.16</time>
<name>1733</name>
</trkpt>
<trkpt lat="48.936650" lon="8.685828">
<ele>370.0</ele>
<speed>5.9</speed>
<course>47.6</course>
<desc>Speed 5.9 km/h Distance 2.97 km</desc>
<time>2010-03-03T16:26:02.16</time>
<name>1734</name>
</trkpt>
<trkpt lat="48.936660" lon="8.685845">
<ele>370.0</ele>
<speed>5.9</speed>
<course>45.9</course>
<desc>Speed 5.9 km/h Distance 2.97 km</desc>
<time>2010-03-03T16:26:03.16</time>
<name>1735</name>
</trkpt>
<trkpt lat="48.936672" lon="8.685863">
<ele>370.0</ele>
<speed>5.9</speed>
<course>50.3</course>
<desc>Speed 5.9 km/h Distance 2.97 km</desc>
<time>2010-03-03T16:26:04.18</time>
<name>1736</name>
</trkpt>
<trkpt lat="48.936682" lon="8.685882">
<ele>370.0</ele>
<speed>6.0</speed>
<course>50.3</course>
<desc>Speed 6.0 km/h Distance 2.97 km</desc>
<time>2010-03-03T16:26:05.18</time>
<name>1737</name>
</trkpt>
<trkpt lat="48.936692" lon="8.685900">
<ele>370.5</ele>
<speed>5.9</speed>
<course>43.2</course>
<desc>Speed 5.9 km/h Distance 2.97 km</desc>
<time>2010-03-03T16:26:06.18</time>
<name>1738</name>
</trkpt>
<trkpt lat="48.936703" lon="8.685917">
<ele>370.5</ele>
<speed>5.7</speed>
<course>50.3</course>
<desc>Speed 5.7 km/h Distance 2.98 km</desc>
<time>2010-03-03T16:26:07.18</time>
<name>1739</name>
</trkpt>
<trkpt lat="48.936713" lon="8.685935">
<ele>370.5</ele>
<speed>6.2</speed>
<course>55.3</course>
<desc>Speed 6.2 km/h Distance 2.98 km</desc>
<time>2010-03-03T16:26:08.18</time>
<name>1740</name>
</trkpt>
<trkpt lat="48.936722" lon="8.685953">
<ele>370.5</ele>
<speed>6.0</speed>
<course>47.7</course>
<desc>Speed 6.0 km/h Distance 2.98 km</desc>
<time>2010-03-03T16:26:09.18</time>
<name>1741</name>
</trkpt>
<trkpt lat="48.936732" lon="8.685970">
<ele>370.5</ele>
<speed>5.9</speed>
<course>50.3</course>
<desc>Speed 5.9 km/h Distance 2.98 km</desc>
<time>2010-03-03T16:26:10.18</time>
<name>1742</name>
</trkpt>
<trkpt lat="48.936742" lon="8.685988">
<ele>370.5</ele>
<speed>5.8</speed>
<course>47.5</course>
<desc>Speed 5.8 km/h Distance 2.98 km</desc>
<time>2010-03-03T16:26:11.18</time>
<name>1743</name>
</trkpt>
<trkpt lat="48.936752" lon="8.686005">
<ele>370.5</ele>
<speed>5.8</speed>
<course>55.3</course>
<desc>Speed 5.8 km/h Distance 2.98 km</desc>
<time>2010-03-03T16:26:12.18</time>
<name>1744</name>
</trkpt>
<trkpt lat="48.936760" lon="8.686023">
<ele>371.0</ele>
<speed>5.7</speed>
<course>50.3</course>
<desc>Speed 5.7 km/h Distance 2.99 km</desc>
<time>2010-03-03T16:26:13.18</time>
<name>1745</name>
</trkpt>
<trkpt lat="48.936770" lon="8.686042">
<ele>371.0</ele>
<speed>5.9</speed>
<course>52.7</course>
<desc>Speed 5.9 km/h Distance 2.99 km</desc>
<time>2010-03-03T16:26:14.18</time>
<name>1746</name>
</trkpt>
<trkpt lat="48.936778" lon="8.686058">
<ele>371.0</ele>
<speed>5.6</speed>
<course>55.3</course>
<desc>Speed 5.6 km/h Distance 2.99 km</desc>
<time>2010-03-03T16:26:15.18</time>
<name>1747</name>
</trkpt>
<trkpt lat="48.936787" lon="8.686077">
<ele>371.0</ele>
<speed>5.8</speed>
<course>50.2</course>
<desc>Speed 5.8 km/h Distance 2.99 km</desc>
<time>2010-03-03T16:26:16.18</time>
<name>1748</name>
</trkpt>
<trkpt lat="48.936797" lon="8.686095">
<ele>371.0</ele>
<speed>5.9</speed>
<course>49.7</course>
<desc>Speed 5.9 km/h Distance 2.99 km</desc>
<time>2010-03-03T16:26:17.47</time>
<name>1749</name>
</trkpt>
<trkpt lat="48.936805" lon="8.686110">
<ele>371.0</ele>
<speed>5.5</speed>
<course>50.3</course>
<desc>Speed 5.5 km/h Distance 2.99 km</desc>
<time>2010-03-03T16:26:18.27</time>
<name>1750</name>
</trkpt>
<trkpt lat="48.936815" lon="8.686128">
<ele>371.0</ele>
<speed>6.1</speed>
<course>55.3</course>
<desc>Speed 6.1 km/h Distance 3.00 km</desc>
<time>2010-03-03T16:26:19.24</time>
<name>1751</name>
</trkpt>
<trkpt lat="48.936823" lon="8.686147">
<ele>371.0</ele>
<speed>5.9</speed>
<course>61.0</course>
<desc>Speed 5.9 km/h Distance 3.00 km</desc>
<time>2010-03-03T16:26:20.24</time>
<name>1752</name>
</trkpt>
<trkpt lat="48.936830" lon="8.686165">
<ele>371.0</ele>
<speed>5.6</speed>
<course>47.5</course>
<desc>Speed 5.6 km/h Distance 3.00 km</desc>
<time>2010-03-03T16:26:21.24</time>
<name>1753</name>
</trkpt>
<trkpt lat="48.936840" lon="8.686182">
<ele>371.0</ele>
<speed>5.8</speed>
<course>50.4</course>
<desc>Speed 5.8 km/h Distance 3.00 km</desc>
<time>2010-03-03T16:26:22.28</time>
<name>1754</name>
</trkpt>
<trkpt lat="48.936850" lon="8.686200">
<ele>371.0</ele>
<speed>5.8</speed>
<course>58.7</course>
<desc>Speed 5.8 km/h Distance 3.00 km</desc>
<time>2010-03-03T16:26:23.24</time>
<name>1755</name>
</trkpt>
<trkpt lat="48.936857" lon="8.686217">
<ele>371.0</ele>
<speed>5.6</speed>
<course>50.3</course>
<desc>Speed 5.6 km/h Distance 3.00 km</desc>
<time>2010-03-03T16:26:24.24</time>
<name>1756</name>
</trkpt>
<trkpt lat="48.936867" lon="8.686235">
<ele>371.0</ele>
<speed>5.9</speed>
<course>52.7</course>
<desc>Speed 5.9 km/h Distance 3.01 km</desc>
<time>2010-03-03T16:26:25.24</time>
<name>1757</name>
</trkpt>
<trkpt lat="48.936875" lon="8.686252">
<ele>370.5</ele>
<speed>5.9</speed>
<course>55.3</course>
<desc>Speed 5.9 km/h Distance 3.01 km</desc>
<time>2010-03-03T16:26:26.24</time>
<name>1758</name>
</trkpt>
<trkpt lat="48.936883" lon="8.686270">
<ele>370.5</ele>
<speed>5.9</speed>
<course>47.6</course>
<desc>Speed 5.9 km/h Distance 3.01 km</desc>
<time>2010-03-03T16:26:27.24</time>
<name>1759</name>
</trkpt>
<trkpt lat="48.936893" lon="8.686287">
<ele>371.0</ele>
<speed>5.9</speed>
<course>55.3</course>
<desc>Speed 5.9 km/h Distance 3.01 km</desc>
<time>2010-03-03T16:26:28.24</time>
<name>1760</name>
</trkpt>
<trkpt lat="48.936902" lon="8.686305">
<ele>371.0</ele>
<speed>5.9</speed>
<course>50.3</course>
<desc>Speed 5.9 km/h Distance 3.01 km</desc>
<time>2010-03-03T16:26:29.25</time>
<name>1761</name>
</trkpt>
<trkpt lat="48.936912" lon="8.686323">
<ele>371.0</ele>
<speed>5.8</speed>
<course>55.3</course>
<desc>Speed 5.8 km/h Distance 3.01 km</desc>
<time>2010-03-03T16:26:30.25</time>
<name>1762</name>
</trkpt>
<trkpt lat="48.936920" lon="8.686342">
<ele>371.0</ele>
<speed>5.8</speed>
<course>61.0</course>
<desc>Speed 5.8 km/h Distance 3.02 km</desc>
<time>2010-03-03T16:26:31.25</time>
<name>1763</name>
</trkpt>
<trkpt lat="48.936927" lon="8.686360">
<ele>371.0</ele>
<speed>5.8</speed>
<course>63.1</course>
<desc>Speed 5.8 km/h Distance 3.02 km</desc>
<time>2010-03-03T16:26:32.25</time>
<name>1764</name>
</trkpt>
<trkpt lat="48.936933" lon="8.686380">
<ele>371.0</ele>
<speed>5.7</speed>
<course>47.6</course>
<desc>Speed 5.7 km/h Distance 3.02 km</desc>
<time>2010-03-03T16:26:33.25</time>
<name>1765</name>
</trkpt>
<trkpt lat="48.936943" lon="8.686397">
<ele>371.0</ele>
<speed>5.5</speed>
<course>47.6</course>
<desc>Speed 5.5 km/h Distance 3.02 km</desc>
<time>2010-03-03T16:26:34.25</time>
<name>1766</name>
</trkpt>
<trkpt lat="48.936953" lon="8.686413">
<ele>371.0</ele>
<speed>5.9</speed>
<course>45.9</course>
<desc>Speed 5.9 km/h Distance 3.02 km</desc>
<time>2010-03-03T16:26:35.25</time>
<name>1767</name>
</trkpt>
<trkpt lat="48.936965" lon="8.686432">
<ele>371.5</ele>
<speed>5.8</speed>
<course>52.7</course>
<desc>Speed 5.8 km/h Distance 3.02 km</desc>
<time>2010-03-03T16:26:36.25</time>
<name>1768</name>
</trkpt>
<trkpt lat="48.936973" lon="8.686448">
<ele>371.5</ele>
<speed>5.7</speed>
<course>55.3</course>
<desc>Speed 5.7 km/h Distance 3.02 km</desc>
<time>2010-03-03T16:26:37.25</time>
<name>1769</name>
</trkpt>
<trkpt lat="48.936982" lon="8.686467">
<ele>371.5</ele>
<speed>5.7</speed>
<course>52.7</course>
<desc>Speed 5.7 km/h Distance 3.03 km</desc>
<time>2010-03-03T16:26:38.26</time>
<name>1770</name>
</trkpt>
<trkpt lat="48.936990" lon="8.686483">
<ele>371.0</ele>
<speed>5.6</speed>
<course>50.3</course>
<desc>Speed 5.6 km/h Distance 3.03 km</desc>
<time>2010-03-03T16:26:39.27</time>
<name>1771</name>
</trkpt>
<trkpt lat="48.937000" lon="8.686502">
<ele>371.0</ele>
<speed>5.8</speed>
<course>50.3</course>
<desc>Speed 5.8 km/h Distance 3.03 km</desc>
<time>2010-03-03T16:26:40.27</time>
<name>1772</name>
</trkpt>
<trkpt lat="48.937010" lon="8.686520">
<ele>371.5</ele>
<speed>5.9</speed>
<course>47.6</course>
<desc>Speed 5.9 km/h Distance 3.03 km</desc>
<time>2010-03-03T16:26:41.27</time>
<name>1773</name>
</trkpt>
<trkpt lat="48.937020" lon="8.686537">
<ele>371.5</ele>
<speed>5.8</speed>
<course>47.6</course>
<desc>Speed 5.8 km/h Distance 3.03 km</desc>
<time>2010-03-03T16:26:42.27</time>
<name>1774</name>
</trkpt>
<trkpt lat="48.937030" lon="8.686553">
<ele>371.5</ele>
<speed>5.7</speed>
<course>55.4</course>
<desc>Speed 5.7 km/h Distance 3.03 km</desc>
<time>2010-03-03T16:26:43.27</time>
<name>1775</name>
</trkpt>
<trkpt lat="48.937038" lon="8.686572">
<ele>371.0</ele>
<speed>5.8</speed>
<course>52.7</course>
<desc>Speed 5.8 km/h Distance 3.04 km</desc>
<time>2010-03-03T16:26:44.27</time>
<name>1776</name>
</trkpt>
<trkpt lat="48.937047" lon="8.686588">
<ele>371.0</ele>
<speed>5.8</speed>
<course>55.3</course>
<desc>Speed 5.8 km/h Distance 3.04 km</desc>
<time>2010-03-03T16:26:45.27</time>
<name>1777</name>
</trkpt>
<trkpt lat="48.937055" lon="8.686607">
<ele>371.5</ele>
<speed>5.7</speed>
<course>47.6</course>
<desc>Speed 5.7 km/h Distance 3.04 km</desc>
<time>2010-03-03T16:26:46.27</time>
<name>1778</name>
</trkpt>
<trkpt lat="48.937065" lon="8.686623">
<ele>371.5</ele>
<speed>5.5</speed>
<course>47.6</course>
<desc>Speed 5.5 km/h Distance 3.04 km</desc>
<time>2010-03-03T16:26:47.27</time>
<name>1779</name>
</trkpt>
<trkpt lat="48.937075" lon="8.686640">
<ele>371.0</ele>
<speed>5.7</speed>
<course>47.6</course>
<desc>Speed 5.7 km/h Distance 3.04 km</desc>
<time>2010-03-03T16:26:48.27</time>
<name>1780</name>
</trkpt>
<trkpt lat="48.937085" lon="8.686657">
<ele>371.0</ele>
<speed>5.8</speed>
<course>55.3</course>
<desc>Speed 5.8 km/h Distance 3.04 km</desc>
<time>2010-03-03T16:26:49.27</time>
<name>1781</name>
</trkpt>
<trkpt lat="48.937093" lon="8.686675">
<ele>371.0</ele>
<speed>5.8</speed>
<course>61.0</course>
<desc>Speed 5.8 km/h Distance 3.05 km</desc>
<time>2010-03-03T16:26:50.27</time>
<name>1782</name>
</trkpt>
<trkpt lat="48.937100" lon="8.686693">
<ele>370.5</ele>
<speed>5.7</speed>
<course>61.1</course>
<desc>Speed 5.7 km/h Distance 3.05 km</desc>
<time>2010-03-03T16:26:51.27</time>
<name>1783</name>
</trkpt>
<trkpt lat="48.937107" lon="8.686712">
<ele>370.5</ele>
<speed>5.5</speed>
<course>52.7</course>
<desc>Speed 5.5 km/h Distance 3.05 km</desc>
<time>2010-03-03T16:26:52.27</time>
<name>1784</name>
</trkpt>
<trkpt lat="48.937115" lon="8.686728">
<ele>370.5</ele>
<speed>5.5</speed>
<course>52.7</course>
<desc>Speed 5.5 km/h Distance 3.05 km</desc>
<time>2010-03-03T16:26:53.27</time>
<name>1785</name>
</trkpt>
<trkpt lat="48.937123" lon="8.686745">
<ele>370.0</ele>
<speed>5.8</speed>
<course>50.3</course>
<desc>Speed 5.8 km/h Distance 3.05 km</desc>
<time>2010-03-03T16:26:54.27</time>
<name>1786</name>
</trkpt>
<trkpt lat="48.937133" lon="8.686763">
<ele>370.0</ele>
<speed>6.0</speed>
<course>52.7</course>
<desc>Speed 6.0 km/h Distance 3.05 km</desc>
<time>2010-03-03T16:26:55.27</time>
<name>1787</name>
</trkpt>
<trkpt lat="48.937142" lon="8.686780">
<ele>370.0</ele>
<speed>5.9</speed>
<course>50.3</course>
<desc>Speed 5.9 km/h Distance 3.06 km</desc>
<time>2010-03-03T16:26:56.27</time>
<name>1788</name>
</trkpt>
<trkpt lat="48.937152" lon="8.686798">
<ele>370.0</ele>
<speed>5.9</speed>
<course>55.3</course>
<desc>Speed 5.9 km/h Distance 3.06 km</desc>
<time>2010-03-03T16:26:57.27</time>
<name>1789</name>
</trkpt>
<trkpt lat="48.937160" lon="8.686817">
<ele>369.5</ele>
<speed>6.0</speed>
<course>45.9</course>
<desc>Speed 6.0 km/h Distance 3.06 km</desc>
<time>2010-03-03T16:26:58.27</time>
<name>1790</name>
</trkpt>
<trkpt lat="48.937172" lon="8.686835">
<ele>369.5</ele>
<speed>6.0</speed>
<course>52.7</course>
<desc>Speed 6.0 km/h Distance 3.06 km</desc>
<time>2010-03-03T16:26:59.29</time>
<name>1791</name>
</trkpt>
<trkpt lat="48.937180" lon="8.686852">
<ele>369.5</ele>
<speed>5.9</speed>
<course>45.9</course>
<desc>Speed 5.9 km/h Distance 3.06 km</desc>
<time>2010-03-03T16:27:00.30</time>
<name>1792</name>
</trkpt>
<trkpt lat="48.937192" lon="8.686870">
<ele>369.5</ele>
<speed>5.9</speed>
<course>50.4</course>
<desc>Speed 5.9 km/h Distance 3.06 km</desc>
<time>2010-03-03T16:27:01.30</time>
<name>1793</name>
</trkpt>
<trkpt lat="48.937202" lon="8.686888">
<ele>369.5</ele>
<speed>6.1</speed>
<course>50.3</course>
<desc>Speed 6.1 km/h Distance 3.07 km</desc>
<time>2010-03-03T16:27:02.31</time>
<name>1794</name>
</trkpt>
<trkpt lat="48.937212" lon="8.686907">
<ele>370.0</ele>
<speed>6.1</speed>
<course>50.3</course>
<desc>Speed 6.1 km/h Distance 3.07 km</desc>
<time>2010-03-03T16:27:03.30</time>
<name>1795</name>
</trkpt>
<trkpt lat="48.937222" lon="8.686925">
<ele>370.0</ele>
<speed>6.0</speed>
<course>55.3</course>
<desc>Speed 6.0 km/h Distance 3.07 km</desc>
<time>2010-03-03T16:27:04.30</time>
<name>1796</name>
</trkpt>
<trkpt lat="48.937230" lon="8.686943">
<ele>369.5</ele>
<speed>6.0</speed>
<course>50.2</course>
<desc>Speed 6.0 km/h Distance 3.07 km</desc>
<time>2010-03-03T16:27:05.30</time>
<name>1797</name>
</trkpt>
<trkpt lat="48.937240" lon="8.686962">
<ele>370.0</ele>
<speed>5.9</speed>
<course>50.3</course>
<desc>Speed 5.9 km/h Distance 3.07 km</desc>
<time>2010-03-03T16:27:06.30</time>
<name>1798</name>
</trkpt>
<trkpt lat="48.937250" lon="8.686980">
<ele>370.0</ele>
<speed>6.0</speed>
<course>52.7</course>
<desc>Speed 6.0 km/h Distance 3.07 km</desc>
<time>2010-03-03T16:27:07.30</time>
<name>1799</name>
</trkpt>
<trkpt lat="48.937258" lon="8.686997">
<ele>370.5</ele>
<speed>6.1</speed>
<course>57.6</course>
<desc>Speed 6.1 km/h Distance 3.08 km</desc>
<time>2010-03-03T16:27:08.30</time>
<name>1800</name>
</trkpt>
<trkpt lat="48.937267" lon="8.687017">
<ele>370.5</ele>
<speed>6.0</speed>
<course>55.3</course>
<desc>Speed 6.0 km/h Distance 3.08 km</desc>
<time>2010-03-03T16:27:09.30</time>
<name>1801</name>
</trkpt>
<trkpt lat="48.937275" lon="8.687035">
<ele>370.5</ele>
<speed>6.0</speed>
<course>50.3</course>
<desc>Speed 6.0 km/h Distance 3.08 km</desc>
<time>2010-03-03T16:27:10.30</time>
<name>1802</name>
</trkpt>
<trkpt lat="48.937285" lon="8.687053">
<ele>370.5</ele>
<speed>5.9</speed>
<course>52.7</course>
<desc>Speed 5.9 km/h Distance 3.08 km</desc>
<time>2010-03-03T16:27:11.30</time>
<name>1803</name>
</trkpt>
<trkpt lat="48.937293" lon="8.687070">
<ele>370.5</ele>
<speed>5.9</speed>
<course>50.3</course>
<desc>Speed 5.9 km/h Distance 3.08 km</desc>
<time>2010-03-03T16:27:12.30</time>
<name>1804</name>
</trkpt>
<trkpt lat="48.937303" lon="8.687088">
<ele>370.5</ele>
<speed>6.0</speed>
<course>52.7</course>
<desc>Speed 6.0 km/h Distance 3.08 km</desc>
<time>2010-03-03T16:27:13.30</time>
<name>1805</name>
</trkpt>
<trkpt lat="48.937312" lon="8.687105">
<ele>370.5</ele>
<speed>5.7</speed>
<course>47.5</course>
<desc>Speed 5.7 km/h Distance 3.09 km</desc>
<time>2010-03-03T16:27:14.30</time>
<name>1806</name>
</trkpt>
<trkpt lat="48.937322" lon="8.687122">
<ele>370.5</ele>
<speed>5.8</speed>
<course>52.7</course>
<desc>Speed 5.8 km/h Distance 3.09 km</desc>
<time>2010-03-03T16:27:15.30</time>
<name>1807</name>
</trkpt>
<trkpt lat="48.937330" lon="8.687138">
<ele>370.5</ele>
<speed>5.7</speed>
<course>55.3</course>
<desc>Speed 5.7 km/h Distance 3.09 km</desc>
<time>2010-03-03T16:27:16.30</time>
<name>1808</name>
</trkpt>
<trkpt lat="48.937338" lon="8.687157">
<ele>370.5</ele>
<speed>5.7</speed>
<course>47.6</course>
<desc>Speed 5.7 km/h Distance 3.09 km</desc>
<time>2010-03-03T16:27:17.30</time>
<name>1809</name>
</trkpt>
<trkpt lat="48.937348" lon="8.687173">
<ele>370.5</ele>
<speed>5.7</speed>
<course>55.4</course>
<desc>Speed 5.7 km/h Distance 3.09 km</desc>
<time>2010-03-03T16:27:18.30</time>
<name>1810</name>
</trkpt>
<trkpt lat="48.937357" lon="8.687192">
<ele>370.5</ele>
<speed>5.5</speed>
<course>52.7</course>
<desc>Speed 5.5 km/h Distance 3.09 km</desc>
<time>2010-03-03T16:27:19.30</time>
<name>1811</name>
</trkpt>
<trkpt lat="48.937365" lon="8.687208">
<ele>370.5</ele>
<speed>5.5</speed>
<course>47.6</course>
<desc>Speed 5.5 km/h Distance 3.10 km</desc>
<time>2010-03-03T16:27:20.31</time>
<name>1812</name>
</trkpt>
<trkpt lat="48.937375" lon="8.687225">
<ele>370.0</ele>
<speed>6.0</speed>
<course>43.3</course>
<desc>Speed 6.0 km/h Distance 3.10 km</desc>
<time>2010-03-03T16:27:21.30</time>
<name>1813</name>
</trkpt>
<trkpt lat="48.937387" lon="8.687242">
<ele>370.0</ele>
<speed>5.8</speed>
<course>40.2</course>
<desc>Speed 5.8 km/h Distance 3.10 km</desc>
<time>2010-03-03T16:27:22.30</time>
<name>1814</name>
</trkpt>
<trkpt lat="48.937398" lon="8.687257">
<ele>370.0</ele>
<speed>5.7</speed>
<course>36.5</course>
<desc>Speed 5.7 km/h Distance 3.10 km</desc>
<time>2010-03-03T16:27:23.30</time>
<name>1815</name>
</trkpt>
<trkpt lat="48.937412" lon="8.687272">
<ele>370.0</ele>
<speed>5.8</speed>
<course>27.0</course>
<desc>Speed 5.8 km/h Distance 3.10 km</desc>
<time>2010-03-03T16:27:24.30</time>
<name>1816</name>
</trkpt>
<trkpt lat="48.937427" lon="8.687283">
<ele>370.5</ele>
<speed>5.9</speed>
<course>26.9</course>
<desc>Speed 5.9 km/h Distance 3.10 km</desc>
<time>2010-03-03T16:27:25.30</time>
<name>1817</name>
</trkpt>
<trkpt lat="48.937442" lon="8.687295">
<ele>371.0</ele>
<speed>5.8</speed>
<course>27.7</course>
<desc>Speed 5.8 km/h Distance 3.11 km</desc>
<time>2010-03-03T16:27:26.30</time>
<name>1818</name>
</trkpt>
<trkpt lat="48.937458" lon="8.687308">
<ele>371.0</ele>
<speed>5.9</speed>
<course>29.8</course>
<desc>Speed 5.9 km/h Distance 3.11 km</desc>
<time>2010-03-03T16:27:27.30</time>
<name>1819</name>
</trkpt>
<trkpt lat="48.937472" lon="8.687320">
<ele>371.0</ele>
<speed>6.1</speed>
<course>23.7</course>
<desc>Speed 6.1 km/h Distance 3.11 km</desc>
<time>2010-03-03T16:27:28.30</time>
<name>1820</name>
</trkpt>
<trkpt lat="48.937487" lon="8.687330">
<ele>371.0</ele>
<speed>6.0</speed>
<course>23.7</course>
<desc>Speed 6.0 km/h Distance 3.11 km</desc>
<time>2010-03-03T16:27:29.30</time>
<name>1821</name>
</trkpt>
<trkpt lat="48.937502" lon="8.687340">
<ele>371.0</ele>
<speed>6.2</speed>
<course>23.5</course>
<desc>Speed 6.2 km/h Distance 3.11 km</desc>
<time>2010-03-03T16:27:30.30</time>
<name>1822</name>
</trkpt>
<trkpt lat="48.937517" lon="8.687350">
<ele>371.0</ele>
<speed>6.2</speed>
<course>24.6</course>
<desc>Speed 6.2 km/h Distance 3.12 km</desc>
<time>2010-03-03T16:27:31.30</time>
<name>1823</name>
</trkpt>
<trkpt lat="48.937533" lon="8.687362">
<ele>371.5</ele>
<speed>6.3</speed>
<course>20.1</course>
<desc>Speed 6.3 km/h Distance 3.12 km</desc>
<time>2010-03-03T16:27:32.30</time>
<name>1824</name>
</trkpt>
<trkpt lat="48.937548" lon="8.687370">
<ele>371.5</ele>
<speed>6.1</speed>
<course>21.5</course>
<desc>Speed 6.1 km/h Distance 3.12 km</desc>
<time>2010-03-03T16:27:33.30</time>
<name>1825</name>
</trkpt>
<trkpt lat="48.937565" lon="8.687380">
<ele>371.5</ele>
<speed>6.3</speed>
<course>26.0</course>
<desc>Speed 6.3 km/h Distance 3.12 km</desc>
<time>2010-03-03T16:27:34.30</time>
<name>1826</name>
</trkpt>
<trkpt lat="48.937578" lon="8.687390">
<ele>371.5</ele>
<speed>6.1</speed>
<course>23.7</course>
<desc>Speed 6.1 km/h Distance 3.12 km</desc>
<time>2010-03-03T16:27:35.30</time>
<name>1827</name>
</trkpt>
<trkpt lat="48.937593" lon="8.687400">
<ele>371.5</ele>
<speed>5.9</speed>
<course>26.0</course>
<desc>Speed 5.9 km/h Distance 3.12 km</desc>
<time>2010-03-03T16:27:36.30</time>
<name>1828</name>
</trkpt>
<trkpt lat="48.937607" lon="8.687410">
<ele>371.5</ele>
<speed>6.2</speed>
<course>27.2</course>
<desc>Speed 6.2 km/h Distance 3.13 km</desc>
<time>2010-03-03T16:27:37.30</time>
<name>1829</name>
</trkpt>
<trkpt lat="48.937622" lon="8.687422">
<ele>372.0</ele>
<speed>6.4</speed>
<course>23.7</course>
<desc>Speed 6.4 km/h Distance 3.13 km</desc>
<time>2010-03-03T16:27:38.30</time>
<name>1830</name>
</trkpt>
<trkpt lat="48.937637" lon="8.687432">
<ele>372.0</ele>
<speed>6.1</speed>
<course>33.4</course>
<desc>Speed 6.1 km/h Distance 3.13 km</desc>
<time>2010-03-03T16:27:39.30</time>
<name>1831</name>
</trkpt>
<trkpt lat="48.937650" lon="8.687445">
<ele>372.0</ele>
<speed>6.2</speed>
<course>40.2</course>
<desc>Speed 6.2 km/h Distance 3.13 km</desc>
<time>2010-03-03T16:27:40.30</time>
<name>1832</name>
</trkpt>
<trkpt lat="48.937662" lon="8.687460">
<ele>372.0</ele>
<speed>6.2</speed>
<course>40.2</course>
<desc>Speed 6.2 km/h Distance 3.13 km</desc>
<time>2010-03-03T16:27:41.30</time>
<name>1833</name>
</trkpt>
<trkpt lat="48.937673" lon="8.687475">
<ele>372.0</ele>
<speed>6.1</speed>
<course>26.4</course>
<desc>Speed 6.1 km/h Distance 3.14 km</desc>
<time>2010-03-03T16:27:42.32</time>
<name>1834</name>
</trkpt>
<trkpt lat="48.937687" lon="8.687485">
<ele>372.0</ele>
<speed>5.9</speed>
<course>26.4</course>
<desc>Speed 5.9 km/h Distance 3.14 km</desc>
<time>2010-03-03T16:27:43.32</time>
<name>1835</name>
</trkpt>
<trkpt lat="48.937700" lon="8.687495">
<ele>372.0</ele>
<speed>6.0</speed>
<course>20.1</course>
<desc>Speed 6.0 km/h Distance 3.14 km</desc>
<time>2010-03-03T16:27:44.32</time>
<name>1836</name>
</trkpt>
<trkpt lat="48.937715" lon="8.687503">
<ele>372.0</ele>
<speed>6.2</speed>
<course>23.7</course>
<desc>Speed 6.2 km/h Distance 3.14 km</desc>
<time>2010-03-03T16:27:45.32</time>
<name>1837</name>
</trkpt>
<trkpt lat="48.937730" lon="8.687513">
<ele>372.0</ele>
<speed>6.1</speed>
<course>26.0</course>
<desc>Speed 6.1 km/h Distance 3.14 km</desc>
<time>2010-03-03T16:27:46.32</time>
<name>1838</name>
</trkpt>
<trkpt lat="48.937743" lon="8.687523">
<ele>372.0</ele>
<speed>6.0</speed>
<course>27.2</course>
<desc>Speed 6.0 km/h Distance 3.14 km</desc>
<time>2010-03-03T16:27:47.32</time>
<name>1839</name>
</trkpt>
<trkpt lat="48.937758" lon="8.687535">
<ele>372.0</ele>
<speed>6.1</speed>
<course>30.0</course>
<desc>Speed 6.1 km/h Distance 3.15 km</desc>
<time>2010-03-03T16:27:48.32</time>
<name>1840</name>
</trkpt>
<trkpt lat="48.937772" lon="8.687547">
<ele>372.0</ele>
<speed>6.0</speed>
<course>23.7</course>
<desc>Speed 6.0 km/h Distance 3.15 km</desc>
<time>2010-03-03T16:27:49.32</time>
<name>1841</name>
</trkpt>
<trkpt lat="48.937787" lon="8.687557">
<ele>372.0</ele>
<speed>6.2</speed>
<course>27.2</course>
<desc>Speed 6.2 km/h Distance 3.15 km</desc>
<time>2010-03-03T16:27:50.32</time>
<name>1842</name>
</trkpt>
<trkpt lat="48.937802" lon="8.687568">
<ele>372.5</ele>
<speed>6.0</speed>
<course>20.1</course>
<desc>Speed 6.0 km/h Distance 3.15 km</desc>
<time>2010-03-03T16:27:51.32</time>
<name>1843</name>
</trkpt>
<trkpt lat="48.937817" lon="8.687577">
<ele>372.5</ele>
<speed>6.0</speed>
<course>23.7</course>
<desc>Speed 6.0 km/h Distance 3.15 km</desc>
<time>2010-03-03T16:27:52.32</time>
<name>1844</name>
</trkpt>
<trkpt lat="48.937832" lon="8.687587">
<ele>372.5</ele>
<speed>5.9</speed>
<course>26.0</course>
<desc>Speed 5.9 km/h Distance 3.15 km</desc>
<time>2010-03-03T16:27:53.32</time>
<name>1845</name>
</trkpt>
<trkpt lat="48.937845" lon="8.687597">
<ele>372.5</ele>
<speed>6.0</speed>
<course>19.9</course>
<desc>Speed 6.0 km/h Distance 3.16 km</desc>
<time>2010-03-03T16:27:54.32</time>
<name>1846</name>
</trkpt>
<trkpt lat="48.937860" lon="8.687605">
<ele>372.5</ele>
<speed>6.1</speed>
<course>27.0</course>
<desc>Speed 6.1 km/h Distance 3.16 km</desc>
<time>2010-03-03T16:27:55.32</time>
<name>1847</name>
</trkpt>
<trkpt lat="48.937875" lon="8.687617">
<ele>372.5</ele>
<speed>6.1</speed>
<course>21.5</course>
<desc>Speed 6.1 km/h Distance 3.16 km</desc>
<time>2010-03-03T16:27:56.32</time>
<name>1848</name>
</trkpt>
<trkpt lat="48.937892" lon="8.687627">
<ele>373.0</ele>
<speed>6.1</speed>
<course>21.5</course>
<desc>Speed 6.1 km/h Distance 3.16 km</desc>
<time>2010-03-03T16:27:57.32</time>
<name>1849</name>
</trkpt>
<trkpt lat="48.937908" lon="8.687637">
<ele>373.5</ele>
<speed>6.2</speed>
<course>23.7</course>
<desc>Speed 6.2 km/h Distance 3.16 km</desc>
<time>2010-03-03T16:27:58.32</time>
<name>1850</name>
</trkpt>
<trkpt lat="48.937923" lon="8.687647">
<ele>373.5</ele>
<speed>6.1</speed>
<course>26.0</course>
<desc>Speed 6.1 km/h Distance 3.17 km</desc>
<time>2010-03-03T16:27:59.32</time>
<name>1851</name>
</trkpt>
<trkpt lat="48.937937" lon="8.687657">
<ele>373.5</ele>
<speed>5.9</speed>
<course>26.9</course>
<desc>Speed 5.9 km/h Distance 3.17 km</desc>
<time>2010-03-03T16:28:00.32</time>
<name>1852</name>
</trkpt>
<trkpt lat="48.937952" lon="8.687668">
<ele>373.5</ele>
<speed>6.0</speed>
<course>22.3</course>
<desc>Speed 6.0 km/h Distance 3.17 km</desc>
<time>2010-03-03T16:28:01.32</time>
<name>1853</name>
</trkpt>
<trkpt lat="48.937965" lon="8.687677">
<ele>374.0</ele>
<speed>6.0</speed>
<course>23.7</course>
<desc>Speed 6.0 km/h Distance 3.17 km</desc>
<time>2010-03-03T16:28:02.32</time>
<name>1854</name>
</trkpt>
<trkpt lat="48.937980" lon="8.687687">
<ele>374.0</ele>
<speed>5.9</speed>
<course>23.7</course>
<desc>Speed 5.9 km/h Distance 3.17 km</desc>
<time>2010-03-03T16:28:03.32</time>
<name>1855</name>
</trkpt>
<trkpt lat="48.937995" lon="8.687697">
<ele>374.0</ele>
<speed>6.0</speed>
<course>26.4</course>
<desc>Speed 6.0 km/h Distance 3.17 km</desc>
<time>2010-03-03T16:28:04.32</time>
<name>1856</name>
</trkpt>
<trkpt lat="48.938008" lon="8.687707">
<ele>374.0</ele>
<speed>6.1</speed>
<course>23.7</course>
<desc>Speed 6.1 km/h Distance 3.18 km</desc>
<time>2010-03-03T16:28:05.32</time>
<name>1857</name>
</trkpt>
<trkpt lat="48.938023" lon="8.687717">
<ele>374.0</ele>
<speed>6.2</speed>
<course>23.3</course>
<desc>Speed 6.2 km/h Distance 3.18 km</desc>
<time>2010-03-03T16:28:06.32</time>
<name>1858</name>
</trkpt>
<trkpt lat="48.938038" lon="8.687727">
<ele>374.5</ele>
<speed>6.1</speed>
<course>26.9</course>
<desc>Speed 6.1 km/h Distance 3.18 km</desc>
<time>2010-03-03T16:28:07.32</time>
<name>1859</name>
</trkpt>
<trkpt lat="48.938053" lon="8.687738">
<ele>374.5</ele>
<speed>6.1</speed>
<course>26.2</course>
<desc>Speed 6.1 km/h Distance 3.18 km</desc>
<time>2010-03-03T16:28:08.32</time>
<name>1860</name>
</trkpt>
<trkpt lat="48.938067" lon="8.687748">
<ele>374.5</ele>
<speed>6.0</speed>
<course>29.8</course>
<desc>Speed 6.0 km/h Distance 3.18 km</desc>
<time>2010-03-03T16:28:09.32</time>
<name>1861</name>
</trkpt>
<trkpt lat="48.938080" lon="8.687760">
<ele>374.5</ele>
<speed>5.8</speed>
<course>23.7</course>
<desc>Speed 5.8 km/h Distance 3.19 km</desc>
<time>2010-03-03T16:28:10.32</time>
<name>1862</name>
</trkpt>
<trkpt lat="48.938095" lon="8.687770">
<ele>374.5</ele>
<speed>5.7</speed>
<course>26.2</course>
<desc>Speed 5.7 km/h Distance 3.19 km</desc>
<time>2010-03-03T16:28:11.32</time>
<name>1863</name>
</trkpt>
<trkpt lat="48.938108" lon="8.687780">
<ele>374.5</ele>
<speed>5.7</speed>
<course>22.3</course>
<desc>Speed 5.7 km/h Distance 3.19 km</desc>
<time>2010-03-03T16:28:12.32</time>
<name>1864</name>
</trkpt>
<trkpt lat="48.938122" lon="8.687788">
<ele>374.5</ele>
<speed>6.0</speed>
<course>23.7</course>
<desc>Speed 6.0 km/h Distance 3.19 km</desc>
<time>2010-03-03T16:28:13.32</time>
<name>1865</name>
</trkpt>
<trkpt lat="48.938137" lon="8.687798">
<ele>375.0</ele>
<speed>6.2</speed>
<course>26.2</course>
<desc>Speed 6.2 km/h Distance 3.19 km</desc>
<time>2010-03-03T16:28:14.32</time>
<name>1866</name>
</trkpt>
<trkpt lat="48.938150" lon="8.687808">
<ele>375.0</ele>
<speed>5.9</speed>
<course>23.7</course>
<desc>Speed 5.9 km/h Distance 3.19 km</desc>
<time>2010-03-03T16:28:15.32</time>
<name>1867</name>
</trkpt>
<trkpt lat="48.938165" lon="8.687818">
<ele>375.5</ele>
<speed>6.0</speed>
<course>22.3</course>
<desc>Speed 6.0 km/h Distance 3.20 km</desc>
<time>2010-03-03T16:28:16.32</time>
<name>1868</name>
</trkpt>
<trkpt lat="48.938178" lon="8.687827">
<ele>375.5</ele>
<speed>5.9</speed>
<course>26.4</course>
<desc>Speed 5.9 km/h Distance 3.20 km</desc>
<time>2010-03-03T16:28:17.32</time>
<name>1869</name>
</trkpt>
<trkpt lat="48.938192" lon="8.687837">
<ele>376.0</ele>
<speed>5.5</speed>
<course>26.4</course>
<desc>Speed 5.5 km/h Distance 3.20 km</desc>
<time>2010-03-03T16:28:18.32</time>
<name>1870</name>
</trkpt>
<trkpt lat="48.938205" lon="8.687847">
<ele>376.0</ele>
<speed>5.8</speed>
<course>25.2</course>
<desc>Speed 5.8 km/h Distance 3.20 km</desc>
<time>2010-03-03T16:28:19.32</time>
<name>1871</name>
</trkpt>
<trkpt lat="48.938217" lon="8.687855">
<ele>376.0</ele>
<speed>5.7</speed>
<course>26.0</course>
<desc>Speed 5.7 km/h Distance 3.20 km</desc>
<time>2010-03-03T16:28:20.32</time>
<name>1872</name>
</trkpt>
<trkpt lat="48.938230" lon="8.687865">
<ele>376.5</ele>
<speed>5.9</speed>
<course>26.2</course>
<desc>Speed 5.9 km/h Distance 3.20 km</desc>
<time>2010-03-03T16:28:21.32</time>
<name>1873</name>
</trkpt>
<trkpt lat="48.938243" lon="8.687875">
<ele>376.5</ele>
<speed>5.7</speed>
<course>22.1</course>
<desc>Speed 5.7 km/h Distance 3.21 km</desc>
<time>2010-03-03T16:28:22.32</time>
<name>1874</name>
</trkpt>
<trkpt lat="48.938257" lon="8.687883">
<ele>376.5</ele>
<speed>5.9</speed>
<course>23.7</course>
<desc>Speed 5.9 km/h Distance 3.21 km</desc>
<time>2010-03-03T16:28:23.32</time>
<name>1875</name>
</trkpt>
<trkpt lat="48.938272" lon="8.687893">
<ele>376.5</ele>
<speed>5.8</speed>
<course>26.4</course>
<desc>Speed 5.8 km/h Distance 3.21 km</desc>
<time>2010-03-03T16:28:24.32</time>
<name>1876</name>
</trkpt>
<trkpt lat="48.938285" lon="8.687903">
<ele>377.0</ele>
<speed>5.9</speed>
<course>26.2</course>
<desc>Speed 5.9 km/h Distance 3.21 km</desc>
<time>2010-03-03T16:28:25.32</time>
<name>1877</name>
</trkpt>
<trkpt lat="48.938298" lon="8.687913">
<ele>377.0</ele>
<speed>5.8</speed>
<course>25.2</course>
<desc>Speed 5.8 km/h Distance 3.21 km</desc>
<time>2010-03-03T16:28:26.32</time>
<name>1878</name>
</trkpt>
<trkpt lat="48.938310" lon="8.687922">
<ele>377.0</ele>
<speed>5.6</speed>
<course>26.2</course>
<desc>Speed 5.6 km/h Distance 3.21 km</desc>
<time>2010-03-03T16:28:27.32</time>
<name>1879</name>
</trkpt>
<trkpt lat="48.938323" lon="8.687932">
<ele>377.0</ele>
<speed>5.5</speed>
<course>26.4</course>
<desc>Speed 5.5 km/h Distance 3.22 km</desc>
<time>2010-03-03T16:28:28.32</time>
<name>1880</name>
</trkpt>
<trkpt lat="48.938337" lon="8.687942">
<ele>377.0</ele>
<speed>5.7</speed>
<course>29.4</course>
<desc>Speed 5.7 km/h Distance 3.22 km</desc>
<time>2010-03-03T16:28:29.32</time>
<name>1881</name>
</trkpt>
<trkpt lat="48.938348" lon="8.687952">
<ele>377.5</ele>
<speed>5.5</speed>
<course>26.2</course>
<desc>Speed 5.5 km/h Distance 3.22 km</desc>
<time>2010-03-03T16:28:30.32</time>
<name>1882</name>
</trkpt>
<trkpt lat="48.938362" lon="8.687962">
<ele>377.5</ele>
<speed>5.7</speed>
<course>26.4</course>
<desc>Speed 5.7 km/h Distance 3.22 km</desc>
<time>2010-03-03T16:28:31.32</time>
<name>1883</name>
</trkpt>
<trkpt lat="48.938375" lon="8.687972">
<ele>377.5</ele>
<speed>5.7</speed>
<course>22.1</course>
<desc>Speed 5.7 km/h Distance 3.22 km</desc>
<time>2010-03-03T16:28:32.32</time>
<name>1884</name>
</trkpt>
<trkpt lat="48.938388" lon="8.687980">
<ele>377.5</ele>
<speed>5.8</speed>
<course>26.2</course>
<desc>Speed 5.8 km/h Distance 3.22 km</desc>
<time>2010-03-03T16:28:33.32</time>
<name>1885</name>
</trkpt>
<trkpt lat="48.938402" lon="8.687990">
<ele>377.5</ele>
<speed>5.9</speed>
<course>26.2</course>
<desc>Speed 5.9 km/h Distance 3.22 km</desc>
<time>2010-03-03T16:28:34.32</time>
<name>1886</name>
</trkpt>
<trkpt lat="48.938415" lon="8.688000">
<ele>378.0</ele>
<speed>5.8</speed>
<course>26.2</course>
<desc>Speed 5.8 km/h Distance 3.23 km</desc>
<time>2010-03-03T16:28:35.32</time>
<name>1887</name>
</trkpt>
<trkpt lat="48.938428" lon="8.688010">
<ele>378.0</ele>
<speed>5.8</speed>
<course>23.7</course>
<desc>Speed 5.8 km/h Distance 3.23 km</desc>
<time>2010-03-03T16:28:36.32</time>
<name>1888</name>
</trkpt>
<trkpt lat="48.938443" lon="8.688020">
<ele>378.0</ele>
<speed>5.8</speed>
<course>22.1</course>
<desc>Speed 5.8 km/h Distance 3.23 km</desc>
<time>2010-03-03T16:28:37.32</time>
<name>1889</name>
</trkpt>
<trkpt lat="48.938457" lon="8.688028">
<ele>378.5</ele>
<speed>5.8</speed>
<course>20.1</course>
<desc>Speed 5.8 km/h Distance 3.23 km</desc>
<time>2010-03-03T16:28:38.32</time>
<name>1890</name>
</trkpt>
<trkpt lat="48.938472" lon="8.688037">
<ele>378.5</ele>
<speed>5.8</speed>
<course>26.9</course>
<desc>Speed 5.8 km/h Distance 3.23 km</desc>
<time>2010-03-03T16:28:39.32</time>
<name>1891</name>
</trkpt>
<trkpt lat="48.938487" lon="8.688048">
<ele>379.0</ele>
<speed>5.8</speed>
<course>20.1</course>
<desc>Speed 5.8 km/h Distance 3.24 km</desc>
<time>2010-03-03T16:28:40.32</time>
<name>1892</name>
</trkpt>
<trkpt lat="48.938502" lon="8.688057">
<ele>379.0</ele>
<speed>5.8</speed>
<course>26.0</course>
<desc>Speed 5.8 km/h Distance 3.24 km</desc>
<time>2010-03-03T16:28:41.32</time>
<name>1893</name>
</trkpt>
<trkpt lat="48.938515" lon="8.688067">
<ele>379.0</ele>
<speed>5.7</speed>
<course>26.2</course>
<desc>Speed 5.7 km/h Distance 3.24 km</desc>
<time>2010-03-03T16:28:42.32</time>
<name>1894</name>
</trkpt>
<trkpt lat="48.938528" lon="8.688077">
<ele>379.0</ele>
<speed>5.7</speed>
<course>22.1</course>
<desc>Speed 5.7 km/h Distance 3.24 km</desc>
<time>2010-03-03T16:28:43.32</time>
<name>1895</name>
</trkpt>
<trkpt lat="48.938542" lon="8.688085">
<ele>379.0</ele>
<speed>5.5</speed>
<course>29.4</course>
<desc>Speed 5.5 km/h Distance 3.24 km</desc>
<time>2010-03-03T16:28:44.32</time>
<name>1896</name>
</trkpt>
<trkpt lat="48.938553" lon="8.688095">
<ele>379.0</ele>
<speed>5.6</speed>
<course>26.0</course>
<desc>Speed 5.6 km/h Distance 3.24 km</desc>
<time>2010-03-03T16:28:45.32</time>
<name>1897</name>
</trkpt>
<trkpt lat="48.938567" lon="8.688105">
<ele>379.0</ele>
<speed>5.7</speed>
<course>23.5</course>
<desc>Speed 5.7 km/h Distance 3.25 km</desc>
<time>2010-03-03T16:28:46.32</time>
<name>1898</name>
</trkpt>
<trkpt lat="48.938582" lon="8.688115">
<ele>379.0</ele>
<speed>5.7</speed>
<course>26.0</course>
<desc>Speed 5.7 km/h Distance 3.25 km</desc>
<time>2010-03-03T16:28:47.32</time>
<name>1899</name>
</trkpt>
<trkpt lat="48.938595" lon="8.688125">
<ele>379.0</ele>
<speed>5.7</speed>
<course>26.2</course>
<desc>Speed 5.7 km/h Distance 3.25 km</desc>
<time>2010-03-03T16:28:48.32</time>
<name>1900</name>
</trkpt>
<trkpt lat="48.938608" lon="8.688135">
<ele>378.5</ele>
<speed>5.7</speed>
<course>26.2</course>
<desc>Speed 5.7 km/h Distance 3.25 km</desc>
<time>2010-03-03T16:28:49.32</time>
<name>1901</name>
</trkpt>
<trkpt lat="48.938622" lon="8.688145">
<ele>379.0</ele>
<speed>5.7</speed>
<course>26.4</course>
<desc>Speed 5.7 km/h Distance 3.25 km</desc>
<time>2010-03-03T16:28:50.32</time>
<name>1902</name>
</trkpt>
<trkpt lat="48.938635" lon="8.688155">
<ele>378.5</ele>
<speed>5.9</speed>
<course>26.2</course>
<desc>Speed 5.9 km/h Distance 3.25 km</desc>
<time>2010-03-03T16:28:51.32</time>
<name>1903</name>
</trkpt>
<trkpt lat="48.938648" lon="8.688165">
<ele>378.5</ele>
<speed>5.7</speed>
<course>22.6</course>
<desc>Speed 5.7 km/h Distance 3.26 km</desc>
<time>2010-03-03T16:28:52.32</time>
<name>1904</name>
</trkpt>
<trkpt lat="48.938662" lon="8.688173">
<ele>378.5</ele>
<speed>5.7</speed>
<course>26.4</course>
<desc>Speed 5.7 km/h Distance 3.26 km</desc>
<time>2010-03-03T16:28:53.32</time>
<name>1905</name>
</trkpt>
<trkpt lat="48.938675" lon="8.688183">
<ele>378.5</ele>
<speed>5.7</speed>
<course>29.4</course>
<desc>Speed 5.7 km/h Distance 3.26 km</desc>
<time>2010-03-03T16:28:54.32</time>
<name>1906</name>
</trkpt>
<trkpt lat="48.938687" lon="8.688193">
<ele>378.5</ele>
<speed>5.8</speed>
<course>23.5</course>
<desc>Speed 5.8 km/h Distance 3.26 km</desc>
<time>2010-03-03T16:28:55.32</time>
<name>1907</name>
</trkpt>
<trkpt lat="48.938702" lon="8.688203">
<ele>378.5</ele>
<speed>5.9</speed>
<course>26.0</course>
<desc>Speed 5.9 km/h Distance 3.26 km</desc>
<time>2010-03-03T16:28:56.32</time>
<name>1908</name>
</trkpt>
<trkpt lat="48.938715" lon="8.688213">
<ele>378.5</ele>
<speed>5.9</speed>
<course>22.1</course>
<desc>Speed 5.9 km/h Distance 3.26 km</desc>
<time>2010-03-03T16:28:57.32</time>
<name>1909</name>
</trkpt>
<trkpt lat="48.938728" lon="8.688222">
<ele>378.5</ele>
<speed>5.8</speed>
<course>26.0</course>
<desc>Speed 5.8 km/h Distance 3.27 km</desc>
<time>2010-03-03T16:28:58.32</time>
<name>1910</name>
</trkpt>
<trkpt lat="48.938742" lon="8.688232">
<ele>378.5</ele>
<speed>5.8</speed>
<course>26.0</course>
<desc>Speed 5.8 km/h Distance 3.27 km</desc>
<time>2010-03-03T16:28:59.32</time>
<name>1911</name>
</trkpt>
<trkpt lat="48.938755" lon="8.688242">
<ele>378.0</ele>
<speed>5.8</speed>
<course>22.1</course>
<desc>Speed 5.8 km/h Distance 3.27 km</desc>
<time>2010-03-03T16:29:00.32</time>
<name>1912</name>
</trkpt>
<trkpt lat="48.938768" lon="8.688250">
<ele>378.0</ele>
<speed>5.5</speed>
<course>30.0</course>
<desc>Speed 5.5 km/h Distance 3.27 km</desc>
<time>2010-03-03T16:29:01.32</time>
<name>1913</name>
</trkpt>
<trkpt lat="48.938782" lon="8.688262">
<ele>378.0</ele>
<speed>5.8</speed>
<course>25.4</course>
<desc>Speed 5.8 km/h Distance 3.27 km</desc>
<time>2010-03-03T16:29:02.32</time>
<name>1914</name>
</trkpt>
<trkpt lat="48.938793" lon="8.688270">
<ele>377.5</ele>
<speed>5.3</speed>
<course>26.2</course>
<desc>Speed 5.3 km/h Distance 3.27 km</desc>
<time>2010-03-03T16:29:03.32</time>
<name>1915</name>
</trkpt>
<trkpt lat="48.938807" lon="8.688280">
<ele>377.5</ele>
<speed>5.7</speed>
<course>26.2</course>
<desc>Speed 5.7 km/h Distance 3.27 km</desc>
<time>2010-03-03T16:29:04.32</time>
<name>1916</name>
</trkpt>
<trkpt lat="48.938820" lon="8.688290">
<ele>377.5</ele>
<speed>5.5</speed>
<course>22.3</course>
<desc>Speed 5.5 km/h Distance 3.28 km</desc>
<time>2010-03-03T16:29:05.32</time>
<name>1917</name>
</trkpt>
<trkpt lat="48.938833" lon="8.688298">
<ele>378.0</ele>
<speed>5.5</speed>
<course>29.0</course>
<desc>Speed 5.5 km/h Distance 3.28 km</desc>
<time>2010-03-03T16:29:06.32</time>
<name>1918</name>
</trkpt>
<trkpt lat="48.938845" lon="8.688308">
<ele>378.0</ele>
<speed>5.3</speed>
<course>25.2</course>
<desc>Speed 5.3 km/h Distance 3.28 km</desc>
<time>2010-03-03T16:29:07.32</time>
<name>1919</name>
</trkpt>
<trkpt lat="48.938857" lon="8.688317">
<ele>378.0</ele>
<speed>5.5</speed>
<course>22.3</course>
<desc>Speed 5.5 km/h Distance 3.28 km</desc>
<time>2010-03-03T16:29:08.32</time>
<name>1920</name>
</trkpt>
<trkpt lat="48.938870" lon="8.688325">
<ele>378.0</ele>
<speed>5.4</speed>
<course>29.4</course>
<desc>Speed 5.4 km/h Distance 3.28 km</desc>
<time>2010-03-03T16:29:09.32</time>
<name>1921</name>
</trkpt>
<trkpt lat="48.938882" lon="8.688335">
<ele>378.0</ele>
<speed>5.7</speed>
<course>26.2</course>
<desc>Speed 5.7 km/h Distance 3.28 km</desc>
<time>2010-03-03T16:29:10.32</time>
<name>1922</name>
</trkpt>
<trkpt lat="48.938895" lon="8.688345">
<ele>377.5</ele>
<speed>5.7</speed>
<course>33.3</course>
<desc>Speed 5.7 km/h Distance 3.29 km</desc>
<time>2010-03-03T16:29:11.32</time>
<name>1923</name>
</trkpt>
<trkpt lat="48.938907" lon="8.688357">
<ele>377.5</ele>
<speed>5.5</speed>
<course>29.4</course>
<desc>Speed 5.5 km/h Distance 3.29 km</desc>
<time>2010-03-03T16:29:12.32</time>
<name>1924</name>
</trkpt>
<trkpt lat="48.938918" lon="8.688367">
<ele>377.5</ele>
<speed>5.3</speed>
<course>25.2</course>
<desc>Speed 5.3 km/h Distance 3.29 km</desc>
<time>2010-03-03T16:29:13.32</time>
<name>1925</name>
</trkpt>
<trkpt lat="48.938930" lon="8.688375">
<ele>377.5</ele>
<speed>5.3</speed>
<course>26.2</course>
<desc>Speed 5.3 km/h Distance 3.29 km</desc>
<time>2010-03-03T16:29:14.32</time>
<name>1926</name>
</trkpt>
<trkpt lat="48.938943" lon="8.688385">
<ele>378.0</ele>
<speed>5.3</speed>
<course>24.9</course>
<desc>Speed 5.3 km/h Distance 3.29 km</desc>
<time>2010-03-03T16:29:15.32</time>
<name>1927</name>
</trkpt>
<trkpt lat="48.938955" lon="8.688393">
<ele>378.0</ele>
<speed>5.0</speed>
<course>33.2</course>
<desc>Speed 5.0 km/h Distance 3.29 km</desc>
<time>2010-03-03T16:29:16.32</time>
<name>1928</name>
</trkpt>
<trkpt lat="48.938965" lon="8.688403">
<ele>378.0</ele>
<speed>4.9</speed>
<course>22.3</course>
<desc>Speed 4.9 km/h Distance 3.29 km</desc>
<time>2010-03-03T16:29:17.32</time>
<name>1929</name>
</trkpt>
<trkpt lat="48.938978" lon="8.688412">
<ele>378.0</ele>
<speed>5.1</speed>
<course>15.5</course>
<desc>Speed 5.1 km/h Distance 3.30 km</desc>
<time>2010-03-03T16:29:18.32</time>
<name>1930</name>
</trkpt>
<trkpt lat="48.938990" lon="8.688417">
<ele>378.0</ele>
<speed>5.0</speed>
<course>11.2</course>
<desc>Speed 5.0 km/h Distance 3.30 km</desc>
<time>2010-03-03T16:29:19.32</time>
<name>1931</name>
</trkpt>
<trkpt lat="48.939002" lon="8.688420">
<ele>378.5</ele>
<speed>4.5</speed>
<course>12.6</course>
<desc>Speed 4.5 km/h Distance 3.30 km</desc>
<time>2010-03-03T16:29:20.32</time>
<name>1932</name>
</trkpt>
<trkpt lat="48.939012" lon="8.688423">
<ele>378.5</ele>
<speed>3.8</speed>
<course>26.4</course>
<desc>Speed 3.8 km/h Distance 3.30 km</desc>
<time>2010-03-03T16:29:21.32</time>
<name>1933</name>
</trkpt>
<trkpt lat="48.939018" lon="8.688428">
<ele>378.5</ele>
<speed>2.6</speed>
<course>21.5</course>
<desc>Speed 2.6 km/h Distance 3.30 km</desc>
<time>2010-03-03T16:29:22.32</time>
<name>1934</name>
</trkpt>
<trkpt lat="48.939027" lon="8.688433">
<ele>378.5</ele>
<speed>3.3</speed>
<course>13.8</course>
<desc>Speed 3.3 km/h Distance 3.30 km</desc>
<time>2010-03-03T16:29:23.32</time>
<name>1935</name>
</trkpt>
<trkpt lat="48.939035" lon="8.688437">
<ele>378.5</ele>
<speed>3.5</speed>
<course>17.6</course>
<desc>Speed 3.5 km/h Distance 3.30 km</desc>
<time>2010-03-03T16:29:24.32</time>
<name>1936</name>
</trkpt>
<trkpt lat="48.939045" lon="8.688442">
<ele>378.5</ele>
<speed>4.1</speed>
<course>13.5</course>
<desc>Speed 4.1 km/h Distance 3.30 km</desc>
<time>2010-03-03T16:29:25.32</time>
<name>1937</name>
</trkpt>
<trkpt lat="48.939058" lon="8.688447">
<ele>378.5</ele>
<speed>4.9</speed>
<course>11.2</course>
<desc>Speed 4.9 km/h Distance 3.31 km</desc>
<time>2010-03-03T16:29:26.32</time>
<name>1938</name>
</trkpt>
<trkpt lat="48.939070" lon="8.688450">
<ele>379.0</ele>
<speed>4.9</speed>
<course>13.5</course>
<desc>Speed 4.9 km/h Distance 3.31 km</desc>
<time>2010-03-03T16:29:27.32</time>
<name>1939</name>
</trkpt>
<trkpt lat="48.939083" lon="8.688455">
<ele>379.0</ele>
<speed>5.3</speed>
<course>13.5</course>
<desc>Speed 5.3 km/h Distance 3.31 km</desc>
<time>2010-03-03T16:29:28.32</time>
<name>1940</name>
</trkpt>
<trkpt lat="48.939097" lon="8.688460">
<ele>379.0</ele>
<speed>5.3</speed>
<course>18.1</course>
<desc>Speed 5.3 km/h Distance 3.31 km</desc>
<time>2010-03-03T16:29:29.32</time>
<name>1941</name>
</trkpt>
<trkpt lat="48.939110" lon="8.688467">
<ele>379.0</ele>
<speed>5.3</speed>
<course>18.1</course>
<desc>Speed 5.3 km/h Distance 3.31 km</desc>
<time>2010-03-03T16:29:30.32</time>
<name>1942</name>
</trkpt>
<trkpt lat="48.939123" lon="8.688473">
<ele>379.0</ele>
<speed>5.3</speed>
<course>15.5</course>
<desc>Speed 5.3 km/h Distance 3.31 km</desc>
<time>2010-03-03T16:29:31.32</time>
<name>1943</name>
</trkpt>
<trkpt lat="48.939135" lon="8.688478">
<ele>379.0</ele>
<speed>5.2</speed>
<course>18.1</course>
<desc>Speed 5.2 km/h Distance 3.31 km</desc>
<time>2010-03-03T16:29:32.32</time>
<name>1944</name>
</trkpt>
<trkpt lat="48.939148" lon="8.688485">
<ele>379.0</ele>
<speed>5.3</speed>
<course>25.2</course>
<desc>Speed 5.3 km/h Distance 3.32 km</desc>
<time>2010-03-03T16:29:33.32</time>
<name>1945</name>
</trkpt>
<trkpt lat="48.939160" lon="8.688493">
<ele>379.0</ele>
<speed>5.5</speed>
<course>18.1</course>
<desc>Speed 5.5 km/h Distance 3.32 km</desc>
<time>2010-03-03T16:29:34.32</time>
<name>1946</name>
</trkpt>
<trkpt lat="48.939173" lon="8.688500">
<ele>379.0</ele>
<speed>5.6</speed>
<course>22.1</course>
<desc>Speed 5.6 km/h Distance 3.32 km</desc>
<time>2010-03-03T16:29:35.32</time>
<name>1947</name>
</trkpt>
<trkpt lat="48.939187" lon="8.688508">
<ele>379.0</ele>
<speed>5.5</speed>
<course>18.1</course>
<desc>Speed 5.5 km/h Distance 3.32 km</desc>
<time>2010-03-03T16:29:36.32</time>
<name>1948</name>
</trkpt>
<trkpt lat="48.939200" lon="8.688515">
<ele>379.5</ele>
<speed>5.7</speed>
<course>18.1</course>
<desc>Speed 5.7 km/h Distance 3.32 km</desc>
<time>2010-03-03T16:29:37.32</time>
<name>1949</name>
</trkpt>
<trkpt lat="48.939213" lon="8.688522">
<ele>379.5</ele>
<speed>5.6</speed>
<course>22.1</course>
<desc>Speed 5.6 km/h Distance 3.32 km</desc>
<time>2010-03-03T16:29:38.32</time>
<name>1950</name>
</trkpt>
<trkpt lat="48.939227" lon="8.688530">
<ele>379.5</ele>
<speed>5.6</speed>
<course>18.4</course>
<desc>Speed 5.6 km/h Distance 3.33 km</desc>
<time>2010-03-03T16:29:39.32</time>
<name>1951</name>
</trkpt>
<trkpt lat="48.939240" lon="8.688537">
<ele>379.5</ele>
<speed>5.5</speed>
<course>18.1</course>
<desc>Speed 5.5 km/h Distance 3.33 km</desc>
<time>2010-03-03T16:29:40.32</time>
<name>1952</name>
</trkpt>
<trkpt lat="48.939253" lon="8.688543">
<ele>379.5</ele>
<speed>5.5</speed>
<course>18.4</course>
<desc>Speed 5.5 km/h Distance 3.33 km</desc>
<time>2010-03-03T16:29:41.32</time>
<name>1953</name>
</trkpt>
<trkpt lat="48.939267" lon="8.688550">
<ele>379.5</ele>
<speed>5.6</speed>
<course>16.0</course>
<desc>Speed 5.6 km/h Distance 3.33 km</desc>
<time>2010-03-03T16:29:42.32</time>
<name>1954</name>
</trkpt>
<trkpt lat="48.939282" lon="8.688557">
<ele>379.5</ele>
<speed>5.7</speed>
<course>29.8</course>
<desc>Speed 5.7 km/h Distance 3.33 km</desc>
<time>2010-03-03T16:29:43.32</time>
<name>1955</name>
</trkpt>
<trkpt lat="48.939295" lon="8.688568">
<ele>379.5</ele>
<speed>5.8</speed>
<course>41.3</course>
<desc>Speed 5.8 km/h Distance 3.33 km</desc>
<time>2010-03-03T16:29:44.32</time>
<name>1956</name>
</trkpt>
<trkpt lat="48.939305" lon="8.688582">
<ele>379.5</ele>
<speed>5.3</speed>
<course>46.6</course>
<desc>Speed 5.3 km/h Distance 3.33 km</desc>
<time>2010-03-03T16:29:45.32</time>
<name>1957</name>
</trkpt>
<trkpt lat="48.939313" lon="8.688595">
<ele>379.0</ele>
<speed>5.1</speed>
<course>29.4</course>
<desc>Speed 5.1 km/h Distance 3.34 km</desc>
<time>2010-03-03T16:29:46.32</time>
<name>1958</name>
</trkpt>
<trkpt lat="48.939325" lon="8.688605">
<ele>379.5</ele>
<speed>5.0</speed>
<course>18.2</course>
<desc>Speed 5.0 km/h Distance 3.34 km</desc>
<time>2010-03-03T16:29:47.32</time>
<name>1959</name>
</trkpt>
<trkpt lat="48.939335" lon="8.688610">
<ele>379.5</ele>
<speed>4.1</speed>
<course>18.8</course>
<desc>Speed 4.1 km/h Distance 3.34 km</desc>
<time>2010-03-03T16:29:48.32</time>
<name>1960</name>
</trkpt>
<trkpt lat="48.939338" lon="8.688612">
<ele>379.5</ele>
<speed>1.4</speed>
<course>12.6</course>
<desc>Speed 1.4 km/h Distance 3.34 km</desc>
<time>2010-03-03T16:29:49.32</time>
<name>1961</name>
</trkpt>
<trkpt lat="48.939340" lon="8.688612">
<ele>379.5</ele>
<speed>0.2</speed>
<course>12.6</course>
<desc>Speed 0.2 km/h Distance 3.34 km</desc>
<time>2010-03-03T16:29:50.32</time>
<name>1962</name>
</trkpt>
<trkpt lat="48.939340" lon="8.688612">
<ele>379.5</ele>
<speed>0.1</speed>
<course>12.6</course>
<desc>Speed 0.1 km/h Distance 3.34 km</desc>
<time>2010-03-03T16:29:51.32</time>
<name>1963</name>
</trkpt>
<trkpt lat="48.939340" lon="8.688610">
<ele>379.5</ele>
<speed>0.4</speed>
<course>0.0</course>
<desc>Speed 0.4 km/h Distance 3.34 km</desc>
<time>2010-03-03T16:29:52.32</time>
<name>1964</name>
</trkpt>
<trkpt lat="48.939342" lon="8.688610">
<ele>379.5</ele>
<speed>0.6</speed>
<course>0.0</course>
<desc>Speed 0.6 km/h Distance 3.34 km</desc>
<time>2010-03-03T16:29:53.32</time>
<name>1965</name>
</trkpt>
<trkpt lat="48.939342" lon="8.688610">
<ele>379.5</ele>
<speed>0.4</speed>
<course>0.0</course>
<desc>Speed 0.4 km/h Distance 3.34 km</desc>
<time>2010-03-03T16:29:54.32</time>
<name>1966</name>
</trkpt>
<trkpt lat="48.939342" lon="8.688610">
<ele>379.5</ele>
<speed>0.1</speed>
<course>270.0</course>
<desc>Speed 0.1 km/h Distance 3.34 km</desc>
<time>2010-03-03T16:29:55.32</time>
<name>1967</name>
</trkpt>
<trkpt lat="48.939342" lon="8.688608">
<ele>379.5</ele>
<speed>0.2</speed>
<course>270.0</course>
<desc>Speed 0.2 km/h Distance 3.34 km</desc>
<time>2010-03-03T16:29:56.33</time>
<name>1968</name>
</trkpt>
<trkpt lat="48.939342" lon="8.688608">
<ele>379.5</ele>
<speed>0.2</speed>
<course>270.0</course>
<desc>Speed 0.2 km/h Distance 3.34 km</desc>
<time>2010-03-03T16:29:57.33</time>
<name>1969</name>
</trkpt>
<trkpt lat="48.939342" lon="8.688608">
<ele>379.5</ele>
<speed>0.2</speed>
<course>12.6</course>
<desc>Speed 0.2 km/h Distance 3.34 km</desc>
<time>2010-03-03T16:29:58.33</time>
<name>1970</name>
</trkpt>
<trkpt lat="48.939343" lon="8.688608">
<ele>379.5</ele>
<speed>0.1</speed>
<course>12.6</course>
<desc>Speed 0.1 km/h Distance 3.34 km</desc>
<time>2010-03-03T16:29:59.34</time>
<name>1971</name>
</trkpt>
<trkpt lat="48.939343" lon="8.688608">
<ele>379.5</ele>
<speed>0.2</speed>
<course>12.6</course>
<desc>Speed 0.2 km/h Distance 3.34 km</desc>
<time>2010-03-03T16:30:00.33</time>
<name>1972</name>
</trkpt>
<trkpt lat="48.939343" lon="8.688608">
<ele>379.5</ele>
<speed>0.3</speed>
<course>12.6</course>
<desc>Speed 0.3 km/h Distance 3.34 km</desc>
<time>2010-03-03T16:30:01.33</time>
<name>1973</name>
</trkpt>
<trkpt lat="48.939343" lon="8.688608">
<ele>379.5</ele>
<speed>0.1</speed>
<course>12.6</course>
<desc>Speed 0.1 km/h Distance 3.34 km</desc>
<time>2010-03-03T16:30:02.42</time>
<name>1974</name>
</trkpt>
<trkpt lat="48.939343" lon="8.688608">
<ele>379.5</ele>
<speed>0.3</speed>
<course>12.6</course>
<desc>Speed 0.3 km/h Distance 3.34 km</desc>
<time>2010-03-03T16:30:03.35</time>
<name>1975</name>
</trkpt>
<trkpt lat="48.939343" lon="8.688608">
<ele>379.5</ele>
<speed>0.1</speed>
<course>12.6</course>
<desc>Speed 0.1 km/h Distance 3.34 km</desc>
<time>2010-03-03T16:30:04.35</time>
<name>1976</name>
</trkpt>
<trkpt lat="48.939343" lon="8.688608">
<ele>379.5</ele>
<speed>0.2</speed>
<course>12.6</course>
<desc>Speed 0.2 km/h Distance 3.34 km</desc>
<time>2010-03-03T16:30:05.35</time>
<name>1977</name>
</trkpt>
<trkpt lat="48.939343" lon="8.688608">
<ele>379.5</ele>
<speed>0.2</speed>
<course>12.6</course>
<desc>Speed 0.2 km/h Distance 3.34 km</desc>
<time>2010-03-03T16:30:06.35</time>
<name>1978</name>
</trkpt>
<trkpt lat="48.939343" lon="8.688608">
<ele>379.5</ele>
<speed>0.2</speed>
<course>12.6</course>
<desc>Speed 0.2 km/h Distance 3.34 km</desc>
<time>2010-03-03T16:30:07.35</time>
<name>1979</name>
</trkpt>
<trkpt lat="48.939343" lon="8.688608">
<ele>379.5</ele>
<speed>0.1</speed>
<course>12.6</course>
<desc>Speed 0.1 km/h Distance 3.34 km</desc>
<time>2010-03-03T16:30:08.35</time>
<name>1980</name>
</trkpt>
<trkpt lat="48.939343" lon="8.688608">
<ele>379.5</ele>
<speed>0.2</speed>
<course>12.6</course>
<desc>Speed 0.2 km/h Distance 3.34 km</desc>
<time>2010-03-03T16:30:09.35</time>
<name>1981</name>
</trkpt>
<trkpt lat="48.939343" lon="8.688608">
<ele>379.5</ele>
<speed>0.1</speed>
<course>12.6</course>
<desc>Speed 0.1 km/h Distance 3.34 km</desc>
<time>2010-03-03T16:30:10.35</time>
<name>1982</name>
</trkpt>
<trkpt lat="48.939343" lon="8.688608">
<ele>379.5</ele>
<speed>0.1</speed>
<course>12.6</course>
<desc>Speed 0.1 km/h Distance 3.34 km</desc>
<time>2010-03-03T16:30:11.35</time>
<name>1983</name>
</trkpt>
<trkpt lat="48.939343" lon="8.688608">
<ele>379.5</ele>
<speed>0.2</speed>
<course>12.6</course>
<desc>Speed 0.2 km/h Distance 3.34 km</desc>
<time>2010-03-03T16:30:12.35</time>
<name>1984</name>
</trkpt>
<trkpt lat="48.939343" lon="8.688608">
<ele>379.5</ele>
<speed>0.2</speed>
<course>12.6</course>
<desc>Speed 0.2 km/h Distance 3.34 km</desc>
<time>2010-03-03T16:30:13.35</time>
<name>1985</name>
</trkpt>
<trkpt lat="48.939343" lon="8.688608">
<ele>379.5</ele>
<speed>0.2</speed>
<course>337.0</course>
<desc>Speed 0.2 km/h Distance 3.34 km</desc>
<time>2010-03-03T16:30:14.35</time>
<name>1986</name>
</trkpt>
<trkpt lat="48.939347" lon="8.688607">
<ele>379.5</ele>
<speed>1.4</speed>
<course>26.4</course>
<desc>Speed 1.4 km/h Distance 3.34 km</desc>
<time>2010-03-03T16:30:15.35</time>
<name>1987</name>
</trkpt>
<trkpt lat="48.939353" lon="8.688612">
<ele>379.5</ele>
<speed>2.7</speed>
<course>21.5</course>
<desc>Speed 2.7 km/h Distance 3.34 km</desc>
<time>2010-03-03T16:30:16.35</time>
<name>1988</name>
</trkpt>
<trkpt lat="48.939362" lon="8.688617">
<ele>379.5</ele>
<speed>3.7</speed>
<course>23.8</course>
<desc>Speed 3.7 km/h Distance 3.34 km</desc>
<time>2010-03-03T16:30:17.35</time>
<name>1989</name>
</trkpt>
<trkpt lat="48.939372" lon="8.688623">
<ele>379.5</ele>
<speed>4.0</speed>
<course>23.8</course>
<desc>Speed 4.0 km/h Distance 3.34 km</desc>
<time>2010-03-03T16:30:18.35</time>
<name>1990</name>
</trkpt>
<trkpt lat="48.939382" lon="8.688630">
<ele>379.5</ele>
<speed>4.1</speed>
<course>23.0</course>
<desc>Speed 4.1 km/h Distance 3.34 km</desc>
<time>2010-03-03T16:30:19.35</time>
<name>1991</name>
</trkpt>
<trkpt lat="48.939392" lon="8.688637">
<ele>380.0</ele>
<speed>4.4</speed>
<course>11.2</course>
<desc>Speed 4.4 km/h Distance 3.35 km</desc>
<time>2010-03-03T16:30:20.35</time>
<name>1992</name>
</trkpt>
<trkpt lat="48.939403" lon="8.688640">
<ele>380.0</ele>
<speed>4.5</speed>
<course>16.0</course>
<desc>Speed 4.5 km/h Distance 3.35 km</desc>
<time>2010-03-03T16:30:21.35</time>
<name>1993</name>
</trkpt>
<trkpt lat="48.939415" lon="8.688645">
<ele>380.0</ele>
<speed>4.5</speed>
<course>15.5</course>
<desc>Speed 4.5 km/h Distance 3.35 km</desc>
<time>2010-03-03T16:30:22.35</time>
<name>1994</name>
</trkpt>
<trkpt lat="48.939427" lon="8.688650">
<ele>380.0</ele>
<speed>4.8</speed>
<course>13.5</course>
<desc>Speed 4.8 km/h Distance 3.35 km</desc>
<time>2010-03-03T16:30:23.35</time>
<name>1995</name>
</trkpt>
<trkpt lat="48.939440" lon="8.688655">
<ele>380.0</ele>
<speed>5.0</speed>
<course>20.6</course>
<desc>Speed 5.0 km/h Distance 3.35 km</desc>
<time>2010-03-03T16:30:24.35</time>
<name>1996</name>
</trkpt>
<trkpt lat="48.939452" lon="8.688662">
<ele>380.0</ele>
<speed>4.8</speed>
<course>20.9</course>
<desc>Speed 4.8 km/h Distance 3.35 km</desc>
<time>2010-03-03T16:30:25.35</time>
<name>1997</name>
</trkpt>
<trkpt lat="48.939463" lon="8.688668">
<ele>380.0</ele>
<speed>4.6</speed>
<course>25.2</course>
<desc>Speed 4.6 km/h Distance 3.35 km</desc>
<time>2010-03-03T16:30:26.35</time>
<name>1998</name>
</trkpt>
<trkpt lat="48.939475" lon="8.688677">
<ele>380.0</ele>
<speed>4.7</speed>
<course>16.0</course>
<desc>Speed 4.7 km/h Distance 3.36 km</desc>
<time>2010-03-03T16:30:27.35</time>
<name>1999</name>
</trkpt>
<trkpt lat="48.939487" lon="8.688682">
<ele>380.0</ele>
<speed>4.8</speed>
<course>15.5</course>
<desc>Speed 4.8 km/h Distance 3.36 km</desc>
<time>2010-03-03T16:30:28.35</time>
<name>2000</name>
</trkpt>
<trkpt lat="48.939498" lon="8.688687">
<ele>380.0</ele>
<speed>5.0</speed>
<course>20.6</course>
<desc>Speed 5.0 km/h Distance 3.36 km</desc>
<time>2010-03-03T16:30:29.35</time>
<name>2001</name>
</trkpt>
<trkpt lat="48.939510" lon="8.688693">
<ele>380.0</ele>
<speed>4.8</speed>
<course>14.9</course>
<desc>Speed 4.8 km/h Distance 3.36 km</desc>
<time>2010-03-03T16:30:30.35</time>
<name>2002</name>
</trkpt>
<trkpt lat="48.939522" lon="8.688698">
<ele>380.0</ele>
<speed>4.4</speed>
<course>18.2</course>
<desc>Speed 4.4 km/h Distance 3.36 km</desc>
<time>2010-03-03T16:30:31.35</time>
<name>2003</name>
</trkpt>
<trkpt lat="48.939532" lon="8.688703">
<ele>380.0</ele>
<speed>3.9</speed>
<course>21.5</course>
<desc>Speed 3.9 km/h Distance 3.36 km</desc>
<time>2010-03-03T16:30:32.35</time>
<name>2004</name>
</trkpt>
<trkpt lat="48.939540" lon="8.688708">
<ele>380.0</ele>
<speed>3.7</speed>
<course>23.8</course>
<desc>Speed 3.7 km/h Distance 3.36 km</desc>
<time>2010-03-03T16:30:33.35</time>
<name>2005</name>
</trkpt>
<trkpt lat="48.939550" lon="8.688715">
<ele>380.0</ele>
<speed>4.5</speed>
<course>20.2</course>
<desc>Speed 4.5 km/h Distance 3.36 km</desc>
<time>2010-03-03T16:30:34.35</time>
<name>2006</name>
</trkpt>
<trkpt lat="48.939562" lon="8.688722">
<ele>380.5</ele>
<speed>4.5</speed>
<course>28.6</course>
<desc>Speed 4.5 km/h Distance 3.37 km</desc>
<time>2010-03-03T16:30:35.35</time>
<name>2007</name>
</trkpt>
<trkpt lat="48.939572" lon="8.688730">
<ele>380.5</ele>
<speed>4.7</speed>
<course>24.9</course>
<desc>Speed 4.7 km/h Distance 3.37 km</desc>
<time>2010-03-03T16:30:36.35</time>
<name>2008</name>
</trkpt>
<trkpt lat="48.939583" lon="8.688738">
<ele>380.5</ele>
<speed>4.9</speed>
<course>20.9</course>
<desc>Speed 4.9 km/h Distance 3.37 km</desc>
<time>2010-03-03T16:30:37.35</time>
<name>2009</name>
</trkpt>
<trkpt lat="48.939595" lon="8.688745">
<ele>381.0</ele>
<speed>5.1</speed>
<course>20.9</course>
<desc>Speed 5.1 km/h Distance 3.37 km</desc>
<time>2010-03-03T16:30:38.35</time>
<name>2010</name>
</trkpt>
<trkpt lat="48.939607" lon="8.688752">
<ele>381.0</ele>
<speed>5.0</speed>
<course>14.0</course>
<desc>Speed 5.0 km/h Distance 3.37 km</desc>
<time>2010-03-03T16:30:39.35</time>
<name>2011</name>
</trkpt>
<trkpt lat="48.939620" lon="8.688757">
<ele>381.0</ele>
<speed>5.2</speed>
<course>18.8</course>
<desc>Speed 5.2 km/h Distance 3.37 km</desc>
<time>2010-03-03T16:30:40.35</time>
<name>2012</name>
</trkpt>
<trkpt lat="48.939633" lon="8.688763">
<ele>381.0</ele>
<speed>5.4</speed>
<course>16.0</course>
<desc>Speed 5.4 km/h Distance 3.37 km</desc>
<time>2010-03-03T16:30:41.35</time>
<name>2013</name>
</trkpt>
<trkpt lat="48.939645" lon="8.688768">
<ele>381.5</ele>
<speed>5.2</speed>
<course>14.0</course>
<desc>Speed 5.2 km/h Distance 3.38 km</desc>
<time>2010-03-03T16:30:42.35</time>
<name>2014</name>
</trkpt>
<trkpt lat="48.939658" lon="8.688773">
<ele>381.5</ele>
<speed>5.2</speed>
<course>14.0</course>
<desc>Speed 5.2 km/h Distance 3.38 km</desc>
<time>2010-03-03T16:30:43.35</time>
<name>2015</name>
</trkpt>
<trkpt lat="48.939672" lon="8.688778">
<ele>381.5</ele>
<speed>5.3</speed>
<course>20.9</course>
<desc>Speed 5.3 km/h Distance 3.38 km</desc>
<time>2010-03-03T16:30:44.35</time>
<name>2016</name>
</trkpt>
<trkpt lat="48.939683" lon="8.688785">
<ele>381.5</ele>
<speed>4.9</speed>
<course>14.9</course>
<desc>Speed 4.9 km/h Distance 3.38 km</desc>
<time>2010-03-03T16:30:45.35</time>
<name>2017</name>
</trkpt>
<trkpt lat="48.939692" lon="8.688788">
<ele>381.5</ele>
<speed>3.2</speed>
<course>12.6</course>
<desc>Speed 3.2 km/h Distance 3.38 km</desc>
<time>2010-03-03T16:30:46.35</time>
<name>2018</name>
</trkpt>
<trkpt lat="48.939693" lon="8.688788">
<ele>381.0</ele>
<speed>0.8</speed>
<course>12.6</course>
<desc>Speed 0.8 km/h Distance 3.38 km</desc>
<time>2010-03-03T16:30:47.35</time>
<name>2019</name>
</trkpt>
<trkpt lat="48.939695" lon="8.688788">
<ele>381.0</ele>
<speed>0.7</speed>
<course>12.6</course>
<desc>Speed 0.7 km/h Distance 3.38 km</desc>
<time>2010-03-03T16:30:48.35</time>
<name>2020</name>
</trkpt>
<trkpt lat="48.939695" lon="8.688788">
<ele>381.0</ele>
<speed>0.0</speed>
<course>90.0</course>
<desc>Speed 0.0 km/h Distance 3.38 km</desc>
<time>2010-03-03T16:30:49.35</time>
<name>2021</name>
</trkpt>
<trkpt lat="48.939695" lon="8.688790">
<ele>381.0</ele>
<speed>0.2</speed>
<course>90.0</course>
<desc>Speed 0.2 km/h Distance 3.38 km</desc>
<time>2010-03-03T16:30:50.35</time>
<name>2022</name>
</trkpt>
<trkpt lat="48.939695" lon="8.688790">
<ele>381.0</ele>
<speed>0.1</speed>
<course>12.6</course>
<desc>Speed 0.1 km/h Distance 3.38 km</desc>
<time>2010-03-03T16:30:51.35</time>
<name>2023</name>
</trkpt>
<trkpt lat="48.939697" lon="8.688790">
<ele>381.0</ele>
<speed>0.1</speed>
<course>12.6</course>
<desc>Speed 0.1 km/h Distance 3.38 km</desc>
<time>2010-03-03T16:30:52.35</time>
<name>2024</name>
</trkpt>
<trkpt lat="48.939697" lon="8.688790">
<ele>381.0</ele>
<speed>0.2</speed>
<course>12.6</course>
<desc>Speed 0.2 km/h Distance 3.38 km</desc>
<time>2010-03-03T16:30:53.35</time>
<name>2025</name>
</trkpt>
<trkpt lat="48.939697" lon="8.688790">
<ele>381.0</ele>
<speed>0.1</speed>
<course>270.0</course>
<desc>Speed 0.1 km/h Distance 3.38 km</desc>
<time>2010-03-03T16:30:54.35</time>
<name>2026</name>
</trkpt>
<trkpt lat="48.939697" lon="8.688788">
<ele>381.0</ele>
<speed>0.1</speed>
<course>270.0</course>
<desc>Speed 0.1 km/h Distance 3.38 km</desc>
<time>2010-03-03T16:30:55.35</time>
<name>2027</name>
</trkpt>
<trkpt lat="48.939697" lon="8.688788">
<ele>381.0</ele>
<speed>0.1</speed>
<course>270.0</course>
<desc>Speed 0.1 km/h Distance 3.38 km</desc>
<time>2010-03-03T16:30:56.35</time>
<name>2028</name>
</trkpt>
<trkpt lat="48.939697" lon="8.688788">
<ele>381.0</ele>
<speed>0.1</speed>
<course>270.0</course>
<desc>Speed 0.1 km/h Distance 3.38 km</desc>
<time>2010-03-03T16:30:57.35</time>
<name>2029</name>
</trkpt>
<trkpt lat="48.939697" lon="8.688788">
<ele>381.0</ele>
<speed>0.1</speed>
<course>270.0</course>
<desc>Speed 0.1 km/h Distance 3.38 km</desc>
<time>2010-03-03T16:30:58.35</time>
<name>2030</name>
</trkpt>
<trkpt lat="48.939697" lon="8.688788">
<ele>381.0</ele>
<speed>0.1</speed>
<course>270.0</course>
<desc>Speed 0.1 km/h Distance 3.38 km</desc>
<time>2010-03-03T16:30:59.35</time>
<name>2031</name>
</trkpt>
<trkpt lat="48.939697" lon="8.688788">
<ele>381.0</ele>
<speed>0.1</speed>
<course>90.0</course>
<desc>Speed 0.1 km/h Distance 3.38 km</desc>
<time>2010-03-03T16:31:00.35</time>
<name>2032</name>
</trkpt>
<trkpt lat="48.939697" lon="8.688790">
<ele>381.0</ele>
<speed>0.2</speed>
<course>90.0</course>
<desc>Speed 0.2 km/h Distance 3.38 km</desc>
<time>2010-03-03T16:31:01.35</time>
<name>2033</name>
</trkpt>
<trkpt lat="48.939697" lon="8.688790">
<ele>381.0</ele>
<speed>0.1</speed>
<course>90.0</course>
<desc>Speed 0.1 km/h Distance 3.38 km</desc>
<time>2010-03-03T16:31:02.35</time>
<name>2034</name>
</trkpt>
<trkpt lat="48.939697" lon="8.688790">
<ele>381.0</ele>
<speed>0.2</speed>
<course>90.0</course>
<desc>Speed 0.2 km/h Distance 3.38 km</desc>
<time>2010-03-03T16:31:03.35</time>
<name>2035</name>
</trkpt>
<trkpt lat="48.939697" lon="8.688790">
<ele>381.0</ele>
<speed>0.2</speed>
<course>90.0</course>
<desc>Speed 0.2 km/h Distance 3.38 km</desc>
<time>2010-03-03T16:31:04.35</time>
<name>2036</name>
</trkpt>
<trkpt lat="48.939697" lon="8.688790">
<ele>381.0</ele>
<speed>0.1</speed>
<course>90.0</course>
<desc>Speed 0.1 km/h Distance 3.38 km</desc>
<time>2010-03-03T16:31:05.35</time>
<name>2037</name>
</trkpt>
<trkpt lat="48.939697" lon="8.688790">
<ele>381.0</ele>
<speed>0.2</speed>
<course>0.0</course>
<desc>Speed 0.2 km/h Distance 3.38 km</desc>
<time>2010-03-03T16:31:06.35</time>
<name>2038</name>
</trkpt>
<trkpt lat="48.939700" lon="8.688790">
<ele>381.0</ele>
<speed>0.7</speed>
<course>308.1</course>
<desc>Speed 0.7 km/h Distance 3.38 km</desc>
<time>2010-03-03T16:31:07.35</time>
<name>2039</name>
</trkpt>
<trkpt lat="48.939702" lon="8.688787">
<ele>380.5</ele>
<speed>1.2</speed>
<course>51.9</course>
<desc>Speed 1.2 km/h Distance 3.38 km</desc>
<time>2010-03-03T16:31:08.35</time>
<name>2040</name>
</trkpt>
<trkpt lat="48.939703" lon="8.688790">
<ele>380.5</ele>
<speed>1.0</speed>
<course>51.9</course>
<desc>Speed 1.0 km/h Distance 3.38 km</desc>
<time>2010-03-03T16:31:09.35</time>
<name>2041</name>
</trkpt>
<trkpt lat="48.939703" lon="8.688790">
<ele>380.5</ele>
<speed>0.6</speed>
<course>27.9</course>
<desc>Speed 0.6 km/h Distance 3.38 km</desc>
<time>2010-03-03T16:31:10.35</time>
<name>2042</name>
</trkpt>
<trkpt lat="48.939712" lon="8.688797">
<ele>380.5</ele>
<speed>3.6</speed>
<course>16.0</course>
<desc>Speed 3.6 km/h Distance 3.38 km</desc>
<time>2010-03-03T16:31:11.35</time>
<name>2043</name>
</trkpt>
<trkpt lat="48.939723" lon="8.688802">
<ele>380.5</ele>
<speed>4.9</speed>
<course>20.1</course>
<desc>Speed 4.9 km/h Distance 3.39 km</desc>
<time>2010-03-03T16:31:12.35</time>
<name>2044</name>
</trkpt>
<trkpt lat="48.939738" lon="8.688810">
<ele>380.5</ele>
<speed>5.7</speed>
<course>19.9</course>
<desc>Speed 5.7 km/h Distance 3.39 km</desc>
<time>2010-03-03T16:31:13.35</time>
<name>2045</name>
</trkpt>
<trkpt lat="48.939753" lon="8.688818">
<ele>381.0</ele>
<speed>5.7</speed>
<course>23.7</course>
<desc>Speed 5.7 km/h Distance 3.39 km</desc>
<time>2010-03-03T16:31:14.35</time>
<name>2046</name>
</trkpt>
<trkpt lat="48.939768" lon="8.688828">
<ele>381.0</ele>
<speed>5.7</speed>
<course>20.1</course>
<desc>Speed 5.7 km/h Distance 3.39 km</desc>
<time>2010-03-03T16:31:15.35</time>
<name>2047</name>
</trkpt>
<trkpt lat="48.939783" lon="8.688837">
<ele>381.0</ele>
<speed>5.8</speed>
<course>16.6</course>
<desc>Speed 5.8 km/h Distance 3.39 km</desc>
<time>2010-03-03T16:31:16.35</time>
<name>2048</name>
</trkpt>
<trkpt lat="48.939798" lon="8.688843">
<ele>381.0</ele>
<speed>5.8</speed>
<course>20.1</course>
<desc>Speed 5.8 km/h Distance 3.39 km</desc>
<time>2010-03-03T16:31:17.35</time>
<name>2049</name>
</trkpt>
<trkpt lat="48.939813" lon="8.688852">
<ele>381.0</ele>
<speed>5.7</speed>
<course>18.1</course>
<desc>Speed 5.7 km/h Distance 3.40 km</desc>
<time>2010-03-03T16:31:18.35</time>
<name>2050</name>
</trkpt>
<trkpt lat="48.939830" lon="8.688860">
<ele>381.0</ele>
<speed>6.0</speed>
<course>23.5</course>
<desc>Speed 6.0 km/h Distance 3.40 km</desc>
<time>2010-03-03T16:31:19.35</time>
<name>2051</name>
</trkpt>
<trkpt lat="48.939845" lon="8.688870">
<ele>381.5</ele>
<speed>6.2</speed>
<course>14.3</course>
<desc>Speed 6.2 km/h Distance 3.40 km</desc>
<time>2010-03-03T16:31:20.35</time>
<name>2052</name>
</trkpt>
<trkpt lat="48.939862" lon="8.688877">
<ele>381.5</ele>
<speed>6.0</speed>
<course>7.1</course>
<desc>Speed 6.0 km/h Distance 3.40 km</desc>
<time>2010-03-03T16:31:21.35</time>
<name>2053</name>
</trkpt>
<trkpt lat="48.939878" lon="8.688880">
<ele>382.0</ele>
<speed>6.1</speed>
<course>8.1</course>
<desc>Speed 6.1 km/h Distance 3.40 km</desc>
<time>2010-03-03T16:31:22.35</time>
<name>2054</name>
</trkpt>
<trkpt lat="48.939893" lon="8.688883">
<ele>382.0</ele>
<speed>6.0</speed>
<course>7.7</course>
<desc>Speed 6.0 km/h Distance 3.41 km</desc>
<time>2010-03-03T16:31:23.35</time>
<name>2055</name>
</trkpt>
<trkpt lat="48.939910" lon="8.688887">
<ele>382.5</ele>
<speed>5.8</speed>
<course>13.5</course>
<desc>Speed 5.8 km/h Distance 3.41 km</desc>
<time>2010-03-03T16:31:24.35</time>
<name>2056</name>
</trkpt>
<trkpt lat="48.939923" lon="8.688892">
<ele>382.5</ele>
<speed>5.8</speed>
<course>18.8</course>
<desc>Speed 5.8 km/h Distance 3.41 km</desc>
<time>2010-03-03T16:31:25.35</time>
<name>2057</name>
</trkpt>
<trkpt lat="48.939937" lon="8.688898">
<ele>382.5</ele>
<speed>5.5</speed>
<course>25.2</course>
<desc>Speed 5.5 km/h Distance 3.41 km</desc>
<time>2010-03-03T16:31:26.35</time>
<name>2058</name>
</trkpt>
<trkpt lat="48.939948" lon="8.688907">
<ele>382.5</ele>
<speed>5.7</speed>
<course>14.0</course>
<desc>Speed 5.7 km/h Distance 3.41 km</desc>
<time>2010-03-03T16:31:27.35</time>
<name>2059</name>
</trkpt>
<trkpt lat="48.939962" lon="8.688912">
<ele>382.5</ele>
<speed>5.6</speed>
<course>12.6</course>
<desc>Speed 5.6 km/h Distance 3.41 km</desc>
<time>2010-03-03T16:31:28.35</time>
<name>2060</name>
</trkpt>
<trkpt lat="48.939977" lon="8.688917">
<ele>382.0</ele>
<speed>5.7</speed>
<course>13.5</course>
<desc>Speed 5.7 km/h Distance 3.42 km</desc>
<time>2010-03-03T16:31:29.35</time>
<name>2061</name>
</trkpt>
<trkpt lat="48.939990" lon="8.688922">
<ele>382.0</ele>
<speed>5.8</speed>
<course>22.1</course>
<desc>Speed 5.8 km/h Distance 3.42 km</desc>
<time>2010-03-03T16:31:30.35</time>
<name>2062</name>
</trkpt>
<trkpt lat="48.940003" lon="8.688930">
<ele>382.0</ele>
<speed>5.7</speed>
<course>22.3</course>
<desc>Speed 5.7 km/h Distance 3.42 km</desc>
<time>2010-03-03T16:31:31.35</time>
<name>2063</name>
</trkpt>
<trkpt lat="48.940017" lon="8.688938">
<ele>382.5</ele>
<speed>5.8</speed>
<course>25.2</course>
<desc>Speed 5.8 km/h Distance 3.42 km</desc>
<time>2010-03-03T16:31:32.35</time>
<name>2064</name>
</trkpt>
<trkpt lat="48.940028" lon="8.688947">
<ele>382.5</ele>
<speed>5.7</speed>
<course>20.1</course>
<desc>Speed 5.7 km/h Distance 3.42 km</desc>
<time>2010-03-03T16:31:33.35</time>
<name>2065</name>
</trkpt>
<trkpt lat="48.940043" lon="8.688955">
<ele>382.5</ele>
<speed>5.8</speed>
<course>20.9</course>
<desc>Speed 5.8 km/h Distance 3.42 km</desc>
<time>2010-03-03T16:31:34.35</time>
<name>2066</name>
</trkpt>
<trkpt lat="48.940055" lon="8.688962">
<ele>382.0</ele>
<speed>5.1</speed>
<course>13.5</course>
<desc>Speed 5.1 km/h Distance 3.42 km</desc>
<time>2010-03-03T16:31:35.35</time>
<name>2067</name>
</trkpt>
<trkpt lat="48.940068" lon="8.688967">
<ele>382.0</ele>
<speed>5.1</speed>
<course>20.9</course>
<desc>Speed 5.1 km/h Distance 3.43 km</desc>
<time>2010-03-03T16:31:36.35</time>
<name>2068</name>
</trkpt>
<trkpt lat="48.940080" lon="8.688973">
<ele>382.0</ele>
<speed>5.5</speed>
<course>26.2</course>
<desc>Speed 5.5 km/h Distance 3.43 km</desc>
<time>2010-03-03T16:31:37.35</time>
<name>2069</name>
</trkpt>
<trkpt lat="48.940093" lon="8.688983">
<ele>382.5</ele>
<speed>5.8</speed>
<course>16.6</course>
<desc>Speed 5.8 km/h Distance 3.43 km</desc>
<time>2010-03-03T16:31:38.35</time>
<name>2070</name>
</trkpt>
<trkpt lat="48.940108" lon="8.688990">
<ele>382.5</ele>
<speed>5.8</speed>
<course>22.1</course>
<desc>Speed 5.8 km/h Distance 3.43 km</desc>
<time>2010-03-03T16:31:39.35</time>
<name>2071</name>
</trkpt>
<trkpt lat="48.940122" lon="8.688998">
<ele>382.5</ele>
<speed>5.7</speed>
<course>18.1</course>
<desc>Speed 5.7 km/h Distance 3.43 km</desc>
<time>2010-03-03T16:31:40.35</time>
<name>2072</name>
</trkpt>
<trkpt lat="48.940135" lon="8.689005">
<ele>382.5</ele>
<speed>5.9</speed>
<course>20.1</course>
<desc>Speed 5.9 km/h Distance 3.43 km</desc>
<time>2010-03-03T16:31:41.35</time>
<name>2073</name>
</trkpt>
<trkpt lat="48.940150" lon="8.689013">
<ele>382.5</ele>
<speed>5.8</speed>
<course>18.1</course>
<desc>Speed 5.8 km/h Distance 3.44 km</desc>
<time>2010-03-03T16:31:42.35</time>
<name>2074</name>
</trkpt>
<trkpt lat="48.940163" lon="8.689020">
<ele>383.0</ele>
<speed>5.7</speed>
<course>18.1</course>
<desc>Speed 5.7 km/h Distance 3.44 km</desc>
<time>2010-03-03T16:31:43.35</time>
<name>2075</name>
</trkpt>
<trkpt lat="48.940177" lon="8.689027">
<ele>383.0</ele>
<speed>5.9</speed>
<course>16.0</course>
<desc>Speed 5.9 km/h Distance 3.44 km</desc>
<time>2010-03-03T16:31:44.35</time>
<name>2076</name>
</trkpt>
<trkpt lat="48.940192" lon="8.689033">
<ele>383.0</ele>
<speed>5.9</speed>
<course>16.0</course>
<desc>Speed 5.9 km/h Distance 3.44 km</desc>
<time>2010-03-03T16:31:45.35</time>
<name>2077</name>
</trkpt>
<trkpt lat="48.940207" lon="8.689040">
<ele>383.5</ele>
<speed>5.9</speed>
<course>22.3</course>
<desc>Speed 5.9 km/h Distance 3.44 km</desc>
<time>2010-03-03T16:31:46.35</time>
<name>2078</name>
</trkpt>
<trkpt lat="48.940220" lon="8.689048">
<ele>383.5</ele>
<speed>5.9</speed>
<course>22.6</course>
<desc>Speed 5.9 km/h Distance 3.44 km</desc>
<time>2010-03-03T16:31:47.35</time>
<name>2079</name>
</trkpt>
<trkpt lat="48.940233" lon="8.689057">
<ele>383.5</ele>
<speed>6.0</speed>
<course>16.0</course>
<desc>Speed 6.0 km/h Distance 3.45 km</desc>
<time>2010-03-03T16:31:48.35</time>
<name>2080</name>
</trkpt>
<trkpt lat="48.940248" lon="8.689063">
<ele>384.0</ele>
<speed>5.9</speed>
<course>16.0</course>
<desc>Speed 5.9 km/h Distance 3.45 km</desc>
<time>2010-03-03T16:31:49.36</time>
<name>2081</name>
</trkpt>
<trkpt lat="48.940263" lon="8.689070">
<ele>384.0</ele>
<speed>6.2</speed>
<course>11.7</course>
<desc>Speed 6.2 km/h Distance 3.45 km</desc>
<time>2010-03-03T16:31:50.36</time>
<name>2082</name>
</trkpt>
<trkpt lat="48.940278" lon="8.689075">
<ele>384.5</ele>
<speed>5.9</speed>
<course>16.0</course>
<desc>Speed 5.9 km/h Distance 3.45 km</desc>
<time>2010-03-03T16:31:51.36</time>
<name>2083</name>
</trkpt>
<trkpt lat="48.940293" lon="8.689082">
<ele>384.5</ele>
<speed>6.2</speed>
<course>20.2</course>
<desc>Speed 6.2 km/h Distance 3.45 km</desc>
<time>2010-03-03T16:31:52.36</time>
<name>2084</name>
</trkpt>
<trkpt lat="48.940320" lon="8.689097">
<ele>384.5</ele>
<speed>5.8</speed>
<course>21.1</course>
<desc>Speed 5.8 km/h Distance 3.46 km</desc>
<time>2010-03-03T16:31:53.87</time>
<name>2085</name>
</trkpt>
<trkpt lat="48.940348" lon="8.689113">
<ele>384.5</ele>
<speed>6.0</speed>
<course>18.1</course>
<desc>Speed 6.0 km/h Distance 3.46 km</desc>
<time>2010-03-03T16:31:55.86</time>
<name>2086</name>
</trkpt>
<trkpt lat="48.940362" lon="8.689120">
<ele>385.0</ele>
<speed>5.8</speed>
<course>20.1</course>
<desc>Speed 5.8 km/h Distance 3.46 km</desc>
<time>2010-03-03T16:31:56.86</time>
<name>2087</name>
</trkpt>
<trkpt lat="48.940377" lon="8.689128">
<ele>385.0</ele>
<speed>5.8</speed>
<course>22.1</course>
<desc>Speed 5.8 km/h Distance 3.46 km</desc>
<time>2010-03-03T16:31:57.86</time>
<name>2088</name>
</trkpt>
<trkpt lat="48.940390" lon="8.689137">
<ele>385.0</ele>
<speed>5.6</speed>
<course>13.5</course>
<desc>Speed 5.6 km/h Distance 3.46 km</desc>
<time>2010-03-03T16:31:58.86</time>
<name>2089</name>
</trkpt>
<trkpt lat="48.940403" lon="8.689142">
<ele>385.5</ele>
<speed>5.5</speed>
<course>18.4</course>
<desc>Speed 5.5 km/h Distance 3.47 km</desc>
<time>2010-03-03T16:31:59.86</time>
<name>2090</name>
</trkpt>
<trkpt lat="48.940417" lon="8.689148">
<ele>385.5</ele>
<speed>5.5</speed>
<course>20.1</course>
<desc>Speed 5.5 km/h Distance 3.47 km</desc>
<time>2010-03-03T16:32:00.86</time>
<name>2091</name>
</trkpt>
<trkpt lat="48.940432" lon="8.689157">
<ele>385.5</ele>
<speed>5.9</speed>
<course>20.1</course>
<desc>Speed 5.9 km/h Distance 3.47 km</desc>
<time>2010-03-03T16:32:01.86</time>
<name>2092</name>
</trkpt>
<trkpt lat="48.940447" lon="8.689165">
<ele>386.0</ele>
<speed>5.8</speed>
<course>13.5</course>
<desc>Speed 5.8 km/h Distance 3.47 km</desc>
<time>2010-03-03T16:32:02.86</time>
<name>2093</name>
</trkpt>
<trkpt lat="48.940460" lon="8.689170">
<ele>386.0</ele>
<speed>5.5</speed>
<course>16.6</course>
<desc>Speed 5.5 km/h Distance 3.47 km</desc>
<time>2010-03-03T16:32:03.86</time>
<name>2094</name>
</trkpt>
<trkpt lat="48.940475" lon="8.689177">
<ele>386.0</ele>
<speed>5.4</speed>
<course>20.4</course>
<desc>Speed 5.4 km/h Distance 3.47 km</desc>
<time>2010-03-03T16:32:04.87</time>
<name>2095</name>
</trkpt>
<trkpt lat="48.940502" lon="8.689192">
<ele>386.5</ele>
<speed>5.7</speed>
<course>22.1</course>
<desc>Speed 5.7 km/h Distance 3.48 km</desc>
<time>2010-03-03T16:32:06.86</time>
<name>2096</name>
</trkpt>
<trkpt lat="48.940515" lon="8.689200">
<ele>386.5</ele>
<speed>5.7</speed>
<course>18.4</course>
<desc>Speed 5.7 km/h Distance 3.48 km</desc>
<time>2010-03-03T16:32:07.86</time>
<name>2097</name>
</trkpt>
<trkpt lat="48.940528" lon="8.689207">
<ele>386.5</ele>
<speed>5.7</speed>
<course>22.1</course>
<desc>Speed 5.7 km/h Distance 3.48 km</desc>
<time>2010-03-03T16:32:08.86</time>
<name>2098</name>
</trkpt>
<trkpt lat="48.940542" lon="8.689215">
<ele>386.5</ele>
<speed>5.3</speed>
<course>15.8</course>
<desc>Speed 5.3 km/h Distance 3.48 km</desc>
<time>2010-03-03T16:32:09.87</time>
<name>2099</name>
</trkpt>
<trkpt lat="48.940568" lon="8.689227">
<ele>387.0</ele>
<speed>5.4</speed>
<course>6.6</course>
<desc>Speed 5.4 km/h Distance 3.48 km</desc>
<time>2010-03-03T16:32:11.87</time>
<name>2100</name>
</trkpt>
<trkpt lat="48.940597" lon="8.689232">
<ele>387.5</ele>
<speed>5.5</speed>
<course>356.2</course>
<desc>Speed 5.5 km/h Distance 3.49 km</desc>
<time>2010-03-03T16:32:13.85</time>
<name>2101</name>
</trkpt>
<trkpt lat="48.940612" lon="8.689230">
<ele>387.5</ele>
<speed>5.5</speed>
<course>337.4</course>
<desc>Speed 5.5 km/h Distance 3.49 km</desc>
<time>2010-03-03T16:32:14.85</time>
<name>2102</name>
</trkpt>
<trkpt lat="48.940625" lon="8.689222">
<ele>388.0</ele>
<speed>5.7</speed>
<course>330.6</course>
<desc>Speed 5.7 km/h Distance 3.49 km</desc>
<time>2010-03-03T16:32:15.85</time>
<name>2103</name>
</trkpt>
<trkpt lat="48.940637" lon="8.689212">
<ele>388.0</ele>
<speed>5.6</speed>
<course>315.4</course>
<desc>Speed 5.6 km/h Distance 3.49 km</desc>
<time>2010-03-03T16:32:16.85</time>
<name>2104</name>
</trkpt>
<trkpt lat="48.940647" lon="8.689197">
<ele>388.0</ele>
<speed>5.5</speed>
<course>307.3</course>
<desc>Speed 5.5 km/h Distance 3.49 km</desc>
<time>2010-03-03T16:32:17.86</time>
<name>2105</name>
</trkpt>
<trkpt lat="48.940655" lon="8.689180">
<ele>387.5</ele>
<speed>5.4</speed>
<course>296.9</course>
<desc>Speed 5.4 km/h Distance 3.50 km</desc>
<time>2010-03-03T16:32:18.85</time>
<name>2106</name>
</trkpt>
<trkpt lat="48.940662" lon="8.689160">
<ele>387.0</ele>
<speed>5.4</speed>
<course>290.8</course>
<desc>Speed 5.4 km/h Distance 3.50 km</desc>
<time>2010-03-03T16:32:19.85</time>
<name>2107</name>
</trkpt>
<trkpt lat="48.940667" lon="8.689140">
<ele>387.0</ele>
<speed>5.8</speed>
<course>290.8</course>
<desc>Speed 5.8 km/h Distance 3.50 km</desc>
<time>2010-03-03T16:32:20.85</time>
<name>2108</name>
</trkpt>
<trkpt lat="48.940672" lon="8.689120">
<ele>387.0</ele>
<speed>5.4</speed>
<course>282.3</course>
<desc>Speed 5.4 km/h Distance 3.50 km</desc>
<time>2010-03-03T16:32:21.85</time>
<name>2109</name>
</trkpt>
<trkpt lat="48.940675" lon="8.689097">
<ele>387.0</ele>
<speed>5.9</speed>
<course>276.2</course>
<desc>Speed 5.9 km/h Distance 3.50 km</desc>
<time>2010-03-03T16:32:22.85</time>
<name>2110</name>
</trkpt>
<trkpt lat="48.940677" lon="8.689073">
<ele>387.5</ele>
<speed>6.0</speed>
<course>275.8</course>
<desc>Speed 6.0 km/h Distance 3.50 km</desc>
<time>2010-03-03T16:32:23.85</time>
<name>2111</name>
</trkpt>
<trkpt lat="48.940678" lon="8.689048">
<ele>387.5</ele>
<speed>6.1</speed>
<course>276.2</course>
<desc>Speed 6.1 km/h Distance 3.51 km</desc>
<time>2010-03-03T16:32:24.85</time>
<name>2112</name>
</trkpt>
<trkpt lat="48.940680" lon="8.689025">
<ele>388.0</ele>
<speed>5.7</speed>
<course>275.8</course>
<desc>Speed 5.7 km/h Distance 3.51 km</desc>
<time>2010-03-03T16:32:25.86</time>
<name>2113</name>
</trkpt>
<trkpt lat="48.940682" lon="8.689000">
<ele>388.0</ele>
<speed>6.0</speed>
<course>282.3</course>
<desc>Speed 6.0 km/h Distance 3.51 km</desc>
<time>2010-03-03T16:32:26.85</time>
<name>2114</name>
</trkpt>
<trkpt lat="48.940685" lon="8.688977">
<ele>388.5</ele>
<speed>5.9</speed>
<course>282.3</course>
<desc>Speed 5.9 km/h Distance 3.51 km</desc>
<time>2010-03-03T16:32:27.85</time>
<name>2115</name>
</trkpt>
<trkpt lat="48.940688" lon="8.688953">
<ele>388.5</ele>
<speed>5.8</speed>
<course>289.3</course>
<desc>Speed 5.8 km/h Distance 3.51 km</desc>
<time>2010-03-03T16:32:28.85</time>
<name>2116</name>
</trkpt>
<trkpt lat="48.940693" lon="8.688932">
<ele>388.5</ele>
<speed>5.8</speed>
<course>299.0</course>
<desc>Speed 5.8 km/h Distance 3.51 km</desc>
<time>2010-03-03T16:32:29.86</time>
<name>2117</name>
</trkpt>
<trkpt lat="48.940700" lon="8.688913">
<ele>389.0</ele>
<speed>5.4</speed>
<course>283.2</course>
<desc>Speed 5.4 km/h Distance 3.52 km</desc>
<time>2010-03-03T16:32:30.85</time>
<name>2118</name>
</trkpt>
<trkpt lat="48.940703" lon="8.688892">
<ele>389.5</ele>
<speed>5.3</speed>
<course>276.7</course>
<desc>Speed 5.3 km/h Distance 3.52 km</desc>
<time>2010-03-03T16:32:31.86</time>
<name>2119</name>
</trkpt>
<trkpt lat="48.940705" lon="8.688870">
<ele>389.0</ele>
<speed>5.4</speed>
<course>277.2</course>
<desc>Speed 5.4 km/h Distance 3.52 km</desc>
<time>2010-03-03T16:32:32.85</time>
<name>2120</name>
</trkpt>
<trkpt lat="48.940707" lon="8.688850">
<ele>389.0</ele>
<speed>5.9</speed>
<course>270.0</course>
<desc>Speed 5.9 km/h Distance 3.52 km</desc>
<time>2010-03-03T16:32:33.86</time>
<name>2121</name>
</trkpt>
<trkpt lat="48.940707" lon="8.688827">
<ele>389.0</ele>
<speed>5.7</speed>
<course>253.1</course>
<desc>Speed 5.7 km/h Distance 3.52 km</desc>
<time>2010-03-03T16:32:34.86</time>
<name>2122</name>
</trkpt>
<trkpt lat="48.940703" lon="8.688810">
<ele>388.5</ele>
<speed>4.4</speed>
<course>207.5</course>
<desc>Speed 4.4 km/h Distance 3.52 km</desc>
<time>2010-03-03T16:32:35.86</time>
<name>2123</name>
</trkpt>
<trkpt lat="48.940695" lon="8.688803">
<ele>389.0</ele>
<speed>3.6</speed>
<course>167.4</course>
<desc>Speed 3.6 km/h Distance 3.52 km</desc>
<time>2010-03-03T16:32:36.85</time>
<name>2124</name>
</trkpt>
<trkpt lat="48.940693" lon="8.688803">
<ele>389.0</ele>
<speed>0.7</speed>
<course>167.4</course>
<desc>Speed 0.7 km/h Distance 3.53 km</desc>
<time>2010-03-03T16:32:37.85</time>
<name>2125</name>
</trkpt>
<trkpt lat="48.940693" lon="8.688803">
<ele>389.0</ele>
<speed>0.3</speed>
<course>270.0</course>
<desc>Speed 0.3 km/h Distance 3.53 km</desc>
<time>2010-03-03T16:32:38.85</time>
<name>2126</name>
</trkpt>
<trkpt lat="48.940693" lon="8.688802">
<ele>389.0</ele>
<speed>0.0</speed>
<course>270.0</course>
<desc>Speed 0.0 km/h Distance 3.53 km</desc>
<time>2010-03-03T16:32:39.86</time>
<name>2127</name>
</trkpt>
<trkpt lat="48.940693" lon="8.688800">
<ele>389.5</ele>
<speed>0.6</speed>
<course>270.0</course>
<desc>Speed 0.6 km/h Distance 3.53 km</desc>
<time>2010-03-03T16:32:40.84</time>
<name>2128</name>
</trkpt>
<trkpt lat="48.940693" lon="8.688800">
<ele>389.5</ele>
<speed>0.3</speed>
<course>12.6</course>
<desc>Speed 0.3 km/h Distance 3.53 km</desc>
<time>2010-03-03T16:32:41.84</time>
<name>2129</name>
</trkpt>
<trkpt lat="48.940695" lon="8.688800">
<ele>389.5</ele>
<speed>0.4</speed>
<course>12.6</course>
<desc>Speed 0.4 km/h Distance 3.53 km</desc>
<time>2010-03-03T16:32:42.85</time>
<name>2130</name>
</trkpt>
<trkpt lat="48.940695" lon="8.688800">
<ele>389.5</ele>
<speed>0.1</speed>
<course>12.6</course>
<desc>Speed 0.1 km/h Distance 3.53 km</desc>
<time>2010-03-03T16:32:43.85</time>
<name>2131</name>
</trkpt>
<trkpt lat="48.940695" lon="8.688800">
<ele>389.5</ele>
<speed>0.5</speed>
<course>12.6</course>
<desc>Speed 0.5 km/h Distance 3.53 km</desc>
<time>2010-03-03T16:32:44.85</time>
<name>2132</name>
</trkpt>
<trkpt lat="48.940695" lon="8.688800">
<ele>389.5</ele>
<speed>0.3</speed>
<course>150.8</course>
<desc>Speed 0.3 km/h Distance 3.53 km</desc>
<time>2010-03-03T16:32:45.85</time>
<name>2133</name>
</trkpt>
<trkpt lat="48.940693" lon="8.688802">
<ele>389.5</ele>
<speed>0.1</speed>
<course>150.8</course>
<desc>Speed 0.1 km/h Distance 3.53 km</desc>
<time>2010-03-03T16:32:46.85</time>
<name>2134</name>
</trkpt>
<trkpt lat="48.940693" lon="8.688802">
<ele>389.0</ele>
<speed>0.5</speed>
<course>284.4</course>
<desc>Speed 0.5 km/h Distance 3.53 km</desc>
<time>2010-03-03T16:32:47.85</time>
<name>2135</name>
</trkpt>
<trkpt lat="48.940695" lon="8.688792">
<ele>389.0</ele>
<speed>2.6</speed>
<course>270.0</course>
<desc>Speed 2.6 km/h Distance 3.53 km</desc>
<time>2010-03-03T16:32:48.85</time>
<name>2136</name>
</trkpt>
<trkpt lat="48.940695" lon="8.688788">
<ele>389.0</ele>
<speed>1.2</speed>
<course>246.4</course>
<desc>Speed 1.2 km/h Distance 3.53 km</desc>
<time>2010-03-03T16:32:49.85</time>
<name>2137</name>
</trkpt>
<trkpt lat="48.940692" lon="8.688777">
<ele>388.0</ele>
<speed>3.1</speed>
<course>270.0</course>
<desc>Speed 3.1 km/h Distance 3.53 km</desc>
<time>2010-03-03T16:32:50.85</time>
<name>2138</name>
</trkpt>
<trkpt lat="48.940692" lon="8.688758">
<ele>388.0</ele>
<speed>5.2</speed>
<course>304.7</course>
<desc>Speed 5.2 km/h Distance 3.53 km</desc>
<time>2010-03-03T16:32:51.84</time>
<name>2139</name>
</trkpt>
<trkpt lat="48.940700" lon="8.688740">
<ele>388.5</ele>
<speed>5.6</speed>
<course>276.7</course>
<desc>Speed 5.6 km/h Distance 3.53 km</desc>
<time>2010-03-03T16:32:52.84</time>
<name>2140</name>
</trkpt>
<trkpt lat="48.940702" lon="8.688718">
<ele>389.0</ele>
<speed>6.0</speed>
<course>283.2</course>
<desc>Speed 6.0 km/h Distance 3.53 km</desc>
<time>2010-03-03T16:32:53.84</time>
<name>2141</name>
</trkpt>
<trkpt lat="48.940705" lon="8.688697">
<ele>389.5</ele>
<speed>5.8</speed>
<course>283.2</course>
<desc>Speed 5.8 km/h Distance 3.53 km</desc>
<time>2010-03-03T16:32:54.84</time>
<name>2142</name>
</trkpt>
<trkpt lat="48.940708" lon="8.688675">
<ele>389.5</ele>
<speed>6.0</speed>
<course>276.2</course>
<desc>Speed 6.0 km/h Distance 3.54 km</desc>
<time>2010-03-03T16:32:55.84</time>
<name>2143</name>
</trkpt>
<trkpt lat="48.940710" lon="8.688652">
<ele>390.0</ele>
<speed>6.2</speed>
<course>263.8</course>
<desc>Speed 6.2 km/h Distance 3.54 km</desc>
<time>2010-03-03T16:32:56.84</time>
<name>2144</name>
</trkpt>
<trkpt lat="48.940708" lon="8.688628">
<ele>390.0</ele>
<speed>6.2</speed>
<course>275.8</course>
<desc>Speed 6.2 km/h Distance 3.54 km</desc>
<time>2010-03-03T16:32:57.84</time>
<name>2145</name>
</trkpt>
<trkpt lat="48.940710" lon="8.688603">
<ele>390.0</ele>
<speed>6.2</speed>
<course>276.7</course>
<desc>Speed 6.2 km/h Distance 3.54 km</desc>
<time>2010-03-03T16:32:58.84</time>
<name>2146</name>
</trkpt>
<trkpt lat="48.940712" lon="8.688582">
<ele>390.5</ele>
<speed>6.0</speed>
<course>275.8</course>
<desc>Speed 6.0 km/h Distance 3.54 km</desc>
<time>2010-03-03T16:32:59.84</time>
<name>2147</name>
</trkpt>
<trkpt lat="48.940713" lon="8.688557">
<ele>390.5</ele>
<speed>6.4</speed>
<course>282.3</course>
<desc>Speed 6.4 km/h Distance 3.54 km</desc>
<time>2010-03-03T16:33:00.85</time>
<name>2148</name>
</trkpt>
<trkpt lat="48.940717" lon="8.688533">
<ele>390.5</ele>
<speed>6.2</speed>
<course>270.0</course>
<desc>Speed 6.2 km/h Distance 3.55 km</desc>
<time>2010-03-03T16:33:01.85</time>
<name>2149</name>
</trkpt>
<trkpt lat="48.940717" lon="8.688510">
<ele>390.5</ele>
<speed>6.1</speed>
<course>263.8</course>
<desc>Speed 6.1 km/h Distance 3.55 km</desc>
<time>2010-03-03T16:33:02.85</time>
<name>2150</name>
</trkpt>
<trkpt lat="48.940715" lon="8.688487">
<ele>390.0</ele>
<speed>6.3</speed>
<course>264.2</course>
<desc>Speed 6.3 km/h Distance 3.55 km</desc>
<time>2010-03-03T16:33:03.85</time>
<name>2151</name>
</trkpt>
<trkpt lat="48.940713" lon="8.688462">
<ele>389.5</ele>
<speed>6.5</speed>
<course>270.0</course>
<desc>Speed 6.5 km/h Distance 3.55 km</desc>
<time>2010-03-03T16:33:04.84</time>
<name>2152</name>
</trkpt>
<trkpt lat="48.940713" lon="8.688437">
<ele>390.0</ele>
<speed>6.7</speed>
<course>276.2</course>
<desc>Speed 6.7 km/h Distance 3.55 km</desc>
<time>2010-03-03T16:33:05.84</time>
<name>2153</name>
</trkpt>
<trkpt lat="48.940715" lon="8.688413">
<ele>390.0</ele>
<speed>6.1</speed>
<course>270.0</course>
<desc>Speed 6.1 km/h Distance 3.55 km</desc>
<time>2010-03-03T16:33:06.83</time>
<name>2154</name>
</trkpt>
<trkpt lat="48.940715" lon="8.688390">
<ele>390.0</ele>
<speed>6.0</speed>
<course>276.2</course>
<desc>Speed 6.0 km/h Distance 3.56 km</desc>
<time>2010-03-03T16:33:07.83</time>
<name>2155</name>
</trkpt>
<trkpt lat="48.940717" lon="8.688367">
<ele>390.0</ele>
<speed>6.3</speed>
<course>275.8</course>
<desc>Speed 6.3 km/h Distance 3.56 km</desc>
<time>2010-03-03T16:33:08.84</time>
<name>2156</name>
</trkpt>
<trkpt lat="48.940718" lon="8.688342">
<ele>390.0</ele>
<speed>6.4</speed>
<course>270.0</course>
<desc>Speed 6.4 km/h Distance 3.56 km</desc>
<time>2010-03-03T16:33:09.85</time>
<name>2157</name>
</trkpt>
<trkpt lat="48.940718" lon="8.688318">
<ele>390.5</ele>
<speed>6.2</speed>
<course>276.2</course>
<desc>Speed 6.2 km/h Distance 3.56 km</desc>
<time>2010-03-03T16:33:10.84</time>
<name>2158</name>
</trkpt>
<trkpt lat="48.940720" lon="8.688295">
<ele>390.5</ele>
<speed>6.2</speed>
<course>270.0</course>
<desc>Speed 6.2 km/h Distance 3.56 km</desc>
<time>2010-03-03T16:33:11.83</time>
<name>2159</name>
</trkpt>
<trkpt lat="48.940720" lon="8.688272">
<ele>390.0</ele>
<speed>6.0</speed>
<course>276.2</course>
<desc>Speed 6.0 km/h Distance 3.57 km</desc>
<time>2010-03-03T16:33:12.83</time>
<name>2160</name>
</trkpt>
<trkpt lat="48.940722" lon="8.688248">
<ele>390.0</ele>
<speed>5.9</speed>
<course>275.8</course>
<desc>Speed 5.9 km/h Distance 3.57 km</desc>
<time>2010-03-03T16:33:13.83</time>
<name>2161</name>
</trkpt>
<trkpt lat="48.940723" lon="8.688223">
<ele>390.0</ele>
<speed>6.4</speed>
<course>270.0</course>
<desc>Speed 6.4 km/h Distance 3.57 km</desc>
<time>2010-03-03T16:33:14.83</time>
<name>2162</name>
</trkpt>
<trkpt lat="48.940723" lon="8.688198">
<ele>390.0</ele>
<speed>6.4</speed>
<course>270.0</course>
<desc>Speed 6.4 km/h Distance 3.57 km</desc>
<time>2010-03-03T16:33:15.83</time>
<name>2163</name>
</trkpt>
<trkpt lat="48.940723" lon="8.688175">
<ele>390.0</ele>
<speed>6.2</speed>
<course>270.0</course>
<desc>Speed 6.2 km/h Distance 3.57 km</desc>
<time>2010-03-03T16:33:16.83</time>
<name>2164</name>
</trkpt>
<trkpt lat="48.940723" lon="8.688150">
<ele>390.0</ele>
<speed>6.0</speed>
<course>270.0</course>
<desc>Speed 6.0 km/h Distance 3.57 km</desc>
<time>2010-03-03T16:33:17.98</time>
<name>2165</name>
</trkpt>
<trkpt lat="48.940723" lon="8.688125">
<ele>390.5</ele>
<speed>6.0</speed>
<course>276.2</course>
<desc>Speed 6.0 km/h Distance 3.58 km</desc>
<time>2010-03-03T16:33:18.97</time>
<name>2166</name>
</trkpt>
<trkpt lat="48.940725" lon="8.688102">
<ele>390.5</ele>
<speed>6.0</speed>
<course>270.0</course>
<desc>Speed 6.0 km/h Distance 3.58 km</desc>
<time>2010-03-03T16:33:19.83</time>
<name>2167</name>
</trkpt>
<trkpt lat="48.940725" lon="8.688078">
<ele>390.5</ele>
<speed>6.0</speed>
<course>276.2</course>
<desc>Speed 6.0 km/h Distance 3.58 km</desc>
<time>2010-03-03T16:33:20.83</time>
<name>2168</name>
</trkpt>
<trkpt lat="48.940727" lon="8.688055">
<ele>391.0</ele>
<speed>6.1</speed>
<course>270.0</course>
<desc>Speed 6.1 km/h Distance 3.58 km</desc>
<time>2010-03-03T16:33:21.83</time>
<name>2169</name>
</trkpt>
<trkpt lat="48.940727" lon="8.688030">
<ele>391.0</ele>
<speed>6.3</speed>
<course>275.8</course>
<desc>Speed 6.3 km/h Distance 3.58 km</desc>
<time>2010-03-03T16:33:22.83</time>
<name>2170</name>
</trkpt>
<trkpt lat="48.940728" lon="8.688005">
<ele>391.5</ele>
<speed>6.3</speed>
<course>276.7</course>
<desc>Speed 6.3 km/h Distance 3.58 km</desc>
<time>2010-03-03T16:33:23.83</time>
<name>2171</name>
</trkpt>
<trkpt lat="48.940730" lon="8.687983">
<ele>391.5</ele>
<speed>5.8</speed>
<course>270.0</course>
<desc>Speed 5.8 km/h Distance 3.59 km</desc>
<time>2010-03-03T16:33:24.83</time>
<name>2172</name>
</trkpt>
<trkpt lat="48.940730" lon="8.687960">
<ele>391.5</ele>
<speed>6.0</speed>
<course>275.8</course>
<desc>Speed 6.0 km/h Distance 3.59 km</desc>
<time>2010-03-03T16:33:25.83</time>
<name>2173</name>
</trkpt>
<trkpt lat="48.940732" lon="8.687935">
<ele>391.5</ele>
<speed>6.2</speed>
<course>270.0</course>
<desc>Speed 6.2 km/h Distance 3.59 km</desc>
<time>2010-03-03T16:33:26.83</time>
<name>2174</name>
</trkpt>
<trkpt lat="48.940732" lon="8.687910">
<ele>392.0</ele>
<speed>6.2</speed>
<course>270.0</course>
<desc>Speed 6.2 km/h Distance 3.59 km</desc>
<time>2010-03-03T16:33:27.83</time>
<name>2175</name>
</trkpt>
<trkpt lat="48.940732" lon="8.687887">
<ele>392.0</ele>
<speed>5.8</speed>
<course>270.0</course>
<desc>Speed 5.8 km/h Distance 3.59 km</desc>
<time>2010-03-03T16:33:28.83</time>
<name>2176</name>
</trkpt>
<trkpt lat="48.940732" lon="8.687862">
<ele>392.5</ele>
<speed>6.2</speed>
<course>276.2</course>
<desc>Speed 6.2 km/h Distance 3.60 km</desc>
<time>2010-03-03T16:33:29.82</time>
<name>2177</name>
</trkpt>
<trkpt lat="48.940733" lon="8.687838">
<ele>393.0</ele>
<speed>6.2</speed>
<course>270.0</course>
<desc>Speed 6.2 km/h Distance 3.60 km</desc>
<time>2010-03-03T16:33:30.82</time>
<name>2178</name>
</trkpt>
<trkpt lat="48.940733" lon="8.687813">
<ele>393.0</ele>
<speed>6.3</speed>
<course>270.0</course>
<desc>Speed 6.3 km/h Distance 3.60 km</desc>
<time>2010-03-03T16:33:31.82</time>
<name>2179</name>
</trkpt>
<trkpt lat="48.940733" lon="8.687788">
<ele>393.5</ele>
<speed>6.1</speed>
<course>276.2</course>
<desc>Speed 6.1 km/h Distance 3.60 km</desc>
<time>2010-03-03T16:33:32.82</time>
<name>2180</name>
</trkpt>
<trkpt lat="48.940735" lon="8.687765">
<ele>394.0</ele>
<speed>5.8</speed>
<course>270.0</course>
<desc>Speed 5.8 km/h Distance 3.60 km</desc>
<time>2010-03-03T16:33:33.83</time>
<name>2181</name>
</trkpt>
<trkpt lat="48.940735" lon="8.687742">
<ele>394.0</ele>
<speed>5.8</speed>
<course>270.0</course>
<desc>Speed 5.8 km/h Distance 3.60 km</desc>
<time>2010-03-03T16:33:34.82</time>
<name>2182</name>
</trkpt>
<trkpt lat="48.940735" lon="8.687720">
<ele>394.0</ele>
<speed>5.6</speed>
<course>276.2</course>
<desc>Speed 5.6 km/h Distance 3.61 km</desc>
<time>2010-03-03T16:33:35.82</time>
<name>2183</name>
</trkpt>
<trkpt lat="48.940737" lon="8.687697">
<ele>394.0</ele>
<speed>5.9</speed>
<course>283.2</course>
<desc>Speed 5.9 km/h Distance 3.61 km</desc>
<time>2010-03-03T16:33:36.82</time>
<name>2184</name>
</trkpt>
<trkpt lat="48.940740" lon="8.687675">
<ele>394.0</ele>
<speed>5.7</speed>
<course>276.7</course>
<desc>Speed 5.7 km/h Distance 3.61 km</desc>
<time>2010-03-03T16:33:37.82</time>
<name>2185</name>
</trkpt>
<trkpt lat="48.940742" lon="8.687653">
<ele>394.0</ele>
<speed>5.5</speed>
<course>276.7</course>
<desc>Speed 5.5 km/h Distance 3.61 km</desc>
<time>2010-03-03T16:33:38.82</time>
<name>2186</name>
</trkpt>
<trkpt lat="48.940743" lon="8.687632">
<ele>394.0</ele>
<speed>5.8</speed>
<course>270.0</course>
<desc>Speed 5.8 km/h Distance 3.61 km</desc>
<time>2010-03-03T16:33:39.82</time>
<name>2187</name>
</trkpt>
<trkpt lat="48.940743" lon="8.687607">
<ele>394.0</ele>
<speed>6.4</speed>
<course>276.2</course>
<desc>Speed 6.4 km/h Distance 3.61 km</desc>
<time>2010-03-03T16:33:40.82</time>
<name>2188</name>
</trkpt>
<trkpt lat="48.940745" lon="8.687583">
<ele>394.0</ele>
<speed>5.9</speed>
<course>276.7</course>
<desc>Speed 5.9 km/h Distance 3.62 km</desc>
<time>2010-03-03T16:33:41.82</time>
<name>2189</name>
</trkpt>
<trkpt lat="48.940747" lon="8.687562">
<ele>394.5</ele>
<speed>5.5</speed>
<course>277.2</course>
<desc>Speed 5.5 km/h Distance 3.62 km</desc>
<time>2010-03-03T16:33:42.82</time>
<name>2190</name>
</trkpt>
<trkpt lat="48.940748" lon="8.687542">
<ele>394.0</ele>
<speed>5.4</speed>
<course>257.7</course>
<desc>Speed 5.4 km/h Distance 3.62 km</desc>
<time>2010-03-03T16:33:43.83</time>
<name>2191</name>
</trkpt>
<trkpt lat="48.940745" lon="8.687518">
<ele>394.5</ele>
<speed>6.0</speed>
<course>263.3</course>
<desc>Speed 6.0 km/h Distance 3.62 km</desc>
<time>2010-03-03T16:33:44.83</time>
<name>2192</name>
</trkpt>
<trkpt lat="48.940743" lon="8.687497">
<ele>394.5</ele>
<speed>5.8</speed>
<course>250.6</course>
<desc>Speed 5.8 km/h Distance 3.62 km</desc>
<time>2010-03-03T16:33:45.82</time>
<name>2193</name>
</trkpt>
<trkpt lat="48.940738" lon="8.687475">
<ele>394.5</ele>
<speed>5.9</speed>
<course>262.8</course>
<desc>Speed 5.9 km/h Distance 3.62 km</desc>
<time>2010-03-03T16:33:46.82</time>
<name>2194</name>
</trkpt>
<trkpt lat="48.940737" lon="8.687455">
<ele>394.5</ele>
<speed>5.2</speed>
<course>284.2</course>
<desc>Speed 5.2 km/h Distance 3.63 km</desc>
<time>2010-03-03T16:33:47.82</time>
<name>2195</name>
</trkpt>
<trkpt lat="48.940740" lon="8.687435">
<ele>394.5</ele>
<speed>5.4</speed>
<course>290.9</course>
<desc>Speed 5.4 km/h Distance 3.63 km</desc>
<time>2010-03-03T16:33:48.82</time>
<name>2196</name>
</trkpt>
<trkpt lat="48.940745" lon="8.687415">
<ele>394.5</ele>
<speed>5.2</speed>
<course>290.8</course>
<desc>Speed 5.2 km/h Distance 3.63 km</desc>
<time>2010-03-03T16:33:49.81</time>
<name>2197</name>
</trkpt>
<trkpt lat="48.940750" lon="8.687395">
<ele>394.5</ele>
<speed>5.5</speed>
<course>289.4</course>
<desc>Speed 5.5 km/h Distance 3.63 km</desc>
<time>2010-03-03T16:33:50.81</time>
<name>2198</name>
</trkpt>
<trkpt lat="48.940755" lon="8.687373">
<ele>394.5</ele>
<speed>6.0</speed>
<course>289.4</course>
<desc>Speed 6.0 km/h Distance 3.63 km</desc>
<time>2010-03-03T16:33:51.81</time>
<name>2199</name>
</trkpt>
<trkpt lat="48.940760" lon="8.687352">
<ele>395.0</ele>
<speed>5.8</speed>
<course>283.2</course>
<desc>Speed 5.8 km/h Distance 3.63 km</desc>
<time>2010-03-03T16:33:52.81</time>
<name>2200</name>
</trkpt>
<trkpt lat="48.940763" lon="8.687330">
<ele>395.0</ele>
<speed>5.7</speed>
<course>276.7</course>
<desc>Speed 5.7 km/h Distance 3.63 km</desc>
<time>2010-03-03T16:33:53.81</time>
<name>2201</name>
</trkpt>
<trkpt lat="48.940765" lon="8.687308">
<ele>395.0</ele>
<speed>6.0</speed>
<course>270.0</course>
<desc>Speed 6.0 km/h Distance 3.64 km</desc>
<time>2010-03-03T16:33:54.81</time>
<name>2202</name>
</trkpt>
<trkpt lat="48.940765" lon="8.687285">
<ele>395.0</ele>
<speed>6.2</speed>
<course>270.0</course>
<desc>Speed 6.2 km/h Distance 3.64 km</desc>
<time>2010-03-03T16:33:55.81</time>
<name>2203</name>
</trkpt>
<trkpt lat="48.940765" lon="8.687262">
<ele>395.0</ele>
<speed>6.4</speed>
<course>275.8</course>
<desc>Speed 6.4 km/h Distance 3.64 km</desc>
<time>2010-03-03T16:33:56.81</time>
<name>2204</name>
</trkpt>
<trkpt lat="48.940767" lon="8.687237">
<ele>395.5</ele>
<speed>6.5</speed>
<course>282.3</course>
<desc>Speed 6.5 km/h Distance 3.64 km</desc>
<time>2010-03-03T16:33:57.81</time>
<name>2205</name>
</trkpt>
<trkpt lat="48.940770" lon="8.687213">
<ele>395.5</ele>
<speed>6.2</speed>
<course>288.1</course>
<desc>Speed 6.2 km/h Distance 3.64 km</desc>
<time>2010-03-03T16:33:58.81</time>
<name>2206</name>
</trkpt>
<trkpt lat="48.940775" lon="8.687190">
<ele>395.5</ele>
<speed>6.4</speed>
<course>283.2</course>
<desc>Speed 6.4 km/h Distance 3.65 km</desc>
<time>2010-03-03T16:33:59.82</time>
<name>2207</name>
</trkpt>
<trkpt lat="48.940778" lon="8.687168">
<ele>395.5</ele>
<speed>6.0</speed>
<course>276.7</course>
<desc>Speed 6.0 km/h Distance 3.65 km</desc>
<time>2010-03-03T16:34:00.81</time>
<name>2208</name>
</trkpt>
<trkpt lat="48.940780" lon="8.687147">
<ele>395.5</ele>
<speed>5.7</speed>
<course>276.2</course>
<desc>Speed 5.7 km/h Distance 3.65 km</desc>
<time>2010-03-03T16:34:01.81</time>
<name>2209</name>
</trkpt>
<trkpt lat="48.940782" lon="8.687123">
<ele>395.5</ele>
<speed>6.2</speed>
<course>275.8</course>
<desc>Speed 6.2 km/h Distance 3.65 km</desc>
<time>2010-03-03T16:34:02.81</time>
<name>2210</name>
</trkpt>
<trkpt lat="48.940783" lon="8.687098">
<ele>395.5</ele>
<speed>6.3</speed>
<course>276.7</course>
<desc>Speed 6.3 km/h Distance 3.65 km</desc>
<time>2010-03-03T16:34:03.81</time>
<name>2211</name>
</trkpt>
<trkpt lat="48.940785" lon="8.687077">
<ele>395.0</ele>
<speed>6.2</speed>
<course>276.2</course>
<desc>Speed 6.2 km/h Distance 3.65 km</desc>
<time>2010-03-03T16:34:04.81</time>
<name>2212</name>
</trkpt>
<trkpt lat="48.940787" lon="8.687053">
<ele>395.5</ele>
<speed>5.9</speed>
<course>270.0</course>
<desc>Speed 5.9 km/h Distance 3.66 km</desc>
<time>2010-03-03T16:34:05.81</time>
<name>2213</name>
</trkpt>
<trkpt lat="48.940787" lon="8.687030">
<ele>395.5</ele>
<speed>5.9</speed>
<course>276.2</course>
<desc>Speed 5.9 km/h Distance 3.66 km</desc>
<time>2010-03-03T16:34:06.81</time>
<name>2214</name>
</trkpt>
<trkpt lat="48.940788" lon="8.687007">
<ele>395.0</ele>
<speed>5.9</speed>
<course>276.7</course>
<desc>Speed 5.9 km/h Distance 3.66 km</desc>
<time>2010-03-03T16:34:07.80</time>
<name>2215</name>
</trkpt>
<trkpt lat="48.940790" lon="8.686985">
<ele>395.0</ele>
<speed>5.9</speed>
<course>283.2</course>
<desc>Speed 5.9 km/h Distance 3.66 km</desc>
<time>2010-03-03T16:34:08.80</time>
<name>2216</name>
</trkpt>
<trkpt lat="48.940793" lon="8.686963">
<ele>395.0</ele>
<speed>5.8</speed>
<course>276.2</course>
<desc>Speed 5.8 km/h Distance 3.66 km</desc>
<time>2010-03-03T16:34:09.81</time>
<name>2217</name>
</trkpt>
<trkpt lat="48.940795" lon="8.686940">
<ele>394.5</ele>
<speed>6.0</speed>
<course>275.8</course>
<desc>Speed 6.0 km/h Distance 3.66 km</desc>
<time>2010-03-03T16:34:10.80</time>
<name>2218</name>
</trkpt>
<trkpt lat="48.940797" lon="8.686915">
<ele>394.5</ele>
<speed>6.1</speed>
<course>276.2</course>
<desc>Speed 6.1 km/h Distance 3.67 km</desc>
<time>2010-03-03T16:34:11.81</time>
<name>2219</name>
</trkpt>
<trkpt lat="48.940798" lon="8.686892">
<ele>394.5</ele>
<speed>6.3</speed>
<course>282.3</course>
<desc>Speed 6.3 km/h Distance 3.67 km</desc>
<time>2010-03-03T16:34:12.80</time>
<name>2220</name>
</trkpt>
<trkpt lat="48.940802" lon="8.686868">
<ele>394.5</ele>
<speed>6.1</speed>
<course>276.7</course>
<desc>Speed 6.1 km/h Distance 3.67 km</desc>
<time>2010-03-03T16:34:13.80</time>
<name>2221</name>
</trkpt>
<trkpt lat="48.940803" lon="8.686847">
<ele>394.0</ele>
<speed>5.8</speed>
<course>282.3</course>
<desc>Speed 5.8 km/h Distance 3.67 km</desc>
<time>2010-03-03T16:34:14.80</time>
<name>2222</name>
</trkpt>
<trkpt lat="48.940807" lon="8.686823">
<ele>394.0</ele>
<speed>6.1</speed>
<course>276.7</course>
<desc>Speed 6.1 km/h Distance 3.67 km</desc>
<time>2010-03-03T16:34:15.81</time>
<name>2223</name>
</trkpt>
<trkpt lat="48.940808" lon="8.686802">
<ele>394.0</ele>
<speed>5.9</speed>
<course>270.0</course>
<desc>Speed 5.9 km/h Distance 3.67 km</desc>
<time>2010-03-03T16:34:16.81</time>
<name>2224</name>
</trkpt>
<trkpt lat="48.940808" lon="8.686777">
<ele>394.0</ele>
<speed>6.1</speed>
<course>276.2</course>
<desc>Speed 6.1 km/h Distance 3.68 km</desc>
<time>2010-03-03T16:34:17.80</time>
<name>2225</name>
</trkpt>
<trkpt lat="48.940810" lon="8.686753">
<ele>394.0</ele>
<speed>6.2</speed>
<course>276.2</course>
<desc>Speed 6.2 km/h Distance 3.68 km</desc>
<time>2010-03-03T16:34:18.80</time>
<name>2226</name>
</trkpt>
<trkpt lat="48.940812" lon="8.686730">
<ele>394.0</ele>
<speed>6.2</speed>
<course>290.8</course>
<desc>Speed 6.2 km/h Distance 3.68 km</desc>
<time>2010-03-03T16:34:19.80</time>
<name>2227</name>
</trkpt>
<trkpt lat="48.940817" lon="8.686710">
<ele>393.5</ele>
<speed>6.2</speed>
<course>289.3</course>
<desc>Speed 6.2 km/h Distance 3.68 km</desc>
<time>2010-03-03T16:34:20.80</time>
<name>2228</name>
</trkpt>
<trkpt lat="48.940822" lon="8.686688">
<ele>393.5</ele>
<speed>6.1</speed>
<course>302.4</course>
<desc>Speed 6.1 km/h Distance 3.68 km</desc>
<time>2010-03-03T16:34:21.80</time>
<name>2229</name>
</trkpt>
<trkpt lat="48.940830" lon="8.686668">
<ele>394.0</ele>
<speed>6.1</speed>
<course>312.5</course>
<desc>Speed 6.1 km/h Distance 3.68 km</desc>
<time>2010-03-03T16:34:22.80</time>
<name>2230</name>
</trkpt>
<trkpt lat="48.940840" lon="8.686652">
<ele>393.5</ele>
<speed>5.9</speed>
<course>326.7</course>
<desc>Speed 5.9 km/h Distance 3.69 km</desc>
<time>2010-03-03T16:34:23.80</time>
<name>2231</name>
</trkpt>
<trkpt lat="48.940853" lon="8.686638">
<ele>393.5</ele>
<speed>6.0</speed>
<course>333.8</course>
<desc>Speed 6.0 km/h Distance 3.69 km</desc>
<time>2010-03-03T16:34:24.80</time>
<name>2232</name>
</trkpt>
<trkpt lat="48.940867" lon="8.686628">
<ele>394.0</ele>
<speed>5.9</speed>
<course>337.7</course>
<desc>Speed 5.9 km/h Distance 3.69 km</desc>
<time>2010-03-03T16:34:25.80</time>
<name>2233</name>
</trkpt>
<trkpt lat="48.940880" lon="8.686620">
<ele>394.0</ele>
<speed>6.0</speed>
<course>347.4</course>
<desc>Speed 6.0 km/h Distance 3.69 km</desc>
<time>2010-03-03T16:34:26.80</time>
<name>2234</name>
</trkpt>
<trkpt lat="48.940895" lon="8.686615">
<ele>394.0</ele>
<speed>6.0</speed>
<course>347.4</course>
<desc>Speed 6.0 km/h Distance 3.69 km</desc>
<time>2010-03-03T16:34:27.79</time>
<name>2235</name>
</trkpt>
<trkpt lat="48.940910" lon="8.686610">
<ele>394.5</ele>
<speed>6.3</speed>
<course>351.2</course>
<desc>Speed 6.3 km/h Distance 3.69 km</desc>
<time>2010-03-03T16:34:28.79</time>
<name>2236</name>
</trkpt>
<trkpt lat="48.940925" lon="8.686607">
<ele>395.0</ele>
<speed>5.8</speed>
<course>1.2</course>
<desc>Speed 5.8 km/h Distance 3.70 km</desc>
<time>2010-03-03T16:34:29.79</time>
<name>2237</name>
</trkpt>
<trkpt lat="48.940938" lon="8.686607">
<ele>395.0</ele>
<speed>5.0</speed>
<course>10.4</course>
<desc>Speed 5.0 km/h Distance 3.70 km</desc>
<time>2010-03-03T16:34:30.79</time>
<name>2238</name>
</trkpt>
<trkpt lat="48.940950" lon="8.686610">
<ele>395.0</ele>
<speed>4.9</speed>
<course>4.7</course>
<desc>Speed 4.9 km/h Distance 3.70 km</desc>
<time>2010-03-03T16:34:31.79</time>
<name>2239</name>
</trkpt>
<trkpt lat="48.940962" lon="8.686610">
<ele>396.0</ele>
<speed>4.6</speed>
<course>9.7</course>
<desc>Speed 4.6 km/h Distance 3.70 km</desc>
<time>2010-03-03T16:34:32.80</time>
<name>2240</name>
</trkpt>
<trkpt lat="48.940975" lon="8.686613">
<ele>396.5</ele>
<speed>5.2</speed>
<course>28.6</course>
<desc>Speed 5.2 km/h Distance 3.70 km</desc>
<time>2010-03-03T16:34:33.79</time>
<name>2241</name>
</trkpt>
<trkpt lat="48.940985" lon="8.686622">
<ele>397.0</ele>
<speed>4.7</speed>
<course>33.2</course>
<desc>Speed 4.7 km/h Distance 3.70 km</desc>
<time>2010-03-03T16:34:34.80</time>
<name>2242</name>
</trkpt>
<trkpt lat="48.940995" lon="8.686632">
<ele>397.0</ele>
<speed>5.1</speed>
<course>33.2</course>
<desc>Speed 5.1 km/h Distance 3.70 km</desc>
<time>2010-03-03T16:34:35.79</time>
<name>2243</name>
</trkpt>
<trkpt lat="48.941005" lon="8.686642">
<ele>397.5</ele>
<speed>4.8</speed>
<course>52.7</course>
<desc>Speed 4.8 km/h Distance 3.71 km</desc>
<time>2010-03-03T16:34:36.79</time>
<name>2244</name>
</trkpt>
<trkpt lat="48.941012" lon="8.686655">
<ele>398.5</ele>
<speed>5.1</speed>
<course>42.6</course>
<desc>Speed 5.1 km/h Distance 3.71 km</desc>
<time>2010-03-03T16:34:37.79</time>
<name>2245</name>
</trkpt>
<trkpt lat="48.941020" lon="8.686667">
<ele>399.0</ele>
<speed>5.2</speed>
<course>33.4</course>
<desc>Speed 5.2 km/h Distance 3.71 km</desc>
<time>2010-03-03T16:34:38.79</time>
<name>2246</name>
</trkpt>
<trkpt lat="48.941030" lon="8.686677">
<ele>399.5</ele>
<speed>5.4</speed>
<course>53.0</course>
<desc>Speed 5.4 km/h Distance 3.71 km</desc>
<time>2010-03-03T16:34:39.79</time>
<name>2247</name>
</trkpt>
<trkpt lat="48.941037" lon="8.686690">
<ele>399.5</ele>
<speed>4.9</speed>
<course>52.7</course>
<desc>Speed 4.9 km/h Distance 3.71 km</desc>
<time>2010-03-03T16:34:40.79</time>
<name>2248</name>
</trkpt>
<trkpt lat="48.941045" lon="8.686707">
<ele>399.5</ele>
<speed>5.3</speed>
<course>42.6</course>
<desc>Speed 5.3 km/h Distance 3.71 km</desc>
<time>2010-03-03T16:34:41.79</time>
<name>2249</name>
</trkpt>
<trkpt lat="48.941053" lon="8.686718">
<ele>399.5</ele>
<speed>5.2</speed>
<course>33.3</course>
<desc>Speed 5.2 km/h Distance 3.71 km</desc>
<time>2010-03-03T16:34:42.79</time>
<name>2250</name>
</trkpt>
<trkpt lat="48.941065" lon="8.686730">
<ele>399.0</ele>
<speed>5.2</speed>
<course>42.5</course>
<desc>Speed 5.2 km/h Distance 3.71 km</desc>
<time>2010-03-03T16:34:43.79</time>
<name>2251</name>
</trkpt>
<trkpt lat="48.941073" lon="8.686742">
<ele>399.0</ele>
<speed>4.6</speed>
<course>47.6</course>
<desc>Speed 4.6 km/h Distance 3.72 km</desc>
<time>2010-03-03T16:34:44.79</time>
<name>2252</name>
</trkpt>
<trkpt lat="48.941083" lon="8.686758">
<ele>397.5</ele>
<speed>5.8</speed>
<course>47.6</course>
<desc>Speed 5.8 km/h Distance 3.72 km</desc>
<time>2010-03-03T16:34:45.79</time>
<name>2253</name>
</trkpt>
<trkpt lat="48.941093" lon="8.686775">
<ele>396.5</ele>
<speed>6.0</speed>
<course>37.3</course>
<desc>Speed 6.0 km/h Distance 3.72 km</desc>
<time>2010-03-03T16:34:46.78</time>
<name>2254</name>
</trkpt>
<trkpt lat="48.941103" lon="8.686787">
<ele>397.0</ele>
<speed>4.8</speed>
<course>44.5</course>
<desc>Speed 4.8 km/h Distance 3.72 km</desc>
<time>2010-03-03T16:34:47.78</time>
<name>2255</name>
</trkpt>
<trkpt lat="48.941113" lon="8.686802">
<ele>396.5</ele>
<speed>4.9</speed>
<course>41.2</course>
<desc>Speed 4.9 km/h Distance 3.72 km</desc>
<time>2010-03-03T16:34:48.78</time>
<name>2256</name>
</trkpt>
<trkpt lat="48.941123" lon="8.686815">
<ele>396.0</ele>
<speed>4.8</speed>
<course>43.2</course>
<desc>Speed 4.8 km/h Distance 3.72 km</desc>
<time>2010-03-03T16:34:49.78</time>
<name>2257</name>
</trkpt>
<trkpt lat="48.941135" lon="8.686832">
<ele>395.5</ele>
<speed>5.7</speed>
<course>40.3</course>
<desc>Speed 5.7 km/h Distance 3.73 km</desc>
<time>2010-03-03T16:34:50.78</time>
<name>2258</name>
</trkpt>
<trkpt lat="48.941147" lon="8.686847">
<ele>395.0</ele>
<speed>5.6</speed>
<course>42.6</course>
<desc>Speed 5.6 km/h Distance 3.73 km</desc>
<time>2010-03-03T16:34:51.78</time>
<name>2259</name>
</trkpt>
<trkpt lat="48.941155" lon="8.686858">
<ele>395.0</ele>
<speed>4.3</speed>
<course>36.9</course>
<desc>Speed 4.3 km/h Distance 3.73 km</desc>
<time>2010-03-03T16:34:52.79</time>
<name>2260</name>
</trkpt>
<trkpt lat="48.941167" lon="8.686872">
<ele>394.5</ele>
<speed>5.7</speed>
<course>40.2</course>
<desc>Speed 5.7 km/h Distance 3.73 km</desc>
<time>2010-03-03T16:34:53.79</time>
<name>2261</name>
</trkpt>
<trkpt lat="48.941178" lon="8.686887">
<ele>394.5</ele>
<speed>5.5</speed>
<course>44.5</course>
<desc>Speed 5.5 km/h Distance 3.73 km</desc>
<time>2010-03-03T16:34:54.78</time>
<name>2262</name>
</trkpt>
<trkpt lat="48.941188" lon="8.686902">
<ele>394.0</ele>
<speed>5.4</speed>
<course>33.1</course>
<desc>Speed 5.4 km/h Distance 3.73 km</desc>
<time>2010-03-03T16:34:55.79</time>
<name>2263</name>
</trkpt>
<trkpt lat="48.941200" lon="8.686913">
<ele>394.5</ele>
<speed>5.4</speed>
<course>33.3</course>
<desc>Speed 5.4 km/h Distance 3.74 km</desc>
<time>2010-03-03T16:34:56.78</time>
<name>2264</name>
</trkpt>
<trkpt lat="48.941212" lon="8.686925">
<ele>394.5</ele>
<speed>5.5</speed>
<course>33.3</course>
<desc>Speed 5.5 km/h Distance 3.74 km</desc>
<time>2010-03-03T16:34:57.78</time>
<name>2265</name>
</trkpt>
<trkpt lat="48.941225" lon="8.686938">
<ele>395.0</ele>
<speed>5.9</speed>
<course>37.5</course>
<desc>Speed 5.9 km/h Distance 3.74 km</desc>
<time>2010-03-03T16:34:58.78</time>
<name>2266</name>
</trkpt>
<trkpt lat="48.941235" lon="8.686950">
<ele>395.5</ele>
<speed>4.7</speed>
<course>42.6</course>
<desc>Speed 4.7 km/h Distance 3.74 km</desc>
<time>2010-03-03T16:34:59.79</time>
<name>2267</name>
</trkpt>
<trkpt lat="48.941243" lon="8.686962">
<ele>395.5</ele>
<speed>4.6</speed>
<course>33.3</course>
<desc>Speed 4.6 km/h Distance 3.74 km</desc>
<time>2010-03-03T16:35:00.78</time>
<name>2268</name>
</trkpt>
<trkpt lat="48.941255" lon="8.686973">
<ele>396.0</ele>
<speed>4.8</speed>
<course>37.5</course>
<desc>Speed 4.8 km/h Distance 3.74 km</desc>
<time>2010-03-03T16:35:01.78</time>
<name>2269</name>
</trkpt>
<trkpt lat="48.941265" lon="8.686985">
<ele>395.5</ele>
<speed>4.9</speed>
<course>52.7</course>
<desc>Speed 4.9 km/h Distance 3.74 km</desc>
<time>2010-03-03T16:35:02.78</time>
<name>2270</name>
</trkpt>
<trkpt lat="48.941273" lon="8.687002">
<ele>395.5</ele>
<speed>5.1</speed>
<course>41.2</course>
<desc>Speed 5.1 km/h Distance 3.75 km</desc>
<time>2010-03-03T16:35:03.79</time>
<name>2271</name>
</trkpt>
<trkpt lat="48.941283" lon="8.687015">
<ele>395.5</ele>
<speed>5.0</speed>
<course>29.8</course>
<desc>Speed 5.0 km/h Distance 3.75 km</desc>
<time>2010-03-03T16:35:04.78</time>
<name>2272</name>
</trkpt>
<trkpt lat="48.941297" lon="8.687027">
<ele>395.5</ele>
<speed>5.7</speed>
<course>36.9</course>
<desc>Speed 5.7 km/h Distance 3.75 km</desc>
<time>2010-03-03T16:35:05.77</time>
<name>2273</name>
</trkpt>
<trkpt lat="48.941308" lon="8.687040">
<ele>395.5</ele>
<speed>5.4</speed>
<course>29.8</course>
<desc>Speed 5.4 km/h Distance 3.75 km</desc>
<time>2010-03-03T16:35:06.77</time>
<name>2274</name>
</trkpt>
<trkpt lat="48.941322" lon="8.687052">
<ele>395.5</ele>
<speed>5.6</speed>
<course>33.4</course>
<desc>Speed 5.6 km/h Distance 3.75 km</desc>
<time>2010-03-03T16:35:07.77</time>
<name>2275</name>
</trkpt>
<trkpt lat="48.941333" lon="8.687063">
<ele>395.5</ele>
<speed>5.1</speed>
<course>41.2</course>
<desc>Speed 5.1 km/h Distance 3.75 km</desc>
<time>2010-03-03T16:35:08.77</time>
<name>2276</name>
</trkpt>
<trkpt lat="48.941343" lon="8.687077">
<ele>395.5</ele>
<speed>5.0</speed>
<course>36.9</course>
<desc>Speed 5.0 km/h Distance 3.76 km</desc>
<time>2010-03-03T16:35:09.78</time>
<name>2277</name>
</trkpt>
<trkpt lat="48.941355" lon="8.687090">
<ele>395.5</ele>
<speed>5.2</speed>
<course>33.3</course>
<desc>Speed 5.2 km/h Distance 3.76 km</desc>
<time>2010-03-03T16:35:10.77</time>
<name>2278</name>
</trkpt>
<trkpt lat="48.941367" lon="8.687102">
<ele>395.5</ele>
<speed>5.2</speed>
<course>29.8</course>
<desc>Speed 5.2 km/h Distance 3.76 km</desc>
<time>2010-03-03T16:35:11.77</time>
<name>2279</name>
</trkpt>
<trkpt lat="48.941380" lon="8.687113">
<ele>395.5</ele>
<speed>5.0</speed>
<course>33.2</course>
<desc>Speed 5.0 km/h Distance 3.76 km</desc>
<time>2010-03-03T16:35:12.77</time>
<name>2280</name>
</trkpt>
<trkpt lat="48.941393" lon="8.687127">
<ele>395.5</ele>
<speed>5.4</speed>
<course>41.2</course>
<desc>Speed 5.4 km/h Distance 3.76 km</desc>
<time>2010-03-03T16:35:13.77</time>
<name>2281</name>
</trkpt>
<trkpt lat="48.941403" lon="8.687140">
<ele>395.5</ele>
<speed>5.1</speed>
<course>36.9</course>
<desc>Speed 5.1 km/h Distance 3.76 km</desc>
<time>2010-03-03T16:35:14.78</time>
<name>2282</name>
</trkpt>
<trkpt lat="48.941415" lon="8.687153">
<ele>395.5</ele>
<speed>5.2</speed>
<course>36.9</course>
<desc>Speed 5.2 km/h Distance 3.76 km</desc>
<time>2010-03-03T16:35:15.77</time>
<name>2283</name>
</trkpt>
<trkpt lat="48.941427" lon="8.687167">
<ele>395.5</ele>
<speed>5.6</speed>
<course>43.3</course>
<desc>Speed 5.6 km/h Distance 3.77 km</desc>
<time>2010-03-03T16:35:16.77</time>
<name>2284</name>
</trkpt>
<trkpt lat="48.941438" lon="8.687183">
<ele>395.5</ele>
<speed>6.0</speed>
<course>46.0</course>
<desc>Speed 6.0 km/h Distance 3.77 km</desc>
<time>2010-03-03T16:35:17.77</time>
<name>2285</name>
</trkpt>
<trkpt lat="48.941450" lon="8.687202">
<ele>395.0</ele>
<speed>5.2</speed>
<course>52.7</course>
<desc>Speed 5.2 km/h Distance 3.77 km</desc>
<time>2010-03-03T16:35:18.77</time>
<name>2286</name>
</trkpt>
<trkpt lat="48.941458" lon="8.687218">
<ele>395.0</ele>
<speed>5.0</speed>
<course>50.3</course>
<desc>Speed 5.0 km/h Distance 3.77 km</desc>
<time>2010-03-03T16:35:19.77</time>
<name>2287</name>
</trkpt>
<trkpt lat="48.941468" lon="8.687237">
<ele>395.0</ele>
<speed>5.3</speed>
<course>43.1</course>
<desc>Speed 5.3 km/h Distance 3.77 km</desc>
<time>2010-03-03T16:35:20.77</time>
<name>2288</name>
</trkpt>
<trkpt lat="48.941480" lon="8.687253">
<ele>394.5</ele>
<speed>5.4</speed>
<course>43.3</course>
<desc>Speed 5.4 km/h Distance 3.78 km</desc>
<time>2010-03-03T16:35:21.76</time>
<name>2289</name>
</trkpt>
<trkpt lat="48.941492" lon="8.687270">
<ele>394.5</ele>
<speed>5.2</speed>
<course>55.3</course>
<desc>Speed 5.2 km/h Distance 3.78 km</desc>
<time>2010-03-03T16:35:22.77</time>
<name>2290</name>
</trkpt>
<trkpt lat="48.941500" lon="8.687288">
<ele>394.5</ele>
<speed>5.4</speed>
<course>43.3</course>
<desc>Speed 5.4 km/h Distance 3.78 km</desc>
<time>2010-03-03T16:35:23.77</time>
<name>2291</name>
</trkpt>
<trkpt lat="48.941512" lon="8.687305">
<ele>395.0</ele>
<speed>5.6</speed>
<course>63.1</course>
<desc>Speed 5.6 km/h Distance 3.78 km</desc>
<time>2010-03-03T16:35:24.76</time>
<name>2292</name>
</trkpt>
<trkpt lat="48.941518" lon="8.687325">
<ele>395.0</ele>
<speed>5.6</speed>
<course>66.5</course>
<desc>Speed 5.6 km/h Distance 3.78 km</desc>
<time>2010-03-03T16:35:25.76</time>
<name>2293</name>
</trkpt>
<trkpt lat="48.941525" lon="8.687348">
<ele>395.0</ele>
<speed>5.9</speed>
<course>58.7</course>
<desc>Speed 5.9 km/h Distance 3.78 km</desc>
<time>2010-03-03T16:35:26.76</time>
<name>2294</name>
</trkpt>
<trkpt lat="48.941532" lon="8.687365">
<ele>395.0</ele>
<speed>5.1</speed>
<course>59.7</course>
<desc>Speed 5.1 km/h Distance 3.79 km</desc>
<time>2010-03-03T16:35:27.76</time>
<name>2295</name>
</trkpt>
<trkpt lat="48.941540" lon="8.687387">
<ele>395.0</ele>
<speed>5.7</speed>
<course>57.6</course>
<desc>Speed 5.7 km/h Distance 3.79 km</desc>
<time>2010-03-03T16:35:28.76</time>
<name>2296</name>
</trkpt>
<trkpt lat="48.941548" lon="8.687407">
<ele>395.0</ele>
<speed>5.8</speed>
<course>57.6</course>
<desc>Speed 5.8 km/h Distance 3.79 km</desc>
<time>2010-03-03T16:35:29.76</time>
<name>2297</name>
</trkpt>
<trkpt lat="48.941557" lon="8.687427">
<ele>395.0</ele>
<speed>6.0</speed>
<course>66.5</course>
<desc>Speed 6.0 km/h Distance 3.79 km</desc>
<time>2010-03-03T16:35:30.77</time>
<name>2298</name>
</trkpt>
<trkpt lat="48.941563" lon="8.687450">
<ele>395.0</ele>
<speed>6.4</speed>
<course>59.7</course>
<desc>Speed 6.4 km/h Distance 3.79 km</desc>
<time>2010-03-03T16:35:31.76</time>
<name>2299</name>
</trkpt>
<trkpt lat="48.941572" lon="8.687472">
<ele>395.5</ele>
<speed>6.1</speed>
<course>58.7</course>
<desc>Speed 6.1 km/h Distance 3.79 km</desc>
<time>2010-03-03T16:35:32.77</time>
<name>2300</name>
</trkpt>
<trkpt lat="48.941578" lon="8.687488">
<ele>395.5</ele>
<speed>4.6</speed>
<course>49.9</course>
<desc>Speed 4.6 km/h Distance 3.80 km</desc>
<time>2010-03-03T16:35:33.76</time>
<name>2301</name>
</trkpt>
<trkpt lat="48.941587" lon="8.687503">
<ele>396.0</ele>
<speed>5.3</speed>
<course>63.1</course>
<desc>Speed 5.3 km/h Distance 3.80 km</desc>
<time>2010-03-03T16:35:34.77</time>
<name>2302</name>
</trkpt>
<trkpt lat="48.941593" lon="8.687523">
<ele>396.0</ele>
<speed>5.5</speed>
<course>59.6</course>
<desc>Speed 5.5 km/h Distance 3.80 km</desc>
<time>2010-03-03T16:35:35.76</time>
<name>2303</name>
</trkpt>
<trkpt lat="48.941602" lon="8.687545">
<ele>396.0</ele>
<speed>6.0</speed>
<course>69.2</course>
<desc>Speed 6.0 km/h Distance 3.80 km</desc>
<time>2010-03-03T16:35:36.76</time>
<name>2304</name>
</trkpt>
<trkpt lat="48.941607" lon="8.687565">
<ele>396.0</ele>
<speed>5.9</speed>
<course>64.9</course>
<desc>Speed 5.9 km/h Distance 3.80 km</desc>
<time>2010-03-03T16:35:37.76</time>
<name>2305</name>
</trkpt>
<trkpt lat="48.941613" lon="8.687587">
<ele>396.5</ele>
<speed>6.1</speed>
<course>69.2</course>
<desc>Speed 6.1 km/h Distance 3.80 km</desc>
<time>2010-03-03T16:35:38.76</time>
<name>2306</name>
</trkpt>
<trkpt lat="48.941618" lon="8.687607">
<ele>396.5</ele>
<speed>5.6</speed>
<course>64.9</course>
<desc>Speed 5.6 km/h Distance 3.81 km</desc>
<time>2010-03-03T16:35:39.75</time>
<name>2307</name>
</trkpt>
<trkpt lat="48.941625" lon="8.687628">
<ele>396.5</ele>
<speed>5.9</speed>
<course>64.9</course>
<desc>Speed 5.9 km/h Distance 3.81 km</desc>
<time>2010-03-03T16:35:40.75</time>
<name>2308</name>
</trkpt>
<trkpt lat="48.941632" lon="8.687650">
<ele>396.5</ele>
<speed>6.0</speed>
<course>57.6</course>
<desc>Speed 6.0 km/h Distance 3.81 km</desc>
<time>2010-03-03T16:35:41.76</time>
<name>2309</name>
</trkpt>
<trkpt lat="48.941640" lon="8.687670">
<ele>396.5</ele>
<speed>5.8</speed>
<course>63.1</course>
<desc>Speed 5.8 km/h Distance 3.81 km</desc>
<time>2010-03-03T16:35:42.75</time>
<name>2310</name>
</trkpt>
<trkpt lat="48.941647" lon="8.687690">
<ele>396.0</ele>
<speed>5.6</speed>
<course>57.6</course>
<desc>Speed 5.6 km/h Distance 3.81 km</desc>
<time>2010-03-03T16:35:43.75</time>
<name>2311</name>
</trkpt>
<trkpt lat="48.941655" lon="8.687710">
<ele>396.0</ele>
<speed>5.7</speed>
<course>64.9</course>
<desc>Speed 5.7 km/h Distance 3.81 km</desc>
<time>2010-03-03T16:35:44.75</time>
<name>2312</name>
</trkpt>
<trkpt lat="48.941662" lon="8.687732">
<ele>396.0</ele>
<speed>5.7</speed>
<course>67.4</course>
<desc>Speed 5.7 km/h Distance 3.82 km</desc>
<time>2010-03-03T16:35:45.75</time>
<name>2313</name>
</trkpt>
<trkpt lat="48.941667" lon="8.687750">
<ele>396.0</ele>
<speed>5.3</speed>
<course>71.9</course>
<desc>Speed 5.3 km/h Distance 3.82 km</desc>
<time>2010-03-03T16:35:46.75</time>
<name>2314</name>
</trkpt>
<trkpt lat="48.941672" lon="8.687773">
<ele>396.0</ele>
<speed>6.0</speed>
<course>69.2</course>
<desc>Speed 6.0 km/h Distance 3.82 km</desc>
<time>2010-03-03T16:35:47.76</time>
<name>2315</name>
</trkpt>
<trkpt lat="48.941677" lon="8.687793">
<ele>396.0</ele>
<speed>5.7</speed>
<course>69.1</course>
<desc>Speed 5.7 km/h Distance 3.82 km</desc>
<time>2010-03-03T16:35:48.76</time>
<name>2316</name>
</trkpt>
<trkpt lat="48.941682" lon="8.687813">
<ele>395.5</ele>
<speed>5.4</speed>
<course>63.1</course>
<desc>Speed 5.4 km/h Distance 3.82 km</desc>
<time>2010-03-03T16:35:49.75</time>
<name>2317</name>
</trkpt>
<trkpt lat="48.941688" lon="8.687833">
<ele>395.5</ele>
<speed>5.6</speed>
<course>55.3</course>
<desc>Speed 5.6 km/h Distance 3.82 km</desc>
<time>2010-03-03T16:35:50.75</time>
<name>2318</name>
</trkpt>
<trkpt lat="48.941697" lon="8.687852">
<ele>395.0</ele>
<speed>5.4</speed>
<course>52.7</course>
<desc>Speed 5.4 km/h Distance 3.83 km</desc>
<time>2010-03-03T16:35:51.76</time>
<name>2319</name>
</trkpt>
<trkpt lat="48.941707" lon="8.687872">
<ele>394.5</ele>
<speed>5.4</speed>
<course>55.3</course>
<desc>Speed 5.4 km/h Distance 3.83 km</desc>
<time>2010-03-03T16:35:52.75</time>
<name>2320</name>
</trkpt>
<trkpt lat="48.941715" lon="8.687890">
<ele>395.0</ele>
<speed>5.5</speed>
<course>64.9</course>
<desc>Speed 5.5 km/h Distance 3.83 km</desc>
<time>2010-03-03T16:35:53.75</time>
<name>2321</name>
</trkpt>
<trkpt lat="48.941722" lon="8.687912">
<ele>395.0</ele>
<speed>5.7</speed>
<course>48.4</course>
<desc>Speed 5.7 km/h Distance 3.83 km</desc>
<time>2010-03-03T16:35:54.75</time>
<name>2322</name>
</trkpt>
<trkpt lat="48.941733" lon="8.687932">
<ele>395.0</ele>
<speed>6.3</speed>
<course>57.6</course>
<desc>Speed 6.3 km/h Distance 3.83 km</desc>
<time>2010-03-03T16:35:55.75</time>
<name>2323</name>
</trkpt>
<trkpt lat="48.941742" lon="8.687952">
<ele>395.0</ele>
<speed>5.5</speed>
<course>61.0</course>
<desc>Speed 5.5 km/h Distance 3.83 km</desc>
<time>2010-03-03T16:35:56.75</time>
<name>2324</name>
</trkpt>
<trkpt lat="48.941748" lon="8.687970">
<ele>395.0</ele>
<speed>5.3</speed>
<course>57.6</course>
<desc>Speed 5.3 km/h Distance 3.84 km</desc>
<time>2010-03-03T16:35:57.75</time>
<name>2325</name>
</trkpt>
<trkpt lat="48.941757" lon="8.687990">
<ele>395.0</ele>
<speed>5.6</speed>
<course>61.0</course>
<desc>Speed 5.6 km/h Distance 3.84 km</desc>
<time>2010-03-03T16:35:58.75</time>
<name>2326</name>
</trkpt>
<trkpt lat="48.941763" lon="8.688008">
<ele>395.0</ele>
<speed>5.5</speed>
<course>61.0</course>
<desc>Speed 5.5 km/h Distance 3.84 km</desc>
<time>2010-03-03T16:35:59.75</time>
<name>2327</name>
</trkpt>
<trkpt lat="48.941770" lon="8.688027">
<ele>395.0</ele>
<speed>5.5</speed>
<course>63.1</course>
<desc>Speed 5.5 km/h Distance 3.84 km</desc>
<time>2010-03-03T16:36:00.74</time>
<name>2328</name>
</trkpt>
<trkpt lat="48.941777" lon="8.688047">
<ele>395.0</ele>
<speed>5.4</speed>
<course>67.4</course>
<desc>Speed 5.4 km/h Distance 3.84 km</desc>
<time>2010-03-03T16:36:01.74</time>
<name>2329</name>
</trkpt>
<trkpt lat="48.941782" lon="8.688065">
<ele>395.0</ele>
<speed>5.1</speed>
<course>57.6</course>
<desc>Speed 5.1 km/h Distance 3.84 km</desc>
<time>2010-03-03T16:36:02.75</time>
<name>2330</name>
</trkpt>
<trkpt lat="48.941790" lon="8.688085">
<ele>395.0</ele>
<speed>5.5</speed>
<course>70.6</course>
<desc>Speed 5.5 km/h Distance 3.85 km</desc>
<time>2010-03-03T16:36:03.74</time>
<name>2331</name>
</trkpt>
<trkpt lat="48.941795" lon="8.688107">
<ele>395.0</ele>
<speed>5.5</speed>
<course>69.1</course>
<desc>Speed 5.5 km/h Distance 3.85 km</desc>
<time>2010-03-03T16:36:04.74</time>
<name>2332</name>
</trkpt>
<trkpt lat="48.941800" lon="8.688127">
<ele>395.0</ele>
<speed>5.6</speed>
<course>76.8</course>
<desc>Speed 5.6 km/h Distance 3.85 km</desc>
<time>2010-03-03T16:36:05.75</time>
<name>2333</name>
</trkpt>
<trkpt lat="48.941803" lon="8.688148">
<ele>395.0</ele>
<speed>5.8</speed>
<course>64.9</course>
<desc>Speed 5.8 km/h Distance 3.85 km</desc>
<time>2010-03-03T16:36:06.75</time>
<name>2334</name>
</trkpt>
<trkpt lat="48.941810" lon="8.688170">
<ele>395.0</ele>
<speed>5.8</speed>
<course>57.6</course>
<desc>Speed 5.8 km/h Distance 3.85 km</desc>
<time>2010-03-03T16:36:07.74</time>
<name>2335</name>
</trkpt>
<trkpt lat="48.941818" lon="8.688190">
<ele>395.0</ele>
<speed>5.7</speed>
<course>70.6</course>
<desc>Speed 5.7 km/h Distance 3.85 km</desc>
<time>2010-03-03T16:36:08.74</time>
<name>2336</name>
</trkpt>
<trkpt lat="48.941823" lon="8.688212">
<ele>395.0</ele>
<speed>5.5</speed>
<course>71.3</course>
<desc>Speed 5.5 km/h Distance 3.86 km</desc>
<time>2010-03-03T16:36:09.75</time>
<name>2337</name>
</trkpt>
<trkpt lat="48.941827" lon="8.688227">
<ele>395.0</ele>
<speed>4.2</speed>
<course>53.0</course>
<desc>Speed 4.2 km/h Distance 3.86 km</desc>
<time>2010-03-03T16:36:10.75</time>
<name>2338</name>
</trkpt>
<trkpt lat="48.941830" lon="8.688233">
<ele>394.5</ele>
<speed>2.2</speed>
<course>41.2</course>
<desc>Speed 2.2 km/h Distance 3.86 km</desc>
<time>2010-03-03T16:36:11.74</time>
<name>2339</name>
</trkpt>
<trkpt lat="48.941840" lon="8.688247">
<ele>394.5</ele>
<speed>4.8</speed>
<course>64.9</course>
<desc>Speed 4.8 km/h Distance 3.86 km</desc>
<time>2010-03-03T16:36:12.74</time>
<name>2340</name>
</trkpt>
<trkpt lat="48.941847" lon="8.688268">
<ele>394.5</ele>
<speed>5.9</speed>
<course>64.9</course>
<desc>Speed 5.9 km/h Distance 3.86 km</desc>
<time>2010-03-03T16:36:13.74</time>
<name>2341</name>
</trkpt>
<trkpt lat="48.941853" lon="8.688290">
<ele>394.5</ele>
<speed>5.7</speed>
<course>57.6</course>
<desc>Speed 5.7 km/h Distance 3.86 km</desc>
<time>2010-03-03T16:36:14.74</time>
<name>2342</name>
</trkpt>
<trkpt lat="48.941862" lon="8.688310">
<ele>394.5</ele>
<speed>5.7</speed>
<course>57.6</course>
<desc>Speed 5.7 km/h Distance 3.86 km</desc>
<time>2010-03-03T16:36:15.73</time>
<name>2343</name>
</trkpt>
<trkpt lat="48.941870" lon="8.688330">
<ele>394.5</ele>
<speed>5.8</speed>
<course>64.9</course>
<desc>Speed 5.8 km/h Distance 3.87 km</desc>
<time>2010-03-03T16:36:16.74</time>
<name>2344</name>
</trkpt>
<trkpt lat="48.941877" lon="8.688352">
<ele>394.5</ele>
<speed>5.9</speed>
<course>57.6</course>
<desc>Speed 5.9 km/h Distance 3.87 km</desc>
<time>2010-03-03T16:36:17.73</time>
<name>2345</name>
</trkpt>
<trkpt lat="48.941885" lon="8.688372">
<ele>395.0</ele>
<speed>6.0</speed>
<course>59.6</course>
<desc>Speed 6.0 km/h Distance 3.87 km</desc>
<time>2010-03-03T16:36:18.73</time>
<name>2346</name>
</trkpt>
<trkpt lat="48.941893" lon="8.688393">
<ele>395.0</ele>
<speed>5.9</speed>
<course>61.0</course>
<desc>Speed 5.9 km/h Distance 3.87 km</desc>
<time>2010-03-03T16:36:19.73</time>
<name>2347</name>
</trkpt>
<trkpt lat="48.941900" lon="8.688412">
<ele>395.0</ele>
<speed>5.1</speed>
<course>63.1</course>
<desc>Speed 5.1 km/h Distance 3.87 km</desc>
<time>2010-03-03T16:36:20.73</time>
<name>2348</name>
</trkpt>
<trkpt lat="48.941905" lon="8.688427">
<ele>395.0</ele>
<speed>4.2</speed>
<course>50.3</course>
<desc>Speed 4.2 km/h Distance 3.87 km</desc>
<time>2010-03-03T16:36:21.73</time>
<name>2349</name>
</trkpt>
<trkpt lat="48.941915" lon="8.688445">
<ele>395.5</ele>
<speed>5.1</speed>
<course>63.1</course>
<desc>Speed 5.1 km/h Distance 3.88 km</desc>
<time>2010-03-03T16:36:22.73</time>
<name>2350</name>
</trkpt>
<trkpt lat="48.941922" lon="8.688465">
<ele>395.5</ele>
<speed>5.4</speed>
<course>71.3</course>
<desc>Speed 5.4 km/h Distance 3.88 km</desc>
<time>2010-03-03T16:36:23.73</time>
<name>2351</name>
</trkpt>
<trkpt lat="48.941925" lon="8.688480">
<ele>395.5</ele>
<speed>4.0</speed>
<course>46.4</course>
<desc>Speed 4.0 km/h Distance 3.88 km</desc>
<time>2010-03-03T16:36:24.73</time>
<name>2352</name>
</trkpt>
<trkpt lat="48.941933" lon="8.688493">
<ele>395.5</ele>
<speed>3.9</speed>
<course>46.5</course>
<desc>Speed 3.9 km/h Distance 3.88 km</desc>
<time>2010-03-03T16:36:25.73</time>
<name>2353</name>
</trkpt>
<trkpt lat="48.941942" lon="8.688507">
<ele>395.5</ele>
<speed>4.8</speed>
<course>63.2</course>
<desc>Speed 4.8 km/h Distance 3.88 km</desc>
<time>2010-03-03T16:36:26.73</time>
<name>2354</name>
</trkpt>
<trkpt lat="48.941948" lon="8.688527">
<ele>395.5</ele>
<speed>5.3</speed>
<course>57.7</course>
<desc>Speed 5.3 km/h Distance 3.88 km</desc>
<time>2010-03-03T16:36:27.73</time>
<name>2355</name>
</trkpt>
<trkpt lat="48.941957" lon="8.688547">
<ele>395.5</ele>
<speed>5.8</speed>
<course>64.9</course>
<desc>Speed 5.8 km/h Distance 3.88 km</desc>
<time>2010-03-03T16:36:28.73</time>
<name>2356</name>
</trkpt>
<trkpt lat="48.941963" lon="8.688568">
<ele>395.5</ele>
<speed>5.9</speed>
<course>59.6</course>
<desc>Speed 5.9 km/h Distance 3.89 km</desc>
<time>2010-03-03T16:36:29.73</time>
<name>2357</name>
</trkpt>
<trkpt lat="48.941972" lon="8.688590">
<ele>395.5</ele>
<speed>5.8</speed>
<course>63.1</course>
<desc>Speed 5.8 km/h Distance 3.89 km</desc>
<time>2010-03-03T16:36:30.73</time>
<name>2358</name>
</trkpt>
<trkpt lat="48.941978" lon="8.688610">
<ele>396.0</ele>
<speed>5.9</speed>
<course>63.1</course>
<desc>Speed 5.9 km/h Distance 3.89 km</desc>
<time>2010-03-03T16:36:31.73</time>
<name>2359</name>
</trkpt>
<trkpt lat="48.941985" lon="8.688630">
<ele>395.5</ele>
<speed>5.6</speed>
<course>57.6</course>
<desc>Speed 5.6 km/h Distance 3.89 km</desc>
<time>2010-03-03T16:36:32.73</time>
<name>2360</name>
</trkpt>
<trkpt lat="48.941993" lon="8.688650">
<ele>395.5</ele>
<speed>5.5</speed>
<course>55.3</course>
<desc>Speed 5.5 km/h Distance 3.89 km</desc>
<time>2010-03-03T16:36:33.73</time>
<name>2361</name>
</trkpt>
<trkpt lat="48.942002" lon="8.688668">
<ele>395.5</ele>
<speed>5.4</speed>
<course>61.0</course>
<desc>Speed 5.4 km/h Distance 3.89 km</desc>
<time>2010-03-03T16:36:34.72</time>
<name>2362</name>
</trkpt>
<trkpt lat="48.942008" lon="8.688687">
<ele>395.5</ele>
<speed>5.5</speed>
<course>61.0</course>
<desc>Speed 5.5 km/h Distance 3.90 km</desc>
<time>2010-03-03T16:36:35.72</time>
<name>2363</name>
</trkpt>
<trkpt lat="48.942015" lon="8.688705">
<ele>395.5</ele>
<speed>5.4</speed>
<course>58.6</course>
<desc>Speed 5.4 km/h Distance 3.90 km</desc>
<time>2010-03-03T16:36:36.72</time>
<name>2364</name>
</trkpt>
<trkpt lat="48.942022" lon="8.688722">
<ele>395.5</ele>
<speed>4.9</speed>
<course>52.7</course>
<desc>Speed 4.9 km/h Distance 3.90 km</desc>
<time>2010-03-03T16:36:37.72</time>
<name>2365</name>
</trkpt>
<trkpt lat="48.942030" lon="8.688738">
<ele>395.5</ele>
<speed>4.8</speed>
<course>58.7</course>
<desc>Speed 4.8 km/h Distance 3.90 km</desc>
<time>2010-03-03T16:36:38.72</time>
<name>2366</name>
</trkpt>
<trkpt lat="48.942037" lon="8.688755">
<ele>395.5</ele>
<speed>5.0</speed>
<course>61.0</course>
<desc>Speed 5.0 km/h Distance 3.90 km</desc>
<time>2010-03-03T16:36:39.72</time>
<name>2367</name>
</trkpt>
<trkpt lat="48.942043" lon="8.688773">
<ele>395.5</ele>
<speed>5.3</speed>
<course>67.5</course>
<desc>Speed 5.3 km/h Distance 3.90 km</desc>
<time>2010-03-03T16:36:40.72</time>
<name>2368</name>
</trkpt>
<trkpt lat="48.942048" lon="8.688792">
<ele>395.5</ele>
<speed>5.4</speed>
<course>57.7</course>
<desc>Speed 5.4 km/h Distance 3.91 km</desc>
<time>2010-03-03T16:36:41.72</time>
<name>2369</name>
</trkpt>
<trkpt lat="48.942057" lon="8.688812">
<ele>396.0</ele>
<speed>5.4</speed>
<course>61.0</course>
<desc>Speed 5.4 km/h Distance 3.91 km</desc>
<time>2010-03-03T16:36:42.72</time>
<name>2370</name>
</trkpt>
<trkpt lat="48.942063" lon="8.688830">
<ele>396.0</ele>
<speed>5.4</speed>
<course>61.0</course>
<desc>Speed 5.4 km/h Distance 3.91 km</desc>
<time>2010-03-03T16:36:43.72</time>
<name>2371</name>
</trkpt>
<trkpt lat="48.942070" lon="8.688848">
<ele>396.0</ele>
<speed>5.3</speed>
<course>61.0</course>
<desc>Speed 5.3 km/h Distance 3.91 km</desc>
<time>2010-03-03T16:36:44.73</time>
<name>2372</name>
</trkpt>
<trkpt lat="48.942077" lon="8.688867">
<ele>396.0</ele>
<speed>5.2</speed>
<course>45.9</course>
<desc>Speed 5.2 km/h Distance 3.91 km</desc>
<time>2010-03-03T16:36:45.82</time>
<name>2373</name>
</trkpt>
<trkpt lat="48.942088" lon="8.688885">
<ele>396.5</ele>
<speed>6.0</speed>
<course>52.7</course>
<desc>Speed 6.0 km/h Distance 3.91 km</desc>
<time>2010-03-03T16:36:46.72</time>
<name>2374</name>
</trkpt>
<trkpt lat="48.942097" lon="8.688902">
<ele>396.5</ele>
<speed>5.2</speed>
<course>48.9</course>
<desc>Speed 5.2 km/h Distance 3.91 km</desc>
<time>2010-03-03T16:36:47.72</time>
<name>2375</name>
</trkpt>
<trkpt lat="48.942103" lon="8.688913">
<ele>396.5</ele>
<speed>3.6</speed>
<course>47.6</course>
<desc>Speed 3.6 km/h Distance 3.92 km</desc>
<time>2010-03-03T16:36:48.73</time>
<name>2376</name>
</trkpt>
<trkpt lat="48.942113" lon="8.688930">
<ele>397.0</ele>
<speed>5.3</speed>
<course>69.2</course>
<desc>Speed 5.3 km/h Distance 3.92 km</desc>
<time>2010-03-03T16:36:49.72</time>
<name>2377</name>
</trkpt>
<trkpt lat="48.942118" lon="8.688950">
<ele>397.0</ele>
<speed>5.5</speed>
<course>69.2</course>
<desc>Speed 5.5 km/h Distance 3.92 km</desc>
<time>2010-03-03T16:36:50.72</time>
<name>2378</name>
</trkpt>
<trkpt lat="48.942123" lon="8.688970">
<ele>397.0</ele>
<speed>5.4</speed>
<course>69.2</course>
<desc>Speed 5.4 km/h Distance 3.92 km</desc>
<time>2010-03-03T16:36:51.72</time>
<name>2379</name>
</trkpt>
<trkpt lat="48.942128" lon="8.688990">
<ele>397.0</ele>
<speed>5.5</speed>
<course>69.2</course>
<desc>Speed 5.5 km/h Distance 3.92 km</desc>
<time>2010-03-03T16:36:52.71</time>
<name>2380</name>
</trkpt>
<trkpt lat="48.942133" lon="8.689010">
<ele>397.0</ele>
<speed>5.4</speed>
<course>70.6</course>
<desc>Speed 5.4 km/h Distance 3.92 km</desc>
<time>2010-03-03T16:36:53.71</time>
<name>2381</name>
</trkpt>
<trkpt lat="48.942138" lon="8.689032">
<ele>397.0</ele>
<speed>6.1</speed>
<course>69.2</course>
<desc>Speed 6.1 km/h Distance 3.93 km</desc>
<time>2010-03-03T16:36:54.71</time>
<name>2382</name>
</trkpt>
<trkpt lat="48.942143" lon="8.689052">
<ele>397.0</ele>
<speed>5.7</speed>
<course>69.1</course>
<desc>Speed 5.7 km/h Distance 3.93 km</desc>
<time>2010-03-03T16:36:55.71</time>
<name>2383</name>
</trkpt>
<trkpt lat="48.942148" lon="8.689072">
<ele>397.0</ele>
<speed>5.4</speed>
<course>61.0</course>
<desc>Speed 5.4 km/h Distance 3.93 km</desc>
<time>2010-03-03T16:36:56.71</time>
<name>2384</name>
</trkpt>
<trkpt lat="48.942155" lon="8.689090">
<ele>397.0</ele>
<speed>5.6</speed>
<course>69.2</course>
<desc>Speed 5.6 km/h Distance 3.93 km</desc>
<time>2010-03-03T16:36:57.71</time>
<name>2385</name>
</trkpt>
<trkpt lat="48.942160" lon="8.689110">
<ele>397.0</ele>
<speed>5.5</speed>
<course>67.5</course>
<desc>Speed 5.5 km/h Distance 3.93 km</desc>
<time>2010-03-03T16:36:58.71</time>
<name>2386</name>
</trkpt>
<trkpt lat="48.942165" lon="8.689128">
<ele>397.0</ele>
<speed>5.5</speed>
<course>69.2</course>
<desc>Speed 5.5 km/h Distance 3.93 km</desc>
<time>2010-03-03T16:36:59.72</time>
<name>2387</name>
</trkpt>
<trkpt lat="48.942170" lon="8.689148">
<ele>397.5</ele>
<speed>5.7</speed>
<course>63.1</course>
<desc>Speed 5.7 km/h Distance 3.93 km</desc>
<time>2010-03-03T16:37:00.71</time>
<name>2388</name>
</trkpt>
<trkpt lat="48.942177" lon="8.689168">
<ele>397.5</ele>
<speed>5.7</speed>
<course>48.4</course>
<desc>Speed 5.7 km/h Distance 3.94 km</desc>
<time>2010-03-03T16:37:01.71</time>
<name>2389</name>
</trkpt>
<trkpt lat="48.942188" lon="8.689188">
<ele>398.0</ele>
<speed>5.8</speed>
<course>71.9</course>
<desc>Speed 5.8 km/h Distance 3.94 km</desc>
<time>2010-03-03T16:37:02.71</time>
<name>2390</name>
</trkpt>
<trkpt lat="48.942193" lon="8.689212">
<ele>397.5</ele>
<speed>6.2</speed>
<course>70.6</course>
<desc>Speed 6.2 km/h Distance 3.94 km</desc>
<time>2010-03-03T16:37:03.71</time>
<name>2391</name>
</trkpt>
<trkpt lat="48.942198" lon="8.689233">
<ele>397.5</ele>
<speed>6.2</speed>
<course>71.9</course>
<desc>Speed 6.2 km/h Distance 3.94 km</desc>
<time>2010-03-03T16:37:04.71</time>
<name>2392</name>
</trkpt>
<trkpt lat="48.942203" lon="8.689257">
<ele>397.5</ele>
<speed>6.0</speed>
<course>90.0</course>
<desc>Speed 6.0 km/h Distance 3.94 km</desc>
<time>2010-03-03T16:37:05.71</time>
<name>2393</name>
</trkpt>
<trkpt lat="48.942203" lon="8.689282">
<ele>397.5</ele>
<speed>6.5</speed>
<course>90.0</course>
<desc>Speed 6.5 km/h Distance 3.95 km</desc>
<time>2010-03-03T16:37:06.70</time>
<name>2394</name>
</trkpt>
<trkpt lat="48.942203" lon="8.689302">
<ele>397.5</ele>
<speed>5.4</speed>
<course>74.5</course>
<desc>Speed 5.4 km/h Distance 3.95 km</desc>
<time>2010-03-03T16:37:07.70</time>
<name>2395</name>
</trkpt>
<trkpt lat="48.942207" lon="8.689320">
<ele>397.5</ele>
<speed>5.0</speed>
<course>61.0</course>
<desc>Speed 5.0 km/h Distance 3.95 km</desc>
<time>2010-03-03T16:37:08.70</time>
<name>2396</name>
</trkpt>
<trkpt lat="48.942213" lon="8.689338">
<ele>397.5</ele>
<speed>5.1</speed>
<course>73.1</course>
<desc>Speed 5.1 km/h Distance 3.95 km</desc>
<time>2010-03-03T16:37:09.71</time>
<name>2397</name>
</trkpt>
<trkpt lat="48.942217" lon="8.689355">
<ele>397.5</ele>
<speed>4.4</speed>
<course>75.8</course>
<desc>Speed 4.4 km/h Distance 3.95 km</desc>
<time>2010-03-03T16:37:10.70</time>
<name>2398</name>
</trkpt>
<trkpt lat="48.942218" lon="8.689365">
<ele>397.5</ele>
<speed>2.4</speed>
<course>77.8</course>
<desc>Speed 2.4 km/h Distance 3.95 km</desc>
<time>2010-03-03T16:37:11.70</time>
<name>2399</name>
</trkpt>
<trkpt lat="48.942220" lon="8.689377">
<ele>397.0</ele>
<speed>3.3</speed>
<course>67.5</course>
<desc>Speed 3.3 km/h Distance 3.95 km</desc>
<time>2010-03-03T16:37:12.70</time>
<name>2400</name>
</trkpt>
<trkpt lat="48.942225" lon="8.689395">
<ele>397.0</ele>
<speed>5.1</speed>
<course>67.5</course>
<desc>Speed 5.1 km/h Distance 3.95 km</desc>
<time>2010-03-03T16:37:13.70</time>
<name>2401</name>
</trkpt>
<trkpt lat="48.942230" lon="8.689413">
<ele>397.0</ele>
<speed>5.0</speed>
<course>75.8</course>
<desc>Speed 5.0 km/h Distance 3.96 km</desc>
<time>2010-03-03T16:37:14.71</time>
<name>2402</name>
</trkpt>
<trkpt lat="48.942233" lon="8.689433">
<ele>397.0</ele>
<speed>5.6</speed>
<course>63.1</course>
<desc>Speed 5.6 km/h Distance 3.96 km</desc>
<time>2010-03-03T16:37:15.71</time>
<name>2403</name>
</trkpt>
<trkpt lat="48.942240" lon="8.689453">
<ele>397.5</ele>
<speed>5.5</speed>
<course>63.1</course>
<desc>Speed 5.5 km/h Distance 3.96 km</desc>
<time>2010-03-03T16:37:16.70</time>
<name>2404</name>
</trkpt>
<trkpt lat="48.942247" lon="8.689473">
<ele>398.0</ele>
<speed>5.5</speed>
<course>64.9</course>
<desc>Speed 5.5 km/h Distance 3.96 km</desc>
<time>2010-03-03T16:37:17.70</time>
<name>2405</name>
</trkpt>
<trkpt lat="48.942253" lon="8.689495">
<ele>398.0</ele>
<speed>5.5</speed>
<course>64.9</course>
<desc>Speed 5.5 km/h Distance 3.96 km</desc>
<time>2010-03-03T16:37:18.69</time>
<name>2406</name>
</trkpt>
<trkpt lat="48.942260" lon="8.689517">
<ele>398.5</ele>
<speed>5.8</speed>
<course>57.6</course>
<desc>Speed 5.8 km/h Distance 3.96 km</desc>
<time>2010-03-03T16:37:19.70</time>
<name>2407</name>
</trkpt>
<trkpt lat="48.942268" lon="8.689537">
<ele>398.5</ele>
<speed>5.5</speed>
<course>55.3</course>
<desc>Speed 5.5 km/h Distance 3.97 km</desc>
<time>2010-03-03T16:37:20.69</time>
<name>2408</name>
</trkpt>
<trkpt lat="48.942277" lon="8.689555">
<ele>399.0</ele>
<speed>5.2</speed>
<course>63.1</course>
<desc>Speed 5.2 km/h Distance 3.97 km</desc>
<time>2010-03-03T16:37:21.69</time>
<name>2409</name>
</trkpt>
<trkpt lat="48.942283" lon="8.689575">
<ele>399.0</ele>
<speed>5.5</speed>
<course>70.6</course>
<desc>Speed 5.5 km/h Distance 3.97 km</desc>
<time>2010-03-03T16:37:22.69</time>
<name>2410</name>
</trkpt>
<trkpt lat="48.942288" lon="8.689597">
<ele>399.0</ele>
<speed>5.8</speed>
<course>69.2</course>
<desc>Speed 5.8 km/h Distance 3.97 km</desc>
<time>2010-03-03T16:37:23.69</time>
<name>2411</name>
</trkpt>
<trkpt lat="48.942293" lon="8.689617">
<ele>399.0</ele>
<speed>5.4</speed>
<course>61.0</course>
<desc>Speed 5.4 km/h Distance 3.97 km</desc>
<time>2010-03-03T16:37:24.69</time>
<name>2412</name>
</trkpt>
<trkpt lat="48.942300" lon="8.689635">
<ele>399.0</ele>
<speed>5.5</speed>
<course>70.6</course>
<desc>Speed 5.5 km/h Distance 3.97 km</desc>
<time>2010-03-03T16:37:25.69</time>
<name>2413</name>
</trkpt>
<trkpt lat="48.942305" lon="8.689657">
<ele>399.0</ele>
<speed>5.8</speed>
<course>63.1</course>
<desc>Speed 5.8 km/h Distance 3.98 km</desc>
<time>2010-03-03T16:37:26.69</time>
<name>2414</name>
</trkpt>
<trkpt lat="48.942312" lon="8.689677">
<ele>399.0</ele>
<speed>5.6</speed>
<course>63.1</course>
<desc>Speed 5.6 km/h Distance 3.98 km</desc>
<time>2010-03-03T16:37:27.69</time>
<name>2415</name>
</trkpt>
<trkpt lat="48.942318" lon="8.689697">
<ele>399.0</ele>
<speed>5.5</speed>
<course>69.2</course>
<desc>Speed 5.5 km/h Distance 3.98 km</desc>
<time>2010-03-03T16:37:28.69</time>
<name>2416</name>
</trkpt>
<trkpt lat="48.942323" lon="8.689717">
<ele>399.0</ele>
<speed>5.7</speed>
<course>82.8</course>
<desc>Speed 5.7 km/h Distance 3.98 km</desc>
<time>2010-03-03T16:37:29.69</time>
<name>2417</name>
</trkpt>
<trkpt lat="48.942325" lon="8.689737">
<ele>399.0</ele>
<speed>5.1</speed>
<course>74.6</course>
<desc>Speed 5.1 km/h Distance 3.98 km</desc>
<time>2010-03-03T16:37:30.69</time>
<name>2418</name>
</trkpt>
<trkpt lat="48.942328" lon="8.689755">
<ele>399.0</ele>
<speed>5.0</speed>
<course>90.0</course>
<desc>Speed 5.0 km/h Distance 3.98 km</desc>
<time>2010-03-03T16:37:31.68</time>
<name>2419</name>
</trkpt>
<trkpt lat="48.942328" lon="8.689775">
<ele>399.0</ele>
<speed>5.5</speed>
<course>76.8</course>
<desc>Speed 5.5 km/h Distance 3.98 km</desc>
<time>2010-03-03T16:37:32.68</time>
<name>2420</name>
</trkpt>
<trkpt lat="48.942332" lon="8.689797">
<ele>399.0</ele>
<speed>5.6</speed>
<course>83.3</course>
<desc>Speed 5.6 km/h Distance 3.99 km</desc>
<time>2010-03-03T16:37:33.68</time>
<name>2421</name>
</trkpt>
<trkpt lat="48.942333" lon="8.689818">
<ele>399.0</ele>
<speed>5.5</speed>
<course>90.0</course>
<desc>Speed 5.5 km/h Distance 3.99 km</desc>
<time>2010-03-03T16:37:34.69</time>
<name>2422</name>
</trkpt>
<trkpt lat="48.942333" lon="8.689840">
<ele>398.5</ele>
<speed>5.7</speed>
<course>90.0</course>
<desc>Speed 5.7 km/h Distance 3.99 km</desc>
<time>2010-03-03T16:37:35.68</time>
<name>2423</name>
</trkpt>
<trkpt lat="48.942333" lon="8.689863">
<ele>398.5</ele>
<speed>6.0</speed>
<course>83.8</course>
<desc>Speed 6.0 km/h Distance 3.99 km</desc>
<time>2010-03-03T16:37:36.68</time>
<name>2424</name>
</trkpt>
<trkpt lat="48.942335" lon="8.689887">
<ele>399.0</ele>
<speed>6.2</speed>
<course>90.0</course>
<desc>Speed 6.2 km/h Distance 3.99 km</desc>
<time>2010-03-03T16:37:37.68</time>
<name>2425</name>
</trkpt>
<trkpt lat="48.942335" lon="8.689908">
<ele>399.0</ele>
<speed>5.8</speed>
<course>83.3</course>
<desc>Speed 5.8 km/h Distance 3.99 km</desc>
<time>2010-03-03T16:37:38.68</time>
<name>2426</name>
</trkpt>
<trkpt lat="48.942337" lon="8.689930">
<ele>398.5</ele>
<speed>5.8</speed>
<course>90.0</course>
<desc>Speed 5.8 km/h Distance 4.00 km</desc>
<time>2010-03-03T16:37:39.69</time>
<name>2427</name>
</trkpt>
<trkpt lat="48.942337" lon="8.689952">
<ele>399.0</ele>
<speed>5.7</speed>
<course>77.7</course>
<desc>Speed 5.7 km/h Distance 4.00 km</desc>
<time>2010-03-03T16:37:40.68</time>
<name>2428</name>
</trkpt>
<trkpt lat="48.942340" lon="8.689975">
<ele>399.0</ele>
<speed>5.9</speed>
<course>90.0</course>
<desc>Speed 5.9 km/h Distance 4.00 km</desc>
<time>2010-03-03T16:37:41.68</time>
<name>2429</name>
</trkpt>
<trkpt lat="48.942340" lon="8.689997">
<ele>399.0</ele>
<speed>5.7</speed>
<course>90.0</course>
<desc>Speed 5.7 km/h Distance 4.00 km</desc>
<time>2010-03-03T16:37:42.68</time>
<name>2430</name>
</trkpt>
<trkpt lat="48.942340" lon="8.690018">
<ele>399.0</ele>
<speed>5.8</speed>
<course>90.0</course>
<desc>Speed 5.8 km/h Distance 4.00 km</desc>
<time>2010-03-03T16:37:43.67</time>
<name>2431</name>
</trkpt>
<trkpt lat="48.942340" lon="8.690042">
<ele>399.0</ele>
<speed>5.8</speed>
<course>90.0</course>
<desc>Speed 5.8 km/h Distance 4.00 km</desc>
<time>2010-03-03T16:37:44.68</time>
<name>2432</name>
</trkpt>
<trkpt lat="48.942340" lon="8.690060">
<ele>399.0</ele>
<speed>4.9</speed>
<course>73.1</course>
<desc>Speed 4.9 km/h Distance 4.01 km</desc>
<time>2010-03-03T16:37:45.67</time>
<name>2433</name>
</trkpt>
<trkpt lat="48.942343" lon="8.690077">
<ele>398.5</ele>
<speed>4.3</speed>
<course>75.8</course>
<desc>Speed 4.3 km/h Distance 4.01 km</desc>
<time>2010-03-03T16:37:46.67</time>
<name>2434</name>
</trkpt>
<trkpt lat="48.942347" lon="8.690097">
<ele>399.0</ele>
<speed>5.3</speed>
<course>76.8</course>
<desc>Speed 5.3 km/h Distance 4.01 km</desc>
<time>2010-03-03T16:37:47.67</time>
<name>2435</name>
</trkpt>
<trkpt lat="48.942350" lon="8.690118">
<ele>399.0</ele>
<speed>5.7</speed>
<course>76.8</course>
<desc>Speed 5.7 km/h Distance 4.01 km</desc>
<time>2010-03-03T16:37:48.67</time>
<name>2436</name>
</trkpt>
<trkpt lat="48.942353" lon="8.690140">
<ele>399.0</ele>
<speed>5.6</speed>
<course>90.0</course>
<desc>Speed 5.6 km/h Distance 4.01 km</desc>
<time>2010-03-03T16:37:49.67</time>
<name>2437</name>
</trkpt>
<trkpt lat="48.942353" lon="8.690163">
<ele>399.0</ele>
<speed>6.3</speed>
<course>90.0</course>
<desc>Speed 6.3 km/h Distance 4.01 km</desc>
<time>2010-03-03T16:37:50.67</time>
<name>2438</name>
</trkpt>
<trkpt lat="48.942353" lon="8.690185">
<ele>399.0</ele>
<speed>6.0</speed>
<course>83.8</course>
<desc>Speed 6.0 km/h Distance 4.01 km</desc>
<time>2010-03-03T16:37:51.67</time>
<name>2439</name>
</trkpt>
<trkpt lat="48.942355" lon="8.690208">
<ele>399.0</ele>
<speed>5.9</speed>
<course>90.0</course>
<desc>Speed 5.9 km/h Distance 4.02 km</desc>
<time>2010-03-03T16:37:52.67</time>
<name>2440</name>
</trkpt>
<trkpt lat="48.942355" lon="8.690232">
<ele>399.0</ele>
<speed>5.9</speed>
<course>83.3</course>
<desc>Speed 5.9 km/h Distance 4.02 km</desc>
<time>2010-03-03T16:37:53.67</time>
<name>2441</name>
</trkpt>
<trkpt lat="48.942357" lon="8.690253">
<ele>399.0</ele>
<speed>5.5</speed>
<course>90.0</course>
<desc>Speed 5.5 km/h Distance 4.02 km</desc>
<time>2010-03-03T16:37:54.67</time>
<name>2442</name>
</trkpt>
<trkpt lat="48.942357" lon="8.690273">
<ele>399.0</ele>
<speed>5.6</speed>
<course>90.0</course>
<desc>Speed 5.6 km/h Distance 4.02 km</desc>
<time>2010-03-03T16:37:55.66</time>
<name>2443</name>
</trkpt>
<trkpt lat="48.942357" lon="8.690297">
<ele>399.0</ele>
<speed>5.8</speed>
<course>83.3</course>
<desc>Speed 5.8 km/h Distance 4.02 km</desc>
<time>2010-03-03T16:37:56.66</time>
<name>2444</name>
</trkpt>
<trkpt lat="48.942358" lon="8.690318">
<ele>399.0</ele>
<speed>6.0</speed>
<course>90.0</course>
<desc>Speed 6.0 km/h Distance 4.02 km</desc>
<time>2010-03-03T16:37:57.67</time>
<name>2445</name>
</trkpt>
<trkpt lat="48.942358" lon="8.690342">
<ele>399.0</ele>
<speed>5.8</speed>
<course>90.0</course>
<desc>Speed 5.8 km/h Distance 4.03 km</desc>
<time>2010-03-03T16:37:58.66</time>
<name>2446</name>
</trkpt>
<trkpt lat="48.942358" lon="8.690363">
<ele>399.0</ele>
<speed>5.7</speed>
<course>103.2</course>
<desc>Speed 5.7 km/h Distance 4.03 km</desc>
<time>2010-03-03T16:37:59.66</time>
<name>2447</name>
</trkpt>
<trkpt lat="48.942355" lon="8.690385">
<ele>399.0</ele>
<speed>6.1</speed>
<course>90.0</course>
<desc>Speed 6.1 km/h Distance 4.03 km</desc>
<time>2010-03-03T16:38:00.66</time>
<name>2448</name>
</trkpt>
<trkpt lat="48.942355" lon="8.690410">
<ele>399.0</ele>
<speed>6.3</speed>
<course>96.2</course>
<desc>Speed 6.3 km/h Distance 4.03 km</desc>
<time>2010-03-03T16:38:01.67</time>
<name>2449</name>
</trkpt>
<trkpt lat="48.942353" lon="8.690433">
<ele>399.0</ele>
<speed>6.2</speed>
<course>83.8</course>
<desc>Speed 6.2 km/h Distance 4.03 km</desc>
<time>2010-03-03T16:38:02.66</time>
<name>2450</name>
</trkpt>
<trkpt lat="48.942355" lon="8.690457">
<ele>399.0</ele>
<speed>5.9</speed>
<course>104.3</course>
<desc>Speed 5.9 km/h Distance 4.03 km</desc>
<time>2010-03-03T16:38:03.67</time>
<name>2451</name>
</trkpt>
<trkpt lat="48.942352" lon="8.690477">
<ele>399.5</ele>
<speed>5.5</speed>
<course>104.2</course>
<desc>Speed 5.5 km/h Distance 4.04 km</desc>
<time>2010-03-03T16:38:04.67</time>
<name>2452</name>
</trkpt>
<trkpt lat="48.942348" lon="8.690497">
<ele>399.5</ele>
<speed>5.7</speed>
<course>143.1</course>
<desc>Speed 5.7 km/h Distance 4.04 km</desc>
<time>2010-03-03T16:38:05.67</time>
<name>2453</name>
</trkpt>
<trkpt lat="48.942337" lon="8.690510">
<ele>399.5</ele>
<speed>5.8</speed>
<course>105.5</course>
<desc>Speed 5.8 km/h Distance 4.04 km</desc>
<time>2010-03-03T16:38:06.66</time>
<name>2454</name>
</trkpt>
<trkpt lat="48.942333" lon="8.690528">
<ele>400.0</ele>
<speed>4.7</speed>
<course>127.4</course>
<desc>Speed 4.7 km/h Distance 4.04 km</desc>
<time>2010-03-03T16:38:07.66</time>
<name>2455</name>
</trkpt>
<trkpt lat="48.942327" lon="8.690542">
<ele>400.0</ele>
<speed>4.7</speed>
<course>141.3</course>
<desc>Speed 4.7 km/h Distance 4.04 km</desc>
<time>2010-03-03T16:38:08.66</time>
<name>2456</name>
</trkpt>
<trkpt lat="48.942320" lon="8.690550">
<ele>401.0</ele>
<speed>4.5</speed>
<course>119.7</course>
<desc>Speed 4.5 km/h Distance 4.04 km</desc>
<time>2010-03-03T16:38:09.67</time>
<name>2457</name>
</trkpt>
<trkpt lat="48.942315" lon="8.690563">
<ele>401.0</ele>
<speed>4.4</speed>
<course>127.4</course>
<desc>Speed 4.4 km/h Distance 4.04 km</desc>
<time>2010-03-03T16:38:10.66</time>
<name>2458</name>
</trkpt>
<trkpt lat="48.942310" lon="8.690573">
<ele>402.0</ele>
<speed>2.7</speed>
<course>116.9</course>
<desc>Speed 2.7 km/h Distance 4.05 km</desc>
<time>2010-03-03T16:38:11.66</time>
<name>2459</name>
</trkpt>
<trkpt lat="48.942305" lon="8.690588">
<ele>402.0</ele>
<speed>4.7</speed>
<course>119.7</course>
<desc>Speed 4.7 km/h Distance 4.05 km</desc>
<time>2010-03-03T16:38:12.65</time>
<name>2460</name>
</trkpt>
<trkpt lat="48.942300" lon="8.690602">
<ele>402.5</ele>
<speed>4.0</speed>
<course>146.8</course>
<desc>Speed 4.0 km/h Distance 4.05 km</desc>
<time>2010-03-03T16:38:13.66</time>
<name>2461</name>
</trkpt>
<trkpt lat="48.942293" lon="8.690608">
<ele>402.5</ele>
<speed>3.5</speed>
<course>336.2</course>
<desc>Speed 3.5 km/h Distance 4.05 km</desc>
<time>2010-03-03T16:38:14.66</time>
<name>2462</name>
</trkpt>
<trkpt lat="48.942298" lon="8.690605">
<ele>402.5</ele>
<speed>1.8</speed>
<course>330.8</course>
<desc>Speed 1.8 km/h Distance 4.05 km</desc>
<time>2010-03-03T16:38:15.65</time>
<name>2463</name>
</trkpt>
<trkpt lat="48.942300" lon="8.690603">
<ele>402.5</ele>
<speed>1.0</speed>
<course>319.1</course>
<desc>Speed 1.0 km/h Distance 4.05 km</desc>
<time>2010-03-03T16:38:16.66</time>
<name>2464</name>
</trkpt>
<trkpt lat="48.942305" lon="8.690597">
<ele>403.5</ele>
<speed>3.0</speed>
<course>322.8</course>
<desc>Speed 3.0 km/h Distance 4.05 km</desc>
<time>2010-03-03T16:38:17.66</time>
<name>2465</name>
</trkpt>
<trkpt lat="48.942307" lon="8.690595">
<ele>404.0</ele>
<speed>0.3</speed>
<course>29.2</course>
<desc>Speed 0.3 km/h Distance 4.05 km</desc>
<time>2010-03-03T16:38:18.66</time>
<name>2466</name>
</trkpt>
<trkpt lat="48.942308" lon="8.690597">
<ele>404.5</ele>
<speed>0.7</speed>
<course>12.6</course>
<desc>Speed 0.7 km/h Distance 4.05 km</desc>
<time>2010-03-03T16:38:19.66</time>
<name>2467</name>
</trkpt>
<trkpt lat="48.942310" lon="8.690597">
<ele>404.5</ele>
<speed>0.2</speed>
<course>37.2</course>
<desc>Speed 0.2 km/h Distance 4.05 km</desc>
<time>2010-03-03T16:38:20.66</time>
<name>2468</name>
</trkpt>
<trkpt lat="48.942312" lon="8.690598">
<ele>404.5</ele>
<speed>0.4</speed>
<course>29.2</course>
<desc>Speed 0.4 km/h Distance 4.05 km</desc>
<time>2010-03-03T16:38:21.65</time>
<name>2469</name>
</trkpt>
<trkpt lat="48.942313" lon="8.690600">
<ele>405.0</ele>
<speed>0.1</speed>
<course>29.2</course>
<desc>Speed 0.1 km/h Distance 4.05 km</desc>
<time>2010-03-03T16:38:22.65</time>
<name>2470</name>
</trkpt>
<trkpt lat="48.942313" lon="8.690600">
<ele>405.0</ele>
<speed>0.1</speed>
<course>12.6</course>
<desc>Speed 0.1 km/h Distance 4.05 km</desc>
<time>2010-03-03T16:38:23.65</time>
<name>2471</name>
</trkpt>
<trkpt lat="48.942315" lon="8.690600">
<ele>405.5</ele>
<speed>0.2</speed>
<course>12.6</course>
<desc>Speed 0.2 km/h Distance 4.05 km</desc>
<time>2010-03-03T16:38:24.65</time>
<name>2472</name>
</trkpt>
<trkpt lat="48.942315" lon="8.690600">
<ele>405.0</ele>
<speed>0.2</speed>
<course>167.4</course>
<desc>Speed 0.2 km/h Distance 4.05 km</desc>
<time>2010-03-03T16:38:25.65</time>
<name>2473</name>
</trkpt>
<trkpt lat="48.942313" lon="8.690600">
<ele>405.5</ele>
<speed>0.2</speed>
<course>90.0</course>
<desc>Speed 0.2 km/h Distance 4.05 km</desc>
<time>2010-03-03T16:38:26.65</time>
<name>2474</name>
</trkpt>
<trkpt lat="48.942313" lon="8.690602">
<ele>405.5</ele>
<speed>0.1</speed>
<course>12.6</course>
<desc>Speed 0.1 km/h Distance 4.05 km</desc>
<time>2010-03-03T16:38:27.65</time>
<name>2475</name>
</trkpt>
<trkpt lat="48.942315" lon="8.690602">
<ele>405.5</ele>
<speed>0.2</speed>
<course>12.6</course>
<desc>Speed 0.2 km/h Distance 4.05 km</desc>
<time>2010-03-03T16:38:28.67</time>
<name>2476</name>
</trkpt>
<trkpt lat="48.942315" lon="8.690602">
<ele>406.0</ele>
<speed>0.4</speed>
<course>12.6</course>
<desc>Speed 0.4 km/h Distance 4.05 km</desc>
<time>2010-03-03T16:38:29.65</time>
<name>2477</name>
</trkpt>
<trkpt lat="48.942317" lon="8.690602">
<ele>406.0</ele>
<speed>0.1</speed>
<course>12.6</course>
<desc>Speed 0.1 km/h Distance 4.05 km</desc>
<time>2010-03-03T16:38:30.64</time>
<name>2478</name>
</trkpt>
<trkpt lat="48.942317" lon="8.690602">
<ele>406.0</ele>
<speed>0.2</speed>
<course>12.6</course>
<desc>Speed 0.2 km/h Distance 4.05 km</desc>
<time>2010-03-03T16:38:31.64</time>
<name>2479</name>
</trkpt>
<trkpt lat="48.942317" lon="8.690602">
<ele>406.0</ele>
<speed>0.4</speed>
<course>12.6</course>
<desc>Speed 0.4 km/h Distance 4.05 km</desc>
<time>2010-03-03T16:38:32.67</time>
<name>2480</name>
</trkpt>
<trkpt lat="48.942317" lon="8.690602">
<ele>406.5</ele>
<speed>0.2</speed>
<course>12.6</course>
<desc>Speed 0.2 km/h Distance 4.05 km</desc>
<time>2010-03-03T16:38:33.64</time>
<name>2481</name>
</trkpt>
<trkpt lat="48.942317" lon="8.690602">
<ele>406.5</ele>
<speed>0.5</speed>
<course>128.1</course>
<desc>Speed 0.5 km/h Distance 4.05 km</desc>
<time>2010-03-03T16:38:34.64</time>
<name>2482</name>
</trkpt>
<trkpt lat="48.942315" lon="8.690605">
<ele>406.5</ele>
<speed>1.7</speed>
<course>167.4</course>
<desc>Speed 1.7 km/h Distance 4.05 km</desc>
<time>2010-03-03T16:38:35.67</time>
<name>2483</name>
</trkpt>
<trkpt lat="48.942312" lon="8.690607">
<ele>407.0</ele>
<speed>0.9</speed>
<course>167.4</course>
<desc>Speed 0.9 km/h Distance 4.05 km</desc>
<time>2010-03-03T16:38:36.64</time>
<name>2484</name>
</trkpt>
<trkpt lat="48.942312" lon="8.690607">
<ele>407.0</ele>
<speed>0.5</speed>
<course>90.0</course>
<desc>Speed 0.5 km/h Distance 4.05 km</desc>
<time>2010-03-03T16:38:37.64</time>
<name>2485</name>
</trkpt>
<trkpt lat="48.942312" lon="8.690608">
<ele>407.0</ele>
<speed>0.3</speed>
<course>167.4</course>
<desc>Speed 0.3 km/h Distance 4.05 km</desc>
<time>2010-03-03T16:38:38.66</time>
<name>2486</name>
</trkpt>
<trkpt lat="48.942310" lon="8.690608">
<ele>407.5</ele>
<speed>0.2</speed>
<course>128.1</course>
<desc>Speed 0.2 km/h Distance 4.05 km</desc>
<time>2010-03-03T16:38:39.64</time>
<name>2487</name>
</trkpt>
<trkpt lat="48.942308" lon="8.690612">
<ele>407.5</ele>
<speed>0.5</speed>
<course>167.4</course>
<desc>Speed 0.5 km/h Distance 4.05 km</desc>
<time>2010-03-03T16:38:40.63</time>
<name>2488</name>
</trkpt>
<trkpt lat="48.942307" lon="8.690612">
<ele>407.5</ele>
<speed>0.3</speed>
<course>167.4</course>
<desc>Speed 0.3 km/h Distance 4.05 km</desc>
<time>2010-03-03T16:38:41.64</time>
<name>2489</name>
</trkpt>
<trkpt lat="48.942307" lon="8.690612">
<ele>408.0</ele>
<speed>0.5</speed>
<course>167.4</course>
<desc>Speed 0.5 km/h Distance 4.05 km</desc>
<time>2010-03-03T16:38:42.64</time>
<name>2490</name>
</trkpt>
<trkpt lat="48.942305" lon="8.690612">
<ele>407.5</ele>
<speed>0.4</speed>
<course>217.2</course>
<desc>Speed 0.4 km/h Distance 4.05 km</desc>
<time>2010-03-03T16:38:43.64</time>
<name>2491</name>
</trkpt>
<trkpt lat="48.942303" lon="8.690610">
<ele>408.0</ele>
<speed>0.1</speed>
<course>217.2</course>
<desc>Speed 0.1 km/h Distance 4.05 km</desc>
<time>2010-03-03T16:38:44.64</time>
<name>2492</name>
</trkpt>
<trkpt lat="48.942303" lon="8.690610">
<ele>408.0</ele>
<speed>0.1</speed>
<course>167.4</course>
<desc>Speed 0.1 km/h Distance 4.05 km</desc>
<time>2010-03-03T16:38:45.64</time>
<name>2493</name>
</trkpt>
<trkpt lat="48.942302" lon="8.690610">
<ele>408.0</ele>
<speed>0.5</speed>
<course>127.0</course>
<desc>Speed 0.5 km/h Distance 4.05 km</desc>
<time>2010-03-03T16:38:46.63</time>
<name>2494</name>
</trkpt>
<trkpt lat="48.942298" lon="8.690617">
<ele>408.0</ele>
<speed>1.8</speed>
<course>110.9</course>
<desc>Speed 1.8 km/h Distance 4.05 km</desc>
<time>2010-03-03T16:38:47.64</time>
<name>2495</name>
</trkpt>
<trkpt lat="48.942297" lon="8.690623">
<ele>408.5</ele>
<speed>1.9</speed>
<course>127.2</course>
<desc>Speed 1.9 km/h Distance 4.06 km</desc>
<time>2010-03-03T16:38:48.63</time>
<name>2496</name>
</trkpt>
<trkpt lat="48.942292" lon="8.690633">
<ele>408.5</ele>
<speed>3.2</speed>
<course>114.6</course>
<desc>Speed 3.2 km/h Distance 4.06 km</desc>
<time>2010-03-03T16:38:49.63</time>
<name>2497</name>
</trkpt>
<trkpt lat="48.942287" lon="8.690650">
<ele>408.5</ele>
<speed>4.6</speed>
<course>116.9</course>
<desc>Speed 4.6 km/h Distance 4.06 km</desc>
<time>2010-03-03T16:38:50.64</time>
<name>2498</name>
</trkpt>
<trkpt lat="48.942282" lon="8.690665">
<ele>408.5</ele>
<speed>4.7</speed>
<course>116.9</course>
<desc>Speed 4.7 km/h Distance 4.06 km</desc>
<time>2010-03-03T16:38:51.64</time>
<name>2499</name>
</trkpt>
<trkpt lat="48.942275" lon="8.690685">
<ele>408.0</ele>
<speed>5.3</speed>
<course>108.1</course>
<desc>Speed 5.3 km/h Distance 4.06 km</desc>
<time>2010-03-03T16:38:52.63</time>
<name>2500</name>
</trkpt>
<trkpt lat="48.942270" lon="8.690708">
<ele>408.0</ele>
<speed>5.7</speed>
<course>109.4</course>
<desc>Speed 5.7 km/h Distance 4.06 km</desc>
<time>2010-03-03T16:38:53.63</time>
<name>2501</name>
</trkpt>
<trkpt lat="48.942265" lon="8.690730">
<ele>408.0</ele>
<speed>5.3</speed>
<course>110.8</course>
<desc>Speed 5.3 km/h Distance 4.06 km</desc>
<time>2010-03-03T16:38:54.63</time>
<name>2502</name>
</trkpt>
<trkpt lat="48.942260" lon="8.690750">
<ele>408.0</ele>
<speed>5.6</speed>
<course>120.3</course>
<desc>Speed 5.6 km/h Distance 4.07 km</desc>
<time>2010-03-03T16:38:55.63</time>
<name>2503</name>
</trkpt>
<trkpt lat="48.942252" lon="8.690772">
<ele>407.5</ele>
<speed>5.3</speed>
<course>121.4</course>
<desc>Speed 5.3 km/h Distance 4.07 km</desc>
<time>2010-03-03T16:38:56.62</time>
<name>2504</name>
</trkpt>
<trkpt lat="48.942245" lon="8.690788">
<ele>407.5</ele>
<speed>4.7</speed>
<course>116.9</course>
<desc>Speed 4.7 km/h Distance 4.07 km</desc>
<time>2010-03-03T16:38:57.63</time>
<name>2505</name>
</trkpt>
<trkpt lat="48.942240" lon="8.690803">
<ele>407.5</ele>
<speed>4.6</speed>
<course>137.4</course>
<desc>Speed 4.6 km/h Distance 4.07 km</desc>
<time>2010-03-03T16:38:58.63</time>
<name>2506</name>
</trkpt>
<trkpt lat="48.942232" lon="8.690815">
<ele>407.5</ele>
<speed>3.7</speed>
<course>12.6</course>
<desc>Speed 3.7 km/h Distance 4.07 km</desc>
<time>2010-03-03T16:38:59.63</time>
<name>2507</name>
</trkpt>
<trkpt lat="48.942235" lon="8.690817">
<ele>407.5</ele>
<speed>1.4</speed>
<course>47.1</course>
<desc>Speed 1.4 km/h Distance 4.07 km</desc>
<time>2010-03-03T16:39:00.63</time>
<name>2508</name>
</trkpt>
<trkpt lat="48.942240" lon="8.690825">
<ele>407.0</ele>
<speed>2.3</speed>
<course>110.8</course>
<desc>Speed 2.3 km/h Distance 4.07 km</desc>
<time>2010-03-03T16:39:01.63</time>
<name>2509</name>
</trkpt>
<trkpt lat="48.942237" lon="8.690838">
<ele>407.0</ele>
<speed>3.5</speed>
<course>138.7</course>
<desc>Speed 3.5 km/h Distance 4.07 km</desc>
<time>2010-03-03T16:39:02.63</time>
<name>2510</name>
</trkpt>
<trkpt lat="48.942227" lon="8.690852">
<ele>406.0</ele>
<speed>5.0</speed>
<course>108.7</course>
<desc>Speed 5.0 km/h Distance 4.07 km</desc>
<time>2010-03-03T16:39:03.63</time>
<name>2511</name>
</trkpt>
<trkpt lat="48.942223" lon="8.690867">
<ele>405.0</ele>
<speed>3.4</speed>
<course>90.0</course>
<desc>Speed 3.4 km/h Distance 4.08 km</desc>
<time>2010-03-03T16:39:04.63</time>
<name>2512</name>
</trkpt>
<trkpt lat="48.942223" lon="8.690872">
<ele>404.5</ele>
<speed>0.1</speed>
<course>47.4</course>
<desc>Speed 0.1 km/h Distance 4.08 km</desc>
<time>2010-03-03T16:39:05.62</time>
<name>2513</name>
</trkpt>
<trkpt lat="48.942228" lon="8.690880">
<ele>403.5</ele>
<speed>1.4</speed>
<course>51.9</course>
<desc>Speed 1.4 km/h Distance 4.08 km</desc>
<time>2010-03-03T16:39:06.62</time>
<name>2514</name>
</trkpt>
<trkpt lat="48.942230" lon="8.690883">
<ele>403.5</ele>
<speed>0.8</speed>
<course>167.4</course>
<desc>Speed 0.8 km/h Distance 4.08 km</desc>
<time>2010-03-03T16:39:07.63</time>
<name>2515</name>
</trkpt>
<trkpt lat="48.942227" lon="8.690885">
<ele>404.5</ele>
<speed>1.5</speed>
<course>147.7</course>
<desc>Speed 1.5 km/h Distance 4.08 km</desc>
<time>2010-03-03T16:39:08.63</time>
<name>2516</name>
</trkpt>
<trkpt lat="48.942222" lon="8.690890">
<ele>405.0</ele>
<speed>3.0</speed>
<course>137.4</course>
<desc>Speed 3.0 km/h Distance 4.08 km</desc>
<time>2010-03-03T16:39:09.63</time>
<name>2517</name>
</trkpt>
<trkpt lat="48.942213" lon="8.690902">
<ele>405.5</ele>
<speed>4.0</speed>
<course>142.5</course>
<desc>Speed 4.0 km/h Distance 4.08 km</desc>
<time>2010-03-03T16:39:10.62</time>
<name>2518</name>
</trkpt>
<trkpt lat="48.942203" lon="8.690913">
<ele>405.5</ele>
<speed>5.3</speed>
<course>137.5</course>
<desc>Speed 5.3 km/h Distance 4.08 km</desc>
<time>2010-03-03T16:39:11.62</time>
<name>2519</name>
</trkpt>
<trkpt lat="48.942195" lon="8.690925">
<ele>406.0</ele>
<speed>4.2</speed>
<course>142.5</course>
<desc>Speed 4.2 km/h Distance 4.08 km</desc>
<time>2010-03-03T16:39:12.62</time>
<name>2520</name>
</trkpt>
<trkpt lat="48.942185" lon="8.690937">
<ele>406.5</ele>
<speed>4.9</speed>
<course>121.3</course>
<desc>Speed 4.9 km/h Distance 4.08 km</desc>
<time>2010-03-03T16:39:13.62</time>
<name>2521</name>
</trkpt>
<trkpt lat="48.942178" lon="8.690953">
<ele>407.0</ele>
<speed>4.7</speed>
<course>116.9</course>
<desc>Speed 4.7 km/h Distance 4.09 km</desc>
<time>2010-03-03T16:39:14.62</time>
<name>2522</name>
</trkpt>
<trkpt lat="48.942173" lon="8.690968">
<ele>408.0</ele>
<speed>3.7</speed>
<course>116.9</course>
<desc>Speed 3.7 km/h Distance 4.09 km</desc>
<time>2010-03-03T16:39:15.62</time>
<name>2523</name>
</trkpt>
<trkpt lat="48.942167" lon="8.690988">
<ele>408.0</ele>
<speed>5.0</speed>
<course>116.9</course>
<desc>Speed 5.0 km/h Distance 4.09 km</desc>
<time>2010-03-03T16:39:16.62</time>
<name>2524</name>
</trkpt>
<trkpt lat="48.942160" lon="8.691008">
<ele>408.0</ele>
<speed>4.7</speed>
<course>124.0</course>
<desc>Speed 4.7 km/h Distance 4.09 km</desc>
<time>2010-03-03T16:39:17.62</time>
<name>2525</name>
</trkpt>
<trkpt lat="48.942153" lon="8.691023">
<ele>408.5</ele>
<speed>5.0</speed>
<course>142.5</course>
<desc>Speed 5.0 km/h Distance 4.09 km</desc>
<time>2010-03-03T16:39:18.62</time>
<name>2526</name>
</trkpt>
<trkpt lat="48.942143" lon="8.691035">
<ele>409.0</ele>
<speed>4.7</speed>
<course>113.5</course>
<desc>Speed 4.7 km/h Distance 4.09 km</desc>
<time>2010-03-03T16:39:19.62</time>
<name>2527</name>
</trkpt>
<trkpt lat="48.942140" lon="8.691047">
<ele>411.0</ele>
<speed>4.0</speed>
<course>119.0</course>
<desc>Speed 4.0 km/h Distance 4.09 km</desc>
<time>2010-03-03T16:39:20.62</time>
<name>2528</name>
</trkpt>
<trkpt lat="48.942133" lon="8.691065">
<ele>411.0</ele>
<speed>4.7</speed>
<course>121.3</course>
<desc>Speed 4.7 km/h Distance 4.09 km</desc>
<time>2010-03-03T16:39:21.62</time>
<name>2529</name>
</trkpt>
<trkpt lat="48.942127" lon="8.691082">
<ele>411.0</ele>
<speed>4.5</speed>
<course>116.9</course>
<desc>Speed 4.5 km/h Distance 4.10 km</desc>
<time>2010-03-03T16:39:22.61</time>
<name>2530</name>
</trkpt>
<trkpt lat="48.942120" lon="8.691102">
<ele>410.5</ele>
<speed>4.6</speed>
<course>132.4</course>
<desc>Speed 4.6 km/h Distance 4.10 km</desc>
<time>2010-03-03T16:39:23.61</time>
<name>2531</name>
</trkpt>
<trkpt lat="48.942110" lon="8.691118">
<ele>410.5</ele>
<speed>5.5</speed>
<course>135.4</course>
<desc>Speed 5.5 km/h Distance 4.10 km</desc>
<time>2010-03-03T16:39:24.61</time>
<name>2532</name>
</trkpt>
<trkpt lat="48.942100" lon="8.691133">
<ele>411.0</ele>
<speed>5.1</speed>
<course>127.2</course>
<desc>Speed 5.1 km/h Distance 4.10 km</desc>
<time>2010-03-03T16:39:25.61</time>
<name>2533</name>
</trkpt>
<trkpt lat="48.942093" lon="8.691147">
<ele>412.0</ele>
<speed>4.5</speed>
<course>142.7</course>
<desc>Speed 4.5 km/h Distance 4.10 km</desc>
<time>2010-03-03T16:39:26.61</time>
<name>2534</name>
</trkpt>
<trkpt lat="48.942083" lon="8.691158">
<ele>412.0</ele>
<speed>4.7</speed>
<course>141.9</course>
<desc>Speed 4.7 km/h Distance 4.10 km</desc>
<time>2010-03-03T16:39:27.61</time>
<name>2535</name>
</trkpt>
<trkpt lat="48.942075" lon="8.691168">
<ele>412.5</ele>
<speed>4.2</speed>
<course>133.5</course>
<desc>Speed 4.2 km/h Distance 4.11 km</desc>
<time>2010-03-03T16:39:28.61</time>
<name>2536</name>
</trkpt>
<trkpt lat="48.942067" lon="8.691182">
<ele>413.5</ele>
<speed>5.0</speed>
<course>153.8</course>
<desc>Speed 5.0 km/h Distance 4.11 km</desc>
<time>2010-03-03T16:39:29.61</time>
<name>2537</name>
</trkpt>
<trkpt lat="48.942053" lon="8.691192">
<ele>412.5</ele>
<speed>6.4</speed>
<course>142.5</course>
<desc>Speed 6.4 km/h Distance 4.11 km</desc>
<time>2010-03-03T16:39:30.60</time>
<name>2538</name>
</trkpt>
<trkpt lat="48.942043" lon="8.691203">
<ele>413.0</ele>
<speed>4.6</speed>
<course>127.3</course>
<desc>Speed 4.6 km/h Distance 4.11 km</desc>
<time>2010-03-03T16:39:31.61</time>
<name>2539</name>
</trkpt>
<trkpt lat="48.942037" lon="8.691217">
<ele>414.0</ele>
<speed>4.6</speed>
<course>135.5</course>
<desc>Speed 4.6 km/h Distance 4.11 km</desc>
<time>2010-03-03T16:39:32.61</time>
<name>2540</name>
</trkpt>
<trkpt lat="48.942027" lon="8.691232">
<ele>414.0</ele>
<speed>5.0</speed>
<course>132.4</course>
<desc>Speed 5.0 km/h Distance 4.11 km</desc>
<time>2010-03-03T16:39:33.61</time>
<name>2541</name>
</trkpt>
<trkpt lat="48.942017" lon="8.691248">
<ele>414.0</ele>
<speed>4.7</speed>
<course>132.4</course>
<desc>Speed 4.7 km/h Distance 4.11 km</desc>
<time>2010-03-03T16:39:34.60</time>
<name>2542</name>
</trkpt>
<trkpt lat="48.942007" lon="8.691265">
<ele>414.5</ele>
<speed>5.0</speed>
<course>143.1</course>
<desc>Speed 5.0 km/h Distance 4.12 km</desc>
<time>2010-03-03T16:39:35.60</time>
<name>2543</name>
</trkpt>
<trkpt lat="48.941995" lon="8.691278">
<ele>414.0</ele>
<speed>4.9</speed>
<course>154.8</course>
<desc>Speed 4.9 km/h Distance 4.12 km</desc>
<time>2010-03-03T16:39:36.60</time>
<name>2544</name>
</trkpt>
<trkpt lat="48.941983" lon="8.691287">
<ele>414.0</ele>
<speed>5.2</speed>
<course>146.6</course>
<desc>Speed 5.2 km/h Distance 4.12 km</desc>
<time>2010-03-03T16:39:37.60</time>
<name>2545</name>
</trkpt>
<trkpt lat="48.941972" lon="8.691298">
<ele>414.0</ele>
<speed>4.6</speed>
<course>127.3</course>
<desc>Speed 4.6 km/h Distance 4.12 km</desc>
<time>2010-03-03T16:39:38.59</time>
<name>2546</name>
</trkpt>
<trkpt lat="48.941965" lon="8.691312">
<ele>414.5</ele>
<speed>4.7</speed>
<course>142.8</course>
<desc>Speed 4.7 km/h Distance 4.12 km</desc>
<time>2010-03-03T16:39:39.60</time>
<name>2547</name>
</trkpt>
<trkpt lat="48.941955" lon="8.691323">
<ele>414.5</ele>
<speed>4.9</speed>
<course>138.8</course>
<desc>Speed 4.9 km/h Distance 4.12 km</desc>
<time>2010-03-03T16:39:40.60</time>
<name>2548</name>
</trkpt>
<trkpt lat="48.941945" lon="8.691337">
<ele>415.0</ele>
<speed>4.9</speed>
<course>141.9</course>
<desc>Speed 4.9 km/h Distance 4.12 km</desc>
<time>2010-03-03T16:39:41.60</time>
<name>2549</name>
</trkpt>
<trkpt lat="48.941937" lon="8.691347">
<ele>415.0</ele>
<speed>4.7</speed>
<course>133.6</course>
<desc>Speed 4.7 km/h Distance 4.13 km</desc>
<time>2010-03-03T16:39:42.60</time>
<name>2550</name>
</trkpt>
<trkpt lat="48.941928" lon="8.691360">
<ele>415.5</ele>
<speed>4.8</speed>
<course>127.2</course>
<desc>Speed 4.8 km/h Distance 4.13 km</desc>
<time>2010-03-03T16:39:43.60</time>
<name>2551</name>
</trkpt>
<trkpt lat="48.941923" lon="8.691370">
<ele>416.5</ele>
<speed>4.0</speed>
<course>141.9</course>
<desc>Speed 4.0 km/h Distance 4.13 km</desc>
<time>2010-03-03T16:39:44.60</time>
<name>2552</name>
</trkpt>
<trkpt lat="48.941915" lon="8.691380">
<ele>417.0</ele>
<speed>4.5</speed>
<course>127.4</course>
<desc>Speed 4.5 km/h Distance 4.13 km</desc>
<time>2010-03-03T16:39:45.60</time>
<name>2553</name>
</trkpt>
<trkpt lat="48.941910" lon="8.691390">
<ele>417.0</ele>
<speed>2.7</speed>
<course>132.2</course>
<desc>Speed 2.7 km/h Distance 4.13 km</desc>
<time>2010-03-03T16:39:46.60</time>
<name>2554</name>
</trkpt>
<trkpt lat="48.941905" lon="8.691398">
<ele>417.5</ele>
<speed>3.2</speed>
<course>146.8</course>
<desc>Speed 3.2 km/h Distance 4.13 km</desc>
<time>2010-03-03T16:39:47.59</time>
<name>2555</name>
</trkpt>
<trkpt lat="48.941897" lon="8.691407">
<ele>417.5</ele>
<speed>3.9</speed>
<course>146.8</course>
<desc>Speed 3.9 km/h Distance 4.13 km</desc>
<time>2010-03-03T16:39:48.59</time>
<name>2556</name>
</trkpt>
<trkpt lat="48.941888" lon="8.691415">
<ele>417.0</ele>
<speed>3.8</speed>
<course>130.9</course>
<desc>Speed 3.8 km/h Distance 4.13 km</desc>
<time>2010-03-03T16:39:49.59</time>
<name>2557</name>
</trkpt>
<trkpt lat="48.941882" lon="8.691427">
<ele>417.5</ele>
<speed>4.0</speed>
<course>140.6</course>
<desc>Speed 4.0 km/h Distance 4.13 km</desc>
<time>2010-03-03T16:39:50.59</time>
<name>2558</name>
</trkpt>
<trkpt lat="48.941875" lon="8.691435">
<ele>417.5</ele>
<speed>3.6</speed>
<course>146.8</course>
<desc>Speed 3.6 km/h Distance 4.13 km</desc>
<time>2010-03-03T16:39:51.59</time>
<name>2559</name>
</trkpt>
<trkpt lat="48.941865" lon="8.691445">
<ele>417.0</ele>
<speed>4.9</speed>
<course>146.5</course>
<desc>Speed 4.9 km/h Distance 4.14 km</desc>
<time>2010-03-03T16:39:52.59</time>
<name>2560</name>
</trkpt>
<trkpt lat="48.941857" lon="8.691453">
<ele>417.0</ele>
<speed>3.8</speed>
<course>141.6</course>
<desc>Speed 3.8 km/h Distance 4.14 km</desc>
<time>2010-03-03T16:39:53.59</time>
<name>2561</name>
</trkpt>
<trkpt lat="48.941848" lon="8.691463">
<ele>416.5</ele>
<speed>4.0</speed>
<course>146.3</course>
<desc>Speed 4.0 km/h Distance 4.14 km</desc>
<time>2010-03-03T16:39:54.59</time>
<name>2562</name>
</trkpt>
<trkpt lat="48.941842" lon="8.691470">
<ele>416.5</ele>
<speed>3.1</speed>
<course>153.6</course>
<desc>Speed 3.1 km/h Distance 4.14 km</desc>
<time>2010-03-03T16:39:55.59</time>
<name>2563</name>
</trkpt>
<trkpt lat="48.941835" lon="8.691475">
<ele>417.0</ele>
<speed>2.7</speed>
<course>146.7</course>
<desc>Speed 2.7 km/h Distance 4.14 km</desc>
<time>2010-03-03T16:39:56.59</time>
<name>2564</name>
</trkpt>
<trkpt lat="48.941823" lon="8.691487">
<ele>417.0</ele>
<speed>5.1</speed>
<course>146.8</course>
<desc>Speed 5.1 km/h Distance 4.14 km</desc>
<time>2010-03-03T16:39:57.59</time>
<name>2565</name>
</trkpt>
<trkpt lat="48.941813" lon="8.691497">
<ele>416.5</ele>
<speed>4.6</speed>
<course>135.5</course>
<desc>Speed 4.6 km/h Distance 4.14 km</desc>
<time>2010-03-03T16:39:58.59</time>
<name>2566</name>
</trkpt>
<trkpt lat="48.941803" lon="8.691512">
<ele>416.5</ele>
<speed>5.4</speed>
<course>141.9</course>
<desc>Speed 5.4 km/h Distance 4.14 km</desc>
<time>2010-03-03T16:39:59.58</time>
<name>2567</name>
</trkpt>
<trkpt lat="48.941795" lon="8.691522">
<ele>416.0</ele>
<speed>4.3</speed>
<course>146.8</course>
<desc>Speed 4.3 km/h Distance 4.15 km</desc>
<time>2010-03-03T16:40:00.58</time>
<name>2568</name>
</trkpt>
<trkpt lat="48.941785" lon="8.691532">
<ele>416.0</ele>
<speed>4.2</speed>
<course>142.5</course>
<desc>Speed 4.2 km/h Distance 4.15 km</desc>
<time>2010-03-03T16:40:01.58</time>
<name>2569</name>
</trkpt>
<trkpt lat="48.941775" lon="8.691543">
<ele>415.5</ele>
<speed>4.8</speed>
<course>144.7</course>
<desc>Speed 4.8 km/h Distance 4.15 km</desc>
<time>2010-03-03T16:40:02.58</time>
<name>2570</name>
</trkpt>
<trkpt lat="48.941753" lon="8.691567">
<ele>414.5</ele>
<speed>5.6</speed>
<course>140.1</course>
<desc>Speed 5.6 km/h Distance 4.15 km</desc>
<time>2010-03-03T16:40:03.58</time>
<name>2571</name>
</trkpt>
<trkpt lat="48.941735" lon="8.691590">
<ele>414.0</ele>
<speed>4.8</speed>
<course>137.4</course>
<desc>Speed 4.8 km/h Distance 4.15 km</desc>
<time>2010-03-03T16:40:04.70</time>
<name>2572</name>
</trkpt>
<trkpt lat="48.941727" lon="8.691602">
<ele>414.0</ele>
<speed>4.0</speed>
<course>137.1</course>
<desc>Speed 4.0 km/h Distance 4.16 km</desc>
<time>2010-03-03T16:40:05.58</time>
<name>2573</name>
</trkpt>
<trkpt lat="48.941707" lon="8.691630">
<ele>413.5</ele>
<speed>5.0</speed>
<course>156.2</course>
<desc>Speed 5.0 km/h Distance 4.16 km</desc>
<time>2010-03-03T16:40:06.58</time>
<name>2574</name>
</trkpt>
<trkpt lat="48.941697" lon="8.691637">
<ele>413.5</ele>
<speed>3.6</speed>
<course>151.4</course>
<desc>Speed 3.6 km/h Distance 4.16 km</desc>
<time>2010-03-03T16:40:07.58</time>
<name>2575</name>
</trkpt>
<trkpt lat="48.941687" lon="8.691645">
<ele>413.0</ele>
<speed>4.3</speed>
<course>143.1</course>
<desc>Speed 4.3 km/h Distance 4.16 km</desc>
<time>2010-03-03T16:40:08.58</time>
<name>2576</name>
</trkpt>
<trkpt lat="48.941675" lon="8.691658">
<ele>412.5</ele>
<speed>5.9</speed>
<course>158.5</course>
<desc>Speed 5.9 km/h Distance 4.16 km</desc>
<time>2010-03-03T16:40:09.68</time>
<name>2577</name>
</trkpt>
<trkpt lat="48.941667" lon="8.691663">
<ele>413.0</ele>
<speed>3.0</speed>
<course>139.1</course>
<desc>Speed 3.0 km/h Distance 4.16 km</desc>
<time>2010-03-03T16:40:10.63</time>
<name>2578</name>
</trkpt>
<trkpt lat="48.941662" lon="8.691670">
<ele>413.5</ele>
<speed>1.4</speed>
<course>138.7</course>
<desc>Speed 1.4 km/h Distance 4.16 km</desc>
<time>2010-03-03T16:40:11.63</time>
<name>2579</name>
</trkpt>
<trkpt lat="48.941652" lon="8.691683">
<ele>412.5</ele>
<speed>5.0</speed>
<course>124.0</course>
<desc>Speed 5.0 km/h Distance 4.17 km</desc>
<time>2010-03-03T16:40:12.63</time>
<name>2580</name>
</trkpt>
<trkpt lat="48.941645" lon="8.691698">
<ele>412.5</ele>
<speed>3.7</speed>
<course>127.2</course>
<desc>Speed 3.7 km/h Distance 4.17 km</desc>
<time>2010-03-03T16:40:13.70</time>
<name>2581</name>
</trkpt>
<trkpt lat="48.941638" lon="8.691712">
<ele>411.0</ele>
<speed>2.7</speed>
<course>123.1</course>
<desc>Speed 2.7 km/h Distance 4.17 km</desc>
<time>2010-03-03T16:40:14.83</time>
<name>2582</name>
</trkpt>
<trkpt lat="48.941633" lon="8.691723">
<ele>410.5</ele>
<speed>1.9</speed>
<course>135.3</course>
<desc>Speed 1.9 km/h Distance 4.17 km</desc>
<time>2010-03-03T16:40:15.74</time>
<name>2583</name>
</trkpt>
<trkpt lat="48.941623" lon="8.691738">
<ele>410.5</ele>
<speed>2.8</speed>
<course>164.5</course>
<desc>Speed 2.8 km/h Distance 4.17 km</desc>
<time>2010-03-03T16:40:16.74</time>
<name>2584</name>
</trkpt>
<trkpt lat="48.941612" lon="8.691743">
<ele>411.5</ele>
<speed>3.7</speed>
<course>158.5</course>
<desc>Speed 3.7 km/h Distance 4.17 km</desc>
<time>2010-03-03T16:40:18.16</time>
<name>2585</name>
</trkpt>
<trkpt lat="48.941587" lon="8.691758">
<ele>413.0</ele>
<speed>5.4</speed>
<course>175.6</course>
<desc>Speed 5.4 km/h Distance 4.18 km</desc>
<time>2010-03-03T16:40:19.77</time>
<name>2586</name>
</trkpt>
<trkpt lat="48.941577" lon="8.691760">
<ele>414.5</ele>
<speed>1.6</speed>
<course>180.0</course>
<desc>Speed 1.6 km/h Distance 4.18 km</desc>
<time>2010-03-03T16:40:20.77</time>
<name>2587</name>
</trkpt>
<trkpt lat="48.941573" lon="8.691760">
<ele>414.5</ele>
<speed>1.3</speed>
<course>147.7</course>
<desc>Speed 1.3 km/h Distance 4.18 km</desc>
<time>2010-03-03T16:40:21.77</time>
<name>2588</name>
</trkpt>
<trkpt lat="48.941568" lon="8.691765">
<ele>414.5</ele>
<speed>2.1</speed>
<course>140.6</course>
<desc>Speed 2.1 km/h Distance 4.18 km</desc>
<time>2010-03-03T16:40:22.77</time>
<name>2589</name>
</trkpt>
<trkpt lat="48.941562" lon="8.691773">
<ele>414.0</ele>
<speed>2.4</speed>
<course>119.7</course>
<desc>Speed 2.4 km/h Distance 4.18 km</desc>
<time>2010-03-03T16:40:23.85</time>
<name>2590</name>
</trkpt>
<trkpt lat="48.941542" lon="8.691827">
<ele>414.0</ele>
<speed>2.6</speed>
<course>161.2</course>
<desc>Speed 2.6 km/h Distance 4.18 km</desc>
<time>2010-03-03T16:40:25.79</time>
<name>2591</name>
</trkpt>
<trkpt lat="48.941535" lon="8.691830">
<ele>413.5</ele>
<speed>3.2</speed>
<course>192.6</course>
<desc>Speed 3.2 km/h Distance 4.18 km</desc>
<time>2010-03-03T16:40:26.79</time>
<name>2592</name>
</trkpt>
<trkpt lat="48.941530" lon="8.691828">
<ele>413.5</ele>
<speed>1.5</speed>
<course>301.4</course>
<desc>Speed 1.5 km/h Distance 4.18 km</desc>
<time>2010-03-03T16:40:27.79</time>
<name>2593</name>
</trkpt>
<trkpt lat="48.941537" lon="8.691812">
<ele>413.0</ele>
<speed>5.7</speed>
<course>164.5</course>
<desc>Speed 5.7 km/h Distance 4.19 km</desc>
<time>2010-03-03T16:40:28.80</time>
<name>2594</name>
</trkpt>
<trkpt lat="48.941525" lon="8.691817">
<ele>413.0</ele>
<speed>2.8</speed>
<course>168.8</course>
<desc>Speed 2.8 km/h Distance 4.19 km</desc>
<time>2010-03-03T16:40:29.80</time>
<name>2595</name>
</trkpt>
<trkpt lat="48.941513" lon="8.691820">
<ele>413.5</ele>
<speed>4.1</speed>
<course>139.8</course>
<desc>Speed 4.1 km/h Distance 4.19 km</desc>
<time>2010-03-03T16:40:30.80</time>
<name>2596</name>
</trkpt>
<trkpt lat="48.941502" lon="8.691835">
<ele>412.5</ele>
<speed>3.1</speed>
<course>155.1</course>
<desc>Speed 3.1 km/h Distance 4.19 km</desc>
<time>2010-03-03T16:40:31.80</time>
<name>2597</name>
</trkpt>
<trkpt lat="48.941490" lon="8.691843">
<ele>411.0</ele>
<speed>3.7</speed>
<course>122.4</course>
<desc>Speed 3.7 km/h Distance 4.19 km</desc>
<time>2010-03-03T16:40:32.80</time>
<name>2598</name>
</trkpt>
<trkpt lat="48.941482" lon="8.691863">
<ele>412.0</ele>
<speed>3.3</speed>
<course>154.5</course>
<desc>Speed 3.3 km/h Distance 4.19 km</desc>
<time>2010-03-03T16:40:33.80</time>
<name>2599</name>
</trkpt>
<trkpt lat="48.941463" lon="8.691877">
<ele>412.0</ele>
<speed>5.5</speed>
<course>22.2</course>
<desc>Speed 5.5 km/h Distance 4.20 km</desc>
<time>2010-03-03T16:40:34.80</time>
<name>2600</name>
</trkpt>
<trkpt lat="48.941468" lon="8.691880">
<ele>410.5</ele>
<speed>1.8</speed>
<course>77.7</course>
<desc>Speed 1.8 km/h Distance 4.20 km</desc>
<time>2010-03-03T16:40:35.80</time>
<name>2601</name>
</trkpt>
<trkpt lat="48.941470" lon="8.691892">
<ele>410.0</ele>
<speed>1.8</speed>
<course>146.7</course>
<desc>Speed 1.8 km/h Distance 4.20 km</desc>
<time>2010-03-03T16:40:36.80</time>
<name>2602</name>
</trkpt>
<trkpt lat="48.941455" lon="8.691907">
<ele>410.0</ele>
<speed>6.4</speed>
<course>142.5</course>
<desc>Speed 6.4 km/h Distance 4.20 km</desc>
<time>2010-03-03T16:40:37.80</time>
<name>2603</name>
</trkpt>
<trkpt lat="48.941435" lon="8.691930">
<ele>410.0</ele>
<speed>8.6</speed>
<course>140.6</course>
<desc>Speed 8.6 km/h Distance 4.20 km</desc>
<time>2010-03-03T16:40:38.84</time>
<name>2604</name>
</trkpt>
<trkpt lat="48.941415" lon="8.691955">
<ele>410.0</ele>
<speed>6.6</speed>
<course>127.3</course>
<desc>Speed 6.6 km/h Distance 4.20 km</desc>
<time>2010-03-03T16:40:39.82</time>
<name>2605</name>
</trkpt>
<trkpt lat="48.941400" lon="8.691985">
<ele>410.0</ele>
<speed>6.3</speed>
<course>137.4</course>
<desc>Speed 6.3 km/h Distance 4.21 km</desc>
<time>2010-03-03T16:40:40.82</time>
<name>2606</name>
</trkpt>
<trkpt lat="48.941383" lon="8.692008">
<ele>409.5</ele>
<speed>6.9</speed>
<course>144.1</course>
<desc>Speed 6.9 km/h Distance 4.21 km</desc>
<time>2010-03-03T16:40:41.82</time>
<name>2607</name>
</trkpt>
<trkpt lat="48.941318" lon="8.692080">
<ele>409.0</ele>
<speed>5.2</speed>
<course>158.8</course>
<desc>Speed 5.2 km/h Distance 4.22 km</desc>
<time>2010-03-03T16:40:43.82</time>
<name>2608</name>
</trkpt>
<trkpt lat="48.941273" lon="8.692107">
<ele>409.5</ele>
<speed>3.4</speed>
<course>144.2</course>
<desc>Speed 3.4 km/h Distance 4.22 km</desc>
<time>2010-03-03T16:40:45.82</time>
<name>2609</name>
</trkpt>
<trkpt lat="48.941257" lon="8.692125">
<ele>410.0</ele>
<speed>5.0</speed>
<course>154.0</course>
<desc>Speed 5.0 km/h Distance 4.23 km</desc>
<time>2010-03-03T16:40:46.82</time>
<name>2610</name>
</trkpt>
<trkpt lat="48.941243" lon="8.692135">
<ele>412.0</ele>
<speed>4.0</speed>
<course>167.4</course>
<desc>Speed 4.0 km/h Distance 4.23 km</desc>
<time>2010-03-03T16:40:47.82</time>
<name>2611</name>
</trkpt>
<trkpt lat="48.941233" lon="8.692138">
<ele>412.0</ele>
<speed>4.0</speed>
<course>150.6</course>
<desc>Speed 4.0 km/h Distance 4.23 km</desc>
<time>2010-03-03T16:40:48.82</time>
<name>2612</name>
</trkpt>
<trkpt lat="48.941222" lon="8.692148">
<ele>412.0</ele>
<speed>4.0</speed>
<course>140.6</course>
<desc>Speed 4.0 km/h Distance 4.23 km</desc>
<time>2010-03-03T16:40:49.82</time>
<name>2613</name>
</trkpt>
<trkpt lat="48.941162" lon="8.692223">
<ele>408.0</ele>
<speed>4.5</speed>
<course>221.4</course>
<desc>Speed 4.5 km/h Distance 4.24 km</desc>
<time>2010-03-03T16:40:51.82</time>
<name>2614</name>
</trkpt>
<trkpt lat="48.941157" lon="8.692217">
<ele>405.5</ele>
<speed>1.9</speed>
<course>167.4</course>
<desc>Speed 1.9 km/h Distance 4.24 km</desc>
<time>2010-03-03T16:40:52.82</time>
<name>2615</name>
</trkpt>
<trkpt lat="48.941155" lon="8.692217">
<ele>405.0</ele>
<speed>0.4</speed>
<course>98.3</course>
<desc>Speed 0.4 km/h Distance 4.24 km</desc>
<time>2010-03-03T16:40:53.82</time>
<name>2616</name>
</trkpt>
<trkpt lat="48.941152" lon="8.692252">
<ele>404.5</ele>
<speed>5.7</speed>
<course>154.8</course>
<desc>Speed 5.7 km/h Distance 4.24 km</desc>
<time>2010-03-03T16:40:55.82</time>
<name>2617</name>
</trkpt>
<trkpt lat="48.941140" lon="8.692260">
<ele>404.0</ele>
<speed>4.9</speed>
<course>140.9</course>
<desc>Speed 4.9 km/h Distance 4.24 km</desc>
<time>2010-03-03T16:40:56.82</time>
<name>2618</name>
</trkpt>
<trkpt lat="48.941070" lon="8.692347">
<ele>405.0</ele>
<speed>4.5</speed>
<course>154.8</course>
<desc>Speed 4.5 km/h Distance 4.25 km</desc>
<time>2010-03-03T16:40:58.82</time>
<name>2619</name>
</trkpt>
<trkpt lat="48.941047" lon="8.692363">
<ele>404.5</ele>
<speed>4.6</speed>
<course>167.8</course>
<desc>Speed 4.6 km/h Distance 4.26 km</desc>
<time>2010-03-03T16:40:59.82</time>
<name>2620</name>
</trkpt>
<trkpt lat="48.941032" lon="8.692368">
<ele>404.0</ele>
<speed>4.0</speed>
<course>158.5</course>
<desc>Speed 4.0 km/h Distance 4.26 km</desc>
<time>2010-03-03T16:41:00.82</time>
<name>2621</name>
</trkpt>
<trkpt lat="48.941015" lon="8.692378">
<ele>403.5</ele>
<speed>5.3</speed>
<course>159.0</course>
<desc>Speed 5.3 km/h Distance 4.26 km</desc>
<time>2010-03-03T16:41:01.82</time>
<name>2622</name>
</trkpt>
<trkpt lat="48.940995" lon="8.692390">
<ele>404.0</ele>
<speed>5.0</speed>
<course>144.2</course>
<desc>Speed 5.0 km/h Distance 4.26 km</desc>
<time>2010-03-03T16:41:02.82</time>
<name>2623</name>
</trkpt>
<trkpt lat="48.940978" lon="8.692408">
<ele>404.0</ele>
<speed>5.0</speed>
<course>144.5</course>
<desc>Speed 5.0 km/h Distance 4.27 km</desc>
<time>2010-03-03T16:41:03.82</time>
<name>2624</name>
</trkpt>
<trkpt lat="48.940958" lon="8.692430">
<ele>404.0</ele>
<speed>5.2</speed>
<course>142.5</course>
<desc>Speed 5.2 km/h Distance 4.27 km</desc>
<time>2010-03-03T16:41:04.82</time>
<name>2625</name>
</trkpt>
<trkpt lat="48.940948" lon="8.692442">
<ele>403.5</ele>
<speed>4.8</speed>
<course>146.7</course>
<desc>Speed 4.8 km/h Distance 4.27 km</desc>
<time>2010-03-03T16:41:05.82</time>
<name>2626</name>
</trkpt>
<trkpt lat="48.940900" lon="8.692490">
<ele>404.5</ele>
<speed>4.9</speed>
<course>156.3</course>
<desc>Speed 4.9 km/h Distance 4.28 km</desc>
<time>2010-03-03T16:41:07.82</time>
<name>2627</name>
</trkpt>
<trkpt lat="48.940885" lon="8.692500">
<ele>404.5</ele>
<speed>5.0</speed>
<course>150.2</course>
<desc>Speed 5.0 km/h Distance 4.28 km</desc>
<time>2010-03-03T16:41:08.82</time>
<name>2628</name>
</trkpt>
<trkpt lat="48.940872" lon="8.692512">
<ele>404.5</ele>
<speed>5.0</speed>
<course>146.8</course>
<desc>Speed 5.0 km/h Distance 4.28 km</desc>
<time>2010-03-03T16:41:09.82</time>
<name>2629</name>
</trkpt>
<trkpt lat="48.940858" lon="8.692525">
<ele>404.0</ele>
<speed>5.1</speed>
<course>149.4</course>
<desc>Speed 5.1 km/h Distance 4.28 km</desc>
<time>2010-03-03T16:41:10.82</time>
<name>2630</name>
</trkpt>
<trkpt lat="48.940842" lon="8.692540">
<ele>404.0</ele>
<speed>5.3</speed>
<course>134.1</course>
<desc>Speed 5.3 km/h Distance 4.28 km</desc>
<time>2010-03-03T16:41:11.82</time>
<name>2631</name>
</trkpt>
<trkpt lat="48.940830" lon="8.692558">
<ele>405.5</ele>
<speed>5.0</speed>
<course>144.6</course>
<desc>Speed 5.0 km/h Distance 4.29 km</desc>
<time>2010-03-03T16:41:12.82</time>
<name>2632</name>
</trkpt>
<trkpt lat="48.940810" lon="8.692580">
<ele>406.0</ele>
<speed>5.7</speed>
<course>156.3</course>
<desc>Speed 5.7 km/h Distance 4.29 km</desc>
<time>2010-03-03T16:41:13.82</time>
<name>2633</name>
</trkpt>
<trkpt lat="48.940795" lon="8.692590">
<ele>406.5</ele>
<speed>6.0</speed>
<course>150.6</course>
<desc>Speed 6.0 km/h Distance 4.29 km</desc>
<time>2010-03-03T16:41:14.82</time>
<name>2634</name>
</trkpt>
<trkpt lat="48.940783" lon="8.692600">
<ele>407.0</ele>
<speed>4.5</speed>
<course>146.8</course>
<desc>Speed 4.5 km/h Distance 4.29 km</desc>
<time>2010-03-03T16:41:15.82</time>
<name>2635</name>
</trkpt>
<trkpt lat="48.940770" lon="8.692613">
<ele>407.5</ele>
<speed>6.0</speed>
<course>146.7</course>
<desc>Speed 6.0 km/h Distance 4.29 km</desc>
<time>2010-03-03T16:41:16.82</time>
<name>2636</name>
</trkpt>
<trkpt lat="48.940757" lon="8.692627">
<ele>407.5</ele>
<speed>6.3</speed>
<course>146.6</course>
<desc>Speed 6.3 km/h Distance 4.30 km</desc>
<time>2010-03-03T16:41:17.82</time>
<name>2637</name>
</trkpt>
<trkpt lat="48.940743" lon="8.692640">
<ele>407.5</ele>
<speed>6.1</speed>
<course>150.0</course>
<desc>Speed 6.1 km/h Distance 4.30 km</desc>
<time>2010-03-03T16:41:18.82</time>
<name>2638</name>
</trkpt>
<trkpt lat="48.940730" lon="8.692652">
<ele>407.5</ele>
<speed>5.3</speed>
<course>146.6</course>
<desc>Speed 5.3 km/h Distance 4.30 km</desc>
<time>2010-03-03T16:41:19.82</time>
<name>2639</name>
</trkpt>
<trkpt lat="48.940718" lon="8.692663">
<ele>407.5</ele>
<speed>5.5</speed>
<course>143.4</course>
<desc>Speed 5.5 km/h Distance 4.30 km</desc>
<time>2010-03-03T16:41:20.82</time>
<name>2640</name>
</trkpt>
<trkpt lat="48.940705" lon="8.692678">
<ele>409.5</ele>
<speed>4.5</speed>
<course>148.9</course>
<desc>Speed 4.5 km/h Distance 4.30 km</desc>
<time>2010-03-03T16:41:21.82</time>
<name>2641</name>
</trkpt>
<trkpt lat="48.940685" lon="8.692697">
<ele>409.5</ele>
<speed>6.2</speed>
<course>141.1</course>
<desc>Speed 6.2 km/h Distance 4.30 km</desc>
<time>2010-03-03T16:41:22.82</time>
<name>2642</name>
</trkpt>
<trkpt lat="48.940663" lon="8.692723">
<ele>409.5</ele>
<speed>5.5</speed>
<course>137.1</course>
<desc>Speed 5.5 km/h Distance 4.31 km</desc>
<time>2010-03-03T16:41:23.82</time>
<name>2643</name>
</trkpt>
<trkpt lat="48.940643" lon="8.692752">
<ele>409.0</ele>
<speed>5.9</speed>
<course>144.2</course>
<desc>Speed 5.9 km/h Distance 4.31 km</desc>
<time>2010-03-03T16:41:24.82</time>
<name>2644</name>
</trkpt>
<trkpt lat="48.940627" lon="8.692770">
<ele>408.5</ele>
<speed>4.9</speed>
<course>143.1</course>
<desc>Speed 4.9 km/h Distance 4.31 km</desc>
<time>2010-03-03T16:41:25.82</time>
<name>2645</name>
</trkpt>
<trkpt lat="48.940615" lon="8.692783">
<ele>408.5</ele>
<speed>5.9</speed>
<course>146.6</course>
<desc>Speed 5.9 km/h Distance 4.31 km</desc>
<time>2010-03-03T16:41:26.82</time>
<name>2646</name>
</trkpt>
<trkpt lat="48.940603" lon="8.692795">
<ele>408.5</ele>
<speed>5.4</speed>
<course>136.7</course>
<desc>Speed 5.4 km/h Distance 4.32 km</desc>
<time>2010-03-03T16:41:27.82</time>
<name>2647</name>
</trkpt>
<trkpt lat="48.940592" lon="8.692812">
<ele>408.0</ele>
<speed>5.1</speed>
<course>135.4</course>
<desc>Speed 5.1 km/h Distance 4.32 km</desc>
<time>2010-03-03T16:41:28.82</time>
<name>2648</name>
</trkpt>
<trkpt lat="48.940582" lon="8.692827">
<ele>408.5</ele>
<speed>5.4</speed>
<course>141.3</course>
<desc>Speed 5.4 km/h Distance 4.32 km</desc>
<time>2010-03-03T16:41:29.82</time>
<name>2649</name>
</trkpt>
<trkpt lat="48.940567" lon="8.692845">
<ele>408.0</ele>
<speed>5.2</speed>
<course>141.2</course>
<desc>Speed 5.2 km/h Distance 4.32 km</desc>
<time>2010-03-03T16:41:30.82</time>
<name>2650</name>
</trkpt>
<trkpt lat="48.940552" lon="8.692863">
<ele>408.0</ele>
<speed>5.9</speed>
<course>140.6</course>
<desc>Speed 5.9 km/h Distance 4.32 km</desc>
<time>2010-03-03T16:41:31.82</time>
<name>2651</name>
</trkpt>
<trkpt lat="48.940538" lon="8.692880">
<ele>408.0</ele>
<speed>5.6</speed>
<course>139.8</course>
<desc>Speed 5.6 km/h Distance 4.33 km</desc>
<time>2010-03-03T16:41:32.82</time>
<name>2652</name>
</trkpt>
<trkpt lat="48.940527" lon="8.692895">
<ele>408.0</ele>
<speed>5.8</speed>
<course>137.8</course>
<desc>Speed 5.8 km/h Distance 4.33 km</desc>
<time>2010-03-03T16:41:33.82</time>
<name>2653</name>
</trkpt>
<trkpt lat="48.940513" lon="8.692913">
<ele>407.5</ele>
<speed>5.5</speed>
<course>132.4</course>
<desc>Speed 5.5 km/h Distance 4.33 km</desc>
<time>2010-03-03T16:41:34.82</time>
<name>2654</name>
</trkpt>
<trkpt lat="48.940503" lon="8.692930">
<ele>407.5</ele>
<speed>5.9</speed>
<course>136.9</course>
<desc>Speed 5.9 km/h Distance 4.33 km</desc>
<time>2010-03-03T16:41:35.82</time>
<name>2655</name>
</trkpt>
<trkpt lat="48.940492" lon="8.692947">
<ele>407.5</ele>
<speed>5.9</speed>
<course>135.5</course>
<desc>Speed 5.9 km/h Distance 4.33 km</desc>
<time>2010-03-03T16:41:36.82</time>
<name>2656</name>
</trkpt>
<trkpt lat="48.940478" lon="8.692967">
<ele>407.0</ele>
<speed>6.1</speed>
<course>138.9</course>
<desc>Speed 6.1 km/h Distance 4.34 km</desc>
<time>2010-03-03T16:41:37.82</time>
<name>2657</name>
</trkpt>
<trkpt lat="48.940463" lon="8.692987">
<ele>407.0</ele>
<speed>5.9</speed>
<course>133.1</course>
<desc>Speed 5.9 km/h Distance 4.34 km</desc>
<time>2010-03-03T16:41:38.82</time>
<name>2658</name>
</trkpt>
<trkpt lat="48.940450" lon="8.693008">
<ele>406.5</ele>
<speed>5.9</speed>
<course>133.6</course>
<desc>Speed 5.9 km/h Distance 4.34 km</desc>
<time>2010-03-03T16:41:39.82</time>
<name>2659</name>
</trkpt>
<trkpt lat="48.940433" lon="8.693035">
<ele>406.5</ele>
<speed>7.9</speed>
<course>139.5</course>
<desc>Speed 7.9 km/h Distance 4.34 km</desc>
<time>2010-03-03T16:41:40.82</time>
<name>2660</name>
</trkpt>
<trkpt lat="48.940417" lon="8.693057">
<ele>405.5</ele>
<speed>6.2</speed>
<course>152.2</course>
<desc>Speed 6.2 km/h Distance 4.34 km</desc>
<time>2010-03-03T16:41:41.82</time>
<name>2661</name>
</trkpt>
<trkpt lat="48.940400" lon="8.693070">
<ele>404.5</ele>
<speed>5.9</speed>
<course>174.7</course>
<desc>Speed 5.9 km/h Distance 4.35 km</desc>
<time>2010-03-03T16:41:42.82</time>
<name>2662</name>
</trkpt>
<trkpt lat="48.940387" lon="8.693072">
<ele>404.0</ele>
<speed>5.8</speed>
<course>176.2</course>
<desc>Speed 5.8 km/h Distance 4.35 km</desc>
<time>2010-03-03T16:41:43.82</time>
<name>2663</name>
</trkpt>
<trkpt lat="48.940372" lon="8.693073">
<ele>404.0</ele>
<speed>5.9</speed>
<course>182.8</course>
<desc>Speed 5.9 km/h Distance 4.35 km</desc>
<time>2010-03-03T16:41:44.82</time>
<name>2664</name>
</trkpt>
<trkpt lat="48.940355" lon="8.693072">
<ele>403.5</ele>
<speed>6.3</speed>
<course>183.8</course>
<desc>Speed 6.3 km/h Distance 4.35 km</desc>
<time>2010-03-03T16:41:45.82</time>
<name>2665</name>
</trkpt>
<trkpt lat="48.940340" lon="8.693070">
<ele>403.5</ele>
<speed>5.9</speed>
<course>188.8</course>
<desc>Speed 5.9 km/h Distance 4.35 km</desc>
<time>2010-03-03T16:41:46.82</time>
<name>2666</name>
</trkpt>
<trkpt lat="48.940325" lon="8.693067">
<ele>403.0</ele>
<speed>5.8</speed>
<course>189.7</course>
<desc>Speed 5.8 km/h Distance 4.36 km</desc>
<time>2010-03-03T16:41:47.82</time>
<name>2667</name>
</trkpt>
<trkpt lat="48.940312" lon="8.693063">
<ele>403.0</ele>
<speed>5.6</speed>
<course>189.0</course>
<desc>Speed 5.6 km/h Distance 4.36 km</desc>
<time>2010-03-03T16:41:48.82</time>
<name>2668</name>
</trkpt>
<trkpt lat="48.940298" lon="8.693060">
<ele>402.5</ele>
<speed>5.8</speed>
<course>188.1</course>
<desc>Speed 5.8 km/h Distance 4.36 km</desc>
<time>2010-03-03T16:41:49.82</time>
<name>2669</name>
</trkpt>
<trkpt lat="48.940283" lon="8.693057">
<ele>402.5</ele>
<speed>6.0</speed>
<course>188.1</course>
<desc>Speed 6.0 km/h Distance 4.36 km</desc>
<time>2010-03-03T16:41:50.82</time>
<name>2670</name>
</trkpt>
<trkpt lat="48.940268" lon="8.693053">
<ele>402.0</ele>
<speed>6.0</speed>
<course>183.8</course>
<desc>Speed 6.0 km/h Distance 4.36 km</desc>
<time>2010-03-03T16:41:51.82</time>
<name>2671</name>
</trkpt>
<trkpt lat="48.940253" lon="8.693052">
<ele>401.5</ele>
<speed>6.0</speed>
<course>178.1</course>
<desc>Speed 6.0 km/h Distance 4.36 km</desc>
<time>2010-03-03T16:41:52.82</time>
<name>2672</name>
</trkpt>
<trkpt lat="48.940238" lon="8.693052">
<ele>401.0</ele>
<speed>6.2</speed>
<course>178.1</course>
<desc>Speed 6.2 km/h Distance 4.36 km</desc>
<time>2010-03-03T16:41:53.82</time>
<name>2673</name>
</trkpt>
<trkpt lat="48.940223" lon="8.693052">
<ele>400.5</ele>
<speed>6.2</speed>
<course>183.8</course>
<desc>Speed 6.2 km/h Distance 4.37 km</desc>
<time>2010-03-03T16:41:54.82</time>
<name>2674</name>
</trkpt>
<trkpt lat="48.940208" lon="8.693050">
<ele>400.5</ele>
<speed>6.1</speed>
<course>189.0</course>
<desc>Speed 6.1 km/h Distance 4.37 km</desc>
<time>2010-03-03T16:41:55.82</time>
<name>2675</name>
</trkpt>
<trkpt lat="48.940195" lon="8.693047">
<ele>400.5</ele>
<speed>5.1</speed>
<course>217.2</course>
<desc>Speed 5.1 km/h Distance 4.37 km</desc>
<time>2010-03-03T16:41:56.82</time>
<name>2676</name>
</trkpt>
<trkpt lat="48.940193" lon="8.693045">
<ele>400.0</ele>
<speed>1.3</speed>
<course>128.1</course>
<desc>Speed 1.3 km/h Distance 4.37 km</desc>
<time>2010-03-03T16:41:57.82</time>
<name>2677</name>
</trkpt>
<trkpt lat="48.940192" lon="8.693048">
<ele>399.5</ele>
<speed>0.3</speed>
<course>128.1</course>
<desc>Speed 0.3 km/h Distance 4.37 km</desc>
<time>2010-03-03T16:41:58.82</time>
<name>2678</name>
</trkpt>
<trkpt lat="48.940192" lon="8.693048">
<ele>399.5</ele>
<speed>0.5</speed>
<course>128.1</course>
<desc>Speed 0.5 km/h Distance 4.37 km</desc>
<time>2010-03-03T16:41:59.82</time>
<name>2679</name>
</trkpt>
<trkpt lat="48.940192" lon="8.693048">
<ele>399.5</ele>
<speed>0.2</speed>
<course>128.1</course>
<desc>Speed 0.2 km/h Distance 4.37 km</desc>
<time>2010-03-03T16:42:00.82</time>
<name>2680</name>
</trkpt>
<trkpt lat="48.940192" lon="8.693048">
<ele>399.5</ele>
<speed>0.1</speed>
<course>128.1</course>
<desc>Speed 0.1 km/h Distance 4.37 km</desc>
<time>2010-03-03T16:42:01.82</time>
<name>2681</name>
</trkpt>
<trkpt lat="48.940192" lon="8.693048">
<ele>399.5</ele>
<speed>0.4</speed>
<course>128.1</course>
<desc>Speed 0.4 km/h Distance 4.37 km</desc>
<time>2010-03-03T16:42:02.82</time>
<name>2682</name>
</trkpt>
<trkpt lat="48.940192" lon="8.693050">
<ele>399.5</ele>
<speed>0.1</speed>
<course>128.1</course>
<desc>Speed 0.1 km/h Distance 4.37 km</desc>
<time>2010-03-03T16:42:03.82</time>
<name>2683</name>
</trkpt>
<trkpt lat="48.940192" lon="8.693050">
<ele>399.5</ele>
<speed>0.2</speed>
<course>128.1</course>
<desc>Speed 0.2 km/h Distance 4.37 km</desc>
<time>2010-03-03T16:42:04.82</time>
<name>2684</name>
</trkpt>
<trkpt lat="48.940192" lon="8.693050">
<ele>399.5</ele>
<speed>0.2</speed>
<course>128.1</course>
<desc>Speed 0.2 km/h Distance 4.37 km</desc>
<time>2010-03-03T16:42:05.82</time>
<name>2685</name>
</trkpt>
<trkpt lat="48.940192" lon="8.693050">
<ele>399.5</ele>
<speed>0.4</speed>
<course>128.1</course>
<desc>Speed 0.4 km/h Distance 4.37 km</desc>
<time>2010-03-03T16:42:06.82</time>
<name>2686</name>
</trkpt>
<trkpt lat="48.940192" lon="8.693050">
<ele>399.5</ele>
<speed>0.1</speed>
<course>128.1</course>
<desc>Speed 0.1 km/h Distance 4.37 km</desc>
<time>2010-03-03T16:42:07.82</time>
<name>2687</name>
</trkpt>
<trkpt lat="48.940192" lon="8.693052">
<ele>399.5</ele>
<speed>0.2</speed>
<course>146.3</course>
<desc>Speed 0.2 km/h Distance 4.37 km</desc>
<time>2010-03-03T16:42:08.82</time>
<name>2688</name>
</trkpt>
<trkpt lat="48.940188" lon="8.693055">
<ele>399.5</ele>
<speed>1.5</speed>
<course>189.6</course>
<desc>Speed 1.5 km/h Distance 4.37 km</desc>
<time>2010-03-03T16:42:09.82</time>
<name>2689</name>
</trkpt>
<trkpt lat="48.940180" lon="8.693053">
<ele>400.0</ele>
<speed>3.6</speed>
<course>189.7</course>
<desc>Speed 3.6 km/h Distance 4.37 km</desc>
<time>2010-03-03T16:42:10.82</time>
<name>2690</name>
</trkpt>
<trkpt lat="48.940167" lon="8.693050">
<ele>400.0</ele>
<speed>5.7</speed>
<course>183.8</course>
<desc>Speed 5.7 km/h Distance 4.37 km</desc>
<time>2010-03-03T16:42:11.82</time>
<name>2691</name>
</trkpt>
<trkpt lat="48.940152" lon="8.693048">
<ele>399.5</ele>
<speed>6.2</speed>
<course>187.7</course>
<desc>Speed 6.2 km/h Distance 4.38 km</desc>
<time>2010-03-03T16:42:12.82</time>
<name>2692</name>
</trkpt>
<trkpt lat="48.940135" lon="8.693045">
<ele>399.5</ele>
<speed>6.2</speed>
<course>183.8</course>
<desc>Speed 6.2 km/h Distance 4.38 km</desc>
<time>2010-03-03T16:42:13.82</time>
<name>2693</name>
</trkpt>
<trkpt lat="48.940120" lon="8.693043">
<ele>399.5</ele>
<speed>6.2</speed>
<course>182.8</course>
<desc>Speed 6.2 km/h Distance 4.38 km</desc>
<time>2010-03-03T16:42:14.82</time>
<name>2694</name>
</trkpt>
<trkpt lat="48.940103" lon="8.693042">
<ele>399.5</ele>
<speed>6.2</speed>
<course>188.1</course>
<desc>Speed 6.2 km/h Distance 4.38 km</desc>
<time>2010-03-03T16:42:15.82</time>
<name>2695</name>
</trkpt>
<trkpt lat="48.940088" lon="8.693038">
<ele>399.5</ele>
<speed>6.1</speed>
<course>187.7</course>
<desc>Speed 6.1 km/h Distance 4.38 km</desc>
<time>2010-03-03T16:42:16.82</time>
<name>2696</name>
</trkpt>
<trkpt lat="48.940072" lon="8.693035">
<ele>399.5</ele>
<speed>6.1</speed>
<course>180.0</course>
<desc>Speed 6.1 km/h Distance 4.38 km</desc>
<time>2010-03-03T16:42:17.82</time>
<name>2697</name>
</trkpt>
<trkpt lat="48.940055" lon="8.693035">
<ele>399.5</ele>
<speed>6.3</speed>
<course>183.8</course>
<desc>Speed 6.3 km/h Distance 4.39 km</desc>
<time>2010-03-03T16:42:18.82</time>
<name>2698</name>
</trkpt>
<trkpt lat="48.940040" lon="8.693033">
<ele>399.0</ele>
<speed>6.0</speed>
<course>187.1</course>
<desc>Speed 6.0 km/h Distance 4.39 km</desc>
<time>2010-03-03T16:42:19.82</time>
<name>2699</name>
</trkpt>
<trkpt lat="48.940023" lon="8.693030">
<ele>399.0</ele>
<speed>6.4</speed>
<course>188.8</course>
<desc>Speed 6.4 km/h Distance 4.39 km</desc>
<time>2010-03-03T16:42:20.82</time>
<name>2700</name>
</trkpt>
<trkpt lat="48.940008" lon="8.693027">
<ele>399.0</ele>
<speed>6.1</speed>
<course>188.1</course>
<desc>Speed 6.1 km/h Distance 4.39 km</desc>
<time>2010-03-03T16:42:21.82</time>
<name>2701</name>
</trkpt>
<trkpt lat="48.939993" lon="8.693023">
<ele>399.0</ele>
<speed>6.2</speed>
<course>183.8</course>
<desc>Speed 6.2 km/h Distance 4.39 km</desc>
<time>2010-03-03T16:42:22.82</time>
<name>2702</name>
</trkpt>
<trkpt lat="48.939978" lon="8.693022">
<ele>398.5</ele>
<speed>6.2</speed>
<course>196.6</course>
<desc>Speed 6.2 km/h Distance 4.39 km</desc>
<time>2010-03-03T16:42:23.82</time>
<name>2703</name>
</trkpt>
<trkpt lat="48.939963" lon="8.693015">
<ele>398.5</ele>
<speed>6.4</speed>
<course>188.8</course>
<desc>Speed 6.4 km/h Distance 4.40 km</desc>
<time>2010-03-03T16:42:24.82</time>
<name>2704</name>
</trkpt>
<trkpt lat="48.939948" lon="8.693012">
<ele>398.0</ele>
<speed>6.1</speed>
<course>188.8</course>
<desc>Speed 6.1 km/h Distance 4.40 km</desc>
<time>2010-03-03T16:42:25.82</time>
<name>2705</name>
</trkpt>
<trkpt lat="48.939933" lon="8.693008">
<ele>398.0</ele>
<speed>6.1</speed>
<course>187.5</course>
<desc>Speed 6.1 km/h Distance 4.40 km</desc>
<time>2010-03-03T16:42:26.82</time>
<name>2706</name>
</trkpt>
<trkpt lat="48.939918" lon="8.693005">
<ele>398.0</ele>
<speed>6.2</speed>
<course>187.5</course>
<desc>Speed 6.2 km/h Distance 4.40 km</desc>
<time>2010-03-03T16:42:27.82</time>
<name>2707</name>
</trkpt>
<trkpt lat="48.939903" lon="8.693002">
<ele>397.5</ele>
<speed>6.2</speed>
<course>193.5</course>
<desc>Speed 6.2 km/h Distance 4.40 km</desc>
<time>2010-03-03T16:42:28.82</time>
<name>2708</name>
</trkpt>
<trkpt lat="48.939890" lon="8.692997">
<ele>397.0</ele>
<speed>6.3</speed>
<course>187.5</course>
<desc>Speed 6.3 km/h Distance 4.40 km</desc>
<time>2010-03-03T16:42:29.82</time>
<name>2709</name>
</trkpt>
<trkpt lat="48.939875" lon="8.692993">
<ele>397.0</ele>
<speed>6.2</speed>
<course>193.5</course>
<desc>Speed 6.2 km/h Distance 4.41 km</desc>
<time>2010-03-03T16:42:30.82</time>
<name>2710</name>
</trkpt>
<trkpt lat="48.939862" lon="8.692988">
<ele>396.5</ele>
<speed>6.3</speed>
<course>192.2</course>
<desc>Speed 6.3 km/h Distance 4.41 km</desc>
<time>2010-03-03T16:42:31.82</time>
<name>2711</name>
</trkpt>
<trkpt lat="48.939847" lon="8.692983">
<ele>396.5</ele>
<speed>6.4</speed>
<course>196.6</course>
<desc>Speed 6.4 km/h Distance 4.41 km</desc>
<time>2010-03-03T16:42:32.82</time>
<name>2712</name>
</trkpt>
<trkpt lat="48.939832" lon="8.692977">
<ele>396.5</ele>
<speed>6.3</speed>
<course>191.7</course>
<desc>Speed 6.3 km/h Distance 4.41 km</desc>
<time>2010-03-03T16:42:33.82</time>
<name>2713</name>
</trkpt>
<trkpt lat="48.939817" lon="8.692972">
<ele>396.0</ele>
<speed>6.1</speed>
<course>192.2</course>
<desc>Speed 6.1 km/h Distance 4.41 km</desc>
<time>2010-03-03T16:42:34.82</time>
<name>2714</name>
</trkpt>
<trkpt lat="48.939802" lon="8.692967">
<ele>396.0</ele>
<speed>6.2</speed>
<course>188.1</course>
<desc>Speed 6.2 km/h Distance 4.41 km</desc>
<time>2010-03-03T16:42:35.82</time>
<name>2715</name>
</trkpt>
<trkpt lat="48.939787" lon="8.692963">
<ele>396.0</ele>
<speed>6.2</speed>
<course>182.8</course>
<desc>Speed 6.2 km/h Distance 4.42 km</desc>
<time>2010-03-03T16:42:36.82</time>
<name>2716</name>
</trkpt>
<trkpt lat="48.939770" lon="8.692962">
<ele>396.0</ele>
<speed>6.2</speed>
<course>187.5</course>
<desc>Speed 6.2 km/h Distance 4.42 km</desc>
<time>2010-03-03T16:42:37.82</time>
<name>2717</name>
</trkpt>
<trkpt lat="48.939755" lon="8.692958">
<ele>396.0</ele>
<speed>6.2</speed>
<course>188.1</course>
<desc>Speed 6.2 km/h Distance 4.42 km</desc>
<time>2010-03-03T16:42:38.82</time>
<name>2718</name>
</trkpt>
<trkpt lat="48.939740" lon="8.692955">
<ele>395.5</ele>
<speed>6.3</speed>
<course>187.7</course>
<desc>Speed 6.3 km/h Distance 4.42 km</desc>
<time>2010-03-03T16:42:39.82</time>
<name>2719</name>
</trkpt>
<trkpt lat="48.939723" lon="8.692952">
<ele>395.5</ele>
<speed>6.3</speed>
<course>188.1</course>
<desc>Speed 6.3 km/h Distance 4.42 km</desc>
<time>2010-03-03T16:42:40.82</time>
<name>2720</name>
</trkpt>
<trkpt lat="48.939708" lon="8.692948">
<ele>395.0</ele>
<speed>6.2</speed>
<course>187.7</course>
<desc>Speed 6.2 km/h Distance 4.43 km</desc>
<time>2010-03-03T16:42:41.82</time>
<name>2721</name>
</trkpt>
<trkpt lat="48.939692" lon="8.692945">
<ele>395.0</ele>
<speed>6.3</speed>
<course>192.6</course>
<desc>Speed 6.3 km/h Distance 4.43 km</desc>
<time>2010-03-03T16:42:42.82</time>
<name>2722</name>
</trkpt>
<trkpt lat="48.939677" lon="8.692940">
<ele>395.0</ele>
<speed>6.4</speed>
<course>191.2</course>
<desc>Speed 6.4 km/h Distance 4.43 km</desc>
<time>2010-03-03T16:42:43.82</time>
<name>2723</name>
</trkpt>
<trkpt lat="48.939660" lon="8.692935">
<ele>395.0</ele>
<speed>6.3</speed>
<course>187.7</course>
<desc>Speed 6.3 km/h Distance 4.43 km</desc>
<time>2010-03-03T16:42:44.82</time>
<name>2724</name>
</trkpt>
<trkpt lat="48.939643" lon="8.692932">
<ele>395.0</ele>
<speed>6.3</speed>
<course>188.8</course>
<desc>Speed 6.3 km/h Distance 4.43 km</desc>
<time>2010-03-03T16:42:45.82</time>
<name>2725</name>
</trkpt>
<trkpt lat="48.939628" lon="8.692928">
<ele>395.0</ele>
<speed>6.1</speed>
<course>191.2</course>
<desc>Speed 6.1 km/h Distance 4.43 km</desc>
<time>2010-03-03T16:42:46.82</time>
<name>2726</name>
</trkpt>
<trkpt lat="48.939612" lon="8.692923">
<ele>395.0</ele>
<speed>6.2</speed>
<course>182.8</course>
<desc>Speed 6.2 km/h Distance 4.44 km</desc>
<time>2010-03-03T16:42:47.82</time>
<name>2727</name>
</trkpt>
<trkpt lat="48.939595" lon="8.692922">
<ele>394.5</ele>
<speed>6.3</speed>
<course>188.8</course>
<desc>Speed 6.3 km/h Distance 4.44 km</desc>
<time>2010-03-03T16:42:48.82</time>
<name>2728</name>
</trkpt>
<trkpt lat="48.939580" lon="8.692918">
<ele>394.5</ele>
<speed>6.3</speed>
<course>182.8</course>
<desc>Speed 6.3 km/h Distance 4.44 km</desc>
<time>2010-03-03T16:42:49.82</time>
<name>2729</name>
</trkpt>
<trkpt lat="48.939563" lon="8.692917">
<ele>394.5</ele>
<speed>6.3</speed>
<course>191.7</course>
<desc>Speed 6.3 km/h Distance 4.44 km</desc>
<time>2010-03-03T16:42:50.82</time>
<name>2730</name>
</trkpt>
<trkpt lat="48.939548" lon="8.692912">
<ele>394.5</ele>
<speed>6.3</speed>
<course>187.7</course>
<desc>Speed 6.3 km/h Distance 4.44 km</desc>
<time>2010-03-03T16:42:51.82</time>
<name>2731</name>
</trkpt>
<trkpt lat="48.939532" lon="8.692908">
<ele>394.0</ele>
<speed>6.2</speed>
<course>188.1</course>
<desc>Speed 6.2 km/h Distance 4.44 km</desc>
<time>2010-03-03T16:42:52.82</time>
<name>2732</name>
</trkpt>
<trkpt lat="48.939517" lon="8.692905">
<ele>394.0</ele>
<speed>6.2</speed>
<course>182.8</course>
<desc>Speed 6.2 km/h Distance 4.45 km</desc>
<time>2010-03-03T16:42:53.82</time>
<name>2733</name>
</trkpt>
<trkpt lat="48.939500" lon="8.692903">
<ele>394.0</ele>
<speed>6.3</speed>
<course>188.1</course>
<desc>Speed 6.3 km/h Distance 4.45 km</desc>
<time>2010-03-03T16:42:54.82</time>
<name>2734</name>
</trkpt>
<trkpt lat="48.939485" lon="8.692900">
<ele>394.0</ele>
<speed>6.4</speed>
<course>188.8</course>
<desc>Speed 6.4 km/h Distance 4.45 km</desc>
<time>2010-03-03T16:42:55.82</time>
<name>2735</name>
</trkpt>
<trkpt lat="48.939470" lon="8.692897">
<ele>394.0</ele>
<speed>6.3</speed>
<course>187.7</course>
<desc>Speed 6.3 km/h Distance 4.45 km</desc>
<time>2010-03-03T16:42:56.82</time>
<name>2736</name>
</trkpt>
<trkpt lat="48.939453" lon="8.692893">
<ele>394.0</ele>
<speed>6.3</speed>
<course>192.6</course>
<desc>Speed 6.3 km/h Distance 4.45 km</desc>
<time>2010-03-03T16:42:57.82</time>
<name>2737</name>
</trkpt>
<trkpt lat="48.939438" lon="8.692888">
<ele>394.0</ele>
<speed>6.4</speed>
<course>192.6</course>
<desc>Speed 6.4 km/h Distance 4.46 km</desc>
<time>2010-03-03T16:42:58.82</time>
<name>2738</name>
</trkpt>
<trkpt lat="48.939423" lon="8.692883">
<ele>393.5</ele>
<speed>6.4</speed>
<course>187.7</course>
<desc>Speed 6.4 km/h Distance 4.46 km</desc>
<time>2010-03-03T16:42:59.82</time>
<name>2739</name>
</trkpt>
<trkpt lat="48.939407" lon="8.692880">
<ele>393.5</ele>
<speed>6.4</speed>
<course>187.5</course>
<desc>Speed 6.4 km/h Distance 4.46 km</desc>
<time>2010-03-03T16:43:00.82</time>
<name>2740</name>
</trkpt>
<trkpt lat="48.939392" lon="8.692877">
<ele>393.5</ele>
<speed>6.4</speed>
<course>190.8</course>
<desc>Speed 6.4 km/h Distance 4.46 km</desc>
<time>2010-03-03T16:43:01.82</time>
<name>2741</name>
</trkpt>
<trkpt lat="48.939375" lon="8.692872">
<ele>393.5</ele>
<speed>6.5</speed>
<course>196.3</course>
<desc>Speed 6.5 km/h Distance 4.46 km</desc>
<time>2010-03-03T16:43:02.82</time>
<name>2742</name>
</trkpt>
<trkpt lat="48.939360" lon="8.692865">
<ele>393.5</ele>
<speed>6.5</speed>
<course>188.1</course>
<desc>Speed 6.5 km/h Distance 4.46 km</desc>
<time>2010-03-03T16:43:03.82</time>
<name>2743</name>
</trkpt>
<trkpt lat="48.939345" lon="8.692862">
<ele>393.5</ele>
<speed>6.4</speed>
<course>191.2</course>
<desc>Speed 6.4 km/h Distance 4.47 km</desc>
<time>2010-03-03T16:43:04.82</time>
<name>2744</name>
</trkpt>
<trkpt lat="48.939328" lon="8.692857">
<ele>393.5</ele>
<speed>6.5</speed>
<course>192.2</course>
<desc>Speed 6.5 km/h Distance 4.47 km</desc>
<time>2010-03-03T16:43:05.82</time>
<name>2745</name>
</trkpt>
<trkpt lat="48.939313" lon="8.692852">
<ele>393.5</ele>
<speed>6.4</speed>
<course>188.8</course>
<desc>Speed 6.4 km/h Distance 4.47 km</desc>
<time>2010-03-03T16:43:06.82</time>
<name>2746</name>
</trkpt>
<trkpt lat="48.939298" lon="8.692848">
<ele>393.5</ele>
<speed>6.4</speed>
<course>190.8</course>
<desc>Speed 6.4 km/h Distance 4.47 km</desc>
<time>2010-03-03T16:43:07.82</time>
<name>2747</name>
</trkpt>
<trkpt lat="48.939282" lon="8.692843">
<ele>393.5</ele>
<speed>6.4</speed>
<course>191.7</course>
<desc>Speed 6.4 km/h Distance 4.47 km</desc>
<time>2010-03-03T16:43:08.82</time>
<name>2748</name>
</trkpt>
<trkpt lat="48.939267" lon="8.692838">
<ele>393.5</ele>
<speed>6.3</speed>
<course>188.8</course>
<desc>Speed 6.3 km/h Distance 4.47 km</desc>
<time>2010-03-03T16:43:09.82</time>
<name>2749</name>
</trkpt>
<trkpt lat="48.939252" lon="8.692835">
<ele>393.5</ele>
<speed>6.2</speed>
<course>192.6</course>
<desc>Speed 6.2 km/h Distance 4.48 km</desc>
<time>2010-03-03T16:43:10.82</time>
<name>2750</name>
</trkpt>
<trkpt lat="48.939237" lon="8.692830">
<ele>393.5</ele>
<speed>6.2</speed>
<course>191.2</course>
<desc>Speed 6.2 km/h Distance 4.48 km</desc>
<time>2010-03-03T16:43:11.82</time>
<name>2751</name>
</trkpt>
<trkpt lat="48.939220" lon="8.692825">
<ele>393.5</ele>
<speed>6.4</speed>
<course>193.5</course>
<desc>Speed 6.4 km/h Distance 4.48 km</desc>
<time>2010-03-03T16:43:12.82</time>
<name>2752</name>
</trkpt>
<trkpt lat="48.939207" lon="8.692820">
<ele>394.0</ele>
<speed>6.4</speed>
<course>187.7</course>
<desc>Speed 6.4 km/h Distance 4.48 km</desc>
<time>2010-03-03T16:43:13.82</time>
<name>2753</name>
</trkpt>
<trkpt lat="48.939190" lon="8.692817">
<ele>394.0</ele>
<speed>6.3</speed>
<course>196.6</course>
<desc>Speed 6.3 km/h Distance 4.48 km</desc>
<time>2010-03-03T16:43:14.82</time>
<name>2754</name>
</trkpt>
<trkpt lat="48.939175" lon="8.692810">
<ele>394.0</ele>
<speed>6.4</speed>
<course>196.6</course>
<desc>Speed 6.4 km/h Distance 4.49 km</desc>
<time>2010-03-03T16:43:15.82</time>
<name>2755</name>
</trkpt>
<trkpt lat="48.939160" lon="8.692803">
<ele>394.0</ele>
<speed>6.5</speed>
<course>194.9</course>
<desc>Speed 6.5 km/h Distance 4.49 km</desc>
<time>2010-03-03T16:43:16.82</time>
<name>2756</name>
</trkpt>
<trkpt lat="48.939143" lon="8.692797">
<ele>394.0</ele>
<speed>6.6</speed>
<course>192.6</course>
<desc>Speed 6.6 km/h Distance 4.49 km</desc>
<time>2010-03-03T16:43:17.82</time>
<name>2757</name>
</trkpt>
<trkpt lat="48.939128" lon="8.692792">
<ele>394.0</ele>
<speed>6.5</speed>
<course>200.1</course>
<desc>Speed 6.5 km/h Distance 4.49 km</desc>
<time>2010-03-03T16:43:18.82</time>
<name>2758</name>
</trkpt>
<trkpt lat="48.939113" lon="8.692783">
<ele>394.0</ele>
<speed>6.3</speed>
<course>202.6</course>
<desc>Speed 6.3 km/h Distance 4.49 km</desc>
<time>2010-03-03T16:43:19.82</time>
<name>2759</name>
</trkpt>
<trkpt lat="48.939100" lon="8.692775">
<ele>394.5</ele>
<speed>6.2</speed>
<course>203.7</course>
<desc>Speed 6.2 km/h Distance 4.49 km</desc>
<time>2010-03-03T16:43:20.82</time>
<name>2760</name>
</trkpt>
<trkpt lat="48.939085" lon="8.692765">
<ele>394.5</ele>
<speed>6.1</speed>
<course>217.5</course>
<desc>Speed 6.1 km/h Distance 4.50 km</desc>
<time>2010-03-03T16:43:21.82</time>
<name>2761</name>
</trkpt>
<trkpt lat="48.939075" lon="8.692753">
<ele>394.5</ele>
<speed>5.4</speed>
<course>205.2</course>
<desc>Speed 5.4 km/h Distance 4.50 km</desc>
<time>2010-03-03T16:43:22.82</time>
<name>2762</name>
</trkpt>
<trkpt lat="48.939063" lon="8.692745">
<ele>394.5</ele>
<speed>5.5</speed>
<course>193.5</course>
<desc>Speed 5.5 km/h Distance 4.50 km</desc>
<time>2010-03-03T16:43:23.82</time>
<name>2763</name>
</trkpt>
<trkpt lat="48.939050" lon="8.692740">
<ele>394.5</ele>
<speed>5.7</speed>
<course>192.2</course>
<desc>Speed 5.7 km/h Distance 4.50 km</desc>
<time>2010-03-03T16:43:24.82</time>
<name>2764</name>
</trkpt>
<trkpt lat="48.939035" lon="8.692735">
<ele>394.5</ele>
<speed>5.8</speed>
<course>189.5</course>
<desc>Speed 5.8 km/h Distance 4.50 km</desc>
<time>2010-03-03T16:43:25.82</time>
<name>2765</name>
</trkpt>
<trkpt lat="48.939023" lon="8.692732">
<ele>394.5</ele>
<speed>5.1</speed>
<course>203.4</course>
<desc>Speed 5.1 km/h Distance 4.50 km</desc>
<time>2010-03-03T16:43:26.82</time>
<name>2766</name>
</trkpt>
<trkpt lat="48.939013" lon="8.692725">
<ele>394.5</ele>
<speed>4.4</speed>
<course>187.4</course>
<desc>Speed 4.4 km/h Distance 4.50 km</desc>
<time>2010-03-03T16:43:27.82</time>
<name>2767</name>
</trkpt>
<trkpt lat="48.939007" lon="8.692723">
<ele>394.5</ele>
<speed>2.2</speed>
<course>12.6</course>
<desc>Speed 2.2 km/h Distance 4.51 km</desc>
<time>2010-03-03T16:43:29.13</time>
<name>2768</name>
</trkpt>
<trkpt lat="48.939008" lon="8.692723">
<ele>394.5</ele>
<speed>0.3</speed>
<course>12.6</course>
<desc>Speed 0.3 km/h Distance 4.51 km</desc>
<time>2010-03-03T16:43:29.88</time>
<name>2769</name>
</trkpt>
<trkpt lat="48.939008" lon="8.692723">
<ele>394.5</ele>
<speed>0.1</speed>
<course>12.6</course>
<desc>Speed 0.1 km/h Distance 4.51 km</desc>
<time>2010-03-03T16:43:30.88</time>
<name>2770</name>
</trkpt>
<trkpt lat="48.939008" lon="8.692723">
<ele>394.5</ele>
<speed>0.2</speed>
<course>270.0</course>
<desc>Speed 0.2 km/h Distance 4.51 km</desc>
<time>2010-03-03T16:43:31.88</time>
<name>2771</name>
</trkpt>
<trkpt lat="48.939008" lon="8.692722">
<ele>394.5</ele>
<speed>0.1</speed>
<course>270.0</course>
<desc>Speed 0.1 km/h Distance 4.51 km</desc>
<time>2010-03-03T16:43:32.88</time>
<name>2772</name>
</trkpt>
<trkpt lat="48.939008" lon="8.692722">
<ele>394.5</ele>
<speed>0.1</speed>
<course>29.2</course>
<desc>Speed 0.1 km/h Distance 4.51 km</desc>
<time>2010-03-03T16:43:34.01</time>
<name>2773</name>
</trkpt>
<trkpt lat="48.939010" lon="8.692722">
<ele>394.5</ele>
<speed>0.2</speed>
<course>29.2</course>
<desc>Speed 0.2 km/h Distance 4.51 km</desc>
<time>2010-03-03T16:43:34.90</time>
<name>2774</name>
</trkpt>
<trkpt lat="48.939010" lon="8.692722">
<ele>394.5</ele>
<speed>0.1</speed>
<course>29.2</course>
<desc>Speed 0.1 km/h Distance 4.51 km</desc>
<time>2010-03-03T16:43:35.90</time>
<name>2775</name>
</trkpt>
<trkpt lat="48.939010" lon="8.692722">
<ele>394.5</ele>
<speed>0.3</speed>
<course>29.2</course>
<desc>Speed 0.3 km/h Distance 4.51 km</desc>
<time>2010-03-03T16:43:36.90</time>
<name>2776</name>
</trkpt>
<trkpt lat="48.939010" lon="8.692722">
<ele>394.5</ele>
<speed>0.3</speed>
<course>29.2</course>
<desc>Speed 0.3 km/h Distance 4.51 km</desc>
<time>2010-03-03T16:43:37.90</time>
<name>2777</name>
</trkpt>
<trkpt lat="48.939010" lon="8.692722">
<ele>394.5</ele>
<speed>0.3</speed>
<course>146.3</course>
<desc>Speed 0.3 km/h Distance 4.51 km</desc>
<time>2010-03-03T16:43:38.90</time>
<name>2778</name>
</trkpt>
<trkpt lat="48.939007" lon="8.692725">
<ele>394.5</ele>
<speed>1.7</speed>
<course>175.6</course>
<desc>Speed 1.7 km/h Distance 4.51 km</desc>
<time>2010-03-03T16:43:39.90</time>
<name>2779</name>
</trkpt>
<trkpt lat="48.938997" lon="8.692727">
<ele>394.5</ele>
<speed>3.6</speed>
<course>178.8</course>
<desc>Speed 3.6 km/h Distance 4.51 km</desc>
<time>2010-03-03T16:43:40.90</time>
<name>2780</name>
</trkpt>
<trkpt lat="48.938983" lon="8.692727">
<ele>394.5</ele>
<speed>5.3</speed>
<course>189.0</course>
<desc>Speed 5.3 km/h Distance 4.51 km</desc>
<time>2010-03-03T16:43:41.90</time>
<name>2781</name>
</trkpt>
<trkpt lat="48.938970" lon="8.692723">
<ele>394.5</ele>
<speed>5.8</speed>
<course>191.7</course>
<desc>Speed 5.8 km/h Distance 4.51 km</desc>
<time>2010-03-03T16:43:42.90</time>
<name>2782</name>
</trkpt>
<trkpt lat="48.938955" lon="8.692718">
<ele>394.5</ele>
<speed>6.0</speed>
<course>192.2</course>
<desc>Speed 6.0 km/h Distance 4.51 km</desc>
<time>2010-03-03T16:43:43.90</time>
<name>2783</name>
</trkpt>
<trkpt lat="48.938940" lon="8.692713">
<ele>394.5</ele>
<speed>5.9</speed>
<course>200.1</course>
<desc>Speed 5.9 km/h Distance 4.51 km</desc>
<time>2010-03-03T16:43:44.90</time>
<name>2784</name>
</trkpt>
<trkpt lat="48.938925" lon="8.692705">
<ele>394.5</ele>
<speed>6.2</speed>
<course>196.6</course>
<desc>Speed 6.2 km/h Distance 4.52 km</desc>
<time>2010-03-03T16:43:45.90</time>
<name>2785</name>
</trkpt>
<trkpt lat="48.938910" lon="8.692698">
<ele>394.5</ele>
<speed>6.2</speed>
<course>182.8</course>
<desc>Speed 6.2 km/h Distance 4.52 km</desc>
<time>2010-03-03T16:43:46.90</time>
<name>2786</name>
</trkpt>
<trkpt lat="48.938893" lon="8.692697">
<ele>394.0</ele>
<speed>6.1</speed>
<course>188.1</course>
<desc>Speed 6.1 km/h Distance 4.52 km</desc>
<time>2010-03-03T16:43:47.90</time>
<name>2787</name>
</trkpt>
<trkpt lat="48.938878" lon="8.692693">
<ele>394.0</ele>
<speed>6.2</speed>
<course>188.1</course>
<desc>Speed 6.2 km/h Distance 4.52 km</desc>
<time>2010-03-03T16:43:48.90</time>
<name>2788</name>
</trkpt>
<trkpt lat="48.938863" lon="8.692690">
<ele>394.0</ele>
<speed>6.3</speed>
<course>191.2</course>
<desc>Speed 6.3 km/h Distance 4.52 km</desc>
<time>2010-03-03T16:43:49.90</time>
<name>2789</name>
</trkpt>
<trkpt lat="48.938847" lon="8.692685">
<ele>394.0</ele>
<speed>6.4</speed>
<course>192.2</course>
<desc>Speed 6.4 km/h Distance 4.52 km</desc>
<time>2010-03-03T16:43:50.90</time>
<name>2790</name>
</trkpt>
<trkpt lat="48.938832" lon="8.692680">
<ele>394.0</ele>
<speed>6.4</speed>
<course>187.7</course>
<desc>Speed 6.4 km/h Distance 4.53 km</desc>
<time>2010-03-03T16:43:51.90</time>
<name>2791</name>
</trkpt>
<trkpt lat="48.938815" lon="8.692677">
<ele>394.0</ele>
<speed>6.3</speed>
<course>192.6</course>
<desc>Speed 6.3 km/h Distance 4.53 km</desc>
<time>2010-03-03T16:43:52.90</time>
<name>2792</name>
</trkpt>
<trkpt lat="48.938800" lon="8.692672">
<ele>394.0</ele>
<speed>6.2</speed>
<course>188.8</course>
<desc>Speed 6.2 km/h Distance 4.53 km</desc>
<time>2010-03-03T16:43:53.90</time>
<name>2793</name>
</trkpt>
<trkpt lat="48.938785" lon="8.692668">
<ele>394.0</ele>
<speed>6.2</speed>
<course>187.5</course>
<desc>Speed 6.2 km/h Distance 4.53 km</desc>
<time>2010-03-03T16:43:54.90</time>
<name>2794</name>
</trkpt>
<trkpt lat="48.938770" lon="8.692665">
<ele>394.0</ele>
<speed>6.0</speed>
<course>189.0</course>
<desc>Speed 6.0 km/h Distance 4.53 km</desc>
<time>2010-03-03T16:43:55.90</time>
<name>2795</name>
</trkpt>
<trkpt lat="48.938757" lon="8.692662">
<ele>394.0</ele>
<speed>6.1</speed>
<course>190.8</course>
<desc>Speed 6.1 km/h Distance 4.53 km</desc>
<time>2010-03-03T16:43:56.90</time>
<name>2796</name>
</trkpt>
<trkpt lat="48.938740" lon="8.692657">
<ele>393.5</ele>
<speed>6.4</speed>
<course>188.1</course>
<desc>Speed 6.4 km/h Distance 4.54 km</desc>
<time>2010-03-03T16:43:57.90</time>
<name>2797</name>
</trkpt>
<trkpt lat="48.938725" lon="8.692653">
<ele>393.5</ele>
<speed>6.2</speed>
<course>187.7</course>
<desc>Speed 6.2 km/h Distance 4.54 km</desc>
<time>2010-03-03T16:43:58.90</time>
<name>2798</name>
</trkpt>
<trkpt lat="48.938708" lon="8.692650">
<ele>393.5</ele>
<speed>6.4</speed>
<course>188.1</course>
<desc>Speed 6.4 km/h Distance 4.54 km</desc>
<time>2010-03-03T16:43:59.90</time>
<name>2799</name>
</trkpt>
<trkpt lat="48.938693" lon="8.692647">
<ele>393.5</ele>
<speed>6.2</speed>
<course>192.6</course>
<desc>Speed 6.2 km/h Distance 4.54 km</desc>
<time>2010-03-03T16:44:00.90</time>
<name>2800</name>
</trkpt>
<trkpt lat="48.938678" lon="8.692642">
<ele>393.0</ele>
<speed>6.3</speed>
<course>184.1</course>
<desc>Speed 6.3 km/h Distance 4.54 km</desc>
<time>2010-03-03T16:44:01.90</time>
<name>2801</name>
</trkpt>
<trkpt lat="48.938662" lon="8.692640">
<ele>393.0</ele>
<speed>6.5</speed>
<course>188.8</course>
<desc>Speed 6.5 km/h Distance 4.55 km</desc>
<time>2010-03-03T16:44:02.90</time>
<name>2802</name>
</trkpt>
<trkpt lat="48.938647" lon="8.692637">
<ele>393.0</ele>
<speed>6.4</speed>
<course>188.8</course>
<desc>Speed 6.4 km/h Distance 4.55 km</desc>
<time>2010-03-03T16:44:03.90</time>
<name>2803</name>
</trkpt>
<trkpt lat="48.938632" lon="8.692633">
<ele>393.0</ele>
<speed>6.2</speed>
<course>196.6</course>
<desc>Speed 6.2 km/h Distance 4.55 km</desc>
<time>2010-03-03T16:44:04.90</time>
<name>2804</name>
</trkpt>
<trkpt lat="48.938617" lon="8.692627">
<ele>393.0</ele>
<speed>6.3</speed>
<course>196.6</course>
<desc>Speed 6.3 km/h Distance 4.55 km</desc>
<time>2010-03-03T16:44:05.90</time>
<name>2805</name>
</trkpt>
<trkpt lat="48.938602" lon="8.692620">
<ele>392.5</ele>
<speed>6.2</speed>
<course>194.0</course>
<desc>Speed 6.2 km/h Distance 4.55 km</desc>
<time>2010-03-03T16:44:06.90</time>
<name>2806</name>
</trkpt>
<trkpt lat="48.938588" lon="8.692615">
<ele>392.5</ele>
<speed>6.1</speed>
<course>192.6</course>
<desc>Speed 6.1 km/h Distance 4.55 km</desc>
<time>2010-03-03T16:44:07.90</time>
<name>2807</name>
</trkpt>
<trkpt lat="48.938573" lon="8.692610">
<ele>392.5</ele>
<speed>6.1</speed>
<course>196.6</course>
<desc>Speed 6.1 km/h Distance 4.56 km</desc>
<time>2010-03-03T16:44:08.90</time>
<name>2808</name>
</trkpt>
<trkpt lat="48.938558" lon="8.692603">
<ele>392.0</ele>
<speed>6.5</speed>
<course>191.2</course>
<desc>Speed 6.5 km/h Distance 4.56 km</desc>
<time>2010-03-03T16:44:09.90</time>
<name>2809</name>
</trkpt>
<trkpt lat="48.938542" lon="8.692598">
<ele>392.0</ele>
<speed>6.4</speed>
<course>196.3</course>
<desc>Speed 6.4 km/h Distance 4.56 km</desc>
<time>2010-03-03T16:44:10.90</time>
<name>2810</name>
</trkpt>
<trkpt lat="48.938527" lon="8.692592">
<ele>392.0</ele>
<speed>6.4</speed>
<course>192.6</course>
<desc>Speed 6.4 km/h Distance 4.56 km</desc>
<time>2010-03-03T16:44:11.90</time>
<name>2811</name>
</trkpt>
<trkpt lat="48.938512" lon="8.692587">
<ele>392.0</ele>
<speed>6.2</speed>
<course>192.6</course>
<desc>Speed 6.2 km/h Distance 4.56 km</desc>
<time>2010-03-03T16:44:12.90</time>
<name>2812</name>
</trkpt>
<trkpt lat="48.938497" lon="8.692582">
<ele>392.0</ele>
<speed>6.2</speed>
<course>196.6</course>
<desc>Speed 6.2 km/h Distance 4.56 km</desc>
<time>2010-03-03T16:44:13.90</time>
<name>2813</name>
</trkpt>
<trkpt lat="48.938482" lon="8.692575">
<ele>392.0</ele>
<speed>6.2</speed>
<course>192.6</course>
<desc>Speed 6.2 km/h Distance 4.57 km</desc>
<time>2010-03-03T16:44:14.90</time>
<name>2814</name>
</trkpt>
<trkpt lat="48.938467" lon="8.692570">
<ele>391.5</ele>
<speed>6.2</speed>
<course>191.7</course>
<desc>Speed 6.2 km/h Distance 4.57 km</desc>
<time>2010-03-03T16:44:15.90</time>
<name>2815</name>
</trkpt>
<trkpt lat="48.938452" lon="8.692565">
<ele>391.5</ele>
<speed>6.2</speed>
<course>192.2</course>
<desc>Speed 6.2 km/h Distance 4.57 km</desc>
<time>2010-03-03T16:44:16.90</time>
<name>2816</name>
</trkpt>
<trkpt lat="48.938437" lon="8.692560">
<ele>391.5</ele>
<speed>6.2</speed>
<course>196.6</course>
<desc>Speed 6.2 km/h Distance 4.57 km</desc>
<time>2010-03-03T16:44:17.90</time>
<name>2817</name>
</trkpt>
<trkpt lat="48.938422" lon="8.692553">
<ele>391.5</ele>
<speed>6.2</speed>
<course>192.6</course>
<desc>Speed 6.2 km/h Distance 4.57 km</desc>
<time>2010-03-03T16:44:18.90</time>
<name>2818</name>
</trkpt>
<trkpt lat="48.938407" lon="8.692548">
<ele>391.5</ele>
<speed>6.3</speed>
<course>196.6</course>
<desc>Speed 6.3 km/h Distance 4.57 km</desc>
<time>2010-03-03T16:44:19.90</time>
<name>2819</name>
</trkpt>
<trkpt lat="48.938392" lon="8.692542">
<ele>391.5</ele>
<speed>6.3</speed>
<course>192.2</course>
<desc>Speed 6.3 km/h Distance 4.58 km</desc>
<time>2010-03-03T16:44:20.90</time>
<name>2820</name>
</trkpt>
<trkpt lat="48.938377" lon="8.692537">
<ele>391.5</ele>
<speed>6.2</speed>
<course>196.6</course>
<desc>Speed 6.2 km/h Distance 4.58 km</desc>
<time>2010-03-03T16:44:21.90</time>
<name>2821</name>
</trkpt>
<trkpt lat="48.938362" lon="8.692530">
<ele>391.5</ele>
<speed>6.1</speed>
<course>191.2</course>
<desc>Speed 6.1 km/h Distance 4.58 km</desc>
<time>2010-03-03T16:44:22.90</time>
<name>2822</name>
</trkpt>
<trkpt lat="48.938345" lon="8.692525">
<ele>391.5</ele>
<speed>6.4</speed>
<course>196.6</course>
<desc>Speed 6.4 km/h Distance 4.58 km</desc>
<time>2010-03-03T16:44:23.90</time>
<name>2823</name>
</trkpt>
<trkpt lat="48.938330" lon="8.692518">
<ele>391.5</ele>
<speed>6.3</speed>
<course>198.1</course>
<desc>Speed 6.3 km/h Distance 4.58 km</desc>
<time>2010-03-03T16:44:24.90</time>
<name>2824</name>
</trkpt>
<trkpt lat="48.938317" lon="8.692512">
<ele>391.5</ele>
<speed>6.2</speed>
<course>192.2</course>
<desc>Speed 6.2 km/h Distance 4.58 km</desc>
<time>2010-03-03T16:44:25.91</time>
<name>2825</name>
</trkpt>
<trkpt lat="48.938302" lon="8.692507">
<ele>391.5</ele>
<speed>6.2</speed>
<course>194.9</course>
<desc>Speed 6.2 km/h Distance 4.59 km</desc>
<time>2010-03-03T16:44:26.91</time>
<name>2826</name>
</trkpt>
<trkpt lat="48.938285" lon="8.692500">
<ele>391.5</ele>
<speed>6.5</speed>
<course>196.3</course>
<desc>Speed 6.5 km/h Distance 4.59 km</desc>
<time>2010-03-03T16:44:27.91</time>
<name>2827</name>
</trkpt>
<trkpt lat="48.938270" lon="8.692493">
<ele>391.5</ele>
<speed>6.2</speed>
<course>192.6</course>
<desc>Speed 6.2 km/h Distance 4.59 km</desc>
<time>2010-03-03T16:44:28.91</time>
<name>2828</name>
</trkpt>
<trkpt lat="48.938255" lon="8.692488">
<ele>391.0</ele>
<speed>6.4</speed>
<course>191.2</course>
<desc>Speed 6.4 km/h Distance 4.59 km</desc>
<time>2010-03-03T16:44:29.91</time>
<name>2829</name>
</trkpt>
<trkpt lat="48.938238" lon="8.692483">
<ele>391.0</ele>
<speed>6.7</speed>
<course>196.6</course>
<desc>Speed 6.7 km/h Distance 4.59 km</desc>
<time>2010-03-03T16:44:30.91</time>
<name>2830</name>
</trkpt>
<trkpt lat="48.938223" lon="8.692477">
<ele>391.0</ele>
<speed>6.6</speed>
<course>191.2</course>
<desc>Speed 6.6 km/h Distance 4.60 km</desc>
<time>2010-03-03T16:44:31.91</time>
<name>2831</name>
</trkpt>
<trkpt lat="48.938207" lon="8.692472">
<ele>391.0</ele>
<speed>6.7</speed>
<course>194.9</course>
<desc>Speed 6.7 km/h Distance 4.60 km</desc>
<time>2010-03-03T16:44:32.91</time>
<name>2832</name>
</trkpt>
<trkpt lat="48.938190" lon="8.692465">
<ele>391.5</ele>
<speed>6.7</speed>
<course>200.1</course>
<desc>Speed 6.7 km/h Distance 4.60 km</desc>
<time>2010-03-03T16:44:33.91</time>
<name>2833</name>
</trkpt>
<trkpt lat="48.938175" lon="8.692457">
<ele>391.5</ele>
<speed>6.4</speed>
<course>192.2</course>
<desc>Speed 6.4 km/h Distance 4.60 km</desc>
<time>2010-03-03T16:44:34.91</time>
<name>2834</name>
</trkpt>
<trkpt lat="48.938160" lon="8.692452">
<ele>391.5</ele>
<speed>6.6</speed>
<course>194.9</course>
<desc>Speed 6.6 km/h Distance 4.60 km</desc>
<time>2010-03-03T16:44:35.91</time>
<name>2835</name>
</trkpt>
<trkpt lat="48.938143" lon="8.692445">
<ele>391.5</ele>
<speed>6.5</speed>
<course>196.3</course>
<desc>Speed 6.5 km/h Distance 4.60 km</desc>
<time>2010-03-03T16:44:36.91</time>
<name>2836</name>
</trkpt>
<trkpt lat="48.938128" lon="8.692438">
<ele>391.5</ele>
<speed>6.5</speed>
<course>199.9</course>
<desc>Speed 6.5 km/h Distance 4.61 km</desc>
<time>2010-03-03T16:44:37.91</time>
<name>2837</name>
</trkpt>
<trkpt lat="48.938113" lon="8.692430">
<ele>391.0</ele>
<speed>6.6</speed>
<course>194.6</course>
<desc>Speed 6.6 km/h Distance 4.61 km</desc>
<time>2010-03-03T16:44:38.91</time>
<name>2838</name>
</trkpt>
<trkpt lat="48.938097" lon="8.692423">
<ele>391.5</ele>
<speed>6.5</speed>
<course>196.3</course>
<desc>Speed 6.5 km/h Distance 4.61 km</desc>
<time>2010-03-03T16:44:39.91</time>
<name>2839</name>
</trkpt>
<trkpt lat="48.938082" lon="8.692417">
<ele>391.5</ele>
<speed>6.5</speed>
<course>196.0</course>
<desc>Speed 6.5 km/h Distance 4.61 km</desc>
<time>2010-03-03T16:44:40.91</time>
<name>2840</name>
</trkpt>
<trkpt lat="48.938067" lon="8.692410">
<ele>391.5</ele>
<speed>6.4</speed>
<course>196.3</course>
<desc>Speed 6.4 km/h Distance 4.61 km</desc>
<time>2010-03-03T16:44:41.91</time>
<name>2841</name>
</trkpt>
<trkpt lat="48.938052" lon="8.692403">
<ele>391.5</ele>
<speed>6.3</speed>
<course>196.6</course>
<desc>Speed 6.3 km/h Distance 4.62 km</desc>
<time>2010-03-03T16:44:42.91</time>
<name>2842</name>
</trkpt>
<trkpt lat="48.938037" lon="8.692397">
<ele>391.5</ele>
<speed>6.4</speed>
<course>196.6</course>
<desc>Speed 6.4 km/h Distance 4.62 km</desc>
<time>2010-03-03T16:44:43.91</time>
<name>2843</name>
</trkpt>
<trkpt lat="48.938022" lon="8.692390">
<ele>391.5</ele>
<speed>6.5</speed>
<course>196.6</course>
<desc>Speed 6.5 km/h Distance 4.62 km</desc>
<time>2010-03-03T16:44:44.91</time>
<name>2844</name>
</trkpt>
<trkpt lat="48.938007" lon="8.692383">
<ele>391.5</ele>
<speed>6.4</speed>
<course>200.1</course>
<desc>Speed 6.4 km/h Distance 4.62 km</desc>
<time>2010-03-03T16:44:45.93</time>
<name>2845</name>
</trkpt>
<trkpt lat="48.937992" lon="8.692375">
<ele>391.5</ele>
<speed>6.4</speed>
<course>198.1</course>
<desc>Speed 6.4 km/h Distance 4.62 km</desc>
<time>2010-03-03T16:44:46.93</time>
<name>2846</name>
</trkpt>
<trkpt lat="48.937975" lon="8.692367">
<ele>391.5</ele>
<speed>6.5</speed>
<course>202.3</course>
<desc>Speed 6.5 km/h Distance 4.62 km</desc>
<time>2010-03-03T16:44:47.93</time>
<name>2847</name>
</trkpt>
<trkpt lat="48.937962" lon="8.692358">
<ele>392.0</ele>
<speed>6.4</speed>
<course>203.7</course>
<desc>Speed 6.4 km/h Distance 4.63 km</desc>
<time>2010-03-03T16:44:48.93</time>
<name>2848</name>
</trkpt>
<trkpt lat="48.937947" lon="8.692348">
<ele>392.0</ele>
<speed>6.4</speed>
<course>206.4</course>
<desc>Speed 6.4 km/h Distance 4.63 km</desc>
<time>2010-03-03T16:44:49.93</time>
<name>2849</name>
</trkpt>
<trkpt lat="48.937933" lon="8.692338">
<ele>392.0</ele>
<speed>6.0</speed>
<course>196.6</course>
<desc>Speed 6.0 km/h Distance 4.63 km</desc>
<time>2010-03-03T16:44:50.93</time>
<name>2850</name>
</trkpt>
<trkpt lat="48.937918" lon="8.692332">
<ele>392.0</ele>
<speed>6.5</speed>
<course>200.1</course>
<desc>Speed 6.5 km/h Distance 4.63 km</desc>
<time>2010-03-03T16:44:51.93</time>
<name>2851</name>
</trkpt>
<trkpt lat="48.937903" lon="8.692323">
<ele>392.0</ele>
<speed>6.2</speed>
<course>196.6</course>
<desc>Speed 6.2 km/h Distance 4.63 km</desc>
<time>2010-03-03T16:44:52.93</time>
<name>2852</name>
</trkpt>
<trkpt lat="48.937888" lon="8.692317">
<ele>392.0</ele>
<speed>6.4</speed>
<course>196.3</course>
<desc>Speed 6.4 km/h Distance 4.63 km</desc>
<time>2010-03-03T16:44:53.93</time>
<name>2853</name>
</trkpt>
<trkpt lat="48.937858" lon="8.692303">
<ele>392.0</ele>
<speed>6.1</speed>
<course>202.6</course>
<desc>Speed 6.1 km/h Distance 4.64 km</desc>
<time>2010-03-03T16:44:55.43</time>
<name>2854</name>
</trkpt>
<trkpt lat="48.937845" lon="8.692295">
<ele>392.5</ele>
<speed>6.3</speed>
<course>192.6</course>
<desc>Speed 6.3 km/h Distance 4.64 km</desc>
<time>2010-03-03T16:44:56.43</time>
<name>2855</name>
</trkpt>
<trkpt lat="48.937830" lon="8.692290">
<ele>392.5</ele>
<speed>6.3</speed>
<course>200.1</course>
<desc>Speed 6.3 km/h Distance 4.64 km</desc>
<time>2010-03-03T16:44:57.43</time>
<name>2856</name>
</trkpt>
<trkpt lat="48.937815" lon="8.692282">
<ele>392.5</ele>
<speed>6.3</speed>
<course>200.1</course>
<desc>Speed 6.3 km/h Distance 4.64 km</desc>
<time>2010-03-03T16:44:58.43</time>
<name>2857</name>
</trkpt>
<trkpt lat="48.937800" lon="8.692273">
<ele>392.0</ele>
<speed>6.2</speed>
<course>198.1</course>
<desc>Speed 6.2 km/h Distance 4.65 km</desc>
<time>2010-03-03T16:44:59.42</time>
<name>2858</name>
</trkpt>
<trkpt lat="48.937787" lon="8.692267">
<ele>392.0</ele>
<speed>6.3</speed>
<course>206.0</course>
<desc>Speed 6.3 km/h Distance 4.65 km</desc>
<time>2010-03-03T16:45:00.42</time>
<name>2859</name>
</trkpt>
<trkpt lat="48.937773" lon="8.692257">
<ele>392.0</ele>
<speed>6.2</speed>
<course>196.3</course>
<desc>Speed 6.2 km/h Distance 4.65 km</desc>
<time>2010-03-03T16:45:01.42</time>
<name>2860</name>
</trkpt>
<trkpt lat="48.937758" lon="8.692250">
<ele>392.0</ele>
<speed>6.2</speed>
<course>209.4</course>
<desc>Speed 6.2 km/h Distance 4.65 km</desc>
<time>2010-03-03T16:45:02.42</time>
<name>2861</name>
</trkpt>
<trkpt lat="48.937747" lon="8.692240">
<ele>392.0</ele>
<speed>6.0</speed>
<course>196.6</course>
<desc>Speed 6.0 km/h Distance 4.65 km</desc>
<time>2010-03-03T16:45:03.42</time>
<name>2862</name>
</trkpt>
<trkpt lat="48.937732" lon="8.692233">
<ele>392.0</ele>
<speed>6.1</speed>
<course>202.1</course>
<desc>Speed 6.1 km/h Distance 4.65 km</desc>
<time>2010-03-03T16:45:04.42</time>
<name>2863</name>
</trkpt>
<trkpt lat="48.937718" lon="8.692225">
<ele>392.0</ele>
<speed>6.1</speed>
<course>202.3</course>
<desc>Speed 6.1 km/h Distance 4.65 km</desc>
<time>2010-03-03T16:45:05.42</time>
<name>2864</name>
</trkpt>
<trkpt lat="48.937705" lon="8.692217">
<ele>392.0</ele>
<speed>6.0</speed>
<course>200.1</course>
<desc>Speed 6.0 km/h Distance 4.66 km</desc>
<time>2010-03-03T16:45:06.42</time>
<name>2865</name>
</trkpt>
<trkpt lat="48.937690" lon="8.692208">
<ele>392.0</ele>
<speed>6.3</speed>
<course>200.1</course>
<desc>Speed 6.3 km/h Distance 4.66 km</desc>
<time>2010-03-03T16:45:07.42</time>
<name>2866</name>
</trkpt>
<trkpt lat="48.937675" lon="8.692200">
<ele>392.5</ele>
<speed>6.2</speed>
<course>196.3</course>
<desc>Speed 6.2 km/h Distance 4.66 km</desc>
<time>2010-03-03T16:45:08.42</time>
<name>2867</name>
</trkpt>
<trkpt lat="48.937660" lon="8.692193">
<ele>392.5</ele>
<speed>6.2</speed>
<course>202.3</course>
<desc>Speed 6.2 km/h Distance 4.66 km</desc>
<time>2010-03-03T16:45:09.43</time>
<name>2868</name>
</trkpt>
<trkpt lat="48.937633" lon="8.692177">
<ele>392.5</ele>
<speed>6.0</speed>
<course>200.1</course>
<desc>Speed 6.0 km/h Distance 4.66 km</desc>
<time>2010-03-03T16:45:11.42</time>
<name>2869</name>
</trkpt>
<trkpt lat="48.937618" lon="8.692168">
<ele>392.5</ele>
<speed>6.2</speed>
<course>206.4</course>
<desc>Speed 6.2 km/h Distance 4.67 km</desc>
<time>2010-03-03T16:45:12.42</time>
<name>2870</name>
</trkpt>
<trkpt lat="48.937605" lon="8.692158">
<ele>392.5</ele>
<speed>6.2</speed>
<course>209.8</course>
<desc>Speed 6.2 km/h Distance 4.67 km</desc>
<time>2010-03-03T16:45:13.42</time>
<name>2871</name>
</trkpt>
<trkpt lat="48.937592" lon="8.692147">
<ele>392.5</ele>
<speed>6.2</speed>
<course>202.3</course>
<desc>Speed 6.2 km/h Distance 4.67 km</desc>
<time>2010-03-03T16:45:14.42</time>
<name>2872</name>
</trkpt>
<trkpt lat="48.937578" lon="8.692138">
<ele>392.5</ele>
<speed>6.2</speed>
<course>200.1</course>
<desc>Speed 6.2 km/h Distance 4.67 km</desc>
<time>2010-03-03T16:45:15.42</time>
<name>2873</name>
</trkpt>
<trkpt lat="48.937563" lon="8.692130">
<ele>392.5</ele>
<speed>6.3</speed>
<course>200.1</course>
<desc>Speed 6.3 km/h Distance 4.67 km</desc>
<time>2010-03-03T16:45:16.42</time>
<name>2874</name>
</trkpt>
<trkpt lat="48.937548" lon="8.692122">
<ele>392.5</ele>
<speed>6.1</speed>
<course>202.1</course>
<desc>Speed 6.1 km/h Distance 4.68 km</desc>
<time>2010-03-03T16:45:17.42</time>
<name>2875</name>
</trkpt>
<trkpt lat="48.937535" lon="8.692113">
<ele>392.5</ele>
<speed>6.2</speed>
<course>200.1</course>
<desc>Speed 6.2 km/h Distance 4.68 km</desc>
<time>2010-03-03T16:45:18.42</time>
<name>2876</name>
</trkpt>
<trkpt lat="48.937520" lon="8.692105">
<ele>392.5</ele>
<speed>6.3</speed>
<course>206.4</course>
<desc>Speed 6.3 km/h Distance 4.68 km</desc>
<time>2010-03-03T16:45:19.42</time>
<name>2877</name>
</trkpt>
<trkpt lat="48.937507" lon="8.692095">
<ele>392.5</ele>
<speed>6.3</speed>
<course>203.7</course>
<desc>Speed 6.3 km/h Distance 4.68 km</desc>
<time>2010-03-03T16:45:20.42</time>
<name>2878</name>
</trkpt>
<trkpt lat="48.937492" lon="8.692085">
<ele>392.5</ele>
<speed>6.1</speed>
<course>202.1</course>
<desc>Speed 6.1 km/h Distance 4.68 km</desc>
<time>2010-03-03T16:45:21.42</time>
<name>2879</name>
</trkpt>
<trkpt lat="48.937478" lon="8.692077">
<ele>393.0</ele>
<speed>6.3</speed>
<course>203.5</course>
<desc>Speed 6.3 km/h Distance 4.68 km</desc>
<time>2010-03-03T16:45:22.41</time>
<name>2880</name>
</trkpt>
<trkpt lat="48.937463" lon="8.692067">
<ele>393.0</ele>
<speed>6.1</speed>
<course>198.1</course>
<desc>Speed 6.1 km/h Distance 4.69 km</desc>
<time>2010-03-03T16:45:23.41</time>
<name>2881</name>
</trkpt>
<trkpt lat="48.937450" lon="8.692060">
<ele>393.0</ele>
<speed>5.9</speed>
<course>200.1</course>
<desc>Speed 5.9 km/h Distance 4.69 km</desc>
<time>2010-03-03T16:45:24.41</time>
<name>2882</name>
</trkpt>
<trkpt lat="48.937435" lon="8.692052">
<ele>393.0</ele>
<speed>6.2</speed>
<course>198.1</course>
<desc>Speed 6.2 km/h Distance 4.69 km</desc>
<time>2010-03-03T16:45:25.41</time>
<name>2883</name>
</trkpt>
<trkpt lat="48.937418" lon="8.692043">
<ele>393.0</ele>
<speed>6.5</speed>
<course>196.6</course>
<desc>Speed 6.5 km/h Distance 4.69 km</desc>
<time>2010-03-03T16:45:26.41</time>
<name>2884</name>
</trkpt>
<trkpt lat="48.937403" lon="8.692037">
<ele>393.0</ele>
<speed>6.2</speed>
<course>198.1</course>
<desc>Speed 6.2 km/h Distance 4.69 km</desc>
<time>2010-03-03T16:45:27.41</time>
<name>2885</name>
</trkpt>
<trkpt lat="48.937390" lon="8.692030">
<ele>393.5</ele>
<speed>6.1</speed>
<course>194.9</course>
<desc>Speed 6.1 km/h Distance 4.69 km</desc>
<time>2010-03-03T16:45:28.41</time>
<name>2886</name>
</trkpt>
<trkpt lat="48.937373" lon="8.692023">
<ele>393.5</ele>
<speed>6.3</speed>
<course>202.6</course>
<desc>Speed 6.3 km/h Distance 4.70 km</desc>
<time>2010-03-03T16:45:29.41</time>
<name>2887</name>
</trkpt>
<trkpt lat="48.937360" lon="8.692015">
<ele>393.5</ele>
<speed>6.2</speed>
<course>200.1</course>
<desc>Speed 6.2 km/h Distance 4.70 km</desc>
<time>2010-03-03T16:45:30.41</time>
<name>2888</name>
</trkpt>
<trkpt lat="48.937345" lon="8.692007">
<ele>393.5</ele>
<speed>6.5</speed>
<course>196.3</course>
<desc>Speed 6.5 km/h Distance 4.70 km</desc>
<time>2010-03-03T16:45:31.41</time>
<name>2889</name>
</trkpt>
<trkpt lat="48.937330" lon="8.692000">
<ele>393.5</ele>
<speed>6.1</speed>
<course>196.6</course>
<desc>Speed 6.1 km/h Distance 4.70 km</desc>
<time>2010-03-03T16:45:32.41</time>
<name>2890</name>
</trkpt>
<trkpt lat="48.937315" lon="8.691993">
<ele>393.5</ele>
<speed>6.2</speed>
<course>192.6</course>
<desc>Speed 6.2 km/h Distance 4.70 km</desc>
<time>2010-03-03T16:45:33.41</time>
<name>2891</name>
</trkpt>
<trkpt lat="48.937300" lon="8.691988">
<ele>393.5</ele>
<speed>6.3</speed>
<course>199.9</course>
<desc>Speed 6.3 km/h Distance 4.70 km</desc>
<time>2010-03-03T16:45:34.41</time>
<name>2892</name>
</trkpt>
<trkpt lat="48.937285" lon="8.691980">
<ele>393.5</ele>
<speed>6.0</speed>
<course>196.3</course>
<desc>Speed 6.0 km/h Distance 4.71 km</desc>
<time>2010-03-03T16:45:35.41</time>
<name>2893</name>
</trkpt>
<trkpt lat="48.937270" lon="8.691973">
<ele>394.0</ele>
<speed>6.2</speed>
<course>196.6</course>
<desc>Speed 6.2 km/h Distance 4.71 km</desc>
<time>2010-03-03T16:45:36.41</time>
<name>2894</name>
</trkpt>
<trkpt lat="48.937255" lon="8.691967">
<ele>394.0</ele>
<speed>6.4</speed>
<course>200.1</course>
<desc>Speed 6.4 km/h Distance 4.71 km</desc>
<time>2010-03-03T16:45:37.41</time>
<name>2895</name>
</trkpt>
<trkpt lat="48.937240" lon="8.691958">
<ele>394.0</ele>
<speed>6.3</speed>
<course>202.1</course>
<desc>Speed 6.3 km/h Distance 4.71 km</desc>
<time>2010-03-03T16:45:38.41</time>
<name>2896</name>
</trkpt>
<trkpt lat="48.937227" lon="8.691950">
<ele>394.0</ele>
<speed>6.2</speed>
<course>199.9</course>
<desc>Speed 6.2 km/h Distance 4.71 km</desc>
<time>2010-03-03T16:45:39.41</time>
<name>2897</name>
</trkpt>
<trkpt lat="48.937212" lon="8.691942">
<ele>394.0</ele>
<speed>6.1</speed>
<course>202.1</course>
<desc>Speed 6.1 km/h Distance 4.72 km</desc>
<time>2010-03-03T16:45:40.41</time>
<name>2898</name>
</trkpt>
<trkpt lat="48.937198" lon="8.691933">
<ele>394.0</ele>
<speed>6.0</speed>
<course>196.3</course>
<desc>Speed 6.0 km/h Distance 4.72 km</desc>
<time>2010-03-03T16:45:41.40</time>
<name>2899</name>
</trkpt>
<trkpt lat="48.937183" lon="8.691927">
<ele>394.0</ele>
<speed>6.2</speed>
<course>199.9</course>
<desc>Speed 6.2 km/h Distance 4.72 km</desc>
<time>2010-03-03T16:45:42.40</time>
<name>2900</name>
</trkpt>
<trkpt lat="48.937168" lon="8.691918">
<ele>394.0</ele>
<speed>6.2</speed>
<course>202.3</course>
<desc>Speed 6.2 km/h Distance 4.72 km</desc>
<time>2010-03-03T16:45:43.40</time>
<name>2901</name>
</trkpt>
<trkpt lat="48.937155" lon="8.691910">
<ele>394.0</ele>
<speed>6.3</speed>
<course>196.6</course>
<desc>Speed 6.3 km/h Distance 4.72 km</desc>
<time>2010-03-03T16:45:44.40</time>
<name>2902</name>
</trkpt>
<trkpt lat="48.937140" lon="8.691903">
<ele>394.0</ele>
<speed>6.3</speed>
<course>200.1</course>
<desc>Speed 6.3 km/h Distance 4.72 km</desc>
<time>2010-03-03T16:45:45.40</time>
<name>2903</name>
</trkpt>
<trkpt lat="48.937125" lon="8.691895">
<ele>394.0</ele>
<speed>6.2</speed>
<course>202.1</course>
<desc>Speed 6.2 km/h Distance 4.73 km</desc>
<time>2010-03-03T16:45:46.41</time>
<name>2904</name>
</trkpt>
<trkpt lat="48.937112" lon="8.691887">
<ele>394.0</ele>
<speed>6.3</speed>
<course>196.0</course>
<desc>Speed 6.3 km/h Distance 4.73 km</desc>
<time>2010-03-03T16:45:47.40</time>
<name>2905</name>
</trkpt>
<trkpt lat="48.937097" lon="8.691880">
<ele>394.0</ele>
<speed>6.2</speed>
<course>200.1</course>
<desc>Speed 6.2 km/h Distance 4.73 km</desc>
<time>2010-03-03T16:45:48.40</time>
<name>2906</name>
</trkpt>
<trkpt lat="48.937082" lon="8.691872">
<ele>394.0</ele>
<speed>6.2</speed>
<course>198.1</course>
<desc>Speed 6.2 km/h Distance 4.73 km</desc>
<time>2010-03-03T16:45:49.40</time>
<name>2907</name>
</trkpt>
<trkpt lat="48.937068" lon="8.691865">
<ele>394.0</ele>
<speed>6.1</speed>
<course>192.2</course>
<desc>Speed 6.1 km/h Distance 4.73 km</desc>
<time>2010-03-03T16:45:50.40</time>
<name>2908</name>
</trkpt>
<trkpt lat="48.937053" lon="8.691860">
<ele>394.0</ele>
<speed>6.2</speed>
<course>191.7</course>
<desc>Speed 6.2 km/h Distance 4.73 km</desc>
<time>2010-03-03T16:45:51.40</time>
<name>2909</name>
</trkpt>
<trkpt lat="48.937038" lon="8.691855">
<ele>394.0</ele>
<speed>6.0</speed>
<course>192.6</course>
<desc>Speed 6.0 km/h Distance 4.74 km</desc>
<time>2010-03-03T16:45:52.40</time>
<name>2910</name>
</trkpt>
<trkpt lat="48.937023" lon="8.691850">
<ele>394.0</ele>
<speed>6.2</speed>
<course>196.0</course>
<desc>Speed 6.2 km/h Distance 4.74 km</desc>
<time>2010-03-03T16:45:53.40</time>
<name>2911</name>
</trkpt>
<trkpt lat="48.937008" lon="8.691843">
<ele>393.5</ele>
<speed>6.3</speed>
<course>192.6</course>
<desc>Speed 6.3 km/h Distance 4.74 km</desc>
<time>2010-03-03T16:45:54.40</time>
<name>2912</name>
</trkpt>
<trkpt lat="48.936993" lon="8.691838">
<ele>393.5</ele>
<speed>6.1</speed>
<course>185.0</course>
<desc>Speed 6.1 km/h Distance 4.74 km</desc>
<time>2010-03-03T16:45:55.40</time>
<name>2913</name>
</trkpt>
<trkpt lat="48.936978" lon="8.691837">
<ele>393.5</ele>
<speed>6.0</speed>
<course>183.8</course>
<desc>Speed 6.0 km/h Distance 4.74 km</desc>
<time>2010-03-03T16:45:56.40</time>
<name>2914</name>
</trkpt>
<trkpt lat="48.936963" lon="8.691835">
<ele>393.5</ele>
<speed>5.9</speed>
<course>176.2</course>
<desc>Speed 5.9 km/h Distance 4.74 km</desc>
<time>2010-03-03T16:45:57.40</time>
<name>2915</name>
</trkpt>
<trkpt lat="48.936948" lon="8.691837">
<ele>393.5</ele>
<speed>6.3</speed>
<course>180.0</course>
<desc>Speed 6.3 km/h Distance 4.75 km</desc>
<time>2010-03-03T16:45:58.40</time>
<name>2916</name>
</trkpt>
<trkpt lat="48.936933" lon="8.691837">
<ele>393.5</ele>
<speed>6.2</speed>
<course>176.2</course>
<desc>Speed 6.2 km/h Distance 4.75 km</desc>
<time>2010-03-03T16:45:59.40</time>
<name>2917</name>
</trkpt>
<trkpt lat="48.936918" lon="8.691838">
<ele>393.5</ele>
<speed>6.0</speed>
<course>168.8</course>
<desc>Speed 6.0 km/h Distance 4.75 km</desc>
<time>2010-03-03T16:46:00.40</time>
<name>2918</name>
</trkpt>
<trkpt lat="48.936902" lon="8.691843">
<ele>393.5</ele>
<speed>6.2</speed>
<course>167.4</course>
<desc>Speed 6.2 km/h Distance 4.75 km</desc>
<time>2010-03-03T16:46:01.40</time>
<name>2919</name>
</trkpt>
<trkpt lat="48.936887" lon="8.691848">
<ele>393.5</ele>
<speed>6.5</speed>
<course>168.8</course>
<desc>Speed 6.5 km/h Distance 4.75 km</desc>
<time>2010-03-03T16:46:02.39</time>
<name>2920</name>
</trkpt>
<trkpt lat="48.936870" lon="8.691853">
<ele>393.5</ele>
<speed>6.4</speed>
<course>163.4</course>
<desc>Speed 6.4 km/h Distance 4.75 km</desc>
<time>2010-03-03T16:46:03.39</time>
<name>2921</name>
</trkpt>
<trkpt lat="48.936855" lon="8.691860">
<ele>393.5</ele>
<speed>6.3</speed>
<course>167.4</course>
<desc>Speed 6.3 km/h Distance 4.76 km</desc>
<time>2010-03-03T16:46:04.39</time>
<name>2922</name>
</trkpt>
<trkpt lat="48.936840" lon="8.691865">
<ele>393.5</ele>
<speed>6.2</speed>
<course>172.3</course>
<desc>Speed 6.2 km/h Distance 4.76 km</desc>
<time>2010-03-03T16:46:05.39</time>
<name>2923</name>
</trkpt>
<trkpt lat="48.936823" lon="8.691868">
<ele>393.5</ele>
<speed>6.2</speed>
<course>176.2</course>
<desc>Speed 6.2 km/h Distance 4.76 km</desc>
<time>2010-03-03T16:46:06.39</time>
<name>2924</name>
</trkpt>
<trkpt lat="48.936808" lon="8.691870">
<ele>393.0</ele>
<speed>6.5</speed>
<course>171.2</course>
<desc>Speed 6.5 km/h Distance 4.76 km</desc>
<time>2010-03-03T16:46:07.39</time>
<name>2925</name>
</trkpt>
<trkpt lat="48.936793" lon="8.691873">
<ele>393.0</ele>
<speed>6.0</speed>
<course>172.3</course>
<desc>Speed 6.0 km/h Distance 4.76 km</desc>
<time>2010-03-03T16:46:08.40</time>
<name>2926</name>
</trkpt>
<trkpt lat="48.936777" lon="8.691877">
<ele>393.0</ele>
<speed>6.2</speed>
<course>167.8</course>
<desc>Speed 6.2 km/h Distance 4.76 km</desc>
<time>2010-03-03T16:46:09.40</time>
<name>2927</name>
</trkpt>
<trkpt lat="48.936762" lon="8.691882">
<ele>393.0</ele>
<speed>6.4</speed>
<course>172.5</course>
<desc>Speed 6.4 km/h Distance 4.77 km</desc>
<time>2010-03-03T16:46:10.39</time>
<name>2928</name>
</trkpt>
<trkpt lat="48.936747" lon="8.691885">
<ele>393.0</ele>
<speed>6.2</speed>
<course>177.2</course>
<desc>Speed 6.2 km/h Distance 4.77 km</desc>
<time>2010-03-03T16:46:11.39</time>
<name>2929</name>
</trkpt>
<trkpt lat="48.936730" lon="8.691887">
<ele>393.0</ele>
<speed>6.0</speed>
<course>171.2</course>
<desc>Speed 6.0 km/h Distance 4.77 km</desc>
<time>2010-03-03T16:46:12.39</time>
<name>2930</name>
</trkpt>
<trkpt lat="48.936715" lon="8.691890">
<ele>392.5</ele>
<speed>6.6</speed>
<course>172.3</course>
<desc>Speed 6.6 km/h Distance 4.77 km</desc>
<time>2010-03-03T16:46:13.39</time>
<name>2931</name>
</trkpt>
<trkpt lat="48.936698" lon="8.691893">
<ele>392.5</ele>
<speed>6.0</speed>
<course>171.9</course>
<desc>Speed 6.0 km/h Distance 4.77 km</desc>
<time>2010-03-03T16:46:14.39</time>
<name>2932</name>
</trkpt>
<trkpt lat="48.936683" lon="8.691897">
<ele>392.5</ele>
<speed>6.1</speed>
<course>176.2</course>
<desc>Speed 6.1 km/h Distance 4.78 km</desc>
<time>2010-03-03T16:46:15.39</time>
<name>2933</name>
</trkpt>
<trkpt lat="48.936668" lon="8.691898">
<ele>392.5</ele>
<speed>6.3</speed>
<course>180.0</course>
<desc>Speed 6.3 km/h Distance 4.78 km</desc>
<time>2010-03-03T16:46:16.39</time>
<name>2934</name>
</trkpt>
<trkpt lat="48.936652" lon="8.691898">
<ele>392.0</ele>
<speed>6.3</speed>
<course>177.2</course>
<desc>Speed 6.3 km/h Distance 4.78 km</desc>
<time>2010-03-03T16:46:17.39</time>
<name>2935</name>
</trkpt>
<trkpt lat="48.936635" lon="8.691900">
<ele>392.0</ele>
<speed>6.1</speed>
<course>183.8</course>
<desc>Speed 6.1 km/h Distance 4.78 km</desc>
<time>2010-03-03T16:46:18.39</time>
<name>2936</name>
</trkpt>
<trkpt lat="48.936620" lon="8.691898">
<ele>392.0</ele>
<speed>6.1</speed>
<course>183.9</course>
<desc>Speed 6.1 km/h Distance 4.78 km</desc>
<time>2010-03-03T16:46:19.39</time>
<name>2937</name>
</trkpt>
<trkpt lat="48.936607" lon="8.691897">
<ele>392.0</ele>
<speed>5.9</speed>
<course>190.8</course>
<desc>Speed 5.9 km/h Distance 4.78 km</desc>
<time>2010-03-03T16:46:20.39</time>
<name>2938</name>
</trkpt>
<trkpt lat="48.936590" lon="8.691892">
<ele>392.0</ele>
<speed>6.3</speed>
<course>188.1</course>
<desc>Speed 6.3 km/h Distance 4.79 km</desc>
<time>2010-03-03T16:46:21.39</time>
<name>2939</name>
</trkpt>
<trkpt lat="48.936575" lon="8.691888">
<ele>392.0</ele>
<speed>6.2</speed>
<course>192.6</course>
<desc>Speed 6.2 km/h Distance 4.79 km</desc>
<time>2010-03-03T16:46:22.38</time>
<name>2940</name>
</trkpt>
<trkpt lat="48.936560" lon="8.691883">
<ele>392.0</ele>
<speed>6.0</speed>
<course>192.6</course>
<desc>Speed 6.0 km/h Distance 4.79 km</desc>
<time>2010-03-03T16:46:23.39</time>
<name>2941</name>
</trkpt>
<trkpt lat="48.936545" lon="8.691878">
<ele>391.5</ele>
<speed>6.1</speed>
<course>198.4</course>
<desc>Speed 6.1 km/h Distance 4.79 km</desc>
<time>2010-03-03T16:46:24.39</time>
<name>2942</name>
</trkpt>
<trkpt lat="48.936532" lon="8.691872">
<ele>391.5</ele>
<speed>6.1</speed>
<course>203.7</course>
<desc>Speed 6.1 km/h Distance 4.79 km</desc>
<time>2010-03-03T16:46:25.38</time>
<name>2943</name>
</trkpt>
<trkpt lat="48.936517" lon="8.691862">
<ele>391.5</ele>
<speed>6.0</speed>
<course>202.3</course>
<desc>Speed 6.0 km/h Distance 4.79 km</desc>
<time>2010-03-03T16:46:26.39</time>
<name>2944</name>
</trkpt>
<trkpt lat="48.936503" lon="8.691853">
<ele>391.5</ele>
<speed>6.1</speed>
<course>206.4</course>
<desc>Speed 6.1 km/h Distance 4.80 km</desc>
<time>2010-03-03T16:46:27.38</time>
<name>2945</name>
</trkpt>
<trkpt lat="48.936490" lon="8.691843">
<ele>391.5</ele>
<speed>6.1</speed>
<course>206.4</course>
<desc>Speed 6.1 km/h Distance 4.80 km</desc>
<time>2010-03-03T16:46:28.38</time>
<name>2946</name>
</trkpt>
<trkpt lat="48.936477" lon="8.691833">
<ele>391.0</ele>
<speed>5.9</speed>
<course>202.1</course>
<desc>Speed 5.9 km/h Distance 4.80 km</desc>
<time>2010-03-03T16:46:29.38</time>
<name>2947</name>
</trkpt>
<trkpt lat="48.936463" lon="8.691825">
<ele>391.0</ele>
<speed>6.0</speed>
<course>213.4</course>
<desc>Speed 6.0 km/h Distance 4.80 km</desc>
<time>2010-03-03T16:46:30.38</time>
<name>2948</name>
</trkpt>
<trkpt lat="48.936452" lon="8.691813">
<ele>391.0</ele>
<speed>6.0</speed>
<course>209.8</course>
<desc>Speed 6.0 km/h Distance 4.80 km</desc>
<time>2010-03-03T16:46:31.38</time>
<name>2949</name>
</trkpt>
<trkpt lat="48.936438" lon="8.691802">
<ele>390.5</ele>
<speed>6.0</speed>
<course>209.4</course>
<desc>Speed 6.0 km/h Distance 4.80 km</desc>
<time>2010-03-03T16:46:32.38</time>
<name>2950</name>
</trkpt>
<trkpt lat="48.936427" lon="8.691792">
<ele>390.5</ele>
<speed>5.6</speed>
<course>213.4</course>
<desc>Speed 5.6 km/h Distance 4.81 km</desc>
<time>2010-03-03T16:46:33.38</time>
<name>2951</name>
</trkpt>
<trkpt lat="48.936415" lon="8.691780">
<ele>390.0</ele>
<speed>5.9</speed>
<course>209.8</course>
<desc>Speed 5.9 km/h Distance 4.81 km</desc>
<time>2010-03-03T16:46:34.38</time>
<name>2952</name>
</trkpt>
<trkpt lat="48.936402" lon="8.691768">
<ele>389.5</ele>
<speed>5.9</speed>
<course>213.3</course>
<desc>Speed 5.9 km/h Distance 4.81 km</desc>
<time>2010-03-03T16:46:35.38</time>
<name>2953</name>
</trkpt>
<trkpt lat="48.936390" lon="8.691757">
<ele>389.5</ele>
<speed>5.6</speed>
<course>213.4</course>
<desc>Speed 5.6 km/h Distance 4.81 km</desc>
<time>2010-03-03T16:46:36.38</time>
<name>2954</name>
</trkpt>
<trkpt lat="48.936378" lon="8.691745">
<ele>389.5</ele>
<speed>5.9</speed>
<course>209.8</course>
<desc>Speed 5.9 km/h Distance 4.81 km</desc>
<time>2010-03-03T16:46:37.38</time>
<name>2955</name>
</trkpt>
<trkpt lat="48.936365" lon="8.691733">
<ele>389.5</ele>
<speed>5.9</speed>
<course>210.0</course>
<desc>Speed 5.9 km/h Distance 4.81 km</desc>
<time>2010-03-03T16:46:38.38</time>
<name>2956</name>
</trkpt>
<trkpt lat="48.936352" lon="8.691722">
<ele>389.5</ele>
<speed>6.1</speed>
<course>216.9</course>
<desc>Speed 6.1 km/h Distance 4.82 km</desc>
<time>2010-03-03T16:46:39.38</time>
<name>2957</name>
</trkpt>
<trkpt lat="48.936340" lon="8.691708">
<ele>389.0</ele>
<speed>6.0</speed>
<course>216.9</course>
<desc>Speed 6.0 km/h Distance 4.82 km</desc>
<time>2010-03-03T16:46:40.38</time>
<name>2958</name>
</trkpt>
<trkpt lat="48.936328" lon="8.691695">
<ele>389.0</ele>
<speed>6.1</speed>
<course>213.4</course>
<desc>Speed 6.1 km/h Distance 4.82 km</desc>
<time>2010-03-03T16:46:41.37</time>
<name>2959</name>
</trkpt>
<trkpt lat="48.936315" lon="8.691682">
<ele>389.0</ele>
<speed>6.0</speed>
<course>221.2</course>
<desc>Speed 6.0 km/h Distance 4.82 km</desc>
<time>2010-03-03T16:46:42.38</time>
<name>2960</name>
</trkpt>
<trkpt lat="48.936305" lon="8.691668">
<ele>389.0</ele>
<speed>5.9</speed>
<course>213.4</course>
<desc>Speed 5.9 km/h Distance 4.82 km</desc>
<time>2010-03-03T16:46:43.37</time>
<name>2961</name>
</trkpt>
<trkpt lat="48.936292" lon="8.691655">
<ele>388.5</ele>
<speed>6.0</speed>
<course>216.9</course>
<desc>Speed 6.0 km/h Distance 4.82 km</desc>
<time>2010-03-03T16:46:44.37</time>
<name>2962</name>
</trkpt>
<trkpt lat="48.936280" lon="8.691642">
<ele>388.5</ele>
<speed>6.1</speed>
<course>210.1</course>
<desc>Speed 6.1 km/h Distance 4.83 km</desc>
<time>2010-03-03T16:46:45.38</time>
<name>2963</name>
</trkpt>
<trkpt lat="48.936267" lon="8.691630">
<ele>388.5</ele>
<speed>6.0</speed>
<course>220.3</course>
<desc>Speed 6.0 km/h Distance 4.83 km</desc>
<time>2010-03-03T16:46:46.37</time>
<name>2964</name>
</trkpt>
<trkpt lat="48.936255" lon="8.691615">
<ele>388.5</ele>
<speed>6.2</speed>
<course>216.6</course>
<desc>Speed 6.2 km/h Distance 4.83 km</desc>
<time>2010-03-03T16:46:47.37</time>
<name>2965</name>
</trkpt>
<trkpt lat="48.936242" lon="8.691600">
<ele>388.5</ele>
<speed>6.2</speed>
<course>213.3</course>
<desc>Speed 6.2 km/h Distance 4.83 km</desc>
<time>2010-03-03T16:46:48.37</time>
<name>2966</name>
</trkpt>
<trkpt lat="48.936228" lon="8.691587">
<ele>388.5</ele>
<speed>6.0</speed>
<course>216.9</course>
<desc>Speed 6.0 km/h Distance 4.83 km</desc>
<time>2010-03-03T16:46:49.37</time>
<name>2967</name>
</trkpt>
<trkpt lat="48.936217" lon="8.691573">
<ele>388.5</ele>
<speed>6.0</speed>
<course>216.9</course>
<desc>Speed 6.0 km/h Distance 4.83 km</desc>
<time>2010-03-03T16:46:50.37</time>
<name>2968</name>
</trkpt>
<trkpt lat="48.936205" lon="8.691560">
<ele>388.0</ele>
<speed>6.1</speed>
<course>220.2</course>
<desc>Speed 6.1 km/h Distance 4.84 km</desc>
<time>2010-03-03T16:46:51.37</time>
<name>2969</name>
</trkpt>
<trkpt lat="48.936193" lon="8.691545">
<ele>388.0</ele>
<speed>6.2</speed>
<course>220.2</course>
<desc>Speed 6.2 km/h Distance 4.84 km</desc>
<time>2010-03-03T16:46:52.37</time>
<name>2970</name>
</trkpt>
<trkpt lat="48.936182" lon="8.691530">
<ele>388.0</ele>
<speed>6.1</speed>
<course>220.2</course>
<desc>Speed 6.1 km/h Distance 4.84 km</desc>
<time>2010-03-03T16:46:53.37</time>
<name>2971</name>
</trkpt>
<trkpt lat="48.936170" lon="8.691515">
<ele>388.0</ele>
<speed>6.1</speed>
<course>220.2</course>
<desc>Speed 6.1 km/h Distance 4.84 km</desc>
<time>2010-03-03T16:46:54.37</time>
<name>2972</name>
</trkpt>
<trkpt lat="48.936158" lon="8.691500">
<ele>387.5</ele>
<speed>6.0</speed>
<course>220.2</course>
<desc>Speed 6.0 km/h Distance 4.84 km</desc>
<time>2010-03-03T16:46:55.37</time>
<name>2973</name>
</trkpt>
<trkpt lat="48.936147" lon="8.691485">
<ele>387.5</ele>
<speed>6.0</speed>
<course>216.9</course>
<desc>Speed 6.0 km/h Distance 4.84 km</desc>
<time>2010-03-03T16:46:56.37</time>
<name>2974</name>
</trkpt>
<trkpt lat="48.936135" lon="8.691472">
<ele>387.5</ele>
<speed>5.9</speed>
<course>220.2</course>
<desc>Speed 5.9 km/h Distance 4.85 km</desc>
<time>2010-03-03T16:46:57.37</time>
<name>2975</name>
</trkpt>
<trkpt lat="48.936123" lon="8.691457">
<ele>387.5</ele>
<speed>6.0</speed>
<course>220.1</course>
<desc>Speed 6.0 km/h Distance 4.85 km</desc>
<time>2010-03-03T16:46:58.37</time>
<name>2976</name>
</trkpt>
<trkpt lat="48.936112" lon="8.691442">
<ele>387.5</ele>
<speed>6.0</speed>
<course>220.2</course>
<desc>Speed 6.0 km/h Distance 4.85 km</desc>
<time>2010-03-03T16:46:59.37</time>
<name>2977</name>
</trkpt>
<trkpt lat="48.936100" lon="8.691427">
<ele>387.0</ele>
<speed>6.0</speed>
<course>216.9</course>
<desc>Speed 6.0 km/h Distance 4.85 km</desc>
<time>2010-03-03T16:47:00.36</time>
<name>2978</name>
</trkpt>
<trkpt lat="48.936088" lon="8.691413">
<ele>387.0</ele>
<speed>6.1</speed>
<course>213.4</course>
<desc>Speed 6.1 km/h Distance 4.85 km</desc>
<time>2010-03-03T16:47:01.36</time>
<name>2979</name>
</trkpt>
<trkpt lat="48.936075" lon="8.691400">
<ele>387.0</ele>
<speed>6.2</speed>
<course>216.9</course>
<desc>Speed 6.2 km/h Distance 4.85 km</desc>
<time>2010-03-03T16:47:02.36</time>
<name>2980</name>
</trkpt>
<trkpt lat="48.936063" lon="8.691387">
<ele>387.0</ele>
<speed>6.2</speed>
<course>223.1</course>
<desc>Speed 6.2 km/h Distance 4.86 km</desc>
<time>2010-03-03T16:47:03.37</time>
<name>2981</name>
</trkpt>
<trkpt lat="48.936052" lon="8.691370">
<ele>387.0</ele>
<speed>6.3</speed>
<course>223.1</course>
<desc>Speed 6.3 km/h Distance 4.86 km</desc>
<time>2010-03-03T16:47:04.36</time>
<name>2982</name>
</trkpt>
<trkpt lat="48.936040" lon="8.691353">
<ele>387.0</ele>
<speed>6.2</speed>
<course>220.2</course>
<desc>Speed 6.2 km/h Distance 4.86 km</desc>
<time>2010-03-03T16:47:05.36</time>
<name>2983</name>
</trkpt>
<trkpt lat="48.936028" lon="8.691338">
<ele>387.0</ele>
<speed>6.2</speed>
<course>219.4</course>
<desc>Speed 6.2 km/h Distance 4.86 km</desc>
<time>2010-03-03T16:47:06.36</time>
<name>2984</name>
</trkpt>
<trkpt lat="48.936015" lon="8.691322">
<ele>387.0</ele>
<speed>6.3</speed>
<course>220.2</course>
<desc>Speed 6.3 km/h Distance 4.86 km</desc>
<time>2010-03-03T16:47:07.51</time>
<name>2985</name>
</trkpt>
<trkpt lat="48.936003" lon="8.691307">
<ele>387.0</ele>
<speed>6.0</speed>
<course>216.9</course>
<desc>Speed 6.0 km/h Distance 4.86 km</desc>
<time>2010-03-03T16:47:08.36</time>
<name>2986</name>
</trkpt>
<trkpt lat="48.935992" lon="8.691293">
<ele>387.0</ele>
<speed>6.1</speed>
<course>216.6</course>
<desc>Speed 6.1 km/h Distance 4.87 km</desc>
<time>2010-03-03T16:47:09.37</time>
<name>2987</name>
</trkpt>
<trkpt lat="48.935978" lon="8.691278">
<ele>387.5</ele>
<speed>6.3</speed>
<course>220.2</course>
<desc>Speed 6.3 km/h Distance 4.87 km</desc>
<time>2010-03-03T16:47:10.36</time>
<name>2988</name>
</trkpt>
<trkpt lat="48.935967" lon="8.691263">
<ele>387.5</ele>
<speed>6.0</speed>
<course>220.2</course>
<desc>Speed 6.0 km/h Distance 4.87 km</desc>
<time>2010-03-03T16:47:11.36</time>
<name>2989</name>
</trkpt>
<trkpt lat="48.935955" lon="8.691248">
<ele>387.5</ele>
<speed>6.2</speed>
<course>223.3</course>
<desc>Speed 6.2 km/h Distance 4.87 km</desc>
<time>2010-03-03T16:47:12.44</time>
<name>2990</name>
</trkpt>
<trkpt lat="48.935943" lon="8.691232">
<ele>387.5</ele>
<speed>6.5</speed>
<course>219.4</course>
<desc>Speed 6.5 km/h Distance 4.87 km</desc>
<time>2010-03-03T16:47:13.36</time>
<name>2991</name>
</trkpt>
<trkpt lat="48.935930" lon="8.691215">
<ele>387.5</ele>
<speed>6.5</speed>
<course>223.2</course>
<desc>Speed 6.5 km/h Distance 4.88 km</desc>
<time>2010-03-03T16:47:14.36</time>
<name>2992</name>
</trkpt>
<trkpt lat="48.935918" lon="8.691198">
<ele>387.5</ele>
<speed>6.2</speed>
<course>227.5</course>
<desc>Speed 6.2 km/h Distance 4.88 km</desc>
<time>2010-03-03T16:47:15.36</time>
<name>2993</name>
</trkpt>
<trkpt lat="48.935908" lon="8.691182">
<ele>387.5</ele>
<speed>6.2</speed>
<course>223.3</course>
<desc>Speed 6.2 km/h Distance 4.88 km</desc>
<time>2010-03-03T16:47:16.36</time>
<name>2994</name>
</trkpt>
<trkpt lat="48.935897" lon="8.691165">
<ele>387.5</ele>
<speed>6.2</speed>
<course>220.3</course>
<desc>Speed 6.2 km/h Distance 4.88 km</desc>
<time>2010-03-03T16:47:17.36</time>
<name>2995</name>
</trkpt>
<trkpt lat="48.935885" lon="8.691150">
<ele>387.5</ele>
<speed>6.1</speed>
<course>220.2</course>
<desc>Speed 6.1 km/h Distance 4.88 km</desc>
<time>2010-03-03T16:47:18.35</time>
<name>2996</name>
</trkpt>
<trkpt lat="48.935873" lon="8.691135">
<ele>387.5</ele>
<speed>6.3</speed>
<course>220.2</course>
<desc>Speed 6.3 km/h Distance 4.88 km</desc>
<time>2010-03-03T16:47:19.36</time>
<name>2997</name>
</trkpt>
<trkpt lat="48.935862" lon="8.691120">
<ele>387.5</ele>
<speed>6.2</speed>
<course>220.2</course>
<desc>Speed 6.2 km/h Distance 4.89 km</desc>
<time>2010-03-03T16:47:20.36</time>
<name>2998</name>
</trkpt>
<trkpt lat="48.935850" lon="8.691105">
<ele>387.5</ele>
<speed>6.3</speed>
<course>223.3</course>
<desc>Speed 6.3 km/h Distance 4.89 km</desc>
<time>2010-03-03T16:47:21.35</time>
<name>2999</name>
</trkpt>
<trkpt lat="48.935838" lon="8.691088">
<ele>387.5</ele>
<speed>6.3</speed>
<course>219.5</course>
<desc>Speed 6.3 km/h Distance 4.89 km</desc>
<time>2010-03-03T16:47:22.35</time>
<name>3000</name>
</trkpt>
<trkpt lat="48.935825" lon="8.691072">
<ele>387.5</ele>
<speed>6.4</speed>
<course>220.3</course>
<desc>Speed 6.4 km/h Distance 4.89 km</desc>
<time>2010-03-03T16:47:23.36</time>
<name>3001</name>
</trkpt>
<trkpt lat="48.935813" lon="8.691057">
<ele>387.5</ele>
<speed>6.4</speed>
<course>223.3</course>
<desc>Speed 6.4 km/h Distance 4.89 km</desc>
<time>2010-03-03T16:47:24.36</time>
<name>3002</name>
</trkpt>
<trkpt lat="48.935802" lon="8.691040">
<ele>387.5</ele>
<speed>6.5</speed>
<course>216.4</course>
<desc>Speed 6.5 km/h Distance 4.89 km</desc>
<time>2010-03-03T16:47:25.35</time>
<name>3003</name>
</trkpt>
<trkpt lat="48.935788" lon="8.691025">
<ele>387.5</ele>
<speed>6.4</speed>
<course>220.2</course>
<desc>Speed 6.4 km/h Distance 4.90 km</desc>
<time>2010-03-03T16:47:26.35</time>
<name>3004</name>
</trkpt>
<trkpt lat="48.935777" lon="8.691010">
<ele>387.5</ele>
<speed>6.5</speed>
<course>223.3</course>
<desc>Speed 6.5 km/h Distance 4.90 km</desc>
<time>2010-03-03T16:47:27.35</time>
<name>3005</name>
</trkpt>
<trkpt lat="48.935765" lon="8.690993">
<ele>388.0</ele>
<speed>6.3</speed>
<course>220.2</course>
<desc>Speed 6.3 km/h Distance 4.90 km</desc>
<time>2010-03-03T16:47:28.35</time>
<name>3006</name>
</trkpt>
<trkpt lat="48.935753" lon="8.690978">
<ele>388.0</ele>
<speed>6.5</speed>
<course>219.4</course>
<desc>Speed 6.5 km/h Distance 4.90 km</desc>
<time>2010-03-03T16:47:29.35</time>
<name>3007</name>
</trkpt>
<trkpt lat="48.935740" lon="8.690962">
<ele>387.5</ele>
<speed>6.5</speed>
<course>220.2</course>
<desc>Speed 6.5 km/h Distance 4.90 km</desc>
<time>2010-03-03T16:47:30.35</time>
<name>3008</name>
</trkpt>
<trkpt lat="48.935728" lon="8.690947">
<ele>387.5</ele>
<speed>6.4</speed>
<course>220.2</course>
<desc>Speed 6.4 km/h Distance 4.91 km</desc>
<time>2010-03-03T16:47:31.35</time>
<name>3009</name>
</trkpt>
<trkpt lat="48.935717" lon="8.690932">
<ele>387.5</ele>
<speed>6.4</speed>
<course>216.5</course>
<desc>Speed 6.4 km/h Distance 4.91 km</desc>
<time>2010-03-03T16:47:32.35</time>
<name>3010</name>
</trkpt>
<trkpt lat="48.935703" lon="8.690917">
<ele>387.5</ele>
<speed>6.5</speed>
<course>223.3</course>
<desc>Speed 6.5 km/h Distance 4.91 km</desc>
<time>2010-03-03T16:47:33.35</time>
<name>3011</name>
</trkpt>
<trkpt lat="48.935692" lon="8.690900">
<ele>387.5</ele>
<speed>6.4</speed>
<course>216.6</course>
<desc>Speed 6.4 km/h Distance 4.91 km</desc>
<time>2010-03-03T16:47:34.35</time>
<name>3012</name>
</trkpt>
<trkpt lat="48.935678" lon="8.690885">
<ele>388.0</ele>
<speed>6.4</speed>
<course>217.0</course>
<desc>Speed 6.4 km/h Distance 4.91 km</desc>
<time>2010-03-03T16:47:35.35</time>
<name>3013</name>
</trkpt>
<trkpt lat="48.935667" lon="8.690872">
<ele>387.5</ele>
<speed>6.4</speed>
<course>216.5</course>
<desc>Speed 6.4 km/h Distance 4.91 km</desc>
<time>2010-03-03T16:47:36.35</time>
<name>3014</name>
</trkpt>
<trkpt lat="48.935653" lon="8.690857">
<ele>388.0</ele>
<speed>6.4</speed>
<course>223.2</course>
<desc>Speed 6.4 km/h Distance 4.92 km</desc>
<time>2010-03-03T16:47:37.35</time>
<name>3015</name>
</trkpt>
<trkpt lat="48.935642" lon="8.690840">
<ele>388.0</ele>
<speed>6.5</speed>
<course>220.3</course>
<desc>Speed 6.5 km/h Distance 4.92 km</desc>
<time>2010-03-03T16:47:38.35</time>
<name>3016</name>
</trkpt>
<trkpt lat="48.935630" lon="8.690825">
<ele>388.0</ele>
<speed>6.3</speed>
<course>223.3</course>
<desc>Speed 6.3 km/h Distance 4.92 km</desc>
<time>2010-03-03T16:47:39.35</time>
<name>3017</name>
</trkpt>
<trkpt lat="48.935618" lon="8.690808">
<ele>388.0</ele>
<speed>6.2</speed>
<course>220.2</course>
<desc>Speed 6.2 km/h Distance 4.92 km</desc>
<time>2010-03-03T16:47:40.35</time>
<name>3018</name>
</trkpt>
<trkpt lat="48.935607" lon="8.690793">
<ele>388.0</ele>
<speed>6.3</speed>
<course>223.3</course>
<desc>Speed 6.3 km/h Distance 4.92 km</desc>
<time>2010-03-03T16:47:41.35</time>
<name>3019</name>
</trkpt>
<trkpt lat="48.935595" lon="8.690777">
<ele>388.0</ele>
<speed>6.3</speed>
<course>220.3</course>
<desc>Speed 6.3 km/h Distance 4.92 km</desc>
<time>2010-03-03T16:47:42.35</time>
<name>3020</name>
</trkpt>
<trkpt lat="48.935583" lon="8.690762">
<ele>388.5</ele>
<speed>6.3</speed>
<course>213.3</course>
<desc>Speed 6.3 km/h Distance 4.93 km</desc>
<time>2010-03-03T16:47:43.35</time>
<name>3021</name>
</trkpt>
<trkpt lat="48.935570" lon="8.690748">
<ele>388.5</ele>
<speed>6.3</speed>
<course>223.3</course>
<desc>Speed 6.3 km/h Distance 4.93 km</desc>
<time>2010-03-03T16:47:44.35</time>
<name>3022</name>
</trkpt>
<trkpt lat="48.935558" lon="8.690732">
<ele>388.5</ele>
<speed>6.3</speed>
<course>217.0</course>
<desc>Speed 6.3 km/h Distance 4.93 km</desc>
<time>2010-03-03T16:47:45.34</time>
<name>3023</name>
</trkpt>
<trkpt lat="48.935547" lon="8.690718">
<ele>388.5</ele>
<speed>6.3</speed>
<course>219.5</course>
<desc>Speed 6.3 km/h Distance 4.93 km</desc>
<time>2010-03-03T16:47:46.34</time>
<name>3024</name>
</trkpt>
<trkpt lat="48.935533" lon="8.690702">
<ele>388.5</ele>
<speed>6.3</speed>
<course>224.6</course>
<desc>Speed 6.3 km/h Distance 4.93 km</desc>
<time>2010-03-03T16:47:47.34</time>
<name>3025</name>
</trkpt>
<trkpt lat="48.935523" lon="8.690687">
<ele>389.0</ele>
<speed>6.2</speed>
<course>220.2</course>
<desc>Speed 6.2 km/h Distance 4.93 km</desc>
<time>2010-03-03T16:47:48.35</time>
<name>3026</name>
</trkpt>
<trkpt lat="48.935512" lon="8.690672">
<ele>389.0</ele>
<speed>6.0</speed>
<course>220.2</course>
<desc>Speed 6.0 km/h Distance 4.94 km</desc>
<time>2010-03-03T16:47:49.34</time>
<name>3027</name>
</trkpt>
<trkpt lat="48.935500" lon="8.690657">
<ele>389.0</ele>
<speed>6.2</speed>
<course>223.3</course>
<desc>Speed 6.2 km/h Distance 4.94 km</desc>
<time>2010-03-03T16:47:50.34</time>
<name>3028</name>
</trkpt>
<trkpt lat="48.935488" lon="8.690640">
<ele>389.0</ele>
<speed>6.2</speed>
<course>220.2</course>
<desc>Speed 6.2 km/h Distance 4.94 km</desc>
<time>2010-03-03T16:47:51.34</time>
<name>3029</name>
</trkpt>
<trkpt lat="48.935477" lon="8.690625">
<ele>389.0</ele>
<speed>6.3</speed>
<course>216.5</course>
<desc>Speed 6.3 km/h Distance 4.94 km</desc>
<time>2010-03-03T16:47:52.34</time>
<name>3030</name>
</trkpt>
<trkpt lat="48.935463" lon="8.690610">
<ele>389.5</ele>
<speed>6.2</speed>
<course>220.2</course>
<desc>Speed 6.2 km/h Distance 4.94 km</desc>
<time>2010-03-03T16:47:53.34</time>
<name>3031</name>
</trkpt>
<trkpt lat="48.935452" lon="8.690595">
<ele>389.5</ele>
<speed>6.3</speed>
<course>223.1</course>
<desc>Speed 6.3 km/h Distance 4.95 km</desc>
<time>2010-03-03T16:47:54.34</time>
<name>3032</name>
</trkpt>
<trkpt lat="48.935440" lon="8.690578">
<ele>389.5</ele>
<speed>6.2</speed>
<course>227.6</course>
<desc>Speed 6.2 km/h Distance 4.95 km</desc>
<time>2010-03-03T16:47:55.34</time>
<name>3033</name>
</trkpt>
<trkpt lat="48.935430" lon="8.690562">
<ele>389.5</ele>
<speed>6.4</speed>
<course>225.9</course>
<desc>Speed 6.4 km/h Distance 4.95 km</desc>
<time>2010-03-03T16:47:56.34</time>
<name>3034</name>
</trkpt>
<trkpt lat="48.935418" lon="8.690543">
<ele>389.5</ele>
<speed>6.5</speed>
<course>225.9</course>
<desc>Speed 6.5 km/h Distance 4.95 km</desc>
<time>2010-03-03T16:47:57.34</time>
<name>3035</name>
</trkpt>
<trkpt lat="48.935407" lon="8.690525">
<ele>389.5</ele>
<speed>6.4</speed>
<course>227.6</course>
<desc>Speed 6.4 km/h Distance 4.95 km</desc>
<time>2010-03-03T16:47:58.34</time>
<name>3036</name>
</trkpt>
<trkpt lat="48.935397" lon="8.690508">
<ele>389.5</ele>
<speed>6.3</speed>
<course>223.3</course>
<desc>Speed 6.3 km/h Distance 4.95 km</desc>
<time>2010-03-03T16:47:59.34</time>
<name>3037</name>
</trkpt>
<trkpt lat="48.935385" lon="8.690492">
<ele>389.5</ele>
<speed>6.3</speed>
<course>223.2</course>
<desc>Speed 6.3 km/h Distance 4.96 km</desc>
<time>2010-03-03T16:48:00.34</time>
<name>3038</name>
</trkpt>
<trkpt lat="48.935373" lon="8.690475">
<ele>390.0</ele>
<speed>6.3</speed>
<course>220.2</course>
<desc>Speed 6.3 km/h Distance 4.96 km</desc>
<time>2010-03-03T16:48:01.34</time>
<name>3039</name>
</trkpt>
<trkpt lat="48.935362" lon="8.690460">
<ele>390.0</ele>
<speed>6.3</speed>
<course>223.2</course>
<desc>Speed 6.3 km/h Distance 4.96 km</desc>
<time>2010-03-03T16:48:02.34</time>
<name>3040</name>
</trkpt>
<trkpt lat="48.935350" lon="8.690443">
<ele>390.0</ele>
<speed>6.4</speed>
<course>227.5</course>
<desc>Speed 6.4 km/h Distance 4.96 km</desc>
<time>2010-03-03T16:48:03.34</time>
<name>3041</name>
</trkpt>
<trkpt lat="48.935340" lon="8.690427">
<ele>390.0</ele>
<speed>6.3</speed>
<course>223.2</course>
<desc>Speed 6.3 km/h Distance 4.96 km</desc>
<time>2010-03-03T16:48:04.34</time>
<name>3042</name>
</trkpt>
<trkpt lat="48.935328" lon="8.690410">
<ele>390.0</ele>
<speed>6.3</speed>
<course>225.9</course>
<desc>Speed 6.3 km/h Distance 4.96 km</desc>
<time>2010-03-03T16:48:05.34</time>
<name>3043</name>
</trkpt>
<trkpt lat="48.935317" lon="8.690392">
<ele>390.0</ele>
<speed>6.4</speed>
<course>227.6</course>
<desc>Speed 6.4 km/h Distance 4.97 km</desc>
<time>2010-03-03T16:48:06.34</time>
<name>3044</name>
</trkpt>
<trkpt lat="48.935307" lon="8.690375">
<ele>390.0</ele>
<speed>6.2</speed>
<course>223.2</course>
<desc>Speed 6.2 km/h Distance 4.97 km</desc>
<time>2010-03-03T16:48:07.34</time>
<name>3045</name>
</trkpt>
<trkpt lat="48.935295" lon="8.690358">
<ele>390.0</ele>
<speed>6.4</speed>
<course>220.2</course>
<desc>Speed 6.4 km/h Distance 4.97 km</desc>
<time>2010-03-03T16:48:08.34</time>
<name>3046</name>
</trkpt>
<trkpt lat="48.935283" lon="8.690343">
<ele>390.0</ele>
<speed>6.3</speed>
<course>223.2</course>
<desc>Speed 6.3 km/h Distance 4.97 km</desc>
<time>2010-03-03T16:48:09.34</time>
<name>3047</name>
</trkpt>
<trkpt lat="48.935272" lon="8.690327">
<ele>390.0</ele>
<speed>6.3</speed>
<course>220.2</course>
<desc>Speed 6.3 km/h Distance 4.97 km</desc>
<time>2010-03-03T16:48:10.34</time>
<name>3048</name>
</trkpt>
<trkpt lat="48.935260" lon="8.690312">
<ele>390.0</ele>
<speed>6.3</speed>
<course>223.2</course>
<desc>Speed 6.3 km/h Distance 4.98 km</desc>
<time>2010-03-03T16:48:11.33</time>
<name>3049</name>
</trkpt>
<trkpt lat="48.935248" lon="8.690295">
<ele>390.0</ele>
<speed>6.3</speed>
<course>223.3</course>
<desc>Speed 6.3 km/h Distance 4.98 km</desc>
<time>2010-03-03T16:48:12.33</time>
<name>3050</name>
</trkpt>
<trkpt lat="48.935237" lon="8.690278">
<ele>390.5</ele>
<speed>6.3</speed>
<course>230.3</course>
<desc>Speed 6.3 km/h Distance 4.98 km</desc>
<time>2010-03-03T16:48:13.33</time>
<name>3051</name>
</trkpt>
<trkpt lat="48.935227" lon="8.690260">
<ele>390.5</ele>
<speed>6.4</speed>
<course>225.9</course>
<desc>Speed 6.4 km/h Distance 4.98 km</desc>
<time>2010-03-03T16:48:14.33</time>
<name>3052</name>
</trkpt>
<trkpt lat="48.935215" lon="8.690242">
<ele>390.5</ele>
<speed>6.4</speed>
<course>235.3</course>
<desc>Speed 6.4 km/h Distance 4.98 km</desc>
<time>2010-03-03T16:48:15.34</time>
<name>3053</name>
</trkpt>
<trkpt lat="48.935207" lon="8.690223">
<ele>390.5</ele>
<speed>6.1</speed>
<course>227.6</course>
<desc>Speed 6.1 km/h Distance 4.98 km</desc>
<time>2010-03-03T16:48:16.33</time>
<name>3054</name>
</trkpt>
<trkpt lat="48.935197" lon="8.690207">
<ele>390.5</ele>
<speed>5.8</speed>
<course>235.3</course>
<desc>Speed 5.8 km/h Distance 4.99 km</desc>
<time>2010-03-03T16:48:17.33</time>
<name>3055</name>
</trkpt>
<trkpt lat="48.935188" lon="8.690188">
<ele>390.5</ele>
<speed>5.9</speed>
<course>227.6</course>
<desc>Speed 5.9 km/h Distance 4.99 km</desc>
<time>2010-03-03T16:48:18.33</time>
<name>3056</name>
</trkpt>
<trkpt lat="48.935178" lon="8.690172">
<ele>390.5</ele>
<speed>6.0</speed>
<course>237.6</course>
<desc>Speed 6.0 km/h Distance 4.99 km</desc>
<time>2010-03-03T16:48:19.33</time>
<name>3057</name>
</trkpt>
<trkpt lat="48.935170" lon="8.690152">
<ele>390.5</ele>
<speed>6.2</speed>
<course>230.3</course>
<desc>Speed 6.2 km/h Distance 4.99 km</desc>
<time>2010-03-03T16:48:20.33</time>
<name>3058</name>
</trkpt>
<trkpt lat="48.935160" lon="8.690133">
<ele>390.5</ele>
<speed>6.3</speed>
<course>223.3</course>
<desc>Speed 6.3 km/h Distance 4.99 km</desc>
<time>2010-03-03T16:48:21.33</time>
<name>3059</name>
</trkpt>
<trkpt lat="48.935148" lon="8.690117">
<ele>390.5</ele>
<speed>6.2</speed>
<course>237.6</course>
<desc>Speed 6.2 km/h Distance 4.99 km</desc>
<time>2010-03-03T16:48:22.33</time>
<name>3060</name>
</trkpt>
<trkpt lat="48.935140" lon="8.690097">
<ele>391.0</ele>
<speed>6.4</speed>
<course>232.7</course>
<desc>Speed 6.4 km/h Distance 5.00 km</desc>
<time>2010-03-03T16:48:23.33</time>
<name>3061</name>
</trkpt>
<trkpt lat="48.935130" lon="8.690077">
<ele>390.5</ele>
<speed>6.2</speed>
<course>235.3</course>
<desc>Speed 6.2 km/h Distance 5.00 km</desc>
<time>2010-03-03T16:48:24.33</time>
<name>3062</name>
</trkpt>
<trkpt lat="48.935122" lon="8.690058">
<ele>391.0</ele>
<speed>6.1</speed>
<course>223.2</course>
<desc>Speed 6.1 km/h Distance 5.00 km</desc>
<time>2010-03-03T16:48:25.33</time>
<name>3063</name>
</trkpt>
<trkpt lat="48.935110" lon="8.690042">
<ele>391.0</ele>
<speed>6.2</speed>
<course>230.3</course>
<desc>Speed 6.2 km/h Distance 5.00 km</desc>
<time>2010-03-03T16:48:26.33</time>
<name>3064</name>
</trkpt>
<trkpt lat="48.935100" lon="8.690023">
<ele>391.0</ele>
<speed>6.2</speed>
<course>235.3</course>
<desc>Speed 6.2 km/h Distance 5.00 km</desc>
<time>2010-03-03T16:48:27.33</time>
<name>3065</name>
</trkpt>
<trkpt lat="48.935092" lon="8.690005">
<ele>391.0</ele>
<speed>6.3</speed>
<course>232.7</course>
<desc>Speed 6.3 km/h Distance 5.00 km</desc>
<time>2010-03-03T16:48:28.33</time>
<name>3066</name>
</trkpt>
<trkpt lat="48.935082" lon="8.689985">
<ele>391.0</ele>
<speed>6.2</speed>
<course>230.3</course>
<desc>Speed 6.2 km/h Distance 5.01 km</desc>
<time>2010-03-03T16:48:29.33</time>
<name>3067</name>
</trkpt>
<trkpt lat="48.935072" lon="8.689967">
<ele>391.5</ele>
<speed>6.3</speed>
<course>230.3</course>
<desc>Speed 6.3 km/h Distance 5.01 km</desc>
<time>2010-03-03T16:48:30.33</time>
<name>3068</name>
</trkpt>
<trkpt lat="48.935062" lon="8.689948">
<ele>391.5</ele>
<speed>6.2</speed>
<course>230.3</course>
<desc>Speed 6.2 km/h Distance 5.01 km</desc>
<time>2010-03-03T16:48:31.33</time>
<name>3069</name>
</trkpt>
<trkpt lat="48.935052" lon="8.689930">
<ele>391.5</ele>
<speed>6.3</speed>
<course>232.7</course>
<desc>Speed 6.3 km/h Distance 5.01 km</desc>
<time>2010-03-03T16:48:32.33</time>
<name>3070</name>
</trkpt>
<trkpt lat="48.935042" lon="8.689910">
<ele>392.0</ele>
<speed>6.1</speed>
<course>230.3</course>
<desc>Speed 6.1 km/h Distance 5.01 km</desc>
<time>2010-03-03T16:48:33.33</time>
<name>3071</name>
</trkpt>
<trkpt lat="48.935032" lon="8.689892">
<ele>392.0</ele>
<speed>6.3</speed>
<course>235.4</course>
<desc>Speed 6.3 km/h Distance 5.02 km</desc>
<time>2010-03-03T16:48:34.32</time>
<name>3072</name>
</trkpt>
<trkpt lat="48.935023" lon="8.689873">
<ele>392.0</ele>
<speed>6.1</speed>
<course>230.3</course>
<desc>Speed 6.1 km/h Distance 5.02 km</desc>
<time>2010-03-03T16:48:35.32</time>
<name>3073</name>
</trkpt>
<trkpt lat="48.935013" lon="8.689855">
<ele>392.0</ele>
<speed>6.2</speed>
<course>230.3</course>
<desc>Speed 6.2 km/h Distance 5.02 km</desc>
<time>2010-03-03T16:48:36.33</time>
<name>3074</name>
</trkpt>
<trkpt lat="48.935003" lon="8.689837">
<ele>391.5</ele>
<speed>6.2</speed>
<course>230.3</course>
<desc>Speed 6.2 km/h Distance 5.02 km</desc>
<time>2010-03-03T16:48:37.33</time>
<name>3075</name>
</trkpt>
<trkpt lat="48.934993" lon="8.689818">
<ele>391.5</ele>
<speed>6.2</speed>
<course>227.5</course>
<desc>Speed 6.2 km/h Distance 5.02 km</desc>
<time>2010-03-03T16:48:38.32</time>
<name>3076</name>
</trkpt>
<trkpt lat="48.934983" lon="8.689802">
<ele>391.5</ele>
<speed>6.1</speed>
<course>235.3</course>
<desc>Speed 6.1 km/h Distance 5.02 km</desc>
<time>2010-03-03T16:48:39.32</time>
<name>3077</name>
</trkpt>
<trkpt lat="48.934975" lon="8.689783">
<ele>391.5</ele>
<speed>6.2</speed>
<course>230.3</course>
<desc>Speed 6.2 km/h Distance 5.03 km</desc>
<time>2010-03-03T16:48:40.32</time>
<name>3078</name>
</trkpt>
<trkpt lat="48.934965" lon="8.689765">
<ele>391.5</ele>
<speed>6.2</speed>
<course>223.1</course>
<desc>Speed 6.2 km/h Distance 5.03 km</desc>
<time>2010-03-03T16:48:41.32</time>
<name>3079</name>
</trkpt>
<trkpt lat="48.934953" lon="8.689748">
<ele>391.5</ele>
<speed>6.1</speed>
<course>227.6</course>
<desc>Speed 6.1 km/h Distance 5.03 km</desc>
<time>2010-03-03T16:48:42.32</time>
<name>3080</name>
</trkpt>
<trkpt lat="48.934943" lon="8.689732">
<ele>391.5</ele>
<speed>6.2</speed>
<course>235.4</course>
<desc>Speed 6.2 km/h Distance 5.03 km</desc>
<time>2010-03-03T16:48:43.32</time>
<name>3081</name>
</trkpt>
<trkpt lat="48.934935" lon="8.689713">
<ele>391.5</ele>
<speed>6.2</speed>
<course>230.3</course>
<desc>Speed 6.2 km/h Distance 5.03 km</desc>
<time>2010-03-03T16:48:44.32</time>
<name>3082</name>
</trkpt>
<trkpt lat="48.934925" lon="8.689695">
<ele>391.5</ele>
<speed>6.2</speed>
<course>235.3</course>
<desc>Speed 6.2 km/h Distance 5.03 km</desc>
<time>2010-03-03T16:48:45.32</time>
<name>3083</name>
</trkpt>
<trkpt lat="48.934917" lon="8.689677">
<ele>391.5</ele>
<speed>6.2</speed>
<course>230.3</course>
<desc>Speed 6.2 km/h Distance 5.04 km</desc>
<time>2010-03-03T16:48:46.33</time>
<name>3084</name>
</trkpt>
<trkpt lat="48.934907" lon="8.689658">
<ele>391.5</ele>
<speed>6.3</speed>
<course>235.3</course>
<desc>Speed 6.3 km/h Distance 5.04 km</desc>
<time>2010-03-03T16:48:47.32</time>
<name>3085</name>
</trkpt>
<trkpt lat="48.934898" lon="8.689640">
<ele>391.5</ele>
<speed>6.1</speed>
<course>230.3</course>
<desc>Speed 6.1 km/h Distance 5.04 km</desc>
<time>2010-03-03T16:48:48.32</time>
<name>3086</name>
</trkpt>
<trkpt lat="48.934888" lon="8.689622">
<ele>391.0</ele>
<speed>6.0</speed>
<course>235.4</course>
<desc>Speed 6.0 km/h Distance 5.04 km</desc>
<time>2010-03-03T16:48:49.32</time>
<name>3087</name>
</trkpt>
<trkpt lat="48.934880" lon="8.689603">
<ele>391.0</ele>
<speed>6.0</speed>
<course>230.3</course>
<desc>Speed 6.0 km/h Distance 5.04 km</desc>
<time>2010-03-03T16:48:50.32</time>
<name>3088</name>
</trkpt>
<trkpt lat="48.934870" lon="8.689585">
<ele>391.0</ele>
<speed>6.0</speed>
<course>227.6</course>
<desc>Speed 6.0 km/h Distance 5.04 km</desc>
<time>2010-03-03T16:48:51.32</time>
<name>3089</name>
</trkpt>
<trkpt lat="48.934860" lon="8.689568">
<ele>391.0</ele>
<speed>6.2</speed>
<course>230.3</course>
<desc>Speed 6.2 km/h Distance 5.05 km</desc>
<time>2010-03-03T16:48:52.31</time>
<name>3090</name>
</trkpt>
<trkpt lat="48.934850" lon="8.689550">
<ele>391.0</ele>
<speed>6.2</speed>
<course>230.3</course>
<desc>Speed 6.2 km/h Distance 5.05 km</desc>
<time>2010-03-03T16:48:53.31</time>
<name>3091</name>
</trkpt>
<trkpt lat="48.934840" lon="8.689532">
<ele>391.0</ele>
<speed>6.3</speed>
<course>230.3</course>
<desc>Speed 6.3 km/h Distance 5.05 km</desc>
<time>2010-03-03T16:48:54.31</time>
<name>3092</name>
</trkpt>
<trkpt lat="48.934830" lon="8.689513">
<ele>391.5</ele>
<speed>6.3</speed>
<course>235.4</course>
<desc>Speed 6.3 km/h Distance 5.05 km</desc>
<time>2010-03-03T16:48:55.31</time>
<name>3093</name>
</trkpt>
<trkpt lat="48.934822" lon="8.689495">
<ele>391.0</ele>
<speed>6.3</speed>
<course>228.4</course>
<desc>Speed 6.3 km/h Distance 5.05 km</desc>
<time>2010-03-03T16:48:56.31</time>
<name>3094</name>
</trkpt>
<trkpt lat="48.934810" lon="8.689475">
<ele>391.5</ele>
<speed>6.5</speed>
<course>235.4</course>
<desc>Speed 6.5 km/h Distance 5.05 km</desc>
<time>2010-03-03T16:48:57.32</time>
<name>3095</name>
</trkpt>
<trkpt lat="48.934802" lon="8.689457">
<ele>391.5</ele>
<speed>6.3</speed>
<course>232.8</course>
<desc>Speed 6.3 km/h Distance 5.06 km</desc>
<time>2010-03-03T16:48:58.31</time>
<name>3096</name>
</trkpt>
<trkpt lat="48.934792" lon="8.689437">
<ele>391.5</ele>
<speed>6.5</speed>
<course>230.4</course>
<desc>Speed 6.5 km/h Distance 5.06 km</desc>
<time>2010-03-03T16:48:59.31</time>
<name>3097</name>
</trkpt>
<trkpt lat="48.934782" lon="8.689418">
<ele>391.5</ele>
<speed>6.3</speed>
<course>232.7</course>
<desc>Speed 6.3 km/h Distance 5.06 km</desc>
<time>2010-03-03T16:49:00.31</time>
<name>3098</name>
</trkpt>
<trkpt lat="48.934772" lon="8.689398">
<ele>391.5</ele>
<speed>6.5</speed>
<course>230.3</course>
<desc>Speed 6.5 km/h Distance 5.06 km</desc>
<time>2010-03-03T16:49:01.31</time>
<name>3099</name>
</trkpt>
<trkpt lat="48.934762" lon="8.689380">
<ele>391.5</ele>
<speed>6.4</speed>
<course>230.3</course>
<desc>Speed 6.4 km/h Distance 5.06 km</desc>
<time>2010-03-03T16:49:02.31</time>
<name>3100</name>
</trkpt>
<trkpt lat="48.934752" lon="8.689362">
<ele>391.5</ele>
<speed>6.3</speed>
<course>230.3</course>
<desc>Speed 6.3 km/h Distance 5.06 km</desc>
<time>2010-03-03T16:49:03.31</time>
<name>3101</name>
</trkpt>
<trkpt lat="48.934742" lon="8.689343">
<ele>391.5</ele>
<speed>6.2</speed>
<course>235.3</course>
<desc>Speed 6.2 km/h Distance 5.07 km</desc>
<time>2010-03-03T16:49:04.31</time>
<name>3102</name>
</trkpt>
<trkpt lat="48.934733" lon="8.689325">
<ele>391.5</ele>
<speed>6.2</speed>
<course>230.3</course>
<desc>Speed 6.2 km/h Distance 5.07 km</desc>
<time>2010-03-03T16:49:05.31</time>
<name>3103</name>
</trkpt>
<trkpt lat="48.934723" lon="8.689307">
<ele>391.5</ele>
<speed>6.2</speed>
<course>230.4</course>
<desc>Speed 6.2 km/h Distance 5.07 km</desc>
<time>2010-03-03T16:49:06.31</time>
<name>3104</name>
</trkpt>
<trkpt lat="48.934713" lon="8.689288">
<ele>391.5</ele>
<speed>6.3</speed>
<course>230.4</course>
<desc>Speed 6.3 km/h Distance 5.07 km</desc>
<time>2010-03-03T16:49:07.31</time>
<name>3105</name>
</trkpt>
<trkpt lat="48.934703" lon="8.689270">
<ele>391.5</ele>
<speed>6.3</speed>
<course>230.3</course>
<desc>Speed 6.3 km/h Distance 5.07 km</desc>
<time>2010-03-03T16:49:08.31</time>
<name>3106</name>
</trkpt>
<trkpt lat="48.934693" lon="8.689252">
<ele>391.5</ele>
<speed>6.4</speed>
<course>225.9</course>
<desc>Speed 6.4 km/h Distance 5.08 km</desc>
<time>2010-03-03T16:49:09.31</time>
<name>3107</name>
</trkpt>
<trkpt lat="48.934682" lon="8.689233">
<ele>391.5</ele>
<speed>6.5</speed>
<course>225.9</course>
<desc>Speed 6.5 km/h Distance 5.08 km</desc>
<time>2010-03-03T16:49:10.31</time>
<name>3108</name>
</trkpt>
<trkpt lat="48.934670" lon="8.689215">
<ele>392.0</ele>
<speed>6.4</speed>
<course>232.7</course>
<desc>Speed 6.4 km/h Distance 5.08 km</desc>
<time>2010-03-03T16:49:11.30</time>
<name>3109</name>
</trkpt>
<trkpt lat="48.934660" lon="8.689195">
<ele>392.0</ele>
<speed>6.6</speed>
<course>235.3</course>
<desc>Speed 6.6 km/h Distance 5.08 km</desc>
<time>2010-03-03T16:49:12.30</time>
<name>3110</name>
</trkpt>
<trkpt lat="48.934652" lon="8.689177">
<ele>392.0</ele>
<speed>6.3</speed>
<course>232.7</course>
<desc>Speed 6.3 km/h Distance 5.08 km</desc>
<time>2010-03-03T16:49:13.30</time>
<name>3111</name>
</trkpt>
<trkpt lat="48.934642" lon="8.689157">
<ele>392.0</ele>
<speed>6.3</speed>
<course>230.3</course>
<desc>Speed 6.3 km/h Distance 5.08 km</desc>
<time>2010-03-03T16:49:14.31</time>
<name>3112</name>
</trkpt>
<trkpt lat="48.934632" lon="8.689138">
<ele>392.0</ele>
<speed>6.4</speed>
<course>237.6</course>
<desc>Speed 6.4 km/h Distance 5.09 km</desc>
<time>2010-03-03T16:49:15.30</time>
<name>3113</name>
</trkpt>
<trkpt lat="48.934623" lon="8.689118">
<ele>392.0</ele>
<speed>6.4</speed>
<course>232.7</course>
<desc>Speed 6.4 km/h Distance 5.09 km</desc>
<time>2010-03-03T16:49:16.30</time>
<name>3114</name>
</trkpt>
<trkpt lat="48.934613" lon="8.689098">
<ele>392.0</ele>
<speed>6.4</speed>
<course>230.3</course>
<desc>Speed 6.4 km/h Distance 5.09 km</desc>
<time>2010-03-03T16:49:17.30</time>
<name>3115</name>
</trkpt>
<trkpt lat="48.934603" lon="8.689080">
<ele>392.0</ele>
<speed>6.4</speed>
<course>230.3</course>
<desc>Speed 6.4 km/h Distance 5.09 km</desc>
<time>2010-03-03T16:49:18.30</time>
<name>3116</name>
</trkpt>
<trkpt lat="48.934593" lon="8.689062">
<ele>392.0</ele>
<speed>6.3</speed>
<course>230.3</course>
<desc>Speed 6.3 km/h Distance 5.09 km</desc>
<time>2010-03-03T16:49:19.30</time>
<name>3117</name>
</trkpt>
<trkpt lat="48.934583" lon="8.689043">
<ele>391.5</ele>
<speed>6.4</speed>
<course>230.3</course>
<desc>Speed 6.4 km/h Distance 5.09 km</desc>
<time>2010-03-03T16:49:20.30</time>
<name>3118</name>
</trkpt>
<trkpt lat="48.934573" lon="8.689025">
<ele>391.5</ele>
<speed>6.3</speed>
<course>230.3</course>
<desc>Speed 6.3 km/h Distance 5.10 km</desc>
<time>2010-03-03T16:49:21.30</time>
<name>3119</name>
</trkpt>
<trkpt lat="48.934563" lon="8.689007">
<ele>392.0</ele>
<speed>6.1</speed>
<course>223.1</course>
<desc>Speed 6.1 km/h Distance 5.10 km</desc>
<time>2010-03-03T16:49:22.30</time>
<name>3120</name>
</trkpt>
<trkpt lat="48.934552" lon="8.688990">
<ele>392.0</ele>
<speed>6.3</speed>
<course>230.3</course>
<desc>Speed 6.3 km/h Distance 5.10 km</desc>
<time>2010-03-03T16:49:23.30</time>
<name>3121</name>
</trkpt>
<trkpt lat="48.934542" lon="8.688972">
<ele>392.0</ele>
<speed>6.3</speed>
<course>227.5</course>
<desc>Speed 6.3 km/h Distance 5.10 km</desc>
<time>2010-03-03T16:49:24.30</time>
<name>3122</name>
</trkpt>
<trkpt lat="48.934532" lon="8.688955">
<ele>391.5</ele>
<speed>6.2</speed>
<course>230.3</course>
<desc>Speed 6.2 km/h Distance 5.10 km</desc>
<time>2010-03-03T16:49:25.30</time>
<name>3123</name>
</trkpt>
<trkpt lat="48.934522" lon="8.688937">
<ele>391.5</ele>
<speed>6.3</speed>
<course>237.6</course>
<desc>Speed 6.3 km/h Distance 5.11 km</desc>
<time>2010-03-03T16:49:26.30</time>
<name>3124</name>
</trkpt>
<trkpt lat="48.934513" lon="8.688917">
<ele>391.5</ele>
<speed>6.5</speed>
<course>230.2</course>
<desc>Speed 6.5 km/h Distance 5.11 km</desc>
<time>2010-03-03T16:49:27.30</time>
<name>3125</name>
</trkpt>
<trkpt lat="48.934503" lon="8.688898">
<ele>391.5</ele>
<speed>6.3</speed>
<course>225.9</course>
<desc>Speed 6.3 km/h Distance 5.11 km</desc>
<time>2010-03-03T16:49:28.30</time>
<name>3126</name>
</trkpt>
<trkpt lat="48.934492" lon="8.688880">
<ele>391.5</ele>
<speed>6.3</speed>
<course>230.3</course>
<desc>Speed 6.3 km/h Distance 5.11 km</desc>
<time>2010-03-03T16:49:29.30</time>
<name>3127</name>
</trkpt>
<trkpt lat="48.934482" lon="8.688862">
<ele>391.5</ele>
<speed>6.3</speed>
<course>230.3</course>
<desc>Speed 6.3 km/h Distance 5.11 km</desc>
<time>2010-03-03T16:49:30.30</time>
<name>3128</name>
</trkpt>
<trkpt lat="48.934472" lon="8.688843">
<ele>391.5</ele>
<speed>6.4</speed>
<course>230.3</course>
<desc>Speed 6.4 km/h Distance 5.11 km</desc>
<time>2010-03-03T16:49:31.30</time>
<name>3129</name>
</trkpt>
<trkpt lat="48.934462" lon="8.688825">
<ele>391.5</ele>
<speed>6.3</speed>
<course>230.3</course>
<desc>Speed 6.3 km/h Distance 5.12 km</desc>
<time>2010-03-03T16:49:32.30</time>
<name>3130</name>
</trkpt>
<trkpt lat="48.934452" lon="8.688807">
<ele>391.5</ele>
<speed>6.4</speed>
<course>232.7</course>
<desc>Speed 6.4 km/h Distance 5.12 km</desc>
<time>2010-03-03T16:49:33.29</time>
<name>3131</name>
</trkpt>
<trkpt lat="48.934442" lon="8.688787">
<ele>392.0</ele>
<speed>6.4</speed>
<course>230.3</course>
<desc>Speed 6.4 km/h Distance 5.12 km</desc>
<time>2010-03-03T16:49:34.29</time>
<name>3132</name>
</trkpt>
<trkpt lat="48.934432" lon="8.688768">
<ele>391.5</ele>
<speed>6.3</speed>
<course>230.3</course>
<desc>Speed 6.3 km/h Distance 5.12 km</desc>
<time>2010-03-03T16:49:35.29</time>
<name>3133</name>
</trkpt>
<trkpt lat="48.934422" lon="8.688750">
<ele>392.0</ele>
<speed>6.3</speed>
<course>227.6</course>
<desc>Speed 6.3 km/h Distance 5.12 km</desc>
<time>2010-03-03T16:49:36.29</time>
<name>3134</name>
</trkpt>
<trkpt lat="48.934412" lon="8.688733">
<ele>392.0</ele>
<speed>6.2</speed>
<course>223.2</course>
<desc>Speed 6.2 km/h Distance 5.12 km</desc>
<time>2010-03-03T16:49:37.29</time>
<name>3135</name>
</trkpt>
<trkpt lat="48.934400" lon="8.688717">
<ele>392.0</ele>
<speed>6.1</speed>
<course>230.2</course>
<desc>Speed 6.1 km/h Distance 5.13 km</desc>
<time>2010-03-03T16:49:38.29</time>
<name>3136</name>
</trkpt>
<trkpt lat="48.934390" lon="8.688698">
<ele>392.0</ele>
<speed>6.1</speed>
<course>230.2</course>
<desc>Speed 6.1 km/h Distance 5.13 km</desc>
<time>2010-03-03T16:49:39.30</time>
<name>3137</name>
</trkpt>
<trkpt lat="48.934380" lon="8.688680">
<ele>392.0</ele>
<speed>6.3</speed>
<course>227.5</course>
<desc>Speed 6.3 km/h Distance 5.13 km</desc>
<time>2010-03-03T16:49:40.30</time>
<name>3138</name>
</trkpt>
<trkpt lat="48.934370" lon="8.688663">
<ele>392.0</ele>
<speed>6.3</speed>
<course>227.4</course>
<desc>Speed 6.3 km/h Distance 5.13 km</desc>
<time>2010-03-03T16:49:41.29</time>
<name>3139</name>
</trkpt>
<trkpt lat="48.934360" lon="8.688647">
<ele>392.0</ele>
<speed>6.0</speed>
<course>230.3</course>
<desc>Speed 6.0 km/h Distance 5.13 km</desc>
<time>2010-03-03T16:49:42.29</time>
<name>3140</name>
</trkpt>
<trkpt lat="48.934350" lon="8.688628">
<ele>392.0</ele>
<speed>6.2</speed>
<course>223.2</course>
<desc>Speed 6.2 km/h Distance 5.13 km</desc>
<time>2010-03-03T16:49:43.29</time>
<name>3141</name>
</trkpt>
<trkpt lat="48.934338" lon="8.688612">
<ele>392.0</ele>
<speed>6.3</speed>
<course>230.2</course>
<desc>Speed 6.3 km/h Distance 5.14 km</desc>
<time>2010-03-03T16:49:44.29</time>
<name>3142</name>
</trkpt>
<trkpt lat="48.934328" lon="8.688593">
<ele>392.5</ele>
<speed>6.2</speed>
<course>230.3</course>
<desc>Speed 6.2 km/h Distance 5.14 km</desc>
<time>2010-03-03T16:49:45.29</time>
<name>3143</name>
</trkpt>
<trkpt lat="48.934318" lon="8.688575">
<ele>392.5</ele>
<speed>6.3</speed>
<course>230.3</course>
<desc>Speed 6.3 km/h Distance 5.14 km</desc>
<time>2010-03-03T16:49:46.29</time>
<name>3144</name>
</trkpt>
<trkpt lat="48.934308" lon="8.688557">
<ele>392.5</ele>
<speed>6.4</speed>
<course>225.9</course>
<desc>Speed 6.4 km/h Distance 5.14 km</desc>
<time>2010-03-03T16:49:47.29</time>
<name>3145</name>
</trkpt>
<trkpt lat="48.934297" lon="8.688538">
<ele>392.5</ele>
<speed>6.2</speed>
<course>230.4</course>
<desc>Speed 6.2 km/h Distance 5.14 km</desc>
<time>2010-03-03T16:49:48.29</time>
<name>3146</name>
</trkpt>
<trkpt lat="48.934287" lon="8.688520">
<ele>392.5</ele>
<speed>6.2</speed>
<course>230.3</course>
<desc>Speed 6.2 km/h Distance 5.15 km</desc>
<time>2010-03-03T16:49:49.29</time>
<name>3147</name>
</trkpt>
<trkpt lat="48.934277" lon="8.688502">
<ele>393.0</ele>
<speed>6.4</speed>
<course>235.3</course>
<desc>Speed 6.4 km/h Distance 5.15 km</desc>
<time>2010-03-03T16:49:50.28</time>
<name>3148</name>
</trkpt>
<trkpt lat="48.934268" lon="8.688483">
<ele>393.0</ele>
<speed>6.1</speed>
<course>230.3</course>
<desc>Speed 6.1 km/h Distance 5.15 km</desc>
<time>2010-03-03T16:49:51.29</time>
<name>3149</name>
</trkpt>
<trkpt lat="48.934258" lon="8.688465">
<ele>393.0</ele>
<speed>6.1</speed>
<course>230.3</course>
<desc>Speed 6.1 km/h Distance 5.15 km</desc>
<time>2010-03-03T16:49:52.28</time>
<name>3150</name>
</trkpt>
<trkpt lat="48.934248" lon="8.688447">
<ele>393.0</ele>
<speed>6.1</speed>
<course>227.6</course>
<desc>Speed 6.1 km/h Distance 5.15 km</desc>
<time>2010-03-03T16:49:53.29</time>
<name>3151</name>
</trkpt>
<trkpt lat="48.934238" lon="8.688430">
<ele>393.0</ele>
<speed>6.2</speed>
<course>232.8</course>
<desc>Speed 6.2 km/h Distance 5.15 km</desc>
<time>2010-03-03T16:49:54.28</time>
<name>3152</name>
</trkpt>
<trkpt lat="48.934228" lon="8.688410">
<ele>393.0</ele>
<speed>6.3</speed>
<course>235.3</course>
<desc>Speed 6.3 km/h Distance 5.16 km</desc>
<time>2010-03-03T16:49:55.28</time>
<name>3153</name>
</trkpt>
<trkpt lat="48.934220" lon="8.688392">
<ele>393.0</ele>
<speed>6.3</speed>
<course>230.3</course>
<desc>Speed 6.3 km/h Distance 5.16 km</desc>
<time>2010-03-03T16:49:56.28</time>
<name>3154</name>
</trkpt>
<trkpt lat="48.934210" lon="8.688373">
<ele>393.0</ele>
<speed>6.2</speed>
<course>230.3</course>
<desc>Speed 6.2 km/h Distance 5.16 km</desc>
<time>2010-03-03T16:49:57.29</time>
<name>3155</name>
</trkpt>
<trkpt lat="48.934200" lon="8.688355">
<ele>393.0</ele>
<speed>6.3</speed>
<course>230.3</course>
<desc>Speed 6.3 km/h Distance 5.16 km</desc>
<time>2010-03-03T16:49:58.28</time>
<name>3156</name>
</trkpt>
<trkpt lat="48.934190" lon="8.688337">
<ele>393.0</ele>
<speed>6.2</speed>
<course>227.6</course>
<desc>Speed 6.2 km/h Distance 5.16 km</desc>
<time>2010-03-03T16:49:59.29</time>
<name>3157</name>
</trkpt>
<trkpt lat="48.934180" lon="8.688320">
<ele>393.5</ele>
<speed>5.9</speed>
<course>235.3</course>
<desc>Speed 5.9 km/h Distance 5.16 km</desc>
<time>2010-03-03T16:50:00.28</time>
<name>3158</name>
</trkpt>
<trkpt lat="48.934172" lon="8.688302">
<ele>393.5</ele>
<speed>5.7</speed>
<course>235.3</course>
<desc>Speed 5.7 km/h Distance 5.17 km</desc>
<time>2010-03-03T16:50:01.28</time>
<name>3159</name>
</trkpt>
<trkpt lat="48.934163" lon="8.688283">
<ele>393.5</ele>
<speed>6.0</speed>
<course>232.7</course>
<desc>Speed 6.0 km/h Distance 5.17 km</desc>
<time>2010-03-03T16:50:02.28</time>
<name>3160</name>
</trkpt>
<trkpt lat="48.934153" lon="8.688263">
<ele>393.5</ele>
<speed>6.0</speed>
<course>232.7</course>
<desc>Speed 6.0 km/h Distance 5.17 km</desc>
<time>2010-03-03T16:50:03.28</time>
<name>3161</name>
</trkpt>
<trkpt lat="48.934145" lon="8.688247">
<ele>393.5</ele>
<speed>6.1</speed>
<course>230.3</course>
<desc>Speed 6.1 km/h Distance 5.17 km</desc>
<time>2010-03-03T16:50:04.28</time>
<name>3162</name>
</trkpt>
<trkpt lat="48.934135" lon="8.688228">
<ele>393.5</ele>
<speed>6.2</speed>
<course>230.3</course>
<desc>Speed 6.2 km/h Distance 5.17 km</desc>
<time>2010-03-03T16:50:05.28</time>
<name>3163</name>
</trkpt>
<trkpt lat="48.934125" lon="8.688210">
<ele>394.0</ele>
<speed>6.1</speed>
<course>230.3</course>
<desc>Speed 6.1 km/h Distance 5.17 km</desc>
<time>2010-03-03T16:50:06.28</time>
<name>3164</name>
</trkpt>
<trkpt lat="48.934115" lon="8.688192">
<ele>394.0</ele>
<speed>6.1</speed>
<course>230.3</course>
<desc>Speed 6.1 km/h Distance 5.18 km</desc>
<time>2010-03-03T16:50:07.28</time>
<name>3165</name>
</trkpt>
<trkpt lat="48.934105" lon="8.688173">
<ele>394.0</ele>
<speed>6.2</speed>
<course>232.7</course>
<desc>Speed 6.2 km/h Distance 5.18 km</desc>
<time>2010-03-03T16:50:08.28</time>
<name>3166</name>
</trkpt>
<trkpt lat="48.934095" lon="8.688153">
<ele>394.5</ele>
<speed>6.2</speed>
<course>227.6</course>
<desc>Speed 6.2 km/h Distance 5.18 km</desc>
<time>2010-03-03T16:50:09.29</time>
<name>3167</name>
</trkpt>
<trkpt lat="48.934085" lon="8.688137">
<ele>394.5</ele>
<speed>6.2</speed>
<course>230.3</course>
<desc>Speed 6.2 km/h Distance 5.18 km</desc>
<time>2010-03-03T16:50:10.28</time>
<name>3168</name>
</trkpt>
<trkpt lat="48.934075" lon="8.688118">
<ele>394.5</ele>
<speed>6.1</speed>
<course>230.3</course>
<desc>Speed 6.1 km/h Distance 5.18 km</desc>
<time>2010-03-03T16:50:11.28</time>
<name>3169</name>
</trkpt>
<trkpt lat="48.934065" lon="8.688100">
<ele>394.5</ele>
<speed>6.1</speed>
<course>230.3</course>
<desc>Speed 6.1 km/h Distance 5.18 km</desc>
<time>2010-03-03T16:50:12.28</time>
<name>3170</name>
</trkpt>
<trkpt lat="48.934055" lon="8.688082">
<ele>394.5</ele>
<speed>6.2</speed>
<course>237.6</course>
<desc>Speed 6.2 km/h Distance 5.19 km</desc>
<time>2010-03-03T16:50:13.28</time>
<name>3171</name>
</trkpt>
<trkpt lat="48.934047" lon="8.688062">
<ele>394.5</ele>
<speed>6.4</speed>
<course>230.3</course>
<desc>Speed 6.4 km/h Distance 5.19 km</desc>
<time>2010-03-03T16:50:14.28</time>
<name>3172</name>
</trkpt>
<trkpt lat="48.934037" lon="8.688043">
<ele>394.5</ele>
<speed>6.2</speed>
<course>232.8</course>
<desc>Speed 6.2 km/h Distance 5.19 km</desc>
<time>2010-03-03T16:50:15.27</time>
<name>3173</name>
</trkpt>
<trkpt lat="48.934027" lon="8.688023">
<ele>394.5</ele>
<speed>6.3</speed>
<course>237.7</course>
<desc>Speed 6.3 km/h Distance 5.19 km</desc>
<time>2010-03-03T16:50:16.27</time>
<name>3174</name>
</trkpt>
<trkpt lat="48.934018" lon="8.688003">
<ele>395.0</ele>
<speed>6.5</speed>
<course>232.7</course>
<desc>Speed 6.5 km/h Distance 5.19 km</desc>
<time>2010-03-03T16:50:17.27</time>
<name>3175</name>
</trkpt>
<trkpt lat="48.934008" lon="8.687983">
<ele>395.0</ele>
<speed>6.4</speed>
<course>237.6</course>
<desc>Speed 6.4 km/h Distance 5.20 km</desc>
<time>2010-03-03T16:50:18.27</time>
<name>3176</name>
</trkpt>
<trkpt lat="48.934000" lon="8.687963">
<ele>395.0</ele>
<speed>6.5</speed>
<course>232.7</course>
<desc>Speed 6.5 km/h Distance 5.20 km</desc>
<time>2010-03-03T16:50:19.27</time>
<name>3177</name>
</trkpt>
<trkpt lat="48.933990" lon="8.687943">
<ele>395.0</ele>
<speed>6.4</speed>
<course>232.7</course>
<desc>Speed 6.4 km/h Distance 5.20 km</desc>
<time>2010-03-03T16:50:20.27</time>
<name>3178</name>
</trkpt>
<trkpt lat="48.933980" lon="8.687923">
<ele>395.0</ele>
<speed>6.5</speed>
<course>244.9</course>
<desc>Speed 6.5 km/h Distance 5.20 km</desc>
<time>2010-03-03T16:50:21.27</time>
<name>3179</name>
</trkpt>
<trkpt lat="48.933973" lon="8.687902">
<ele>395.5</ele>
<speed>6.3</speed>
<course>232.7</course>
<desc>Speed 6.3 km/h Distance 5.20 km</desc>
<time>2010-03-03T16:50:22.27</time>
<name>3180</name>
</trkpt>
<trkpt lat="48.933963" lon="8.687882">
<ele>395.5</ele>
<speed>6.4</speed>
<course>244.9</course>
<desc>Speed 6.4 km/h Distance 5.20 km</desc>
<time>2010-03-03T16:50:23.27</time>
<name>3181</name>
</trkpt>
<trkpt lat="48.933957" lon="8.687860">
<ele>395.5</ele>
<speed>6.6</speed>
<course>239.7</course>
<desc>Speed 6.6 km/h Distance 5.21 km</desc>
<time>2010-03-03T16:50:24.27</time>
<name>3182</name>
</trkpt>
<trkpt lat="48.933948" lon="8.687838">
<ele>395.5</ele>
<speed>6.5</speed>
<course>239.7</course>
<desc>Speed 6.5 km/h Distance 5.21 km</desc>
<time>2010-03-03T16:50:25.27</time>
<name>3183</name>
</trkpt>
<trkpt lat="48.933940" lon="8.687817">
<ele>395.0</ele>
<speed>6.4</speed>
<course>244.9</course>
<desc>Speed 6.4 km/h Distance 5.21 km</desc>
<time>2010-03-03T16:50:26.27</time>
<name>3184</name>
</trkpt>
<trkpt lat="48.933933" lon="8.687795">
<ele>395.5</ele>
<speed>6.4</speed>
<course>237.6</course>
<desc>Speed 6.4 km/h Distance 5.21 km</desc>
<time>2010-03-03T16:50:27.27</time>
<name>3185</name>
</trkpt>
<trkpt lat="48.933925" lon="8.687775">
<ele>395.5</ele>
<speed>6.3</speed>
<course>239.7</course>
<desc>Speed 6.3 km/h Distance 5.21 km</desc>
<time>2010-03-03T16:50:28.27</time>
<name>3186</name>
</trkpt>
<trkpt lat="48.933917" lon="8.687753">
<ele>395.5</ele>
<speed>6.4</speed>
<course>239.7</course>
<desc>Speed 6.4 km/h Distance 5.22 km</desc>
<time>2010-03-03T16:50:29.27</time>
<name>3187</name>
</trkpt>
<trkpt lat="48.933908" lon="8.687732">
<ele>395.5</ele>
<speed>6.4</speed>
<course>244.9</course>
<desc>Speed 6.4 km/h Distance 5.22 km</desc>
<time>2010-03-03T16:50:30.27</time>
<name>3188</name>
</trkpt>
<trkpt lat="48.933902" lon="8.687710">
<ele>395.5</ele>
<speed>6.4</speed>
<course>244.9</course>
<desc>Speed 6.4 km/h Distance 5.22 km</desc>
<time>2010-03-03T16:50:31.27</time>
<name>3189</name>
</trkpt>
<trkpt lat="48.933895" lon="8.687688">
<ele>395.5</ele>
<speed>6.4</speed>
<course>237.7</course>
<desc>Speed 6.4 km/h Distance 5.22 km</desc>
<time>2010-03-03T16:50:32.27</time>
<name>3190</name>
</trkpt>
<trkpt lat="48.933887" lon="8.687668">
<ele>395.5</ele>
<speed>6.4</speed>
<course>237.7</course>
<desc>Speed 6.4 km/h Distance 5.22 km</desc>
<time>2010-03-03T16:50:33.27</time>
<name>3191</name>
</trkpt>
<trkpt lat="48.933878" lon="8.687648">
<ele>395.5</ele>
<speed>6.4</speed>
<course>239.6</course>
<desc>Speed 6.4 km/h Distance 5.22 km</desc>
<time>2010-03-03T16:50:34.27</time>
<name>3192</name>
</trkpt>
<trkpt lat="48.933870" lon="8.687627">
<ele>395.5</ele>
<speed>6.3</speed>
<course>237.6</course>
<desc>Speed 6.3 km/h Distance 5.23 km</desc>
<time>2010-03-03T16:50:35.27</time>
<name>3193</name>
</trkpt>
<trkpt lat="48.933862" lon="8.687607">
<ele>395.5</ele>
<speed>6.3</speed>
<course>244.9</course>
<desc>Speed 6.3 km/h Distance 5.23 km</desc>
<time>2010-03-03T16:50:36.38</time>
<name>3194</name>
</trkpt>
<trkpt lat="48.933855" lon="8.687585">
<ele>395.5</ele>
<speed>6.3</speed>
<course>239.7</course>
<desc>Speed 6.3 km/h Distance 5.23 km</desc>
<time>2010-03-03T16:50:37.26</time>
<name>3195</name>
</trkpt>
<trkpt lat="48.933847" lon="8.687563">
<ele>395.5</ele>
<speed>6.3</speed>
<course>244.9</course>
<desc>Speed 6.3 km/h Distance 5.23 km</desc>
<time>2010-03-03T16:50:38.26</time>
<name>3196</name>
</trkpt>
<trkpt lat="48.933840" lon="8.687542">
<ele>396.0</ele>
<speed>6.6</speed>
<course>239.7</course>
<desc>Speed 6.6 km/h Distance 5.23 km</desc>
<time>2010-03-03T16:50:39.26</time>
<name>3197</name>
</trkpt>
<trkpt lat="48.933832" lon="8.687520">
<ele>395.5</ele>
<speed>6.5</speed>
<course>239.7</course>
<desc>Speed 6.5 km/h Distance 5.23 km</desc>
<time>2010-03-03T16:50:40.26</time>
<name>3198</name>
</trkpt>
<trkpt lat="48.933823" lon="8.687498">
<ele>396.0</ele>
<speed>6.4</speed>
<course>244.9</course>
<desc>Speed 6.4 km/h Distance 5.24 km</desc>
<time>2010-03-03T16:50:41.26</time>
<name>3199</name>
</trkpt>
<trkpt lat="48.933817" lon="8.687477">
<ele>396.0</ele>
<speed>6.5</speed>
<course>244.9</course>
<desc>Speed 6.5 km/h Distance 5.24 km</desc>
<time>2010-03-03T16:50:42.26</time>
<name>3200</name>
</trkpt>
<trkpt lat="48.933810" lon="8.687455">
<ele>396.0</ele>
<speed>6.7</speed>
<course>241.5</course>
<desc>Speed 6.7 km/h Distance 5.24 km</desc>
<time>2010-03-03T16:50:43.26</time>
<name>3201</name>
</trkpt>
<trkpt lat="48.933802" lon="8.687432">
<ele>396.0</ele>
<speed>6.7</speed>
<course>244.9</course>
<desc>Speed 6.7 km/h Distance 5.24 km</desc>
<time>2010-03-03T16:50:44.26</time>
<name>3202</name>
</trkpt>
<trkpt lat="48.933795" lon="8.687410">
<ele>396.0</ele>
<speed>6.5</speed>
<course>241.5</course>
<desc>Speed 6.5 km/h Distance 5.24 km</desc>
<time>2010-03-03T16:50:45.26</time>
<name>3203</name>
</trkpt>
<trkpt lat="48.933787" lon="8.687387">
<ele>396.0</ele>
<speed>6.6</speed>
<course>243.1</course>
<desc>Speed 6.6 km/h Distance 5.25 km</desc>
<time>2010-03-03T16:50:46.26</time>
<name>3204</name>
</trkpt>
<trkpt lat="48.933780" lon="8.687367">
<ele>396.5</ele>
<speed>6.4</speed>
<course>239.7</course>
<desc>Speed 6.4 km/h Distance 5.25 km</desc>
<time>2010-03-03T16:50:47.26</time>
<name>3205</name>
</trkpt>
<trkpt lat="48.933772" lon="8.687345">
<ele>396.5</ele>
<speed>6.4</speed>
<course>239.7</course>
<desc>Speed 6.4 km/h Distance 5.25 km</desc>
<time>2010-03-03T16:50:48.26</time>
<name>3206</name>
</trkpt>
<trkpt lat="48.933763" lon="8.687323">
<ele>396.5</ele>
<speed>6.6</speed>
<course>239.7</course>
<desc>Speed 6.6 km/h Distance 5.25 km</desc>
<time>2010-03-03T16:50:49.26</time>
<name>3207</name>
</trkpt>
<trkpt lat="48.933755" lon="8.687302">
<ele>396.5</ele>
<speed>6.6</speed>
<course>239.7</course>
<desc>Speed 6.6 km/h Distance 5.25 km</desc>
<time>2010-03-03T16:50:50.26</time>
<name>3208</name>
</trkpt>
<trkpt lat="48.933747" lon="8.687280">
<ele>396.5</ele>
<speed>6.6</speed>
<course>239.6</course>
<desc>Speed 6.6 km/h Distance 5.25 km</desc>
<time>2010-03-03T16:50:51.26</time>
<name>3209</name>
</trkpt>
<trkpt lat="48.933738" lon="8.687258">
<ele>396.5</ele>
<speed>6.6</speed>
<course>239.6</course>
<desc>Speed 6.6 km/h Distance 5.26 km</desc>
<time>2010-03-03T16:50:52.26</time>
<name>3210</name>
</trkpt>
<trkpt lat="48.933730" lon="8.687237">
<ele>397.0</ele>
<speed>6.7</speed>
<course>244.9</course>
<desc>Speed 6.7 km/h Distance 5.26 km</desc>
<time>2010-03-03T16:50:53.26</time>
<name>3211</name>
</trkpt>
<trkpt lat="48.933723" lon="8.687215">
<ele>397.0</ele>
<speed>6.7</speed>
<course>241.5</course>
<desc>Speed 6.7 km/h Distance 5.26 km</desc>
<time>2010-03-03T16:50:54.26</time>
<name>3212</name>
</trkpt>
<trkpt lat="48.933715" lon="8.687192">
<ele>397.0</ele>
<speed>6.7</speed>
<course>239.6</course>
<desc>Speed 6.7 km/h Distance 5.26 km</desc>
<time>2010-03-03T16:50:55.25</time>
<name>3213</name>
</trkpt>
<trkpt lat="48.933707" lon="8.687170">
<ele>397.0</ele>
<speed>6.7</speed>
<course>244.9</course>
<desc>Speed 6.7 km/h Distance 5.26 km</desc>
<time>2010-03-03T16:50:56.26</time>
<name>3214</name>
</trkpt>
<trkpt lat="48.933700" lon="8.687148">
<ele>397.0</ele>
<speed>6.4</speed>
<course>239.6</course>
<desc>Speed 6.4 km/h Distance 5.27 km</desc>
<time>2010-03-03T16:50:57.26</time>
<name>3215</name>
</trkpt>
<trkpt lat="48.933692" lon="8.687127">
<ele>397.5</ele>
<speed>6.4</speed>
<course>244.9</course>
<desc>Speed 6.4 km/h Distance 5.27 km</desc>
<time>2010-03-03T16:50:58.25</time>
<name>3216</name>
</trkpt>
<trkpt lat="48.933685" lon="8.687105">
<ele>397.5</ele>
<speed>6.4</speed>
<course>239.7</course>
<desc>Speed 6.4 km/h Distance 5.27 km</desc>
<time>2010-03-03T16:50:59.25</time>
<name>3217</name>
</trkpt>
<trkpt lat="48.933677" lon="8.687083">
<ele>397.5</ele>
<speed>6.5</speed>
<course>244.9</course>
<desc>Speed 6.5 km/h Distance 5.27 km</desc>
<time>2010-03-03T16:51:00.25</time>
<name>3218</name>
</trkpt>
<trkpt lat="48.933670" lon="8.687062">
<ele>397.5</ele>
<speed>6.5</speed>
<course>239.7</course>
<desc>Speed 6.5 km/h Distance 5.27 km</desc>
<time>2010-03-03T16:51:01.25</time>
<name>3219</name>
</trkpt>
<trkpt lat="48.933662" lon="8.687040">
<ele>397.5</ele>
<speed>6.4</speed>
<course>239.7</course>
<desc>Speed 6.4 km/h Distance 5.27 km</desc>
<time>2010-03-03T16:51:02.25</time>
<name>3220</name>
</trkpt>
<trkpt lat="48.933653" lon="8.687018">
<ele>397.5</ele>
<speed>6.5</speed>
<course>244.9</course>
<desc>Speed 6.5 km/h Distance 5.28 km</desc>
<time>2010-03-03T16:51:03.25</time>
<name>3221</name>
</trkpt>
<trkpt lat="48.933647" lon="8.686997">
<ele>397.5</ele>
<speed>6.4</speed>
<course>243.1</course>
<desc>Speed 6.4 km/h Distance 5.28 km</desc>
<time>2010-03-03T16:51:04.25</time>
<name>3222</name>
</trkpt>
<trkpt lat="48.933640" lon="8.686977">
<ele>397.5</ele>
<speed>6.2</speed>
<course>244.9</course>
<desc>Speed 6.2 km/h Distance 5.28 km</desc>
<time>2010-03-03T16:51:05.25</time>
<name>3223</name>
</trkpt>
<trkpt lat="48.933633" lon="8.686955">
<ele>397.5</ele>
<speed>6.3</speed>
<course>237.6</course>
<desc>Speed 6.3 km/h Distance 5.28 km</desc>
<time>2010-03-03T16:51:06.25</time>
<name>3224</name>
</trkpt>
<trkpt lat="48.933625" lon="8.686935">
<ele>397.5</ele>
<speed>6.2</speed>
<course>239.6</course>
<desc>Speed 6.2 km/h Distance 5.28 km</desc>
<time>2010-03-03T16:51:07.25</time>
<name>3225</name>
</trkpt>
<trkpt lat="48.933617" lon="8.686913">
<ele>397.5</ele>
<speed>6.4</speed>
<course>237.6</course>
<desc>Speed 6.4 km/h Distance 5.29 km</desc>
<time>2010-03-03T16:51:08.25</time>
<name>3226</name>
</trkpt>
<trkpt lat="48.933608" lon="8.686893">
<ele>398.0</ele>
<speed>6.2</speed>
<course>243.1</course>
<desc>Speed 6.2 km/h Distance 5.29 km</desc>
<time>2010-03-03T16:51:09.26</time>
<name>3227</name>
</trkpt>
<trkpt lat="48.933602" lon="8.686873">
<ele>398.0</ele>
<speed>6.1</speed>
<course>237.6</course>
<desc>Speed 6.1 km/h Distance 5.29 km</desc>
<time>2010-03-03T16:51:10.25</time>
<name>3228</name>
</trkpt>
<trkpt lat="48.933593" lon="8.686853">
<ele>398.0</ele>
<speed>6.2</speed>
<course>243.1</course>
<desc>Speed 6.2 km/h Distance 5.29 km</desc>
<time>2010-03-03T16:51:11.25</time>
<name>3229</name>
</trkpt>
<trkpt lat="48.933587" lon="8.686833">
<ele>398.0</ele>
<speed>6.3</speed>
<course>239.7</course>
<desc>Speed 6.3 km/h Distance 5.29 km</desc>
<time>2010-03-03T16:51:12.25</time>
<name>3230</name>
</trkpt>
<trkpt lat="48.933578" lon="8.686812">
<ele>398.0</ele>
<speed>6.3</speed>
<course>243.1</course>
<desc>Speed 6.3 km/h Distance 5.29 km</desc>
<time>2010-03-03T16:51:13.25</time>
<name>3231</name>
</trkpt>
<trkpt lat="48.933572" lon="8.686792">
<ele>398.0</ele>
<speed>6.3</speed>
<course>237.6</course>
<desc>Speed 6.3 km/h Distance 5.30 km</desc>
<time>2010-03-03T16:51:14.25</time>
<name>3232</name>
</trkpt>
<trkpt lat="48.933563" lon="8.686772">
<ele>398.0</ele>
<speed>6.2</speed>
<course>243.1</course>
<desc>Speed 6.2 km/h Distance 5.30 km</desc>
<time>2010-03-03T16:51:15.25</time>
<name>3233</name>
</trkpt>
<trkpt lat="48.933557" lon="8.686752">
<ele>398.0</ele>
<speed>6.3</speed>
<course>239.7</course>
<desc>Speed 6.3 km/h Distance 5.30 km</desc>
<time>2010-03-03T16:51:16.25</time>
<name>3234</name>
</trkpt>
<trkpt lat="48.933548" lon="8.686730">
<ele>398.0</ele>
<speed>6.3</speed>
<course>244.9</course>
<desc>Speed 6.3 km/h Distance 5.30 km</desc>
<time>2010-03-03T16:51:17.25</time>
<name>3235</name>
</trkpt>
<trkpt lat="48.933542" lon="8.686708">
<ele>398.5</ele>
<speed>6.5</speed>
<course>239.7</course>
<desc>Speed 6.5 km/h Distance 5.30 km</desc>
<time>2010-03-03T16:51:18.25</time>
<name>3236</name>
</trkpt>
<trkpt lat="48.933533" lon="8.686687">
<ele>398.5</ele>
<speed>6.5</speed>
<course>244.9</course>
<desc>Speed 6.5 km/h Distance 5.30 km</desc>
<time>2010-03-03T16:51:19.25</time>
<name>3237</name>
</trkpt>
<trkpt lat="48.933527" lon="8.686665">
<ele>398.5</ele>
<speed>6.4</speed>
<course>244.9</course>
<desc>Speed 6.4 km/h Distance 5.31 km</desc>
<time>2010-03-03T16:51:20.24</time>
<name>3238</name>
</trkpt>
<trkpt lat="48.933520" lon="8.686643">
<ele>398.5</ele>
<speed>6.3</speed>
<course>243.1</course>
<desc>Speed 6.3 km/h Distance 5.31 km</desc>
<time>2010-03-03T16:51:21.24</time>
<name>3239</name>
</trkpt>
<trkpt lat="48.933513" lon="8.686623">
<ele>398.5</ele>
<speed>6.4</speed>
<course>237.7</course>
<desc>Speed 6.4 km/h Distance 5.31 km</desc>
<time>2010-03-03T16:51:22.24</time>
<name>3240</name>
</trkpt>
<trkpt lat="48.933505" lon="8.686603">
<ele>398.5</ele>
<speed>6.3</speed>
<course>237.6</course>
<desc>Speed 6.3 km/h Distance 5.31 km</desc>
<time>2010-03-03T16:51:23.24</time>
<name>3241</name>
</trkpt>
<trkpt lat="48.933497" lon="8.686583">
<ele>398.5</ele>
<speed>6.3</speed>
<course>244.9</course>
<desc>Speed 6.3 km/h Distance 5.31 km</desc>
<time>2010-03-03T16:51:24.24</time>
<name>3242</name>
</trkpt>
<trkpt lat="48.933490" lon="8.686562">
<ele>398.5</ele>
<speed>6.4</speed>
<course>237.6</course>
<desc>Speed 6.4 km/h Distance 5.31 km</desc>
<time>2010-03-03T16:51:25.24</time>
<name>3243</name>
</trkpt>
<trkpt lat="48.933482" lon="8.686542">
<ele>398.5</ele>
<speed>6.3</speed>
<course>244.9</course>
<desc>Speed 6.3 km/h Distance 5.32 km</desc>
<time>2010-03-03T16:51:26.24</time>
<name>3244</name>
</trkpt>
<trkpt lat="48.933475" lon="8.686520">
<ele>398.5</ele>
<speed>6.3</speed>
<course>237.6</course>
<desc>Speed 6.3 km/h Distance 5.32 km</desc>
<time>2010-03-03T16:51:27.24</time>
<name>3245</name>
</trkpt>
<trkpt lat="48.933467" lon="8.686500">
<ele>398.5</ele>
<speed>6.3</speed>
<course>243.1</course>
<desc>Speed 6.3 km/h Distance 5.32 km</desc>
<time>2010-03-03T16:51:28.24</time>
<name>3246</name>
</trkpt>
<trkpt lat="48.933460" lon="8.686480">
<ele>398.5</ele>
<speed>6.2</speed>
<course>237.6</course>
<desc>Speed 6.2 km/h Distance 5.32 km</desc>
<time>2010-03-03T16:51:29.24</time>
<name>3247</name>
</trkpt>
<trkpt lat="48.933452" lon="8.686460">
<ele>398.5</ele>
<speed>6.1</speed>
<course>243.1</course>
<desc>Speed 6.1 km/h Distance 5.32 km</desc>
<time>2010-03-03T16:51:30.24</time>
<name>3248</name>
</trkpt>
<trkpt lat="48.933445" lon="8.686440">
<ele>398.5</ele>
<speed>6.2</speed>
<course>237.6</course>
<desc>Speed 6.2 km/h Distance 5.32 km</desc>
<time>2010-03-03T16:51:31.24</time>
<name>3249</name>
</trkpt>
<trkpt lat="48.933437" lon="8.686420">
<ele>398.5</ele>
<speed>6.2</speed>
<course>237.7</course>
<desc>Speed 6.2 km/h Distance 5.33 km</desc>
<time>2010-03-03T16:51:32.24</time>
<name>3250</name>
</trkpt>
<trkpt lat="48.933428" lon="8.686400">
<ele>398.5</ele>
<speed>6.2</speed>
<course>244.9</course>
<desc>Speed 6.2 km/h Distance 5.33 km</desc>
<time>2010-03-03T16:51:33.24</time>
<name>3251</name>
</trkpt>
<trkpt lat="48.933422" lon="8.686378">
<ele>398.5</ele>
<speed>6.2</speed>
<course>243.1</course>
<desc>Speed 6.2 km/h Distance 5.33 km</desc>
<time>2010-03-03T16:51:34.24</time>
<name>3252</name>
</trkpt>
<trkpt lat="48.933415" lon="8.686358">
<ele>399.0</ele>
<speed>6.2</speed>
<course>239.6</course>
<desc>Speed 6.2 km/h Distance 5.33 km</desc>
<time>2010-03-03T16:51:35.24</time>
<name>3253</name>
</trkpt>
<trkpt lat="48.933407" lon="8.686337">
<ele>399.0</ele>
<speed>6.2</speed>
<course>243.1</course>
<desc>Speed 6.2 km/h Distance 5.33 km</desc>
<time>2010-03-03T16:51:36.24</time>
<name>3254</name>
</trkpt>
<trkpt lat="48.933400" lon="8.686317">
<ele>399.0</ele>
<speed>6.2</speed>
<course>237.6</course>
<desc>Speed 6.2 km/h Distance 5.34 km</desc>
<time>2010-03-03T16:51:37.24</time>
<name>3255</name>
</trkpt>
<trkpt lat="48.933392" lon="8.686297">
<ele>399.0</ele>
<speed>6.3</speed>
<course>237.6</course>
<desc>Speed 6.3 km/h Distance 5.34 km</desc>
<time>2010-03-03T16:51:38.24</time>
<name>3256</name>
</trkpt>
<trkpt lat="48.933383" lon="8.686277">
<ele>399.0</ele>
<speed>6.3</speed>
<course>244.9</course>
<desc>Speed 6.3 km/h Distance 5.34 km</desc>
<time>2010-03-03T16:51:39.24</time>
<name>3257</name>
</trkpt>
<trkpt lat="48.933377" lon="8.686255">
<ele>399.0</ele>
<speed>6.2</speed>
<course>243.1</course>
<desc>Speed 6.2 km/h Distance 5.34 km</desc>
<time>2010-03-03T16:51:40.23</time>
<name>3258</name>
</trkpt>
<trkpt lat="48.933370" lon="8.686235">
<ele>399.0</ele>
<speed>6.2</speed>
<course>237.7</course>
<desc>Speed 6.2 km/h Distance 5.34 km</desc>
<time>2010-03-03T16:51:41.23</time>
<name>3259</name>
</trkpt>
<trkpt lat="48.933362" lon="8.686215">
<ele>399.0</ele>
<speed>6.2</speed>
<course>244.9</course>
<desc>Speed 6.2 km/h Distance 5.34 km</desc>
<time>2010-03-03T16:51:42.23</time>
<name>3260</name>
</trkpt>
<trkpt lat="48.933355" lon="8.686193">
<ele>399.0</ele>
<speed>6.2</speed>
<course>243.1</course>
<desc>Speed 6.2 km/h Distance 5.35 km</desc>
<time>2010-03-03T16:51:43.24</time>
<name>3261</name>
</trkpt>
<trkpt lat="48.933348" lon="8.686173">
<ele>399.0</ele>
<speed>6.2</speed>
<course>239.6</course>
<desc>Speed 6.2 km/h Distance 5.35 km</desc>
<time>2010-03-03T16:51:44.23</time>
<name>3262</name>
</trkpt>
<trkpt lat="48.933340" lon="8.686152">
<ele>399.0</ele>
<speed>6.3</speed>
<course>243.1</course>
<desc>Speed 6.3 km/h Distance 5.35 km</desc>
<time>2010-03-03T16:51:45.23</time>
<name>3263</name>
</trkpt>
<trkpt lat="48.933333" lon="8.686132">
<ele>399.0</ele>
<speed>6.4</speed>
<course>244.9</course>
<desc>Speed 6.4 km/h Distance 5.35 km</desc>
<time>2010-03-03T16:51:46.24</time>
<name>3264</name>
</trkpt>
<trkpt lat="48.933327" lon="8.686110">
<ele>399.0</ele>
<speed>6.3</speed>
<course>244.9</course>
<desc>Speed 6.3 km/h Distance 5.35 km</desc>
<time>2010-03-03T16:51:47.23</time>
<name>3265</name>
</trkpt>
<trkpt lat="48.933320" lon="8.686088">
<ele>399.0</ele>
<speed>6.4</speed>
<course>237.6</course>
<desc>Speed 6.4 km/h Distance 5.35 km</desc>
<time>2010-03-03T16:51:48.24</time>
<name>3266</name>
</trkpt>
<trkpt lat="48.933312" lon="8.686068">
<ele>399.0</ele>
<speed>6.3</speed>
<course>243.1</course>
<desc>Speed 6.3 km/h Distance 5.36 km</desc>
<time>2010-03-03T16:51:49.24</time>
<name>3267</name>
</trkpt>
<trkpt lat="48.933305" lon="8.686048">
<ele>399.0</ele>
<speed>6.2</speed>
<course>237.7</course>
<desc>Speed 6.2 km/h Distance 5.36 km</desc>
<time>2010-03-03T16:51:50.23</time>
<name>3268</name>
</trkpt>
<trkpt lat="48.933297" lon="8.686028">
<ele>399.0</ele>
<speed>6.2</speed>
<course>250.6</course>
<desc>Speed 6.2 km/h Distance 5.36 km</desc>
<time>2010-03-03T16:51:51.23</time>
<name>3269</name>
</trkpt>
<trkpt lat="48.933292" lon="8.686007">
<ele>399.0</ele>
<speed>6.3</speed>
<course>244.9</course>
<desc>Speed 6.3 km/h Distance 5.36 km</desc>
<time>2010-03-03T16:51:52.23</time>
<name>3270</name>
</trkpt>
<trkpt lat="48.933285" lon="8.685985">
<ele>399.0</ele>
<speed>6.3</speed>
<course>239.6</course>
<desc>Speed 6.3 km/h Distance 5.36 km</desc>
<time>2010-03-03T16:51:53.23</time>
<name>3271</name>
</trkpt>
<trkpt lat="48.933277" lon="8.685963">
<ele>399.0</ele>
<speed>6.3</speed>
<course>243.1</course>
<desc>Speed 6.3 km/h Distance 5.36 km</desc>
<time>2010-03-03T16:51:54.23</time>
<name>3272</name>
</trkpt>
<trkpt lat="48.933270" lon="8.685943">
<ele>399.0</ele>
<speed>6.2</speed>
<course>243.1</course>
<desc>Speed 6.2 km/h Distance 5.37 km</desc>
<time>2010-03-03T16:51:55.23</time>
<name>3273</name>
</trkpt>
<trkpt lat="48.933263" lon="8.685923">
<ele>399.0</ele>
<speed>6.2</speed>
<course>244.9</course>
<desc>Speed 6.2 km/h Distance 5.37 km</desc>
<time>2010-03-03T16:51:56.23</time>
<name>3274</name>
</trkpt>
<trkpt lat="48.933257" lon="8.685902">
<ele>399.0</ele>
<speed>6.1</speed>
<course>237.6</course>
<desc>Speed 6.1 km/h Distance 5.37 km</desc>
<time>2010-03-03T16:51:57.23</time>
<name>3275</name>
</trkpt>
<trkpt lat="48.933248" lon="8.685882">
<ele>399.0</ele>
<speed>6.3</speed>
<course>243.1</course>
<desc>Speed 6.3 km/h Distance 5.37 km</desc>
<time>2010-03-03T16:51:58.23</time>
<name>3276</name>
</trkpt>
<trkpt lat="48.933242" lon="8.685862">
<ele>399.0</ele>
<speed>6.1</speed>
<course>237.6</course>
<desc>Speed 6.1 km/h Distance 5.37 km</desc>
<time>2010-03-03T16:51:59.22</time>
<name>3277</name>
</trkpt>
<trkpt lat="48.933233" lon="8.685842">
<ele>399.0</ele>
<speed>6.1</speed>
<course>237.6</course>
<desc>Speed 6.1 km/h Distance 5.37 km</desc>
<time>2010-03-03T16:52:00.22</time>
<name>3278</name>
</trkpt>
<trkpt lat="48.933225" lon="8.685822">
<ele>399.0</ele>
<speed>6.3</speed>
<course>243.1</course>
<desc>Speed 6.3 km/h Distance 5.38 km</desc>
<time>2010-03-03T16:52:01.22</time>
<name>3279</name>
</trkpt>
<trkpt lat="48.933218" lon="8.685802">
<ele>399.0</ele>
<speed>6.2</speed>
<course>244.9</course>
<desc>Speed 6.2 km/h Distance 5.38 km</desc>
<time>2010-03-03T16:52:02.23</time>
<name>3280</name>
</trkpt>
<trkpt lat="48.933212" lon="8.685780">
<ele>399.0</ele>
<speed>6.2</speed>
<course>237.6</course>
<desc>Speed 6.2 km/h Distance 5.38 km</desc>
<time>2010-03-03T16:52:03.22</time>
<name>3281</name>
</trkpt>
<trkpt lat="48.933203" lon="8.685760">
<ele>399.0</ele>
<speed>6.3</speed>
<course>244.9</course>
<desc>Speed 6.3 km/h Distance 5.38 km</desc>
<time>2010-03-03T16:52:04.22</time>
<name>3282</name>
</trkpt>
<trkpt lat="48.933197" lon="8.685738">
<ele>399.0</ele>
<speed>6.2</speed>
<course>243.1</course>
<desc>Speed 6.2 km/h Distance 5.38 km</desc>
<time>2010-03-03T16:52:05.22</time>
<name>3283</name>
</trkpt>
<trkpt lat="48.933190" lon="8.685718">
<ele>399.0</ele>
<speed>6.1</speed>
<course>243.1</course>
<desc>Speed 6.1 km/h Distance 5.38 km</desc>
<time>2010-03-03T16:52:06.22</time>
<name>3284</name>
</trkpt>
<trkpt lat="48.933183" lon="8.685698">
<ele>399.0</ele>
<speed>6.0</speed>
<course>237.6</course>
<desc>Speed 6.0 km/h Distance 5.39 km</desc>
<time>2010-03-03T16:52:07.22</time>
<name>3285</name>
</trkpt>
<trkpt lat="48.933175" lon="8.685678">
<ele>399.0</ele>
<speed>6.1</speed>
<course>244.9</course>
<desc>Speed 6.1 km/h Distance 5.39 km</desc>
<time>2010-03-03T16:52:08.22</time>
<name>3286</name>
</trkpt>
<trkpt lat="48.933168" lon="8.685657">
<ele>399.0</ele>
<speed>6.1</speed>
<course>237.6</course>
<desc>Speed 6.1 km/h Distance 5.39 km</desc>
<time>2010-03-03T16:52:09.23</time>
<name>3287</name>
</trkpt>
<trkpt lat="48.933160" lon="8.685637">
<ele>399.0</ele>
<speed>6.2</speed>
<course>244.9</course>
<desc>Speed 6.2 km/h Distance 5.39 km</desc>
<time>2010-03-03T16:52:10.22</time>
<name>3288</name>
</trkpt>
<trkpt lat="48.933153" lon="8.685615">
<ele>399.0</ele>
<speed>6.2</speed>
<course>243.1</course>
<desc>Speed 6.2 km/h Distance 5.39 km</desc>
<time>2010-03-03T16:52:11.22</time>
<name>3289</name>
</trkpt>
<trkpt lat="48.933147" lon="8.685595">
<ele>399.0</ele>
<speed>6.1</speed>
<course>243.1</course>
<desc>Speed 6.1 km/h Distance 5.40 km</desc>
<time>2010-03-03T16:52:12.22</time>
<name>3290</name>
</trkpt>
<trkpt lat="48.933140" lon="8.685575">
<ele>399.0</ele>
<speed>6.0</speed>
<course>239.6</course>
<desc>Speed 6.0 km/h Distance 5.40 km</desc>
<time>2010-03-03T16:52:13.22</time>
<name>3291</name>
</trkpt>
<trkpt lat="48.933132" lon="8.685553">
<ele>399.0</ele>
<speed>6.1</speed>
<course>250.6</course>
<desc>Speed 6.1 km/h Distance 5.40 km</desc>
<time>2010-03-03T16:52:14.22</time>
<name>3292</name>
</trkpt>
<trkpt lat="48.933127" lon="8.685532">
<ele>398.5</ele>
<speed>6.2</speed>
<course>237.6</course>
<desc>Speed 6.2 km/h Distance 5.40 km</desc>
<time>2010-03-03T16:52:15.22</time>
<name>3293</name>
</trkpt>
<trkpt lat="48.933118" lon="8.685512">
<ele>398.5</ele>
<speed>6.0</speed>
<course>243.1</course>
<desc>Speed 6.0 km/h Distance 5.40 km</desc>
<time>2010-03-03T16:52:16.22</time>
<name>3294</name>
</trkpt>
<trkpt lat="48.933112" lon="8.685492">
<ele>398.5</ele>
<speed>6.3</speed>
<course>243.1</course>
<desc>Speed 6.3 km/h Distance 5.40 km</desc>
<time>2010-03-03T16:52:17.22</time>
<name>3295</name>
</trkpt>
<trkpt lat="48.933105" lon="8.685472">
<ele>398.5</ele>
<speed>6.0</speed>
<course>243.1</course>
<desc>Speed 6.0 km/h Distance 5.41 km</desc>
<time>2010-03-03T16:52:18.22</time>
<name>3296</name>
</trkpt>
<trkpt lat="48.933098" lon="8.685452">
<ele>398.5</ele>
<speed>5.9</speed>
<course>237.6</course>
<desc>Speed 5.9 km/h Distance 5.41 km</desc>
<time>2010-03-03T16:52:19.22</time>
<name>3297</name>
</trkpt>
<trkpt lat="48.933090" lon="8.685432">
<ele>398.5</ele>
<speed>6.0</speed>
<course>237.6</course>
<desc>Speed 6.0 km/h Distance 5.41 km</desc>
<time>2010-03-03T16:52:20.21</time>
<name>3298</name>
</trkpt>
<trkpt lat="48.933082" lon="8.685412">
<ele>398.5</ele>
<speed>6.0</speed>
<course>243.1</course>
<desc>Speed 6.0 km/h Distance 5.41 km</desc>
<time>2010-03-03T16:52:21.21</time>
<name>3299</name>
</trkpt>
<trkpt lat="48.933075" lon="8.685392">
<ele>398.0</ele>
<speed>5.9</speed>
<course>249.2</course>
<desc>Speed 5.9 km/h Distance 5.41 km</desc>
<time>2010-03-03T16:52:22.21</time>
<name>3300</name>
</trkpt>
<trkpt lat="48.933070" lon="8.685372">
<ele>398.0</ele>
<speed>6.0</speed>
<course>237.6</course>
<desc>Speed 6.0 km/h Distance 5.41 km</desc>
<time>2010-03-03T16:52:23.21</time>
<name>3301</name>
</trkpt>
<trkpt lat="48.933062" lon="8.685352">
<ele>398.0</ele>
<speed>6.1</speed>
<course>244.9</course>
<desc>Speed 6.1 km/h Distance 5.42 km</desc>
<time>2010-03-03T16:52:24.22</time>
<name>3302</name>
</trkpt>
<trkpt lat="48.933055" lon="8.685330">
<ele>398.0</ele>
<speed>6.2</speed>
<course>244.9</course>
<desc>Speed 6.2 km/h Distance 5.42 km</desc>
<time>2010-03-03T16:52:25.21</time>
<name>3303</name>
</trkpt>
<trkpt lat="48.933048" lon="8.685308">
<ele>398.0</ele>
<speed>6.1</speed>
<course>243.1</course>
<desc>Speed 6.1 km/h Distance 5.42 km</desc>
<time>2010-03-03T16:52:26.21</time>
<name>3304</name>
</trkpt>
<trkpt lat="48.933042" lon="8.685288">
<ele>398.0</ele>
<speed>6.3</speed>
<course>256.8</course>
<desc>Speed 6.3 km/h Distance 5.42 km</desc>
<time>2010-03-03T16:52:27.21</time>
<name>3305</name>
</trkpt>
<trkpt lat="48.933038" lon="8.685267">
<ele>398.0</ele>
<speed>5.9</speed>
<course>244.9</course>
<desc>Speed 5.9 km/h Distance 5.42 km</desc>
<time>2010-03-03T16:52:28.21</time>
<name>3306</name>
</trkpt>
<trkpt lat="48.933032" lon="8.685245">
<ele>398.0</ele>
<speed>6.0</speed>
<course>243.1</course>
<desc>Speed 6.0 km/h Distance 5.42 km</desc>
<time>2010-03-03T16:52:29.21</time>
<name>3307</name>
</trkpt>
<trkpt lat="48.933025" lon="8.685225">
<ele>398.0</ele>
<speed>6.0</speed>
<course>237.6</course>
<desc>Speed 6.0 km/h Distance 5.43 km</desc>
<time>2010-03-03T16:52:30.21</time>
<name>3308</name>
</trkpt>
<trkpt lat="48.933017" lon="8.685205">
<ele>398.0</ele>
<speed>6.1</speed>
<course>230.3</course>
<desc>Speed 6.1 km/h Distance 5.43 km</desc>
<time>2010-03-03T16:52:31.21</time>
<name>3309</name>
</trkpt>
<trkpt lat="48.933007" lon="8.685187">
<ele>398.0</ele>
<speed>6.2</speed>
<course>237.6</course>
<desc>Speed 6.2 km/h Distance 5.43 km</desc>
<time>2010-03-03T16:52:32.21</time>
<name>3310</name>
</trkpt>
<trkpt lat="48.932998" lon="8.685167">
<ele>398.0</ele>
<speed>6.1</speed>
<course>243.1</course>
<desc>Speed 6.1 km/h Distance 5.43 km</desc>
<time>2010-03-03T16:52:33.21</time>
<name>3311</name>
</trkpt>
<trkpt lat="48.932992" lon="8.685147">
<ele>398.0</ele>
<speed>6.0</speed>
<course>241.0</course>
<desc>Speed 6.0 km/h Distance 5.43 km</desc>
<time>2010-03-03T16:52:34.21</time>
<name>3312</name>
</trkpt>
<trkpt lat="48.932985" lon="8.685128">
<ele>398.0</ele>
<speed>5.9</speed>
<course>237.6</course>
<desc>Speed 5.9 km/h Distance 5.43 km</desc>
<time>2010-03-03T16:52:35.21</time>
<name>3313</name>
</trkpt>
<trkpt lat="48.932977" lon="8.685108">
<ele>397.5</ele>
<speed>6.0</speed>
<course>243.1</course>
<desc>Speed 6.0 km/h Distance 5.44 km</desc>
<time>2010-03-03T16:52:36.21</time>
<name>3314</name>
</trkpt>
<trkpt lat="48.932970" lon="8.685088">
<ele>397.5</ele>
<speed>6.2</speed>
<course>237.7</course>
<desc>Speed 6.2 km/h Distance 5.44 km</desc>
<time>2010-03-03T16:52:37.21</time>
<name>3315</name>
</trkpt>
<trkpt lat="48.932962" lon="8.685068">
<ele>397.5</ele>
<speed>6.1</speed>
<course>243.1</course>
<desc>Speed 6.1 km/h Distance 5.44 km</desc>
<time>2010-03-03T16:52:38.21</time>
<name>3316</name>
</trkpt>
<trkpt lat="48.932955" lon="8.685048">
<ele>397.5</ele>
<speed>6.1</speed>
<course>237.6</course>
<desc>Speed 6.1 km/h Distance 5.44 km</desc>
<time>2010-03-03T16:52:39.21</time>
<name>3317</name>
</trkpt>
<trkpt lat="48.932947" lon="8.685028">
<ele>398.0</ele>
<speed>5.9</speed>
<course>244.9</course>
<desc>Speed 5.9 km/h Distance 5.44 km</desc>
<time>2010-03-03T16:52:40.21</time>
<name>3318</name>
</trkpt>
<trkpt lat="48.932940" lon="8.685007">
<ele>398.0</ele>
<speed>6.0</speed>
<course>237.6</course>
<desc>Speed 6.0 km/h Distance 5.44 km</desc>
<time>2010-03-03T16:52:41.21</time>
<name>3319</name>
</trkpt>
<trkpt lat="48.932932" lon="8.684987">
<ele>398.0</ele>
<speed>5.9</speed>
<course>243.1</course>
<desc>Speed 5.9 km/h Distance 5.45 km</desc>
<time>2010-03-03T16:52:42.21</time>
<name>3320</name>
</trkpt>
<trkpt lat="48.932925" lon="8.684967">
<ele>398.0</ele>
<speed>6.2</speed>
<course>239.6</course>
<desc>Speed 6.2 km/h Distance 5.45 km</desc>
<time>2010-03-03T16:52:43.21</time>
<name>3321</name>
</trkpt>
<trkpt lat="48.932917" lon="8.684945">
<ele>398.0</ele>
<speed>6.2</speed>
<course>243.1</course>
<desc>Speed 6.2 km/h Distance 5.45 km</desc>
<time>2010-03-03T16:52:44.21</time>
<name>3322</name>
</trkpt>
<trkpt lat="48.932910" lon="8.684925">
<ele>398.0</ele>
<speed>6.3</speed>
<course>239.7</course>
<desc>Speed 6.3 km/h Distance 5.45 km</desc>
<time>2010-03-03T16:52:45.20</time>
<name>3323</name>
</trkpt>
<trkpt lat="48.932902" lon="8.684903">
<ele>398.0</ele>
<speed>6.3</speed>
<course>243.1</course>
<desc>Speed 6.3 km/h Distance 5.45 km</desc>
<time>2010-03-03T16:52:46.20</time>
<name>3324</name>
</trkpt>
<trkpt lat="48.932895" lon="8.684883">
<ele>397.5</ele>
<speed>6.2</speed>
<course>239.6</course>
<desc>Speed 6.2 km/h Distance 5.45 km</desc>
<time>2010-03-03T16:52:47.20</time>
<name>3325</name>
</trkpt>
<trkpt lat="48.932887" lon="8.684862">
<ele>397.5</ele>
<speed>6.2</speed>
<course>237.7</course>
<desc>Speed 6.2 km/h Distance 5.46 km</desc>
<time>2010-03-03T16:52:48.20</time>
<name>3326</name>
</trkpt>
<trkpt lat="48.932878" lon="8.684842">
<ele>397.5</ele>
<speed>6.4</speed>
<course>246.5</course>
<desc>Speed 6.4 km/h Distance 5.46 km</desc>
<time>2010-03-03T16:52:49.20</time>
<name>3327</name>
</trkpt>
<trkpt lat="48.932872" lon="8.684818">
<ele>397.5</ele>
<speed>6.4</speed>
<course>237.7</course>
<desc>Speed 6.4 km/h Distance 5.46 km</desc>
<time>2010-03-03T16:52:50.20</time>
<name>3328</name>
</trkpt>
<trkpt lat="48.932863" lon="8.684798">
<ele>397.5</ele>
<speed>6.3</speed>
<course>239.7</course>
<desc>Speed 6.3 km/h Distance 5.46 km</desc>
<time>2010-03-03T16:52:51.20</time>
<name>3329</name>
</trkpt>
<trkpt lat="48.932855" lon="8.684777">
<ele>397.5</ele>
<speed>6.4</speed>
<course>244.9</course>
<desc>Speed 6.4 km/h Distance 5.46 km</desc>
<time>2010-03-03T16:52:52.20</time>
<name>3330</name>
</trkpt>
<trkpt lat="48.932848" lon="8.684755">
<ele>397.5</ele>
<speed>6.3</speed>
<course>244.9</course>
<desc>Speed 6.3 km/h Distance 5.47 km</desc>
<time>2010-03-03T16:52:53.20</time>
<name>3331</name>
</trkpt>
<trkpt lat="48.932842" lon="8.684733">
<ele>398.0</ele>
<speed>6.2</speed>
<course>239.7</course>
<desc>Speed 6.2 km/h Distance 5.47 km</desc>
<time>2010-03-03T16:52:54.20</time>
<name>3332</name>
</trkpt>
<trkpt lat="48.932833" lon="8.684712">
<ele>397.5</ele>
<speed>6.3</speed>
<course>244.9</course>
<desc>Speed 6.3 km/h Distance 5.47 km</desc>
<time>2010-03-03T16:52:55.20</time>
<name>3333</name>
</trkpt>
<trkpt lat="48.932827" lon="8.684690">
<ele>398.0</ele>
<speed>6.4</speed>
<course>239.6</course>
<desc>Speed 6.4 km/h Distance 5.47 km</desc>
<time>2010-03-03T16:52:56.20</time>
<name>3334</name>
</trkpt>
<trkpt lat="48.932818" lon="8.684668">
<ele>398.0</ele>
<speed>6.4</speed>
<course>244.9</course>
<desc>Speed 6.4 km/h Distance 5.47 km</desc>
<time>2010-03-03T16:52:57.20</time>
<name>3335</name>
</trkpt>
<trkpt lat="48.932812" lon="8.684647">
<ele>397.5</ele>
<speed>6.4</speed>
<course>239.7</course>
<desc>Speed 6.4 km/h Distance 5.47 km</desc>
<time>2010-03-03T16:52:58.20</time>
<name>3336</name>
</trkpt>
<trkpt lat="48.932803" lon="8.684625">
<ele>397.5</ele>
<speed>6.4</speed>
<course>244.9</course>
<desc>Speed 6.4 km/h Distance 5.48 km</desc>
<time>2010-03-03T16:52:59.20</time>
<name>3337</name>
</trkpt>
<trkpt lat="48.932797" lon="8.684603">
<ele>397.5</ele>
<speed>6.3</speed>
<course>244.9</course>
<desc>Speed 6.3 km/h Distance 5.48 km</desc>
<time>2010-03-03T16:53:00.20</time>
<name>3338</name>
</trkpt>
<trkpt lat="48.932790" lon="8.684582">
<ele>397.5</ele>
<speed>6.4</speed>
<course>237.6</course>
<desc>Speed 6.4 km/h Distance 5.48 km</desc>
<time>2010-03-03T16:53:01.20</time>
<name>3339</name>
</trkpt>
<trkpt lat="48.932782" lon="8.684562">
<ele>397.5</ele>
<speed>6.4</speed>
<course>237.6</course>
<desc>Speed 6.4 km/h Distance 5.48 km</desc>
<time>2010-03-03T16:53:02.20</time>
<name>3340</name>
</trkpt>
<trkpt lat="48.932773" lon="8.684542">
<ele>397.5</ele>
<speed>6.2</speed>
<course>244.9</course>
<desc>Speed 6.2 km/h Distance 5.48 km</desc>
<time>2010-03-03T16:53:03.20</time>
<name>3341</name>
</trkpt>
<trkpt lat="48.932767" lon="8.684520">
<ele>397.5</ele>
<speed>6.2</speed>
<course>244.9</course>
<desc>Speed 6.2 km/h Distance 5.48 km</desc>
<time>2010-03-03T16:53:04.20</time>
<name>3342</name>
</trkpt>
<trkpt lat="48.932760" lon="8.684498">
<ele>397.5</ele>
<speed>6.3</speed>
<course>239.7</course>
<desc>Speed 6.3 km/h Distance 5.49 km</desc>
<time>2010-03-03T16:53:05.20</time>
<name>3343</name>
</trkpt>
<trkpt lat="48.932752" lon="8.684477">
<ele>397.5</ele>
<speed>6.3</speed>
<course>243.1</course>
<desc>Speed 6.3 km/h Distance 5.49 km</desc>
<time>2010-03-03T16:53:06.20</time>
<name>3344</name>
</trkpt>
<trkpt lat="48.932745" lon="8.684457">
<ele>397.5</ele>
<speed>6.2</speed>
<course>239.7</course>
<desc>Speed 6.2 km/h Distance 5.49 km</desc>
<time>2010-03-03T16:53:07.20</time>
<name>3345</name>
</trkpt>
<trkpt lat="48.932737" lon="8.684435">
<ele>397.5</ele>
<speed>6.4</speed>
<course>237.6</course>
<desc>Speed 6.4 km/h Distance 5.49 km</desc>
<time>2010-03-03T16:53:08.19</time>
<name>3346</name>
</trkpt>
<trkpt lat="48.932728" lon="8.684415">
<ele>397.5</ele>
<speed>6.4</speed>
<course>237.6</course>
<desc>Speed 6.4 km/h Distance 5.49 km</desc>
<time>2010-03-03T16:53:09.20</time>
<name>3347</name>
</trkpt>
<trkpt lat="48.932720" lon="8.684395">
<ele>397.0</ele>
<speed>6.6</speed>
<course>244.9</course>
<desc>Speed 6.6 km/h Distance 5.50 km</desc>
<time>2010-03-03T16:53:10.20</time>
<name>3348</name>
</trkpt>
<trkpt lat="48.932713" lon="8.684373">
<ele>397.0</ele>
<speed>6.5</speed>
<course>239.7</course>
<desc>Speed 6.5 km/h Distance 5.50 km</desc>
<time>2010-03-03T16:53:11.20</time>
<name>3349</name>
</trkpt>
<trkpt lat="48.932705" lon="8.684352">
<ele>397.0</ele>
<speed>6.6</speed>
<course>244.9</course>
<desc>Speed 6.6 km/h Distance 5.50 km</desc>
<time>2010-03-03T16:53:12.19</time>
<name>3350</name>
</trkpt>
<trkpt lat="48.932698" lon="8.684330">
<ele>397.0</ele>
<speed>6.5</speed>
<course>239.7</course>
<desc>Speed 6.5 km/h Distance 5.50 km</desc>
<time>2010-03-03T16:53:13.19</time>
<name>3351</name>
</trkpt>
<trkpt lat="48.932690" lon="8.684308">
<ele>397.0</ele>
<speed>6.6</speed>
<course>239.6</course>
<desc>Speed 6.6 km/h Distance 5.50 km</desc>
<time>2010-03-03T16:53:14.19</time>
<name>3352</name>
</trkpt>
<trkpt lat="48.932682" lon="8.684287">
<ele>397.0</ele>
<speed>6.4</speed>
<course>244.9</course>
<desc>Speed 6.4 km/h Distance 5.50 km</desc>
<time>2010-03-03T16:53:15.19</time>
<name>3353</name>
</trkpt>
<trkpt lat="48.932675" lon="8.684265">
<ele>397.0</ele>
<speed>6.5</speed>
<course>239.7</course>
<desc>Speed 6.5 km/h Distance 5.51 km</desc>
<time>2010-03-03T16:53:16.19</time>
<name>3354</name>
</trkpt>
<trkpt lat="48.932667" lon="8.684243">
<ele>397.0</ele>
<speed>6.4</speed>
<course>244.9</course>
<desc>Speed 6.4 km/h Distance 5.51 km</desc>
<time>2010-03-03T16:53:17.19</time>
<name>3355</name>
</trkpt>
<trkpt lat="48.932660" lon="8.684222">
<ele>397.0</ele>
<speed>6.3</speed>
<course>239.6</course>
<desc>Speed 6.3 km/h Distance 5.51 km</desc>
<time>2010-03-03T16:53:18.19</time>
<name>3356</name>
</trkpt>
<trkpt lat="48.932652" lon="8.684200">
<ele>397.0</ele>
<speed>6.4</speed>
<course>241.5</course>
<desc>Speed 6.4 km/h Distance 5.51 km</desc>
<time>2010-03-03T16:53:19.19</time>
<name>3357</name>
</trkpt>
<trkpt lat="48.932643" lon="8.684177">
<ele>397.0</ele>
<speed>6.4</speed>
<course>244.9</course>
<desc>Speed 6.4 km/h Distance 5.51 km</desc>
<time>2010-03-03T16:53:20.19</time>
<name>3358</name>
</trkpt>
<trkpt lat="48.932637" lon="8.684155">
<ele>397.0</ele>
<speed>6.4</speed>
<course>239.6</course>
<desc>Speed 6.4 km/h Distance 5.52 km</desc>
<time>2010-03-03T16:53:21.19</time>
<name>3359</name>
</trkpt>
<trkpt lat="48.932628" lon="8.684133">
<ele>397.0</ele>
<speed>6.4</speed>
<course>241.4</course>
<desc>Speed 6.4 km/h Distance 5.52 km</desc>
<time>2010-03-03T16:53:22.19</time>
<name>3360</name>
</trkpt>
<trkpt lat="48.932620" lon="8.684110">
<ele>397.5</ele>
<speed>6.4</speed>
<course>239.6</course>
<desc>Speed 6.4 km/h Distance 5.52 km</desc>
<time>2010-03-03T16:53:23.19</time>
<name>3361</name>
</trkpt>
<trkpt lat="48.932612" lon="8.684088">
<ele>397.5</ele>
<speed>6.4</speed>
<course>241.5</course>
<desc>Speed 6.4 km/h Distance 5.52 km</desc>
<time>2010-03-03T16:53:24.19</time>
<name>3362</name>
</trkpt>
<trkpt lat="48.932603" lon="8.684065">
<ele>397.5</ele>
<speed>6.6</speed>
<course>244.9</course>
<desc>Speed 6.6 km/h Distance 5.52 km</desc>
<time>2010-03-03T16:53:25.19</time>
<name>3363</name>
</trkpt>
<trkpt lat="48.932597" lon="8.684043">
<ele>397.5</ele>
<speed>6.3</speed>
<course>244.9</course>
<desc>Speed 6.3 km/h Distance 5.52 km</desc>
<time>2010-03-03T16:53:26.19</time>
<name>3364</name>
</trkpt>
<trkpt lat="48.932590" lon="8.684022">
<ele>397.5</ele>
<speed>6.3</speed>
<course>244.9</course>
<desc>Speed 6.3 km/h Distance 5.53 km</desc>
<time>2010-03-03T16:53:27.19</time>
<name>3365</name>
</trkpt>
<trkpt lat="48.932583" lon="8.684000">
<ele>397.5</ele>
<speed>6.3</speed>
<course>241.5</course>
<desc>Speed 6.3 km/h Distance 5.53 km</desc>
<time>2010-03-03T16:53:28.19</time>
<name>3366</name>
</trkpt>
<trkpt lat="48.932575" lon="8.683977">
<ele>397.5</ele>
<speed>6.4</speed>
<course>237.6</course>
<desc>Speed 6.4 km/h Distance 5.53 km</desc>
<time>2010-03-03T16:53:29.19</time>
<name>3367</name>
</trkpt>
<trkpt lat="48.932567" lon="8.683957">
<ele>397.5</ele>
<speed>6.4</speed>
<course>244.9</course>
<desc>Speed 6.4 km/h Distance 5.53 km</desc>
<time>2010-03-03T16:53:30.19</time>
<name>3368</name>
</trkpt>
<trkpt lat="48.932560" lon="8.683935">
<ele>397.5</ele>
<speed>6.2</speed>
<course>237.6</course>
<desc>Speed 6.2 km/h Distance 5.53 km</desc>
<time>2010-03-03T16:53:31.19</time>
<name>3369</name>
</trkpt>
<trkpt lat="48.932552" lon="8.683915">
<ele>397.5</ele>
<speed>6.3</speed>
<course>239.6</course>
<desc>Speed 6.3 km/h Distance 5.53 km</desc>
<time>2010-03-03T16:53:32.19</time>
<name>3370</name>
</trkpt>
<trkpt lat="48.932543" lon="8.683893">
<ele>397.5</ele>
<speed>6.4</speed>
<course>244.9</course>
<desc>Speed 6.4 km/h Distance 5.54 km</desc>
<time>2010-03-03T16:53:33.19</time>
<name>3371</name>
</trkpt>
<trkpt lat="48.932537" lon="8.683872">
<ele>397.5</ele>
<speed>6.4</speed>
<course>244.9</course>
<desc>Speed 6.4 km/h Distance 5.54 km</desc>
<time>2010-03-03T16:53:34.19</time>
<name>3372</name>
</trkpt>
<trkpt lat="48.932530" lon="8.683850">
<ele>397.0</ele>
<speed>6.2</speed>
<course>237.6</course>
<desc>Speed 6.2 km/h Distance 5.54 km</desc>
<time>2010-03-03T16:53:35.19</time>
<name>3373</name>
</trkpt>
<trkpt lat="48.932522" lon="8.683830">
<ele>397.0</ele>
<speed>6.3</speed>
<course>244.9</course>
<desc>Speed 6.3 km/h Distance 5.54 km</desc>
<time>2010-03-03T16:53:36.19</time>
<name>3374</name>
</trkpt>
<trkpt lat="48.932515" lon="8.683808">
<ele>397.0</ele>
<speed>6.3</speed>
<course>237.6</course>
<desc>Speed 6.3 km/h Distance 5.54 km</desc>
<time>2010-03-03T16:53:37.19</time>
<name>3375</name>
</trkpt>
<trkpt lat="48.932507" lon="8.683788">
<ele>397.0</ele>
<speed>6.2</speed>
<course>243.1</course>
<desc>Speed 6.2 km/h Distance 5.55 km</desc>
<time>2010-03-03T16:53:38.19</time>
<name>3376</name>
</trkpt>
<trkpt lat="48.932500" lon="8.683768">
<ele>397.0</ele>
<speed>6.2</speed>
<course>237.6</course>
<desc>Speed 6.2 km/h Distance 5.55 km</desc>
<time>2010-03-03T16:53:39.19</time>
<name>3377</name>
</trkpt>
<trkpt lat="48.932492" lon="8.683748">
<ele>397.0</ele>
<speed>6.2</speed>
<course>244.9</course>
<desc>Speed 6.2 km/h Distance 5.55 km</desc>
<time>2010-03-03T16:53:40.19</time>
<name>3378</name>
</trkpt>
<trkpt lat="48.932485" lon="8.683727">
<ele>397.0</ele>
<speed>6.1</speed>
<course>237.6</course>
<desc>Speed 6.1 km/h Distance 5.55 km</desc>
<time>2010-03-03T16:53:41.19</time>
<name>3379</name>
</trkpt>
<trkpt lat="48.932477" lon="8.683707">
<ele>397.0</ele>
<speed>6.2</speed>
<course>243.1</course>
<desc>Speed 6.2 km/h Distance 5.55 km</desc>
<time>2010-03-03T16:53:42.19</time>
<name>3380</name>
</trkpt>
<trkpt lat="48.932470" lon="8.683687">
<ele>397.0</ele>
<speed>6.1</speed>
<course>237.6</course>
<desc>Speed 6.1 km/h Distance 5.55 km</desc>
<time>2010-03-03T16:53:43.19</time>
<name>3381</name>
</trkpt>
<trkpt lat="48.932462" lon="8.683667">
<ele>397.0</ele>
<speed>6.2</speed>
<course>244.9</course>
<desc>Speed 6.2 km/h Distance 5.56 km</desc>
<time>2010-03-03T16:53:44.19</time>
<name>3382</name>
</trkpt>
<trkpt lat="48.932455" lon="8.683645">
<ele>397.0</ele>
<speed>6.3</speed>
<course>243.1</course>
<desc>Speed 6.3 km/h Distance 5.56 km</desc>
<time>2010-03-03T16:53:45.19</time>
<name>3383</name>
</trkpt>
<trkpt lat="48.932448" lon="8.683625">
<ele>397.0</ele>
<speed>6.2</speed>
<course>239.7</course>
<desc>Speed 6.2 km/h Distance 5.56 km</desc>
<time>2010-03-03T16:53:46.19</time>
<name>3384</name>
</trkpt>
<trkpt lat="48.932440" lon="8.683603">
<ele>396.5</ele>
<speed>6.3</speed>
<course>237.6</course>
<desc>Speed 6.3 km/h Distance 5.56 km</desc>
<time>2010-03-03T16:53:47.19</time>
<name>3385</name>
</trkpt>
<trkpt lat="48.932432" lon="8.683583">
<ele>396.5</ele>
<speed>6.3</speed>
<course>244.9</course>
<desc>Speed 6.3 km/h Distance 5.56 km</desc>
<time>2010-03-03T16:53:48.19</time>
<name>3386</name>
</trkpt>
<trkpt lat="48.932425" lon="8.683562">
<ele>396.5</ele>
<speed>6.4</speed>
<course>244.9</course>
<desc>Speed 6.4 km/h Distance 5.56 km</desc>
<time>2010-03-03T16:53:49.19</time>
<name>3387</name>
</trkpt>
<trkpt lat="48.932418" lon="8.683540">
<ele>396.5</ele>
<speed>6.4</speed>
<course>246.5</course>
<desc>Speed 6.4 km/h Distance 5.57 km</desc>
<time>2010-03-03T16:53:50.19</time>
<name>3388</name>
</trkpt>
<trkpt lat="48.932412" lon="8.683517">
<ele>396.5</ele>
<speed>6.4</speed>
<course>244.9</course>
<desc>Speed 6.4 km/h Distance 5.57 km</desc>
<time>2010-03-03T16:53:51.19</time>
<name>3389</name>
</trkpt>
<trkpt lat="48.932405" lon="8.683495">
<ele>396.5</ele>
<speed>6.5</speed>
<course>244.9</course>
<desc>Speed 6.5 km/h Distance 5.57 km</desc>
<time>2010-03-03T16:53:52.19</time>
<name>3390</name>
</trkpt>
<trkpt lat="48.932398" lon="8.683473">
<ele>396.5</ele>
<speed>6.3</speed>
<course>239.7</course>
<desc>Speed 6.3 km/h Distance 5.57 km</desc>
<time>2010-03-03T16:53:53.19</time>
<name>3391</name>
</trkpt>
<trkpt lat="48.932390" lon="8.683452">
<ele>396.0</ele>
<speed>6.3</speed>
<course>244.9</course>
<desc>Speed 6.3 km/h Distance 5.57 km</desc>
<time>2010-03-03T16:53:54.19</time>
<name>3392</name>
</trkpt>
<trkpt lat="48.932383" lon="8.683430">
<ele>396.0</ele>
<speed>6.3</speed>
<course>237.7</course>
<desc>Speed 6.3 km/h Distance 5.58 km</desc>
<time>2010-03-03T16:53:55.19</time>
<name>3393</name>
</trkpt>
<trkpt lat="48.932375" lon="8.683410">
<ele>396.0</ele>
<speed>6.4</speed>
<course>244.9</course>
<desc>Speed 6.4 km/h Distance 5.58 km</desc>
<time>2010-03-03T16:53:56.19</time>
<name>3394</name>
</trkpt>
<trkpt lat="48.932368" lon="8.683388">
<ele>395.5</ele>
<speed>6.3</speed>
<course>244.9</course>
<desc>Speed 6.3 km/h Distance 5.58 km</desc>
<time>2010-03-03T16:53:57.19</time>
<name>3395</name>
</trkpt>
<trkpt lat="48.932362" lon="8.683367">
<ele>395.5</ele>
<speed>6.2</speed>
<course>244.9</course>
<desc>Speed 6.2 km/h Distance 5.58 km</desc>
<time>2010-03-03T16:53:58.19</time>
<name>3396</name>
</trkpt>
<trkpt lat="48.932355" lon="8.683345">
<ele>395.5</ele>
<speed>6.4</speed>
<course>244.9</course>
<desc>Speed 6.4 km/h Distance 5.58 km</desc>
<time>2010-03-03T16:53:59.19</time>
<name>3397</name>
</trkpt>
<trkpt lat="48.932348" lon="8.683323">
<ele>395.5</ele>
<speed>6.2</speed>
<course>244.9</course>
<desc>Speed 6.2 km/h Distance 5.58 km</desc>
<time>2010-03-03T16:54:00.38</time>
<name>3398</name>
</trkpt>
<trkpt lat="48.932342" lon="8.683302">
<ele>395.5</ele>
<speed>6.4</speed>
<course>244.9</course>
<desc>Speed 6.4 km/h Distance 5.59 km</desc>
<time>2010-03-03T16:54:01.21</time>
<name>3399</name>
</trkpt>
<trkpt lat="48.932335" lon="8.683280">
<ele>395.5</ele>
<speed>6.2</speed>
<course>244.9</course>
<desc>Speed 6.2 km/h Distance 5.59 km</desc>
<time>2010-03-03T16:54:02.21</time>
<name>3400</name>
</trkpt>
<trkpt lat="48.932328" lon="8.683258">
<ele>395.0</ele>
<speed>6.2</speed>
<course>244.9</course>
<desc>Speed 6.2 km/h Distance 5.59 km</desc>
<time>2010-03-03T16:54:03.21</time>
<name>3401</name>
</trkpt>
<trkpt lat="48.932322" lon="8.683237">
<ele>395.0</ele>
<speed>6.3</speed>
<course>243.1</course>
<desc>Speed 6.3 km/h Distance 5.59 km</desc>
<time>2010-03-03T16:54:04.21</time>
<name>3402</name>
</trkpt>
<trkpt lat="48.932315" lon="8.683217">
<ele>395.0</ele>
<speed>6.3</speed>
<course>239.7</course>
<desc>Speed 6.3 km/h Distance 5.59 km</desc>
<time>2010-03-03T16:54:05.24</time>
<name>3403</name>
</trkpt>
<trkpt lat="48.932307" lon="8.683195">
<ele>395.0</ele>
<speed>6.4</speed>
<course>249.2</course>
<desc>Speed 6.4 km/h Distance 5.59 km</desc>
<time>2010-03-03T16:54:06.22</time>
<name>3404</name>
</trkpt>
<trkpt lat="48.932302" lon="8.683175">
<ele>395.0</ele>
<speed>6.2</speed>
<course>244.9</course>
<desc>Speed 6.2 km/h Distance 5.60 km</desc>
<time>2010-03-03T16:54:07.22</time>
<name>3405</name>
</trkpt>
<trkpt lat="48.932295" lon="8.683153">
<ele>395.0</ele>
<speed>6.0</speed>
<course>250.6</course>
<desc>Speed 6.0 km/h Distance 5.60 km</desc>
<time>2010-03-03T16:54:08.22</time>
<name>3406</name>
</trkpt>
<trkpt lat="48.932290" lon="8.683132">
<ele>395.0</ele>
<speed>6.4</speed>
<course>246.5</course>
<desc>Speed 6.4 km/h Distance 5.60 km</desc>
<time>2010-03-03T16:54:09.22</time>
<name>3407</name>
</trkpt>
<trkpt lat="48.932283" lon="8.683108">
<ele>394.5</ele>
<speed>6.4</speed>
<course>250.7</course>
<desc>Speed 6.4 km/h Distance 5.60 km</desc>
<time>2010-03-03T16:54:10.22</time>
<name>3408</name>
</trkpt>
<trkpt lat="48.932278" lon="8.683087">
<ele>394.5</ele>
<speed>6.3</speed>
<course>252.0</course>
<desc>Speed 6.3 km/h Distance 5.60 km</desc>
<time>2010-03-03T16:54:11.22</time>
<name>3409</name>
</trkpt>
<trkpt lat="48.932273" lon="8.683063">
<ele>394.5</ele>
<speed>6.3</speed>
<course>250.7</course>
<desc>Speed 6.3 km/h Distance 5.60 km</desc>
<time>2010-03-03T16:54:12.22</time>
<name>3410</name>
</trkpt>
<trkpt lat="48.932268" lon="8.683042">
<ele>394.5</ele>
<speed>6.3</speed>
<course>250.6</course>
<desc>Speed 6.3 km/h Distance 5.61 km</desc>
<time>2010-03-03T16:54:13.22</time>
<name>3411</name>
</trkpt>
<trkpt lat="48.932263" lon="8.683020">
<ele>394.5</ele>
<speed>6.1</speed>
<course>250.6</course>
<desc>Speed 6.1 km/h Distance 5.61 km</desc>
<time>2010-03-03T16:54:14.22</time>
<name>3412</name>
</trkpt>
<trkpt lat="48.932258" lon="8.682998">
<ele>394.0</ele>
<speed>6.0</speed>
<course>251.9</course>
<desc>Speed 6.0 km/h Distance 5.61 km</desc>
<time>2010-03-03T16:54:15.22</time>
<name>3413</name>
</trkpt>
<trkpt lat="48.932253" lon="8.682975">
<ele>394.0</ele>
<speed>6.2</speed>
<course>244.9</course>
<desc>Speed 6.2 km/h Distance 5.61 km</desc>
<time>2010-03-03T16:54:16.22</time>
<name>3414</name>
</trkpt>
<trkpt lat="48.932247" lon="8.682953">
<ele>394.0</ele>
<speed>6.3</speed>
<course>251.9</course>
<desc>Speed 6.3 km/h Distance 5.61 km</desc>
<time>2010-03-03T16:54:17.23</time>
<name>3415</name>
</trkpt>
<trkpt lat="48.932242" lon="8.682930">
<ele>394.0</ele>
<speed>6.4</speed>
<course>244.9</course>
<desc>Speed 6.4 km/h Distance 5.62 km</desc>
<time>2010-03-03T16:54:18.24</time>
<name>3416</name>
</trkpt>
<trkpt lat="48.932235" lon="8.682908">
<ele>393.5</ele>
<speed>6.5</speed>
<course>246.5</course>
<desc>Speed 6.5 km/h Distance 5.62 km</desc>
<time>2010-03-03T16:54:19.25</time>
<name>3417</name>
</trkpt>
<trkpt lat="48.932228" lon="8.682885">
<ele>393.5</ele>
<speed>6.4</speed>
<course>250.6</course>
<desc>Speed 6.4 km/h Distance 5.62 km</desc>
<time>2010-03-03T16:54:20.25</time>
<name>3418</name>
</trkpt>
<trkpt lat="48.932223" lon="8.682863">
<ele>393.5</ele>
<speed>6.3</speed>
<course>251.9</course>
<desc>Speed 6.3 km/h Distance 5.62 km</desc>
<time>2010-03-03T16:54:21.25</time>
<name>3419</name>
</trkpt>
<trkpt lat="48.932218" lon="8.682840">
<ele>393.5</ele>
<speed>6.3</speed>
<course>251.9</course>
<desc>Speed 6.3 km/h Distance 5.62 km</desc>
<time>2010-03-03T16:54:22.25</time>
<name>3420</name>
</trkpt>
<trkpt lat="48.932213" lon="8.682817">
<ele>393.0</ele>
<speed>6.4</speed>
<course>250.6</course>
<desc>Speed 6.4 km/h Distance 5.62 km</desc>
<time>2010-03-03T16:54:23.25</time>
<name>3421</name>
</trkpt>
<trkpt lat="48.932208" lon="8.682795">
<ele>393.0</ele>
<speed>6.4</speed>
<course>246.5</course>
<desc>Speed 6.4 km/h Distance 5.63 km</desc>
<time>2010-03-03T16:54:24.25</time>
<name>3422</name>
</trkpt>
<trkpt lat="48.932202" lon="8.682772">
<ele>393.0</ele>
<speed>6.4</speed>
<course>257.7</course>
<desc>Speed 6.4 km/h Distance 5.63 km</desc>
<time>2010-03-03T16:54:25.25</time>
<name>3423</name>
</trkpt>
<trkpt lat="48.932198" lon="8.682748">
<ele>392.5</ele>
<speed>6.4</speed>
<course>246.5</course>
<desc>Speed 6.4 km/h Distance 5.63 km</desc>
<time>2010-03-03T16:54:26.25</time>
<name>3424</name>
</trkpt>
<trkpt lat="48.932192" lon="8.682725">
<ele>392.5</ele>
<speed>6.6</speed>
<course>253.1</course>
<desc>Speed 6.6 km/h Distance 5.63 km</desc>
<time>2010-03-03T16:54:27.25</time>
<name>3425</name>
</trkpt>
<trkpt lat="48.932187" lon="8.682700">
<ele>392.5</ele>
<speed>6.7</speed>
<course>257.7</course>
<desc>Speed 6.7 km/h Distance 5.63 km</desc>
<time>2010-03-03T16:54:28.25</time>
<name>3426</name>
</trkpt>
<trkpt lat="48.932183" lon="8.682677">
<ele>392.0</ele>
<speed>6.4</speed>
<course>253.1</course>
<desc>Speed 6.4 km/h Distance 5.63 km</desc>
<time>2010-03-03T16:54:29.25</time>
<name>3427</name>
</trkpt>
<trkpt lat="48.932178" lon="8.682652">
<ele>392.0</ele>
<speed>6.8</speed>
<course>258.5</course>
<desc>Speed 6.8 km/h Distance 5.64 km</desc>
<time>2010-03-03T16:54:30.25</time>
<name>3428</name>
</trkpt>
<trkpt lat="48.932175" lon="8.682627">
<ele>392.0</ele>
<speed>6.6</speed>
<course>246.5</course>
<desc>Speed 6.6 km/h Distance 5.64 km</desc>
<time>2010-03-03T16:54:31.25</time>
<name>3429</name>
</trkpt>
<trkpt lat="48.932168" lon="8.682603">
<ele>391.5</ele>
<speed>6.6</speed>
<course>253.1</course>
<desc>Speed 6.6 km/h Distance 5.64 km</desc>
<time>2010-03-03T16:54:32.25</time>
<name>3430</name>
</trkpt>
<trkpt lat="48.932163" lon="8.682578">
<ele>391.5</ele>
<speed>6.7</speed>
<course>246.5</course>
<desc>Speed 6.7 km/h Distance 5.64 km</desc>
<time>2010-03-03T16:54:33.25</time>
<name>3431</name>
</trkpt>
<trkpt lat="48.932157" lon="8.682555">
<ele>391.5</ele>
<speed>6.7</speed>
<course>251.9</course>
<desc>Speed 6.7 km/h Distance 5.64 km</desc>
<time>2010-03-03T16:54:34.25</time>
<name>3432</name>
</trkpt>
<trkpt lat="48.932152" lon="8.682532">
<ele>391.0</ele>
<speed>6.5</speed>
<course>246.5</course>
<desc>Speed 6.5 km/h Distance 5.65 km</desc>
<time>2010-03-03T16:54:35.25</time>
<name>3433</name>
</trkpt>
<trkpt lat="48.932145" lon="8.682508">
<ele>391.0</ele>
<speed>6.8</speed>
<course>247.9</course>
<desc>Speed 6.8 km/h Distance 5.65 km</desc>
<time>2010-03-03T16:54:36.25</time>
<name>3434</name>
</trkpt>
<trkpt lat="48.932138" lon="8.682483">
<ele>390.5</ele>
<speed>6.9</speed>
<course>253.1</course>
<desc>Speed 6.9 km/h Distance 5.65 km</desc>
<time>2010-03-03T16:54:37.25</time>
<name>3435</name>
</trkpt>
<trkpt lat="48.932133" lon="8.682458">
<ele>390.5</ele>
<speed>6.9</speed>
<course>247.9</course>
<desc>Speed 6.9 km/h Distance 5.65 km</desc>
<time>2010-03-03T16:54:38.25</time>
<name>3436</name>
</trkpt>
<trkpt lat="48.932127" lon="8.682433">
<ele>390.5</ele>
<speed>7.0</speed>
<course>251.9</course>
<desc>Speed 7.0 km/h Distance 5.65 km</desc>
<time>2010-03-03T16:54:39.26</time>
<name>3437</name>
</trkpt>
<trkpt lat="48.932122" lon="8.682410">
<ele>390.0</ele>
<speed>6.7</speed>
<course>246.5</course>
<desc>Speed 6.7 km/h Distance 5.66 km</desc>
<time>2010-03-03T16:54:40.27</time>
<name>3438</name>
</trkpt>
<trkpt lat="48.932115" lon="8.682387">
<ele>390.0</ele>
<speed>6.6</speed>
<course>246.5</course>
<desc>Speed 6.6 km/h Distance 5.66 km</desc>
<time>2010-03-03T16:54:41.27</time>
<name>3439</name>
</trkpt>
<trkpt lat="48.932108" lon="8.682363">
<ele>390.0</ele>
<speed>6.8</speed>
<course>253.1</course>
<desc>Speed 6.8 km/h Distance 5.66 km</desc>
<time>2010-03-03T16:54:42.27</time>
<name>3440</name>
</trkpt>
<trkpt lat="48.932103" lon="8.682338">
<ele>389.5</ele>
<speed>6.9</speed>
<course>253.1</course>
<desc>Speed 6.9 km/h Distance 5.66 km</desc>
<time>2010-03-03T16:54:43.27</time>
<name>3441</name>
</trkpt>
<trkpt lat="48.932098" lon="8.682313">
<ele>389.5</ele>
<speed>6.8</speed>
<course>246.5</course>
<desc>Speed 6.8 km/h Distance 5.66 km</desc>
<time>2010-03-03T16:54:44.27</time>
<name>3442</name>
</trkpt>
<trkpt lat="48.932092" lon="8.682290">
<ele>389.5</ele>
<speed>6.6</speed>
<course>253.1</course>
<desc>Speed 6.6 km/h Distance 5.66 km</desc>
<time>2010-03-03T16:54:45.27</time>
<name>3443</name>
</trkpt>
<trkpt lat="48.932087" lon="8.682265">
<ele>389.5</ele>
<speed>6.7</speed>
<course>246.5</course>
<desc>Speed 6.7 km/h Distance 5.67 km</desc>
<time>2010-03-03T16:54:46.27</time>
<name>3444</name>
</trkpt>
<trkpt lat="48.932080" lon="8.682242">
<ele>389.5</ele>
<speed>6.7</speed>
<course>253.1</course>
<desc>Speed 6.7 km/h Distance 5.67 km</desc>
<time>2010-03-03T16:54:47.27</time>
<name>3445</name>
</trkpt>
<trkpt lat="48.932075" lon="8.682217">
<ele>389.5</ele>
<speed>6.7</speed>
<course>246.5</course>
<desc>Speed 6.7 km/h Distance 5.67 km</desc>
<time>2010-03-03T16:54:48.27</time>
<name>3446</name>
</trkpt>
<trkpt lat="48.932068" lon="8.682193">
<ele>389.0</ele>
<speed>6.7</speed>
<course>244.9</course>
<desc>Speed 6.7 km/h Distance 5.67 km</desc>
<time>2010-03-03T16:54:49.27</time>
<name>3447</name>
</trkpt>
<trkpt lat="48.932062" lon="8.682172">
<ele>389.0</ele>
<speed>6.6</speed>
<course>247.9</course>
<desc>Speed 6.6 km/h Distance 5.67 km</desc>
<time>2010-03-03T16:54:50.27</time>
<name>3448</name>
</trkpt>
<trkpt lat="48.932055" lon="8.682147">
<ele>389.0</ele>
<speed>6.7</speed>
<course>250.6</course>
<desc>Speed 6.7 km/h Distance 5.68 km</desc>
<time>2010-03-03T16:54:51.27</time>
<name>3449</name>
</trkpt>
<trkpt lat="48.932050" lon="8.682125">
<ele>389.0</ele>
<speed>6.4</speed>
<course>244.9</course>
<desc>Speed 6.4 km/h Distance 5.68 km</desc>
<time>2010-03-03T16:54:52.27</time>
<name>3450</name>
</trkpt>
<trkpt lat="48.932043" lon="8.682103">
<ele>389.0</ele>
<speed>6.4</speed>
<course>246.5</course>
<desc>Speed 6.4 km/h Distance 5.68 km</desc>
<time>2010-03-03T16:54:53.27</time>
<name>3451</name>
</trkpt>
<trkpt lat="48.932037" lon="8.682080">
<ele>389.0</ele>
<speed>6.3</speed>
<course>244.9</course>
<desc>Speed 6.3 km/h Distance 5.68 km</desc>
<time>2010-03-03T16:54:54.27</time>
<name>3452</name>
</trkpt>
<trkpt lat="48.932030" lon="8.682058">
<ele>389.0</ele>
<speed>6.4</speed>
<course>251.9</course>
<desc>Speed 6.4 km/h Distance 5.68 km</desc>
<time>2010-03-03T16:54:55.27</time>
<name>3453</name>
</trkpt>
<trkpt lat="48.932025" lon="8.682035">
<ele>389.0</ele>
<speed>6.5</speed>
<course>258.5</course>
<desc>Speed 6.5 km/h Distance 5.68 km</desc>
<time>2010-03-03T16:54:56.27</time>
<name>3454</name>
</trkpt>
<trkpt lat="48.932022" lon="8.682010">
<ele>389.0</ele>
<speed>6.5</speed>
<course>251.9</course>
<desc>Speed 6.5 km/h Distance 5.69 km</desc>
<time>2010-03-03T16:54:57.27</time>
<name>3455</name>
</trkpt>
<trkpt lat="48.932017" lon="8.681987">
<ele>388.5</ele>
<speed>6.6</speed>
<course>251.9</course>
<desc>Speed 6.6 km/h Distance 5.69 km</desc>
<time>2010-03-03T16:54:58.27</time>
<name>3456</name>
</trkpt>
<trkpt lat="48.932012" lon="8.681963">
<ele>388.5</ele>
<speed>6.5</speed>
<course>246.5</course>
<desc>Speed 6.5 km/h Distance 5.69 km</desc>
<time>2010-03-03T16:54:59.29</time>
<name>3457</name>
</trkpt>
<trkpt lat="48.932005" lon="8.681940">
<ele>388.5</ele>
<speed>6.5</speed>
<course>246.5</course>
<desc>Speed 6.5 km/h Distance 5.69 km</desc>
<time>2010-03-03T16:55:00.30</time>
<name>3458</name>
</trkpt>
<trkpt lat="48.931998" lon="8.681917">
<ele>388.5</ele>
<speed>6.4</speed>
<course>250.6</course>
<desc>Speed 6.4 km/h Distance 5.69 km</desc>
<time>2010-03-03T16:55:01.30</time>
<name>3459</name>
</trkpt>
<trkpt lat="48.931993" lon="8.681895">
<ele>388.5</ele>
<speed>6.3</speed>
<course>250.6</course>
<desc>Speed 6.3 km/h Distance 5.70 km</desc>
<time>2010-03-03T16:55:02.30</time>
<name>3460</name>
</trkpt>
<trkpt lat="48.931988" lon="8.681873">
<ele>388.5</ele>
<speed>6.1</speed>
<course>244.9</course>
<desc>Speed 6.1 km/h Distance 5.70 km</desc>
<time>2010-03-03T16:55:03.30</time>
<name>3461</name>
</trkpt>
<trkpt lat="48.931982" lon="8.681852">
<ele>388.5</ele>
<speed>5.9</speed>
<course>243.1</course>
<desc>Speed 5.9 km/h Distance 5.70 km</desc>
<time>2010-03-03T16:55:04.30</time>
<name>3462</name>
</trkpt>
<trkpt lat="48.931975" lon="8.681832">
<ele>388.5</ele>
<speed>5.9</speed>
<course>241.1</course>
<desc>Speed 5.9 km/h Distance 5.70 km</desc>
<time>2010-03-03T16:55:05.30</time>
<name>3463</name>
</trkpt>
<trkpt lat="48.931968" lon="8.681813">
<ele>388.5</ele>
<speed>5.4</speed>
<course>243.4</course>
<desc>Speed 5.4 km/h Distance 5.70 km</desc>
<time>2010-03-03T16:55:06.30</time>
<name>3464</name>
</trkpt>
<trkpt lat="48.931965" lon="8.681803">
<ele>388.5</ele>
<speed>3.2</speed>
<course>242.6</course>
<desc>Speed 3.2 km/h Distance 5.70 km</desc>
<time>2010-03-03T16:55:07.30</time>
<name>3465</name>
</trkpt>
<trkpt lat="48.931963" lon="8.681798">
<ele>389.0</ele>
<speed>1.5</speed>
<course>270.0</course>
<desc>Speed 1.5 km/h Distance 5.70 km</desc>
<time>2010-03-03T16:55:08.30</time>
<name>3466</name>
</trkpt>
<trkpt lat="48.931963" lon="8.681797">
<ele>388.5</ele>
<speed>0.5</speed>
<course>270.0</course>
<desc>Speed 0.5 km/h Distance 5.70 km</desc>
<time>2010-03-03T16:55:09.30</time>
<name>3467</name>
</trkpt>
<trkpt lat="48.931963" lon="8.681797">
<ele>388.5</ele>
<speed>0.1</speed>
<course>12.6</course>
<desc>Speed 0.1 km/h Distance 5.70 km</desc>
<time>2010-03-03T16:55:10.30</time>
<name>3468</name>
</trkpt>
<trkpt lat="48.931965" lon="8.681797">
<ele>388.5</ele>
<speed>0.3</speed>
<course>12.6</course>
<desc>Speed 0.3 km/h Distance 5.70 km</desc>
<time>2010-03-03T16:55:11.30</time>
<name>3469</name>
</trkpt>
<trkpt lat="48.931965" lon="8.681797">
<ele>388.5</ele>
<speed>0.1</speed>
<course>12.6</course>
<desc>Speed 0.1 km/h Distance 5.70 km</desc>
<time>2010-03-03T16:55:12.30</time>
<name>3470</name>
</trkpt>
<trkpt lat="48.931965" lon="8.681797">
<ele>388.5</ele>
<speed>0.2</speed>
<course>12.6</course>
<desc>Speed 0.2 km/h Distance 5.70 km</desc>
<time>2010-03-03T16:55:13.30</time>
<name>3471</name>
</trkpt>
<trkpt lat="48.931965" lon="8.681797">
<ele>388.5</ele>
<speed>0.1</speed>
<course>12.6</course>
<desc>Speed 0.1 km/h Distance 5.70 km</desc>
<time>2010-03-03T16:55:14.30</time>
<name>3472</name>
</trkpt>
<trkpt lat="48.931965" lon="8.681797">
<ele>388.5</ele>
<speed>0.3</speed>
<course>12.6</course>
<desc>Speed 0.3 km/h Distance 5.70 km</desc>
<time>2010-03-03T16:55:15.30</time>
<name>3473</name>
</trkpt>
<trkpt lat="48.931965" lon="8.681797">
<ele>388.5</ele>
<speed>0.1</speed>
<course>322.8</course>
<desc>Speed 0.1 km/h Distance 5.70 km</desc>
<time>2010-03-03T16:55:16.30</time>
<name>3474</name>
</trkpt>
<trkpt lat="48.931967" lon="8.681795">
<ele>388.5</ele>
<speed>0.1</speed>
<course>322.8</course>
<desc>Speed 0.1 km/h Distance 5.70 km</desc>
<time>2010-03-03T16:55:17.30</time>
<name>3475</name>
</trkpt>
<trkpt lat="48.931967" lon="8.681795">
<ele>388.5</ele>
<speed>0.1</speed>
<course>322.8</course>
<desc>Speed 0.1 km/h Distance 5.70 km</desc>
<time>2010-03-03T16:55:18.30</time>
<name>3476</name>
</trkpt>
<trkpt lat="48.931967" lon="8.681795">
<ele>388.5</ele>
<speed>0.1</speed>
<course>322.8</course>
<desc>Speed 0.1 km/h Distance 5.70 km</desc>
<time>2010-03-03T16:55:19.30</time>
<name>3477</name>
</trkpt>
<trkpt lat="48.931967" lon="8.681795">
<ele>388.5</ele>
<speed>0.3</speed>
<course>322.8</course>
<desc>Speed 0.3 km/h Distance 5.70 km</desc>
<time>2010-03-03T16:55:20.30</time>
<name>3478</name>
</trkpt>
<trkpt lat="48.931967" lon="8.681795">
<ele>388.5</ele>
<speed>0.1</speed>
<course>322.8</course>
<desc>Speed 0.1 km/h Distance 5.70 km</desc>
<time>2010-03-03T16:55:21.30</time>
<name>3479</name>
</trkpt>
<trkpt lat="48.931967" lon="8.681795">
<ele>388.5</ele>
<speed>0.1</speed>
<course>322.8</course>
<desc>Speed 0.1 km/h Distance 5.70 km</desc>
<time>2010-03-03T16:55:22.30</time>
<name>3480</name>
</trkpt>
<trkpt lat="48.931968" lon="8.681793">
<ele>388.5</ele>
<speed>0.2</speed>
<course>322.8</course>
<desc>Speed 0.2 km/h Distance 5.70 km</desc>
<time>2010-03-03T16:55:23.30</time>
<name>3481</name>
</trkpt>
<trkpt lat="48.931968" lon="8.681793">
<ele>388.5</ele>
<speed>0.3</speed>
<course>322.8</course>
<desc>Speed 0.3 km/h Distance 5.70 km</desc>
<time>2010-03-03T16:55:24.30</time>
<name>3482</name>
</trkpt>
<trkpt lat="48.931968" lon="8.681793">
<ele>388.5</ele>
<speed>0.1</speed>
<course>322.8</course>
<desc>Speed 0.1 km/h Distance 5.70 km</desc>
<time>2010-03-03T16:55:25.30</time>
<name>3483</name>
</trkpt>
<trkpt lat="48.931968" lon="8.681793">
<ele>388.5</ele>
<speed>0.3</speed>
<course>322.8</course>
<desc>Speed 0.3 km/h Distance 5.70 km</desc>
<time>2010-03-03T16:55:26.30</time>
<name>3484</name>
</trkpt>
<trkpt lat="48.931968" lon="8.681793">
<ele>388.5</ele>
<speed>0.1</speed>
<course>322.8</course>
<desc>Speed 0.1 km/h Distance 5.70 km</desc>
<time>2010-03-03T16:55:27.30</time>
<name>3485</name>
</trkpt>
<trkpt lat="48.931968" lon="8.681793">
<ele>388.5</ele>
<speed>0.6</speed>
<course>253.3</course>
<desc>Speed 0.6 km/h Distance 5.70 km</desc>
<time>2010-03-03T16:55:28.30</time>
<name>3486</name>
</trkpt>
<trkpt lat="48.931967" lon="8.681785">
<ele>388.5</ele>
<speed>2.3</speed>
<course>232.8</course>
<desc>Speed 2.3 km/h Distance 5.71 km</desc>
<time>2010-03-03T16:55:29.30</time>
<name>3487</name>
</trkpt>
<trkpt lat="48.931962" lon="8.681775">
<ele>388.5</ele>
<speed>3.0</speed>
<course>243.1</course>
<desc>Speed 3.0 km/h Distance 5.71 km</desc>
<time>2010-03-03T16:55:30.30</time>
<name>3488</name>
</trkpt>
<trkpt lat="48.931955" lon="8.681755">
<ele>388.5</ele>
<speed>5.4</speed>
<course>257.7</course>
<desc>Speed 5.4 km/h Distance 5.71 km</desc>
<time>2010-03-03T16:55:31.30</time>
<name>3489</name>
</trkpt>
<trkpt lat="48.931952" lon="8.681732">
<ele>388.5</ele>
<speed>6.2</speed>
<course>256.8</course>
<desc>Speed 6.2 km/h Distance 5.71 km</desc>
<time>2010-03-03T16:55:32.30</time>
<name>3490</name>
</trkpt>
<trkpt lat="48.931948" lon="8.681710">
<ele>388.5</ele>
<speed>6.0</speed>
<course>263.8</course>
<desc>Speed 6.0 km/h Distance 5.71 km</desc>
<time>2010-03-03T16:55:33.30</time>
<name>3491</name>
</trkpt>
<trkpt lat="48.931947" lon="8.681687">
<ele>388.5</ele>
<speed>6.0</speed>
<course>257.7</course>
<desc>Speed 6.0 km/h Distance 5.71 km</desc>
<time>2010-03-03T16:55:34.30</time>
<name>3492</name>
</trkpt>
<trkpt lat="48.931943" lon="8.681663">
<ele>388.5</ele>
<speed>5.9</speed>
<course>251.9</course>
<desc>Speed 5.9 km/h Distance 5.71 km</desc>
<time>2010-03-03T16:55:35.30</time>
<name>3493</name>
</trkpt>
<trkpt lat="48.931938" lon="8.681640">
<ele>388.5</ele>
<speed>6.2</speed>
<course>251.9</course>
<desc>Speed 6.2 km/h Distance 5.72 km</desc>
<time>2010-03-03T16:55:36.30</time>
<name>3494</name>
</trkpt>
<trkpt lat="48.931933" lon="8.681617">
<ele>388.5</ele>
<speed>6.2</speed>
<course>244.9</course>
<desc>Speed 6.2 km/h Distance 5.72 km</desc>
<time>2010-03-03T16:55:37.30</time>
<name>3495</name>
</trkpt>
<trkpt lat="48.931927" lon="8.681595">
<ele>388.5</ele>
<speed>6.0</speed>
<course>244.9</course>
<desc>Speed 6.0 km/h Distance 5.72 km</desc>
<time>2010-03-03T16:55:38.30</time>
<name>3496</name>
</trkpt>
<trkpt lat="48.931920" lon="8.681573">
<ele>388.5</ele>
<speed>6.0</speed>
<course>244.9</course>
<desc>Speed 6.0 km/h Distance 5.72 km</desc>
<time>2010-03-03T16:55:39.30</time>
<name>3497</name>
</trkpt>
<trkpt lat="48.931913" lon="8.681552">
<ele>389.0</ele>
<speed>6.0</speed>
<course>246.5</course>
<desc>Speed 6.0 km/h Distance 5.72 km</desc>
<time>2010-03-03T16:55:40.30</time>
<name>3498</name>
</trkpt>
<trkpt lat="48.931907" lon="8.681528">
<ele>389.0</ele>
<speed>6.2</speed>
<course>252.0</course>
<desc>Speed 6.2 km/h Distance 5.73 km</desc>
<time>2010-03-03T16:55:41.30</time>
<name>3499</name>
</trkpt>
<trkpt lat="48.931902" lon="8.681505">
<ele>389.0</ele>
<speed>6.2</speed>
<course>246.5</course>
<desc>Speed 6.2 km/h Distance 5.73 km</desc>
<time>2010-03-03T16:55:42.30</time>
<name>3500</name>
</trkpt>
<trkpt lat="48.931895" lon="8.681482">
<ele>389.0</ele>
<speed>6.2</speed>
<course>246.5</course>
<desc>Speed 6.2 km/h Distance 5.73 km</desc>
<time>2010-03-03T16:55:43.30</time>
<name>3501</name>
</trkpt>
<trkpt lat="48.931888" lon="8.681458">
<ele>389.0</ele>
<speed>6.5</speed>
<course>250.6</course>
<desc>Speed 6.5 km/h Distance 5.73 km</desc>
<time>2010-03-03T16:55:44.30</time>
<name>3502</name>
</trkpt>
<trkpt lat="48.931883" lon="8.681437">
<ele>389.0</ele>
<speed>6.3</speed>
<course>244.9</course>
<desc>Speed 6.3 km/h Distance 5.73 km</desc>
<time>2010-03-03T16:55:45.30</time>
<name>3503</name>
</trkpt>
<trkpt lat="48.931877" lon="8.681415">
<ele>389.0</ele>
<speed>6.3</speed>
<course>251.9</course>
<desc>Speed 6.3 km/h Distance 5.73 km</desc>
<time>2010-03-03T16:55:46.30</time>
<name>3504</name>
</trkpt>
<trkpt lat="48.931872" lon="8.681392">
<ele>389.0</ele>
<speed>6.3</speed>
<course>244.9</course>
<desc>Speed 6.3 km/h Distance 5.74 km</desc>
<time>2010-03-03T16:55:47.30</time>
<name>3505</name>
</trkpt>
<trkpt lat="48.931865" lon="8.681370">
<ele>389.0</ele>
<speed>6.4</speed>
<course>251.9</course>
<desc>Speed 6.4 km/h Distance 5.74 km</desc>
<time>2010-03-03T16:55:48.30</time>
<name>3506</name>
</trkpt>
<trkpt lat="48.931860" lon="8.681347">
<ele>388.5</ele>
<speed>6.4</speed>
<course>244.9</course>
<desc>Speed 6.4 km/h Distance 5.74 km</desc>
<time>2010-03-03T16:55:49.30</time>
<name>3507</name>
</trkpt>
<trkpt lat="48.931853" lon="8.681325">
<ele>388.5</ele>
<speed>6.4</speed>
<course>244.9</course>
<desc>Speed 6.4 km/h Distance 5.74 km</desc>
<time>2010-03-03T16:55:50.30</time>
<name>3508</name>
</trkpt>
<trkpt lat="48.931847" lon="8.681303">
<ele>388.5</ele>
<speed>6.4</speed>
<course>244.9</course>
<desc>Speed 6.4 km/h Distance 5.74 km</desc>
<time>2010-03-03T16:55:51.30</time>
<name>3509</name>
</trkpt>
<trkpt lat="48.931840" lon="8.681282">
<ele>388.5</ele>
<speed>6.6</speed>
<course>244.9</course>
<desc>Speed 6.6 km/h Distance 5.74 km</desc>
<time>2010-03-03T16:55:52.30</time>
<name>3510</name>
</trkpt>
<trkpt lat="48.931833" lon="8.681260">
<ele>388.5</ele>
<speed>6.6</speed>
<course>246.5</course>
<desc>Speed 6.6 km/h Distance 5.75 km</desc>
<time>2010-03-03T16:55:53.30</time>
<name>3511</name>
</trkpt>
<trkpt lat="48.931827" lon="8.681237">
<ele>388.0</ele>
<speed>6.6</speed>
<course>251.9</course>
<desc>Speed 6.6 km/h Distance 5.75 km</desc>
<time>2010-03-03T16:55:54.30</time>
<name>3512</name>
</trkpt>
<trkpt lat="48.931822" lon="8.681213">
<ele>388.0</ele>
<speed>6.5</speed>
<course>250.6</course>
<desc>Speed 6.5 km/h Distance 5.75 km</desc>
<time>2010-03-03T16:55:55.30</time>
<name>3513</name>
</trkpt>
<trkpt lat="48.931817" lon="8.681192">
<ele>388.5</ele>
<speed>6.3</speed>
<course>246.5</course>
<desc>Speed 6.3 km/h Distance 5.75 km</desc>
<time>2010-03-03T16:55:56.30</time>
<name>3514</name>
</trkpt>
<trkpt lat="48.931810" lon="8.681168">
<ele>388.5</ele>
<speed>6.5</speed>
<course>244.9</course>
<desc>Speed 6.5 km/h Distance 5.75 km</desc>
<time>2010-03-03T16:55:57.30</time>
<name>3515</name>
</trkpt>
<trkpt lat="48.931803" lon="8.681147">
<ele>388.5</ele>
<speed>6.4</speed>
<course>246.5</course>
<desc>Speed 6.4 km/h Distance 5.76 km</desc>
<time>2010-03-03T16:55:58.30</time>
<name>3516</name>
</trkpt>
<trkpt lat="48.931797" lon="8.681123">
<ele>388.5</ele>
<speed>6.4</speed>
<course>246.5</course>
<desc>Speed 6.4 km/h Distance 5.76 km</desc>
<time>2010-03-03T16:55:59.30</time>
<name>3517</name>
</trkpt>
<trkpt lat="48.931790" lon="8.681100">
<ele>388.5</ele>
<speed>6.5</speed>
<course>250.6</course>
<desc>Speed 6.5 km/h Distance 5.76 km</desc>
<time>2010-03-03T16:56:00.30</time>
<name>3518</name>
</trkpt>
<trkpt lat="48.931785" lon="8.681078">
<ele>388.5</ele>
<speed>6.3</speed>
<course>244.9</course>
<desc>Speed 6.3 km/h Distance 5.76 km</desc>
<time>2010-03-03T16:56:01.30</time>
<name>3519</name>
</trkpt>
<trkpt lat="48.931778" lon="8.681057">
<ele>388.5</ele>
<speed>6.3</speed>
<course>251.9</course>
<desc>Speed 6.3 km/h Distance 5.76 km</desc>
<time>2010-03-03T16:56:02.32</time>
<name>3520</name>
</trkpt>
<trkpt lat="48.931773" lon="8.681033">
<ele>388.5</ele>
<speed>6.4</speed>
<course>246.5</course>
<desc>Speed 6.4 km/h Distance 5.76 km</desc>
<time>2010-03-03T16:56:03.32</time>
<name>3521</name>
</trkpt>
<trkpt lat="48.931767" lon="8.681010">
<ele>388.5</ele>
<speed>6.5</speed>
<course>251.9</course>
<desc>Speed 6.5 km/h Distance 5.77 km</desc>
<time>2010-03-03T16:56:04.32</time>
<name>3522</name>
</trkpt>
<trkpt lat="48.931762" lon="8.680987">
<ele>388.5</ele>
<speed>6.7</speed>
<course>246.5</course>
<desc>Speed 6.7 km/h Distance 5.77 km</desc>
<time>2010-03-03T16:56:05.32</time>
<name>3523</name>
</trkpt>
<trkpt lat="48.931755" lon="8.680963">
<ele>388.5</ele>
<speed>6.6</speed>
<course>257.7</course>
<desc>Speed 6.6 km/h Distance 5.77 km</desc>
<time>2010-03-03T16:56:06.32</time>
<name>3524</name>
</trkpt>
<trkpt lat="48.931752" lon="8.680940">
<ele>388.5</ele>
<speed>6.7</speed>
<course>251.9</course>
<desc>Speed 6.7 km/h Distance 5.77 km</desc>
<time>2010-03-03T16:56:07.32</time>
<name>3525</name>
</trkpt>
<trkpt lat="48.931747" lon="8.680917">
<ele>388.5</ele>
<speed>6.7</speed>
<course>246.5</course>
<desc>Speed 6.7 km/h Distance 5.77 km</desc>
<time>2010-03-03T16:56:08.32</time>
<name>3526</name>
</trkpt>
<trkpt lat="48.931740" lon="8.680893">
<ele>388.5</ele>
<speed>6.7</speed>
<course>253.1</course>
<desc>Speed 6.7 km/h Distance 5.78 km</desc>
<time>2010-03-03T16:56:09.32</time>
<name>3527</name>
</trkpt>
<trkpt lat="48.931735" lon="8.680868">
<ele>389.0</ele>
<speed>6.7</speed>
<course>250.6</course>
<desc>Speed 6.7 km/h Distance 5.78 km</desc>
<time>2010-03-03T16:56:10.32</time>
<name>3528</name>
</trkpt>
<trkpt lat="48.931730" lon="8.680847">
<ele>388.5</ele>
<speed>6.6</speed>
<course>246.5</course>
<desc>Speed 6.6 km/h Distance 5.78 km</desc>
<time>2010-03-03T16:56:11.32</time>
<name>3529</name>
</trkpt>
<trkpt lat="48.931723" lon="8.680823">
<ele>388.5</ele>
<speed>6.6</speed>
<course>251.9</course>
<desc>Speed 6.6 km/h Distance 5.78 km</desc>
<time>2010-03-03T16:56:12.32</time>
<name>3530</name>
</trkpt>
<trkpt lat="48.931718" lon="8.680800">
<ele>388.5</ele>
<speed>6.7</speed>
<course>241.5</course>
<desc>Speed 6.7 km/h Distance 5.78 km</desc>
<time>2010-03-03T16:56:13.32</time>
<name>3531</name>
</trkpt>
<trkpt lat="48.931710" lon="8.680777">
<ele>388.5</ele>
<speed>6.8</speed>
<course>251.9</course>
<desc>Speed 6.8 km/h Distance 5.78 km</desc>
<time>2010-03-03T16:56:14.32</time>
<name>3532</name>
</trkpt>
<trkpt lat="48.931705" lon="8.680753">
<ele>388.0</ele>
<speed>6.6</speed>
<course>251.9</course>
<desc>Speed 6.6 km/h Distance 5.79 km</desc>
<time>2010-03-03T16:56:15.32</time>
<name>3533</name>
</trkpt>
<trkpt lat="48.931700" lon="8.680730">
<ele>388.0</ele>
<speed>6.7</speed>
<course>251.9</course>
<desc>Speed 6.7 km/h Distance 5.79 km</desc>
<time>2010-03-03T16:56:16.32</time>
<name>3534</name>
</trkpt>
<trkpt lat="48.931695" lon="8.680707">
<ele>388.0</ele>
<speed>6.7</speed>
<course>246.5</course>
<desc>Speed 6.7 km/h Distance 5.79 km</desc>
<time>2010-03-03T16:56:17.32</time>
<name>3535</name>
</trkpt>
<trkpt lat="48.931688" lon="8.680683">
<ele>388.0</ele>
<speed>6.8</speed>
<course>253.1</course>
<desc>Speed 6.8 km/h Distance 5.79 km</desc>
<time>2010-03-03T16:56:18.32</time>
<name>3536</name>
</trkpt>
<trkpt lat="48.931682" lon="8.680650">
<ele>387.5</ele>
<speed>8.9</speed>
<course>249.9</course>
<desc>Speed 8.9 km/h Distance 5.79 km</desc>
<time>2010-03-03T16:56:19.33</time>
<name>3537</name>
</trkpt>
<trkpt lat="48.931672" lon="8.680608">
<ele>387.5</ele>
<speed>12.1</speed>
<course>251.0</course>
<desc>Speed 12.1 km/h Distance 5.80 km</desc>
<time>2010-03-03T16:56:20.33</time>
<name>3538</name>
</trkpt>
<trkpt lat="48.931660" lon="8.680557">
<ele>387.5</ele>
<speed>14.4</speed>
<course>250.3</course>
<desc>Speed 14.4 km/h Distance 5.80 km</desc>
<time>2010-03-03T16:56:21.33</time>
<name>3539</name>
</trkpt>
<trkpt lat="48.931647" lon="8.680500">
<ele>387.0</ele>
<speed>16.1</speed>
<course>247.6</course>
<desc>Speed 16.1 km/h Distance 5.81 km</desc>
<time>2010-03-03T16:56:22.33</time>
<name>3540</name>
</trkpt>
<trkpt lat="48.931630" lon="8.680438">
<ele>386.5</ele>
<speed>17.5</speed>
<course>250.7</course>
<desc>Speed 17.5 km/h Distance 5.81 km</desc>
<time>2010-03-03T16:56:23.33</time>
<name>3541</name>
</trkpt>
<trkpt lat="48.931615" lon="8.680373">
<ele>386.0</ele>
<speed>18.5</speed>
<course>250.6</course>
<desc>Speed 18.5 km/h Distance 5.82 km</desc>
<time>2010-03-03T16:56:24.33</time>
<name>3542</name>
</trkpt>
<trkpt lat="48.931600" lon="8.680308">
<ele>385.5</ele>
<speed>18.6</speed>
<course>251.1</course>
<desc>Speed 18.6 km/h Distance 5.82 km</desc>
<time>2010-03-03T16:56:25.33</time>
<name>3543</name>
</trkpt>
<trkpt lat="48.931585" lon="8.680242">
<ele>384.5</ele>
<speed>18.6</speed>
<course>249.2</course>
<desc>Speed 18.6 km/h Distance 5.83 km</desc>
<time>2010-03-03T16:56:26.33</time>
<name>3544</name>
</trkpt>
<trkpt lat="48.931568" lon="8.680175">
<ele>384.0</ele>
<speed>18.9</speed>
<course>249.6</course>
<desc>Speed 18.9 km/h Distance 5.83 km</desc>
<time>2010-03-03T16:56:27.33</time>
<name>3545</name>
</trkpt>
<trkpt lat="48.931552" lon="8.680107">
<ele>383.5</ele>
<speed>19.2</speed>
<course>248.7</course>
<desc>Speed 19.2 km/h Distance 5.84 km</desc>
<time>2010-03-03T16:56:28.34</time>
<name>3546</name>
</trkpt>
<trkpt lat="48.931535" lon="8.680042">
<ele>383.0</ele>
<speed>18.2</speed>
<course>250.2</course>
<desc>Speed 18.2 km/h Distance 5.84 km</desc>
<time>2010-03-03T16:56:29.35</time>
<name>3547</name>
</trkpt>
<trkpt lat="48.931520" lon="8.679978">
<ele>382.5</ele>
<speed>17.9</speed>
<course>247.1</course>
<desc>Speed 17.9 km/h Distance 5.85 km</desc>
<time>2010-03-03T16:56:30.35</time>
<name>3548</name>
</trkpt>
<trkpt lat="48.931503" lon="8.679918">
<ele>382.0</ele>
<speed>17.0</speed>
<course>250.8</course>
<desc>Speed 17.0 km/h Distance 5.85 km</desc>
<time>2010-03-03T16:56:31.35</time>
<name>3549</name>
</trkpt>
<trkpt lat="48.931490" lon="8.679860">
<ele>381.5</ele>
<speed>16.5</speed>
<course>249.2</course>
<desc>Speed 16.5 km/h Distance 5.86 km</desc>
<time>2010-03-03T16:56:32.35</time>
<name>3550</name>
</trkpt>
<trkpt lat="48.931475" lon="8.679800">
<ele>381.0</ele>
<speed>16.6</speed>
<course>249.8</course>
<desc>Speed 16.6 km/h Distance 5.86 km</desc>
<time>2010-03-03T16:56:33.35</time>
<name>3551</name>
</trkpt>
<trkpt lat="48.931462" lon="8.679745">
<ele>380.5</ele>
<speed>15.1</speed>
<course>251.3</course>
<desc>Speed 15.1 km/h Distance 5.86 km</desc>
<time>2010-03-03T16:56:34.35</time>
<name>3552</name>
</trkpt>
<trkpt lat="48.931452" lon="8.679700">
<ele>380.0</ele>
<speed>13.0</speed>
<course>253.1</course>
<desc>Speed 13.0 km/h Distance 5.87 km</desc>
<time>2010-03-03T16:56:35.35</time>
<name>3553</name>
</trkpt>
<trkpt lat="48.931443" lon="8.679658">
<ele>379.5</ele>
<speed>11.2</speed>
<course>247.1</course>
<desc>Speed 11.2 km/h Distance 5.87 km</desc>
<time>2010-03-03T16:56:36.35</time>
<name>3554</name>
</trkpt>
<trkpt lat="48.931435" lon="8.679628">
<ele>379.5</ele>
<speed>8.4</speed>
<course>243.1</course>
<desc>Speed 8.4 km/h Distance 5.87 km</desc>
<time>2010-03-03T16:56:37.35</time>
<name>3555</name>
</trkpt>
<trkpt lat="48.931428" lon="8.679608">
<ele>379.5</ele>
<speed>5.7</speed>
<course>254.5</course>
<desc>Speed 5.7 km/h Distance 5.88 km</desc>
<time>2010-03-03T16:56:38.35</time>
<name>3556</name>
</trkpt>
<trkpt lat="48.931425" lon="8.679590">
<ele>379.5</ele>
<speed>4.8</speed>
<course>257.7</course>
<desc>Speed 4.8 km/h Distance 5.88 km</desc>
<time>2010-03-03T16:56:39.35</time>
<name>3557</name>
</trkpt>
<trkpt lat="48.931423" lon="8.679578">
<ele>379.5</ele>
<speed>3.2</speed>
<course>242.6</course>
<desc>Speed 3.2 km/h Distance 5.88 km</desc>
<time>2010-03-03T16:56:40.35</time>
<name>3558</name>
</trkpt>
<trkpt lat="48.931422" lon="8.679573">
<ele>379.5</ele>
<speed>1.8</speed>
<course>231.9</course>
<desc>Speed 1.8 km/h Distance 5.88 km</desc>
<time>2010-03-03T16:56:41.35</time>
<name>3559</name>
</trkpt>
<trkpt lat="48.931420" lon="8.679570">
<ele>379.5</ele>
<speed>0.8</speed>
<course>12.6</course>
<desc>Speed 0.8 km/h Distance 5.88 km</desc>
<time>2010-03-03T16:56:42.35</time>
<name>3560</name>
</trkpt>
<trkpt lat="48.931422" lon="8.679570">
<ele>379.5</ele>
<speed>0.3</speed>
<course>12.6</course>
<desc>Speed 0.3 km/h Distance 5.88 km</desc>
<time>2010-03-03T16:56:43.35</time>
<name>3561</name>
</trkpt>
<trkpt lat="48.931422" lon="8.679570">
<ele>379.5</ele>
<speed>0.4</speed>
<course>255.8</course>
<desc>Speed 0.4 km/h Distance 5.88 km</desc>
<time>2010-03-03T16:56:44.35</time>
<name>3562</name>
</trkpt>
<trkpt lat="48.931420" lon="8.679560">
<ele>379.0</ele>
<speed>2.3</speed>
<course>255.8</course>
<desc>Speed 2.3 km/h Distance 5.88 km</desc>
<time>2010-03-03T16:56:45.35</time>
<name>3563</name>
</trkpt>
<trkpt lat="48.931420" lon="8.679560">
<ele>379.0</ele>
<speed>0.5</speed>
<course>255.8</course>
<desc>Speed 0.5 km/h Distance 5.88 km</desc>
<time>2010-03-03T16:56:46.35</time>
<name>3564</name>
</trkpt>
<trkpt lat="48.931420" lon="8.679560">
<ele>379.0</ele>
<speed>0.5</speed>
<course>255.8</course>
<desc>Speed 0.5 km/h Distance 5.88 km</desc>
<time>2010-03-03T16:56:47.35</time>
<name>3565</name>
</trkpt>
<trkpt lat="48.931420" lon="8.679560">
<ele>379.0</ele>
<speed>0.5</speed>
<course>255.8</course>
<desc>Speed 0.5 km/h Distance 5.88 km</desc>
<time>2010-03-03T16:56:48.35</time>
<name>3566</name>
</trkpt>
<trkpt lat="48.931420" lon="8.679560">
<ele>379.0</ele>
<speed>0.2</speed>
<course>255.8</course>
<desc>Speed 0.2 km/h Distance 5.88 km</desc>
<time>2010-03-03T16:56:49.35</time>
<name>3567</name>
</trkpt>
<trkpt lat="48.931420" lon="8.679560">
<ele>379.0</ele>
<speed>0.1</speed>
<course>213.7</course>
<desc>Speed 0.1 km/h Distance 5.88 km</desc>
<time>2010-03-03T16:56:50.35</time>
<name>3568</name>
</trkpt>
<trkpt lat="48.931417" lon="8.679557">
<ele>379.5</ele>
<speed>1.3</speed>
<course>231.9</course>
<desc>Speed 1.3 km/h Distance 5.88 km</desc>
<time>2010-03-03T16:56:51.35</time>
<name>3569</name>
</trkpt>
<trkpt lat="48.931415" lon="8.679553">
<ele>380.0</ele>
<speed>1.0</speed>
<course>231.9</course>
<desc>Speed 1.0 km/h Distance 5.88 km</desc>
<time>2010-03-03T16:56:52.35</time>
<name>3570</name>
</trkpt>
<trkpt lat="48.931415" lon="8.679553">
<ele>380.0</ele>
<speed>0.7</speed>
<course>217.2</course>
<desc>Speed 0.7 km/h Distance 5.88 km</desc>
<time>2010-03-03T16:56:53.35</time>
<name>3571</name>
</trkpt>
<trkpt lat="48.931413" lon="8.679552">
<ele>380.0</ele>
<speed>1.0</speed>
<course>231.9</course>
<desc>Speed 1.0 km/h Distance 5.88 km</desc>
<time>2010-03-03T16:56:54.35</time>
<name>3572</name>
</trkpt>
<trkpt lat="48.931412" lon="8.679548">
<ele>380.5</ele>
<speed>0.8</speed>
<course>270.0</course>
<desc>Speed 0.8 km/h Distance 5.88 km</desc>
<time>2010-03-03T16:56:55.35</time>
<name>3573</name>
</trkpt>
<trkpt lat="48.931412" lon="8.679547">
<ele>380.5</ele>
<speed>0.8</speed>
<course>235.9</course>
<desc>Speed 0.8 km/h Distance 5.88 km</desc>
<time>2010-03-03T16:56:56.35</time>
<name>3574</name>
</trkpt>
<trkpt lat="48.931405" lon="8.679532">
<ele>382.0</ele>
<speed>3.9</speed>
<course>249.2</course>
<desc>Speed 3.9 km/h Distance 5.88 km</desc>
<time>2010-03-03T16:56:57.35</time>
<name>3575</name>
</trkpt>
<trkpt lat="48.931400" lon="8.679512">
<ele>382.0</ele>
<speed>5.6</speed>
<course>247.9</course>
<desc>Speed 5.6 km/h Distance 5.88 km</desc>
<time>2010-03-03T16:56:58.35</time>
<name>3576</name>
</trkpt>
<trkpt lat="48.931393" lon="8.679487">
<ele>382.0</ele>
<speed>5.8</speed>
<course>253.1</course>
<desc>Speed 5.8 km/h Distance 5.89 km</desc>
<time>2010-03-03T16:56:59.35</time>
<name>3577</name>
</trkpt>
<trkpt lat="48.931388" lon="8.679462">
<ele>382.0</ele>
<speed>6.5</speed>
<course>254.1</course>
<desc>Speed 6.5 km/h Distance 5.89 km</desc>
<time>2010-03-03T16:57:00.35</time>
<name>3578</name>
</trkpt>
<trkpt lat="48.931383" lon="8.679435">
<ele>381.5</ele>
<speed>6.6</speed>
<course>246.5</course>
<desc>Speed 6.6 km/h Distance 5.89 km</desc>
<time>2010-03-03T16:57:01.35</time>
<name>3579</name>
</trkpt>
<trkpt lat="48.931377" lon="8.679412">
<ele>381.5</ele>
<speed>6.6</speed>
<course>249.1</course>
<desc>Speed 6.6 km/h Distance 5.89 km</desc>
<time>2010-03-03T16:57:02.35</time>
<name>3580</name>
</trkpt>
<trkpt lat="48.931370" lon="8.679385">
<ele>381.5</ele>
<speed>6.7</speed>
<course>246.5</course>
<desc>Speed 6.7 km/h Distance 5.89 km</desc>
<time>2010-03-03T16:57:03.35</time>
<name>3581</name>
</trkpt>
<trkpt lat="48.931363" lon="8.679362">
<ele>381.5</ele>
<speed>6.4</speed>
<course>244.9</course>
<desc>Speed 6.4 km/h Distance 5.90 km</desc>
<time>2010-03-03T16:57:04.35</time>
<name>3582</name>
</trkpt>
<trkpt lat="48.931357" lon="8.679340">
<ele>381.5</ele>
<speed>6.4</speed>
<course>251.9</course>
<desc>Speed 6.4 km/h Distance 5.90 km</desc>
<time>2010-03-03T16:57:05.35</time>
<name>3583</name>
</trkpt>
<trkpt lat="48.931352" lon="8.679317">
<ele>381.0</ele>
<speed>6.6</speed>
<course>244.9</course>
<desc>Speed 6.6 km/h Distance 5.90 km</desc>
<time>2010-03-03T16:57:06.35</time>
<name>3584</name>
</trkpt>
<trkpt lat="48.931345" lon="8.679295">
<ele>380.5</ele>
<speed>6.2</speed>
<course>250.6</course>
<desc>Speed 6.2 km/h Distance 5.90 km</desc>
<time>2010-03-03T16:57:07.35</time>
<name>3585</name>
</trkpt>
<trkpt lat="48.931340" lon="8.679273">
<ele>380.0</ele>
<speed>6.6</speed>
<course>250.6</course>
<desc>Speed 6.6 km/h Distance 5.90 km</desc>
<time>2010-03-03T16:57:08.35</time>
<name>3586</name>
</trkpt>
<trkpt lat="48.931335" lon="8.679252">
<ele>379.5</ele>
<speed>6.4</speed>
<course>244.9</course>
<desc>Speed 6.4 km/h Distance 5.90 km</desc>
<time>2010-03-03T16:57:09.35</time>
<name>3587</name>
</trkpt>
<trkpt lat="48.931328" lon="8.679230">
<ele>379.0</ele>
<speed>6.7</speed>
<course>249.1</course>
<desc>Speed 6.7 km/h Distance 5.91 km</desc>
<time>2010-03-03T16:57:10.35</time>
<name>3588</name>
</trkpt>
<trkpt lat="48.931323" lon="8.679210">
<ele>379.0</ele>
<speed>6.4</speed>
<course>250.6</course>
<desc>Speed 6.4 km/h Distance 5.91 km</desc>
<time>2010-03-03T16:57:11.35</time>
<name>3589</name>
</trkpt>
<trkpt lat="48.931318" lon="8.679188">
<ele>378.5</ele>
<speed>6.3</speed>
<course>249.1</course>
<desc>Speed 6.3 km/h Distance 5.91 km</desc>
<time>2010-03-03T16:57:12.35</time>
<name>3590</name>
</trkpt>
<trkpt lat="48.931313" lon="8.679168">
<ele>378.0</ele>
<speed>5.9</speed>
<course>257.7</course>
<desc>Speed 5.9 km/h Distance 5.91 km</desc>
<time>2010-03-03T16:57:13.35</time>
<name>3591</name>
</trkpt>
<trkpt lat="48.931310" lon="8.679145">
<ele>378.0</ele>
<speed>6.1</speed>
<course>263.3</course>
<desc>Speed 6.1 km/h Distance 5.91 km</desc>
<time>2010-03-03T16:57:14.35</time>
<name>3592</name>
</trkpt>
<trkpt lat="48.931308" lon="8.679123">
<ele>377.5</ele>
<speed>6.3</speed>
<course>244.9</course>
<desc>Speed 6.3 km/h Distance 5.91 km</desc>
<time>2010-03-03T16:57:15.35</time>
<name>3593</name>
</trkpt>
<trkpt lat="48.931302" lon="8.679102">
<ele>377.0</ele>
<speed>6.3</speed>
<course>246.5</course>
<desc>Speed 6.3 km/h Distance 5.92 km</desc>
<time>2010-03-03T16:57:16.35</time>
<name>3594</name>
</trkpt>
<trkpt lat="48.931295" lon="8.679078">
<ele>376.5</ele>
<speed>6.8</speed>
<course>256.8</course>
<desc>Speed 6.8 km/h Distance 5.92 km</desc>
<time>2010-03-03T16:57:17.35</time>
<name>3595</name>
</trkpt>
<trkpt lat="48.931292" lon="8.679057">
<ele>376.0</ele>
<speed>6.2</speed>
<course>247.4</course>
<desc>Speed 6.2 km/h Distance 5.92 km</desc>
<time>2010-03-03T16:57:18.35</time>
<name>3596</name>
</trkpt>
<trkpt lat="48.931287" lon="8.679038">
<ele>376.0</ele>
<speed>5.8</speed>
<course>249.2</course>
<desc>Speed 5.8 km/h Distance 5.92 km</desc>
<time>2010-03-03T16:57:19.35</time>
<name>3597</name>
</trkpt>
<trkpt lat="48.931282" lon="8.679018">
<ele>375.5</ele>
<speed>5.7</speed>
<course>262.8</course>
<desc>Speed 5.7 km/h Distance 5.92 km</desc>
<time>2010-03-03T16:57:20.35</time>
<name>3598</name>
</trkpt>
<trkpt lat="48.931280" lon="8.678998">
<ele>375.5</ele>
<speed>5.7</speed>
<course>270.0</course>
<desc>Speed 5.7 km/h Distance 5.92 km</desc>
<time>2010-03-03T16:57:21.35</time>
<name>3599</name>
</trkpt>
<trkpt lat="48.931280" lon="8.678975">
<ele>375.0</ele>
<speed>6.1</speed>
<course>289.3</course>
<desc>Speed 6.1 km/h Distance 5.93 km</desc>
<time>2010-03-03T16:57:22.35</time>
<name>3600</name>
</trkpt>
<trkpt lat="48.931285" lon="8.678953">
<ele>374.5</ele>
<speed>6.0</speed>
<course>302.4</course>
<desc>Speed 6.0 km/h Distance 5.93 km</desc>
<time>2010-03-03T16:57:23.35</time>
<name>3601</name>
</trkpt>
<trkpt lat="48.931293" lon="8.678933">
<ele>374.5</ele>
<speed>5.8</speed>
<course>315.5</course>
<desc>Speed 5.8 km/h Distance 5.93 km</desc>
<time>2010-03-03T16:57:24.35</time>
<name>3602</name>
</trkpt>
<trkpt lat="48.931303" lon="8.678918">
<ele>374.0</ele>
<speed>5.4</speed>
<course>315.5</course>
<desc>Speed 5.4 km/h Distance 5.93 km</desc>
<time>2010-03-03T16:57:25.35</time>
<name>3603</name>
</trkpt>
<trkpt lat="48.931313" lon="8.678903">
<ele>373.5</ele>
<speed>5.6</speed>
<course>330.2</course>
<desc>Speed 5.6 km/h Distance 5.93 km</desc>
<time>2010-03-03T16:57:26.35</time>
<name>3604</name>
</trkpt>
<trkpt lat="48.931327" lon="8.678892">
<ele>373.5</ele>
<speed>5.7</speed>
<course>323.1</course>
<desc>Speed 5.7 km/h Distance 5.93 km</desc>
<time>2010-03-03T16:57:27.35</time>
<name>3605</name>
</trkpt>
<trkpt lat="48.931338" lon="8.678878">
<ele>373.5</ele>
<speed>5.8</speed>
<course>333.0</course>
<desc>Speed 5.8 km/h Distance 5.94 km</desc>
<time>2010-03-03T16:57:28.35</time>
<name>3606</name>
</trkpt>
<trkpt lat="48.931353" lon="8.678867">
<ele>373.5</ele>
<speed>6.2</speed>
<course>333.8</course>
<desc>Speed 6.2 km/h Distance 5.94 km</desc>
<time>2010-03-03T16:57:29.36</time>
<name>3607</name>
</trkpt>
<trkpt lat="48.931367" lon="8.678857">
<ele>373.0</ele>
<speed>6.1</speed>
<course>336.7</course>
<desc>Speed 6.1 km/h Distance 5.94 km</desc>
<time>2010-03-03T16:57:30.36</time>
<name>3608</name>
</trkpt>
<trkpt lat="48.931382" lon="8.678847">
<ele>373.0</ele>
<speed>6.2</speed>
<course>333.1</course>
<desc>Speed 6.2 km/h Distance 5.94 km</desc>
<time>2010-03-03T16:57:31.36</time>
<name>3609</name>
</trkpt>
<trkpt lat="48.931397" lon="8.678835">
<ele>373.5</ele>
<speed>6.0</speed>
<course>334.0</course>
<desc>Speed 6.0 km/h Distance 5.94 km</desc>
<time>2010-03-03T16:57:32.45</time>
<name>3610</name>
</trkpt>
<trkpt lat="48.931410" lon="8.678825">
<ele>373.5</ele>
<speed>6.0</speed>
<course>333.0</course>
<desc>Speed 6.0 km/h Distance 5.94 km</desc>
<time>2010-03-03T16:57:33.40</time>
<name>3611</name>
</trkpt>
<trkpt lat="48.931425" lon="8.678813">
<ele>373.5</ele>
<speed>6.0</speed>
<course>330.2</course>
<desc>Speed 6.0 km/h Distance 5.95 km</desc>
<time>2010-03-03T16:57:34.40</time>
<name>3612</name>
</trkpt>
<trkpt lat="48.931438" lon="8.678802">
<ele>373.0</ele>
<speed>6.1</speed>
<course>326.6</course>
<desc>Speed 6.1 km/h Distance 5.95 km</desc>
<time>2010-03-03T16:57:35.40</time>
<name>3613</name>
</trkpt>
<trkpt lat="48.931452" lon="8.678788">
<ele>373.0</ele>
<speed>6.3</speed>
<course>332.8</course>
<desc>Speed 6.3 km/h Distance 5.95 km</desc>
<time>2010-03-03T16:57:36.40</time>
<name>3614</name>
</trkpt>
<trkpt lat="48.931467" lon="8.678777">
<ele>373.0</ele>
<speed>6.2</speed>
<course>333.8</course>
<desc>Speed 6.2 km/h Distance 5.95 km</desc>
<time>2010-03-03T16:57:37.40</time>
<name>3615</name>
</trkpt>
<trkpt lat="48.931480" lon="8.678767">
<ele>372.5</ele>
<speed>6.0</speed>
<course>336.3</course>
<desc>Speed 6.0 km/h Distance 5.95 km</desc>
<time>2010-03-03T16:57:38.40</time>
<name>3616</name>
</trkpt>
<trkpt lat="48.931495" lon="8.678757">
<ele>372.5</ele>
<speed>6.2</speed>
<course>326.6</course>
<desc>Speed 6.2 km/h Distance 5.95 km</desc>
<time>2010-03-03T16:57:39.40</time>
<name>3617</name>
</trkpt>
<trkpt lat="48.931508" lon="8.678743">
<ele>372.5</ele>
<speed>6.1</speed>
<course>330.2</course>
<desc>Speed 6.1 km/h Distance 5.96 km</desc>
<time>2010-03-03T16:57:40.40</time>
<name>3618</name>
</trkpt>
<trkpt lat="48.931522" lon="8.678732">
<ele>372.5</ele>
<speed>5.8</speed>
<course>334.0</course>
<desc>Speed 5.8 km/h Distance 5.96 km</desc>
<time>2010-03-03T16:57:41.40</time>
<name>3619</name>
</trkpt>
<trkpt lat="48.931535" lon="8.678722">
<ele>372.5</ele>
<speed>5.8</speed>
<course>344.0</course>
<desc>Speed 5.8 km/h Distance 5.96 km</desc>
<time>2010-03-03T16:57:42.40</time>
<name>3620</name>
</trkpt>
<trkpt lat="48.931550" lon="8.678715">
<ele>372.5</ele>
<speed>5.9</speed>
<course>340.1</course>
<desc>Speed 5.9 km/h Distance 5.96 km</desc>
<time>2010-03-03T16:57:43.40</time>
<name>3621</name>
</trkpt>
<trkpt lat="48.931565" lon="8.678707">
<ele>372.5</ele>
<speed>6.0</speed>
<course>337.9</course>
<desc>Speed 6.0 km/h Distance 5.96 km</desc>
<time>2010-03-03T16:57:44.40</time>
<name>3622</name>
</trkpt>
<trkpt lat="48.931578" lon="8.678698">
<ele>372.5</ele>
<speed>5.9</speed>
<course>339.9</course>
<desc>Speed 5.9 km/h Distance 5.97 km</desc>
<time>2010-03-03T16:57:45.40</time>
<name>3623</name>
</trkpt>
<trkpt lat="48.931593" lon="8.678690">
<ele>373.0</ele>
<speed>5.9</speed>
<course>333.6</course>
<desc>Speed 5.9 km/h Distance 5.97 km</desc>
<time>2010-03-03T16:57:46.40</time>
<name>3624</name>
</trkpt>
<trkpt lat="48.931607" lon="8.678680">
<ele>373.0</ele>
<speed>5.9</speed>
<course>343.7</course>
<desc>Speed 5.9 km/h Distance 5.97 km</desc>
<time>2010-03-03T16:57:47.40</time>
<name>3625</name>
</trkpt>
<trkpt lat="48.931622" lon="8.678673">
<ele>372.5</ele>
<speed>6.0</speed>
<course>339.9</course>
<desc>Speed 6.0 km/h Distance 5.97 km</desc>
<time>2010-03-03T16:57:48.40</time>
<name>3626</name>
</trkpt>
<trkpt lat="48.931637" lon="8.678665">
<ele>373.0</ele>
<speed>5.9</speed>
<course>337.4</course>
<desc>Speed 5.9 km/h Distance 5.97 km</desc>
<time>2010-03-03T16:57:49.41</time>
<name>3627</name>
</trkpt>
<trkpt lat="48.931650" lon="8.678657">
<ele>373.0</ele>
<speed>6.1</speed>
<course>336.3</course>
<desc>Speed 6.1 km/h Distance 5.97 km</desc>
<time>2010-03-03T16:57:50.41</time>
<name>3628</name>
</trkpt>
<trkpt lat="48.931665" lon="8.678647">
<ele>372.5</ele>
<speed>6.2</speed>
<course>339.9</course>
<desc>Speed 6.2 km/h Distance 5.98 km</desc>
<time>2010-03-03T16:57:51.41</time>
<name>3629</name>
</trkpt>
<trkpt lat="48.931680" lon="8.678638">
<ele>372.5</ele>
<speed>5.9</speed>
<course>337.4</course>
<desc>Speed 5.9 km/h Distance 5.98 km</desc>
<time>2010-03-03T16:57:52.41</time>
<name>3630</name>
</trkpt>
<trkpt lat="48.931693" lon="8.678630">
<ele>372.0</ele>
<speed>5.6</speed>
<course>333.0</course>
<desc>Speed 5.6 km/h Distance 5.98 km</desc>
<time>2010-03-03T16:57:53.41</time>
<name>3631</name>
</trkpt>
<trkpt lat="48.931708" lon="8.678618">
<ele>371.5</ele>
<speed>6.1</speed>
<course>330.2</course>
<desc>Speed 6.1 km/h Distance 5.98 km</desc>
<time>2010-03-03T16:57:54.41</time>
<name>3632</name>
</trkpt>
<trkpt lat="48.931722" lon="8.678607">
<ele>372.0</ele>
<speed>6.0</speed>
<course>330.2</course>
<desc>Speed 6.0 km/h Distance 5.98 km</desc>
<time>2010-03-03T16:57:55.41</time>
<name>3633</name>
</trkpt>
<trkpt lat="48.931735" lon="8.678595">
<ele>372.0</ele>
<speed>6.2</speed>
<course>336.3</course>
<desc>Speed 6.2 km/h Distance 5.98 km</desc>
<time>2010-03-03T16:57:56.41</time>
<name>3634</name>
</trkpt>
<trkpt lat="48.931750" lon="8.678585">
<ele>372.0</ele>
<speed>6.0</speed>
<course>330.2</course>
<desc>Speed 6.0 km/h Distance 5.99 km</desc>
<time>2010-03-03T16:57:57.41</time>
<name>3635</name>
</trkpt>
<trkpt lat="48.931763" lon="8.678573">
<ele>371.5</ele>
<speed>6.1</speed>
<course>336.3</course>
<desc>Speed 6.1 km/h Distance 5.99 km</desc>
<time>2010-03-03T16:57:58.41</time>
<name>3636</name>
</trkpt>
<trkpt lat="48.931778" lon="8.678563">
<ele>371.5</ele>
<speed>6.1</speed>
<course>330.2</course>
<desc>Speed 6.1 km/h Distance 5.99 km</desc>
<time>2010-03-03T16:57:59.43</time>
<name>3637</name>
</trkpt>
<trkpt lat="48.931792" lon="8.678552">
<ele>371.5</ele>
<speed>6.0</speed>
<course>336.3</course>
<desc>Speed 6.0 km/h Distance 5.99 km</desc>
<time>2010-03-03T16:58:00.43</time>
<name>3638</name>
</trkpt>
<trkpt lat="48.931807" lon="8.678542">
<ele>371.0</ele>
<speed>6.1</speed>
<course>330.2</course>
<desc>Speed 6.1 km/h Distance 5.99 km</desc>
<time>2010-03-03T16:58:01.43</time>
<name>3639</name>
</trkpt>
<trkpt lat="48.931820" lon="8.678530">
<ele>371.0</ele>
<speed>6.2</speed>
<course>330.2</course>
<desc>Speed 6.2 km/h Distance 5.99 km</desc>
<time>2010-03-03T16:58:02.43</time>
<name>3640</name>
</trkpt>
<trkpt lat="48.931833" lon="8.678518">
<ele>371.5</ele>
<speed>6.1</speed>
<course>336.3</course>
<desc>Speed 6.1 km/h Distance 6.00 km</desc>
<time>2010-03-03T16:58:03.43</time>
<name>3641</name>
</trkpt>
<trkpt lat="48.931848" lon="8.678508">
<ele>371.5</ele>
<speed>6.2</speed>
<course>333.6</course>
<desc>Speed 6.2 km/h Distance 6.00 km</desc>
<time>2010-03-03T16:58:04.43</time>
<name>3642</name>
</trkpt>
<trkpt lat="48.931862" lon="8.678498">
<ele>371.5</ele>
<speed>6.0</speed>
<course>333.8</course>
<desc>Speed 6.0 km/h Distance 6.00 km</desc>
<time>2010-03-03T16:58:05.43</time>
<name>3643</name>
</trkpt>
<trkpt lat="48.931875" lon="8.678488">
<ele>371.5</ele>
<speed>5.9</speed>
<course>336.3</course>
<desc>Speed 5.9 km/h Distance 6.00 km</desc>
<time>2010-03-03T16:58:06.43</time>
<name>3644</name>
</trkpt>
<trkpt lat="48.931890" lon="8.678478">
<ele>371.5</ele>
<speed>6.1</speed>
<course>326.6</course>
<desc>Speed 6.1 km/h Distance 6.00 km</desc>
<time>2010-03-03T16:58:07.43</time>
<name>3645</name>
</trkpt>
<trkpt lat="48.931903" lon="8.678465">
<ele>371.5</ele>
<speed>6.4</speed>
<course>336.3</course>
<desc>Speed 6.4 km/h Distance 6.01 km</desc>
<time>2010-03-03T16:58:08.43</time>
<name>3646</name>
</trkpt>
<trkpt lat="48.931918" lon="8.678455">
<ele>371.0</ele>
<speed>6.5</speed>
<course>338.5</course>
<desc>Speed 6.5 km/h Distance 6.01 km</desc>
<time>2010-03-03T16:58:09.43</time>
<name>3647</name>
</trkpt>
<trkpt lat="48.931935" lon="8.678445">
<ele>371.0</ele>
<speed>6.3</speed>
<course>333.8</course>
<desc>Speed 6.3 km/h Distance 6.01 km</desc>
<time>2010-03-03T16:58:10.43</time>
<name>3648</name>
</trkpt>
<trkpt lat="48.931948" lon="8.678435">
<ele>371.0</ele>
<speed>6.0</speed>
<course>330.2</course>
<desc>Speed 6.0 km/h Distance 6.01 km</desc>
<time>2010-03-03T16:58:11.43</time>
<name>3649</name>
</trkpt>
<trkpt lat="48.931962" lon="8.678423">
<ele>371.5</ele>
<speed>6.3</speed>
<course>336.3</course>
<desc>Speed 6.3 km/h Distance 6.01 km</desc>
<time>2010-03-03T16:58:12.43</time>
<name>3650</name>
</trkpt>
<trkpt lat="48.931977" lon="8.678413">
<ele>371.5</ele>
<speed>6.2</speed>
<course>330.2</course>
<desc>Speed 6.2 km/h Distance 6.01 km</desc>
<time>2010-03-03T16:58:13.43</time>
<name>3651</name>
</trkpt>
<trkpt lat="48.931990" lon="8.678402">
<ele>371.5</ele>
<speed>6.1</speed>
<course>332.8</course>
<desc>Speed 6.1 km/h Distance 6.02 km</desc>
<time>2010-03-03T16:58:14.43</time>
<name>3652</name>
</trkpt>
<trkpt lat="48.932005" lon="8.678390">
<ele>371.5</ele>
<speed>6.3</speed>
<course>319.8</course>
<desc>Speed 6.3 km/h Distance 6.02 km</desc>
<time>2010-03-03T16:58:15.43</time>
<name>3653</name>
</trkpt>
<trkpt lat="48.932017" lon="8.678375">
<ele>372.0</ele>
<speed>5.7</speed>
<course>343.4</course>
<desc>Speed 5.7 km/h Distance 6.02 km</desc>
<time>2010-03-03T16:58:16.43</time>
<name>3654</name>
</trkpt>
<trkpt lat="48.932032" lon="8.678368">
<ele>371.5</ele>
<speed>6.1</speed>
<course>326.6</course>
<desc>Speed 6.1 km/h Distance 6.02 km</desc>
<time>2010-03-03T16:58:17.43</time>
<name>3655</name>
</trkpt>
<trkpt lat="48.932043" lon="8.678357">
<ele>371.5</ele>
<speed>5.8</speed>
<course>339.9</course>
<desc>Speed 5.8 km/h Distance 6.02 km</desc>
<time>2010-03-03T16:58:18.43</time>
<name>3656</name>
</trkpt>
<trkpt lat="48.932058" lon="8.678348">
<ele>371.5</ele>
<speed>5.8</speed>
<course>341.2</course>
<desc>Speed 5.8 km/h Distance 6.02 km</desc>
<time>2010-03-03T16:58:19.43</time>
<name>3657</name>
</trkpt>
<trkpt lat="48.932072" lon="8.678342">
<ele>371.5</ele>
<speed>6.0</speed>
<course>343.4</course>
<desc>Speed 6.0 km/h Distance 6.03 km</desc>
<time>2010-03-03T16:58:20.43</time>
<name>3658</name>
</trkpt>
<trkpt lat="48.932087" lon="8.678335">
<ele>371.5</ele>
<speed>6.1</speed>
<course>336.3</course>
<desc>Speed 6.1 km/h Distance 6.03 km</desc>
<time>2010-03-03T16:58:21.43</time>
<name>3659</name>
</trkpt>
<trkpt lat="48.932102" lon="8.678325">
<ele>371.5</ele>
<speed>6.1</speed>
<course>330.2</course>
<desc>Speed 6.1 km/h Distance 6.03 km</desc>
<time>2010-03-03T16:58:22.43</time>
<name>3660</name>
</trkpt>
<trkpt lat="48.932115" lon="8.678313">
<ele>372.0</ele>
<speed>6.2</speed>
<course>334.0</course>
<desc>Speed 6.2 km/h Distance 6.03 km</desc>
<time>2010-03-03T16:58:23.43</time>
<name>3661</name>
</trkpt>
<trkpt lat="48.932128" lon="8.678303">
<ele>372.0</ele>
<speed>5.9</speed>
<course>340.1</course>
<desc>Speed 5.9 km/h Distance 6.03 km</desc>
<time>2010-03-03T16:58:24.43</time>
<name>3662</name>
</trkpt>
<trkpt lat="48.932143" lon="8.678295">
<ele>372.0</ele>
<speed>6.0</speed>
<course>336.3</course>
<desc>Speed 6.0 km/h Distance 6.03 km</desc>
<time>2010-03-03T16:58:25.43</time>
<name>3663</name>
</trkpt>
<trkpt lat="48.932158" lon="8.678285">
<ele>372.0</ele>
<speed>6.2</speed>
<course>339.9</course>
<desc>Speed 6.2 km/h Distance 6.04 km</desc>
<time>2010-03-03T16:58:26.43</time>
<name>3664</name>
</trkpt>
<trkpt lat="48.932173" lon="8.678277">
<ele>372.0</ele>
<speed>6.2</speed>
<course>333.6</course>
<desc>Speed 6.2 km/h Distance 6.04 km</desc>
<time>2010-03-03T16:58:27.43</time>
<name>3665</name>
</trkpt>
<trkpt lat="48.932187" lon="8.678267">
<ele>372.0</ele>
<speed>6.3</speed>
<course>332.8</course>
<desc>Speed 6.3 km/h Distance 6.04 km</desc>
<time>2010-03-03T16:58:28.43</time>
<name>3666</name>
</trkpt>
<trkpt lat="48.932202" lon="8.678255">
<ele>372.5</ele>
<speed>6.3</speed>
<course>339.9</course>
<desc>Speed 6.3 km/h Distance 6.04 km</desc>
<time>2010-03-03T16:58:29.43</time>
<name>3667</name>
</trkpt>
<trkpt lat="48.932217" lon="8.678247">
<ele>372.0</ele>
<speed>6.3</speed>
<course>339.9</course>
<desc>Speed 6.3 km/h Distance 6.04 km</desc>
<time>2010-03-03T16:58:30.43</time>
<name>3668</name>
</trkpt>
<trkpt lat="48.932232" lon="8.678238">
<ele>372.5</ele>
<speed>6.4</speed>
<course>339.9</course>
<desc>Speed 6.4 km/h Distance 6.05 km</desc>
<time>2010-03-03T16:58:31.43</time>
<name>3669</name>
</trkpt>
<trkpt lat="48.932247" lon="8.678230">
<ele>372.5</ele>
<speed>6.0</speed>
<course>330.8</course>
<desc>Speed 6.0 km/h Distance 6.05 km</desc>
<time>2010-03-03T16:58:32.43</time>
<name>3670</name>
</trkpt>
<trkpt lat="48.932258" lon="8.678220">
<ele>372.5</ele>
<speed>5.7</speed>
<course>330.2</course>
<desc>Speed 5.7 km/h Distance 6.05 km</desc>
<time>2010-03-03T16:58:33.43</time>
<name>3671</name>
</trkpt>
<trkpt lat="48.932272" lon="8.678208">
<ele>372.5</ele>
<speed>6.0</speed>
<course>332.8</course>
<desc>Speed 6.0 km/h Distance 6.05 km</desc>
<time>2010-03-03T16:58:34.43</time>
<name>3672</name>
</trkpt>
<trkpt lat="48.932287" lon="8.678197">
<ele>372.5</ele>
<speed>6.2</speed>
<course>330.2</course>
<desc>Speed 6.2 km/h Distance 6.05 km</desc>
<time>2010-03-03T16:58:35.43</time>
<name>3673</name>
</trkpt>
<trkpt lat="48.932300" lon="8.678185">
<ele>373.0</ele>
<speed>6.0</speed>
<course>336.3</course>
<desc>Speed 6.0 km/h Distance 6.05 km</desc>
<time>2010-03-03T16:58:36.43</time>
<name>3674</name>
</trkpt>
<trkpt lat="48.932315" lon="8.678175">
<ele>372.5</ele>
<speed>6.3</speed>
<course>333.8</course>
<desc>Speed 6.3 km/h Distance 6.06 km</desc>
<time>2010-03-03T16:58:37.43</time>
<name>3675</name>
</trkpt>
<trkpt lat="48.932328" lon="8.678165">
<ele>372.5</ele>
<speed>6.2</speed>
<course>339.9</course>
<desc>Speed 6.2 km/h Distance 6.06 km</desc>
<time>2010-03-03T16:58:38.43</time>
<name>3676</name>
</trkpt>
<trkpt lat="48.932343" lon="8.678157">
<ele>372.5</ele>
<speed>6.2</speed>
<course>336.3</course>
<desc>Speed 6.2 km/h Distance 6.06 km</desc>
<time>2010-03-03T16:58:39.43</time>
<name>3677</name>
</trkpt>
<trkpt lat="48.932358" lon="8.678147">
<ele>372.0</ele>
<speed>6.3</speed>
<course>336.3</course>
<desc>Speed 6.3 km/h Distance 6.06 km</desc>
<time>2010-03-03T16:58:40.44</time>
<name>3678</name>
</trkpt>
<trkpt lat="48.932373" lon="8.678137">
<ele>372.0</ele>
<speed>6.2</speed>
<course>333.8</course>
<desc>Speed 6.2 km/h Distance 6.06 km</desc>
<time>2010-03-03T16:58:41.44</time>
<name>3679</name>
</trkpt>
<trkpt lat="48.932387" lon="8.678127">
<ele>372.0</ele>
<speed>6.2</speed>
<course>332.8</course>
<desc>Speed 6.2 km/h Distance 6.06 km</desc>
<time>2010-03-03T16:58:42.44</time>
<name>3680</name>
</trkpt>
<trkpt lat="48.932402" lon="8.678115">
<ele>372.5</ele>
<speed>6.3</speed>
<course>333.0</course>
<desc>Speed 6.3 km/h Distance 6.07 km</desc>
<time>2010-03-03T16:58:43.44</time>
<name>3681</name>
</trkpt>
<trkpt lat="48.932417" lon="8.678103">
<ele>372.5</ele>
<speed>6.3</speed>
<course>334.0</course>
<desc>Speed 6.3 km/h Distance 6.07 km</desc>
<time>2010-03-03T16:58:44.44</time>
<name>3682</name>
</trkpt>
<trkpt lat="48.932430" lon="8.678093">
<ele>372.5</ele>
<speed>6.2</speed>
<course>336.3</course>
<desc>Speed 6.2 km/h Distance 6.07 km</desc>
<time>2010-03-03T16:58:45.44</time>
<name>3683</name>
</trkpt>
<trkpt lat="48.932445" lon="8.678083">
<ele>372.5</ele>
<speed>6.2</speed>
<course>333.1</course>
<desc>Speed 6.2 km/h Distance 6.07 km</desc>
<time>2010-03-03T16:58:46.44</time>
<name>3684</name>
</trkpt>
<trkpt lat="48.932460" lon="8.678072">
<ele>372.5</ele>
<speed>6.3</speed>
<course>326.7</course>
<desc>Speed 6.3 km/h Distance 6.07 km</desc>
<time>2010-03-03T16:58:47.44</time>
<name>3685</name>
</trkpt>
<trkpt lat="48.932473" lon="8.678058">
<ele>373.0</ele>
<speed>6.3</speed>
<course>323.4</course>
<desc>Speed 6.3 km/h Distance 6.08 km</desc>
<time>2010-03-03T16:58:48.44</time>
<name>3686</name>
</trkpt>
<trkpt lat="48.932487" lon="8.678043">
<ele>373.0</ele>
<speed>6.3</speed>
<course>326.7</course>
<desc>Speed 6.3 km/h Distance 6.08 km</desc>
<time>2010-03-03T16:58:49.44</time>
<name>3687</name>
</trkpt>
<trkpt lat="48.932500" lon="8.678030">
<ele>373.5</ele>
<speed>6.4</speed>
<course>336.7</course>
<desc>Speed 6.4 km/h Distance 6.08 km</desc>
<time>2010-03-03T16:58:50.44</time>
<name>3688</name>
</trkpt>
<trkpt lat="48.932515" lon="8.678020">
<ele>373.5</ele>
<speed>6.2</speed>
<course>333.8</course>
<desc>Speed 6.2 km/h Distance 6.08 km</desc>
<time>2010-03-03T16:58:51.44</time>
<name>3689</name>
</trkpt>
<trkpt lat="48.932528" lon="8.678010">
<ele>373.5</ele>
<speed>5.9</speed>
<course>326.6</course>
<desc>Speed 5.9 km/h Distance 6.08 km</desc>
<time>2010-03-03T16:58:52.44</time>
<name>3690</name>
</trkpt>
<trkpt lat="48.932542" lon="8.677997">
<ele>374.0</ele>
<speed>6.1</speed>
<course>337.4</course>
<desc>Speed 6.1 km/h Distance 6.08 km</desc>
<time>2010-03-03T16:58:53.44</time>
<name>3691</name>
</trkpt>
<trkpt lat="48.932555" lon="8.677988">
<ele>374.5</ele>
<speed>6.1</speed>
<course>332.8</course>
<desc>Speed 6.1 km/h Distance 6.09 km</desc>
<time>2010-03-03T16:58:54.44</time>
<name>3692</name>
</trkpt>
<trkpt lat="48.932570" lon="8.677977">
<ele>374.5</ele>
<speed>6.0</speed>
<course>330.2</course>
<desc>Speed 6.0 km/h Distance 6.09 km</desc>
<time>2010-03-03T16:58:55.44</time>
<name>3693</name>
</trkpt>
<trkpt lat="48.932583" lon="8.677965">
<ele>375.0</ele>
<speed>5.8</speed>
<course>330.0</course>
<desc>Speed 5.8 km/h Distance 6.09 km</desc>
<time>2010-03-03T16:58:56.44</time>
<name>3694</name>
</trkpt>
<trkpt lat="48.932597" lon="8.677953">
<ele>375.5</ele>
<speed>5.9</speed>
<course>337.7</course>
<desc>Speed 5.9 km/h Distance 6.09 km</desc>
<time>2010-03-03T16:58:57.44</time>
<name>3695</name>
</trkpt>
<trkpt lat="48.932610" lon="8.677945">
<ele>375.5</ele>
<speed>5.8</speed>
<course>340.1</course>
<desc>Speed 5.8 km/h Distance 6.09 km</desc>
<time>2010-03-03T16:58:58.44</time>
<name>3696</name>
</trkpt>
<trkpt lat="48.932625" lon="8.677937">
<ele>375.5</ele>
<speed>5.8</speed>
<course>337.9</course>
<desc>Speed 5.8 km/h Distance 6.09 km</desc>
<time>2010-03-03T16:58:59.44</time>
<name>3697</name>
</trkpt>
<trkpt lat="48.932638" lon="8.677928">
<ele>375.5</ele>
<speed>5.7</speed>
<course>341.9</course>
<desc>Speed 5.7 km/h Distance 6.10 km</desc>
<time>2010-03-03T16:59:00.44</time>
<name>3698</name>
</trkpt>
<trkpt lat="48.932652" lon="8.677922">
<ele>375.5</ele>
<speed>5.7</speed>
<course>337.7</course>
<desc>Speed 5.7 km/h Distance 6.10 km</desc>
<time>2010-03-03T16:59:01.46</time>
<name>3699</name>
</trkpt>
<trkpt lat="48.932665" lon="8.677913">
<ele>376.0</ele>
<speed>5.5</speed>
<course>326.6</course>
<desc>Speed 5.5 km/h Distance 6.10 km</desc>
<time>2010-03-03T16:59:02.46</time>
<name>3700</name>
</trkpt>
<trkpt lat="48.932677" lon="8.677902">
<ele>376.0</ele>
<speed>5.9</speed>
<course>330.2</course>
<desc>Speed 5.9 km/h Distance 6.10 km</desc>
<time>2010-03-03T16:59:03.46</time>
<name>3701</name>
</trkpt>
<trkpt lat="48.932690" lon="8.677890">
<ele>376.0</ele>
<speed>5.9</speed>
<course>326.6</course>
<desc>Speed 5.9 km/h Distance 6.10 km</desc>
<time>2010-03-03T16:59:04.46</time>
<name>3702</name>
</trkpt>
<trkpt lat="48.932703" lon="8.677877">
<ele>376.5</ele>
<speed>5.8</speed>
<course>323.1</course>
<desc>Speed 5.8 km/h Distance 6.10 km</desc>
<time>2010-03-03T16:59:05.46</time>
<name>3703</name>
</trkpt>
<trkpt lat="48.932715" lon="8.677863">
<ele>376.5</ele>
<speed>5.7</speed>
<course>333.8</course>
<desc>Speed 5.7 km/h Distance 6.11 km</desc>
<time>2010-03-03T16:59:06.46</time>
<name>3704</name>
</trkpt>
<trkpt lat="48.932728" lon="8.677853">
<ele>376.5</ele>
<speed>5.7</speed>
<course>333.8</course>
<desc>Speed 5.7 km/h Distance 6.11 km</desc>
<time>2010-03-03T16:59:07.46</time>
<name>3705</name>
</trkpt>
<trkpt lat="48.932742" lon="8.677843">
<ele>376.5</ele>
<speed>5.5</speed>
<course>330.2</course>
<desc>Speed 5.5 km/h Distance 6.11 km</desc>
<time>2010-03-03T16:59:08.46</time>
<name>3706</name>
</trkpt>
<trkpt lat="48.932755" lon="8.677832">
<ele>377.5</ele>
<speed>5.6</speed>
<course>333.8</course>
<desc>Speed 5.6 km/h Distance 6.11 km</desc>
<time>2010-03-03T16:59:09.46</time>
<name>3707</name>
</trkpt>
<trkpt lat="48.932768" lon="8.677822">
<ele>377.5</ele>
<speed>5.9</speed>
<course>337.4</course>
<desc>Speed 5.9 km/h Distance 6.11 km</desc>
<time>2010-03-03T16:59:10.46</time>
<name>3708</name>
</trkpt>
<trkpt lat="48.932782" lon="8.677813">
<ele>377.5</ele>
<speed>5.9</speed>
<course>333.8</course>
<desc>Speed 5.9 km/h Distance 6.11 km</desc>
<time>2010-03-03T16:59:11.46</time>
<name>3709</name>
</trkpt>
<trkpt lat="48.932795" lon="8.677803">
<ele>377.5</ele>
<speed>5.8</speed>
<course>330.2</course>
<desc>Speed 5.8 km/h Distance 6.12 km</desc>
<time>2010-03-03T16:59:12.46</time>
<name>3710</name>
</trkpt>
<trkpt lat="48.932808" lon="8.677792">
<ele>377.5</ele>
<speed>5.9</speed>
<course>323.1</course>
<desc>Speed 5.9 km/h Distance 6.12 km</desc>
<time>2010-03-03T16:59:13.46</time>
<name>3711</name>
</trkpt>
<trkpt lat="48.932820" lon="8.677778">
<ele>377.5</ele>
<speed>6.0</speed>
<course>309.7</course>
<desc>Speed 6.0 km/h Distance 6.12 km</desc>
<time>2010-03-03T16:59:14.46</time>
<name>3712</name>
</trkpt>
<trkpt lat="48.932830" lon="8.677760">
<ele>377.5</ele>
<speed>5.8</speed>
<course>301.3</course>
<desc>Speed 5.8 km/h Distance 6.12 km</desc>
<time>2010-03-03T16:59:15.46</time>
<name>3713</name>
</trkpt>
<trkpt lat="48.932837" lon="8.677743">
<ele>377.0</ele>
<speed>5.4</speed>
<course>285.5</course>
<desc>Speed 5.4 km/h Distance 6.12 km</desc>
<time>2010-03-03T16:59:16.46</time>
<name>3714</name>
</trkpt>
<trkpt lat="48.932840" lon="8.677725">
<ele>377.5</ele>
<speed>4.9</speed>
<course>284.2</course>
<desc>Speed 4.9 km/h Distance 6.12 km</desc>
<time>2010-03-03T16:59:17.46</time>
<name>3715</name>
</trkpt>
<trkpt lat="48.932843" lon="8.677705">
<ele>377.0</ele>
<speed>5.5</speed>
<course>286.9</course>
<desc>Speed 5.5 km/h Distance 6.13 km</desc>
<time>2010-03-03T16:59:18.46</time>
<name>3716</name>
</trkpt>
<trkpt lat="48.932847" lon="8.677688">
<ele>377.0</ele>
<speed>4.8</speed>
<course>287.0</course>
<desc>Speed 4.8 km/h Distance 6.13 km</desc>
<time>2010-03-03T16:59:19.46</time>
<name>3717</name>
</trkpt>
<trkpt lat="48.932850" lon="8.677672">
<ele>377.0</ele>
<speed>4.5</speed>
<course>280.8</course>
<desc>Speed 4.5 km/h Distance 6.13 km</desc>
<time>2010-03-03T16:59:20.46</time>
<name>3718</name>
</trkpt>
<trkpt lat="48.932852" lon="8.677658">
<ele>377.0</ele>
<speed>3.5</speed>
<course>270.0</course>
<desc>Speed 3.5 km/h Distance 6.13 km</desc>
<time>2010-03-03T16:59:21.46</time>
<name>3719</name>
</trkpt>
<trkpt lat="48.932852" lon="8.677653">
<ele>377.0</ele>
<speed>1.6</speed>
<course>270.0</course>
<desc>Speed 1.6 km/h Distance 6.13 km</desc>
<time>2010-03-03T16:59:22.46</time>
<name>3720</name>
</trkpt>
<trkpt lat="48.932852" lon="8.677650">
<ele>377.5</ele>
<speed>0.4</speed>
<course>270.0</course>
<desc>Speed 0.4 km/h Distance 6.13 km</desc>
<time>2010-03-03T16:59:23.46</time>
<name>3721</name>
</trkpt>
<trkpt lat="48.932852" lon="8.677650">
<ele>377.5</ele>
<speed>0.3</speed>
<course>270.0</course>
<desc>Speed 0.3 km/h Distance 6.13 km</desc>
<time>2010-03-03T16:59:24.46</time>
<name>3722</name>
</trkpt>
<trkpt lat="48.932852" lon="8.677648">
<ele>378.0</ele>
<speed>0.3</speed>
<course>270.0</course>
<desc>Speed 0.3 km/h Distance 6.13 km</desc>
<time>2010-03-03T16:59:25.46</time>
<name>3723</name>
</trkpt>
<trkpt lat="48.932852" lon="8.677648">
<ele>378.0</ele>
<speed>0.2</speed>
<course>270.0</course>
<desc>Speed 0.2 km/h Distance 6.13 km</desc>
<time>2010-03-03T16:59:26.46</time>
<name>3724</name>
</trkpt>
<trkpt lat="48.932852" lon="8.677647">
<ele>378.0</ele>
<speed>0.2</speed>
<course>270.0</course>
<desc>Speed 0.2 km/h Distance 6.13 km</desc>
<time>2010-03-03T16:59:27.46</time>
<name>3725</name>
</trkpt>
<trkpt lat="48.932852" lon="8.677647">
<ele>378.0</ele>
<speed>0.2</speed>
<course>270.0</course>
<desc>Speed 0.2 km/h Distance 6.13 km</desc>
<time>2010-03-03T16:59:28.46</time>
<name>3726</name>
</trkpt>
<trkpt lat="48.932852" lon="8.677647">
<ele>378.0</ele>
<speed>0.2</speed>
<course>270.0</course>
<desc>Speed 0.2 km/h Distance 6.13 km</desc>
<time>2010-03-03T16:59:29.46</time>
<name>3727</name>
</trkpt>
<trkpt lat="48.932852" lon="8.677647">
<ele>378.5</ele>
<speed>0.2</speed>
<course>270.0</course>
<desc>Speed 0.2 km/h Distance 6.13 km</desc>
<time>2010-03-03T16:59:30.46</time>
<name>3728</name>
</trkpt>
<trkpt lat="48.932852" lon="8.677647">
<ele>378.5</ele>
<speed>0.1</speed>
<course>270.0</course>
<desc>Speed 0.1 km/h Distance 6.13 km</desc>
<time>2010-03-03T16:59:31.46</time>
<name>3729</name>
</trkpt>
<trkpt lat="48.932852" lon="8.677647">
<ele>378.5</ele>
<speed>0.6</speed>
<course>270.0</course>
<desc>Speed 0.6 km/h Distance 6.13 km</desc>
<time>2010-03-03T16:59:32.46</time>
<name>3730</name>
</trkpt>
<trkpt lat="48.932852" lon="8.677647">
<ele>378.5</ele>
<speed>0.1</speed>
<course>270.0</course>
<desc>Speed 0.1 km/h Distance 6.13 km</desc>
<time>2010-03-03T16:59:33.46</time>
<name>3731</name>
</trkpt>
<trkpt lat="48.932852" lon="8.677647">
<ele>378.5</ele>
<speed>0.2</speed>
<course>270.0</course>
<desc>Speed 0.2 km/h Distance 6.13 km</desc>
<time>2010-03-03T16:59:34.46</time>
<name>3732</name>
</trkpt>
<trkpt lat="48.932852" lon="8.677647">
<ele>378.5</ele>
<speed>0.1</speed>
<course>12.6</course>
<desc>Speed 0.1 km/h Distance 6.13 km</desc>
<time>2010-03-03T16:59:35.46</time>
<name>3733</name>
</trkpt>
<trkpt lat="48.932853" lon="8.677647">
<ele>378.5</ele>
<speed>0.2</speed>
<course>12.6</course>
<desc>Speed 0.2 km/h Distance 6.13 km</desc>
<time>2010-03-03T16:59:36.46</time>
<name>3734</name>
</trkpt>
<trkpt lat="48.932853" lon="8.677647">
<ele>378.5</ele>
<speed>0.4</speed>
<course>12.6</course>
<desc>Speed 0.4 km/h Distance 6.13 km</desc>
<time>2010-03-03T16:59:37.46</time>
<name>3735</name>
</trkpt>
<trkpt lat="48.932853" lon="8.677647">
<ele>378.5</ele>
<speed>0.1</speed>
<course>12.6</course>
<desc>Speed 0.1 km/h Distance 6.13 km</desc>
<time>2010-03-03T16:59:38.46</time>
<name>3736</name>
</trkpt>
<trkpt lat="48.932853" lon="8.677647">
<ele>378.5</ele>
<speed>0.1</speed>
<course>12.6</course>
<desc>Speed 0.1 km/h Distance 6.13 km</desc>
<time>2010-03-03T16:59:39.46</time>
<name>3737</name>
</trkpt>
<trkpt lat="48.932853" lon="8.677647">
<ele>378.5</ele>
<speed>0.2</speed>
<course>12.6</course>
<desc>Speed 0.2 km/h Distance 6.13 km</desc>
<time>2010-03-03T16:59:40.46</time>
<name>3738</name>
</trkpt>
<trkpt lat="48.932853" lon="8.677647">
<ele>378.5</ele>
<speed>0.3</speed>
<course>290.9</course>
<desc>Speed 0.3 km/h Distance 6.13 km</desc>
<time>2010-03-03T16:59:41.46</time>
<name>3739</name>
</trkpt>
<trkpt lat="48.932855" lon="8.677640">
<ele>378.5</ele>
<speed>1.9</speed>
<course>270.0</course>
<desc>Speed 1.9 km/h Distance 6.13 km</desc>
<time>2010-03-03T16:59:42.46</time>
<name>3740</name>
</trkpt>
<trkpt lat="48.932855" lon="8.677620">
<ele>378.5</ele>
<speed>5.0</speed>
<course>251.9</course>
<desc>Speed 5.0 km/h Distance 6.13 km</desc>
<time>2010-03-03T16:59:43.46</time>
<name>3741</name>
</trkpt>
<trkpt lat="48.932850" lon="8.677597">
<ele>379.0</ele>
<speed>6.2</speed>
<course>251.9</course>
<desc>Speed 6.2 km/h Distance 6.13 km</desc>
<time>2010-03-03T16:59:44.46</time>
<name>3742</name>
</trkpt>
<trkpt lat="48.932845" lon="8.677573">
<ele>379.0</ele>
<speed>6.6</speed>
<course>246.5</course>
<desc>Speed 6.6 km/h Distance 6.14 km</desc>
<time>2010-03-03T16:59:45.46</time>
<name>3743</name>
</trkpt>
<trkpt lat="48.932838" lon="8.677550">
<ele>378.5</ele>
<speed>6.5</speed>
<course>251.9</course>
<desc>Speed 6.5 km/h Distance 6.14 km</desc>
<time>2010-03-03T16:59:46.46</time>
<name>3744</name>
</trkpt>
<trkpt lat="48.932833" lon="8.677527">
<ele>378.5</ele>
<speed>6.3</speed>
<course>251.9</course>
<desc>Speed 6.3 km/h Distance 6.14 km</desc>
<time>2010-03-03T16:59:47.46</time>
<name>3745</name>
</trkpt>
<trkpt lat="48.932828" lon="8.677503">
<ele>378.5</ele>
<speed>6.4</speed>
<course>250.6</course>
<desc>Speed 6.4 km/h Distance 6.14 km</desc>
<time>2010-03-03T16:59:48.46</time>
<name>3746</name>
</trkpt>
<trkpt lat="48.932823" lon="8.677482">
<ele>378.5</ele>
<speed>6.1</speed>
<course>270.0</course>
<desc>Speed 6.1 km/h Distance 6.14 km</desc>
<time>2010-03-03T16:59:49.46</time>
<name>3747</name>
</trkpt>
<trkpt lat="48.932823" lon="8.677457">
<ele>378.0</ele>
<speed>6.4</speed>
<course>270.0</course>
<desc>Speed 6.4 km/h Distance 6.14 km</desc>
<time>2010-03-03T16:59:50.46</time>
<name>3748</name>
</trkpt>
<trkpt lat="48.932823" lon="8.677432">
<ele>378.5</ele>
<speed>6.6</speed>
<course>295.1</course>
<desc>Speed 6.6 km/h Distance 6.15 km</desc>
<time>2010-03-03T16:59:51.46</time>
<name>3749</name>
</trkpt>
<trkpt lat="48.932830" lon="8.677410">
<ele>378.5</ele>
<speed>6.2</speed>
<course>304.7</course>
<desc>Speed 6.2 km/h Distance 6.15 km</desc>
<time>2010-03-03T16:59:52.46</time>
<name>3750</name>
</trkpt>
<trkpt lat="48.932838" lon="8.677392">
<ele>378.5</ele>
<speed>5.8</speed>
<course>312.4</course>
<desc>Speed 5.8 km/h Distance 6.15 km</desc>
<time>2010-03-03T16:59:53.46</time>
<name>3751</name>
</trkpt>
<trkpt lat="48.932848" lon="8.677375">
<ele>378.5</ele>
<speed>5.7</speed>
<course>323.0</course>
<desc>Speed 5.7 km/h Distance 6.15 km</desc>
<time>2010-03-03T16:59:54.46</time>
<name>3752</name>
</trkpt>
<trkpt lat="48.932860" lon="8.677362">
<ele>379.0</ele>
<speed>5.8</speed>
<course>330.0</course>
<desc>Speed 5.8 km/h Distance 6.15 km</desc>
<time>2010-03-03T16:59:55.46</time>
<name>3753</name>
</trkpt>
<trkpt lat="48.932873" lon="8.677350">
<ele>378.5</ele>
<speed>5.9</speed>
<course>330.6</course>
<desc>Speed 5.9 km/h Distance 6.15 km</desc>
<time>2010-03-03T16:59:56.46</time>
<name>3754</name>
</trkpt>
<trkpt lat="48.932885" lon="8.677340">
<ele>379.0</ele>
<speed>5.7</speed>
<course>330.6</course>
<desc>Speed 5.7 km/h Distance 6.16 km</desc>
<time>2010-03-03T16:59:57.46</time>
<name>3755</name>
</trkpt>
<trkpt lat="48.932897" lon="8.677330">
<ele>379.0</ele>
<speed>4.8</speed>
<course>334.8</course>
<desc>Speed 4.8 km/h Distance 6.16 km</desc>
<time>2010-03-03T16:59:58.46</time>
<name>3756</name>
</trkpt>
<trkpt lat="48.932908" lon="8.677322">
<ele>379.0</ele>
<speed>5.1</speed>
<course>341.9</course>
<desc>Speed 5.1 km/h Distance 6.16 km</desc>
<time>2010-03-03T16:59:59.46</time>
<name>3757</name>
</trkpt>
<trkpt lat="48.932922" lon="8.677315">
<ele>379.0</ele>
<speed>5.6</speed>
<course>341.9</course>
<desc>Speed 5.6 km/h Distance 6.16 km</desc>
<time>2010-03-03T17:00:00.46</time>
<name>3758</name>
</trkpt>
<trkpt lat="48.932935" lon="8.677308">
<ele>379.0</ele>
<speed>5.5</speed>
<course>341.9</course>
<desc>Speed 5.5 km/h Distance 6.16 km</desc>
<time>2010-03-03T17:00:01.46</time>
<name>3759</name>
</trkpt>
<trkpt lat="48.932948" lon="8.677302">
<ele>379.0</ele>
<speed>5.4</speed>
<course>333.6</course>
<desc>Speed 5.4 km/h Distance 6.16 km</desc>
<time>2010-03-03T17:00:02.46</time>
<name>3760</name>
</trkpt>
<trkpt lat="48.932962" lon="8.677292">
<ele>379.0</ele>
<speed>5.8</speed>
<course>326.8</course>
<desc>Speed 5.8 km/h Distance 6.17 km</desc>
<time>2010-03-03T17:00:03.46</time>
<name>3761</name>
</trkpt>
<trkpt lat="48.932972" lon="8.677282">
<ele>379.0</ele>
<speed>4.9</speed>
<course>331.4</course>
<desc>Speed 4.9 km/h Distance 6.17 km</desc>
<time>2010-03-03T17:00:04.46</time>
<name>3762</name>
</trkpt>
<trkpt lat="48.932982" lon="8.677273">
<ele>379.0</ele>
<speed>4.4</speed>
<course>326.8</course>
<desc>Speed 4.4 km/h Distance 6.17 km</desc>
<time>2010-03-03T17:00:05.46</time>
<name>3763</name>
</trkpt>
<trkpt lat="48.932990" lon="8.677265">
<ele>380.0</ele>
<speed>4.0</speed>
<course>337.4</course>
<desc>Speed 4.0 km/h Distance 6.17 km</desc>
<time>2010-03-03T17:00:06.46</time>
<name>3764</name>
</trkpt>
<trkpt lat="48.933003" lon="8.677257">
<ele>380.0</ele>
<speed>5.4</speed>
<course>341.6</course>
<desc>Speed 5.4 km/h Distance 6.17 km</desc>
<time>2010-03-03T17:00:07.46</time>
<name>3765</name>
</trkpt>
<trkpt lat="48.933017" lon="8.677250">
<ele>380.0</ele>
<speed>5.8</speed>
<course>333.8</course>
<desc>Speed 5.8 km/h Distance 6.17 km</desc>
<time>2010-03-03T17:00:08.46</time>
<name>3766</name>
</trkpt>
<trkpt lat="48.933030" lon="8.677240">
<ele>380.0</ele>
<speed>5.6</speed>
<course>330.2</course>
<desc>Speed 5.6 km/h Distance 6.17 km</desc>
<time>2010-03-03T17:00:09.46</time>
<name>3767</name>
</trkpt>
<trkpt lat="48.933043" lon="8.677228">
<ele>380.5</ele>
<speed>5.7</speed>
<course>330.6</course>
<desc>Speed 5.7 km/h Distance 6.18 km</desc>
<time>2010-03-03T17:00:10.46</time>
<name>3768</name>
</trkpt>
<trkpt lat="48.933055" lon="8.677218">
<ele>380.5</ele>
<speed>5.6</speed>
<course>330.8</course>
<desc>Speed 5.6 km/h Distance 6.18 km</desc>
<time>2010-03-03T17:00:11.46</time>
<name>3769</name>
</trkpt>
<trkpt lat="48.933067" lon="8.677208">
<ele>380.0</ele>
<speed>5.5</speed>
<course>330.2</course>
<desc>Speed 5.5 km/h Distance 6.18 km</desc>
<time>2010-03-03T17:00:12.46</time>
<name>3770</name>
</trkpt>
<trkpt lat="48.933080" lon="8.677197">
<ele>380.0</ele>
<speed>5.6</speed>
<course>323.1</course>
<desc>Speed 5.6 km/h Distance 6.18 km</desc>
<time>2010-03-03T17:00:13.46</time>
<name>3771</name>
</trkpt>
<trkpt lat="48.933092" lon="8.677183">
<ele>380.0</ele>
<speed>5.7</speed>
<course>323.0</course>
<desc>Speed 5.7 km/h Distance 6.18 km</desc>
<time>2010-03-03T17:00:14.46</time>
<name>3772</name>
</trkpt>
<trkpt lat="48.933103" lon="8.677170">
<ele>380.0</ele>
<speed>5.8</speed>
<course>320.6</course>
<desc>Speed 5.8 km/h Distance 6.18 km</desc>
<time>2010-03-03T17:00:15.46</time>
<name>3773</name>
</trkpt>
<trkpt lat="48.933117" lon="8.677153">
<ele>380.0</ele>
<speed>6.0</speed>
<course>330.0</course>
<desc>Speed 6.0 km/h Distance 6.19 km</desc>
<time>2010-03-03T17:00:16.46</time>
<name>3774</name>
</trkpt>
<trkpt lat="48.933130" lon="8.677142">
<ele>380.0</ele>
<speed>5.9</speed>
<course>330.2</course>
<desc>Speed 5.9 km/h Distance 6.19 km</desc>
<time>2010-03-03T17:00:17.46</time>
<name>3775</name>
</trkpt>
<trkpt lat="48.933143" lon="8.677130">
<ele>380.0</ele>
<speed>6.0</speed>
<course>330.2</course>
<desc>Speed 6.0 km/h Distance 6.19 km</desc>
<time>2010-03-03T17:00:18.46</time>
<name>3776</name>
</trkpt>
<trkpt lat="48.933157" lon="8.677118">
<ele>380.0</ele>
<speed>5.8</speed>
<course>330.0</course>
<desc>Speed 5.8 km/h Distance 6.19 km</desc>
<time>2010-03-03T17:00:19.46</time>
<name>3777</name>
</trkpt>
<trkpt lat="48.933170" lon="8.677107">
<ele>380.0</ele>
<speed>5.9</speed>
<course>326.7</course>
<desc>Speed 5.9 km/h Distance 6.19 km</desc>
<time>2010-03-03T17:00:20.46</time>
<name>3778</name>
</trkpt>
<trkpt lat="48.933183" lon="8.677093">
<ele>380.5</ele>
<speed>5.8</speed>
<course>330.2</course>
<desc>Speed 5.8 km/h Distance 6.19 km</desc>
<time>2010-03-03T17:00:21.46</time>
<name>3779</name>
</trkpt>
<trkpt lat="48.933197" lon="8.677082">
<ele>380.0</ele>
<speed>5.7</speed>
<course>333.8</course>
<desc>Speed 5.7 km/h Distance 6.20 km</desc>
<time>2010-03-03T17:00:22.46</time>
<name>3780</name>
</trkpt>
<trkpt lat="48.933210" lon="8.677072">
<ele>380.0</ele>
<speed>5.8</speed>
<course>323.4</course>
<desc>Speed 5.8 km/h Distance 6.20 km</desc>
<time>2010-03-03T17:00:23.46</time>
<name>3781</name>
</trkpt>
<trkpt lat="48.933223" lon="8.677057">
<ele>380.5</ele>
<speed>5.9</speed>
<course>323.1</course>
<desc>Speed 5.9 km/h Distance 6.20 km</desc>
<time>2010-03-03T17:00:24.46</time>
<name>3782</name>
</trkpt>
<trkpt lat="48.933235" lon="8.677043">
<ele>380.5</ele>
<speed>5.8</speed>
<course>319.8</course>
<desc>Speed 5.8 km/h Distance 6.20 km</desc>
<time>2010-03-03T17:00:25.47</time>
<name>3783</name>
</trkpt>
<trkpt lat="48.933247" lon="8.677028">
<ele>380.5</ele>
<speed>5.9</speed>
<course>326.6</course>
<desc>Speed 5.9 km/h Distance 6.20 km</desc>
<time>2010-03-03T17:00:26.47</time>
<name>3784</name>
</trkpt>
<trkpt lat="48.933260" lon="8.677015">
<ele>380.5</ele>
<speed>6.0</speed>
<course>326.5</course>
<desc>Speed 6.0 km/h Distance 6.20 km</desc>
<time>2010-03-03T17:00:27.47</time>
<name>3785</name>
</trkpt>
<trkpt lat="48.933273" lon="8.677002">
<ele>380.5</ele>
<speed>5.9</speed>
<course>333.8</course>
<desc>Speed 5.9 km/h Distance 6.21 km</desc>
<time>2010-03-03T17:00:28.47</time>
<name>3786</name>
</trkpt>
<trkpt lat="48.933287" lon="8.676992">
<ele>380.5</ele>
<speed>5.7</speed>
<course>319.8</course>
<desc>Speed 5.7 km/h Distance 6.21 km</desc>
<time>2010-03-03T17:00:29.47</time>
<name>3787</name>
</trkpt>
<trkpt lat="48.933298" lon="8.676977">
<ele>380.5</ele>
<speed>6.0</speed>
<course>326.7</course>
<desc>Speed 6.0 km/h Distance 6.21 km</desc>
<time>2010-03-03T17:00:30.47</time>
<name>3788</name>
</trkpt>
<trkpt lat="48.933312" lon="8.676963">
<ele>380.5</ele>
<speed>6.0</speed>
<course>315.5</course>
<desc>Speed 6.0 km/h Distance 6.21 km</desc>
<time>2010-03-03T17:00:31.47</time>
<name>3789</name>
</trkpt>
<trkpt lat="48.933322" lon="8.676948">
<ele>381.0</ele>
<speed>5.8</speed>
<course>319.8</course>
<desc>Speed 5.8 km/h Distance 6.21 km</desc>
<time>2010-03-03T17:00:32.47</time>
<name>3790</name>
</trkpt>
<trkpt lat="48.933333" lon="8.676933">
<ele>381.0</ele>
<speed>6.0</speed>
<course>326.7</course>
<desc>Speed 6.0 km/h Distance 6.21 km</desc>
<time>2010-03-03T17:00:33.47</time>
<name>3791</name>
</trkpt>
<trkpt lat="48.933347" lon="8.676920">
<ele>381.0</ele>
<speed>6.0</speed>
<course>326.6</course>
<desc>Speed 6.0 km/h Distance 6.22 km</desc>
<time>2010-03-03T17:00:34.47</time>
<name>3792</name>
</trkpt>
<trkpt lat="48.933360" lon="8.676907">
<ele>381.0</ele>
<speed>6.0</speed>
<course>319.8</course>
<desc>Speed 6.0 km/h Distance 6.22 km</desc>
<time>2010-03-03T17:00:35.47</time>
<name>3793</name>
</trkpt>
<trkpt lat="48.933372" lon="8.676892">
<ele>381.0</ele>
<speed>5.9</speed>
<course>323.1</course>
<desc>Speed 5.9 km/h Distance 6.22 km</desc>
<time>2010-03-03T17:00:36.47</time>
<name>3794</name>
</trkpt>
<trkpt lat="48.933395" lon="8.676865">
<ele>381.5</ele>
<speed>5.7</speed>
<course>325.0</course>
<desc>Speed 5.7 km/h Distance 6.22 km</desc>
<time>2010-03-03T17:00:37.98</time>
<name>3795</name>
</trkpt>
<trkpt lat="48.933420" lon="8.676838">
<ele>381.5</ele>
<speed>5.8</speed>
<course>326.6</course>
<desc>Speed 5.8 km/h Distance 6.23 km</desc>
<time>2010-03-03T17:00:39.98</time>
<name>3796</name>
</trkpt>
<trkpt lat="48.933432" lon="8.676827">
<ele>381.5</ele>
<speed>5.6</speed>
<course>323.1</course>
<desc>Speed 5.6 km/h Distance 6.23 km</desc>
<time>2010-03-03T17:00:41.47</time>
<name>3797</name>
</trkpt>
<trkpt lat="48.933455" lon="8.676800">
<ele>382.0</ele>
<speed>5.8</speed>
<course>326.7</course>
<desc>Speed 5.8 km/h Distance 6.23 km</desc>
<time>2010-03-03T17:00:42.98</time>
<name>3798</name>
</trkpt>
<trkpt lat="48.933468" lon="8.676787">
<ele>382.0</ele>
<speed>5.7</speed>
<course>326.6</course>
<desc>Speed 5.7 km/h Distance 6.23 km</desc>
<time>2010-03-03T17:00:43.98</time>
<name>3799</name>
</trkpt>
<trkpt lat="48.933480" lon="8.676775">
<ele>382.0</ele>
<speed>5.9</speed>
<course>323.1</course>
<desc>Speed 5.9 km/h Distance 6.23 km</desc>
<time>2010-03-03T17:00:44.98</time>
<name>3800</name>
</trkpt>
<trkpt lat="48.933492" lon="8.676762">
<ele>382.0</ele>
<speed>5.7</speed>
<course>319.8</course>
<desc>Speed 5.7 km/h Distance 6.24 km</desc>
<time>2010-03-03T17:00:45.98</time>
<name>3801</name>
</trkpt>
<trkpt lat="48.933503" lon="8.676747">
<ele>382.0</ele>
<speed>5.8</speed>
<course>323.1</course>
<desc>Speed 5.8 km/h Distance 6.24 km</desc>
<time>2010-03-03T17:00:46.98</time>
<name>3802</name>
</trkpt>
<trkpt lat="48.933515" lon="8.676733">
<ele>382.0</ele>
<speed>5.7</speed>
<course>318.8</course>
<desc>Speed 5.7 km/h Distance 6.24 km</desc>
<time>2010-03-03T17:00:47.98</time>
<name>3803</name>
</trkpt>
<trkpt lat="48.933525" lon="8.676720">
<ele>382.0</ele>
<speed>5.8</speed>
<course>319.8</course>
<desc>Speed 5.8 km/h Distance 6.24 km</desc>
<time>2010-03-03T17:00:48.98</time>
<name>3804</name>
</trkpt>
<trkpt lat="48.933537" lon="8.676705">
<ele>382.5</ele>
<speed>5.7</speed>
<course>326.6</course>
<desc>Speed 5.7 km/h Distance 6.24 km</desc>
<time>2010-03-03T17:00:49.98</time>
<name>3805</name>
</trkpt>
<trkpt lat="48.933548" lon="8.676693">
<ele>382.5</ele>
<speed>5.8</speed>
<course>323.1</course>
<desc>Speed 5.8 km/h Distance 6.24 km</desc>
<time>2010-03-03T17:00:50.98</time>
<name>3806</name>
</trkpt>
<trkpt lat="48.933560" lon="8.676680">
<ele>382.5</ele>
<speed>5.9</speed>
<course>330.2</course>
<desc>Speed 5.9 km/h Distance 6.25 km</desc>
<time>2010-03-03T17:00:51.97</time>
<name>3807</name>
</trkpt>
<trkpt lat="48.933573" lon="8.676668">
<ele>382.5</ele>
<speed>5.7</speed>
<course>318.7</course>
<desc>Speed 5.7 km/h Distance 6.25 km</desc>
<time>2010-03-03T17:00:52.97</time>
<name>3808</name>
</trkpt>
<trkpt lat="48.933583" lon="8.676655">
<ele>382.5</ele>
<speed>5.5</speed>
<course>326.7</course>
<desc>Speed 5.5 km/h Distance 6.25 km</desc>
<time>2010-03-03T17:00:53.97</time>
<name>3809</name>
</trkpt>
<trkpt lat="48.933597" lon="8.676642">
<ele>383.0</ele>
<speed>5.9</speed>
<course>323.2</course>
<desc>Speed 5.9 km/h Distance 6.25 km</desc>
<time>2010-03-03T17:00:55.05</time>
<name>3810</name>
</trkpt>
<trkpt lat="48.933608" lon="8.676628">
<ele>383.0</ele>
<speed>5.8</speed>
<course>312.4</course>
<desc>Speed 5.8 km/h Distance 6.25 km</desc>
<time>2010-03-03T17:00:55.97</time>
<name>3811</name>
</trkpt>
<trkpt lat="48.933618" lon="8.676612">
<ele>383.5</ele>
<speed>6.0</speed>
<course>326.6</course>
<desc>Speed 6.0 km/h Distance 6.25 km</desc>
<time>2010-03-03T17:00:56.97</time>
<name>3812</name>
</trkpt>
<trkpt lat="48.933632" lon="8.676598">
<ele>383.5</ele>
<speed>5.9</speed>
<course>323.1</course>
<desc>Speed 5.9 km/h Distance 6.26 km</desc>
<time>2010-03-03T17:00:57.96</time>
<name>3813</name>
</trkpt>
<trkpt lat="48.933643" lon="8.676585">
<ele>383.5</ele>
<speed>5.8</speed>
<course>323.1</course>
<desc>Speed 5.8 km/h Distance 6.26 km</desc>
<time>2010-03-03T17:00:58.96</time>
<name>3814</name>
</trkpt>
<trkpt lat="48.933655" lon="8.676572">
<ele>383.5</ele>
<speed>5.9</speed>
<course>309.7</course>
<desc>Speed 5.9 km/h Distance 6.26 km</desc>
<time>2010-03-03T17:00:59.96</time>
<name>3815</name>
</trkpt>
<trkpt lat="48.933665" lon="8.676553">
<ele>384.0</ele>
<speed>6.1</speed>
<course>319.8</course>
<desc>Speed 6.1 km/h Distance 6.26 km</desc>
<time>2010-03-03T17:01:00.96</time>
<name>3816</name>
</trkpt>
<trkpt lat="48.933677" lon="8.676538">
<ele>384.0</ele>
<speed>5.9</speed>
<course>316.7</course>
<desc>Speed 5.9 km/h Distance 6.26 km</desc>
<time>2010-03-03T17:01:01.96</time>
<name>3817</name>
</trkpt>
<trkpt lat="48.933688" lon="8.676522">
<ele>384.0</ele>
<speed>6.0</speed>
<course>323.1</course>
<desc>Speed 6.0 km/h Distance 6.26 km</desc>
<time>2010-03-03T17:01:02.96</time>
<name>3818</name>
</trkpt>
<trkpt lat="48.933700" lon="8.676508">
<ele>384.0</ele>
<speed>5.7</speed>
<course>318.8</course>
<desc>Speed 5.7 km/h Distance 6.27 km</desc>
<time>2010-03-03T17:01:03.96</time>
<name>3819</name>
</trkpt>
<trkpt lat="48.933710" lon="8.676495">
<ele>384.0</ele>
<speed>5.5</speed>
<course>319.8</course>
<desc>Speed 5.5 km/h Distance 6.27 km</desc>
<time>2010-03-03T17:01:04.96</time>
<name>3820</name>
</trkpt>
<trkpt lat="48.933722" lon="8.676480">
<ele>384.5</ele>
<speed>5.8</speed>
<course>323.1</course>
<desc>Speed 5.8 km/h Distance 6.27 km</desc>
<time>2010-03-03T17:01:05.96</time>
<name>3821</name>
</trkpt>
<trkpt lat="48.933733" lon="8.676467">
<ele>384.5</ele>
<speed>5.8</speed>
<course>323.4</course>
<desc>Speed 5.8 km/h Distance 6.27 km</desc>
<time>2010-03-03T17:01:06.97</time>
<name>3822</name>
</trkpt>
<trkpt lat="48.933747" lon="8.676452">
<ele>384.5</ele>
<speed>5.9</speed>
<course>315.4</course>
<desc>Speed 5.9 km/h Distance 6.27 km</desc>
<time>2010-03-03T17:01:07.96</time>
<name>3823</name>
</trkpt>
<trkpt lat="48.933757" lon="8.676437">
<ele>384.5</ele>
<speed>5.8</speed>
<course>316.7</course>
<desc>Speed 5.8 km/h Distance 6.27 km</desc>
<time>2010-03-03T17:01:08.97</time>
<name>3824</name>
</trkpt>
<trkpt lat="48.933768" lon="8.676420">
<ele>384.5</ele>
<speed>5.9</speed>
<course>316.7</course>
<desc>Speed 5.9 km/h Distance 6.28 km</desc>
<time>2010-03-03T17:01:09.96</time>
<name>3825</name>
</trkpt>
<trkpt lat="48.933780" lon="8.676403">
<ele>385.0</ele>
<speed>6.1</speed>
<course>315.5</course>
<desc>Speed 6.1 km/h Distance 6.28 km</desc>
<time>2010-03-03T17:01:10.96</time>
<name>3826</name>
</trkpt>
<trkpt lat="48.933790" lon="8.676388">
<ele>385.0</ele>
<speed>5.7</speed>
<course>316.8</course>
<desc>Speed 5.7 km/h Distance 6.28 km</desc>
<time>2010-03-03T17:01:11.96</time>
<name>3827</name>
</trkpt>
<trkpt lat="48.933802" lon="8.676372">
<ele>385.0</ele>
<speed>5.9</speed>
<course>323.1</course>
<desc>Speed 5.9 km/h Distance 6.28 km</desc>
<time>2010-03-03T17:01:12.96</time>
<name>3828</name>
</trkpt>
<trkpt lat="48.933813" lon="8.676358">
<ele>385.0</ele>
<speed>5.6</speed>
<course>323.1</course>
<desc>Speed 5.6 km/h Distance 6.28 km</desc>
<time>2010-03-03T17:01:13.95</time>
<name>3829</name>
</trkpt>
<trkpt lat="48.933825" lon="8.676345">
<ele>385.0</ele>
<speed>5.6</speed>
<course>323.1</course>
<desc>Speed 5.6 km/h Distance 6.28 km</desc>
<time>2010-03-03T17:01:14.95</time>
<name>3830</name>
</trkpt>
<trkpt lat="48.933837" lon="8.676332">
<ele>385.5</ele>
<speed>5.7</speed>
<course>318.6</course>
<desc>Speed 5.7 km/h Distance 6.29 km</desc>
<time>2010-03-03T17:01:15.95</time>
<name>3831</name>
</trkpt>
<trkpt lat="48.933847" lon="8.676318">
<ele>385.5</ele>
<speed>5.5</speed>
<course>326.7</course>
<desc>Speed 5.5 km/h Distance 6.29 km</desc>
<time>2010-03-03T17:01:16.96</time>
<name>3832</name>
</trkpt>
<trkpt lat="48.933858" lon="8.676307">
<ele>385.5</ele>
<speed>5.3</speed>
<course>318.8</course>
<desc>Speed 5.3 km/h Distance 6.29 km</desc>
<time>2010-03-03T17:01:17.95</time>
<name>3833</name>
</trkpt>
<trkpt lat="48.933868" lon="8.676293">
<ele>385.5</ele>
<speed>5.4</speed>
<course>323.1</course>
<desc>Speed 5.4 km/h Distance 6.29 km</desc>
<time>2010-03-03T17:01:18.95</time>
<name>3834</name>
</trkpt>
<trkpt lat="48.933880" lon="8.676280">
<ele>386.0</ele>
<speed>5.5</speed>
<course>323.1</course>
<desc>Speed 5.5 km/h Distance 6.29 km</desc>
<time>2010-03-03T17:01:19.95</time>
<name>3835</name>
</trkpt>
<trkpt lat="48.933892" lon="8.676267">
<ele>386.0</ele>
<speed>5.7</speed>
<course>318.8</course>
<desc>Speed 5.7 km/h Distance 6.29 km</desc>
<time>2010-03-03T17:01:20.95</time>
<name>3836</name>
</trkpt>
<trkpt lat="48.933902" lon="8.676253">
<ele>386.0</ele>
<speed>5.5</speed>
<course>326.9</course>
<desc>Speed 5.5 km/h Distance 6.30 km</desc>
<time>2010-03-03T17:01:21.95</time>
<name>3837</name>
</trkpt>
<trkpt lat="48.933913" lon="8.676242">
<ele>386.0</ele>
<speed>5.6</speed>
<course>319.8</course>
<desc>Speed 5.6 km/h Distance 6.30 km</desc>
<time>2010-03-03T17:01:22.95</time>
<name>3838</name>
</trkpt>
<trkpt lat="48.933925" lon="8.676227">
<ele>386.5</ele>
<speed>5.7</speed>
<course>323.1</course>
<desc>Speed 5.7 km/h Distance 6.30 km</desc>
<time>2010-03-03T17:01:23.95</time>
<name>3839</name>
</trkpt>
<trkpt lat="48.933937" lon="8.676213">
<ele>386.5</ele>
<speed>5.6</speed>
<course>326.6</course>
<desc>Speed 5.6 km/h Distance 6.30 km</desc>
<time>2010-03-03T17:01:24.96</time>
<name>3840</name>
</trkpt>
<trkpt lat="48.933948" lon="8.676202">
<ele>386.0</ele>
<speed>5.4</speed>
<course>322.8</course>
<desc>Speed 5.4 km/h Distance 6.30 km</desc>
<time>2010-03-03T17:01:25.95</time>
<name>3841</name>
</trkpt>
<trkpt lat="48.933960" lon="8.676188">
<ele>386.0</ele>
<speed>5.5</speed>
<course>318.7</course>
<desc>Speed 5.5 km/h Distance 6.30 km</desc>
<time>2010-03-03T17:01:26.95</time>
<name>3842</name>
</trkpt>
<trkpt lat="48.933970" lon="8.676175">
<ele>386.0</ele>
<speed>5.8</speed>
<course>323.1</course>
<desc>Speed 5.8 km/h Distance 6.31 km</desc>
<time>2010-03-03T17:01:27.96</time>
<name>3843</name>
</trkpt>
<trkpt lat="48.933982" lon="8.676162">
<ele>386.5</ele>
<speed>5.5</speed>
<course>323.1</course>
<desc>Speed 5.5 km/h Distance 6.31 km</desc>
<time>2010-03-03T17:01:28.96</time>
<name>3844</name>
</trkpt>
<trkpt lat="48.933993" lon="8.676148">
<ele>386.5</ele>
<speed>5.8</speed>
<course>319.8</course>
<desc>Speed 5.8 km/h Distance 6.31 km</desc>
<time>2010-03-03T17:01:29.96</time>
<name>3845</name>
</trkpt>
<trkpt lat="48.934005" lon="8.676133">
<ele>386.5</ele>
<speed>5.5</speed>
<course>322.5</course>
<desc>Speed 5.5 km/h Distance 6.31 km</desc>
<time>2010-03-03T17:01:30.95</time>
<name>3846</name>
</trkpt>
<trkpt lat="48.934015" lon="8.676122">
<ele>386.5</ele>
<speed>5.4</speed>
<course>326.6</course>
<desc>Speed 5.4 km/h Distance 6.31 km</desc>
<time>2010-03-03T17:01:31.95</time>
<name>3847</name>
</trkpt>
<trkpt lat="48.934027" lon="8.676110">
<ele>386.5</ele>
<speed>5.5</speed>
<course>333.6</course>
<desc>Speed 5.5 km/h Distance 6.31 km</desc>
<time>2010-03-03T17:01:32.95</time>
<name>3848</name>
</trkpt>
<trkpt lat="48.934040" lon="8.676100">
<ele>386.0</ele>
<speed>5.5</speed>
<course>315.5</course>
<desc>Speed 5.5 km/h Distance 6.31 km</desc>
<time>2010-03-03T17:01:33.95</time>
<name>3849</name>
</trkpt>
<trkpt lat="48.934050" lon="8.676085">
<ele>386.0</ele>
<speed>5.5</speed>
<course>304.7</course>
<desc>Speed 5.5 km/h Distance 6.32 km</desc>
<time>2010-03-03T17:01:34.95</time>
<name>3850</name>
</trkpt>
<trkpt lat="48.934058" lon="8.676067">
<ele>386.5</ele>
<speed>5.9</speed>
<course>301.3</course>
<desc>Speed 5.9 km/h Distance 6.32 km</desc>
<time>2010-03-03T17:01:35.94</time>
<name>3851</name>
</trkpt>
<trkpt lat="48.934065" lon="8.676050">
<ele>386.5</ele>
<speed>5.6</speed>
<course>284.2</course>
<desc>Speed 5.6 km/h Distance 6.32 km</desc>
<time>2010-03-03T17:01:36.95</time>
<name>3852</name>
</trkpt>
<trkpt lat="48.934068" lon="8.676030">
<ele>386.5</ele>
<speed>5.4</speed>
<course>270.0</course>
<desc>Speed 5.4 km/h Distance 6.32 km</desc>
<time>2010-03-03T17:01:37.95</time>
<name>3853</name>
</trkpt>
<trkpt lat="48.934068" lon="8.676012">
<ele>385.5</ele>
<speed>4.9</speed>
<course>247.4</course>
<desc>Speed 4.9 km/h Distance 6.32 km</desc>
<time>2010-03-03T17:01:38.95</time>
<name>3854</name>
</trkpt>
<trkpt lat="48.934063" lon="8.675993">
<ele>385.5</ele>
<speed>5.7</speed>
<course>241.0</course>
<desc>Speed 5.7 km/h Distance 6.32 km</desc>
<time>2010-03-03T17:01:39.95</time>
<name>3855</name>
</trkpt>
<trkpt lat="48.934057" lon="8.675975">
<ele>385.5</ele>
<speed>5.7</speed>
<course>222.6</course>
<desc>Speed 5.7 km/h Distance 6.33 km</desc>
<time>2010-03-03T17:01:40.95</time>
<name>3856</name>
</trkpt>
<trkpt lat="48.934040" lon="8.675952">
<ele>386.0</ele>
<speed>8.0</speed>
<course>167.0</course>
<desc>Speed 8.0 km/h Distance 6.33 km</desc>
<time>2010-03-03T17:01:41.94</time>
<name>3857</name>
</trkpt>
<trkpt lat="48.934007" lon="8.675963">
<ele>386.5</ele>
<speed>13.0</speed>
<course>177.3</course>
<desc>Speed 13.0 km/h Distance 6.33 km</desc>
<time>2010-03-03T17:01:42.94</time>
<name>3858</name>
</trkpt>
<trkpt lat="48.933987" lon="8.675965">
<ele>387.0</ele>
<speed>8.1</speed>
<course>221.2</course>
<desc>Speed 8.1 km/h Distance 6.33 km</desc>
<time>2010-03-03T17:01:43.94</time>
<name>3859</name>
</trkpt>
<trkpt lat="48.933977" lon="8.675952">
<ele>387.0</ele>
<speed>5.8</speed>
<course>216.9</course>
<desc>Speed 5.8 km/h Distance 6.34 km</desc>
<time>2010-03-03T17:01:44.95</time>
<name>3860</name>
</trkpt>
<trkpt lat="48.933965" lon="8.675938">
<ele>387.5</ele>
<speed>5.5</speed>
<course>209.8</course>
<desc>Speed 5.5 km/h Distance 6.34 km</desc>
<time>2010-03-03T17:01:45.94</time>
<name>3861</name>
</trkpt>
<trkpt lat="48.933952" lon="8.675927">
<ele>387.5</ele>
<speed>5.7</speed>
<course>217.5</course>
<desc>Speed 5.7 km/h Distance 6.34 km</desc>
<time>2010-03-03T17:01:46.93</time>
<name>3862</name>
</trkpt>
<trkpt lat="48.933942" lon="8.675915">
<ele>387.5</ele>
<speed>5.5</speed>
<course>227.6</course>
<desc>Speed 5.5 km/h Distance 6.34 km</desc>
<time>2010-03-03T17:01:47.93</time>
<name>3863</name>
</trkpt>
<trkpt lat="48.933932" lon="8.675898">
<ele>388.0</ele>
<speed>5.3</speed>
<course>200.1</course>
<desc>Speed 5.3 km/h Distance 6.34 km</desc>
<time>2010-03-03T17:01:48.94</time>
<name>3864</name>
</trkpt>
<trkpt lat="48.933917" lon="8.675890">
<ele>388.0</ele>
<speed>6.4</speed>
<course>198.1</course>
<desc>Speed 6.4 km/h Distance 6.34 km</desc>
<time>2010-03-03T17:01:49.94</time>
<name>3865</name>
</trkpt>
<trkpt lat="48.933903" lon="8.675883">
<ele>388.0</ele>
<speed>5.8</speed>
<course>196.0</course>
<desc>Speed 5.8 km/h Distance 6.34 km</desc>
<time>2010-03-03T17:01:50.93</time>
<name>3866</name>
</trkpt>
<trkpt lat="48.933888" lon="8.675877">
<ele>387.5</ele>
<speed>6.8</speed>
<course>205.2</course>
<desc>Speed 6.8 km/h Distance 6.35 km</desc>
<time>2010-03-03T17:01:51.94</time>
<name>3867</name>
</trkpt>
<trkpt lat="48.933877" lon="8.675868">
<ele>387.5</ele>
<speed>5.3</speed>
<course>206.4</course>
<desc>Speed 5.3 km/h Distance 6.35 km</desc>
<time>2010-03-03T17:01:52.94</time>
<name>3868</name>
</trkpt>
<trkpt lat="48.933863" lon="8.675858">
<ele>387.5</ele>
<speed>6.2</speed>
<course>209.4</course>
<desc>Speed 6.2 km/h Distance 6.35 km</desc>
<time>2010-03-03T17:01:53.94</time>
<name>3869</name>
</trkpt>
<trkpt lat="48.933852" lon="8.675848">
<ele>387.5</ele>
<speed>5.5</speed>
<course>200.1</course>
<desc>Speed 5.5 km/h Distance 6.35 km</desc>
<time>2010-03-03T17:01:54.93</time>
<name>3870</name>
</trkpt>
<trkpt lat="48.933837" lon="8.675840">
<ele>388.0</ele>
<speed>6.0</speed>
<course>205.2</course>
<desc>Speed 6.0 km/h Distance 6.35 km</desc>
<time>2010-03-03T17:01:55.93</time>
<name>3871</name>
</trkpt>
<trkpt lat="48.933825" lon="8.675832">
<ele>388.5</ele>
<speed>5.4</speed>
<course>202.1</course>
<desc>Speed 5.4 km/h Distance 6.35 km</desc>
<time>2010-03-03T17:01:56.93</time>
<name>3872</name>
</trkpt>
<trkpt lat="48.933812" lon="8.675823">
<ele>388.5</ele>
<speed>5.9</speed>
<course>194.9</course>
<desc>Speed 5.9 km/h Distance 6.36 km</desc>
<time>2010-03-03T17:01:57.94</time>
<name>3873</name>
</trkpt>
<trkpt lat="48.933795" lon="8.675817">
<ele>388.5</ele>
<speed>6.8</speed>
<course>206.0</course>
<desc>Speed 6.8 km/h Distance 6.36 km</desc>
<time>2010-03-03T17:01:58.93</time>
<name>3874</name>
</trkpt>
<trkpt lat="48.933782" lon="8.675807">
<ele>389.0</ele>
<speed>6.0</speed>
<course>202.6</course>
<desc>Speed 6.0 km/h Distance 6.36 km</desc>
<time>2010-03-03T17:01:59.93</time>
<name>3875</name>
</trkpt>
<trkpt lat="48.933768" lon="8.675798">
<ele>389.0</ele>
<speed>5.8</speed>
<course>202.6</course>
<desc>Speed 5.8 km/h Distance 6.36 km</desc>
<time>2010-03-03T17:02:00.93</time>
<name>3876</name>
</trkpt>
<trkpt lat="48.933755" lon="8.675790">
<ele>389.0</ele>
<speed>5.9</speed>
<course>202.6</course>
<desc>Speed 5.9 km/h Distance 6.36 km</desc>
<time>2010-03-03T17:02:01.93</time>
<name>3877</name>
</trkpt>
<trkpt lat="48.933742" lon="8.675782">
<ele>389.5</ele>
<speed>5.9</speed>
<course>202.6</course>
<desc>Speed 5.9 km/h Distance 6.36 km</desc>
<time>2010-03-03T17:02:02.98</time>
<name>3878</name>
</trkpt>
<trkpt lat="48.933728" lon="8.675773">
<ele>389.5</ele>
<speed>6.0</speed>
<course>202.1</course>
<desc>Speed 6.0 km/h Distance 6.37 km</desc>
<time>2010-03-03T17:02:03.92</time>
<name>3879</name>
</trkpt>
<trkpt lat="48.933715" lon="8.675765">
<ele>389.5</ele>
<speed>5.6</speed>
<course>196.0</course>
<desc>Speed 5.6 km/h Distance 6.37 km</desc>
<time>2010-03-03T17:02:04.92</time>
<name>3880</name>
</trkpt>
<trkpt lat="48.933700" lon="8.675758">
<ele>389.5</ele>
<speed>6.0</speed>
<course>205.2</course>
<desc>Speed 6.0 km/h Distance 6.37 km</desc>
<time>2010-03-03T17:02:05.92</time>
<name>3881</name>
</trkpt>
<trkpt lat="48.933688" lon="8.675750">
<ele>390.0</ele>
<speed>6.0</speed>
<course>213.2</course>
<desc>Speed 6.0 km/h Distance 6.37 km</desc>
<time>2010-03-03T17:02:06.92</time>
<name>3882</name>
</trkpt>
<trkpt lat="48.933678" lon="8.675740">
<ele>390.0</ele>
<speed>5.4</speed>
<course>209.4</course>
<desc>Speed 5.4 km/h Distance 6.37 km</desc>
<time>2010-03-03T17:02:07.93</time>
<name>3883</name>
</trkpt>
<trkpt lat="48.933667" lon="8.675730">
<ele>390.0</ele>
<speed>5.5</speed>
<course>196.0</course>
<desc>Speed 5.5 km/h Distance 6.37 km</desc>
<time>2010-03-03T17:02:08.93</time>
<name>3884</name>
</trkpt>
<trkpt lat="48.933655" lon="8.675725">
<ele>390.0</ele>
<speed>5.3</speed>
<course>184.1</course>
<desc>Speed 5.3 km/h Distance 6.37 km</desc>
<time>2010-03-03T17:02:09.92</time>
<name>3885</name>
</trkpt>
<trkpt lat="48.933638" lon="8.675723">
<ele>390.0</ele>
<speed>7.0</speed>
<course>188.8</course>
<desc>Speed 7.0 km/h Distance 6.38 km</desc>
<time>2010-03-03T17:02:10.92</time>
<name>3886</name>
</trkpt>
<trkpt lat="48.933623" lon="8.675720">
<ele>390.0</ele>
<speed>5.8</speed>
<course>192.2</course>
<desc>Speed 5.8 km/h Distance 6.38 km</desc>
<time>2010-03-03T17:02:11.92</time>
<name>3887</name>
</trkpt>
<trkpt lat="48.933608" lon="8.675715">
<ele>390.0</ele>
<speed>6.7</speed>
<course>204.6</course>
<desc>Speed 6.7 km/h Distance 6.38 km</desc>
<time>2010-03-03T17:02:12.92</time>
<name>3888</name>
</trkpt>
<trkpt lat="48.933597" lon="8.675707">
<ele>390.5</ele>
<speed>5.2</speed>
<course>187.5</course>
<desc>Speed 5.2 km/h Distance 6.38 km</desc>
<time>2010-03-03T17:02:13.92</time>
<name>3889</name>
</trkpt>
<trkpt lat="48.933573" lon="8.675702">
<ele>390.0</ele>
<speed>9.0</speed>
<course>196.6</course>
<desc>Speed 9.0 km/h Distance 6.38 km</desc>
<time>2010-03-03T17:02:14.92</time>
<name>3890</name>
</trkpt>
<trkpt lat="48.933558" lon="8.675695">
<ele>390.0</ele>
<speed>6.5</speed>
<course>209.4</course>
<desc>Speed 6.5 km/h Distance 6.39 km</desc>
<time>2010-03-03T17:02:15.92</time>
<name>3891</name>
</trkpt>
<trkpt lat="48.933547" lon="8.675685">
<ele>390.0</ele>
<speed>6.2</speed>
<course>196.0</course>
<desc>Speed 6.2 km/h Distance 6.39 km</desc>
<time>2010-03-03T17:02:16.91</time>
<name>3892</name>
</trkpt>
<trkpt lat="48.933532" lon="8.675678">
<ele>390.5</ele>
<speed>6.8</speed>
<course>224.5</course>
<desc>Speed 6.8 km/h Distance 6.39 km</desc>
<time>2010-03-03T17:02:17.91</time>
<name>3893</name>
</trkpt>
<trkpt lat="48.933522" lon="8.675663">
<ele>390.0</ele>
<speed>5.7</speed>
<course>174.6</course>
<desc>Speed 5.7 km/h Distance 6.39 km</desc>
<time>2010-03-03T17:02:18.92</time>
<name>3894</name>
</trkpt>
<trkpt lat="48.933475" lon="8.675670">
<ele>391.0</ele>
<speed>8.0</speed>
<course>190.2</course>
<desc>Speed 8.0 km/h Distance 6.40 km</desc>
<time>2010-03-03T17:02:20.91</time>
<name>3895</name>
</trkpt>
<trkpt lat="48.933457" lon="8.675665">
<ele>391.5</ele>
<speed>7.5</speed>
<course>202.1</course>
<desc>Speed 7.5 km/h Distance 6.40 km</desc>
<time>2010-03-03T17:02:21.91</time>
<name>3896</name>
</trkpt>
<trkpt lat="48.933443" lon="8.675657">
<ele>391.5</ele>
<speed>6.3</speed>
<course>198.1</course>
<desc>Speed 6.3 km/h Distance 6.40 km</desc>
<time>2010-03-03T17:02:22.91</time>
<name>3897</name>
</trkpt>
<trkpt lat="48.933427" lon="8.675648">
<ele>391.5</ele>
<speed>6.5</speed>
<course>203.7</course>
<desc>Speed 6.5 km/h Distance 6.40 km</desc>
<time>2010-03-03T17:02:23.92</time>
<name>3898</name>
</trkpt>
<trkpt lat="48.933412" lon="8.675638">
<ele>391.5</ele>
<speed>6.7</speed>
<course>194.9</course>
<desc>Speed 6.7 km/h Distance 6.40 km</desc>
<time>2010-03-03T17:02:24.91</time>
<name>3899</name>
</trkpt>
<trkpt lat="48.933395" lon="8.675632">
<ele>391.5</ele>
<speed>7.3</speed>
<course>203.5</course>
<desc>Speed 7.3 km/h Distance 6.41 km</desc>
<time>2010-03-03T17:02:25.91</time>
<name>3900</name>
</trkpt>
<trkpt lat="48.933380" lon="8.675622">
<ele>391.5</ele>
<speed>6.4</speed>
<course>206.2</course>
<desc>Speed 6.4 km/h Distance 6.41 km</desc>
<time>2010-03-03T17:02:26.92</time>
<name>3901</name>
</trkpt>
<trkpt lat="48.933367" lon="8.675612">
<ele>391.5</ele>
<speed>6.4</speed>
<course>216.9</course>
<desc>Speed 6.4 km/h Distance 6.41 km</desc>
<time>2010-03-03T17:02:27.91</time>
<name>3902</name>
</trkpt>
<trkpt lat="48.933355" lon="8.675598">
<ele>391.0</ele>
<speed>6.4</speed>
<course>194.9</course>
<desc>Speed 6.4 km/h Distance 6.41 km</desc>
<time>2010-03-03T17:02:28.91</time>
<name>3903</name>
</trkpt>
<trkpt lat="48.933338" lon="8.675592">
<ele>391.5</ele>
<speed>6.9</speed>
<course>200.1</course>
<desc>Speed 6.9 km/h Distance 6.41 km</desc>
<time>2010-03-03T17:02:29.91</time>
<name>3904</name>
</trkpt>
<trkpt lat="48.933323" lon="8.675583">
<ele>391.5</ele>
<speed>6.6</speed>
<course>203.7</course>
<desc>Speed 6.6 km/h Distance 6.41 km</desc>
<time>2010-03-03T17:02:30.91</time>
<name>3905</name>
</trkpt>
<trkpt lat="48.933308" lon="8.675573">
<ele>391.0</ele>
<speed>7.3</speed>
<course>190.2</course>
<desc>Speed 7.3 km/h Distance 6.42 km</desc>
<time>2010-03-03T17:02:31.91</time>
<name>3906</name>
</trkpt>
<trkpt lat="48.933290" lon="8.675568">
<ele>391.5</ele>
<speed>8.3</speed>
<course>169.6</course>
<desc>Speed 8.3 km/h Distance 6.42 km</desc>
<time>2010-03-03T17:02:32.90</time>
<name>3907</name>
</trkpt>
<trkpt lat="48.933260" lon="8.675577">
<ele>392.0</ele>
<speed>13.5</speed>
<course>186.6</course>
<desc>Speed 13.5 km/h Distance 6.42 km</desc>
<time>2010-03-03T17:02:33.90</time>
<name>3908</name>
</trkpt>
<trkpt lat="48.933240" lon="8.675573">
<ele>392.0</ele>
<speed>9.1</speed>
<course>243.1</course>
<desc>Speed 9.1 km/h Distance 6.42 km</desc>
<time>2010-03-03T17:02:34.90</time>
<name>3909</name>
</trkpt>
<trkpt lat="48.933233" lon="8.675553">
<ele>392.0</ele>
<speed>6.3</speed>
<course>243.1</course>
<desc>Speed 6.3 km/h Distance 6.43 km</desc>
<time>2010-03-03T17:02:35.90</time>
<name>3910</name>
</trkpt>
<trkpt lat="48.933227" lon="8.675533">
<ele>392.0</ele>
<speed>5.8</speed>
<course>209.8</course>
<desc>Speed 5.8 km/h Distance 6.43 km</desc>
<time>2010-03-03T17:02:36.90</time>
<name>3911</name>
</trkpt>
<trkpt lat="48.933213" lon="8.675522">
<ele>391.5</ele>
<speed>6.2</speed>
<course>251.9</course>
<desc>Speed 6.2 km/h Distance 6.43 km</desc>
<time>2010-03-03T17:02:37.90</time>
<name>3912</name>
</trkpt>
<trkpt lat="48.933208" lon="8.675498">
<ele>391.0</ele>
<speed>5.5</speed>
<course>203.7</course>
<desc>Speed 5.5 km/h Distance 6.43 km</desc>
<time>2010-03-03T17:02:38.90</time>
<name>3913</name>
</trkpt>
<trkpt lat="48.933193" lon="8.675488">
<ele>391.0</ele>
<speed>7.3</speed>
<course>246.5</course>
<desc>Speed 7.3 km/h Distance 6.43 km</desc>
<time>2010-03-03T17:02:39.90</time>
<name>3914</name>
</trkpt>
<trkpt lat="48.933187" lon="8.675465">
<ele>390.0</ele>
<speed>6.6</speed>
<course>223.3</course>
<desc>Speed 6.6 km/h Distance 6.43 km</desc>
<time>2010-03-03T17:02:40.90</time>
<name>3915</name>
</trkpt>
<trkpt lat="48.933175" lon="8.675448">
<ele>390.0</ele>
<speed>6.3</speed>
<course>223.3</course>
<desc>Speed 6.3 km/h Distance 6.44 km</desc>
<time>2010-03-03T17:02:41.90</time>
<name>3916</name>
</trkpt>
<trkpt lat="48.933163" lon="8.675432">
<ele>389.5</ele>
<speed>6.4</speed>
<course>217.0</course>
<desc>Speed 6.4 km/h Distance 6.44 km</desc>
<time>2010-03-03T17:02:42.90</time>
<name>3917</name>
</trkpt>
<trkpt lat="48.933152" lon="8.675418">
<ele>389.0</ele>
<speed>6.2</speed>
<course>203.7</course>
<desc>Speed 6.2 km/h Distance 6.44 km</desc>
<time>2010-03-03T17:02:43.90</time>
<name>3918</name>
</trkpt>
<trkpt lat="48.933137" lon="8.675408">
<ele>389.0</ele>
<speed>6.6</speed>
<course>199.9</course>
<desc>Speed 6.6 km/h Distance 6.44 km</desc>
<time>2010-03-03T17:02:44.89</time>
<name>3919</name>
</trkpt>
<trkpt lat="48.933122" lon="8.675400">
<ele>388.5</ele>
<speed>6.3</speed>
<course>198.1</course>
<desc>Speed 6.3 km/h Distance 6.44 km</desc>
<time>2010-03-03T17:02:45.89</time>
<name>3920</name>
</trkpt>
<trkpt lat="48.933105" lon="8.675392">
<ele>388.5</ele>
<speed>6.4</speed>
<course>206.2</course>
<desc>Speed 6.4 km/h Distance 6.44 km</desc>
<time>2010-03-03T17:02:46.89</time>
<name>3921</name>
</trkpt>
<trkpt lat="48.933092" lon="8.675382">
<ele>388.0</ele>
<speed>6.6</speed>
<course>206.4</course>
<desc>Speed 6.6 km/h Distance 6.45 km</desc>
<time>2010-03-03T17:02:47.89</time>
<name>3922</name>
</trkpt>
<trkpt lat="48.933078" lon="8.675372">
<ele>387.5</ele>
<speed>6.4</speed>
<course>210.0</course>
<desc>Speed 6.4 km/h Distance 6.45 km</desc>
<time>2010-03-03T17:02:48.89</time>
<name>3923</name>
</trkpt>
<trkpt lat="48.933065" lon="8.675360">
<ele>387.0</ele>
<speed>6.3</speed>
<course>217.0</course>
<desc>Speed 6.3 km/h Distance 6.45 km</desc>
<time>2010-03-03T17:02:49.89</time>
<name>3924</name>
</trkpt>
<trkpt lat="48.933053" lon="8.675347">
<ele>386.5</ele>
<speed>6.2</speed>
<course>228.4</course>
<desc>Speed 6.2 km/h Distance 6.45 km</desc>
<time>2010-03-03T17:02:50.89</time>
<name>3925</name>
</trkpt>
<trkpt lat="48.933042" lon="8.675327">
<ele>386.5</ele>
<speed>6.3</speed>
<course>237.6</course>
<desc>Speed 6.3 km/h Distance 6.45 km</desc>
<time>2010-03-03T17:02:51.89</time>
<name>3926</name>
</trkpt>
<trkpt lat="48.933033" lon="8.675307">
<ele>385.5</ele>
<speed>6.2</speed>
<course>213.4</course>
<desc>Speed 6.2 km/h Distance 6.46 km</desc>
<time>2010-03-03T17:02:52.89</time>
<name>3927</name>
</trkpt>
<trkpt lat="48.933020" lon="8.675293">
<ele>385.5</ele>
<speed>6.4</speed>
<course>210.3</course>
<desc>Speed 6.4 km/h Distance 6.46 km</desc>
<time>2010-03-03T17:02:53.89</time>
<name>3928</name>
</trkpt>
<trkpt lat="48.933005" lon="8.675280">
<ele>385.5</ele>
<speed>6.4</speed>
<course>213.4</course>
<desc>Speed 6.4 km/h Distance 6.46 km</desc>
<time>2010-03-03T17:02:54.89</time>
<name>3929</name>
</trkpt>
<trkpt lat="48.932992" lon="8.675267">
<ele>385.0</ele>
<speed>6.2</speed>
<course>206.4</course>
<desc>Speed 6.2 km/h Distance 6.46 km</desc>
<time>2010-03-03T17:02:55.89</time>
<name>3930</name>
</trkpt>
<trkpt lat="48.932978" lon="8.675257">
<ele>384.5</ele>
<speed>5.9</speed>
<course>217.0</course>
<desc>Speed 5.9 km/h Distance 6.46 km</desc>
<time>2010-03-03T17:02:56.89</time>
<name>3931</name>
</trkpt>
<trkpt lat="48.932967" lon="8.675243">
<ele>384.0</ele>
<speed>6.0</speed>
<course>207.0</course>
<desc>Speed 6.0 km/h Distance 6.46 km</desc>
<time>2010-03-03T17:02:57.89</time>
<name>3932</name>
</trkpt>
<trkpt lat="48.932952" lon="8.675232">
<ele>384.0</ele>
<speed>6.4</speed>
<course>203.7</course>
<desc>Speed 6.4 km/h Distance 6.47 km</desc>
<time>2010-03-03T17:02:58.89</time>
<name>3933</name>
</trkpt>
<trkpt lat="48.932937" lon="8.675222">
<ele>383.5</ele>
<speed>6.4</speed>
<course>210.3</course>
<desc>Speed 6.4 km/h Distance 6.47 km</desc>
<time>2010-03-03T17:02:59.88</time>
<name>3934</name>
</trkpt>
<trkpt lat="48.932922" lon="8.675208">
<ele>383.0</ele>
<speed>6.6</speed>
<course>219.4</course>
<desc>Speed 6.6 km/h Distance 6.47 km</desc>
<time>2010-03-03T17:03:00.88</time>
<name>3935</name>
</trkpt>
<trkpt lat="48.932908" lon="8.675192">
<ele>382.5</ele>
<speed>6.2</speed>
<course>201.5</course>
<desc>Speed 6.2 km/h Distance 6.47 km</desc>
<time>2010-03-03T17:03:01.88</time>
<name>3936</name>
</trkpt>
<trkpt lat="48.932892" lon="8.675182">
<ele>382.0</ele>
<speed>7.2</speed>
<course>230.3</course>
<desc>Speed 7.2 km/h Distance 6.47 km</desc>
<time>2010-03-03T17:03:02.88</time>
<name>3937</name>
</trkpt>
<trkpt lat="48.932882" lon="8.675163">
<ele>382.0</ele>
<speed>6.4</speed>
<course>213.3</course>
<desc>Speed 6.4 km/h Distance 6.48 km</desc>
<time>2010-03-03T17:03:03.88</time>
<name>3938</name>
</trkpt>
<trkpt lat="48.932867" lon="8.675148">
<ele>381.5</ele>
<speed>6.6</speed>
<course>210.3</course>
<desc>Speed 6.6 km/h Distance 6.48 km</desc>
<time>2010-03-03T17:03:04.88</time>
<name>3939</name>
</trkpt>
<trkpt lat="48.932852" lon="8.675135">
<ele>381.0</ele>
<speed>6.5</speed>
<course>213.3</course>
<desc>Speed 6.5 km/h Distance 6.48 km</desc>
<time>2010-03-03T17:03:05.88</time>
<name>3940</name>
</trkpt>
<trkpt lat="48.932838" lon="8.675122">
<ele>381.0</ele>
<speed>6.5</speed>
<course>213.3</course>
<desc>Speed 6.5 km/h Distance 6.48 km</desc>
<time>2010-03-03T17:03:06.88</time>
<name>3941</name>
</trkpt>
<trkpt lat="48.932823" lon="8.675107">
<ele>380.5</ele>
<speed>6.8</speed>
<course>220.4</course>
<desc>Speed 6.8 km/h Distance 6.48 km</desc>
<time>2010-03-03T17:03:07.88</time>
<name>3942</name>
</trkpt>
<trkpt lat="48.932812" lon="8.675092">
<ele>380.0</ele>
<speed>6.2</speed>
<course>196.6</course>
<desc>Speed 6.2 km/h Distance 6.48 km</desc>
<time>2010-03-03T17:03:08.89</time>
<name>3943</name>
</trkpt>
<trkpt lat="48.932793" lon="8.675083">
<ele>380.0</ele>
<speed>7.1</speed>
<course>216.6</course>
<desc>Speed 7.1 km/h Distance 6.49 km</desc>
<time>2010-03-03T17:03:09.88</time>
<name>3944</name>
</trkpt>
<trkpt lat="48.932780" lon="8.675068">
<ele>379.5</ele>
<speed>6.7</speed>
<course>213.4</course>
<desc>Speed 6.7 km/h Distance 6.49 km</desc>
<time>2010-03-03T17:03:10.88</time>
<name>3945</name>
</trkpt>
<trkpt lat="48.932767" lon="8.675055">
<ele>379.5</ele>
<speed>6.7</speed>
<course>216.5</course>
<desc>Speed 6.7 km/h Distance 6.49 km</desc>
<time>2010-03-03T17:03:11.88</time>
<name>3946</name>
</trkpt>
<trkpt lat="48.932753" lon="8.675040">
<ele>379.0</ele>
<speed>6.5</speed>
<course>210.3</course>
<desc>Speed 6.5 km/h Distance 6.49 km</desc>
<time>2010-03-03T17:03:12.88</time>
<name>3947</name>
</trkpt>
<trkpt lat="48.932738" lon="8.675027">
<ele>379.0</ele>
<speed>6.6</speed>
<course>210.3</course>
<desc>Speed 6.6 km/h Distance 6.49 km</desc>
<time>2010-03-03T17:03:13.88</time>
<name>3948</name>
</trkpt>
<trkpt lat="48.932723" lon="8.675013">
<ele>378.5</ele>
<speed>6.5</speed>
<course>225.9</course>
<desc>Speed 6.5 km/h Distance 6.50 km</desc>
<time>2010-03-03T17:03:14.87</time>
<name>3949</name>
</trkpt>
<trkpt lat="48.932712" lon="8.674995">
<ele>378.0</ele>
<speed>6.4</speed>
<course>223.3</course>
<desc>Speed 6.4 km/h Distance 6.50 km</desc>
<time>2010-03-03T17:03:15.87</time>
<name>3950</name>
</trkpt>
<trkpt lat="48.932700" lon="8.674978">
<ele>378.0</ele>
<speed>6.8</speed>
<course>207.7</course>
<desc>Speed 6.8 km/h Distance 6.50 km</desc>
<time>2010-03-03T17:03:16.88</time>
<name>3951</name>
</trkpt>
<trkpt lat="48.932683" lon="8.674965">
<ele>377.5</ele>
<speed>7.2</speed>
<course>213.3</course>
<desc>Speed 7.2 km/h Distance 6.50 km</desc>
<time>2010-03-03T17:03:17.87</time>
<name>3952</name>
</trkpt>
<trkpt lat="48.932668" lon="8.674950">
<ele>377.5</ele>
<speed>7.2</speed>
<course>219.4</course>
<desc>Speed 7.2 km/h Distance 6.50 km</desc>
<time>2010-03-03T17:03:18.87</time>
<name>3953</name>
</trkpt>
<trkpt lat="48.932655" lon="8.674933">
<ele>377.0</ele>
<speed>7.0</speed>
<course>210.3</course>
<desc>Speed 7.0 km/h Distance 6.51 km</desc>
<time>2010-03-03T17:03:19.87</time>
<name>3954</name>
</trkpt>
<trkpt lat="48.932640" lon="8.674920">
<ele>377.0</ele>
<speed>6.7</speed>
<course>206.9</course>
<desc>Speed 6.7 km/h Distance 6.51 km</desc>
<time>2010-03-03T17:03:20.87</time>
<name>3955</name>
</trkpt>
<trkpt lat="48.932625" lon="8.674908">
<ele>377.0</ele>
<speed>6.7</speed>
<course>223.1</course>
<desc>Speed 6.7 km/h Distance 6.51 km</desc>
<time>2010-03-03T17:03:21.88</time>
<name>3956</name>
</trkpt>
<trkpt lat="48.932613" lon="8.674892">
<ele>376.5</ele>
<speed>6.4</speed>
<course>219.4</course>
<desc>Speed 6.4 km/h Distance 6.51 km</desc>
<time>2010-03-03T17:03:22.87</time>
<name>3957</name>
</trkpt>
<trkpt lat="48.932600" lon="8.674875">
<ele>376.5</ele>
<speed>6.8</speed>
<course>206.9</course>
<desc>Speed 6.8 km/h Distance 6.51 km</desc>
<time>2010-03-03T17:03:23.87</time>
<name>3958</name>
</trkpt>
<trkpt lat="48.932585" lon="8.674863">
<ele>376.0</ele>
<speed>6.7</speed>
<course>198.1</course>
<desc>Speed 6.7 km/h Distance 6.52 km</desc>
<time>2010-03-03T17:03:24.87</time>
<name>3959</name>
</trkpt>
<trkpt lat="48.932568" lon="8.674855">
<ele>376.0</ele>
<speed>6.9</speed>
<course>177.5</course>
<desc>Speed 6.9 km/h Distance 6.52 km</desc>
<time>2010-03-03T17:03:25.88</time>
<name>3960</name>
</trkpt>
<trkpt lat="48.932518" lon="8.674858">
<ele>376.5</ele>
<speed>6.4</speed>
<course>213.4</course>
<desc>Speed 6.4 km/h Distance 6.52 km</desc>
<time>2010-03-03T17:03:27.87</time>
<name>3961</name>
</trkpt>
<trkpt lat="48.932505" lon="8.674845">
<ele>376.5</ele>
<speed>6.3</speed>
<course>203.8</course>
<desc>Speed 6.3 km/h Distance 6.52 km</desc>
<time>2010-03-03T17:03:28.87</time>
<name>3962</name>
</trkpt>
<trkpt lat="48.932490" lon="8.674835">
<ele>376.5</ele>
<speed>6.6</speed>
<course>201.5</course>
<desc>Speed 6.6 km/h Distance 6.53 km</desc>
<time>2010-03-03T17:03:29.86</time>
<name>3963</name>
</trkpt>
<trkpt lat="48.932473" lon="8.674825">
<ele>376.5</ele>
<speed>6.8</speed>
<course>199.7</course>
<desc>Speed 6.8 km/h Distance 6.53 km</desc>
<time>2010-03-03T17:03:30.86</time>
<name>3964</name>
</trkpt>
<trkpt lat="48.932455" lon="8.674815">
<ele>376.0</ele>
<speed>7.0</speed>
<course>206.9</course>
<desc>Speed 7.0 km/h Distance 6.53 km</desc>
<time>2010-03-03T17:03:31.86</time>
<name>3965</name>
</trkpt>
<trkpt lat="48.932440" lon="8.674803">
<ele>375.5</ele>
<speed>6.6</speed>
<course>216.6</course>
<desc>Speed 6.6 km/h Distance 6.53 km</desc>
<time>2010-03-03T17:03:32.86</time>
<name>3966</name>
</trkpt>
<trkpt lat="48.932427" lon="8.674788">
<ele>375.0</ele>
<speed>6.5</speed>
<course>213.4</course>
<desc>Speed 6.5 km/h Distance 6.53 km</desc>
<time>2010-03-03T17:03:33.86</time>
<name>3967</name>
</trkpt>
<trkpt lat="48.932413" lon="8.674775">
<ele>375.0</ele>
<speed>6.7</speed>
<course>199.7</course>
<desc>Speed 6.7 km/h Distance 6.54 km</desc>
<time>2010-03-03T17:03:34.86</time>
<name>3968</name>
</trkpt>
<trkpt lat="48.932395" lon="8.674765">
<ele>374.5</ele>
<speed>6.7</speed>
<course>203.7</course>
<desc>Speed 6.7 km/h Distance 6.54 km</desc>
<time>2010-03-03T17:03:35.87</time>
<name>3969</name>
</trkpt>
<trkpt lat="48.932380" lon="8.674755">
<ele>374.5</ele>
<speed>6.7</speed>
<course>203.7</course>
<desc>Speed 6.7 km/h Distance 6.54 km</desc>
<time>2010-03-03T17:03:36.86</time>
<name>3970</name>
</trkpt>
<trkpt lat="48.932365" lon="8.674745">
<ele>374.0</ele>
<speed>6.3</speed>
<course>200.1</course>
<desc>Speed 6.3 km/h Distance 6.54 km</desc>
<time>2010-03-03T17:03:37.86</time>
<name>3971</name>
</trkpt>
<trkpt lat="48.932350" lon="8.674737">
<ele>374.0</ele>
<speed>6.7</speed>
<course>227.6</course>
<desc>Speed 6.7 km/h Distance 6.54 km</desc>
<time>2010-03-03T17:03:38.86</time>
<name>3972</name>
</trkpt>
<trkpt lat="48.932340" lon="8.674720">
<ele>373.5</ele>
<speed>5.9</speed>
<course>230.4</course>
<desc>Speed 5.9 km/h Distance 6.55 km</desc>
<time>2010-03-03T17:03:39.86</time>
<name>3973</name>
</trkpt>
<trkpt lat="48.932330" lon="8.674702">
<ele>373.0</ele>
<speed>6.0</speed>
<course>232.7</course>
<desc>Speed 6.0 km/h Distance 6.55 km</desc>
<time>2010-03-03T17:03:40.86</time>
<name>3974</name>
</trkpt>
<trkpt lat="48.932322" lon="8.674685">
<ele>373.0</ele>
<speed>5.8</speed>
<course>209.8</course>
<desc>Speed 5.8 km/h Distance 6.55 km</desc>
<time>2010-03-03T17:03:41.86</time>
<name>3975</name>
</trkpt>
<trkpt lat="48.932308" lon="8.674673">
<ele>372.5</ele>
<speed>5.8</speed>
<course>190.2</course>
<desc>Speed 5.8 km/h Distance 6.55 km</desc>
<time>2010-03-03T17:03:42.86</time>
<name>3976</name>
</trkpt>
<trkpt lat="48.932290" lon="8.674668">
<ele>372.5</ele>
<speed>7.3</speed>
<course>206.4</course>
<desc>Speed 7.3 km/h Distance 6.55 km</desc>
<time>2010-03-03T17:03:43.86</time>
<name>3977</name>
</trkpt>
<trkpt lat="48.932277" lon="8.674658">
<ele>372.5</ele>
<speed>6.3</speed>
<course>213.4</course>
<desc>Speed 6.3 km/h Distance 6.55 km</desc>
<time>2010-03-03T17:03:44.85</time>
<name>3978</name>
</trkpt>
<trkpt lat="48.932265" lon="8.674647">
<ele>372.5</ele>
<speed>6.0</speed>
<course>200.1</course>
<desc>Speed 6.0 km/h Distance 6.56 km</desc>
<time>2010-03-03T17:03:45.85</time>
<name>3979</name>
</trkpt>
<trkpt lat="48.932250" lon="8.674638">
<ele>372.0</ele>
<speed>6.2</speed>
<course>202.3</course>
<desc>Speed 6.2 km/h Distance 6.56 km</desc>
<time>2010-03-03T17:03:46.85</time>
<name>3980</name>
</trkpt>
<trkpt lat="48.932237" lon="8.674630">
<ele>372.0</ele>
<speed>5.9</speed>
<course>206.0</course>
<desc>Speed 5.9 km/h Distance 6.56 km</desc>
<time>2010-03-03T17:03:47.85</time>
<name>3981</name>
</trkpt>
<trkpt lat="48.932223" lon="8.674620">
<ele>371.5</ele>
<speed>6.2</speed>
<course>209.8</course>
<desc>Speed 6.2 km/h Distance 6.56 km</desc>
<time>2010-03-03T17:03:48.85</time>
<name>3982</name>
</trkpt>
<trkpt lat="48.932210" lon="8.674608">
<ele>371.5</ele>
<speed>5.9</speed>
<course>200.1</course>
<desc>Speed 5.9 km/h Distance 6.56 km</desc>
<time>2010-03-03T17:03:49.85</time>
<name>3983</name>
</trkpt>
<trkpt lat="48.932195" lon="8.674600">
<ele>371.0</ele>
<speed>6.6</speed>
<course>213.3</course>
<desc>Speed 6.6 km/h Distance 6.56 km</desc>
<time>2010-03-03T17:03:50.85</time>
<name>3984</name>
</trkpt>
<trkpt lat="48.932183" lon="8.674588">
<ele>371.0</ele>
<speed>5.8</speed>
<course>206.0</course>
<desc>Speed 5.8 km/h Distance 6.57 km</desc>
<time>2010-03-03T17:03:51.85</time>
<name>3985</name>
</trkpt>
<trkpt lat="48.932170" lon="8.674578">
<ele>370.5</ele>
<speed>5.8</speed>
<course>203.5</course>
<desc>Speed 5.8 km/h Distance 6.57 km</desc>
<time>2010-03-03T17:03:52.85</time>
<name>3986</name>
</trkpt>
<trkpt lat="48.932155" lon="8.674568">
<ele>370.5</ele>
<speed>6.2</speed>
<course>206.2</course>
<desc>Speed 6.2 km/h Distance 6.57 km</desc>
<time>2010-03-03T17:03:53.85</time>
<name>3987</name>
</trkpt>
<trkpt lat="48.932142" lon="8.674558">
<ele>370.5</ele>
<speed>6.3</speed>
<course>213.4</course>
<desc>Speed 6.3 km/h Distance 6.57 km</desc>
<time>2010-03-03T17:03:54.85</time>
<name>3988</name>
</trkpt>
<trkpt lat="48.932130" lon="8.674547">
<ele>370.0</ele>
<speed>5.7</speed>
<course>216.9</course>
<desc>Speed 5.7 km/h Distance 6.57 km</desc>
<time>2010-03-03T17:03:55.85</time>
<name>3989</name>
</trkpt>
<trkpt lat="48.932118" lon="8.674533">
<ele>370.0</ele>
<speed>5.8</speed>
<course>216.9</course>
<desc>Speed 5.8 km/h Distance 6.57 km</desc>
<time>2010-03-03T17:03:56.94</time>
<name>3990</name>
</trkpt>
<trkpt lat="48.932107" lon="8.674520">
<ele>369.5</ele>
<speed>5.7</speed>
<course>210.1</course>
<desc>Speed 5.7 km/h Distance 6.58 km</desc>
<time>2010-03-03T17:03:57.86</time>
<name>3991</name>
</trkpt>
<trkpt lat="48.932093" lon="8.674508">
<ele>369.5</ele>
<speed>5.8</speed>
<course>206.4</course>
<desc>Speed 5.8 km/h Distance 6.58 km</desc>
<time>2010-03-03T17:03:58.85</time>
<name>3992</name>
</trkpt>
<trkpt lat="48.932080" lon="8.674498">
<ele>369.5</ele>
<speed>6.0</speed>
<course>198.1</course>
<desc>Speed 6.0 km/h Distance 6.58 km</desc>
<time>2010-03-03T17:03:59.85</time>
<name>3993</name>
</trkpt>
<trkpt lat="48.932063" lon="8.674490">
<ele>369.5</ele>
<speed>6.4</speed>
<course>202.6</course>
<desc>Speed 6.4 km/h Distance 6.58 km</desc>
<time>2010-03-03T17:04:00.85</time>
<name>3994</name>
</trkpt>
<trkpt lat="48.932050" lon="8.674482">
<ele>369.0</ele>
<speed>6.3</speed>
<course>204.7</course>
<desc>Speed 6.3 km/h Distance 6.58 km</desc>
<time>2010-03-03T17:04:01.84</time>
<name>3995</name>
</trkpt>
<trkpt lat="48.932033" lon="8.674470">
<ele>369.0</ele>
<speed>7.1</speed>
<course>207.2</course>
<desc>Speed 7.1 km/h Distance 6.58 km</desc>
<time>2010-03-03T17:04:02.84</time>
<name>3996</name>
</trkpt>
<trkpt lat="48.932018" lon="8.674458">
<ele>369.0</ele>
<speed>6.7</speed>
<course>210.1</course>
<desc>Speed 6.7 km/h Distance 6.59 km</desc>
<time>2010-03-03T17:04:03.84</time>
<name>3997</name>
</trkpt>
<trkpt lat="48.932005" lon="8.674447">
<ele>368.5</ele>
<speed>6.3</speed>
<course>213.4</course>
<desc>Speed 6.3 km/h Distance 6.59 km</desc>
<time>2010-03-03T17:04:04.84</time>
<name>3998</name>
</trkpt>
<trkpt lat="48.931992" lon="8.674433">
<ele>368.0</ele>
<speed>6.0</speed>
<course>206.2</course>
<desc>Speed 6.0 km/h Distance 6.59 km</desc>
<time>2010-03-03T17:04:05.84</time>
<name>3999</name>
</trkpt>
<trkpt lat="48.931978" lon="8.674423">
<ele>368.0</ele>
<speed>6.2</speed>
<course>220.3</course>
<desc>Speed 6.2 km/h Distance 6.59 km</desc>
<time>2010-03-03T17:04:06.84</time>
<name>4000</name>
</trkpt>
<trkpt lat="48.931967" lon="8.674408">
<ele>368.0</ele>
<speed>5.9</speed>
<course>224.6</course>
<desc>Speed 5.9 km/h Distance 6.59 km</desc>
<time>2010-03-03T17:04:07.84</time>
<name>4001</name>
</trkpt>
<trkpt lat="48.931957" lon="8.674393">
<ele>368.0</ele>
<speed>5.5</speed>
<course>217.5</course>
<desc>Speed 5.5 km/h Distance 6.59 km</desc>
<time>2010-03-03T17:04:08.85</time>
<name>4002</name>
</trkpt>
<trkpt lat="48.931947" lon="8.674382">
<ele>368.0</ele>
<speed>5.0</speed>
<course>213.2</course>
<desc>Speed 5.0 km/h Distance 6.60 km</desc>
<time>2010-03-03T17:04:09.84</time>
<name>4003</name>
</trkpt>
<trkpt lat="48.931938" lon="8.674373">
<ele>368.0</ele>
<speed>4.2</speed>
<course>270.0</course>
<desc>Speed 4.2 km/h Distance 6.60 km</desc>
<time>2010-03-03T17:04:10.84</time>
<name>4004</name>
</trkpt>
<trkpt lat="48.931938" lon="8.674372">
<ele>368.0</ele>
<speed>0.8</speed>
<course>270.0</course>
<desc>Speed 0.8 km/h Distance 6.60 km</desc>
<time>2010-03-03T17:04:11.84</time>
<name>4005</name>
</trkpt>
<trkpt lat="48.931938" lon="8.674372">
<ele>368.0</ele>
<speed>0.1</speed>
<course>270.0</course>
<desc>Speed 0.1 km/h Distance 6.60 km</desc>
<time>2010-03-03T17:04:12.84</time>
<name>4006</name>
</trkpt>
<trkpt lat="48.931938" lon="8.674372">
<ele>368.0</ele>
<speed>0.5</speed>
<course>312.6</course>
<desc>Speed 0.5 km/h Distance 6.60 km</desc>
<time>2010-03-03T17:04:13.84</time>
<name>4007</name>
</trkpt>
<trkpt lat="48.931943" lon="8.674363">
<ele>367.5</ele>
<speed>1.4</speed>
<course>270.0</course>
<desc>Speed 1.4 km/h Distance 6.60 km</desc>
<time>2010-03-03T17:04:14.84</time>
<name>4008</name>
</trkpt>
<trkpt lat="48.931943" lon="8.674357">
<ele>367.5</ele>
<speed>1.0</speed>
<course>330.8</course>
<desc>Speed 1.0 km/h Distance 6.60 km</desc>
<time>2010-03-03T17:04:15.85</time>
<name>4009</name>
</trkpt>
<trkpt lat="48.931945" lon="8.674355">
<ele>367.5</ele>
<speed>0.4</speed>
<course>270.0</course>
<desc>Speed 0.4 km/h Distance 6.60 km</desc>
<time>2010-03-03T17:04:16.84</time>
<name>4010</name>
</trkpt>
<trkpt lat="48.931945" lon="8.674353">
<ele>367.5</ele>
<speed>0.6</speed>
<course>310.1</course>
<desc>Speed 0.6 km/h Distance 6.60 km</desc>
<time>2010-03-03T17:04:17.84</time>
<name>4011</name>
</trkpt>
<trkpt lat="48.931953" lon="8.674338">
<ele>367.0</ele>
<speed>2.2</speed>
<course>290.9</course>
<desc>Speed 2.2 km/h Distance 6.60 km</desc>
<time>2010-03-03T17:04:18.84</time>
<name>4012</name>
</trkpt>
<trkpt lat="48.931955" lon="8.674332">
<ele>367.0</ele>
<speed>1.6</speed>
<course>282.3</course>
<desc>Speed 1.6 km/h Distance 6.60 km</desc>
<time>2010-03-03T17:04:19.83</time>
<name>4013</name>
</trkpt>
<trkpt lat="48.931957" lon="8.674320">
<ele>367.0</ele>
<speed>1.4</speed>
<course>325.9</course>
<desc>Speed 1.4 km/h Distance 6.60 km</desc>
<time>2010-03-03T17:04:20.83</time>
<name>4014</name>
</trkpt>
<trkpt lat="48.931962" lon="8.674315">
<ele>366.5</ele>
<speed>0.5</speed>
<course>315.5</course>
<desc>Speed 0.5 km/h Distance 6.60 km</desc>
<time>2010-03-03T17:04:21.83</time>
<name>4015</name>
</trkpt>
<trkpt lat="48.931965" lon="8.674310">
<ele>366.5</ele>
<speed>0.4</speed>
<course>270.0</course>
<desc>Speed 0.4 km/h Distance 6.60 km</desc>
<time>2010-03-03T17:04:22.84</time>
<name>4016</name>
</trkpt>
<trkpt lat="48.931965" lon="8.674308">
<ele>366.5</ele>
<speed>0.2</speed>
<course>90.0</course>
<desc>Speed 0.2 km/h Distance 6.60 km</desc>
<time>2010-03-03T17:04:23.84</time>
<name>4017</name>
</trkpt>
<trkpt lat="48.931965" lon="8.674310">
<ele>366.5</ele>
<speed>0.5</speed>
<course>270.0</course>
<desc>Speed 0.5 km/h Distance 6.60 km</desc>
<time>2010-03-03T17:04:24.84</time>
<name>4018</name>
</trkpt>
<trkpt lat="48.931965" lon="8.674308">
<ele>366.5</ele>
<speed>0.2</speed>
<course>165.1</course>
<desc>Speed 0.2 km/h Distance 6.60 km</desc>
<time>2010-03-03T17:04:25.84</time>
<name>4019</name>
</trkpt>
<trkpt lat="48.931957" lon="8.674312">
<ele>366.5</ele>
<speed>2.7</speed>
<course>178.8</course>
<desc>Speed 2.7 km/h Distance 6.60 km</desc>
<time>2010-03-03T17:04:26.84</time>
<name>4020</name>
</trkpt>
<trkpt lat="48.931943" lon="8.674312">
<ele>366.5</ele>
<speed>4.9</speed>
<course>200.9</course>
<desc>Speed 4.9 km/h Distance 6.61 km</desc>
<time>2010-03-03T17:04:27.84</time>
<name>4021</name>
</trkpt>
<trkpt lat="48.931932" lon="8.674305">
<ele>366.5</ele>
<speed>4.9</speed>
<course>194.9</course>
<desc>Speed 4.9 km/h Distance 6.61 km</desc>
<time>2010-03-03T17:04:28.84</time>
<name>4022</name>
</trkpt>
<trkpt lat="48.931920" lon="8.674300">
<ele>366.0</ele>
<speed>5.4</speed>
<course>182.2</course>
<desc>Speed 5.4 km/h Distance 6.61 km</desc>
<time>2010-03-03T17:04:29.83</time>
<name>4023</name>
</trkpt>
<trkpt lat="48.931908" lon="8.674298">
<ele>366.0</ele>
<speed>5.0</speed>
<course>336.3</course>
<desc>Speed 5.0 km/h Distance 6.61 km</desc>
<time>2010-03-03T17:04:30.83</time>
<name>4024</name>
</trkpt>
<trkpt lat="48.931933" lon="8.674282">
<ele>366.0</ele>
<speed>11.2</speed>
<course>169.6</course>
<desc>Speed 11.2 km/h Distance 6.61 km</desc>
<time>2010-03-03T17:04:31.84</time>
<name>4025</name>
</trkpt>
<trkpt lat="48.931903" lon="8.674290">
<ele>366.0</ele>
<speed>12.2</speed>
<course>193.3</course>
<desc>Speed 12.2 km/h Distance 6.62 km</desc>
<time>2010-03-03T17:04:32.83</time>
<name>4026</name>
</trkpt>
<trkpt lat="48.931885" lon="8.674283">
<ele>366.0</ele>
<speed>5.9</speed>
<course>191.2</course>
<desc>Speed 5.9 km/h Distance 6.62 km</desc>
<time>2010-03-03T17:04:33.83</time>
<name>4027</name>
</trkpt>
<trkpt lat="48.931868" lon="8.674278">
<ele>366.0</ele>
<speed>5.7</speed>
<course>176.8</course>
<desc>Speed 5.7 km/h Distance 6.62 km</desc>
<time>2010-03-03T17:04:34.83</time>
<name>4028</name>
</trkpt>
<trkpt lat="48.931847" lon="8.674280">
<ele>366.0</ele>
<speed>6.5</speed>
<course>224.7</course>
<desc>Speed 6.5 km/h Distance 6.62 km</desc>
<time>2010-03-03T17:04:35.83</time>
<name>4029</name>
</trkpt>
<trkpt lat="48.931837" lon="8.674265">
<ele>365.5</ele>
<speed>5.7</speed>
<course>200.1</course>
<desc>Speed 5.7 km/h Distance 6.62 km</desc>
<time>2010-03-03T17:04:36.84</time>
<name>4030</name>
</trkpt>
<trkpt lat="48.931822" lon="8.674257">
<ele>365.5</ele>
<speed>5.8</speed>
<course>206.0</course>
<desc>Speed 5.8 km/h Distance 6.63 km</desc>
<time>2010-03-03T17:04:37.83</time>
<name>4031</name>
</trkpt>
<trkpt lat="48.931808" lon="8.674247">
<ele>365.5</ele>
<speed>5.8</speed>
<course>187.7</course>
<desc>Speed 5.8 km/h Distance 6.63 km</desc>
<time>2010-03-03T17:04:38.83</time>
<name>4032</name>
</trkpt>
<trkpt lat="48.931792" lon="8.674243">
<ele>365.0</ele>
<speed>5.6</speed>
<course>183.9</course>
<desc>Speed 5.6 km/h Distance 6.63 km</desc>
<time>2010-03-03T17:04:39.82</time>
<name>4033</name>
</trkpt>
<trkpt lat="48.931778" lon="8.674242">
<ele>365.0</ele>
<speed>6.0</speed>
<course>175.9</course>
<desc>Speed 6.0 km/h Distance 6.63 km</desc>
<time>2010-03-03T17:04:40.82</time>
<name>4034</name>
</trkpt>
<trkpt lat="48.931762" lon="8.674243">
<ele>365.0</ele>
<speed>6.0</speed>
<course>178.8</course>
<desc>Speed 6.0 km/h Distance 6.63 km</desc>
<time>2010-03-03T17:04:41.82</time>
<name>4035</name>
</trkpt>
<trkpt lat="48.931748" lon="8.674243">
<ele>365.0</ele>
<speed>5.4</speed>
<course>167.8</course>
<desc>Speed 5.4 km/h Distance 6.63 km</desc>
<time>2010-03-03T17:04:42.82</time>
<name>4036</name>
</trkpt>
<trkpt lat="48.931733" lon="8.674248">
<ele>365.0</ele>
<speed>4.6</speed>
<course>171.9</course>
<desc>Speed 4.6 km/h Distance 6.64 km</desc>
<time>2010-03-03T17:04:43.82</time>
<name>4037</name>
</trkpt>
<trkpt lat="48.931723" lon="8.674250">
<ele>364.5</ele>
<speed>4.6</speed>
<course>167.4</course>
<desc>Speed 4.6 km/h Distance 6.64 km</desc>
<time>2010-03-03T17:04:44.82</time>
<name>4038</name>
</trkpt>
<trkpt lat="48.931708" lon="8.674255">
<ele>364.5</ele>
<speed>5.9</speed>
<course>161.6</course>
<desc>Speed 5.9 km/h Distance 6.64 km</desc>
<time>2010-03-03T17:04:45.82</time>
<name>4039</name>
</trkpt>
<trkpt lat="48.931695" lon="8.674262">
<ele>364.5</ele>
<speed>5.9</speed>
<course>165.1</course>
<desc>Speed 5.9 km/h Distance 6.64 km</desc>
<time>2010-03-03T17:04:46.82</time>
<name>4040</name>
</trkpt>
<trkpt lat="48.931678" lon="8.674268">
<ele>364.0</ele>
<speed>5.9</speed>
<course>174.7</course>
<desc>Speed 5.9 km/h Distance 6.64 km</desc>
<time>2010-03-03T17:04:47.82</time>
<name>4041</name>
</trkpt>
<trkpt lat="48.931665" lon="8.674270">
<ele>364.0</ele>
<speed>5.5</speed>
<course>167.4</course>
<desc>Speed 5.5 km/h Distance 6.64 km</desc>
<time>2010-03-03T17:04:48.82</time>
<name>4042</name>
</trkpt>
<trkpt lat="48.931655" lon="8.674273">
<ele>364.0</ele>
<speed>3.5</speed>
<course>146.8</course>
<desc>Speed 3.5 km/h Distance 6.65 km</desc>
<time>2010-03-03T17:04:49.82</time>
<name>4043</name>
</trkpt>
<trkpt lat="48.931647" lon="8.674282">
<ele>363.5</ele>
<speed>3.5</speed>
<course>143.1</course>
<desc>Speed 3.5 km/h Distance 6.65 km</desc>
<time>2010-03-03T17:04:50.82</time>
<name>4044</name>
</trkpt>
<trkpt lat="48.931635" lon="8.674295">
<ele>363.5</ele>
<speed>4.9</speed>
<course>143.4</course>
<desc>Speed 4.9 km/h Distance 6.65 km</desc>
<time>2010-03-03T17:04:51.82</time>
<name>4045</name>
</trkpt>
<trkpt lat="48.931622" lon="8.674310">
<ele>363.5</ele>
<speed>5.6</speed>
<course>150.8</course>
<desc>Speed 5.6 km/h Distance 6.65 km</desc>
<time>2010-03-03T17:04:52.82</time>
<name>4046</name>
</trkpt>
<trkpt lat="48.931610" lon="8.674320">
<ele>363.5</ele>
<speed>5.2</speed>
<course>157.9</course>
<desc>Speed 5.2 km/h Distance 6.65 km</desc>
<time>2010-03-03T17:04:53.82</time>
<name>4047</name>
</trkpt>
<trkpt lat="48.931597" lon="8.674328">
<ele>363.5</ele>
<speed>5.1</speed>
<course>157.9</course>
<desc>Speed 5.1 km/h Distance 6.65 km</desc>
<time>2010-03-03T17:04:54.82</time>
<name>4048</name>
</trkpt>
<trkpt lat="48.931583" lon="8.674337">
<ele>363.0</ele>
<speed>5.0</speed>
<course>156.2</course>
<desc>Speed 5.0 km/h Distance 6.65 km</desc>
<time>2010-03-03T17:04:55.82</time>
<name>4049</name>
</trkpt>
<trkpt lat="48.931573" lon="8.674343">
<ele>363.0</ele>
<speed>4.1</speed>
<course>159.1</course>
<desc>Speed 4.1 km/h Distance 6.66 km</desc>
<time>2010-03-03T17:04:56.81</time>
<name>4050</name>
</trkpt>
<trkpt lat="48.931562" lon="8.674350">
<ele>363.0</ele>
<speed>4.5</speed>
<course>167.4</course>
<desc>Speed 4.5 km/h Distance 6.66 km</desc>
<time>2010-03-03T17:04:57.81</time>
<name>4051</name>
</trkpt>
<trkpt lat="48.931552" lon="8.674353">
<ele>362.5</ele>
<speed>4.1</speed>
<course>167.4</course>
<desc>Speed 4.1 km/h Distance 6.66 km</desc>
<time>2010-03-03T17:04:58.82</time>
<name>4052</name>
</trkpt>
<trkpt lat="48.931552" lon="8.674353">
<ele>362.5</ele>
<speed>0.7</speed>
<course>308.1</course>
<desc>Speed 0.7 km/h Distance 6.66 km</desc>
<time>2010-03-03T17:04:59.81</time>
<name>4053</name>
</trkpt>
<trkpt lat="48.931553" lon="8.674350">
<ele>362.5</ele>
<speed>1.0</speed>
<course>147.7</course>
<desc>Speed 1.0 km/h Distance 6.66 km</desc>
<time>2010-03-03T17:05:00.81</time>
<name>4054</name>
</trkpt>
<trkpt lat="48.931548" lon="8.674355">
<ele>363.0</ele>
<speed>1.1</speed>
<course>31.6</course>
<desc>Speed 1.1 km/h Distance 6.66 km</desc>
<time>2010-03-03T17:05:01.81</time>
<name>4055</name>
</trkpt>
<trkpt lat="48.931552" lon="8.674358">
<ele>363.0</ele>
<speed>1.9</speed>
<course>0.0</course>
<desc>Speed 1.9 km/h Distance 6.66 km</desc>
<time>2010-03-03T17:05:02.81</time>
<name>4056</name>
</trkpt>
<trkpt lat="48.931557" lon="8.674358">
<ele>363.0</ele>
<speed>2.4</speed>
<course>7.4</course>
<desc>Speed 2.4 km/h Distance 6.66 km</desc>
<time>2010-03-03T17:05:03.81</time>
<name>4057</name>
</trkpt>
<trkpt lat="48.931563" lon="8.674360">
<ele>363.0</ele>
<speed>2.7</speed>
<course>18.2</course>
<desc>Speed 2.7 km/h Distance 6.66 km</desc>
<time>2010-03-03T17:05:04.81</time>
<name>4058</name>
</trkpt>
<trkpt lat="48.931573" lon="8.674365">
<ele>363.0</ele>
<speed>3.5</speed>
<course>32.3</course>
<desc>Speed 3.5 km/h Distance 6.66 km</desc>
<time>2010-03-03T17:05:05.81</time>
<name>4059</name>
</trkpt>
<trkpt lat="48.931578" lon="8.674370">
<ele>363.5</ele>
<speed>2.7</speed>
<course>106.9</course>
<desc>Speed 2.7 km/h Distance 6.66 km</desc>
<time>2010-03-03T17:05:06.82</time>
<name>4060</name>
</trkpt>
<trkpt lat="48.931577" lon="8.674378">
<ele>363.5</ele>
<speed>2.3</speed>
<course>104.4</course>
<desc>Speed 2.3 km/h Distance 6.66 km</desc>
<time>2010-03-03T17:05:07.82</time>
<name>4061</name>
</trkpt>
<trkpt lat="48.931575" lon="8.674388">
<ele>364.0</ele>
<speed>2.8</speed>
<course>110.8</course>
<desc>Speed 2.8 km/h Distance 6.66 km</desc>
<time>2010-03-03T17:05:08.83</time>
<name>4062</name>
</trkpt>
<trkpt lat="48.931572" lon="8.674402">
<ele>364.0</ele>
<speed>4.0</speed>
<course>108.7</course>
<desc>Speed 4.0 km/h Distance 6.67 km</desc>
<time>2010-03-03T17:05:09.81</time>
<name>4063</name>
</trkpt>
<trkpt lat="48.931568" lon="8.674417">
<ele>364.0</ele>
<speed>4.0</speed>
<course>99.6</course>
<desc>Speed 4.0 km/h Distance 6.67 km</desc>
<time>2010-03-03T17:05:10.81</time>
<name>4064</name>
</trkpt>
<trkpt lat="48.931567" lon="8.674432">
<ele>364.5</ele>
<speed>4.0</speed>
<course>146.8</course>
<desc>Speed 4.0 km/h Distance 6.67 km</desc>
<time>2010-03-03T17:05:11.81</time>
<name>4065</name>
</trkpt>
<trkpt lat="48.931558" lon="8.674440">
<ele>363.5</ele>
<speed>4.4</speed>
<course>119.7</course>
<desc>Speed 4.4 km/h Distance 6.67 km</desc>
<time>2010-03-03T17:05:12.81</time>
<name>4066</name>
</trkpt>
<trkpt lat="48.931553" lon="8.674453">
<ele>363.5</ele>
<speed>3.9</speed>
<course>146.3</course>
<desc>Speed 3.9 km/h Distance 6.67 km</desc>
<time>2010-03-03T17:05:13.80</time>
<name>4067</name>
</trkpt>
<trkpt lat="48.931550" lon="8.674457">
<ele>363.5</ele>
<speed>2.1</speed>
<course>146.3</course>
<desc>Speed 2.1 km/h Distance 6.67 km</desc>
<time>2010-03-03T17:05:14.80</time>
<name>4068</name>
</trkpt>
<trkpt lat="48.931550" lon="8.674457">
<ele>363.5</ele>
<speed>0.1</speed>
<course>146.3</course>
<desc>Speed 0.1 km/h Distance 6.67 km</desc>
<time>2010-03-03T17:05:15.80</time>
<name>4069</name>
</trkpt>
<trkpt lat="48.931550" lon="8.674457">
<ele>363.5</ele>
<speed>0.2</speed>
<course>12.6</course>
<desc>Speed 0.2 km/h Distance 6.67 km</desc>
<time>2010-03-03T17:05:16.80</time>
<name>4070</name>
</trkpt>
<trkpt lat="48.931552" lon="8.674457">
<ele>363.5</ele>
<speed>0.9</speed>
<course>12.6</course>
<desc>Speed 0.9 km/h Distance 6.67 km</desc>
<time>2010-03-03T17:05:17.81</time>
<name>4071</name>
</trkpt>
<trkpt lat="48.931553" lon="8.674457">
<ele>363.5</ele>
<speed>0.3</speed>
<course>0.0</course>
<desc>Speed 0.3 km/h Distance 6.67 km</desc>
<time>2010-03-03T17:05:18.81</time>
<name>4072</name>
</trkpt>
<trkpt lat="48.931557" lon="8.674457">
<ele>363.5</ele>
<speed>0.3</speed>
<course>0.0</course>
<desc>Speed 0.3 km/h Distance 6.67 km</desc>
<time>2010-03-03T17:05:19.81</time>
<name>4073</name>
</trkpt>
<trkpt lat="48.931557" lon="8.674457">
<ele>363.5</ele>
<speed>0.1</speed>
<course>142.8</course>
<desc>Speed 0.1 km/h Distance 6.67 km</desc>
<time>2010-03-03T17:05:20.81</time>
<name>4074</name>
</trkpt>
<trkpt lat="48.931555" lon="8.674458">
<ele>363.5</ele>
<speed>1.4</speed>
<course>146.3</course>
<desc>Speed 1.4 km/h Distance 6.67 km</desc>
<time>2010-03-03T17:05:21.81</time>
<name>4075</name>
</trkpt>
<trkpt lat="48.931548" lon="8.674465">
<ele>363.5</ele>
<speed>3.6</speed>
<course>146.8</course>
<desc>Speed 3.6 km/h Distance 6.67 km</desc>
<time>2010-03-03T17:05:22.81</time>
<name>4076</name>
</trkpt>
<trkpt lat="48.931543" lon="8.674470">
<ele>363.0</ele>
<speed>2.8</speed>
<course>135.5</course>
<desc>Speed 2.8 km/h Distance 6.67 km</desc>
<time>2010-03-03T17:05:23.81</time>
<name>4077</name>
</trkpt>
<trkpt lat="48.931540" lon="8.674475">
<ele>363.0</ele>
<speed>1.5</speed>
<course>12.6</course>
<desc>Speed 1.5 km/h Distance 6.67 km</desc>
<time>2010-03-03T17:05:24.80</time>
<name>4078</name>
</trkpt>
<trkpt lat="48.931543" lon="8.674475">
<ele>363.0</ele>
<speed>0.5</speed>
<course>44.5</course>
<desc>Speed 0.5 km/h Distance 6.67 km</desc>
<time>2010-03-03T17:05:25.80</time>
<name>4079</name>
</trkpt>
<trkpt lat="48.931547" lon="8.674480">
<ele>363.0</ele>
<speed>1.8</speed>
<course>18.8</course>
<desc>Speed 1.8 km/h Distance 6.67 km</desc>
<time>2010-03-03T17:05:26.80</time>
<name>4080</name>
</trkpt>
<trkpt lat="48.931553" lon="8.674483">
<ele>363.0</ele>
<speed>2.1</speed>
<course>7.4</course>
<desc>Speed 2.1 km/h Distance 6.67 km</desc>
<time>2010-03-03T17:05:27.80</time>
<name>4081</name>
</trkpt>
<trkpt lat="48.931560" lon="8.674485">
<ele>363.0</ele>
<speed>1.3</speed>
<course>53.9</course>
<desc>Speed 1.3 km/h Distance 6.68 km</desc>
<time>2010-03-03T17:05:28.80</time>
<name>4082</name>
</trkpt>
<trkpt lat="48.931562" lon="8.674488">
<ele>363.0</ele>
<speed>0.9</speed>
<course>322.8</course>
<desc>Speed 0.9 km/h Distance 6.68 km</desc>
<time>2010-03-03T17:05:29.80</time>
<name>4083</name>
</trkpt>
<trkpt lat="48.931563" lon="8.674487">
<ele>363.0</ele>
<speed>0.8</speed>
<course>330.8</course>
<desc>Speed 0.8 km/h Distance 6.68 km</desc>
<time>2010-03-03T17:05:30.80</time>
<name>4084</name>
</trkpt>
<trkpt lat="48.931565" lon="8.674485">
<ele>363.0</ele>
<speed>0.5</speed>
<course>330.8</course>
<desc>Speed 0.5 km/h Distance 6.68 km</desc>
<time>2010-03-03T17:05:31.80</time>
<name>4085</name>
</trkpt>
<trkpt lat="48.931567" lon="8.674483">
<ele>363.0</ele>
<speed>0.6</speed>
<course>17.5</course>
<desc>Speed 0.6 km/h Distance 6.68 km</desc>
<time>2010-03-03T17:05:32.80</time>
<name>4086</name>
</trkpt>
<trkpt lat="48.931573" lon="8.674487">
<ele>363.0</ele>
<speed>1.8</speed>
<course>326.3</course>
<desc>Speed 1.8 km/h Distance 6.68 km</desc>
<time>2010-03-03T17:05:33.80</time>
<name>4087</name>
</trkpt>
<trkpt lat="48.931580" lon="8.674480">
<ele>363.0</ele>
<speed>2.4</speed>
<course>299.7</course>
<desc>Speed 2.4 km/h Distance 6.68 km</desc>
<time>2010-03-03T17:05:34.79</time>
<name>4088</name>
</trkpt>
<trkpt lat="48.931585" lon="8.674467">
<ele>363.0</ele>
<speed>3.5</speed>
<course>347.4</course>
<desc>Speed 3.5 km/h Distance 6.68 km</desc>
<time>2010-03-03T17:05:35.80</time>
<name>4089</name>
</trkpt>
<trkpt lat="48.931590" lon="8.674465">
<ele>362.5</ele>
<speed>1.4</speed>
<course>90.0</course>
<desc>Speed 1.4 km/h Distance 6.68 km</desc>
<time>2010-03-03T17:05:36.88</time>
<name>4090</name>
</trkpt>
<trkpt lat="48.931590" lon="8.674468">
<ele>362.5</ele>
<speed>1.4</speed>
<course>90.0</course>
<desc>Speed 1.4 km/h Distance 6.68 km</desc>
<time>2010-03-03T17:05:37.80</time>
<name>4091</name>
</trkpt>
<trkpt lat="48.931590" lon="8.674472">
<ele>363.0</ele>
<speed>1.3</speed>
<course>90.0</course>
<desc>Speed 1.3 km/h Distance 6.68 km</desc>
<time>2010-03-03T17:05:38.80</time>
<name>4092</name>
</trkpt>
<trkpt lat="48.931590" lon="8.674473">
<ele>363.0</ele>
<speed>0.7</speed>
<course>270.0</course>
<desc>Speed 0.7 km/h Distance 6.68 km</desc>
<time>2010-03-03T17:05:39.79</time>
<name>4093</name>
</trkpt>
<trkpt lat="48.931590" lon="8.674472">
<ele>363.0</ele>
<speed>0.3</speed>
<course>12.6</course>
<desc>Speed 0.3 km/h Distance 6.68 km</desc>
<time>2010-03-03T17:05:40.79</time>
<name>4094</name>
</trkpt>
<trkpt lat="48.931592" lon="8.674472">
<ele>363.5</ele>
<speed>0.2</speed>
<course>270.0</course>
<desc>Speed 0.2 km/h Distance 6.68 km</desc>
<time>2010-03-03T17:05:41.79</time>
<name>4095</name>
</trkpt>
<trkpt lat="48.931592" lon="8.674470">
<ele>363.5</ele>
<speed>0.3</speed>
<course>270.0</course>
<desc>Speed 0.3 km/h Distance 6.68 km</desc>
<time>2010-03-03T17:05:42.79</time>
<name>4096</name>
</trkpt>
<trkpt lat="48.931592" lon="8.674468">
<ele>363.5</ele>
<speed>0.1</speed>
<course>270.0</course>
<desc>Speed 0.1 km/h Distance 6.68 km</desc>
<time>2010-03-03T17:05:43.79</time>
<name>4097</name>
</trkpt>
<trkpt lat="48.931592" lon="8.674468">
<ele>363.5</ele>
<speed>0.5</speed>
<course>75.9</course>
<desc>Speed 0.5 km/h Distance 6.68 km</desc>
<time>2010-03-03T17:05:44.80</time>
<name>4098</name>
</trkpt>
<trkpt lat="48.931593" lon="8.674478">
<ele>364.0</ele>
<speed>2.7</speed>
<course>90.0</course>
<desc>Speed 2.7 km/h Distance 6.68 km</desc>
<time>2010-03-03T17:05:45.80</time>
<name>4099</name>
</trkpt>
<trkpt lat="48.931593" lon="8.674490">
<ele>364.0</ele>
<speed>3.1</speed>
<course>102.2</course>
<desc>Speed 3.1 km/h Distance 6.68 km</desc>
<time>2010-03-03T17:05:46.79</time>
<name>4100</name>
</trkpt>
<trkpt lat="48.931592" lon="8.674502">
<ele>364.0</ele>
<speed>3.4</speed>
<course>121.4</course>
<desc>Speed 3.4 km/h Distance 6.68 km</desc>
<time>2010-03-03T17:05:47.79</time>
<name>4101</name>
</trkpt>
<trkpt lat="48.931588" lon="8.674510">
<ele>364.0</ele>
<speed>2.9</speed>
<course>128.1</course>
<desc>Speed 2.9 km/h Distance 6.68 km</desc>
<time>2010-03-03T17:05:48.79</time>
<name>4102</name>
</trkpt>
<trkpt lat="48.931587" lon="8.674513">
<ele>364.0</ele>
<speed>0.9</speed>
<course>128.1</course>
<desc>Speed 0.9 km/h Distance 6.68 km</desc>
<time>2010-03-03T17:05:49.79</time>
<name>4103</name>
</trkpt>
<trkpt lat="48.931587" lon="8.674513">
<ele>364.0</ele>
<speed>0.1</speed>
<course>128.1</course>
<desc>Speed 0.1 km/h Distance 6.68 km</desc>
<time>2010-03-03T17:05:50.79</time>
<name>4104</name>
</trkpt>
<trkpt lat="48.931587" lon="8.674513">
<ele>364.0</ele>
<speed>0.1</speed>
<course>128.1</course>
<desc>Speed 0.1 km/h Distance 6.68 km</desc>
<time>2010-03-03T17:05:51.78</time>
<name>4105</name>
</trkpt>
<trkpt lat="48.931587" lon="8.674513">
<ele>364.0</ele>
<speed>0.2</speed>
<course>128.1</course>
<desc>Speed 0.2 km/h Distance 6.68 km</desc>
<time>2010-03-03T17:05:52.78</time>
<name>4106</name>
</trkpt>
<trkpt lat="48.931587" lon="8.674513">
<ele>364.0</ele>
<speed>0.0</speed>
<course>180.0</course>
<desc>Speed 0.0 km/h Distance 6.68 km</desc>
<time>2010-03-03T17:05:53.79</time>
<name>4107</name>
</trkpt>
<trkpt lat="48.931585" lon="8.674513">
<ele>364.0</ele>
<speed>0.3</speed>
<course>90.0</course>
<desc>Speed 0.3 km/h Distance 6.68 km</desc>
<time>2010-03-03T17:05:54.79</time>
<name>4108</name>
</trkpt>
<trkpt lat="48.931585" lon="8.674520">
<ele>363.5</ele>
<speed>1.6</speed>
<course>127.2</course>
<desc>Speed 1.6 km/h Distance 6.69 km</desc>
<time>2010-03-03T17:05:55.79</time>
<name>4109</name>
</trkpt>
<trkpt lat="48.931580" lon="8.674530">
<ele>363.0</ele>
<speed>3.0</speed>
<course>138.1</course>
<desc>Speed 3.0 km/h Distance 6.69 km</desc>
<time>2010-03-03T17:05:56.79</time>
<name>4110</name>
</trkpt>
<trkpt lat="48.931575" lon="8.674537">
<ele>363.0</ele>
<speed>2.3</speed>
<course>138.1</course>
<desc>Speed 2.3 km/h Distance 6.69 km</desc>
<time>2010-03-03T17:05:57.79</time>
<name>4111</name>
</trkpt>
<trkpt lat="48.931575" lon="8.674537">
<ele>363.0</ele>
<speed>0.4</speed>
<course>242.6</course>
<desc>Speed 0.4 km/h Distance 6.69 km</desc>
<time>2010-03-03T17:05:58.78</time>
<name>4112</name>
</trkpt>
<trkpt lat="48.931573" lon="8.674532">
<ele>363.0</ele>
<speed>1.8</speed>
<course>188.1</course>
<desc>Speed 1.8 km/h Distance 6.69 km</desc>
<time>2010-03-03T17:05:59.79</time>
<name>4113</name>
</trkpt>
<trkpt lat="48.931568" lon="8.674530">
<ele>363.0</ele>
<speed>1.9</speed>
<course>192.6</course>
<desc>Speed 1.9 km/h Distance 6.69 km</desc>
<time>2010-03-03T17:06:00.79</time>
<name>4114</name>
</trkpt>
<trkpt lat="48.931565" lon="8.674528">
<ele>363.0</ele>
<speed>1.5</speed>
<course>90.0</course>
<desc>Speed 1.5 km/h Distance 6.69 km</desc>
<time>2010-03-03T17:06:01.79</time>
<name>4115</name>
</trkpt>
<trkpt lat="48.931565" lon="8.674530">
<ele>363.0</ele>
<speed>0.5</speed>
<course>90.0</course>
<desc>Speed 0.5 km/h Distance 6.69 km</desc>
<time>2010-03-03T17:06:02.78</time>
<name>4116</name>
</trkpt>
<trkpt lat="48.931565" lon="8.674532">
<ele>363.0</ele>
<speed>0.4</speed>
<course>157.0</course>
<desc>Speed 0.4 km/h Distance 6.69 km</desc>
<time>2010-03-03T17:06:03.79</time>
<name>4117</name>
</trkpt>
<trkpt lat="48.931562" lon="8.674533">
<ele>362.5</ele>
<speed>0.8</speed>
<course>140.3</course>
<desc>Speed 0.8 km/h Distance 6.69 km</desc>
<time>2010-03-03T17:06:04.79</time>
<name>4118</name>
</trkpt>
<trkpt lat="48.931555" lon="8.674542">
<ele>362.5</ele>
<speed>2.8</speed>
<course>146.3</course>
<desc>Speed 2.8 km/h Distance 6.69 km</desc>
<time>2010-03-03T17:06:05.78</time>
<name>4119</name>
</trkpt>
<trkpt lat="48.931548" lon="8.674548">
<ele>362.5</ele>
<speed>3.4</speed>
<course>146.3</course>
<desc>Speed 3.4 km/h Distance 6.69 km</desc>
<time>2010-03-03T17:06:06.78</time>
<name>4120</name>
</trkpt>
<trkpt lat="48.931545" lon="8.674552">
<ele>362.0</ele>
<speed>1.7</speed>
<course>128.1</course>
<desc>Speed 1.7 km/h Distance 6.69 km</desc>
<time>2010-03-03T17:06:07.78</time>
<name>4121</name>
</trkpt>
<trkpt lat="48.931543" lon="8.674555">
<ele>362.0</ele>
<speed>1.3</speed>
<course>121.4</course>
<desc>Speed 1.3 km/h Distance 6.69 km</desc>
<time>2010-03-03T17:06:08.79</time>
<name>4122</name>
</trkpt>
<trkpt lat="48.931540" lon="8.674563">
<ele>362.0</ele>
<speed>2.8</speed>
<course>167.4</course>
<desc>Speed 2.8 km/h Distance 6.69 km</desc>
<time>2010-03-03T17:06:09.78</time>
<name>4123</name>
</trkpt>
<trkpt lat="48.931538" lon="8.674563">
<ele>361.5</ele>
<speed>0.7</speed>
<course>0.0</course>
<desc>Speed 0.7 km/h Distance 6.69 km</desc>
<time>2010-03-03T17:06:10.77</time>
<name>4124</name>
</trkpt>
<trkpt lat="48.931542" lon="8.674563">
<ele>362.0</ele>
<speed>0.8</speed>
<course>135.5</course>
<desc>Speed 0.8 km/h Distance 6.69 km</desc>
<time>2010-03-03T17:06:11.77</time>
<name>4125</name>
</trkpt>
<trkpt lat="48.931538" lon="8.674568">
<ele>361.5</ele>
<speed>1.5</speed>
<course>116.6</course>
<desc>Speed 1.5 km/h Distance 6.69 km</desc>
<time>2010-03-03T17:06:12.78</time>
<name>4126</name>
</trkpt>
<trkpt lat="48.931537" lon="8.674573">
<ele>362.0</ele>
<speed>2.0</speed>
<course>116.6</course>
<desc>Speed 2.0 km/h Distance 6.69 km</desc>
<time>2010-03-03T17:06:13.78</time>
<name>4127</name>
</trkpt>
<trkpt lat="48.931537" lon="8.674573">
<ele>362.0</ele>
<speed>0.7</speed>
<course>117.4</course>
<desc>Speed 0.7 km/h Distance 6.69 km</desc>
<time>2010-03-03T17:06:14.77</time>
<name>4128</name>
</trkpt>
<trkpt lat="48.931535" lon="8.674578">
<ele>362.0</ele>
<speed>1.7</speed>
<course>121.4</course>
<desc>Speed 1.7 km/h Distance 6.69 km</desc>
<time>2010-03-03T17:06:15.78</time>
<name>4129</name>
</trkpt>
<trkpt lat="48.931532" lon="8.674587">
<ele>362.5</ele>
<speed>2.8</speed>
<course>138.1</course>
<desc>Speed 2.8 km/h Distance 6.69 km</desc>
<time>2010-03-03T17:06:16.77</time>
<name>4130</name>
</trkpt>
<trkpt lat="48.931527" lon="8.674593">
<ele>362.5</ele>
<speed>3.0</speed>
<course>132.6</course>
<desc>Speed 3.0 km/h Distance 6.70 km</desc>
<time>2010-03-03T17:06:17.77</time>
<name>4131</name>
</trkpt>
<trkpt lat="48.931522" lon="8.674602">
<ele>362.5</ele>
<speed>2.7</speed>
<course>161.2</course>
<desc>Speed 2.7 km/h Distance 6.70 km</desc>
<time>2010-03-03T17:06:18.77</time>
<name>4132</name>
</trkpt>
<trkpt lat="48.931518" lon="8.674603">
<ele>362.5</ele>
<speed>1.3</speed>
<course>29.2</course>
<desc>Speed 1.3 km/h Distance 6.70 km</desc>
<time>2010-03-03T17:06:19.77</time>
<name>4133</name>
</trkpt>
<trkpt lat="48.931520" lon="8.674603">
<ele>362.5</ele>
<speed>0.3</speed>
<course>51.9</course>
<desc>Speed 0.3 km/h Distance 6.70 km</desc>
<time>2010-03-03T17:06:20.77</time>
<name>4134</name>
</trkpt>
<trkpt lat="48.931522" lon="8.674607">
<ele>362.5</ele>
<speed>1.4</speed>
<course>71.4</course>
<desc>Speed 1.4 km/h Distance 6.70 km</desc>
<time>2010-03-03T17:06:21.77</time>
<name>4135</name>
</trkpt>
<trkpt lat="48.931525" lon="8.674622">
<ele>362.5</ele>
<speed>4.0</speed>
<course>81.4</course>
<desc>Speed 4.0 km/h Distance 6.70 km</desc>
<time>2010-03-03T17:06:22.77</time>
<name>4136</name>
</trkpt>
<trkpt lat="48.931527" lon="8.674638">
<ele>362.5</ele>
<speed>4.3</speed>
<course>108.7</course>
<desc>Speed 4.3 km/h Distance 6.70 km</desc>
<time>2010-03-03T17:06:23.78</time>
<name>4137</name>
</trkpt>
<trkpt lat="48.931523" lon="8.674653">
<ele>362.5</ele>
<speed>4.1</speed>
<course>146.3</course>
<desc>Speed 4.1 km/h Distance 6.70 km</desc>
<time>2010-03-03T17:06:24.78</time>
<name>4138</name>
</trkpt>
<trkpt lat="48.931517" lon="8.674660">
<ele>362.5</ele>
<speed>3.3</speed>
<course>190.3</course>
<desc>Speed 3.3 km/h Distance 6.70 km</desc>
<time>2010-03-03T17:06:25.77</time>
<name>4139</name>
</trkpt>
<trkpt lat="48.931510" lon="8.674658">
<ele>362.5</ele>
<speed>3.1</speed>
<course>217.2</course>
<desc>Speed 3.1 km/h Distance 6.70 km</desc>
<time>2010-03-03T17:06:26.77</time>
<name>4140</name>
</trkpt>
<trkpt lat="48.931508" lon="8.674657">
<ele>362.0</ele>
<speed>1.2</speed>
<course>12.6</course>
<desc>Speed 1.2 km/h Distance 6.70 km</desc>
<time>2010-03-03T17:06:27.76</time>
<name>4141</name>
</trkpt>
<trkpt lat="48.931510" lon="8.674657">
<ele>362.0</ele>
<speed>0.1</speed>
<course>167.4</course>
<desc>Speed 0.1 km/h Distance 6.70 km</desc>
<time>2010-03-03T17:06:28.76</time>
<name>4142</name>
</trkpt>
<trkpt lat="48.931508" lon="8.674657">
<ele>362.0</ele>
<speed>0.4</speed>
<course>167.4</course>
<desc>Speed 0.4 km/h Distance 6.70 km</desc>
<time>2010-03-03T17:06:29.76</time>
<name>4143</name>
</trkpt>
<trkpt lat="48.931508" lon="8.674657">
<ele>362.0</ele>
<speed>0.5</speed>
<course>167.4</course>
<desc>Speed 0.5 km/h Distance 6.70 km</desc>
<time>2010-03-03T17:06:30.76</time>
<name>4144</name>
</trkpt>
<trkpt lat="48.931508" lon="8.674657">
<ele>362.0</ele>
<speed>0.2</speed>
<course>51.9</course>
<desc>Speed 0.2 km/h Distance 6.70 km</desc>
<time>2010-03-03T17:06:31.77</time>
<name>4145</name>
</trkpt>
<trkpt lat="48.931510" lon="8.674660">
<ele>362.0</ele>
<speed>1.1</speed>
<course>90.0</course>
<desc>Speed 1.1 km/h Distance 6.70 km</desc>
<time>2010-03-03T17:06:32.76</time>
<name>4146</name>
</trkpt>
<trkpt lat="48.931510" lon="8.674663">
<ele>362.0</ele>
<speed>0.8</speed>
<course>90.0</course>
<desc>Speed 0.8 km/h Distance 6.70 km</desc>
<time>2010-03-03T17:06:33.76</time>
<name>4147</name>
</trkpt>
<trkpt lat="48.931510" lon="8.674672">
<ele>362.0</ele>
<speed>2.2</speed>
<course>90.0</course>
<desc>Speed 2.2 km/h Distance 6.70 km</desc>
<time>2010-03-03T17:06:34.76</time>
<name>4148</name>
</trkpt>
<trkpt lat="48.931510" lon="8.674672">
<ele>362.0</ele>
<speed>0.4</speed>
<course>90.0</course>
<desc>Speed 0.4 km/h Distance 6.70 km</desc>
<time>2010-03-03T17:06:35.76</time>
<name>4149</name>
</trkpt>
<trkpt lat="48.931510" lon="8.674672">
<ele>362.0</ele>
<speed>0.4</speed>
<course>142.8</course>
<desc>Speed 0.4 km/h Distance 6.70 km</desc>
<time>2010-03-03T17:06:36.76</time>
<name>4150</name>
</trkpt>
<trkpt lat="48.931508" lon="8.674673">
<ele>362.0</ele>
<speed>0.4</speed>
<course>167.4</course>
<desc>Speed 0.4 km/h Distance 6.70 km</desc>
<time>2010-03-03T17:06:37.77</time>
<name>4151</name>
</trkpt>
<trkpt lat="48.931507" lon="8.674673">
<ele>362.0</ele>
<speed>0.8</speed>
<course>167.4</course>
<desc>Speed 0.8 km/h Distance 6.70 km</desc>
<time>2010-03-03T17:06:38.76</time>
<name>4152</name>
</trkpt>
<trkpt lat="48.931503" lon="8.674675">
<ele>362.0</ele>
<speed>1.2</speed>
<course>167.4</course>
<desc>Speed 1.2 km/h Distance 6.70 km</desc>
<time>2010-03-03T17:06:39.76</time>
<name>4153</name>
</trkpt>
<trkpt lat="48.931502" lon="8.674675">
<ele>362.0</ele>
<speed>0.5</speed>
<course>167.4</course>
<desc>Speed 0.5 km/h Distance 6.71 km</desc>
<time>2010-03-03T17:06:40.76</time>
<name>4154</name>
</trkpt>
<trkpt lat="48.931502" lon="8.674675">
<ele>362.0</ele>
<speed>0.2</speed>
<course>142.8</course>
<desc>Speed 0.2 km/h Distance 6.71 km</desc>
<time>2010-03-03T17:06:41.76</time>
<name>4155</name>
</trkpt>
<trkpt lat="48.931500" lon="8.674677">
<ele>362.0</ele>
<speed>0.2</speed>
<course>142.8</course>
<desc>Speed 0.2 km/h Distance 6.71 km</desc>
<time>2010-03-03T17:06:42.75</time>
<name>4156</name>
</trkpt>
<trkpt lat="48.931498" lon="8.674678">
<ele>362.0</ele>
<speed>0.3</speed>
<course>167.4</course>
<desc>Speed 0.3 km/h Distance 6.71 km</desc>
<time>2010-03-03T17:06:43.75</time>
<name>4157</name>
</trkpt>
<trkpt lat="48.931497" lon="8.674678">
<ele>362.0</ele>
<speed>0.1</speed>
<course>90.0</course>
<desc>Speed 0.1 km/h Distance 6.71 km</desc>
<time>2010-03-03T17:06:44.76</time>
<name>4158</name>
</trkpt>
<trkpt lat="48.931497" lon="8.674680">
<ele>362.5</ele>
<speed>0.3</speed>
<course>90.0</course>
<desc>Speed 0.3 km/h Distance 6.71 km</desc>
<time>2010-03-03T17:06:45.76</time>
<name>4159</name>
</trkpt>
<trkpt lat="48.931497" lon="8.674680">
<ele>362.5</ele>
<speed>0.3</speed>
<course>167.4</course>
<desc>Speed 0.3 km/h Distance 6.71 km</desc>
<time>2010-03-03T17:06:46.75</time>
<name>4160</name>
</trkpt>
<trkpt lat="48.931495" lon="8.674680">
<ele>362.5</ele>
<speed>0.1</speed>
<course>167.4</course>
<desc>Speed 0.1 km/h Distance 6.71 km</desc>
<time>2010-03-03T17:06:47.75</time>
<name>4161</name>
</trkpt>
<trkpt lat="48.931495" lon="8.674680">
<ele>362.5</ele>
<speed>0.1</speed>
<course>167.4</course>
<desc>Speed 0.1 km/h Distance 6.71 km</desc>
<time>2010-03-03T17:06:48.75</time>
<name>4162</name>
</trkpt>
<trkpt lat="48.931495" lon="8.674680">
<ele>362.5</ele>
<speed>0.4</speed>
<course>12.6</course>
<desc>Speed 0.4 km/h Distance 6.71 km</desc>
<time>2010-03-03T17:06:49.75</time>
<name>4163</name>
</trkpt>
<trkpt lat="48.931497" lon="8.674680">
<ele>363.0</ele>
<speed>0.8</speed>
<course>308.1</course>
<desc>Speed 0.8 km/h Distance 6.71 km</desc>
<time>2010-03-03T17:06:50.75</time>
<name>4164</name>
</trkpt>
<trkpt lat="48.931498" lon="8.674677">
<ele>363.0</ele>
<speed>1.2</speed>
<course>128.1</course>
<desc>Speed 1.2 km/h Distance 6.71 km</desc>
<time>2010-03-03T17:06:51.75</time>
<name>4165</name>
</trkpt>
<trkpt lat="48.931497" lon="8.674680">
<ele>363.0</ele>
<speed>1.1</speed>
<course>90.0</course>
<desc>Speed 1.1 km/h Distance 6.71 km</desc>
<time>2010-03-03T17:06:52.75</time>
<name>4166</name>
</trkpt>
<trkpt lat="48.931497" lon="8.674687">
<ele>363.0</ele>
<speed>1.7</speed>
<course>90.0</course>
<desc>Speed 1.7 km/h Distance 6.71 km</desc>
<time>2010-03-03T17:06:53.75</time>
<name>4167</name>
</trkpt>
<trkpt lat="48.931497" lon="8.674697">
<ele>363.0</ele>
<speed>2.4</speed>
<course>90.0</course>
<desc>Speed 2.4 km/h Distance 6.71 km</desc>
<time>2010-03-03T17:06:54.75</time>
<name>4168</name>
</trkpt>
<trkpt lat="48.931497" lon="8.674703">
<ele>363.0</ele>
<speed>1.9</speed>
<course>142.8</course>
<desc>Speed 1.9 km/h Distance 6.71 km</desc>
<time>2010-03-03T17:06:55.75</time>
<name>4169</name>
</trkpt>
<trkpt lat="48.931495" lon="8.674705">
<ele>363.0</ele>
<speed>1.3</speed>
<course>107.1</course>
<desc>Speed 1.3 km/h Distance 6.71 km</desc>
<time>2010-03-03T17:06:56.75</time>
<name>4170</name>
</trkpt>
<trkpt lat="48.931493" lon="8.674713">
<ele>362.5</ele>
<speed>2.6</speed>
<course>102.3</course>
<desc>Speed 2.6 km/h Distance 6.71 km</desc>
<time>2010-03-03T17:06:57.75</time>
<name>4171</name>
</trkpt>
<trkpt lat="48.931492" lon="8.674725">
<ele>362.5</ele>
<speed>3.9</speed>
<course>119.7</course>
<desc>Speed 3.9 km/h Distance 6.71 km</desc>
<time>2010-03-03T17:06:58.75</time>
<name>4172</name>
</trkpt>
<trkpt lat="48.931487" lon="8.674738">
<ele>362.0</ele>
<speed>4.3</speed>
<course>127.4</course>
<desc>Speed 4.3 km/h Distance 6.71 km</desc>
<time>2010-03-03T17:06:59.75</time>
<name>4173</name>
</trkpt>
<trkpt lat="48.931482" lon="8.674748">
<ele>362.0</ele>
<speed>3.7</speed>
<course>162.5</course>
<desc>Speed 3.7 km/h Distance 6.71 km</desc>
<time>2010-03-03T17:07:00.75</time>
<name>4174</name>
</trkpt>
<trkpt lat="48.931475" lon="8.674752">
<ele>361.5</ele>
<speed>3.5</speed>
<course>172.6</course>
<desc>Speed 3.5 km/h Distance 6.71 km</desc>
<time>2010-03-03T17:07:01.75</time>
<name>4175</name>
</trkpt>
<trkpt lat="48.931468" lon="8.674752">
<ele>361.5</ele>
<speed>2.6</speed>
<course>158.5</course>
<desc>Speed 2.6 km/h Distance 6.71 km</desc>
<time>2010-03-03T17:07:02.74</time>
<name>4176</name>
</trkpt>
<trkpt lat="48.931460" lon="8.674757">
<ele>361.5</ele>
<speed>3.7</speed>
<course>137.4</course>
<desc>Speed 3.7 km/h Distance 6.71 km</desc>
<time>2010-03-03T17:07:03.74</time>
<name>4177</name>
</trkpt>
<trkpt lat="48.931452" lon="8.674768">
<ele>361.5</ele>
<speed>4.8</speed>
<course>142.5</course>
<desc>Speed 4.8 km/h Distance 6.72 km</desc>
<time>2010-03-03T17:07:04.75</time>
<name>4178</name>
</trkpt>
<trkpt lat="48.931442" lon="8.674780">
<ele>361.5</ele>
<speed>5.4</speed>
<course>146.6</course>
<desc>Speed 5.4 km/h Distance 6.72 km</desc>
<time>2010-03-03T17:07:05.74</time>
<name>4179</name>
</trkpt>
<trkpt lat="48.931430" lon="8.674792">
<ele>361.5</ele>
<speed>5.0</speed>
<course>130.1</course>
<desc>Speed 5.0 km/h Distance 6.72 km</desc>
<time>2010-03-03T17:07:06.74</time>
<name>4180</name>
</trkpt>
<trkpt lat="48.931422" lon="8.674807">
<ele>361.5</ele>
<speed>5.1</speed>
<course>99.6</course>
<desc>Speed 5.1 km/h Distance 6.72 km</desc>
<time>2010-03-03T17:07:07.74</time>
<name>4181</name>
</trkpt>
<trkpt lat="48.931420" lon="8.674822">
<ele>361.5</ele>
<speed>4.1</speed>
<course>90.0</course>
<desc>Speed 4.1 km/h Distance 6.72 km</desc>
<time>2010-03-03T17:07:08.75</time>
<name>4182</name>
</trkpt>
<trkpt lat="48.931420" lon="8.674837">
<ele>361.5</ele>
<speed>4.5</speed>
<course>90.0</course>
<desc>Speed 4.5 km/h Distance 6.72 km</desc>
<time>2010-03-03T17:07:09.74</time>
<name>4183</name>
</trkpt>
<trkpt lat="48.931420" lon="8.674853">
<ele>362.0</ele>
<speed>4.4</speed>
<course>108.7</course>
<desc>Speed 4.4 km/h Distance 6.72 km</desc>
<time>2010-03-03T17:07:10.74</time>
<name>4184</name>
</trkpt>
<trkpt lat="48.931417" lon="8.674868">
<ele>362.0</ele>
<speed>4.4</speed>
<course>113.5</course>
<desc>Speed 4.4 km/h Distance 6.73 km</desc>
<time>2010-03-03T17:07:11.74</time>
<name>4185</name>
</trkpt>
<trkpt lat="48.931413" lon="8.674880">
<ele>362.0</ele>
<speed>4.0</speed>
<course>90.0</course>
<desc>Speed 4.0 km/h Distance 6.73 km</desc>
<time>2010-03-03T17:07:12.74</time>
<name>4186</name>
</trkpt>
<trkpt lat="48.931413" lon="8.674888">
<ele>362.0</ele>
<speed>2.4</speed>
<course>90.0</course>
<desc>Speed 2.4 km/h Distance 6.73 km</desc>
<time>2010-03-03T17:07:13.75</time>
<name>4187</name>
</trkpt>
<trkpt lat="48.931413" lon="8.674895">
<ele>362.0</ele>
<speed>1.5</speed>
<course>104.2</course>
<desc>Speed 1.5 km/h Distance 6.73 km</desc>
<time>2010-03-03T17:07:14.74</time>
<name>4188</name>
</trkpt>
<trkpt lat="48.931412" lon="8.674905">
<ele>362.0</ele>
<speed>3.1</speed>
<course>110.9</course>
<desc>Speed 3.1 km/h Distance 6.73 km</desc>
<time>2010-03-03T17:07:15.75</time>
<name>4189</name>
</trkpt>
<trkpt lat="48.931408" lon="8.674918">
<ele>361.5</ele>
<speed>3.7</speed>
<course>132.6</course>
<desc>Speed 3.7 km/h Distance 6.73 km</desc>
<time>2010-03-03T17:07:16.74</time>
<name>4190</name>
</trkpt>
<trkpt lat="48.931403" lon="8.674927">
<ele>361.5</ele>
<speed>3.3</speed>
<course>167.4</course>
<desc>Speed 3.3 km/h Distance 6.73 km</desc>
<time>2010-03-03T17:07:17.74</time>
<name>4191</name>
</trkpt>
<trkpt lat="48.931398" lon="8.674928">
<ele>361.0</ele>
<speed>2.2</speed>
<course>166.2</course>
<desc>Speed 2.2 km/h Distance 6.73 km</desc>
<time>2010-03-03T17:07:18.74</time>
<name>4192</name>
</trkpt>
<trkpt lat="48.931390" lon="8.674932">
<ele>361.0</ele>
<speed>2.8</speed>
<course>180.0</course>
<desc>Speed 2.8 km/h Distance 6.73 km</desc>
<time>2010-03-03T17:07:19.74</time>
<name>4193</name>
</trkpt>
<trkpt lat="48.931385" lon="8.674932">
<ele>361.0</ele>
<speed>2.3</speed>
<course>110.9</course>
<desc>Speed 2.3 km/h Distance 6.73 km</desc>
<time>2010-03-03T17:07:20.73</time>
<name>4194</name>
</trkpt>
<trkpt lat="48.931382" lon="8.674945">
<ele>361.0</ele>
<speed>3.3</speed>
<course>90.0</course>
<desc>Speed 3.3 km/h Distance 6.73 km</desc>
<time>2010-03-03T17:07:21.74</time>
<name>4195</name>
</trkpt>
<trkpt lat="48.931382" lon="8.674960">
<ele>361.0</ele>
<speed>4.0</speed>
<course>110.9</course>
<desc>Speed 4.0 km/h Distance 6.73 km</desc>
<time>2010-03-03T17:07:22.73</time>
<name>4196</name>
</trkpt>
<trkpt lat="48.931378" lon="8.674973">
<ele>361.0</ele>
<speed>3.9</speed>
<course>113.5</course>
<desc>Speed 3.9 km/h Distance 6.74 km</desc>
<time>2010-03-03T17:07:23.73</time>
<name>4197</name>
</trkpt>
<trkpt lat="48.931375" lon="8.674985">
<ele>361.0</ele>
<speed>3.6</speed>
<course>175.6</course>
<desc>Speed 3.6 km/h Distance 6.74 km</desc>
<time>2010-03-03T17:07:24.73</time>
<name>4198</name>
</trkpt>
<trkpt lat="48.931365" lon="8.674987">
<ele>361.0</ele>
<speed>3.6</speed>
<course>213.5</course>
<desc>Speed 3.6 km/h Distance 6.74 km</desc>
<time>2010-03-03T17:07:25.73</time>
<name>4199</name>
</trkpt>
<trkpt lat="48.931357" lon="8.674978">
<ele>360.5</ele>
<speed>4.3</speed>
<course>246.5</course>
<desc>Speed 4.3 km/h Distance 6.74 km</desc>
<time>2010-03-03T17:07:26.73</time>
<name>4200</name>
</trkpt>
<trkpt lat="48.931353" lon="8.674967">
<ele>360.5</ele>
<speed>3.2</speed>
<course>270.0</course>
<desc>Speed 3.2 km/h Distance 6.74 km</desc>
<time>2010-03-03T17:07:27.73</time>
<name>4201</name>
</trkpt>
<trkpt lat="48.931353" lon="8.674953">
<ele>360.5</ele>
<speed>3.9</speed>
<course>288.6</course>
<desc>Speed 3.9 km/h Distance 6.74 km</desc>
<time>2010-03-03T17:07:28.73</time>
<name>4202</name>
</trkpt>
<trkpt lat="48.931357" lon="8.674938">
<ele>360.5</ele>
<speed>4.3</speed>
<course>278.7</course>
<desc>Speed 4.3 km/h Distance 6.74 km</desc>
<time>2010-03-03T17:07:29.73</time>
<name>4203</name>
</trkpt>
<trkpt lat="48.931358" lon="8.674922">
<ele>360.5</ele>
<speed>4.2</speed>
<course>249.1</course>
<desc>Speed 4.2 km/h Distance 6.74 km</desc>
<time>2010-03-03T17:07:30.73</time>
<name>4204</name>
</trkpt>
<trkpt lat="48.931355" lon="8.674908">
<ele>360.5</ele>
<speed>3.5</speed>
<course>259.3</course>
<desc>Speed 3.5 km/h Distance 6.74 km</desc>
<time>2010-03-03T17:07:31.74</time>
<name>4205</name>
</trkpt>
<trkpt lat="48.931353" lon="8.674895">
<ele>360.5</ele>
<speed>3.6</speed>
<course>288.6</course>
<desc>Speed 3.6 km/h Distance 6.74 km</desc>
<time>2010-03-03T17:07:32.73</time>
<name>4206</name>
</trkpt>
<trkpt lat="48.931357" lon="8.674880">
<ele>360.0</ele>
<speed>3.7</speed>
<course>332.1</course>
<desc>Speed 3.7 km/h Distance 6.75 km</desc>
<time>2010-03-03T17:07:33.73</time>
<name>4207</name>
</trkpt>
<trkpt lat="48.931365" lon="8.674873">
<ele>360.5</ele>
<speed>3.6</speed>
<course>336.2</course>
<desc>Speed 3.6 km/h Distance 6.75 km</desc>
<time>2010-03-03T17:07:34.73</time>
<name>4208</name>
</trkpt>
<trkpt lat="48.931375" lon="8.674867">
<ele>360.5</ele>
<speed>3.9</speed>
<course>326.8</course>
<desc>Speed 3.9 km/h Distance 6.75 km</desc>
<time>2010-03-03T17:07:35.72</time>
<name>4209</name>
</trkpt>
<trkpt lat="48.931385" lon="8.674857">
<ele>361.0</ele>
<speed>4.2</speed>
<course>299.7</course>
<desc>Speed 4.2 km/h Distance 6.75 km</desc>
<time>2010-03-03T17:07:36.72</time>
<name>4210</name>
</trkpt>
<trkpt lat="48.931390" lon="8.674843">
<ele>361.0</ele>
<speed>3.5</speed>
<course>287.0</course>
<desc>Speed 3.5 km/h Distance 6.75 km</desc>
<time>2010-03-03T17:07:37.72</time>
<name>4211</name>
</trkpt>
<trkpt lat="48.931393" lon="8.674827">
<ele>361.0</ele>
<speed>4.5</speed>
<course>307.3</course>
<desc>Speed 4.5 km/h Distance 6.75 km</desc>
<time>2010-03-03T17:07:38.72</time>
<name>4212</name>
</trkpt>
<trkpt lat="48.931400" lon="8.674813">
<ele>361.0</ele>
<speed>4.3</speed>
<course>296.9</course>
<desc>Speed 4.3 km/h Distance 6.75 km</desc>
<time>2010-03-03T17:07:39.73</time>
<name>4213</name>
</trkpt>
<trkpt lat="48.931405" lon="8.674798">
<ele>361.0</ele>
<speed>4.2</speed>
<course>297.4</course>
<desc>Speed 4.2 km/h Distance 6.75 km</desc>
<time>2010-03-03T17:07:40.73</time>
<name>4214</name>
</trkpt>
<trkpt lat="48.931407" lon="8.674793">
<ele>361.0</ele>
<speed>1.8</speed>
<course>41.4</course>
<desc>Speed 1.8 km/h Distance 6.75 km</desc>
<time>2010-03-03T17:07:41.73</time>
<name>4215</name>
</trkpt>
<trkpt lat="48.931412" lon="8.674800">
<ele>361.0</ele>
<speed>2.6</speed>
<course>90.0</course>
<desc>Speed 2.6 km/h Distance 6.76 km</desc>
<time>2010-03-03T17:07:42.72</time>
<name>4216</name>
</trkpt>
<trkpt lat="48.931412" lon="8.674802">
<ele>361.0</ele>
<speed>0.8</speed>
<course>270.0</course>
<desc>Speed 0.8 km/h Distance 6.76 km</desc>
<time>2010-03-03T17:07:43.72</time>
<name>4217</name>
</trkpt>
<trkpt lat="48.931412" lon="8.674800">
<ele>361.0</ele>
<speed>0.3</speed>
<course>270.0</course>
<desc>Speed 0.3 km/h Distance 6.76 km</desc>
<time>2010-03-03T17:07:44.72</time>
<name>4218</name>
</trkpt>
<trkpt lat="48.931412" lon="8.674798">
<ele>361.0</ele>
<speed>0.3</speed>
<course>270.0</course>
<desc>Speed 0.3 km/h Distance 6.76 km</desc>
<time>2010-03-03T17:07:45.72</time>
<name>4219</name>
</trkpt>
<trkpt lat="48.931412" lon="8.674797">
<ele>361.5</ele>
<speed>0.4</speed>
<course>270.0</course>
<desc>Speed 0.4 km/h Distance 6.76 km</desc>
<time>2010-03-03T17:07:46.72</time>
<name>4220</name>
</trkpt>
<trkpt lat="48.931412" lon="8.674795">
<ele>361.5</ele>
<speed>0.2</speed>
<course>270.0</course>
<desc>Speed 0.2 km/h Distance 6.76 km</desc>
<time>2010-03-03T17:07:47.72</time>
<name>4221</name>
</trkpt>
<trkpt lat="48.931412" lon="8.674793">
<ele>361.5</ele>
<speed>0.3</speed>
<course>322.8</course>
<desc>Speed 0.3 km/h Distance 6.76 km</desc>
<time>2010-03-03T17:07:48.71</time>
<name>4222</name>
</trkpt>
<trkpt lat="48.931413" lon="8.674792">
<ele>361.5</ele>
<speed>0.7</speed>
<course>320.6</course>
<desc>Speed 0.7 km/h Distance 6.76 km</desc>
<time>2010-03-03T17:07:49.72</time>
<name>4223</name>
</trkpt>
<trkpt lat="48.931420" lon="8.674783">
<ele>361.5</ele>
<speed>3.4</speed>
<course>331.4</course>
<desc>Speed 3.4 km/h Distance 6.76 km</desc>
<time>2010-03-03T17:07:50.72</time>
<name>4224</name>
</trkpt>
<trkpt lat="48.931430" lon="8.674775">
<ele>361.5</ele>
<speed>4.0</speed>
<course>322.5</course>
<desc>Speed 4.0 km/h Distance 6.76 km</desc>
<time>2010-03-03T17:07:51.72</time>
<name>4225</name>
</trkpt>
<trkpt lat="48.931440" lon="8.674763">
<ele>362.0</ele>
<speed>4.7</speed>
<course>313.4</course>
<desc>Speed 4.7 km/h Distance 6.76 km</desc>
<time>2010-03-03T17:07:52.73</time>
<name>4226</name>
</trkpt>
<trkpt lat="48.931448" lon="8.674750">
<ele>362.0</ele>
<speed>4.8</speed>
<course>307.3</course>
<desc>Speed 4.8 km/h Distance 6.76 km</desc>
<time>2010-03-03T17:07:53.71</time>
<name>4227</name>
</trkpt>
<trkpt lat="48.931457" lon="8.674733">
<ele>362.5</ele>
<speed>5.3</speed>
<course>307.3</course>
<desc>Speed 5.3 km/h Distance 6.76 km</desc>
<time>2010-03-03T17:07:54.71</time>
<name>4228</name>
</trkpt>
<trkpt lat="48.931465" lon="8.674717">
<ele>362.5</ele>
<speed>4.9</speed>
<course>299.0</course>
<desc>Speed 4.9 km/h Distance 6.76 km</desc>
<time>2010-03-03T17:07:55.71</time>
<name>4229</name>
</trkpt>
<trkpt lat="48.931472" lon="8.674698">
<ele>362.5</ele>
<speed>5.1</speed>
<course>301.3</course>
<desc>Speed 5.1 km/h Distance 6.77 km</desc>
<time>2010-03-03T17:07:56.71</time>
<name>4230</name>
</trkpt>
<trkpt lat="48.931478" lon="8.674682">
<ele>362.5</ele>
<speed>5.0</speed>
<course>310.2</course>
<desc>Speed 5.0 km/h Distance 6.77 km</desc>
<time>2010-03-03T17:07:57.71</time>
<name>4231</name>
</trkpt>
<trkpt lat="48.931487" lon="8.674667">
<ele>362.0</ele>
<speed>4.8</speed>
<course>310.1</course>
<desc>Speed 4.8 km/h Distance 6.77 km</desc>
<time>2010-03-03T17:07:58.71</time>
<name>4232</name>
</trkpt>
<trkpt lat="48.931495" lon="8.674652">
<ele>362.5</ele>
<speed>4.5</speed>
<course>322.5</course>
<desc>Speed 4.5 km/h Distance 6.77 km</desc>
<time>2010-03-03T17:07:59.71</time>
<name>4233</name>
</trkpt>
<trkpt lat="48.931505" lon="8.674640">
<ele>362.5</ele>
<speed>4.5</speed>
<course>304.1</course>
<desc>Speed 4.5 km/h Distance 6.77 km</desc>
<time>2010-03-03T17:08:00.71</time>
<name>4234</name>
</trkpt>
<trkpt lat="48.931512" lon="8.674625">
<ele>362.5</ele>
<speed>4.4</speed>
<course>318.7</course>
<desc>Speed 4.4 km/h Distance 6.77 km</desc>
<time>2010-03-03T17:08:01.73</time>
<name>4235</name>
</trkpt>
<trkpt lat="48.931522" lon="8.674612">
<ele>362.5</ele>
<speed>5.0</speed>
<course>326.6</course>
<desc>Speed 5.0 km/h Distance 6.77 km</desc>
<time>2010-03-03T17:08:02.71</time>
<name>4236</name>
</trkpt>
<trkpt lat="48.931532" lon="8.674602">
<ele>362.5</ele>
<speed>4.8</speed>
<course>330.6</course>
<desc>Speed 4.8 km/h Distance 6.78 km</desc>
<time>2010-03-03T17:08:03.71</time>
<name>4237</name>
</trkpt>
<trkpt lat="48.931543" lon="8.674592">
<ele>362.5</ele>
<speed>4.8</speed>
<course>326.8</course>
<desc>Speed 4.8 km/h Distance 6.78 km</desc>
<time>2010-03-03T17:08:04.72</time>
<name>4238</name>
</trkpt>
<trkpt lat="48.931552" lon="8.674583">
<ele>362.0</ele>
<speed>3.9</speed>
<course>338.5</course>
<desc>Speed 3.9 km/h Distance 6.78 km</desc>
<time>2010-03-03T17:08:05.71</time>
<name>4239</name>
</trkpt>
<trkpt lat="48.931560" lon="8.674578">
<ele>362.0</ele>
<speed>3.5</speed>
<course>326.8</course>
<desc>Speed 3.5 km/h Distance 6.78 km</desc>
<time>2010-03-03T17:08:06.71</time>
<name>4240</name>
</trkpt>
<trkpt lat="48.931568" lon="8.674570">
<ele>362.5</ele>
<speed>3.9</speed>
<course>326.3</course>
<desc>Speed 3.9 km/h Distance 6.78 km</desc>
<time>2010-03-03T17:08:07.71</time>
<name>4241</name>
</trkpt>
<trkpt lat="48.931575" lon="8.674563">
<ele>362.5</ele>
<speed>3.2</speed>
<course>327.4</course>
<desc>Speed 3.2 km/h Distance 6.78 km</desc>
<time>2010-03-03T17:08:08.72</time>
<name>4242</name>
</trkpt>
<trkpt lat="48.931582" lon="8.674557">
<ele>362.0</ele>
<speed>3.0</speed>
<course>315.5</course>
<desc>Speed 3.0 km/h Distance 6.78 km</desc>
<time>2010-03-03T17:08:09.71</time>
<name>4243</name>
</trkpt>
<trkpt lat="48.931588" lon="8.674547">
<ele>362.0</ele>
<speed>3.3</speed>
<course>292.5</course>
<desc>Speed 3.3 km/h Distance 6.78 km</desc>
<time>2010-03-03T17:08:10.70</time>
<name>4244</name>
</trkpt>
<trkpt lat="48.931593" lon="8.674528">
<ele>362.0</ele>
<speed>5.2</speed>
<course>307.3</course>
<desc>Speed 5.2 km/h Distance 6.78 km</desc>
<time>2010-03-03T17:08:11.71</time>
<name>4245</name>
</trkpt>
<trkpt lat="48.931602" lon="8.674512">
<ele>361.5</ele>
<speed>5.0</speed>
<course>299.0</course>
<desc>Speed 5.0 km/h Distance 6.79 km</desc>
<time>2010-03-03T17:08:12.71</time>
<name>4246</name>
</trkpt>
<trkpt lat="48.931608" lon="8.674493">
<ele>361.5</ele>
<speed>5.0</speed>
<course>299.7</course>
<desc>Speed 5.0 km/h Distance 6.79 km</desc>
<time>2010-03-03T17:08:13.70</time>
<name>4247</name>
</trkpt>
<trkpt lat="48.931613" lon="8.674480">
<ele>362.0</ele>
<speed>4.0</speed>
<course>296.9</course>
<desc>Speed 4.0 km/h Distance 6.79 km</desc>
<time>2010-03-03T17:08:14.70</time>
<name>4248</name>
</trkpt>
<trkpt lat="48.931620" lon="8.674460">
<ele>362.0</ele>
<speed>5.3</speed>
<course>292.5</course>
<desc>Speed 5.3 km/h Distance 6.79 km</desc>
<time>2010-03-03T17:08:15.70</time>
<name>4249</name>
</trkpt>
<trkpt lat="48.931625" lon="8.674442">
<ele>362.0</ele>
<speed>5.2</speed>
<course>301.3</course>
<desc>Speed 5.2 km/h Distance 6.79 km</desc>
<time>2010-03-03T17:08:16.70</time>
<name>4250</name>
</trkpt>
<trkpt lat="48.931632" lon="8.674425">
<ele>362.5</ele>
<speed>5.1</speed>
<course>310.1</course>
<desc>Speed 5.1 km/h Distance 6.79 km</desc>
<time>2010-03-03T17:08:17.70</time>
<name>4251</name>
</trkpt>
<trkpt lat="48.931640" lon="8.674410">
<ele>362.5</ele>
<speed>5.1</speed>
<course>315.4</course>
<desc>Speed 5.1 km/h Distance 6.79 km</desc>
<time>2010-03-03T17:08:18.70</time>
<name>4252</name>
</trkpt>
<trkpt lat="48.931650" lon="8.674395">
<ele>362.5</ele>
<speed>5.0</speed>
<course>326.8</course>
<desc>Speed 5.0 km/h Distance 6.80 km</desc>
<time>2010-03-03T17:08:19.70</time>
<name>4253</name>
</trkpt>
<trkpt lat="48.931660" lon="8.674385">
<ele>362.5</ele>
<speed>4.4</speed>
<course>338.5</course>
<desc>Speed 4.4 km/h Distance 6.80 km</desc>
<time>2010-03-03T17:08:20.70</time>
<name>4254</name>
</trkpt>
<trkpt lat="48.931668" lon="8.674380">
<ele>362.5</ele>
<speed>3.4</speed>
<course>310.9</course>
<desc>Speed 3.4 km/h Distance 6.80 km</desc>
<time>2010-03-03T17:08:21.70</time>
<name>4255</name>
</trkpt>
<trkpt lat="48.931675" lon="8.674368">
<ele>362.5</ele>
<speed>4.0</speed>
<course>294.5</course>
<desc>Speed 4.0 km/h Distance 6.80 km</desc>
<time>2010-03-03T17:08:22.70</time>
<name>4256</name>
</trkpt>
<trkpt lat="48.931680" lon="8.674352">
<ele>362.5</ele>
<speed>4.6</speed>
<course>279.6</course>
<desc>Speed 4.6 km/h Distance 6.80 km</desc>
<time>2010-03-03T17:08:23.70</time>
<name>4257</name>
</trkpt>
<trkpt lat="48.931682" lon="8.674337">
<ele>362.5</ele>
<speed>3.9</speed>
<course>286.9</course>
<desc>Speed 3.9 km/h Distance 6.80 km</desc>
<time>2010-03-03T17:08:24.70</time>
<name>4258</name>
</trkpt>
<trkpt lat="48.931685" lon="8.674320">
<ele>362.0</ele>
<speed>4.6</speed>
<course>301.3</course>
<desc>Speed 4.6 km/h Distance 6.80 km</desc>
<time>2010-03-03T17:08:25.70</time>
<name>4259</name>
</trkpt>
<trkpt lat="48.931692" lon="8.674303">
<ele>362.5</ele>
<speed>4.8</speed>
<course>310.3</course>
<desc>Speed 4.8 km/h Distance 6.80 km</desc>
<time>2010-03-03T17:08:26.70</time>
<name>4260</name>
</trkpt>
<trkpt lat="48.931700" lon="8.674288">
<ele>363.0</ele>
<speed>5.1</speed>
<course>317.4</course>
<desc>Speed 5.1 km/h Distance 6.81 km</desc>
<time>2010-03-03T17:08:27.70</time>
<name>4261</name>
</trkpt>
<trkpt lat="48.931708" lon="8.674277">
<ele>363.0</ele>
<speed>4.4</speed>
<course>326.8</course>
<desc>Speed 4.4 km/h Distance 6.81 km</desc>
<time>2010-03-03T17:08:28.70</time>
<name>4262</name>
</trkpt>
<trkpt lat="48.931718" lon="8.674267">
<ele>363.5</ele>
<speed>4.7</speed>
<course>331.4</course>
<desc>Speed 4.7 km/h Distance 6.81 km</desc>
<time>2010-03-03T17:08:29.69</time>
<name>4263</name>
</trkpt>
<trkpt lat="48.931728" lon="8.674258">
<ele>363.5</ele>
<speed>4.5</speed>
<course>322.5</course>
<desc>Speed 4.5 km/h Distance 6.81 km</desc>
<time>2010-03-03T17:08:30.70</time>
<name>4264</name>
</trkpt>
<trkpt lat="48.931738" lon="8.674247">
<ele>363.5</ele>
<speed>4.7</speed>
<course>321.9</course>
<desc>Speed 4.7 km/h Distance 6.81 km</desc>
<time>2010-03-03T17:08:31.70</time>
<name>4265</name>
</trkpt>
<trkpt lat="48.931747" lon="8.674237">
<ele>364.0</ele>
<speed>4.1</speed>
<course>317.4</course>
<desc>Speed 4.1 km/h Distance 6.81 km</desc>
<time>2010-03-03T17:08:32.70</time>
<name>4266</name>
</trkpt>
<trkpt lat="48.931755" lon="8.674225">
<ele>364.5</ele>
<speed>4.4</speed>
<course>344.5</course>
<desc>Speed 4.4 km/h Distance 6.81 km</desc>
<time>2010-03-03T17:08:33.70</time>
<name>4267</name>
</trkpt>
<trkpt lat="48.931767" lon="8.674220">
<ele>364.5</ele>
<speed>4.5</speed>
<course>326.8</course>
<desc>Speed 4.5 km/h Distance 6.82 km</desc>
<time>2010-03-03T17:08:34.70</time>
<name>4268</name>
</trkpt>
<trkpt lat="48.931772" lon="8.674215">
<ele>365.0</ele>
<speed>2.4</speed>
<course>347.4</course>
<desc>Speed 2.4 km/h Distance 6.82 km</desc>
<time>2010-03-03T17:08:35.70</time>
<name>4269</name>
</trkpt>
<trkpt lat="48.931775" lon="8.674213">
<ele>365.5</ele>
<speed>1.5</speed>
<course>18.8</course>
<desc>Speed 1.5 km/h Distance 6.82 km</desc>
<time>2010-03-03T17:08:36.70</time>
<name>4270</name>
</trkpt>
<trkpt lat="48.931778" lon="8.674215">
<ele>365.5</ele>
<speed>1.8</speed>
<course>18.8</course>
<desc>Speed 1.8 km/h Distance 6.82 km</desc>
<time>2010-03-03T17:08:37.70</time>
<name>4271</name>
</trkpt>
<trkpt lat="48.931785" lon="8.674218">
<ele>366.0</ele>
<speed>2.7</speed>
<course>12.6</course>
<desc>Speed 2.7 km/h Distance 6.82 km</desc>
<time>2010-03-03T17:08:38.69</time>
<name>4272</name>
</trkpt>
<trkpt lat="48.931790" lon="8.674220">
<ele>366.0</ele>
<speed>2.4</speed>
<course>20.8</course>
<desc>Speed 2.4 km/h Distance 6.82 km</desc>
<time>2010-03-03T17:08:39.69</time>
<name>4273</name>
</trkpt>
<trkpt lat="48.931798" lon="8.674225">
<ele>366.0</ele>
<speed>2.9</speed>
<course>5.0</course>
<desc>Speed 2.9 km/h Distance 6.82 km</desc>
<time>2010-03-03T17:08:40.68</time>
<name>4274</name>
</trkpt>
<trkpt lat="48.931807" lon="8.674227">
<ele>366.5</ele>
<speed>3.7</speed>
<course>5.0</course>
<desc>Speed 3.7 km/h Distance 6.82 km</desc>
<time>2010-03-03T17:08:41.68</time>
<name>4275</name>
</trkpt>
<trkpt lat="48.931815" lon="8.674228">
<ele>366.5</ele>
<speed>3.1</speed>
<course>32.3</course>
<desc>Speed 3.1 km/h Distance 6.82 km</desc>
<time>2010-03-03T17:08:42.69</time>
<name>4276</name>
</trkpt>
<trkpt lat="48.931820" lon="8.674233">
<ele>366.5</ele>
<speed>2.0</speed>
<course>17.0</course>
<desc>Speed 2.0 km/h Distance 6.82 km</desc>
<time>2010-03-03T17:08:43.69</time>
<name>4277</name>
</trkpt>
<trkpt lat="48.931830" lon="8.674238">
<ele>365.5</ele>
<speed>4.0</speed>
<course>12.3</course>
<desc>Speed 4.0 km/h Distance 6.82 km</desc>
<time>2010-03-03T17:08:44.69</time>
<name>4278</name>
</trkpt>
<trkpt lat="48.931855" lon="8.674247">
<ele>365.5</ele>
<speed>9.9</speed>
<course>33.5</course>
<desc>Speed 9.9 km/h Distance 6.83 km</desc>
<time>2010-03-03T17:08:45.69</time>
<name>4279</name>
</trkpt>
<trkpt lat="48.931863" lon="8.674255">
<ele>365.5</ele>
<speed>4.3</speed>
<course>3.8</course>
<desc>Speed 4.3 km/h Distance 6.83 km</desc>
<time>2010-03-03T17:08:46.70</time>
<name>4280</name>
</trkpt>
<trkpt lat="48.931878" lon="8.674257">
<ele>365.0</ele>
<speed>5.8</speed>
<course>23.8</course>
<desc>Speed 5.8 km/h Distance 6.83 km</desc>
<time>2010-03-03T17:08:47.68</time>
<name>4281</name>
</trkpt>
<trkpt lat="48.931888" lon="8.674263">
<ele>365.0</ele>
<speed>4.1</speed>
<course>33.2</course>
<desc>Speed 4.1 km/h Distance 6.83 km</desc>
<time>2010-03-03T17:08:48.69</time>
<name>4282</name>
</trkpt>
<trkpt lat="48.931897" lon="8.674272">
<ele>364.5</ele>
<speed>4.0</speed>
<course>127.2</course>
<desc>Speed 4.0 km/h Distance 6.83 km</desc>
<time>2010-03-03T17:08:49.69</time>
<name>4283</name>
</trkpt>
<trkpt lat="48.931892" lon="8.674282">
<ele>364.5</ele>
<speed>3.1</speed>
<course>347.4</course>
<desc>Speed 3.1 km/h Distance 6.83 km</desc>
<time>2010-03-03T17:08:50.69</time>
<name>4284</name>
</trkpt>
<trkpt lat="48.931897" lon="8.674280">
<ele>364.5</ele>
<speed>2.6</speed>
<course>347.4</course>
<desc>Speed 2.6 km/h Distance 6.83 km</desc>
<time>2010-03-03T17:08:51.82</time>
<name>4285</name>
</trkpt>
<trkpt lat="48.931897" lon="8.674280">
<ele>364.5</ele>
<speed>0.3</speed>
<course>315.5</course>
<desc>Speed 0.3 km/h Distance 6.83 km</desc>
<time>2010-03-03T17:08:52.75</time>
<name>4286</name>
</trkpt>
<trkpt lat="48.931900" lon="8.674275">
<ele>364.5</ele>
<speed>2.4</speed>
<course>203.0</course>
<desc>Speed 2.4 km/h Distance 6.83 km</desc>
<time>2010-03-03T17:08:53.75</time>
<name>4287</name>
</trkpt>
<trkpt lat="48.931897" lon="8.674273">
<ele>364.5</ele>
<speed>2.1</speed>
<course>8.1</course>
<desc>Speed 2.1 km/h Distance 6.83 km</desc>
<time>2010-03-03T17:08:54.93</time>
<name>4288</name>
</trkpt>
<trkpt lat="48.931935" lon="8.674282">
<ele>364.5</ele>
<speed>0.5</speed>
<course>347.4</course>
<desc>Speed 0.5 km/h Distance 6.84 km</desc>
<time>2010-03-03T17:08:56.36</time>
<name>4289</name>
</trkpt>
<trkpt lat="48.931938" lon="8.674280">
<ele>364.5</ele>
<speed>1.4</speed>
<course>355.0</course>
<desc>Speed 1.4 km/h Distance 6.84 km</desc>
<time>2010-03-03T17:08:56.79</time>
<name>4290</name>
</trkpt>
<trkpt lat="48.931947" lon="8.674278">
<ele>364.5</ele>
<speed>1.9</speed>
<course>10.8</course>
<desc>Speed 1.9 km/h Distance 6.84 km</desc>
<time>2010-03-03T17:08:57.79</time>
<name>4291</name>
</trkpt>
<trkpt lat="48.931998" lon="8.674293">
<ele>364.0</ele>
<speed>0.4</speed>
<course>10.8</course>
<desc>Speed 0.4 km/h Distance 6.84 km</desc>
<time>2010-03-03T17:08:59.82</time>
<name>4292</name>
</trkpt>
<trkpt lat="48.931998" lon="8.674293">
<ele>364.0</ele>
<speed>0.4</speed>
<course>0.0</course>
<desc>Speed 0.4 km/h Distance 6.84 km</desc>
<time>2010-03-03T17:09:00.82</time>
<name>4293</name>
</trkpt>
<trkpt lat="48.932000" lon="8.674293">
<ele>364.0</ele>
<speed>0.7</speed>
<course>0.0</course>
<desc>Speed 0.7 km/h Distance 6.84 km</desc>
<time>2010-03-03T17:09:01.91</time>
<name>4294</name>
</trkpt>
<trkpt lat="48.932002" lon="8.674293">
<ele>364.0</ele>
<speed>0.5</speed>
<course>33.7</course>
<desc>Speed 0.5 km/h Distance 6.85 km</desc>
<time>2010-03-03T17:09:03.00</time>
<name>4295</name>
</trkpt>
<trkpt lat="48.932005" lon="8.674297">
<ele>364.0</ele>
<speed>0.5</speed>
<course>90.0</course>
<desc>Speed 0.5 km/h Distance 6.85 km</desc>
<time>2010-03-03T17:09:03.96</time>
<name>4296</name>
</trkpt>
<trkpt lat="48.932005" lon="8.674307">
<ele>364.0</ele>
<speed>2.3</speed>
<course>11.0</course>
<desc>Speed 2.3 km/h Distance 6.85 km</desc>
<time>2010-03-03T17:09:04.96</time>
<name>4297</name>
</trkpt>
<trkpt lat="48.932033" lon="8.674315">
<ele>364.5</ele>
<speed>1.9</speed>
<course>175.0</course>
<desc>Speed 1.9 km/h Distance 6.85 km</desc>
<time>2010-03-03T17:09:06.96</time>
<name>4298</name>
</trkpt>
<trkpt lat="48.932025" lon="8.674315">
<ele>364.5</ele>
<speed>1.4</speed>
<course>150.6</course>
<desc>Speed 1.4 km/h Distance 6.85 km</desc>
<time>2010-03-03T17:09:07.96</time>
<name>4299</name>
</trkpt>
<trkpt lat="48.932013" lon="8.674325">
<ele>364.5</ele>
<speed>1.9</speed>
<course>270.0</course>
<desc>Speed 1.9 km/h Distance 6.85 km</desc>
<time>2010-03-03T17:09:08.96</time>
<name>4300</name>
</trkpt>
<trkpt lat="48.932013" lon="8.674322">
<ele>364.5</ele>
<speed>2.1</speed>
<course>347.7</course>
<desc>Speed 2.1 km/h Distance 6.85 km</desc>
<time>2010-03-03T17:09:09.96</time>
<name>4301</name>
</trkpt>
<trkpt lat="48.932033" lon="8.674315">
<ele>364.5</ele>
<speed>8.9</speed>
<course>170.4</course>
<desc>Speed 8.9 km/h Distance 6.85 km</desc>
<time>2010-03-03T17:09:10.96</time>
<name>4302</name>
</trkpt>
<trkpt lat="48.932025" lon="8.674317">
<ele>364.5</ele>
<speed>0.8</speed>
<course>198.8</course>
<desc>Speed 0.8 km/h Distance 6.86 km</desc>
<time>2010-03-03T17:09:12.96</time>
<name>4303</name>
</trkpt>
<trkpt lat="48.932022" lon="8.674315">
<ele>364.5</ele>
<speed>0.2</speed>
<course>238.6</course>
<desc>Speed 0.2 km/h Distance 6.86 km</desc>
<time>2010-03-03T17:09:13.96</time>
<name>4304</name>
</trkpt>
<trkpt lat="48.932018" lon="8.674307">
<ele>364.5</ele>
<speed>4.0</speed>
<course>146.3</course>
<desc>Speed 4.0 km/h Distance 6.86 km</desc>
<time>2010-03-03T17:09:14.96</time>
<name>4305</name>
</trkpt>
<trkpt lat="48.932015" lon="8.674310">
<ele>364.5</ele>
<speed>1.6</speed>
<course>141.2</course>
<desc>Speed 1.6 km/h Distance 6.86 km</desc>
<time>2010-03-03T17:09:15.96</time>
<name>4306</name>
</trkpt>
<trkpt lat="48.931985" lon="8.674347">
<ele>364.5</ele>
<speed>0.5</speed>
<course>330.8</course>
<desc>Speed 0.5 km/h Distance 6.86 km</desc>
<time>2010-03-03T17:09:17.96</time>
<name>4307</name>
</trkpt>
<trkpt lat="48.931987" lon="8.674345">
<ele>364.5</ele>
<speed>0.3</speed>
<course>167.4</course>
<desc>Speed 0.3 km/h Distance 6.86 km</desc>
<time>2010-03-03T17:09:18.96</time>
<name>4308</name>
</trkpt>
<trkpt lat="48.931982" lon="8.674347">
<ele>364.5</ele>
<speed>0.8</speed>
<course>150.8</course>
<desc>Speed 0.8 km/h Distance 6.86 km</desc>
<time>2010-03-03T17:09:20.05</time>
<name>4309</name>
</trkpt>
<trkpt lat="48.931980" lon="8.674348">
<ele>364.5</ele>
<speed>0.6</speed>
<course>171.9</course>
<desc>Speed 0.6 km/h Distance 6.86 km</desc>
<time>2010-03-03T17:09:21.02</time>
<name>4310</name>
</trkpt>
<trkpt lat="48.931975" lon="8.674348">
<ele>364.0</ele>
<speed>1.3</speed>
<course>270.0</course>
<desc>Speed 1.3 km/h Distance 6.86 km</desc>
<time>2010-03-03T17:09:22.02</time>
<name>4311</name>
</trkpt>
<trkpt lat="48.931975" lon="8.674340">
<ele>363.5</ele>
<speed>1.7</speed>
<course>270.0</course>
<desc>Speed 1.7 km/h Distance 6.86 km</desc>
<time>2010-03-03T17:09:23.02</time>
<name>4312</name>
</trkpt>
<trkpt lat="48.931975" lon="8.674337">
<ele>363.5</ele>
<speed>0.4</speed>
<course>337.0</course>
<desc>Speed 0.4 km/h Distance 6.86 km</desc>
<time>2010-03-03T17:09:24.02</time>
<name>4313</name>
</trkpt>
<trkpt lat="48.931978" lon="8.674335">
<ele>363.5</ele>
<speed>1.8</speed>
<course>167.4</course>
<desc>Speed 1.8 km/h Distance 6.86 km</desc>
<time>2010-03-03T17:09:25.02</time>
<name>4314</name>
</trkpt>
<trkpt lat="48.931977" lon="8.674335">
<ele>364.0</ele>
<speed>0.3</speed>
<course>326.8</course>
<desc>Speed 0.3 km/h Distance 6.86 km</desc>
<time>2010-03-03T17:09:26.02</time>
<name>4315</name>
</trkpt>
<trkpt lat="48.931987" lon="8.674325">
<ele>364.0</ele>
<speed>4.8</speed>
<course>136.5</course>
<desc>Speed 4.8 km/h Distance 6.87 km</desc>
<time>2010-03-03T17:09:27.02</time>
<name>4316</name>
</trkpt>
<trkpt lat="48.931983" lon="8.674330">
<ele>364.0</ele>
<speed>1.3</speed>
<course>322.8</course>
<desc>Speed 1.3 km/h Distance 6.87 km</desc>
<time>2010-03-03T17:09:28.02</time>
<name>4317</name>
</trkpt>
<trkpt lat="48.931985" lon="8.674328">
<ele>364.0</ele>
<speed>0.3</speed>
<course>0.0</course>
<desc>Speed 0.3 km/h Distance 6.87 km</desc>
<time>2010-03-03T17:09:29.02</time>
<name>4318</name>
</trkpt>
<trkpt lat="48.931988" lon="8.674328">
<ele>364.0</ele>
<speed>0.4</speed>
<course>0.0</course>
<desc>Speed 0.4 km/h Distance 6.87 km</desc>
<time>2010-03-03T17:09:30.02</time>
<name>4319</name>
</trkpt>
<trkpt lat="48.931992" lon="8.674328">
<ele>364.0</ele>
<speed>0.1</speed>
<course>0.0</course>
<desc>Speed 0.1 km/h Distance 6.87 km</desc>
<time>2010-03-03T17:09:31.02</time>
<name>4320</name>
</trkpt>
<trkpt lat="48.931992" lon="8.674328">
<ele>364.0</ele>
<speed>0.4</speed>
<course>90.0</course>
<desc>Speed 0.4 km/h Distance 6.87 km</desc>
<time>2010-03-03T17:09:32.02</time>
<name>4321</name>
</trkpt>
<trkpt lat="48.931992" lon="8.674330">
<ele>364.0</ele>
<speed>0.1</speed>
<course>142.8</course>
<desc>Speed 0.1 km/h Distance 6.87 km</desc>
<time>2010-03-03T17:09:33.02</time>
<name>4322</name>
</trkpt>
<trkpt lat="48.931990" lon="8.674332">
<ele>364.0</ele>
<speed>0.3</speed>
<course>142.8</course>
<desc>Speed 0.3 km/h Distance 6.87 km</desc>
<time>2010-03-03T17:09:34.02</time>
<name>4323</name>
</trkpt>
<trkpt lat="48.931990" lon="8.674332">
<ele>364.0</ele>
<speed>0.2</speed>
<course>142.8</course>
<desc>Speed 0.2 km/h Distance 6.87 km</desc>
<time>2010-03-03T17:09:35.02</time>
<name>4324</name>
</trkpt>
<trkpt lat="48.931990" lon="8.674332">
<ele>364.0</ele>
<speed>0.3</speed>
<course>142.8</course>
<desc>Speed 0.3 km/h Distance 6.87 km</desc>
<time>2010-03-03T17:09:36.02</time>
<name>4325</name>
</trkpt>
<trkpt lat="48.931990" lon="8.674332">
<ele>364.0</ele>
<speed>0.2</speed>
<course>142.8</course>
<desc>Speed 0.2 km/h Distance 6.87 km</desc>
<time>2010-03-03T17:09:37.02</time>
<name>4326</name>
</trkpt>
<trkpt lat="48.931990" lon="8.674332">
<ele>364.0</ele>
<speed>0.2</speed>
<course>270.0</course>
<desc>Speed 0.2 km/h Distance 6.87 km</desc>
<time>2010-03-03T17:09:38.02</time>
<name>4327</name>
</trkpt>
<trkpt lat="48.931990" lon="8.674330">
<ele>364.0</ele>
<speed>0.1</speed>
<course>217.2</course>
<desc>Speed 0.1 km/h Distance 6.87 km</desc>
<time>2010-03-03T17:09:39.02</time>
<name>4328</name>
</trkpt>
<trkpt lat="48.931988" lon="8.674328">
<ele>363.5</ele>
<speed>0.5</speed>
<course>322.8</course>
<desc>Speed 0.5 km/h Distance 6.87 km</desc>
<time>2010-03-03T17:09:40.02</time>
<name>4329</name>
</trkpt>
<trkpt lat="48.931990" lon="8.674327">
<ele>363.5</ele>
<speed>0.2</speed>
<course>322.8</course>
<desc>Speed 0.2 km/h Distance 6.87 km</desc>
<time>2010-03-03T17:09:41.02</time>
<name>4330</name>
</trkpt>
<trkpt lat="48.931990" lon="8.674327">
<ele>363.5</ele>
<speed>0.3</speed>
<course>322.8</course>
<desc>Speed 0.3 km/h Distance 6.87 km</desc>
<time>2010-03-03T17:09:42.02</time>
<name>4331</name>
</trkpt>
<trkpt lat="48.931990" lon="8.674327">
<ele>363.5</ele>
<speed>0.6</speed>
<course>167.4</course>
<desc>Speed 0.6 km/h Distance 6.87 km</desc>
<time>2010-03-03T17:09:43.02</time>
<name>4332</name>
</trkpt>
<trkpt lat="48.931988" lon="8.674327">
<ele>363.5</ele>
<speed>0.2</speed>
<course>167.4</course>
<desc>Speed 0.2 km/h Distance 6.87 km</desc>
<time>2010-03-03T17:09:44.02</time>
<name>4333</name>
</trkpt>
<trkpt lat="48.931988" lon="8.674327">
<ele>363.5</ele>
<speed>0.1</speed>
<course>167.4</course>
<desc>Speed 0.1 km/h Distance 6.87 km</desc>
<time>2010-03-03T17:09:45.02</time>
<name>4334</name>
</trkpt>
<trkpt lat="48.931988" lon="8.674327">
<ele>363.5</ele>
<speed>0.2</speed>
<course>167.4</course>
<desc>Speed 0.2 km/h Distance 6.87 km</desc>
<time>2010-03-03T17:09:46.02</time>
<name>4335</name>
</trkpt>
<trkpt lat="48.931987" lon="8.674327">
<ele>363.5</ele>
<speed>0.3</speed>
<course>167.4</course>
<desc>Speed 0.3 km/h Distance 6.87 km</desc>
<time>2010-03-03T17:09:47.02</time>
<name>4336</name>
</trkpt>
<trkpt lat="48.931987" lon="8.674327">
<ele>363.5</ele>
<speed>0.1</speed>
<course>90.0</course>
<desc>Speed 0.1 km/h Distance 6.87 km</desc>
<time>2010-03-03T17:09:48.02</time>
<name>4337</name>
</trkpt>
<trkpt lat="48.931987" lon="8.674328">
<ele>363.5</ele>
<speed>0.3</speed>
<course>167.4</course>
<desc>Speed 0.3 km/h Distance 6.87 km</desc>
<time>2010-03-03T17:09:49.02</time>
<name>4338</name>
</trkpt>
<trkpt lat="48.931985" lon="8.674328">
<ele>363.5</ele>
<speed>0.1</speed>
<course>167.4</course>
<desc>Speed 0.1 km/h Distance 6.87 km</desc>
<time>2010-03-03T17:09:50.02</time>
<name>4339</name>
</trkpt>
<trkpt lat="48.931985" lon="8.674328">
<ele>363.5</ele>
<speed>0.3</speed>
<course>167.4</course>
<desc>Speed 0.3 km/h Distance 6.87 km</desc>
<time>2010-03-03T17:09:51.02</time>
<name>4340</name>
</trkpt>
<trkpt lat="48.931985" lon="8.674328">
<ele>364.0</ele>
<speed>0.1</speed>
<course>167.4</course>
<desc>Speed 0.1 km/h Distance 6.87 km</desc>
<time>2010-03-03T17:09:52.02</time>
<name>4341</name>
</trkpt>
<trkpt lat="48.931985" lon="8.674328">
<ele>364.0</ele>
<speed>0.1</speed>
<course>167.4</course>
<desc>Speed 0.1 km/h Distance 6.87 km</desc>
<time>2010-03-03T17:09:53.02</time>
<name>4342</name>
</trkpt>
<trkpt lat="48.931985" lon="8.674328">
<ele>364.0</ele>
<speed>0.2</speed>
<course>167.4</course>
<desc>Speed 0.2 km/h Distance 6.87 km</desc>
<time>2010-03-03T17:09:54.02</time>
<name>4343</name>
</trkpt>
<trkpt lat="48.931985" lon="8.674328">
<ele>364.0</ele>
<speed>0.1</speed>
<course>142.8</course>
<desc>Speed 0.1 km/h Distance 6.87 km</desc>
<time>2010-03-03T17:09:55.02</time>
<name>4344</name>
</trkpt>
<trkpt lat="48.931983" lon="8.674330">
<ele>364.0</ele>
<speed>0.2</speed>
<course>142.8</course>
<desc>Speed 0.2 km/h Distance 6.87 km</desc>
<time>2010-03-03T17:09:56.02</time>
<name>4345</name>
</trkpt>
<trkpt lat="48.931983" lon="8.674330">
<ele>364.0</ele>
<speed>0.0</speed>
<course>167.4</course>
<desc>Speed 0.0 km/h Distance 6.87 km</desc>
<time>2010-03-03T17:09:57.02</time>
<name>4346</name>
</trkpt>
<trkpt lat="48.931980" lon="8.674330">
<ele>364.0</ele>
<speed>0.9</speed>
<course>189.6</course>
<desc>Speed 0.9 km/h Distance 6.87 km</desc>
<time>2010-03-03T17:09:58.02</time>
<name>4347</name>
</trkpt>
<trkpt lat="48.931972" lon="8.674328">
<ele>364.0</ele>
<speed>3.1</speed>
<course>178.8</course>
<desc>Speed 3.1 km/h Distance 6.87 km</desc>
<time>2010-03-03T17:09:59.02</time>
<name>4348</name>
</trkpt>
<trkpt lat="48.931958" lon="8.674328">
<ele>364.0</ele>
<speed>3.9</speed>
<course>185.3</course>
<desc>Speed 3.9 km/h Distance 6.87 km</desc>
<time>2010-03-03T17:10:00.02</time>
<name>4349</name>
</trkpt>
<trkpt lat="48.931945" lon="8.674327">
<ele>364.0</ele>
<speed>4.9</speed>
<course>196.0</course>
<desc>Speed 4.9 km/h Distance 6.87 km</desc>
<time>2010-03-03T17:10:01.02</time>
<name>4350</name>
</trkpt>
<trkpt lat="48.931933" lon="8.674322">
<ele>364.5</ele>
<speed>5.1</speed>
<course>200.1</course>
<desc>Speed 5.1 km/h Distance 6.87 km</desc>
<time>2010-03-03T17:10:02.02</time>
<name>4351</name>
</trkpt>
<trkpt lat="48.931918" lon="8.674313">
<ele>364.0</ele>
<speed>5.5</speed>
<course>193.5</course>
<desc>Speed 5.5 km/h Distance 6.88 km</desc>
<time>2010-03-03T17:10:03.02</time>
<name>4352</name>
</trkpt>
<trkpt lat="48.931905" lon="8.674308">
<ele>364.0</ele>
<speed>5.4</speed>
<course>202.3</course>
<desc>Speed 5.4 km/h Distance 6.88 km</desc>
<time>2010-03-03T17:10:04.02</time>
<name>4353</name>
</trkpt>
<trkpt lat="48.931892" lon="8.674300">
<ele>364.0</ele>
<speed>5.3</speed>
<course>200.1</course>
<desc>Speed 5.3 km/h Distance 6.88 km</desc>
<time>2010-03-03T17:10:05.02</time>
<name>4354</name>
</trkpt>
<trkpt lat="48.931877" lon="8.674292">
<ele>364.0</ele>
<speed>6.2</speed>
<course>200.1</course>
<desc>Speed 6.2 km/h Distance 6.88 km</desc>
<time>2010-03-03T17:10:06.02</time>
<name>4355</name>
</trkpt>
<trkpt lat="48.931862" lon="8.674283">
<ele>364.0</ele>
<speed>5.9</speed>
<course>200.1</course>
<desc>Speed 5.9 km/h Distance 6.88 km</desc>
<time>2010-03-03T17:10:07.02</time>
<name>4356</name>
</trkpt>
<trkpt lat="48.931847" lon="8.674275">
<ele>363.5</ele>
<speed>5.5</speed>
<course>196.3</course>
<desc>Speed 5.5 km/h Distance 6.88 km</desc>
<time>2010-03-03T17:10:08.02</time>
<name>4357</name>
</trkpt>
<trkpt lat="48.931832" lon="8.674268">
<ele>363.5</ele>
<speed>6.2</speed>
<course>203.7</course>
<desc>Speed 6.2 km/h Distance 6.89 km</desc>
<time>2010-03-03T17:10:09.02</time>
<name>4358</name>
</trkpt>
<trkpt lat="48.931817" lon="8.674258">
<ele>363.5</ele>
<speed>5.5</speed>
<course>198.1</course>
<desc>Speed 5.5 km/h Distance 6.89 km</desc>
<time>2010-03-03T17:10:10.02</time>
<name>4359</name>
</trkpt>
<trkpt lat="48.931800" lon="8.674250">
<ele>363.5</ele>
<speed>6.2</speed>
<course>198.1</course>
<desc>Speed 6.2 km/h Distance 6.89 km</desc>
<time>2010-03-03T17:10:11.02</time>
<name>4360</name>
</trkpt>
<trkpt lat="48.931783" lon="8.674242">
<ele>363.0</ele>
<speed>5.7</speed>
<course>198.4</course>
<desc>Speed 5.7 km/h Distance 6.89 km</desc>
<time>2010-03-03T17:10:12.02</time>
<name>4361</name>
</trkpt>
<trkpt lat="48.931770" lon="8.674235">
<ele>362.5</ele>
<speed>5.0</speed>
<course>182.8</course>
<desc>Speed 5.0 km/h Distance 6.89 km</desc>
<time>2010-03-03T17:10:13.02</time>
<name>4362</name>
</trkpt>
<trkpt lat="48.931753" lon="8.674233">
<ele>362.5</ele>
<speed>5.5</speed>
<course>163.4</course>
<desc>Speed 5.5 km/h Distance 6.90 km</desc>
<time>2010-03-03T17:10:14.02</time>
<name>4363</name>
</trkpt>
<trkpt lat="48.931735" lon="8.674242">
<ele>362.5</ele>
<speed>5.9</speed>
<course>150.2</course>
<desc>Speed 5.9 km/h Distance 6.90 km</desc>
<time>2010-03-03T17:10:15.02</time>
<name>4364</name>
</trkpt>
<trkpt lat="48.931722" lon="8.674253">
<ele>363.0</ele>
<speed>5.6</speed>
<course>135.5</course>
<desc>Speed 5.6 km/h Distance 6.90 km</desc>
<time>2010-03-03T17:10:16.02</time>
<name>4365</name>
</trkpt>
<trkpt lat="48.931715" lon="8.674263">
<ele>363.0</ele>
<speed>3.7</speed>
<course>129.7</course>
<desc>Speed 3.7 km/h Distance 6.90 km</desc>
<time>2010-03-03T17:10:17.02</time>
<name>4366</name>
</trkpt>
<trkpt lat="48.931705" lon="8.674282">
<ele>363.0</ele>
<speed>5.8</speed>
<course>122.4</course>
<desc>Speed 5.8 km/h Distance 6.90 km</desc>
<time>2010-03-03T17:10:18.02</time>
<name>4367</name>
</trkpt>
<trkpt lat="48.931697" lon="8.674302">
<ele>363.0</ele>
<speed>6.1</speed>
<course>115.1</course>
<desc>Speed 6.1 km/h Distance 6.90 km</desc>
<time>2010-03-03T17:10:19.02</time>
<name>4368</name>
</trkpt>
<trkpt lat="48.931690" lon="8.674323">
<ele>363.0</ele>
<speed>5.9</speed>
<course>119.0</course>
<desc>Speed 5.9 km/h Distance 6.91 km</desc>
<time>2010-03-03T17:10:20.02</time>
<name>4369</name>
</trkpt>
<trkpt lat="48.931683" lon="8.674342">
<ele>363.0</ele>
<speed>5.4</speed>
<course>124.7</course>
<desc>Speed 5.4 km/h Distance 6.91 km</desc>
<time>2010-03-03T17:10:21.02</time>
<name>4370</name>
</trkpt>
<trkpt lat="48.931675" lon="8.674360">
<ele>363.0</ele>
<speed>5.3</speed>
<course>127.2</course>
<desc>Speed 5.3 km/h Distance 6.91 km</desc>
<time>2010-03-03T17:10:22.02</time>
<name>4371</name>
</trkpt>
<trkpt lat="48.931663" lon="8.674383">
<ele>363.5</ele>
<speed>6.0</speed>
<course>119.0</course>
<desc>Speed 6.0 km/h Distance 6.91 km</desc>
<time>2010-03-03T17:10:23.02</time>
<name>4372</name>
</trkpt>
<trkpt lat="48.931657" lon="8.674402">
<ele>363.5</ele>
<speed>5.7</speed>
<course>122.4</course>
<desc>Speed 5.7 km/h Distance 6.91 km</desc>
<time>2010-03-03T17:10:24.02</time>
<name>4373</name>
</trkpt>
<trkpt lat="48.931648" lon="8.674422">
<ele>364.0</ele>
<speed>6.0</speed>
<course>127.3</course>
<desc>Speed 6.0 km/h Distance 6.91 km</desc>
<time>2010-03-03T17:10:25.02</time>
<name>4374</name>
</trkpt>
<trkpt lat="48.931640" lon="8.674438">
<ele>364.0</ele>
<speed>5.9</speed>
<course>127.3</course>
<desc>Speed 5.9 km/h Distance 6.92 km</desc>
<time>2010-03-03T17:10:26.02</time>
<name>4375</name>
</trkpt>
<trkpt lat="48.931632" lon="8.674455">
<ele>364.0</ele>
<speed>5.9</speed>
<course>127.3</course>
<desc>Speed 5.9 km/h Distance 6.92 km</desc>
<time>2010-03-03T17:10:27.02</time>
<name>4376</name>
</trkpt>
<trkpt lat="48.931623" lon="8.674472">
<ele>363.5</ele>
<speed>5.8</speed>
<course>119.0</course>
<desc>Speed 5.8 km/h Distance 6.92 km</desc>
<time>2010-03-03T17:10:28.02</time>
<name>4377</name>
</trkpt>
<trkpt lat="48.931617" lon="8.674490">
<ele>363.5</ele>
<speed>6.0</speed>
<course>119.0</course>
<desc>Speed 6.0 km/h Distance 6.92 km</desc>
<time>2010-03-03T17:10:29.02</time>
<name>4378</name>
</trkpt>
<trkpt lat="48.931610" lon="8.674508">
<ele>363.5</ele>
<speed>5.7</speed>
<course>121.3</course>
<desc>Speed 5.7 km/h Distance 6.92 km</desc>
<time>2010-03-03T17:10:30.02</time>
<name>4379</name>
</trkpt>
<trkpt lat="48.931603" lon="8.674525">
<ele>363.5</ele>
<speed>5.6</speed>
<course>121.3</course>
<desc>Speed 5.6 km/h Distance 6.92 km</desc>
<time>2010-03-03T17:10:31.02</time>
<name>4380</name>
</trkpt>
<trkpt lat="48.931597" lon="8.674542">
<ele>363.5</ele>
<speed>5.8</speed>
<course>138.8</course>
<desc>Speed 5.8 km/h Distance 6.92 km</desc>
<time>2010-03-03T17:10:32.02</time>
<name>4381</name>
</trkpt>
<trkpt lat="48.931587" lon="8.674555">
<ele>363.0</ele>
<speed>5.8</speed>
<course>130.3</course>
<desc>Speed 5.8 km/h Distance 6.93 km</desc>
<time>2010-03-03T17:10:33.02</time>
<name>4382</name>
</trkpt>
<trkpt lat="48.931578" lon="8.674570">
<ele>363.0</ele>
<speed>5.4</speed>
<course>124.1</course>
<desc>Speed 5.4 km/h Distance 6.93 km</desc>
<time>2010-03-03T17:10:34.02</time>
<name>4383</name>
</trkpt>
<trkpt lat="48.931572" lon="8.674585">
<ele>363.0</ele>
<speed>5.5</speed>
<course>124.1</course>
<desc>Speed 5.5 km/h Distance 6.93 km</desc>
<time>2010-03-03T17:10:35.02</time>
<name>4384</name>
</trkpt>
<trkpt lat="48.931565" lon="8.674600">
<ele>363.0</ele>
<speed>5.8</speed>
<course>132.4</course>
<desc>Speed 5.8 km/h Distance 6.93 km</desc>
<time>2010-03-03T17:10:36.02</time>
<name>4385</name>
</trkpt>
<trkpt lat="48.931555" lon="8.674617">
<ele>363.0</ele>
<speed>5.6</speed>
<course>130.1</course>
<desc>Speed 5.6 km/h Distance 6.93 km</desc>
<time>2010-03-03T17:10:37.02</time>
<name>4386</name>
</trkpt>
<trkpt lat="48.931547" lon="8.674632">
<ele>363.0</ele>
<speed>5.7</speed>
<course>135.4</course>
<desc>Speed 5.7 km/h Distance 6.93 km</desc>
<time>2010-03-03T17:10:38.02</time>
<name>4387</name>
</trkpt>
<trkpt lat="48.931537" lon="8.674647">
<ele>363.0</ele>
<speed>5.5</speed>
<course>133.5</course>
<desc>Speed 5.5 km/h Distance 6.94 km</desc>
<time>2010-03-03T17:10:39.02</time>
<name>4388</name>
</trkpt>
<trkpt lat="48.931528" lon="8.674660">
<ele>363.0</ele>
<speed>5.1</speed>
<course>150.8</course>
<desc>Speed 5.1 km/h Distance 6.94 km</desc>
<time>2010-03-03T17:10:40.02</time>
<name>4389</name>
</trkpt>
<trkpt lat="48.931518" lon="8.674668">
<ele>363.0</ele>
<speed>4.9</speed>
<course>154.8</course>
<desc>Speed 4.9 km/h Distance 6.94 km</desc>
<time>2010-03-03T17:10:41.02</time>
<name>4390</name>
</trkpt>
<trkpt lat="48.931507" lon="8.674677">
<ele>363.0</ele>
<speed>5.4</speed>
<course>146.7</course>
<desc>Speed 5.4 km/h Distance 6.94 km</desc>
<time>2010-03-03T17:10:42.02</time>
<name>4391</name>
</trkpt>
<trkpt lat="48.931495" lon="8.674688">
<ele>363.0</ele>
<speed>5.5</speed>
<course>150.2</course>
<desc>Speed 5.5 km/h Distance 6.94 km</desc>
<time>2010-03-03T17:10:43.02</time>
<name>4392</name>
</trkpt>
<trkpt lat="48.931482" lon="8.674700">
<ele>363.0</ele>
<speed>5.6</speed>
<course>142.7</course>
<desc>Speed 5.6 km/h Distance 6.94 km</desc>
<time>2010-03-03T17:10:44.02</time>
<name>4393</name>
</trkpt>
<trkpt lat="48.931472" lon="8.674712">
<ele>363.0</ele>
<speed>5.6</speed>
<course>146.6</course>
<desc>Speed 5.6 km/h Distance 6.94 km</desc>
<time>2010-03-03T17:10:45.02</time>
<name>4394</name>
</trkpt>
<trkpt lat="48.931460" lon="8.674723">
<ele>363.0</ele>
<speed>5.1</speed>
<course>146.8</course>
<desc>Speed 5.1 km/h Distance 6.95 km</desc>
<time>2010-03-03T17:10:46.02</time>
<name>4395</name>
</trkpt>
<trkpt lat="48.931450" lon="8.674733">
<ele>363.0</ele>
<speed>4.7</speed>
<course>233.0</course>
<desc>Speed 4.7 km/h Distance 6.95 km</desc>
<time>2010-03-03T17:10:47.02</time>
<name>4396</name>
</trkpt>
<trkpt lat="48.931447" lon="8.674727">
<ele>363.0</ele>
<speed>2.1</speed>
<course>303.3</course>
<desc>Speed 2.1 km/h Distance 6.95 km</desc>
<time>2010-03-03T17:10:48.02</time>
<name>4397</name>
</trkpt>
<trkpt lat="48.931452" lon="8.674715">
<ele>362.5</ele>
<speed>3.7</speed>
<course>287.0</course>
<desc>Speed 3.7 km/h Distance 6.95 km</desc>
<time>2010-03-03T17:10:49.02</time>
<name>4398</name>
</trkpt>
<trkpt lat="48.931455" lon="8.674698">
<ele>362.5</ele>
<speed>4.3</speed>
<course>304.1</course>
<desc>Speed 4.3 km/h Distance 6.95 km</desc>
<time>2010-03-03T17:10:50.02</time>
<name>4399</name>
</trkpt>
<trkpt lat="48.931462" lon="8.674683">
<ele>362.5</ele>
<speed>4.5</speed>
<course>294.5</course>
<desc>Speed 4.5 km/h Distance 6.95 km</desc>
<time>2010-03-03T17:10:51.02</time>
<name>4400</name>
</trkpt>
<trkpt lat="48.931467" lon="8.674667">
<ele>362.5</ele>
<speed>4.7</speed>
<course>292.6</course>
<desc>Speed 4.7 km/h Distance 6.95 km</desc>
<time>2010-03-03T17:10:52.02</time>
<name>4401</name>
</trkpt>
<trkpt lat="48.931472" lon="8.674648">
<ele>362.5</ele>
<speed>5.2</speed>
<course>304.7</course>
<desc>Speed 5.2 km/h Distance 6.95 km</desc>
<time>2010-03-03T17:10:53.02</time>
<name>4402</name>
</trkpt>
<trkpt lat="48.931480" lon="8.674630">
<ele>362.5</ele>
<speed>4.9</speed>
<course>301.3</course>
<desc>Speed 4.9 km/h Distance 6.96 km</desc>
<time>2010-03-03T17:10:54.02</time>
<name>4403</name>
</trkpt>
<trkpt lat="48.931487" lon="8.674613">
<ele>362.5</ele>
<speed>5.0</speed>
<course>310.1</course>
<desc>Speed 5.0 km/h Distance 6.96 km</desc>
<time>2010-03-03T17:10:55.02</time>
<name>4404</name>
</trkpt>
<trkpt lat="48.931495" lon="8.674598">
<ele>363.0</ele>
<speed>4.5</speed>
<course>299.7</course>
<desc>Speed 4.5 km/h Distance 6.96 km</desc>
<time>2010-03-03T17:10:56.02</time>
<name>4405</name>
</trkpt>
<trkpt lat="48.931500" lon="8.674585">
<ele>363.0</ele>
<speed>4.0</speed>
<course>284.1</course>
<desc>Speed 4.0 km/h Distance 6.96 km</desc>
<time>2010-03-03T17:10:57.02</time>
<name>4406</name>
</trkpt>
<trkpt lat="48.931502" lon="8.674575">
<ele>363.0</ele>
<speed>2.3</speed>
<course>12.6</course>
<desc>Speed 2.3 km/h Distance 6.96 km</desc>
<time>2010-03-03T17:10:58.02</time>
<name>4407</name>
</trkpt>
<trkpt lat="48.931503" lon="8.674575">
<ele>363.0</ele>
<speed>0.3</speed>
<course>146.3</course>
<desc>Speed 0.3 km/h Distance 6.96 km</desc>
<time>2010-03-03T17:10:59.02</time>
<name>4408</name>
</trkpt>
<trkpt lat="48.931500" lon="8.674578">
<ele>362.5</ele>
<speed>1.4</speed>
<course>127.2</course>
<desc>Speed 1.4 km/h Distance 6.96 km</desc>
<time>2010-03-03T17:11:00.02</time>
<name>4409</name>
</trkpt>
<trkpt lat="48.931495" lon="8.674588">
<ele>363.0</ele>
<speed>3.5</speed>
<course>108.7</course>
<desc>Speed 3.5 km/h Distance 6.96 km</desc>
<time>2010-03-03T17:11:01.02</time>
<name>4410</name>
</trkpt>
<trkpt lat="48.931492" lon="8.674603">
<ele>363.0</ele>
<speed>4.5</speed>
<course>100.8</course>
<desc>Speed 4.5 km/h Distance 6.96 km</desc>
<time>2010-03-03T17:11:02.02</time>
<name>4411</name>
</trkpt>
<trkpt lat="48.931490" lon="8.674617">
<ele>363.0</ele>
<speed>4.1</speed>
<course>100.7</course>
<desc>Speed 4.1 km/h Distance 6.96 km</desc>
<time>2010-03-03T17:11:03.02</time>
<name>4412</name>
</trkpt>
<trkpt lat="48.931488" lon="8.674630">
<ele>363.0</ele>
<speed>3.7</speed>
<course>130.9</course>
<desc>Speed 3.7 km/h Distance 6.96 km</desc>
<time>2010-03-03T17:11:04.02</time>
<name>4413</name>
</trkpt>
<trkpt lat="48.931482" lon="8.674642">
<ele>363.0</ele>
<speed>3.6</speed>
<course>127.3</course>
<desc>Speed 3.6 km/h Distance 6.97 km</desc>
<time>2010-03-03T17:11:05.02</time>
<name>4414</name>
</trkpt>
<trkpt lat="48.931475" lon="8.674655">
<ele>363.0</ele>
<speed>4.6</speed>
<course>124.0</course>
<desc>Speed 4.6 km/h Distance 6.97 km</desc>
<time>2010-03-03T17:11:06.02</time>
<name>4415</name>
</trkpt>
<trkpt lat="48.931468" lon="8.674670">
<ele>362.5</ele>
<speed>4.8</speed>
<course>116.9</course>
<desc>Speed 4.8 km/h Distance 6.97 km</desc>
<time>2010-03-03T17:11:07.02</time>
<name>4416</name>
</trkpt>
<trkpt lat="48.931463" lon="8.674685">
<ele>362.5</ele>
<speed>4.2</speed>
<course>116.9</course>
<desc>Speed 4.2 km/h Distance 6.97 km</desc>
<time>2010-03-03T17:11:08.02</time>
<name>4417</name>
</trkpt>
<trkpt lat="48.931457" lon="8.674705">
<ele>362.5</ele>
<speed>6.2</speed>
<course>90.0</course>
<desc>Speed 6.2 km/h Distance 6.97 km</desc>
<time>2010-03-03T17:11:09.02</time>
<name>4418</name>
</trkpt>
<trkpt lat="48.931457" lon="8.674718">
<ele>362.5</ele>
<speed>4.1</speed>
<course>90.0</course>
<desc>Speed 4.1 km/h Distance 6.97 km</desc>
<time>2010-03-03T17:11:10.02</time>
<name>4419</name>
</trkpt>
<trkpt lat="48.931457" lon="8.674728">
<ele>362.5</ele>
<speed>3.0</speed>
<course>63.0</course>
<desc>Speed 3.0 km/h Distance 6.97 km</desc>
<time>2010-03-03T17:11:11.02</time>
<name>4420</name>
</trkpt>
<trkpt lat="48.931460" lon="8.674738">
<ele>363.0</ele>
<speed>3.0</speed>
<course>53.0</course>
<desc>Speed 3.0 km/h Distance 6.97 km</desc>
<time>2010-03-03T17:11:12.02</time>
<name>4421</name>
</trkpt>
<trkpt lat="48.931463" lon="8.674745">
<ele>363.0</ele>
<speed>2.6</speed>
<course>29.2</course>
<desc>Speed 2.6 km/h Distance 6.97 km</desc>
<time>2010-03-03T17:11:13.02</time>
<name>4422</name>
</trkpt>
<trkpt lat="48.931465" lon="8.674745">
<ele>363.0</ele>
<speed>0.0</speed>
<course>150.8</course>
<desc>Speed 0.0 km/h Distance 6.97 km</desc>
<time>2010-03-03T17:11:14.02</time>
<name>4423</name>
</trkpt>
<trkpt lat="48.931463" lon="8.674745">
<ele>362.5</ele>
<speed>0.8</speed>
<course>194.9</course>
<desc>Speed 0.8 km/h Distance 6.97 km</desc>
<time>2010-03-03T17:11:15.02</time>
<name>4424</name>
</trkpt>
<trkpt lat="48.931455" lon="8.674742">
<ele>361.5</ele>
<speed>4.2</speed>
<course>270.0</course>
<desc>Speed 4.2 km/h Distance 6.98 km</desc>
<time>2010-03-03T17:11:16.02</time>
<name>4425</name>
</trkpt>
<trkpt lat="48.931455" lon="8.674740">
<ele>361.5</ele>
<speed>0.5</speed>
<course>270.0</course>
<desc>Speed 0.5 km/h Distance 6.98 km</desc>
<time>2010-03-03T17:11:17.02</time>
<name>4426</name>
</trkpt>
<trkpt lat="48.931455" lon="8.674738">
<ele>361.0</ele>
<speed>0.9</speed>
<course>90.0</course>
<desc>Speed 0.9 km/h Distance 6.98 km</desc>
<time>2010-03-03T17:11:18.02</time>
<name>4427</name>
</trkpt>
<trkpt lat="48.931455" lon="8.674740">
<ele>361.0</ele>
<speed>0.7</speed>
<course>209.2</course>
<desc>Speed 0.7 km/h Distance 6.98 km</desc>
<time>2010-03-03T17:11:19.02</time>
<name>4428</name>
</trkpt>
<trkpt lat="48.931453" lon="8.674738">
<ele>361.0</ele>
<speed>1.1</speed>
<course>209.2</course>
<desc>Speed 1.1 km/h Distance 6.98 km</desc>
<time>2010-03-03T17:11:20.02</time>
<name>4429</name>
</trkpt>
<trkpt lat="48.931453" lon="8.674738">
<ele>361.0</ele>
<speed>0.8</speed>
<course>0.0</course>
<desc>Speed 0.8 km/h Distance 6.98 km</desc>
<time>2010-03-03T17:11:21.02</time>
<name>4430</name>
</trkpt>
<trkpt lat="48.931457" lon="8.674738">
<ele>361.0</ele>
<speed>0.9</speed>
<course>353.5</course>
<desc>Speed 0.9 km/h Distance 6.98 km</desc>
<time>2010-03-03T17:11:22.02</time>
<name>4431</name>
</trkpt>
<trkpt lat="48.931475" lon="8.674735">
<ele>360.0</ele>
<speed>2.3</speed>
<course>147.7</course>
<desc>Speed 2.3 km/h Distance 6.98 km</desc>
<time>2010-03-03T17:11:24.02</time>
<name>4432</name>
</trkpt>
<trkpt lat="48.931470" lon="8.674740">
<ele>360.0</ele>
<speed>2.3</speed>
<course>148.4</course>
<desc>Speed 2.3 km/h Distance 6.98 km</desc>
<time>2010-03-03T17:11:25.02</time>
<name>4433</name>
</trkpt>
<trkpt lat="48.931467" lon="8.674743">
<ele>360.5</ele>
<speed>2.4</speed>
<course>150.8</course>
<desc>Speed 2.4 km/h Distance 6.98 km</desc>
<time>2010-03-03T17:11:26.02</time>
<name>4434</name>
</trkpt>
<trkpt lat="48.931465" lon="8.674743">
<ele>360.5</ele>
<speed>0.9</speed>
<course>23.0</course>
<desc>Speed 0.9 km/h Distance 6.98 km</desc>
<time>2010-03-03T17:11:27.02</time>
<name>4435</name>
</trkpt>
<trkpt lat="48.931468" lon="8.674745">
<ele>360.5</ele>
<speed>0.5</speed>
<course>217.2</course>
<desc>Speed 0.5 km/h Distance 6.98 km</desc>
<time>2010-03-03T17:11:28.02</time>
<name>4436</name>
</trkpt>
<trkpt lat="48.931467" lon="8.674743">
<ele>361.0</ele>
<speed>1.5</speed>
<course>217.2</course>
<desc>Speed 1.5 km/h Distance 6.98 km</desc>
<time>2010-03-03T17:11:29.02</time>
<name>4437</name>
</trkpt>
<trkpt lat="48.931467" lon="8.674743">
<ele>361.0</ele>
<speed>0.6</speed>
<course>217.2</course>
<desc>Speed 0.6 km/h Distance 6.98 km</desc>
<time>2010-03-03T17:11:30.02</time>
<name>4438</name>
</trkpt>
<trkpt lat="48.931467" lon="8.674743">
<ele>361.0</ele>
<speed>0.6</speed>
<course>217.2</course>
<desc>Speed 0.6 km/h Distance 6.98 km</desc>
<time>2010-03-03T17:11:31.02</time>
<name>4439</name>
</trkpt>
<trkpt lat="48.931465" lon="8.674742">
<ele>361.0</ele>
<speed>0.9</speed>
<course>217.2</course>
<desc>Speed 0.9 km/h Distance 6.98 km</desc>
<time>2010-03-03T17:11:32.02</time>
<name>4440</name>
</trkpt>
<trkpt lat="48.931465" lon="8.674742">
<ele>361.5</ele>
<speed>0.0</speed>
<course>29.2</course>
<desc>Speed 0.0 km/h Distance 6.98 km</desc>
<time>2010-03-03T17:11:33.02</time>
<name>4441</name>
</trkpt>
<trkpt lat="48.931467" lon="8.674742">
<ele>361.5</ele>
<speed>0.2</speed>
<course>29.2</course>
<desc>Speed 0.2 km/h Distance 6.98 km</desc>
<time>2010-03-03T17:11:34.02</time>
<name>4442</name>
</trkpt>
<trkpt lat="48.931467" lon="8.674742">
<ele>361.5</ele>
<speed>0.2</speed>
<course>270.0</course>
<desc>Speed 0.2 km/h Distance 6.98 km</desc>
<time>2010-03-03T17:11:35.02</time>
<name>4443</name>
</trkpt>
<trkpt lat="48.931467" lon="8.674740">
<ele>361.5</ele>
<speed>0.3</speed>
<course>270.0</course>
<desc>Speed 0.3 km/h Distance 6.98 km</desc>
<time>2010-03-03T17:11:36.02</time>
<name>4444</name>
</trkpt>
<trkpt lat="48.931467" lon="8.674740">
<ele>361.5</ele>
<speed>0.3</speed>
<course>270.0</course>
<desc>Speed 0.3 km/h Distance 6.98 km</desc>
<time>2010-03-03T17:11:37.02</time>
<name>4445</name>
</trkpt>
<trkpt lat="48.931467" lon="8.674738">
<ele>361.5</ele>
<speed>0.2</speed>
<course>150.8</course>
<desc>Speed 0.2 km/h Distance 6.98 km</desc>
<time>2010-03-03T17:11:38.02</time>
<name>4446</name>
</trkpt>
<trkpt lat="48.931465" lon="8.674738">
<ele>361.5</ele>
<speed>0.3</speed>
<course>110.2</course>
<desc>Speed 0.3 km/h Distance 6.98 km</desc>
<time>2010-03-03T17:11:39.02</time>
<name>4447</name>
</trkpt>
<trkpt lat="48.931463" lon="8.674745">
<ele>361.5</ele>
<speed>1.9</speed>
<course>157.0</course>
<desc>Speed 1.9 km/h Distance 6.98 km</desc>
<time>2010-03-03T17:11:40.02</time>
<name>4448</name>
</trkpt>
<trkpt lat="48.931460" lon="8.674747">
<ele>361.5</ele>
<speed>1.0</speed>
<course>167.4</course>
<desc>Speed 1.0 km/h Distance 6.98 km</desc>
<time>2010-03-03T17:11:41.02</time>
<name>4449</name>
</trkpt>
<trkpt lat="48.931458" lon="8.674747">
<ele>361.5</ele>
<speed>0.4</speed>
<course>270.0</course>
<desc>Speed 0.4 km/h Distance 6.98 km</desc>
<time>2010-03-03T17:11:42.02</time>
<name>4450</name>
</trkpt>
<trkpt lat="48.931458" lon="8.674745">
<ele>361.5</ele>
<speed>0.1</speed>
<course>270.0</course>
<desc>Speed 0.1 km/h Distance 6.98 km</desc>
<time>2010-03-03T17:11:43.02</time>
<name>4451</name>
</trkpt>
<trkpt lat="48.931458" lon="8.674745">
<ele>361.5</ele>
<speed>0.1</speed>
<course>270.0</course>
<desc>Speed 0.1 km/h Distance 6.98 km</desc>
<time>2010-03-03T17:11:44.02</time>
<name>4452</name>
</trkpt>
<trkpt lat="48.931458" lon="8.674745">
<ele>361.5</ele>
<speed>0.5</speed>
<course>326.3</course>
<desc>Speed 0.5 km/h Distance 6.98 km</desc>
<time>2010-03-03T17:11:45.02</time>
<name>4453</name>
</trkpt>
<trkpt lat="48.931462" lon="8.674742">
<ele>361.5</ele>
<speed>1.5</speed>
<course>345.1</course>
<desc>Speed 1.5 km/h Distance 6.98 km</desc>
<time>2010-03-03T17:11:46.02</time>
<name>4454</name>
</trkpt>
<trkpt lat="48.931470" lon="8.674738">
<ele>361.5</ele>
<speed>3.3</speed>
<course>0.0</course>
<desc>Speed 3.3 km/h Distance 6.98 km</desc>
<time>2010-03-03T17:11:47.02</time>
<name>4455</name>
</trkpt>
<trkpt lat="48.931478" lon="8.674738">
<ele>361.5</ele>
<speed>3.7</speed>
<course>14.9</course>
<desc>Speed 3.7 km/h Distance 6.99 km</desc>
<time>2010-03-03T17:11:48.02</time>
<name>4456</name>
</trkpt>
<trkpt lat="48.931487" lon="8.674742">
<ele>361.5</ele>
<speed>2.9</speed>
<course>0.0</course>
<desc>Speed 2.9 km/h Distance 6.99 km</desc>
<time>2010-03-03T17:11:49.02</time>
<name>4457</name>
</trkpt>
<trkpt lat="48.931492" lon="8.674742">
<ele>361.5</ele>
<speed>2.2</speed>
<course>0.0</course>
<desc>Speed 2.2 km/h Distance 6.99 km</desc>
<time>2010-03-03T17:11:50.02</time>
<name>4458</name>
</trkpt>
<trkpt lat="48.931492" lon="8.674742">
<ele>361.0</ele>
<speed>0.7</speed>
<course>198.8</course>
<desc>Speed 0.7 km/h Distance 6.99 km</desc>
<time>2010-03-03T17:11:51.02</time>
<name>4459</name>
</trkpt>
<trkpt lat="48.931488" lon="8.674740">
<ele>361.5</ele>
<speed>1.2</speed>
<course>217.2</course>
<desc>Speed 1.2 km/h Distance 6.99 km</desc>
<time>2010-03-03T17:11:52.02</time>
<name>4460</name>
</trkpt>
<trkpt lat="48.931487" lon="8.674738">
<ele>361.5</ele>
<speed>0.5</speed>
<course>217.2</course>
<desc>Speed 0.5 km/h Distance 6.99 km</desc>
<time>2010-03-03T17:11:53.02</time>
<name>4461</name>
</trkpt>
<trkpt lat="48.931487" lon="8.674738">
<ele>361.5</ele>
<speed>0.2</speed>
<course>217.2</course>
<desc>Speed 0.2 km/h Distance 6.99 km</desc>
<time>2010-03-03T17:11:54.02</time>
<name>4462</name>
</trkpt>
<trkpt lat="48.931487" lon="8.674738">
<ele>361.5</ele>
<speed>0.4</speed>
<course>157.8</course>
<desc>Speed 0.4 km/h Distance 6.99 km</desc>
<time>2010-03-03T17:11:55.02</time>
<name>4463</name>
</trkpt>
<trkpt lat="48.931482" lon="8.674742">
<ele>361.5</ele>
<speed>2.1</speed>
<course>175.0</course>
<desc>Speed 2.1 km/h Distance 6.99 km</desc>
<time>2010-03-03T17:11:56.02</time>
<name>4464</name>
</trkpt>
<trkpt lat="48.931473" lon="8.674743">
<ele>361.5</ele>
<speed>2.8</speed>
<course>167.4</course>
<desc>Speed 2.8 km/h Distance 6.99 km</desc>
<time>2010-03-03T17:11:57.02</time>
<name>4465</name>
</trkpt>
<trkpt lat="48.931463" lon="8.674747">
<ele>361.5</ele>
<speed>3.7</speed>
<course>161.2</course>
<desc>Speed 3.7 km/h Distance 6.99 km</desc>
<time>2010-03-03T17:11:58.02</time>
<name>4466</name>
</trkpt>
<trkpt lat="48.931457" lon="8.674750">
<ele>361.5</ele>
<speed>2.3</speed>
<course>222.5</course>
<desc>Speed 2.3 km/h Distance 6.99 km</desc>
<time>2010-03-03T17:11:59.02</time>
<name>4467</name>
</trkpt>
<trkpt lat="48.931453" lon="8.674745">
<ele>361.5</ele>
<speed>1.7</speed>
<course>192.6</course>
<desc>Speed 1.7 km/h Distance 6.99 km</desc>
<time>2010-03-03T17:12:00.02</time>
<name>4468</name>
</trkpt>
<trkpt lat="48.931450" lon="8.674743">
<ele>361.5</ele>
<speed>1.3</speed>
<course>270.0</course>
<desc>Speed 1.3 km/h Distance 6.99 km</desc>
<time>2010-03-03T17:12:01.02</time>
<name>4469</name>
</trkpt>
<trkpt lat="48.931450" lon="8.674742">
<ele>361.5</ele>
<speed>0.7</speed>
<course>270.0</course>
<desc>Speed 0.7 km/h Distance 6.99 km</desc>
<time>2010-03-03T17:12:02.02</time>
<name>4470</name>
</trkpt>
<trkpt lat="48.931450" lon="8.674738">
<ele>361.0</ele>
<speed>1.1</speed>
<course>242.6</course>
<desc>Speed 1.1 km/h Distance 6.99 km</desc>
<time>2010-03-03T17:12:03.02</time>
<name>4471</name>
</trkpt>
<trkpt lat="48.931448" lon="8.674733">
<ele>361.0</ele>
<speed>1.2</speed>
<course>301.4</course>
<desc>Speed 1.2 km/h Distance 6.99 km</desc>
<time>2010-03-03T17:12:04.02</time>
<name>4472</name>
</trkpt>
<trkpt lat="48.931452" lon="8.674725">
<ele>361.0</ele>
<speed>2.6</speed>
<course>294.6</course>
<desc>Speed 2.6 km/h Distance 6.99 km</desc>
<time>2010-03-03T17:12:05.02</time>
<name>4473</name>
</trkpt>
<trkpt lat="48.931457" lon="8.674708">
<ele>361.0</ele>
<speed>4.3</speed>
<course>288.7</course>
<desc>Speed 4.3 km/h Distance 6.99 km</desc>
<time>2010-03-03T17:12:06.02</time>
<name>4474</name>
</trkpt>
<trkpt lat="48.931460" lon="8.674693">
<ele>361.0</ele>
<speed>4.1</speed>
<course>296.9</course>
<desc>Speed 4.1 km/h Distance 7.00 km</desc>
<time>2010-03-03T17:12:07.02</time>
<name>4475</name>
</trkpt>
<trkpt lat="48.931465" lon="8.674678">
<ele>361.0</ele>
<speed>4.1</speed>
<course>294.6</course>
<desc>Speed 4.1 km/h Distance 7.00 km</desc>
<time>2010-03-03T17:12:08.02</time>
<name>4476</name>
</trkpt>
<trkpt lat="48.931470" lon="8.674662">
<ele>361.0</ele>
<speed>4.4</speed>
<course>294.6</course>
<desc>Speed 4.4 km/h Distance 7.00 km</desc>
<time>2010-03-03T17:12:09.02</time>
<name>4477</name>
</trkpt>
<trkpt lat="48.931475" lon="8.674645">
<ele>361.0</ele>
<speed>4.2</speed>
<course>301.4</course>
<desc>Speed 4.2 km/h Distance 7.00 km</desc>
<time>2010-03-03T17:12:10.02</time>
<name>4478</name>
</trkpt>
<trkpt lat="48.931482" lon="8.674628">
<ele>361.5</ele>
<speed>4.7</speed>
<course>301.3</course>
<desc>Speed 4.7 km/h Distance 7.00 km</desc>
<time>2010-03-03T17:12:11.02</time>
<name>4479</name>
</trkpt>
<trkpt lat="48.931488" lon="8.674612">
<ele>361.5</ele>
<speed>4.5</speed>
<course>296.9</course>
<desc>Speed 4.5 km/h Distance 7.00 km</desc>
<time>2010-03-03T17:12:12.02</time>
<name>4480</name>
</trkpt>
<trkpt lat="48.931493" lon="8.674597">
<ele>361.5</ele>
<speed>4.0</speed>
<course>307.3</course>
<desc>Speed 4.0 km/h Distance 7.00 km</desc>
<time>2010-03-03T17:12:13.02</time>
<name>4481</name>
</trkpt>
<trkpt lat="48.931500" lon="8.674583">
<ele>361.5</ele>
<speed>4.0</speed>
<course>317.2</course>
<desc>Speed 4.0 km/h Distance 7.00 km</desc>
<time>2010-03-03T17:12:14.02</time>
<name>4482</name>
</trkpt>
<trkpt lat="48.931508" lon="8.674572">
<ele>361.5</ele>
<speed>4.0</speed>
<course>315.5</course>
<desc>Speed 4.0 km/h Distance 7.01 km</desc>
<time>2010-03-03T17:12:15.02</time>
<name>4483</name>
</trkpt>
<trkpt lat="48.931515" lon="8.674562">
<ele>361.5</ele>
<speed>3.5</speed>
<course>307.2</course>
<desc>Speed 3.5 km/h Distance 7.01 km</desc>
<time>2010-03-03T17:12:16.02</time>
<name>4484</name>
</trkpt>
<trkpt lat="48.931522" lon="8.674548">
<ele>361.5</ele>
<speed>4.0</speed>
<course>299.7</course>
<desc>Speed 4.0 km/h Distance 7.01 km</desc>
<time>2010-03-03T17:12:17.02</time>
<name>4485</name>
</trkpt>
<trkpt lat="48.931527" lon="8.674535">
<ele>362.0</ele>
<speed>3.7</speed>
<course>307.2</course>
<desc>Speed 3.7 km/h Distance 7.01 km</desc>
<time>2010-03-03T17:12:18.02</time>
<name>4486</name>
</trkpt>
<trkpt lat="48.931532" lon="8.674525">
<ele>362.0</ele>
<speed>2.8</speed>
<course>307.0</course>
<desc>Speed 2.8 km/h Distance 7.01 km</desc>
<time>2010-03-03T17:12:19.02</time>
<name>4487</name>
</trkpt>
<trkpt lat="48.931535" lon="8.674518">
<ele>362.0</ele>
<speed>2.5</speed>
<course>270.0</course>
<desc>Speed 2.5 km/h Distance 7.01 km</desc>
<time>2010-03-03T17:12:20.02</time>
<name>4488</name>
</trkpt>
<trkpt lat="48.931535" lon="8.674508">
<ele>362.0</ele>
<speed>2.3</speed>
<course>312.6</course>
<desc>Speed 2.3 km/h Distance 7.01 km</desc>
<time>2010-03-03T17:12:21.02</time>
<name>4489</name>
</trkpt>
<trkpt lat="48.931540" lon="8.674500">
<ele>361.5</ele>
<speed>2.6</speed>
<course>336.2</course>
<desc>Speed 2.6 km/h Distance 7.01 km</desc>
<time>2010-03-03T17:12:22.02</time>
<name>4490</name>
</trkpt>
<trkpt lat="48.931550" lon="8.674493">
<ele>361.5</ele>
<speed>3.7</speed>
<course>312.2</course>
<desc>Speed 3.7 km/h Distance 7.01 km</desc>
<time>2010-03-03T17:12:23.02</time>
<name>4491</name>
</trkpt>
<trkpt lat="48.931555" lon="8.674485">
<ele>361.5</ele>
<speed>2.6</speed>
<course>326.8</course>
<desc>Speed 2.6 km/h Distance 7.01 km</desc>
<time>2010-03-03T17:12:24.02</time>
<name>4492</name>
</trkpt>
<trkpt lat="48.931563" lon="8.674477">
<ele>361.5</ele>
<speed>3.4</speed>
<course>307.0</course>
<desc>Speed 3.4 km/h Distance 7.02 km</desc>
<time>2010-03-03T17:12:25.02</time>
<name>4493</name>
</trkpt>
<trkpt lat="48.931567" lon="8.674470">
<ele>361.0</ele>
<speed>2.1</speed>
<course>270.0</course>
<desc>Speed 2.1 km/h Distance 7.02 km</desc>
<time>2010-03-03T17:12:26.02</time>
<name>4494</name>
</trkpt>
<trkpt lat="48.931567" lon="8.674468">
<ele>361.0</ele>
<speed>0.5</speed>
<course>12.6</course>
<desc>Speed 0.5 km/h Distance 7.02 km</desc>
<time>2010-03-03T17:12:27.02</time>
<name>4495</name>
</trkpt>
<trkpt lat="48.931568" lon="8.674468">
<ele>361.0</ele>
<speed>0.1</speed>
<course>12.6</course>
<desc>Speed 0.1 km/h Distance 7.02 km</desc>
<time>2010-03-03T17:12:28.02</time>
<name>4496</name>
</trkpt>
<trkpt lat="48.931568" lon="8.674468">
<ele>361.0</ele>
<speed>0.2</speed>
<course>12.6</course>
<desc>Speed 0.2 km/h Distance 7.02 km</desc>
<time>2010-03-03T17:12:29.02</time>
<name>4497</name>
</trkpt>
<trkpt lat="48.931568" lon="8.674468">
<ele>361.0</ele>
<speed>0.3</speed>
<course>12.6</course>
<desc>Speed 0.3 km/h Distance 7.02 km</desc>
<time>2010-03-03T17:12:30.02</time>
<name>4498</name>
</trkpt>
<trkpt lat="48.931568" lon="8.674468">
<ele>361.0</ele>
<speed>0.2</speed>
<course>270.0</course>
<desc>Speed 0.2 km/h Distance 7.02 km</desc>
<time>2010-03-03T17:12:31.02</time>
<name>4499</name>
</trkpt>
<trkpt lat="48.931568" lon="8.674467">
<ele>361.0</ele>
<speed>0.2</speed>
<course>270.0</course>
<desc>Speed 0.2 km/h Distance 7.02 km</desc>
<time>2010-03-03T17:12:32.02</time>
<name>4500</name>
</trkpt>
<trkpt lat="48.931568" lon="8.674467">
<ele>361.0</ele>
<speed>0.3</speed>
<course>270.0</course>
<desc>Speed 0.3 km/h Distance 7.02 km</desc>
<time>2010-03-03T17:12:33.02</time>
<name>4501</name>
</trkpt>
<trkpt lat="48.931568" lon="8.674467">
<ele>360.5</ele>
<speed>0.1</speed>
<course>270.0</course>
<desc>Speed 0.1 km/h Distance 7.02 km</desc>
<time>2010-03-03T17:12:34.02</time>
<name>4502</name>
</trkpt>
<trkpt lat="48.931568" lon="8.674467">
<ele>360.5</ele>
<speed>0.1</speed>
<course>12.6</course>
<desc>Speed 0.1 km/h Distance 7.02 km</desc>
<time>2010-03-03T17:12:35.02</time>
<name>4503</name>
</trkpt>
<trkpt lat="48.931570" lon="8.674467">
<ele>360.5</ele>
<speed>0.1</speed>
<course>12.6</course>
<desc>Speed 0.1 km/h Distance 7.02 km</desc>
<time>2010-03-03T17:12:36.02</time>
<name>4504</name>
</trkpt>
<trkpt lat="48.931570" lon="8.674467">
<ele>360.5</ele>
<speed>0.1</speed>
<course>12.6</course>
<desc>Speed 0.1 km/h Distance 7.02 km</desc>
<time>2010-03-03T17:12:37.02</time>
<name>4505</name>
</trkpt>
<trkpt lat="48.931570" lon="8.674467">
<ele>360.5</ele>
<speed>0.2</speed>
<course>12.6</course>
<desc>Speed 0.2 km/h Distance 7.02 km</desc>
<time>2010-03-03T17:12:38.02</time>
<name>4506</name>
</trkpt>
<trkpt lat="48.931570" lon="8.674467">
<ele>360.5</ele>
<speed>0.1</speed>
<course>90.0</course>
<desc>Speed 0.1 km/h Distance 7.02 km</desc>
<time>2010-03-03T17:12:39.02</time>
<name>4507</name>
</trkpt>
<trkpt lat="48.931570" lon="8.674468">
<ele>360.5</ele>
<speed>0.3</speed>
<course>12.6</course>
<desc>Speed 0.3 km/h Distance 7.02 km</desc>
<time>2010-03-03T17:12:40.02</time>
<name>4508</name>
</trkpt>
<trkpt lat="48.931572" lon="8.674468">
<ele>360.5</ele>
<speed>0.2</speed>
<course>12.6</course>
<desc>Speed 0.2 km/h Distance 7.02 km</desc>
<time>2010-03-03T17:12:41.02</time>
<name>4509</name>
</trkpt>
<trkpt lat="48.931572" lon="8.674468">
<ele>360.5</ele>
<speed>0.2</speed>
<course>12.6</course>
<desc>Speed 0.2 km/h Distance 7.02 km</desc>
<time>2010-03-03T17:12:42.02</time>
<name>4510</name>
</trkpt>
<trkpt lat="48.931572" lon="8.674468">
<ele>360.5</ele>
<speed>0.1</speed>
<course>12.6</course>
<desc>Speed 0.1 km/h Distance 7.02 km</desc>
<time>2010-03-03T17:12:43.02</time>
<name>4511</name>
</trkpt>
<trkpt lat="48.931572" lon="8.674468">
<ele>360.5</ele>
<speed>0.1</speed>
<course>12.6</course>
<desc>Speed 0.1 km/h Distance 7.02 km</desc>
<time>2010-03-03T17:12:44.02</time>
<name>4512</name>
</trkpt>
<trkpt lat="48.931572" lon="8.674468">
<ele>360.5</ele>
<speed>0.2</speed>
<course>12.6</course>
<desc>Speed 0.2 km/h Distance 7.02 km</desc>
<time>2010-03-03T17:12:45.02</time>
<name>4513</name>
</trkpt>
<trkpt lat="48.931572" lon="8.674468">
<ele>360.5</ele>
<speed>0.1</speed>
<course>12.6</course>
<desc>Speed 0.1 km/h Distance 7.02 km</desc>
<time>2010-03-03T17:12:46.02</time>
<name>4514</name>
</trkpt>
<trkpt lat="48.931572" lon="8.674468">
<ele>360.5</ele>
<speed>0.2</speed>
<course>12.6</course>
<desc>Speed 0.2 km/h Distance 7.02 km</desc>
<time>2010-03-03T17:12:47.02</time>
<name>4515</name>
</trkpt>
<trkpt lat="48.931572" lon="8.674468">
<ele>360.5</ele>
<speed>0.1</speed>
<course>12.6</course>
<desc>Speed 0.1 km/h Distance 7.02 km</desc>
<time>2010-03-03T17:12:48.02</time>
<name>4516</name>
</trkpt>
<trkpt lat="48.931572" lon="8.674468">
<ele>360.5</ele>
<speed>0.3</speed>
<course>12.6</course>
<desc>Speed 0.3 km/h Distance 7.02 km</desc>
<time>2010-03-03T17:12:49.02</time>
<name>4517</name>
</trkpt>
<trkpt lat="48.931572" lon="8.674468">
<ele>360.5</ele>
<speed>0.1</speed>
<course>12.6</course>
<desc>Speed 0.1 km/h Distance 7.02 km</desc>
<time>2010-03-03T17:12:50.02</time>
<name>4518</name>
</trkpt>
<trkpt lat="48.931572" lon="8.674468">
<ele>360.5</ele>
<speed>0.2</speed>
<course>270.0</course>
<desc>Speed 0.2 km/h Distance 7.02 km</desc>
<time>2010-03-03T17:12:51.02</time>
<name>4519</name>
</trkpt>
<trkpt lat="48.931572" lon="8.674467">
<ele>360.5</ele>
<speed>0.2</speed>
<course>270.0</course>
<desc>Speed 0.2 km/h Distance 7.02 km</desc>
<time>2010-03-03T17:12:52.02</time>
<name>4520</name>
</trkpt>
<trkpt lat="48.931572" lon="8.674467">
<ele>360.5</ele>
<speed>0.1</speed>
<course>270.0</course>
<desc>Speed 0.1 km/h Distance 7.02 km</desc>
<time>2010-03-03T17:12:53.02</time>
<name>4521</name>
</trkpt>
<trkpt lat="48.931572" lon="8.674467">
<ele>360.5</ele>
<speed>0.1</speed>
<course>270.0</course>
<desc>Speed 0.1 km/h Distance 7.02 km</desc>
<time>2010-03-03T17:12:54.02</time>
<name>4522</name>
</trkpt>
<trkpt lat="48.931572" lon="8.674467">
<ele>360.5</ele>
<speed>0.4</speed>
<course>270.0</course>
<desc>Speed 0.4 km/h Distance 7.02 km</desc>
<time>2010-03-03T17:12:55.02</time>
<name>4523</name>
</trkpt>
<trkpt lat="48.931572" lon="8.674467">
<ele>360.5</ele>
<speed>0.3</speed>
<course>270.0</course>
<desc>Speed 0.3 km/h Distance 7.02 km</desc>
<time>2010-03-03T17:12:56.02</time>
<name>4524</name>
</trkpt>
<trkpt lat="48.931572" lon="8.674467">
<ele>360.5</ele>
<speed>0.2</speed>
<course>270.0</course>
<desc>Speed 0.2 km/h Distance 7.02 km</desc>
<time>2010-03-03T17:12:57.02</time>
<name>4525</name>
</trkpt>
<trkpt lat="48.931572" lon="8.674467">
<ele>361.0</ele>
<speed>0.3</speed>
<course>270.0</course>
<desc>Speed 0.3 km/h Distance 7.02 km</desc>
<time>2010-03-03T17:12:58.02</time>
<name>4526</name>
</trkpt>
<trkpt lat="48.931572" lon="8.674467">
<ele>361.0</ele>
<speed>0.3</speed>
<course>270.0</course>
<desc>Speed 0.3 km/h Distance 7.02 km</desc>
<time>2010-03-03T17:12:59.02</time>
<name>4527</name>
</trkpt>
<trkpt lat="48.931572" lon="8.674467">
<ele>361.0</ele>
<speed>0.1</speed>
<course>270.0</course>
<desc>Speed 0.1 km/h Distance 7.02 km</desc>
<time>2010-03-03T17:13:00.02</time>
<name>4528</name>
</trkpt>
<trkpt lat="48.931572" lon="8.674467">
<ele>361.0</ele>
<speed>0.3</speed>
<course>121.4</course>
<desc>Speed 0.3 km/h Distance 7.02 km</desc>
<time>2010-03-03T17:13:01.02</time>
<name>4529</name>
</trkpt>
<trkpt lat="48.931568" lon="8.674475">
<ele>362.0</ele>
<speed>1.3</speed>
<course>121.4</course>
<desc>Speed 1.3 km/h Distance 7.02 km</desc>
<time>2010-03-03T17:13:02.52</time>
<name>4530</name>
</trkpt>
<trkpt lat="48.931568" lon="8.674475">
<ele>362.0</ele>
<speed>1.3</speed>
<course>106.7</course>
<desc>Speed 1.3 km/h Distance 7.02 km</desc>
<time>2010-03-03T17:13:03.02</time>
<name>4531</name>
</trkpt>
<trkpt lat="48.931567" lon="8.674483">
<ele>362.0</ele>
<speed>2.6</speed>
<course>129.3</course>
<desc>Speed 2.6 km/h Distance 7.02 km</desc>
<time>2010-03-03T17:13:04.02</time>
<name>4532</name>
</trkpt>
<trkpt lat="48.931555" lon="8.674505">
<ele>362.0</ele>
<speed>4.0</speed>
<course>130.9</course>
<desc>Speed 4.0 km/h Distance 7.02 km</desc>
<time>2010-03-03T17:13:05.52</time>
<name>4533</name>
</trkpt>
<trkpt lat="48.931548" lon="8.674517">
<ele>362.0</ele>
<speed>4.0</speed>
<course>135.5</course>
<desc>Speed 4.0 km/h Distance 7.02 km</desc>
<time>2010-03-03T17:13:06.52</time>
<name>4534</name>
</trkpt>
<trkpt lat="48.931542" lon="8.674527">
<ele>362.0</ele>
<speed>4.0</speed>
<course>140.6</course>
<desc>Speed 4.0 km/h Distance 7.02 km</desc>
<time>2010-03-03T17:13:07.52</time>
<name>4535</name>
</trkpt>
<trkpt lat="48.931535" lon="8.674535">
<ele>362.0</ele>
<speed>3.1</speed>
<course>140.6</course>
<desc>Speed 3.1 km/h Distance 7.02 km</desc>
<time>2010-03-03T17:13:08.52</time>
<name>4536</name>
</trkpt>
<trkpt lat="48.931535" lon="8.674535">
<ele>362.0</ele>
<speed>3.1</speed>
<course>127.3</course>
<desc>Speed 3.1 km/h Distance 7.02 km</desc>
<time>2010-03-03T17:13:09.02</time>
<name>4537</name>
</trkpt>
<trkpt lat="48.931525" lon="8.674555">
<ele>362.5</ele>
<speed>3.3</speed>
<course>127.3</course>
<desc>Speed 3.3 km/h Distance 7.03 km</desc>
<time>2010-03-03T17:13:10.52</time>
<name>4538</name>
</trkpt>
<trkpt lat="48.931525" lon="8.674555">
<ele>362.5</ele>
<speed>3.3</speed>
<course>125.0</course>
<desc>Speed 3.3 km/h Distance 7.03 km</desc>
<time>2010-03-03T17:13:11.02</time>
<name>4539</name>
</trkpt>
<trkpt lat="48.931515" lon="8.674577">
<ele>362.5</ele>
<speed>3.7</speed>
<course>119.7</course>
<desc>Speed 3.7 km/h Distance 7.03 km</desc>
<time>2010-03-03T17:13:12.51</time>
<name>4540</name>
</trkpt>
<trkpt lat="48.931510" lon="8.674590">
<ele>362.5</ele>
<speed>3.7</speed>
<course>119.7</course>
<desc>Speed 3.7 km/h Distance 7.03 km</desc>
<time>2010-03-03T17:13:13.51</time>
<name>4541</name>
</trkpt>
<trkpt lat="48.931505" lon="8.674603">
<ele>362.5</ele>
<speed>4.2</speed>
<course>106.9</course>
<desc>Speed 4.2 km/h Distance 7.03 km</desc>
<time>2010-03-03T17:13:14.51</time>
<name>4542</name>
</trkpt>
<trkpt lat="48.931502" lon="8.674620">
<ele>362.5</ele>
<speed>4.4</speed>
<course>116.9</course>
<desc>Speed 4.4 km/h Distance 7.03 km</desc>
<time>2010-03-03T17:13:15.51</time>
<name>4543</name>
</trkpt>
<trkpt lat="48.931497" lon="8.674635">
<ele>362.5</ele>
<speed>4.7</speed>
<course>135.5</course>
<desc>Speed 4.7 km/h Distance 7.03 km</desc>
<time>2010-03-03T17:13:16.51</time>
<name>4544</name>
</trkpt>
<trkpt lat="48.931490" lon="8.674645">
<ele>362.5</ele>
<speed>3.4</speed>
<course>113.5</course>
<desc>Speed 3.4 km/h Distance 7.03 km</desc>
<time>2010-03-03T17:13:17.51</time>
<name>4545</name>
</trkpt>
<trkpt lat="48.931487" lon="8.674657">
<ele>362.0</ele>
<speed>3.5</speed>
<course>119.7</course>
<desc>Speed 3.5 km/h Distance 7.03 km</desc>
<time>2010-03-03T17:13:18.51</time>
<name>4546</name>
</trkpt>
<trkpt lat="48.931482" lon="8.674670">
<ele>362.0</ele>
<speed>3.7</speed>
<course>90.0</course>
<desc>Speed 3.7 km/h Distance 7.04 km</desc>
<time>2010-03-03T17:13:19.51</time>
<name>4547</name>
</trkpt>
<trkpt lat="48.931482" lon="8.674675">
<ele>362.0</ele>
<speed>1.6</speed>
<course>90.0</course>
<desc>Speed 1.6 km/h Distance 7.04 km</desc>
<time>2010-03-03T17:13:20.51</time>
<name>4548</name>
</trkpt>
<trkpt lat="48.931482" lon="8.674675">
<ele>362.0</ele>
<speed>0.2</speed>
<course>90.0</course>
<desc>Speed 0.2 km/h Distance 7.04 km</desc>
<time>2010-03-03T17:13:21.51</time>
<name>4549</name>
</trkpt>
<trkpt lat="48.931482" lon="8.674675">
<ele>362.0</ele>
<speed>0.0</speed>
<course>90.0</course>
<desc>Speed 0.0 km/h Distance 7.04 km</desc>
<time>2010-03-03T17:13:22.51</time>
<name>4550</name>
</trkpt>
<trkpt lat="48.931482" lon="8.674675">
<ele>362.0</ele>
<speed>0.4</speed>
<course>90.0</course>
<desc>Speed 0.4 km/h Distance 7.04 km</desc>
<time>2010-03-03T17:13:23.51</time>
<name>4551</name>
</trkpt>
<trkpt lat="48.931482" lon="8.674675">
<ele>362.0</ele>
<speed>0.4</speed>
<course>90.0</course>
<desc>Speed 0.4 km/h Distance 7.04 km</desc>
<time>2010-03-03T17:13:24.51</time>
<name>4552</name>
</trkpt>
<trkpt lat="48.931482" lon="8.674677">
<ele>361.5</ele>
<speed>0.3</speed>
<course>0.0</course>
<desc>Speed 0.3 km/h Distance 7.04 km</desc>
<time>2010-03-03T17:13:25.51</time>
<name>4553</name>
</trkpt>
<trkpt lat="48.931483" lon="8.674677">
<ele>361.5</ele>
<speed>0.1</speed>
<course>0.0</course>
<desc>Speed 0.1 km/h Distance 7.04 km</desc>
<time>2010-03-03T17:13:26.50</time>
<name>4554</name>
</trkpt>
<trkpt lat="48.931483" lon="8.674677">
<ele>361.5</ele>
<speed>0.4</speed>
<course>0.0</course>
<desc>Speed 0.4 km/h Distance 7.04 km</desc>
<time>2010-03-03T17:13:27.50</time>
<name>4555</name>
</trkpt>
<trkpt lat="48.931483" lon="8.674677">
<ele>362.0</ele>
<speed>0.1</speed>
<course>0.0</course>
<desc>Speed 0.1 km/h Distance 7.04 km</desc>
<time>2010-03-03T17:13:28.51</time>
<name>4556</name>
</trkpt>
<trkpt lat="48.931483" lon="8.674677">
<ele>362.0</ele>
<speed>0.3</speed>
<course>0.0</course>
<desc>Speed 0.3 km/h Distance 7.04 km</desc>
<time>2010-03-03T17:13:29.51</time>
<name>4557</name>
</trkpt>
<trkpt lat="48.931483" lon="8.674677">
<ele>362.0</ele>
<speed>0.1</speed>
<course>0.0</course>
<desc>Speed 0.1 km/h Distance 7.04 km</desc>
<time>2010-03-03T17:13:30.51</time>
<name>4558</name>
</trkpt>
<trkpt lat="48.931483" lon="8.674677">
<ele>362.0</ele>
<speed>0.3</speed>
<course>0.0</course>
<desc>Speed 0.3 km/h Distance 7.04 km</desc>
<time>2010-03-03T17:13:31.51</time>
<name>4559</name>
</trkpt>
<trkpt lat="48.931483" lon="8.674677">
<ele>362.0</ele>
<speed>0.3</speed>
<course>0.0</course>
<desc>Speed 0.3 km/h Distance 7.04 km</desc>
<time>2010-03-03T17:13:32.51</time>
<name>4560</name>
</trkpt>
<trkpt lat="48.931483" lon="8.674677">
<ele>362.0</ele>
<speed>0.2</speed>
<course>0.0</course>
<desc>Speed 0.2 km/h Distance 7.04 km</desc>
<time>2010-03-03T17:13:33.51</time>
<name>4561</name>
</trkpt>
<trkpt lat="48.931483" lon="8.674677">
<ele>362.0</ele>
<speed>0.2</speed>
<course>0.0</course>
<desc>Speed 0.2 km/h Distance 7.04 km</desc>
<time>2010-03-03T17:13:34.51</time>
<name>4562</name>
</trkpt>
<trkpt lat="48.931483" lon="8.674677">
<ele>362.0</ele>
<speed>0.2</speed>
<course>12.6</course>
<desc>Speed 0.2 km/h Distance 7.04 km</desc>
<time>2010-03-03T17:13:35.51</time>
<name>4563</name>
</trkpt>
<trkpt lat="48.931485" lon="8.674677">
<ele>362.0</ele>
<speed>0.3</speed>
<course>12.6</course>
<desc>Speed 0.3 km/h Distance 7.04 km</desc>
<time>2010-03-03T17:13:36.51</time>
<name>4564</name>
</trkpt>
<trkpt lat="48.931485" lon="8.674677">
<ele>362.0</ele>
<speed>0.2</speed>
<course>12.6</course>
<desc>Speed 0.2 km/h Distance 7.04 km</desc>
<time>2010-03-03T17:13:37.51</time>
<name>4565</name>
</trkpt>
<trkpt lat="48.931485" lon="8.674677">
<ele>362.0</ele>
<speed>0.3</speed>
<course>12.6</course>
<desc>Speed 0.3 km/h Distance 7.04 km</desc>
<time>2010-03-03T17:13:38.51</time>
<name>4566</name>
</trkpt>
<trkpt lat="48.931485" lon="8.674677">
<ele>362.0</ele>
<speed>0.2</speed>
<course>12.6</course>
<desc>Speed 0.2 km/h Distance 7.04 km</desc>
<time>2010-03-03T17:13:39.51</time>
<name>4567</name>
</trkpt>
<trkpt lat="48.931485" lon="8.674677">
<ele>362.0</ele>
<speed>0.2</speed>
<course>12.6</course>
<desc>Speed 0.2 km/h Distance 7.04 km</desc>
<time>2010-03-03T17:13:40.50</time>
<name>4568</name>
</trkpt>
<trkpt lat="48.931485" lon="8.674677">
<ele>362.0</ele>
<speed>0.6</speed>
<course>135.5</course>
<desc>Speed 0.6 km/h Distance 7.04 km</desc>
<time>2010-03-03T17:13:41.50</time>
<name>4569</name>
</trkpt>
<trkpt lat="48.931482" lon="8.674682">
<ele>361.5</ele>
<speed>1.5</speed>
<course>12.6</course>
<desc>Speed 1.5 km/h Distance 7.04 km</desc>
<time>2010-03-03T17:13:42.50</time>
<name>4570</name>
</trkpt>
<trkpt lat="48.931483" lon="8.674683">
<ele>362.0</ele>
<speed>0.3</speed>
<course>12.6</course>
<desc>Speed 0.3 km/h Distance 7.04 km</desc>
<time>2010-03-03T17:13:43.50</time>
<name>4571</name>
</trkpt>
<trkpt lat="48.931483" lon="8.674683">
<ele>362.0</ele>
<speed>0.3</speed>
<course>12.6</course>
<desc>Speed 0.3 km/h Distance 7.04 km</desc>
<time>2010-03-03T17:13:44.50</time>
<name>4572</name>
</trkpt>
<trkpt lat="48.931483" lon="8.674683">
<ele>362.0</ele>
<speed>0.2</speed>
<course>12.6</course>
<desc>Speed 0.2 km/h Distance 7.04 km</desc>
<time>2010-03-03T17:13:45.50</time>
<name>4573</name>
</trkpt>
<trkpt lat="48.931483" lon="8.674683">
<ele>362.0</ele>
<speed>0.1</speed>
<course>37.2</course>
<desc>Speed 0.1 km/h Distance 7.04 km</desc>
<time>2010-03-03T17:13:46.50</time>
<name>4574</name>
</trkpt>
<trkpt lat="48.931485" lon="8.674685">
<ele>362.0</ele>
<speed>0.1</speed>
<course>37.2</course>
<desc>Speed 0.1 km/h Distance 7.04 km</desc>
<time>2010-03-03T17:13:47.50</time>
<name>4575</name>
</trkpt>
<trkpt lat="48.931485" lon="8.674685">
<ele>362.0</ele>
<speed>0.1</speed>
<course>37.2</course>
<desc>Speed 0.1 km/h Distance 7.04 km</desc>
<time>2010-03-03T17:13:48.50</time>
<name>4576</name>
</trkpt>
<trkpt lat="48.931485" lon="8.674685">
<ele>362.0</ele>
<speed>0.1</speed>
<course>37.2</course>
<desc>Speed 0.1 km/h Distance 7.04 km</desc>
<time>2010-03-03T17:13:49.50</time>
<name>4577</name>
</trkpt>
<trkpt lat="48.931485" lon="8.674685">
<ele>362.0</ele>
<speed>0.1</speed>
<course>37.2</course>
<desc>Speed 0.1 km/h Distance 7.04 km</desc>
<time>2010-03-03T17:13:50.50</time>
<name>4578</name>
</trkpt>
<trkpt lat="48.931485" lon="8.674685">
<ele>362.0</ele>
<speed>0.2</speed>
<course>12.6</course>
<desc>Speed 0.2 km/h Distance 7.04 km</desc>
<time>2010-03-03T17:13:51.49</time>
<name>4579</name>
</trkpt>
<trkpt lat="48.931487" lon="8.674685">
<ele>362.0</ele>
<speed>0.6</speed>
<course>202.2</course>
<desc>Speed 0.6 km/h Distance 7.04 km</desc>
<time>2010-03-03T17:13:52.49</time>
<name>4580</name>
</trkpt>
<trkpt lat="48.931482" lon="8.674682">
<ele>362.0</ele>
<speed>1.9</speed>
<course>135.5</course>
<desc>Speed 1.9 km/h Distance 7.04 km</desc>
<time>2010-03-03T17:13:53.49</time>
<name>4581</name>
</trkpt>
<trkpt lat="48.931478" lon="8.674687">
<ele>362.0</ele>
<speed>2.2</speed>
<course>161.2</course>
<desc>Speed 2.2 km/h Distance 7.04 km</desc>
<time>2010-03-03T17:13:54.49</time>
<name>4582</name>
</trkpt>
<trkpt lat="48.931475" lon="8.674688">
<ele>362.0</ele>
<speed>1.5</speed>
<course>161.2</course>
<desc>Speed 1.5 km/h Distance 7.04 km</desc>
<time>2010-03-03T17:13:55.49</time>
<name>4583</name>
</trkpt>
<trkpt lat="48.931475" lon="8.674688">
<ele>362.0</ele>
<speed>0.3</speed>
<course>167.4</course>
<desc>Speed 0.3 km/h Distance 7.04 km</desc>
<time>2010-03-03T17:13:56.49</time>
<name>4584</name>
</trkpt>
<trkpt lat="48.931473" lon="8.674688">
<ele>362.0</ele>
<speed>0.3</speed>
<course>167.4</course>
<desc>Speed 0.3 km/h Distance 7.04 km</desc>
<time>2010-03-03T17:13:57.50</time>
<name>4585</name>
</trkpt>
<trkpt lat="48.931473" lon="8.674688">
<ele>361.5</ele>
<speed>0.1</speed>
<course>90.0</course>
<desc>Speed 0.1 km/h Distance 7.04 km</desc>
<time>2010-03-03T17:13:58.50</time>
<name>4586</name>
</trkpt>
<trkpt lat="48.931473" lon="8.674690">
<ele>361.5</ele>
<speed>0.0</speed>
<course>12.6</course>
<desc>Speed 0.0 km/h Distance 7.04 km</desc>
<time>2010-03-03T17:13:59.50</time>
<name>4587</name>
</trkpt>
<trkpt lat="48.931475" lon="8.674690">
<ele>361.0</ele>
<speed>0.2</speed>
<course>12.6</course>
<desc>Speed 0.2 km/h Distance 7.04 km</desc>
<time>2010-03-03T17:14:00.49</time>
<name>4588</name>
</trkpt>
<trkpt lat="48.931475" lon="8.674690">
<ele>361.0</ele>
<speed>0.3</speed>
<course>12.6</course>
<desc>Speed 0.3 km/h Distance 7.04 km</desc>
<time>2010-03-03T17:14:01.49</time>
<name>4589</name>
</trkpt>
<trkpt lat="48.931477" lon="8.674690">
<ele>361.0</ele>
<speed>0.2</speed>
<course>12.6</course>
<desc>Speed 0.2 km/h Distance 7.04 km</desc>
<time>2010-03-03T17:14:02.49</time>
<name>4590</name>
</trkpt>
<trkpt lat="48.931477" lon="8.674690">
<ele>361.0</ele>
<speed>0.3</speed>
<course>90.0</course>
<desc>Speed 0.3 km/h Distance 7.04 km</desc>
<time>2010-03-03T17:14:06.49</time>
<name>4591</name>
</trkpt>
<trkpt lat="48.931477" lon="8.674692">
<ele>361.0</ele>
<speed>0.9</speed>
<course>90.0</course>
<desc>Speed 0.9 km/h Distance 7.04 km</desc>
<time>2010-03-03T17:14:07.49</time>
<name>4592</name>
</trkpt>
<trkpt lat="48.931477" lon="8.674692">
<ele>361.0</ele>
<speed>0.6</speed>
<course>37.2</course>
<desc>Speed 0.6 km/h Distance 7.04 km</desc>
<time>2010-03-03T17:14:08.48</time>
<name>4593</name>
</trkpt>
<trkpt lat="48.931478" lon="8.674693">
<ele>361.0</ele>
<speed>0.3</speed>
<course>37.2</course>
<desc>Speed 0.3 km/h Distance 7.04 km</desc>
<time>2010-03-03T17:14:09.48</time>
<name>4594</name>
</trkpt>
<trkpt lat="48.931478" lon="8.674693">
<ele>361.0</ele>
<speed>0.3</speed>
<course>37.2</course>
<desc>Speed 0.3 km/h Distance 7.04 km</desc>
<time>2010-03-03T17:14:10.48</time>
<name>4595</name>
</trkpt>
<trkpt lat="48.931478" lon="8.674693">
<ele>361.0</ele>
<speed>0.1</speed>
<course>37.2</course>
<desc>Speed 0.1 km/h Distance 7.04 km</desc>
<time>2010-03-03T17:14:11.49</time>
<name>4596</name>
</trkpt>
<trkpt lat="48.931478" lon="8.674693">
<ele>361.0</ele>
<speed>0.2</speed>
<course>142.8</course>
<desc>Speed 0.2 km/h Distance 7.04 km</desc>
<time>2010-03-03T17:14:12.49</time>
<name>4597</name>
</trkpt>
<trkpt lat="48.931477" lon="8.674695">
<ele>361.0</ele>
<speed>0.6</speed>
<course>224.5</course>
<desc>Speed 0.6 km/h Distance 7.04 km</desc>
<time>2010-03-03T17:14:13.49</time>
<name>4598</name>
</trkpt>
<trkpt lat="48.931473" lon="8.674690">
<ele>361.0</ele>
<speed>1.8</speed>
<course>224.5</course>
<desc>Speed 1.8 km/h Distance 7.04 km</desc>
<time>2010-03-03T17:14:14.49</time>
<name>4599</name>
</trkpt>
<trkpt lat="48.931473" lon="8.674690">
<ele>361.0</ele>
<speed>0.6</speed>
<course>224.5</course>
<desc>Speed 0.6 km/h Distance 7.04 km</desc>
<time>2010-03-03T17:14:15.49</time>
<name>4600</name>
</trkpt>
<trkpt lat="48.931473" lon="8.674690">
<ele>360.5</ele>
<speed>0.4</speed>
<course>224.5</course>
<desc>Speed 0.4 km/h Distance 7.04 km</desc>
<time>2010-03-03T17:14:16.49</time>
<name>4601</name>
</trkpt>
<trkpt lat="48.931473" lon="8.674690">
<ele>360.5</ele>
<speed>0.1</speed>
<course>224.5</course>
<desc>Speed 0.1 km/h Distance 7.04 km</desc>
<time>2010-03-03T17:14:17.49</time>
<name>4602</name>
</trkpt>
<trkpt lat="48.931473" lon="8.674690">
<ele>360.5</ele>
<speed>0.3</speed>
<course>150.8</course>
<desc>Speed 0.3 km/h Distance 7.04 km</desc>
<time>2010-03-03T17:14:18.49</time>
<name>4603</name>
</trkpt>
<trkpt lat="48.931472" lon="8.674692">
<ele>360.5</ele>
<speed>0.5</speed>
<course>326.3</course>
<desc>Speed 0.5 km/h Distance 7.04 km</desc>
<time>2010-03-03T17:14:19.49</time>
<name>4604</name>
</trkpt>
<trkpt lat="48.931475" lon="8.674688">
<ele>361.0</ele>
<speed>1.3</speed>
<course>326.8</course>
<desc>Speed 1.3 km/h Distance 7.04 km</desc>
<time>2010-03-03T17:14:20.49</time>
<name>4605</name>
</trkpt>
<trkpt lat="48.931482" lon="8.674682">
<ele>361.0</ele>
<speed>3.3</speed>
<course>288.7</course>
<desc>Speed 3.3 km/h Distance 7.04 km</desc>
<time>2010-03-03T17:14:21.49</time>
<name>4606</name>
</trkpt>
<trkpt lat="48.931485" lon="8.674667">
<ele>361.0</ele>
<speed>4.0</speed>
<course>280.7</course>
<desc>Speed 4.0 km/h Distance 7.04 km</desc>
<time>2010-03-03T17:14:22.49</time>
<name>4607</name>
</trkpt>
<trkpt lat="48.931487" lon="8.674653">
<ele>361.0</ele>
<speed>4.1</speed>
<course>288.7</course>
<desc>Speed 4.1 km/h Distance 7.04 km</desc>
<time>2010-03-03T17:14:23.49</time>
<name>4608</name>
</trkpt>
<trkpt lat="48.931490" lon="8.674638">
<ele>361.0</ele>
<speed>4.2</speed>
<course>307.3</course>
<desc>Speed 4.2 km/h Distance 7.05 km</desc>
<time>2010-03-03T17:14:24.49</time>
<name>4609</name>
</trkpt>
<trkpt lat="48.931497" lon="8.674625">
<ele>361.0</ele>
<speed>4.9</speed>
<course>326.8</course>
<desc>Speed 4.9 km/h Distance 7.05 km</desc>
<time>2010-03-03T17:14:25.48</time>
<name>4610</name>
</trkpt>
<trkpt lat="48.931505" lon="8.674617">
<ele>360.5</ele>
<speed>4.4</speed>
<course>321.9</course>
<desc>Speed 4.4 km/h Distance 7.05 km</desc>
<time>2010-03-03T17:14:26.48</time>
<name>4611</name>
</trkpt>
<trkpt lat="48.931513" lon="8.674607">
<ele>360.5</ele>
<speed>4.9</speed>
<course>326.6</course>
<desc>Speed 4.9 km/h Distance 7.05 km</desc>
<time>2010-03-03T17:14:27.48</time>
<name>4612</name>
</trkpt>
<trkpt lat="48.931525" lon="8.674595">
<ele>360.5</ele>
<speed>5.3</speed>
<course>310.2</course>
<desc>Speed 5.3 km/h Distance 7.05 km</desc>
<time>2010-03-03T17:14:28.48</time>
<name>4613</name>
</trkpt>
<trkpt lat="48.931533" lon="8.674580">
<ele>360.5</ele>
<speed>4.9</speed>
<course>315.4</course>
<desc>Speed 4.9 km/h Distance 7.05 km</desc>
<time>2010-03-03T17:14:29.48</time>
<name>4614</name>
</trkpt>
<trkpt lat="48.931543" lon="8.674565">
<ele>361.0</ele>
<speed>5.2</speed>
<course>315.4</course>
<desc>Speed 5.2 km/h Distance 7.05 km</desc>
<time>2010-03-03T17:14:30.48</time>
<name>4615</name>
</trkpt>
<trkpt lat="48.931553" lon="8.674550">
<ele>360.5</ele>
<speed>5.3</speed>
<course>315.4</course>
<desc>Speed 5.3 km/h Distance 7.06 km</desc>
<time>2010-03-03T17:14:31.48</time>
<name>4616</name>
</trkpt>
<trkpt lat="48.931563" lon="8.674535">
<ele>361.0</ele>
<speed>4.8</speed>
<course>312.4</course>
<desc>Speed 4.8 km/h Distance 7.06 km</desc>
<time>2010-03-03T17:14:32.48</time>
<name>4617</name>
</trkpt>
<trkpt lat="48.931573" lon="8.674518">
<ele>361.0</ele>
<speed>5.2</speed>
<course>330.3</course>
<desc>Speed 5.2 km/h Distance 7.06 km</desc>
<time>2010-03-03T17:14:33.47</time>
<name>4618</name>
</trkpt>
<trkpt lat="48.931587" lon="8.674507">
<ele>361.0</ele>
<speed>5.0</speed>
<course>319.8</course>
<desc>Speed 5.0 km/h Distance 7.06 km</desc>
<time>2010-03-03T17:14:34.47</time>
<name>4619</name>
</trkpt>
<trkpt lat="48.931598" lon="8.674492">
<ele>361.5</ele>
<speed>5.1</speed>
<course>296.9</course>
<desc>Speed 5.1 km/h Distance 7.06 km</desc>
<time>2010-03-03T17:14:35.47</time>
<name>4620</name>
</trkpt>
<trkpt lat="48.931605" lon="8.674472">
<ele>361.5</ele>
<speed>5.7</speed>
<course>304.7</course>
<desc>Speed 5.7 km/h Distance 7.06 km</desc>
<time>2010-03-03T17:14:36.47</time>
<name>4621</name>
</trkpt>
<trkpt lat="48.931613" lon="8.674453">
<ele>362.0</ele>
<speed>5.4</speed>
<course>310.3</course>
<desc>Speed 5.4 km/h Distance 7.07 km</desc>
<time>2010-03-03T17:14:37.47</time>
<name>4622</name>
</trkpt>
<trkpt lat="48.931622" lon="8.674438">
<ele>361.5</ele>
<speed>4.3</speed>
<course>292.5</course>
<desc>Speed 4.3 km/h Distance 7.07 km</desc>
<time>2010-03-03T17:14:38.47</time>
<name>4623</name>
</trkpt>
<trkpt lat="48.931627" lon="8.674420">
<ele>362.0</ele>
<speed>5.0</speed>
<course>296.9</course>
<desc>Speed 5.0 km/h Distance 7.07 km</desc>
<time>2010-03-03T17:14:39.47</time>
<name>4624</name>
</trkpt>
<trkpt lat="48.931633" lon="8.674400">
<ele>362.0</ele>
<speed>5.4</speed>
<course>310.1</course>
<desc>Speed 5.4 km/h Distance 7.07 km</desc>
<time>2010-03-03T17:14:40.47</time>
<name>4625</name>
</trkpt>
<trkpt lat="48.931642" lon="8.674385">
<ele>361.5</ele>
<speed>4.4</speed>
<course>294.5</course>
<desc>Speed 4.4 km/h Distance 7.07 km</desc>
<time>2010-03-03T17:14:41.48</time>
<name>4626</name>
</trkpt>
<trkpt lat="48.931647" lon="8.674368">
<ele>361.5</ele>
<speed>4.6</speed>
<course>307.3</course>
<desc>Speed 4.6 km/h Distance 7.07 km</desc>
<time>2010-03-03T17:14:42.47</time>
<name>4627</name>
</trkpt>
<trkpt lat="48.931655" lon="8.674352">
<ele>361.5</ele>
<speed>5.1</speed>
<course>304.1</course>
<desc>Speed 5.1 km/h Distance 7.07 km</desc>
<time>2010-03-03T17:14:43.47</time>
<name>4628</name>
</trkpt>
<trkpt lat="48.931662" lon="8.674337">
<ele>361.5</ele>
<speed>4.2</speed>
<course>286.9</course>
<desc>Speed 4.2 km/h Distance 7.08 km</desc>
<time>2010-03-03T17:14:44.47</time>
<name>4629</name>
</trkpt>
<trkpt lat="48.931665" lon="8.674320">
<ele>362.0</ele>
<speed>4.5</speed>
<course>284.2</course>
<desc>Speed 4.5 km/h Distance 7.08 km</desc>
<time>2010-03-03T17:14:45.47</time>
<name>4630</name>
</trkpt>
<trkpt lat="48.931668" lon="8.674300">
<ele>362.0</ele>
<speed>5.0</speed>
<course>301.3</course>
<desc>Speed 5.0 km/h Distance 7.08 km</desc>
<time>2010-03-03T17:14:46.47</time>
<name>4631</name>
</trkpt>
<trkpt lat="48.931675" lon="8.674283">
<ele>362.0</ele>
<speed>5.1</speed>
<course>315.4</course>
<desc>Speed 5.1 km/h Distance 7.08 km</desc>
<time>2010-03-03T17:14:47.47</time>
<name>4632</name>
</trkpt>
<trkpt lat="48.931685" lon="8.674268">
<ele>362.0</ele>
<speed>4.8</speed>
<course>317.4</course>
<desc>Speed 4.8 km/h Distance 7.08 km</desc>
<time>2010-03-03T17:14:48.47</time>
<name>4633</name>
</trkpt>
<trkpt lat="48.931693" lon="8.674257">
<ele>362.0</ele>
<speed>4.6</speed>
<course>326.8</course>
<desc>Speed 4.6 km/h Distance 7.08 km</desc>
<time>2010-03-03T17:14:49.47</time>
<name>4634</name>
</trkpt>
<trkpt lat="48.931703" lon="8.674247">
<ele>362.0</ele>
<speed>4.1</speed>
<course>307.3</course>
<desc>Speed 4.1 km/h Distance 7.08 km</desc>
<time>2010-03-03T17:14:50.48</time>
<name>4635</name>
</trkpt>
<trkpt lat="48.931710" lon="8.674233">
<ele>362.5</ele>
<speed>3.7</speed>
<course>313.6</course>
<desc>Speed 3.7 km/h Distance 7.08 km</desc>
<time>2010-03-03T17:14:51.47</time>
<name>4636</name>
</trkpt>
<trkpt lat="48.931718" lon="8.674220">
<ele>363.5</ele>
<speed>4.4</speed>
<course>350.3</course>
<desc>Speed 4.4 km/h Distance 7.09 km</desc>
<time>2010-03-03T17:14:52.47</time>
<name>4637</name>
</trkpt>
<trkpt lat="48.931732" lon="8.674217">
<ele>363.0</ele>
<speed>5.4</speed>
<course>351.2</course>
<desc>Speed 5.4 km/h Distance 7.09 km</desc>
<time>2010-03-03T17:14:53.48</time>
<name>4638</name>
</trkpt>
<trkpt lat="48.931747" lon="8.674213">
<ele>362.5</ele>
<speed>5.4</speed>
<course>333.6</course>
<desc>Speed 5.4 km/h Distance 7.09 km</desc>
<time>2010-03-03T17:14:54.47</time>
<name>4639</name>
</trkpt>
<trkpt lat="48.931753" lon="8.674208">
<ele>363.0</ele>
<speed>3.1</speed>
<course>355.6</course>
<desc>Speed 3.1 km/h Distance 7.09 km</desc>
<time>2010-03-03T17:14:55.47</time>
<name>4640</name>
</trkpt>
<trkpt lat="48.931763" lon="8.674207">
<ele>363.5</ele>
<speed>4.2</speed>
<course>4.4</course>
<desc>Speed 4.2 km/h Distance 7.09 km</desc>
<time>2010-03-03T17:14:56.46</time>
<name>4641</name>
</trkpt>
<trkpt lat="48.931773" lon="8.674208">
<ele>363.5</ele>
<speed>3.9</speed>
<course>12.6</course>
<desc>Speed 3.9 km/h Distance 7.09 km</desc>
<time>2010-03-03T17:14:57.47</time>
<name>4642</name>
</trkpt>
<trkpt lat="48.931783" lon="8.674212">
<ele>363.5</ele>
<speed>4.0</speed>
<course>5.0</course>
<desc>Speed 4.0 km/h Distance 7.09 km</desc>
<time>2010-03-03T17:14:58.47</time>
<name>4643</name>
</trkpt>
<trkpt lat="48.931792" lon="8.674213">
<ele>363.5</ele>
<speed>3.7</speed>
<course>12.6</course>
<desc>Speed 3.7 km/h Distance 7.09 km</desc>
<time>2010-03-03T17:14:59.47</time>
<name>4644</name>
</trkpt>
<trkpt lat="48.931802" lon="8.674217">
<ele>364.0</ele>
<speed>4.9</speed>
<course>26.4</course>
<desc>Speed 4.9 km/h Distance 7.10 km</desc>
<time>2010-03-03T17:15:00.47</time>
<name>4645</name>
</trkpt>
<trkpt lat="48.931808" lon="8.674222">
<ele>364.5</ele>
<speed>3.1</speed>
<course>21.5</course>
<desc>Speed 3.1 km/h Distance 7.10 km</desc>
<time>2010-03-03T17:15:01.47</time>
<name>4646</name>
</trkpt>
<trkpt lat="48.931817" lon="8.674227">
<ele>364.5</ele>
<speed>3.9</speed>
<course>7.7</course>
<desc>Speed 3.9 km/h Distance 7.10 km</desc>
<time>2010-03-03T17:15:02.46</time>
<name>4647</name>
</trkpt>
<trkpt lat="48.931825" lon="8.674228">
<ele>365.0</ele>
<speed>3.9</speed>
<course>25.6</course>
<desc>Speed 3.9 km/h Distance 7.10 km</desc>
<time>2010-03-03T17:15:03.46</time>
<name>4648</name>
</trkpt>
<trkpt lat="48.931832" lon="8.674233">
<ele>365.5</ele>
<speed>3.7</speed>
<course>33.2</course>
<desc>Speed 3.7 km/h Distance 7.10 km</desc>
<time>2010-03-03T17:15:04.46</time>
<name>4649</name>
</trkpt>
<trkpt lat="48.931837" lon="8.674238">
<ele>366.5</ele>
<speed>3.1</speed>
<course>12.6</course>
<desc>Speed 3.1 km/h Distance 7.10 km</desc>
<time>2010-03-03T17:15:05.46</time>
<name>4650</name>
</trkpt>
<trkpt lat="48.931847" lon="8.674242">
<ele>366.5</ele>
<speed>3.8</speed>
<course>21.5</course>
<desc>Speed 3.8 km/h Distance 7.10 km</desc>
<time>2010-03-03T17:15:06.46</time>
<name>4651</name>
</trkpt>
<trkpt lat="48.931855" lon="8.674247">
<ele>366.5</ele>
<speed>3.7</speed>
<course>27.9</course>
<desc>Speed 3.7 km/h Distance 7.10 km</desc>
<time>2010-03-03T17:15:07.47</time>
<name>4652</name>
</trkpt>
<trkpt lat="48.931863" lon="8.674253">
<ele>366.5</ele>
<speed>3.9</speed>
<course>28.6</course>
<desc>Speed 3.9 km/h Distance 7.10 km</desc>
<time>2010-03-03T17:15:08.47</time>
<name>4653</name>
</trkpt>
<trkpt lat="48.931873" lon="8.674262">
<ele>367.0</ele>
<speed>4.1</speed>
<course>4.7</course>
<desc>Speed 4.1 km/h Distance 7.10 km</desc>
<time>2010-03-03T17:15:09.47</time>
<name>4654</name>
</trkpt>
<trkpt lat="48.931885" lon="8.674263">
<ele>367.0</ele>
<speed>4.5</speed>
<course>0.0</course>
<desc>Speed 4.5 km/h Distance 7.11 km</desc>
<time>2010-03-03T17:15:10.47</time>
<name>4655</name>
</trkpt>
<trkpt lat="48.931895" lon="8.674263">
<ele>367.5</ele>
<speed>4.0</speed>
<course>0.0</course>
<desc>Speed 4.0 km/h Distance 7.11 km</desc>
<time>2010-03-03T17:15:11.48</time>
<name>4656</name>
</trkpt>
<trkpt lat="48.931907" lon="8.674263">
<ele>367.5</ele>
<speed>3.9</speed>
<course>332.1</course>
<desc>Speed 3.9 km/h Distance 7.11 km</desc>
<time>2010-03-03T17:15:12.47</time>
<name>4657</name>
</trkpt>
<trkpt lat="48.931915" lon="8.674257">
<ele>367.0</ele>
<speed>3.2</speed>
<course>311.1</course>
<desc>Speed 3.2 km/h Distance 7.11 km</desc>
<time>2010-03-03T17:15:13.47</time>
<name>4658</name>
</trkpt>
<trkpt lat="48.931922" lon="8.674245">
<ele>366.5</ele>
<speed>3.7</speed>
<course>280.8</course>
<desc>Speed 3.7 km/h Distance 7.11 km</desc>
<time>2010-03-03T17:15:14.47</time>
<name>4659</name>
</trkpt>
<trkpt lat="48.931923" lon="8.674232">
<ele>365.5</ele>
<speed>3.7</speed>
<course>270.0</course>
<desc>Speed 3.7 km/h Distance 7.11 km</desc>
<time>2010-03-03T17:15:15.47</time>
<name>4660</name>
</trkpt>
<trkpt lat="48.931923" lon="8.674215">
<ele>365.0</ele>
<speed>4.2</speed>
<course>278.7</course>
<desc>Speed 4.2 km/h Distance 7.11 km</desc>
<time>2010-03-03T17:15:16.46</time>
<name>4661</name>
</trkpt>
<trkpt lat="48.931925" lon="8.674198">
<ele>365.5</ele>
<speed>4.2</speed>
<course>270.0</course>
<desc>Speed 4.2 km/h Distance 7.11 km</desc>
<time>2010-03-03T17:15:17.46</time>
<name>4662</name>
</trkpt>
<trkpt lat="48.931925" lon="8.674180">
<ele>366.0</ele>
<speed>4.3</speed>
<course>278.7</course>
<desc>Speed 4.3 km/h Distance 7.12 km</desc>
<time>2010-03-03T17:15:18.46</time>
<name>4663</name>
</trkpt>
<trkpt lat="48.931927" lon="8.674163">
<ele>365.5</ele>
<speed>4.1</speed>
<course>277.2</course>
<desc>Speed 4.1 km/h Distance 7.12 km</desc>
<time>2010-03-03T17:15:19.46</time>
<name>4664</name>
</trkpt>
<trkpt lat="48.931928" lon="8.674143">
<ele>365.5</ele>
<speed>4.9</speed>
<course>283.2</course>
<desc>Speed 4.9 km/h Distance 7.12 km</desc>
<time>2010-03-03T17:15:20.46</time>
<name>4665</name>
</trkpt>
<trkpt lat="48.931932" lon="8.674122">
<ele>366.0</ele>
<speed>5.3</speed>
<course>284.2</course>
<desc>Speed 5.3 km/h Distance 7.12 km</desc>
<time>2010-03-03T17:15:21.46</time>
<name>4666</name>
</trkpt>
<trkpt lat="48.931935" lon="8.674102">
<ele>366.0</ele>
<speed>5.2</speed>
<course>279.6</course>
<desc>Speed 5.2 km/h Distance 7.12 km</desc>
<time>2010-03-03T17:15:22.46</time>
<name>4667</name>
</trkpt>
<trkpt lat="48.931937" lon="8.674087">
<ele>365.5</ele>
<speed>3.6</speed>
<course>270.0</course>
<desc>Speed 3.6 km/h Distance 7.12 km</desc>
<time>2010-03-03T17:15:23.45</time>
<name>4668</name>
</trkpt>
<trkpt lat="48.931937" lon="8.674070">
<ele>365.0</ele>
<speed>4.1</speed>
<course>288.7</course>
<desc>Speed 4.1 km/h Distance 7.12 km</desc>
<time>2010-03-03T17:15:24.46</time>
<name>4669</name>
</trkpt>
<trkpt lat="48.931940" lon="8.674055">
<ele>363.5</ele>
<speed>4.1</speed>
<course>296.9</course>
<desc>Speed 4.1 km/h Distance 7.12 km</desc>
<time>2010-03-03T17:15:25.45</time>
<name>4670</name>
</trkpt>
<trkpt lat="48.931945" lon="8.674040">
<ele>363.0</ele>
<speed>4.4</speed>
<course>280.7</course>
<desc>Speed 4.4 km/h Distance 7.13 km</desc>
<time>2010-03-03T17:15:26.46</time>
<name>4671</name>
</trkpt>
<trkpt lat="48.931947" lon="8.674027">
<ele>362.5</ele>
<speed>3.5</speed>
<course>307.3</course>
<desc>Speed 3.5 km/h Distance 7.13 km</desc>
<time>2010-03-03T17:15:27.46</time>
<name>4672</name>
</trkpt>
<trkpt lat="48.931953" lon="8.674013">
<ele>362.0</ele>
<speed>4.0</speed>
<course>303.1</course>
<desc>Speed 4.0 km/h Distance 7.13 km</desc>
<time>2010-03-03T17:15:28.46</time>
<name>4673</name>
</trkpt>
<trkpt lat="48.931958" lon="8.674002">
<ele>362.0</ele>
<speed>3.9</speed>
<course>294.6</course>
<desc>Speed 3.9 km/h Distance 7.13 km</desc>
<time>2010-03-03T17:15:29.46</time>
<name>4674</name>
</trkpt>
<trkpt lat="48.931963" lon="8.673985">
<ele>362.0</ele>
<speed>4.4</speed>
<course>280.8</course>
<desc>Speed 4.4 km/h Distance 7.13 km</desc>
<time>2010-03-03T17:15:30.46</time>
<name>4675</name>
</trkpt>
<trkpt lat="48.931965" lon="8.673972">
<ele>362.0</ele>
<speed>3.5</speed>
<course>285.4</course>
<desc>Speed 3.5 km/h Distance 7.13 km</desc>
<time>2010-03-03T17:15:31.46</time>
<name>4676</name>
</trkpt>
<trkpt lat="48.931968" lon="8.673953">
<ele>361.5</ele>
<speed>4.6</speed>
<course>296.9</course>
<desc>Speed 4.6 km/h Distance 7.13 km</desc>
<time>2010-03-03T17:15:32.45</time>
<name>4677</name>
</trkpt>
<trkpt lat="48.931973" lon="8.673938">
<ele>362.0</ele>
<speed>4.2</speed>
<course>285.5</course>
<desc>Speed 4.2 km/h Distance 7.13 km</desc>
<time>2010-03-03T17:15:33.45</time>
<name>4678</name>
</trkpt>
<trkpt lat="48.931977" lon="8.673920">
<ele>361.5</ele>
<speed>4.8</speed>
<course>294.6</course>
<desc>Speed 4.8 km/h Distance 7.14 km</desc>
<time>2010-03-03T17:15:34.45</time>
<name>4679</name>
</trkpt>
<trkpt lat="48.931982" lon="8.673903">
<ele>361.5</ele>
<speed>4.5</speed>
<course>284.2</course>
<desc>Speed 4.5 km/h Distance 7.14 km</desc>
<time>2010-03-03T17:15:35.45</time>
<name>4680</name>
</trkpt>
<trkpt lat="48.931985" lon="8.673883">
<ele>362.0</ele>
<speed>4.9</speed>
<course>286.9</course>
<desc>Speed 4.9 km/h Distance 7.14 km</desc>
<time>2010-03-03T17:15:36.45</time>
<name>4681</name>
</trkpt>
<trkpt lat="48.931988" lon="8.673867">
<ele>363.0</ele>
<speed>4.6</speed>
<course>279.6</course>
<desc>Speed 4.6 km/h Distance 7.14 km</desc>
<time>2010-03-03T17:15:37.45</time>
<name>4682</name>
</trkpt>
<trkpt lat="48.931990" lon="8.673852">
<ele>362.5</ele>
<speed>3.7</speed>
<course>299.7</course>
<desc>Speed 3.7 km/h Distance 7.14 km</desc>
<time>2010-03-03T17:15:38.45</time>
<name>4683</name>
</trkpt>
<trkpt lat="48.931995" lon="8.673838">
<ele>362.0</ele>
<speed>3.6</speed>
<course>280.8</course>
<desc>Speed 3.6 km/h Distance 7.14 km</desc>
<time>2010-03-03T17:15:39.46</time>
<name>4684</name>
</trkpt>
<trkpt lat="48.931997" lon="8.673825">
<ele>361.0</ele>
<speed>3.2</speed>
<course>278.7</course>
<desc>Speed 3.2 km/h Distance 7.14 km</desc>
<time>2010-03-03T17:15:40.45</time>
<name>4685</name>
</trkpt>
<trkpt lat="48.931998" lon="8.673808">
<ele>361.0</ele>
<speed>4.2</speed>
<course>270.0</course>
<desc>Speed 4.2 km/h Distance 7.14 km</desc>
<time>2010-03-03T17:15:41.45</time>
<name>4686</name>
</trkpt>
<trkpt lat="48.931998" lon="8.673798">
<ele>360.0</ele>
<speed>2.6</speed>
<course>270.0</course>
<desc>Speed 2.6 km/h Distance 7.14 km</desc>
<time>2010-03-03T17:15:42.45</time>
<name>4687</name>
</trkpt>
<trkpt lat="48.931998" lon="8.673785">
<ele>359.0</ele>
<speed>3.1</speed>
<course>279.6</course>
<desc>Speed 3.1 km/h Distance 7.15 km</desc>
<time>2010-03-03T17:15:43.46</time>
<name>4688</name>
</trkpt>
<trkpt lat="48.932000" lon="8.673770">
<ele>358.5</ele>
<speed>3.7</speed>
<course>279.6</course>
<desc>Speed 3.7 km/h Distance 7.15 km</desc>
<time>2010-03-03T17:15:44.45</time>
<name>4689</name>
</trkpt>
<trkpt lat="48.932002" lon="8.673755">
<ele>358.5</ele>
<speed>3.5</speed>
<course>277.9</course>
<desc>Speed 3.5 km/h Distance 7.15 km</desc>
<time>2010-03-03T17:15:45.45</time>
<name>4690</name>
</trkpt>
<trkpt lat="48.932003" lon="8.673737">
<ele>359.5</ele>
<speed>4.5</speed>
<course>288.7</course>
<desc>Speed 4.5 km/h Distance 7.15 km</desc>
<time>2010-03-03T17:15:46.45</time>
<name>4691</name>
</trkpt>
<trkpt lat="48.932007" lon="8.673722">
<ele>359.5</ele>
<speed>3.7</speed>
<course>296.9</course>
<desc>Speed 3.7 km/h Distance 7.15 km</desc>
<time>2010-03-03T17:15:47.45</time>
<name>4692</name>
</trkpt>
<trkpt lat="48.932012" lon="8.673707">
<ele>360.5</ele>
<speed>3.9</speed>
<course>309.2</course>
<desc>Speed 3.9 km/h Distance 7.15 km</desc>
<time>2010-03-03T17:15:48.45</time>
<name>4693</name>
</trkpt>
<trkpt lat="48.932037" lon="8.673660">
<ele>359.5</ele>
<speed>4.0</speed>
<course>301.4</course>
<desc>Speed 4.0 km/h Distance 7.16 km</desc>
<time>2010-03-03T17:15:50.45</time>
<name>4694</name>
</trkpt>
<trkpt lat="48.932043" lon="8.673643">
<ele>359.0</ele>
<speed>4.5</speed>
<course>296.9</course>
<desc>Speed 4.5 km/h Distance 7.16 km</desc>
<time>2010-03-03T17:15:51.44</time>
<name>4695</name>
</trkpt>
<trkpt lat="48.932048" lon="8.673628">
<ele>359.0</ele>
<speed>3.5</speed>
<course>311.1</course>
<desc>Speed 3.5 km/h Distance 7.16 km</desc>
<time>2010-03-03T17:15:52.45</time>
<name>4696</name>
</trkpt>
<trkpt lat="48.932055" lon="8.673617">
<ele>357.5</ele>
<speed>3.5</speed>
<course>307.3</course>
<desc>Speed 3.5 km/h Distance 7.16 km</desc>
<time>2010-03-03T17:15:53.44</time>
<name>4697</name>
</trkpt>
<trkpt lat="48.932062" lon="8.673603">
<ele>357.0</ele>
<speed>3.7</speed>
<course>285.5</course>
<desc>Speed 3.7 km/h Distance 7.16 km</desc>
<time>2010-03-03T17:15:54.45</time>
<name>4698</name>
</trkpt>
<trkpt lat="48.932065" lon="8.673585">
<ele>357.5</ele>
<speed>4.5</speed>
<course>296.9</course>
<desc>Speed 4.5 km/h Distance 7.16 km</desc>
<time>2010-03-03T17:15:55.45</time>
<name>4699</name>
</trkpt>
<trkpt lat="48.932070" lon="8.673570">
<ele>356.5</ele>
<speed>3.5</speed>
<course>270.0</course>
<desc>Speed 3.5 km/h Distance 7.16 km</desc>
<time>2010-03-03T17:15:56.44</time>
<name>4700</name>
</trkpt>
<trkpt lat="48.932070" lon="8.673547">
<ele>357.5</ele>
<speed>5.5</speed>
<course>257.7</course>
<desc>Speed 5.5 km/h Distance 7.17 km</desc>
<time>2010-03-03T17:15:57.45</time>
<name>4701</name>
</trkpt>
<trkpt lat="48.932067" lon="8.673523">
<ele>358.5</ele>
<speed>5.9</speed>
<course>285.4</course>
<desc>Speed 5.9 km/h Distance 7.17 km</desc>
<time>2010-03-03T17:15:58.45</time>
<name>4702</name>
</trkpt>
<trkpt lat="48.932070" lon="8.673505">
<ele>358.5</ele>
<speed>4.1</speed>
<course>296.9</course>
<desc>Speed 4.1 km/h Distance 7.17 km</desc>
<time>2010-03-03T17:15:59.45</time>
<name>4703</name>
</trkpt>
<trkpt lat="48.932075" lon="8.673490">
<ele>357.5</ele>
<speed>3.6</speed>
<course>286.9</course>
<desc>Speed 3.6 km/h Distance 7.17 km</desc>
<time>2010-03-03T17:16:00.45</time>
<name>4704</name>
</trkpt>
<trkpt lat="48.932080" lon="8.673465">
<ele>357.5</ele>
<speed>5.8</speed>
<course>310.2</course>
<desc>Speed 5.8 km/h Distance 7.17 km</desc>
<time>2010-03-03T17:16:01.45</time>
<name>4705</name>
</trkpt>
<trkpt lat="48.932088" lon="8.673450">
<ele>356.5</ele>
<speed>4.8</speed>
<course>299.7</course>
<desc>Speed 4.8 km/h Distance 7.17 km</desc>
<time>2010-03-03T17:16:02.45</time>
<name>4706</name>
</trkpt>
<trkpt lat="48.932093" lon="8.673437">
<ele>355.5</ele>
<speed>3.9</speed>
<course>292.5</course>
<desc>Speed 3.9 km/h Distance 7.17 km</desc>
<time>2010-03-03T17:16:03.44</time>
<name>4707</name>
</trkpt>
<trkpt lat="48.932098" lon="8.673418">
<ele>355.0</ele>
<speed>4.3</speed>
<course>310.9</course>
<desc>Speed 4.3 km/h Distance 7.18 km</desc>
<time>2010-03-03T17:16:04.44</time>
<name>4708</name>
</trkpt>
<trkpt lat="48.932105" lon="8.673407">
<ele>354.5</ele>
<speed>3.2</speed>
<course>311.1</course>
<desc>Speed 3.2 km/h Distance 7.18 km</desc>
<time>2010-03-03T17:16:05.44</time>
<name>4709</name>
</trkpt>
<trkpt lat="48.932112" lon="8.673395">
<ele>353.0</ele>
<speed>3.1</speed>
<course>307.3</course>
<desc>Speed 3.1 km/h Distance 7.18 km</desc>
<time>2010-03-03T17:16:06.44</time>
<name>4710</name>
</trkpt>
<trkpt lat="48.932118" lon="8.673382">
<ele>352.0</ele>
<speed>3.4</speed>
<course>304.1</course>
<desc>Speed 3.4 km/h Distance 7.18 km</desc>
<time>2010-03-03T17:16:07.44</time>
<name>4711</name>
</trkpt>
<trkpt lat="48.932125" lon="8.673367">
<ele>351.0</ele>
<speed>3.7</speed>
<course>293.5</course>
<desc>Speed 3.7 km/h Distance 7.18 km</desc>
<time>2010-03-03T17:16:08.44</time>
<name>4712</name>
</trkpt>
<trkpt lat="48.932132" lon="8.673343">
<ele>351.0</ele>
<speed>5.1</speed>
<course>318.8</course>
<desc>Speed 5.1 km/h Distance 7.18 km</desc>
<time>2010-03-03T17:16:09.44</time>
<name>4713</name>
</trkpt>
<trkpt lat="48.932142" lon="8.673330">
<ele>349.5</ele>
<speed>3.2</speed>
<course>311.6</course>
<desc>Speed 3.2 km/h Distance 7.18 km</desc>
<time>2010-03-03T17:16:10.44</time>
<name>4714</name>
</trkpt>
<trkpt lat="48.932153" lon="8.673310">
<ele>348.5</ele>
<speed>4.2</speed>
<course>299.0</course>
<desc>Speed 4.2 km/h Distance 7.19 km</desc>
<time>2010-03-03T17:16:11.45</time>
<name>4715</name>
</trkpt>
<trkpt lat="48.932160" lon="8.673292">
<ele>348.0</ele>
<speed>3.7</speed>
<course>313.5</course>
<desc>Speed 3.7 km/h Distance 7.19 km</desc>
<time>2010-03-03T17:16:12.43</time>
<name>4716</name>
</trkpt>
<trkpt lat="48.932168" lon="8.673278">
<ele>348.0</ele>
<speed>3.3</speed>
<course>309.7</course>
<desc>Speed 3.3 km/h Distance 7.19 km</desc>
<time>2010-03-03T17:16:13.45</time>
<name>4717</name>
</trkpt>
<trkpt lat="48.932178" lon="8.673260">
<ele>348.0</ele>
<speed>5.1</speed>
<course>318.8</course>
<desc>Speed 5.1 km/h Distance 7.19 km</desc>
<time>2010-03-03T17:16:14.44</time>
<name>4718</name>
</trkpt>
<trkpt lat="48.932188" lon="8.673247">
<ele>347.5</ele>
<speed>3.9</speed>
<course>3.9</course>
<desc>Speed 3.9 km/h Distance 7.19 km</desc>
<time>2010-03-03T17:16:15.44</time>
<name>4719</name>
</trkpt>
<trkpt lat="48.932202" lon="8.673248">
<ele>345.0</ele>
<speed>3.5</speed>
<course>347.4</course>
<desc>Speed 3.5 km/h Distance 7.19 km</desc>
<time>2010-03-03T17:16:16.44</time>
<name>4720</name>
</trkpt>
<trkpt lat="48.932212" lon="8.673245">
<ele>342.5</ele>
<speed>2.4</speed>
<course>302.4</course>
<desc>Speed 2.4 km/h Distance 7.19 km</desc>
<time>2010-03-03T17:16:17.44</time>
<name>4721</name>
</trkpt>
<trkpt lat="48.932220" lon="8.673225">
<ele>342.0</ele>
<speed>5.2</speed>
<course>330.0</course>
<desc>Speed 5.2 km/h Distance 7.20 km</desc>
<time>2010-03-03T17:16:18.44</time>
<name>4722</name>
</trkpt>
<trkpt lat="48.932233" lon="8.673213">
<ele>340.5</ele>
<speed>3.6</speed>
<course>315.5</course>
<desc>Speed 3.6 km/h Distance 7.20 km</desc>
<time>2010-03-03T17:16:19.44</time>
<name>4723</name>
</trkpt>
<trkpt lat="48.932243" lon="8.673198">
<ele>339.5</ele>
<speed>3.6</speed>
<course>300.4</course>
<desc>Speed 3.6 km/h Distance 7.20 km</desc>
<time>2010-03-03T17:16:20.44</time>
<name>4724</name>
</trkpt>
<trkpt lat="48.932252" lon="8.673177">
<ele>340.0</ele>
<speed>4.2</speed>
<course>292.1</course>
<desc>Speed 4.2 km/h Distance 7.20 km</desc>
<time>2010-03-03T17:16:21.44</time>
<name>4725</name>
</trkpt>
<trkpt lat="48.932258" lon="8.673152">
<ele>340.5</ele>
<speed>4.5</speed>
<course>295.1</course>
<desc>Speed 4.5 km/h Distance 7.20 km</desc>
<time>2010-03-03T17:16:22.44</time>
<name>4726</name>
</trkpt>
<trkpt lat="48.932265" lon="8.673130">
<ele>339.0</ele>
<speed>3.2</speed>
<course>296.9</course>
<desc>Speed 3.2 km/h Distance 7.20 km</desc>
<time>2010-03-03T17:16:23.44</time>
<name>4727</name>
</trkpt>
<trkpt lat="48.932270" lon="8.673115">
<ele>337.5</ele>
<speed>3.3</speed>
<course>302.4</course>
<desc>Speed 3.3 km/h Distance 7.21 km</desc>
<time>2010-03-03T17:16:24.44</time>
<name>4728</name>
</trkpt>
<trkpt lat="48.932278" lon="8.673095">
<ele>336.5</ele>
<speed>4.0</speed>
<course>299.0</course>
<desc>Speed 4.0 km/h Distance 7.21 km</desc>
<time>2010-03-03T17:16:25.43</time>
<name>4729</name>
</trkpt>
<trkpt lat="48.932285" lon="8.673077">
<ele>335.5</ele>
<speed>3.7</speed>
<course>300.4</course>
<desc>Speed 3.7 km/h Distance 7.21 km</desc>
<time>2010-03-03T17:16:26.43</time>
<name>4730</name>
</trkpt>
<trkpt lat="48.932293" lon="8.673055">
<ele>335.5</ele>
<speed>4.2</speed>
<course>299.0</course>
<desc>Speed 4.2 km/h Distance 7.21 km</desc>
<time>2010-03-03T17:16:27.43</time>
<name>4731</name>
</trkpt>
<trkpt lat="48.932300" lon="8.673037">
<ele>334.5</ele>
<speed>3.1</speed>
<course>310.2</course>
<desc>Speed 3.1 km/h Distance 7.21 km</desc>
<time>2010-03-03T17:16:28.44</time>
<name>4732</name>
</trkpt>
<trkpt lat="48.932308" lon="8.673022">
<ele>334.0</ele>
<speed>3.6</speed>
<course>296.9</course>
<desc>Speed 3.6 km/h Distance 7.21 km</desc>
<time>2010-03-03T17:16:29.43</time>
<name>4733</name>
</trkpt>
<trkpt lat="48.932315" lon="8.673002">
<ele>333.0</ele>
<speed>4.0</speed>
<course>302.4</course>
<desc>Speed 4.0 km/h Distance 7.22 km</desc>
<time>2010-03-03T17:16:30.43</time>
<name>4734</name>
</trkpt>
<trkpt lat="48.932323" lon="8.672982">
<ele>332.5</ele>
<speed>4.2</speed>
<course>292.1</course>
<desc>Speed 4.2 km/h Distance 7.22 km</desc>
<time>2010-03-03T17:16:31.43</time>
<name>4735</name>
</trkpt>
<trkpt lat="48.932330" lon="8.672957">
<ele>332.0</ele>
<speed>4.8</speed>
<course>317.4</course>
<desc>Speed 4.8 km/h Distance 7.22 km</desc>
<time>2010-03-03T17:16:32.43</time>
<name>4736</name>
</trkpt>
<trkpt lat="48.932338" lon="8.672945">
<ele>331.0</ele>
<speed>3.6</speed>
<course>302.4</course>
<desc>Speed 3.6 km/h Distance 7.22 km</desc>
<time>2010-03-03T17:16:33.43</time>
<name>4737</name>
</trkpt>
<trkpt lat="48.932347" lon="8.672925">
<ele>330.5</ele>
<speed>4.5</speed>
<course>293.5</course>
<desc>Speed 4.5 km/h Distance 7.22 km</desc>
<time>2010-03-03T17:16:34.43</time>
<name>4738</name>
</trkpt>
<trkpt lat="48.932353" lon="8.672902">
<ele>330.5</ele>
<speed>5.0</speed>
<course>295.4</course>
<desc>Speed 5.0 km/h Distance 7.22 km</desc>
<time>2010-03-03T17:16:35.43</time>
<name>4739</name>
</trkpt>
<trkpt lat="48.932362" lon="8.672875">
<ele>330.5</ele>
<speed>5.0</speed>
<course>295.4</course>
<desc>Speed 5.0 km/h Distance 7.23 km</desc>
<time>2010-03-03T17:16:36.43</time>
<name>4740</name>
</trkpt>
<trkpt lat="48.932370" lon="8.672848">
<ele>331.0</ele>
<speed>4.9</speed>
<course>304.7</course>
<desc>Speed 4.9 km/h Distance 7.23 km</desc>
<time>2010-03-03T17:16:37.43</time>
<name>4741</name>
</trkpt>
<trkpt lat="48.932378" lon="8.672830">
<ele>331.0</ele>
<speed>4.3</speed>
<course>309.7</course>
<desc>Speed 4.3 km/h Distance 7.23 km</desc>
<time>2010-03-03T17:16:38.43</time>
<name>4742</name>
</trkpt>
<trkpt lat="48.932388" lon="8.672812">
<ele>330.5</ele>
<speed>4.4</speed>
<course>292.1</course>
<desc>Speed 4.4 km/h Distance 7.23 km</desc>
<time>2010-03-03T17:16:39.42</time>
<name>4743</name>
</trkpt>
<trkpt lat="48.932395" lon="8.672787">
<ele>331.0</ele>
<speed>5.5</speed>
<course>305.0</course>
<desc>Speed 5.5 km/h Distance 7.23 km</desc>
<time>2010-03-03T17:16:40.43</time>
<name>4744</name>
</trkpt>
<trkpt lat="48.932405" lon="8.672765">
<ele>330.5</ele>
<speed>4.6</speed>
<course>310.2</course>
<desc>Speed 4.6 km/h Distance 7.24 km</desc>
<time>2010-03-03T17:16:41.42</time>
<name>4745</name>
</trkpt>
<trkpt lat="48.932413" lon="8.672750">
<ele>329.5</ele>
<speed>4.6</speed>
<course>309.7</course>
<desc>Speed 4.6 km/h Distance 7.24 km</desc>
<time>2010-03-03T17:16:42.42</time>
<name>4746</name>
</trkpt>
<trkpt lat="48.932423" lon="8.672732">
<ele>329.5</ele>
<speed>4.9</speed>
<course>292.6</course>
<desc>Speed 4.9 km/h Distance 7.24 km</desc>
<time>2010-03-03T17:16:43.42</time>
<name>4747</name>
</trkpt>
<trkpt lat="48.932428" lon="8.672713">
<ele>329.5</ele>
<speed>4.0</speed>
<course>299.0</course>
<desc>Speed 4.0 km/h Distance 7.24 km</desc>
<time>2010-03-03T17:16:44.43</time>
<name>4748</name>
</trkpt>
<trkpt lat="48.932435" lon="8.672695">
<ele>330.5</ele>
<speed>3.9</speed>
<course>286.9</course>
<desc>Speed 3.9 km/h Distance 7.24 km</desc>
<time>2010-03-03T17:16:45.43</time>
<name>4749</name>
</trkpt>
<trkpt lat="48.932440" lon="8.672670">
<ele>330.5</ele>
<speed>4.8</speed>
<course>298.5</course>
<desc>Speed 4.8 km/h Distance 7.24 km</desc>
<time>2010-03-03T17:16:46.43</time>
<name>4750</name>
</trkpt>
<trkpt lat="48.932448" lon="8.672647">
<ele>330.0</ele>
<speed>4.6</speed>
<course>299.0</course>
<desc>Speed 4.6 km/h Distance 7.25 km</desc>
<time>2010-03-03T17:16:47.42</time>
<name>4751</name>
</trkpt>
<trkpt lat="48.932455" lon="8.672628">
<ele>330.5</ele>
<speed>4.4</speed>
<course>296.9</course>
<desc>Speed 4.4 km/h Distance 7.25 km</desc>
<time>2010-03-03T17:16:48.42</time>
<name>4752</name>
</trkpt>
<trkpt lat="48.932462" lon="8.672608">
<ele>330.5</ele>
<speed>4.2</speed>
<course>301.4</course>
<desc>Speed 4.2 km/h Distance 7.25 km</desc>
<time>2010-03-03T17:16:49.41</time>
<name>4753</name>
</trkpt>
<trkpt lat="48.932468" lon="8.672592">
<ele>330.0</ele>
<speed>4.2</speed>
<course>301.3</course>
<desc>Speed 4.2 km/h Distance 7.25 km</desc>
<time>2010-03-03T17:16:50.42</time>
<name>4754</name>
</trkpt>
<trkpt lat="48.932475" lon="8.672575">
<ele>330.0</ele>
<speed>4.4</speed>
<course>304.7</course>
<desc>Speed 4.4 km/h Distance 7.25 km</desc>
<time>2010-03-03T17:16:51.42</time>
<name>4755</name>
</trkpt>
<trkpt lat="48.932483" lon="8.672557">
<ele>330.0</ele>
<speed>4.4</speed>
<course>289.4</course>
<desc>Speed 4.4 km/h Distance 7.25 km</desc>
<time>2010-03-03T17:16:52.42</time>
<name>4756</name>
</trkpt>
<trkpt lat="48.932488" lon="8.672535">
<ele>330.0</ele>
<speed>4.8</speed>
<course>293.5</course>
<desc>Speed 4.8 km/h Distance 7.26 km</desc>
<time>2010-03-03T17:16:53.42</time>
<name>4757</name>
</trkpt>
<trkpt lat="48.932495" lon="8.672512">
<ele>330.0</ele>
<speed>4.1</speed>
<course>280.8</course>
<desc>Speed 4.1 km/h Distance 7.26 km</desc>
<time>2010-03-03T17:16:54.42</time>
<name>4758</name>
</trkpt>
<trkpt lat="48.932498" lon="8.672485">
<ele>330.5</ele>
<speed>5.2</speed>
<course>292.5</course>
<desc>Speed 5.2 km/h Distance 7.26 km</desc>
<time>2010-03-03T17:16:55.42</time>
<name>4759</name>
</trkpt>
<trkpt lat="48.932503" lon="8.672467">
<ele>330.0</ele>
<speed>3.7</speed>
<course>282.3</course>
<desc>Speed 3.7 km/h Distance 7.26 km</desc>
<time>2010-03-03T17:16:56.42</time>
<name>4760</name>
</trkpt>
<trkpt lat="48.932507" lon="8.672443">
<ele>329.5</ele>
<speed>3.9</speed>
<course>293.5</course>
<desc>Speed 3.9 km/h Distance 7.26 km</desc>
<time>2010-03-03T17:16:57.42</time>
<name>4761</name>
</trkpt>
<trkpt lat="48.932513" lon="8.672420">
<ele>329.5</ele>
<speed>4.3</speed>
<course>298.5</course>
<desc>Speed 4.3 km/h Distance 7.26 km</desc>
<time>2010-03-03T17:16:58.42</time>
<name>4762</name>
</trkpt>
<trkpt lat="48.932522" lon="8.672397">
<ele>330.0</ele>
<speed>4.9</speed>
<course>292.1</course>
<desc>Speed 4.9 km/h Distance 7.27 km</desc>
<time>2010-03-03T17:16:59.42</time>
<name>4763</name>
</trkpt>
<trkpt lat="48.932528" lon="8.672372">
<ele>330.5</ele>
<speed>5.1</speed>
<course>285.0</course>
<desc>Speed 5.1 km/h Distance 7.27 km</desc>
<time>2010-03-03T17:17:00.42</time>
<name>4764</name>
</trkpt>
<trkpt lat="48.932533" lon="8.672343">
<ele>332.0</ele>
<speed>5.1</speed>
<course>281.5</course>
<desc>Speed 5.1 km/h Distance 7.27 km</desc>
<time>2010-03-03T17:17:01.42</time>
<name>4765</name>
</trkpt>
<trkpt lat="48.932537" lon="8.672318">
<ele>331.5</ele>
<speed>4.3</speed>
<course>275.8</course>
<desc>Speed 4.3 km/h Distance 7.27 km</desc>
<time>2010-03-03T17:17:02.41</time>
<name>4766</name>
</trkpt>
<trkpt lat="48.932538" lon="8.672293">
<ele>331.5</ele>
<speed>3.6</speed>
<course>296.9</course>
<desc>Speed 3.6 km/h Distance 7.27 km</desc>
<time>2010-03-03T17:17:03.42</time>
<name>4767</name>
</trkpt>
<trkpt lat="48.932543" lon="8.672278">
<ele>331.0</ele>
<speed>3.6</speed>
<course>288.7</course>
<desc>Speed 3.6 km/h Distance 7.28 km</desc>
<time>2010-03-03T17:17:04.42</time>
<name>4768</name>
</trkpt>
<trkpt lat="48.932550" lon="8.672248">
<ele>333.0</ele>
<speed>6.9</speed>
<course>280.2</course>
<desc>Speed 6.9 km/h Distance 7.28 km</desc>
<time>2010-03-03T17:17:05.42</time>
<name>4769</name>
</trkpt>
<trkpt lat="48.932553" lon="8.672220">
<ele>334.0</ele>
<speed>5.5</speed>
<course>295.1</course>
<desc>Speed 5.5 km/h Distance 7.28 km</desc>
<time>2010-03-03T17:17:06.42</time>
<name>4770</name>
</trkpt>
<trkpt lat="48.932560" lon="8.672198">
<ele>334.0</ele>
<speed>4.5</speed>
<course>293.5</course>
<desc>Speed 4.5 km/h Distance 7.28 km</desc>
<time>2010-03-03T17:17:07.41</time>
<name>4771</name>
</trkpt>
<trkpt lat="48.932567" lon="8.672175">
<ele>334.0</ele>
<speed>4.1</speed>
<course>292.5</course>
<desc>Speed 4.1 km/h Distance 7.28 km</desc>
<time>2010-03-03T17:17:08.41</time>
<name>4772</name>
</trkpt>
<trkpt lat="48.932572" lon="8.672157">
<ele>333.5</ele>
<speed>4.1</speed>
<course>286.9</course>
<desc>Speed 4.1 km/h Distance 7.28 km</desc>
<time>2010-03-03T17:17:09.42</time>
<name>4773</name>
</trkpt>
<trkpt lat="48.932577" lon="8.672132">
<ele>334.0</ele>
<speed>5.1</speed>
<course>292.1</course>
<desc>Speed 5.1 km/h Distance 7.29 km</desc>
<time>2010-03-03T17:17:10.41</time>
<name>4774</name>
</trkpt>
<trkpt lat="48.932583" lon="8.672107">
<ele>334.5</ele>
<speed>5.3</speed>
<course>282.3</course>
<desc>Speed 5.3 km/h Distance 7.29 km</desc>
<time>2010-03-03T17:17:11.42</time>
<name>4775</name>
</trkpt>
<trkpt lat="48.932587" lon="8.672083">
<ele>335.0</ele>
<speed>4.8</speed>
<course>289.4</course>
<desc>Speed 4.8 km/h Distance 7.29 km</desc>
<time>2010-03-03T17:17:12.41</time>
<name>4776</name>
</trkpt>
<trkpt lat="48.932592" lon="8.672062">
<ele>335.0</ele>
<speed>4.7</speed>
<course>282.3</course>
<desc>Speed 4.7 km/h Distance 7.29 km</desc>
<time>2010-03-03T17:17:13.41</time>
<name>4777</name>
</trkpt>
<trkpt lat="48.932595" lon="8.672038">
<ele>335.5</ele>
<speed>4.8</speed>
<course>284.2</course>
<desc>Speed 4.8 km/h Distance 7.29 km</desc>
<time>2010-03-03T17:17:14.41</time>
<name>4778</name>
</trkpt>
<trkpt lat="48.932598" lon="8.672018">
<ele>336.0</ele>
<speed>4.4</speed>
<course>284.2</course>
<desc>Speed 4.4 km/h Distance 7.30 km</desc>
<time>2010-03-03T17:17:15.57</time>
<name>4779</name>
</trkpt>
<trkpt lat="48.932602" lon="8.671998">
<ele>336.5</ele>
<speed>3.9</speed>
<course>277.9</course>
<desc>Speed 3.9 km/h Distance 7.30 km</desc>
<time>2010-03-03T17:17:16.40</time>
<name>4780</name>
</trkpt>
<trkpt lat="48.932603" lon="8.671980">
<ele>336.0</ele>
<speed>3.0</speed>
<course>304.0</course>
<desc>Speed 3.0 km/h Distance 7.30 km</desc>
<time>2010-03-03T17:17:17.40</time>
<name>4781</name>
</trkpt>
<trkpt lat="48.932610" lon="8.671965">
<ele>335.0</ele>
<speed>3.6</speed>
<course>301.3</course>
<desc>Speed 3.6 km/h Distance 7.30 km</desc>
<time>2010-03-03T17:17:18.41</time>
<name>4782</name>
</trkpt>
<trkpt lat="48.932617" lon="8.671948">
<ele>335.0</ele>
<speed>3.7</speed>
<course>283.2</course>
<desc>Speed 3.7 km/h Distance 7.30 km</desc>
<time>2010-03-03T17:17:19.41</time>
<name>4783</name>
</trkpt>
<trkpt lat="48.932620" lon="8.671927">
<ele>335.0</ele>
<speed>3.9</speed>
<course>284.2</course>
<desc>Speed 3.9 km/h Distance 7.30 km</desc>
<time>2010-03-03T17:17:20.40</time>
<name>4784</name>
</trkpt>
<trkpt lat="48.932623" lon="8.671907">
<ele>335.0</ele>
<speed>3.3</speed>
<course>286.9</course>
<desc>Speed 3.3 km/h Distance 7.30 km</desc>
<time>2010-03-03T17:17:21.40</time>
<name>4785</name>
</trkpt>
<trkpt lat="48.932628" lon="8.671882">
<ele>335.5</ele>
<speed>3.7</speed>
<course>284.3</course>
<desc>Speed 3.7 km/h Distance 7.31 km</desc>
<time>2010-03-03T17:17:22.40</time>
<name>4786</name>
</trkpt>
<trkpt lat="48.932633" lon="8.671852">
<ele>336.5</ele>
<speed>4.9</speed>
<course>302.4</course>
<desc>Speed 4.9 km/h Distance 7.31 km</desc>
<time>2010-03-03T17:17:23.41</time>
<name>4787</name>
</trkpt>
<trkpt lat="48.932642" lon="8.671832">
<ele>337.0</ele>
<speed>4.6</speed>
<course>295.1</course>
<desc>Speed 4.6 km/h Distance 7.31 km</desc>
<time>2010-03-03T17:17:24.39</time>
<name>4788</name>
</trkpt>
<trkpt lat="48.932648" lon="8.671810">
<ele>337.0</ele>
<speed>4.2</speed>
<course>288.1</course>
<desc>Speed 4.2 km/h Distance 7.31 km</desc>
<time>2010-03-03T17:17:25.40</time>
<name>4789</name>
</trkpt>
<trkpt lat="48.932653" lon="8.671787">
<ele>336.0</ele>
<speed>4.6</speed>
<course>286.9</course>
<desc>Speed 4.6 km/h Distance 7.31 km</desc>
<time>2010-03-03T17:17:26.40</time>
<name>4790</name>
</trkpt>
<trkpt lat="48.932657" lon="8.671770">
<ele>336.0</ele>
<speed>3.7</speed>
<course>296.9</course>
<desc>Speed 3.7 km/h Distance 7.31 km</desc>
<time>2010-03-03T17:17:27.40</time>
<name>4791</name>
</trkpt>
<trkpt lat="48.932662" lon="8.671755">
<ele>336.0</ele>
<speed>3.7</speed>
<course>286.9</course>
<desc>Speed 3.7 km/h Distance 7.32 km</desc>
<time>2010-03-03T17:17:28.40</time>
<name>4792</name>
</trkpt>
<trkpt lat="48.932665" lon="8.671738">
<ele>336.5</ele>
<speed>3.3</speed>
<course>300.3</course>
<desc>Speed 3.3 km/h Distance 7.32 km</desc>
<time>2010-03-03T17:17:29.40</time>
<name>4793</name>
</trkpt>
<trkpt lat="48.932673" lon="8.671717">
<ele>337.5</ele>
<speed>5.0</speed>
<course>300.4</course>
<desc>Speed 5.0 km/h Distance 7.32 km</desc>
<time>2010-03-03T17:17:30.39</time>
<name>4794</name>
</trkpt>
<trkpt lat="48.932682" lon="8.671695">
<ele>337.5</ele>
<speed>4.9</speed>
<course>296.9</course>
<desc>Speed 4.9 km/h Distance 7.32 km</desc>
<time>2010-03-03T17:17:31.40</time>
<name>4795</name>
</trkpt>
<trkpt lat="48.932690" lon="8.671670">
<ele>338.0</ele>
<speed>5.1</speed>
<course>288.1</course>
<desc>Speed 5.1 km/h Distance 7.32 km</desc>
<time>2010-03-03T17:17:32.40</time>
<name>4796</name>
</trkpt>
<trkpt lat="48.932695" lon="8.671647">
<ele>338.5</ele>
<speed>4.8</speed>
<course>282.3</course>
<desc>Speed 4.8 km/h Distance 7.32 km</desc>
<time>2010-03-03T17:17:33.39</time>
<name>4797</name>
</trkpt>
<trkpt lat="48.932698" lon="8.671623">
<ele>338.0</ele>
<speed>3.5</speed>
<course>290.8</course>
<desc>Speed 3.5 km/h Distance 7.33 km</desc>
<time>2010-03-03T17:17:34.40</time>
<name>4798</name>
</trkpt>
<trkpt lat="48.932705" lon="8.671597">
<ele>338.0</ele>
<speed>5.0</speed>
<course>286.9</course>
<desc>Speed 5.0 km/h Distance 7.33 km</desc>
<time>2010-03-03T17:17:35.39</time>
<name>4799</name>
</trkpt>
<trkpt lat="48.932708" lon="8.671580">
<ele>337.5</ele>
<speed>3.9</speed>
<course>285.5</course>
<desc>Speed 3.9 km/h Distance 7.33 km</desc>
<time>2010-03-03T17:17:36.40</time>
<name>4800</name>
</trkpt>
<trkpt lat="48.932712" lon="8.671562">
<ele>337.5</ele>
<speed>4.3</speed>
<course>284.2</course>
<desc>Speed 4.3 km/h Distance 7.33 km</desc>
<time>2010-03-03T17:17:37.39</time>
<name>4801</name>
</trkpt>
<trkpt lat="48.932715" lon="8.671542">
<ele>337.0</ele>
<speed>3.9</speed>
<course>285.0</course>
<desc>Speed 3.9 km/h Distance 7.33 km</desc>
<time>2010-03-03T17:17:38.39</time>
<name>4802</name>
</trkpt>
<trkpt lat="48.932720" lon="8.671513">
<ele>337.5</ele>
<speed>5.6</speed>
<course>288.1</course>
<desc>Speed 5.6 km/h Distance 7.33 km</desc>
<time>2010-03-03T17:17:39.39</time>
<name>4803</name>
</trkpt>
<trkpt lat="48.932725" lon="8.671490">
<ele>338.0</ele>
<speed>4.0</speed>
<course>285.0</course>
<desc>Speed 4.0 km/h Distance 7.34 km</desc>
<time>2010-03-03T17:17:40.39</time>
<name>4804</name>
</trkpt>
<trkpt lat="48.932730" lon="8.671462">
<ele>339.0</ele>
<speed>5.0</speed>
<course>286.9</course>
<desc>Speed 5.0 km/h Distance 7.34 km</desc>
<time>2010-03-03T17:17:41.39</time>
<name>4805</name>
</trkpt>
<trkpt lat="48.932735" lon="8.671437">
<ele>339.5</ele>
<speed>5.2</speed>
<course>295.1</course>
<desc>Speed 5.2 km/h Distance 7.34 km</desc>
<time>2010-03-03T17:17:42.39</time>
<name>4806</name>
</trkpt>
<trkpt lat="48.932742" lon="8.671415">
<ele>339.5</ele>
<speed>5.1</speed>
<course>296.9</course>
<desc>Speed 5.1 km/h Distance 7.34 km</desc>
<time>2010-03-03T17:17:43.38</time>
<name>4807</name>
</trkpt>
<trkpt lat="48.932750" lon="8.671390">
<ele>340.0</ele>
<speed>5.1</speed>
<course>293.5</course>
<desc>Speed 5.1 km/h Distance 7.34 km</desc>
<time>2010-03-03T17:17:44.38</time>
<name>4808</name>
</trkpt>
<trkpt lat="48.932757" lon="8.671367">
<ele>340.0</ele>
<speed>4.7</speed>
<course>307.3</course>
<desc>Speed 4.7 km/h Distance 7.35 km</desc>
<time>2010-03-03T17:17:45.38</time>
<name>4809</name>
</trkpt>
<trkpt lat="48.932765" lon="8.671350">
<ele>340.0</ele>
<speed>4.4</speed>
<course>296.9</course>
<desc>Speed 4.4 km/h Distance 7.35 km</desc>
<time>2010-03-03T17:17:46.38</time>
<name>4810</name>
</trkpt>
<trkpt lat="48.932772" lon="8.671330">
<ele>340.5</ele>
<speed>4.7</speed>
<course>314.1</course>
<desc>Speed 4.7 km/h Distance 7.35 km</desc>
<time>2010-03-03T17:17:47.38</time>
<name>4811</name>
</trkpt>
<trkpt lat="48.932783" lon="8.671312">
<ele>341.0</ele>
<speed>4.8</speed>
<course>330.2</course>
<desc>Speed 4.8 km/h Distance 7.35 km</desc>
<time>2010-03-03T17:17:48.38</time>
<name>4812</name>
</trkpt>
<trkpt lat="48.932797" lon="8.671300">
<ele>341.0</ele>
<speed>5.3</speed>
<course>323.1</course>
<desc>Speed 5.3 km/h Distance 7.35 km</desc>
<time>2010-03-03T17:17:49.38</time>
<name>4813</name>
</trkpt>
<trkpt lat="48.932808" lon="8.671287">
<ele>341.0</ele>
<speed>4.6</speed>
<course>312.4</course>
<desc>Speed 4.6 km/h Distance 7.35 km</desc>
<time>2010-03-03T17:17:50.39</time>
<name>4814</name>
</trkpt>
<trkpt lat="48.932818" lon="8.671270">
<ele>340.5</ele>
<speed>4.6</speed>
<course>298.6</course>
<desc>Speed 4.6 km/h Distance 7.36 km</desc>
<time>2010-03-03T17:17:51.39</time>
<name>4815</name>
</trkpt>
<trkpt lat="48.932827" lon="8.671247">
<ele>341.0</ele>
<speed>5.3</speed>
<course>299.7</course>
<desc>Speed 5.3 km/h Distance 7.36 km</desc>
<time>2010-03-03T17:17:52.38</time>
<name>4816</name>
</trkpt>
<trkpt lat="48.932837" lon="8.671220">
<ele>341.5</ele>
<speed>5.5</speed>
<course>295.1</course>
<desc>Speed 5.5 km/h Distance 7.36 km</desc>
<time>2010-03-03T17:17:53.38</time>
<name>4817</name>
</trkpt>
<trkpt lat="48.932843" lon="8.671198">
<ele>342.0</ele>
<speed>4.9</speed>
<course>313.6</course>
<desc>Speed 4.9 km/h Distance 7.36 km</desc>
<time>2010-03-03T17:17:54.38</time>
<name>4818</name>
</trkpt>
<trkpt lat="48.932852" lon="8.671185">
<ele>341.5</ele>
<speed>4.0</speed>
<course>298.5</course>
<desc>Speed 4.0 km/h Distance 7.36 km</desc>
<time>2010-03-03T17:17:55.38</time>
<name>4819</name>
</trkpt>
<trkpt lat="48.932860" lon="8.671162">
<ele>342.5</ele>
<speed>5.4</speed>
<course>295.1</course>
<desc>Speed 5.4 km/h Distance 7.37 km</desc>
<time>2010-03-03T17:17:56.38</time>
<name>4820</name>
</trkpt>
<trkpt lat="48.932867" lon="8.671140">
<ele>343.0</ele>
<speed>4.5</speed>
<course>300.3</course>
<desc>Speed 4.5 km/h Distance 7.37 km</desc>
<time>2010-03-03T17:17:57.38</time>
<name>4821</name>
</trkpt>
<trkpt lat="48.932875" lon="8.671118">
<ele>343.5</ele>
<speed>4.5</speed>
<course>319.8</course>
<desc>Speed 4.5 km/h Distance 7.37 km</desc>
<time>2010-03-03T17:17:58.38</time>
<name>4822</name>
</trkpt>
<trkpt lat="48.932887" lon="8.671103">
<ele>343.5</ele>
<speed>4.4</speed>
<course>302.4</course>
<desc>Speed 4.4 km/h Distance 7.37 km</desc>
<time>2010-03-03T17:17:59.38</time>
<name>4823</name>
</trkpt>
<trkpt lat="48.932895" lon="8.671083">
<ele>344.0</ele>
<speed>4.4</speed>
<course>323.1</course>
<desc>Speed 4.4 km/h Distance 7.37 km</desc>
<time>2010-03-03T17:18:00.38</time>
<name>4824</name>
</trkpt>
<trkpt lat="48.932907" lon="8.671070">
<ele>344.0</ele>
<speed>4.9</speed>
<course>312.4</course>
<desc>Speed 4.9 km/h Distance 7.37 km</desc>
<time>2010-03-03T17:18:01.38</time>
<name>4825</name>
</trkpt>
<trkpt lat="48.932917" lon="8.671053">
<ele>344.0</ele>
<speed>4.9</speed>
<course>311.7</course>
<desc>Speed 4.9 km/h Distance 7.38 km</desc>
<time>2010-03-03T17:18:02.37</time>
<name>4826</name>
</trkpt>
<trkpt lat="48.932928" lon="8.671033">
<ele>344.0</ele>
<speed>5.6</speed>
<course>326.9</course>
<desc>Speed 5.6 km/h Distance 7.38 km</desc>
<time>2010-03-03T17:18:03.37</time>
<name>4827</name>
</trkpt>
<trkpt lat="48.932940" lon="8.671022">
<ele>343.5</ele>
<speed>5.3</speed>
<course>323.1</course>
<desc>Speed 5.3 km/h Distance 7.38 km</desc>
<time>2010-03-03T17:18:04.37</time>
<name>4828</name>
</trkpt>
<trkpt lat="48.932952" lon="8.671008">
<ele>344.0</ele>
<speed>4.9</speed>
<course>317.4</course>
<desc>Speed 4.9 km/h Distance 7.38 km</desc>
<time>2010-03-03T17:18:05.38</time>
<name>4829</name>
</trkpt>
<trkpt lat="48.932960" lon="8.670997">
<ele>344.0</ele>
<speed>4.1</speed>
<course>323.1</course>
<desc>Speed 4.1 km/h Distance 7.38 km</desc>
<time>2010-03-03T17:18:06.37</time>
<name>4830</name>
</trkpt>
<trkpt lat="48.932972" lon="8.670983">
<ele>344.5</ele>
<speed>5.0</speed>
<course>326.7</course>
<desc>Speed 5.0 km/h Distance 7.38 km</desc>
<time>2010-03-03T17:18:07.37</time>
<name>4831</name>
</trkpt>
<trkpt lat="48.932983" lon="8.670972">
<ele>344.0</ele>
<speed>5.0</speed>
<course>316.9</course>
<desc>Speed 5.0 km/h Distance 7.39 km</desc>
<time>2010-03-03T17:18:08.38</time>
<name>4832</name>
</trkpt>
<trkpt lat="48.932995" lon="8.670955">
<ele>344.5</ele>
<speed>5.5</speed>
<course>316.9</course>
<desc>Speed 5.5 km/h Distance 7.39 km</desc>
<time>2010-03-03T17:18:09.37</time>
<name>4833</name>
</trkpt>
<trkpt lat="48.933007" lon="8.670938">
<ele>345.0</ele>
<speed>5.2</speed>
<course>315.5</course>
<desc>Speed 5.2 km/h Distance 7.39 km</desc>
<time>2010-03-03T17:18:10.37</time>
<name>4834</name>
</trkpt>
<trkpt lat="48.933017" lon="8.670923">
<ele>345.0</ele>
<speed>4.8</speed>
<course>317.9</course>
<desc>Speed 4.8 km/h Distance 7.39 km</desc>
<time>2010-03-03T17:18:11.38</time>
<name>4835</name>
</trkpt>
<trkpt lat="48.933030" lon="8.670905">
<ele>345.0</ele>
<speed>5.5</speed>
<course>326.7</course>
<desc>Speed 5.5 km/h Distance 7.39 km</desc>
<time>2010-03-03T17:18:12.38</time>
<name>4836</name>
</trkpt>
<trkpt lat="48.933042" lon="8.670893">
<ele>344.5</ele>
<speed>4.6</speed>
<course>326.6</course>
<desc>Speed 4.6 km/h Distance 7.39 km</desc>
<time>2010-03-03T17:18:13.37</time>
<name>4837</name>
</trkpt>
<trkpt lat="48.933055" lon="8.670880">
<ele>343.5</ele>
<speed>5.1</speed>
<course>296.9</course>
<desc>Speed 5.1 km/h Distance 7.40 km</desc>
<time>2010-03-03T17:18:14.37</time>
<name>4838</name>
</trkpt>
<trkpt lat="48.933063" lon="8.670855">
<ele>345.0</ele>
<speed>6.1</speed>
<course>314.1</course>
<desc>Speed 6.1 km/h Distance 7.40 km</desc>
<time>2010-03-03T17:18:15.37</time>
<name>4839</name>
</trkpt>
<trkpt lat="48.933075" lon="8.670837">
<ele>346.0</ele>
<speed>5.5</speed>
<course>305.1</course>
<desc>Speed 5.5 km/h Distance 7.40 km</desc>
<time>2010-03-03T17:18:16.37</time>
<name>4840</name>
</trkpt>
<trkpt lat="48.933085" lon="8.670815">
<ele>346.5</ele>
<speed>5.7</speed>
<course>305.0</course>
<desc>Speed 5.7 km/h Distance 7.40 km</desc>
<time>2010-03-03T17:18:17.36</time>
<name>4841</name>
</trkpt>
<trkpt lat="48.933095" lon="8.670793">
<ele>347.0</ele>
<speed>5.1</speed>
<course>315.3</course>
<desc>Speed 5.1 km/h Distance 7.40 km</desc>
<time>2010-03-03T17:18:18.36</time>
<name>4842</name>
</trkpt>
<trkpt lat="48.933105" lon="8.670778">
<ele>347.0</ele>
<speed>5.1</speed>
<course>309.6</course>
<desc>Speed 5.1 km/h Distance 7.41 km</desc>
<time>2010-03-03T17:18:19.37</time>
<name>4843</name>
</trkpt>
<trkpt lat="48.933115" lon="8.670760">
<ele>347.0</ele>
<speed>5.3</speed>
<course>311.6</course>
<desc>Speed 5.3 km/h Distance 7.41 km</desc>
<time>2010-03-03T17:18:20.36</time>
<name>4844</name>
</trkpt>
<trkpt lat="48.933127" lon="8.670740">
<ele>346.5</ele>
<speed>5.6</speed>
<course>309.4</course>
<desc>Speed 5.6 km/h Distance 7.41 km</desc>
<time>2010-03-03T17:18:21.36</time>
<name>4845</name>
</trkpt>
<trkpt lat="48.933138" lon="8.670718">
<ele>347.0</ele>
<speed>5.7</speed>
<course>318.7</course>
<desc>Speed 5.7 km/h Distance 7.41 km</desc>
<time>2010-03-03T17:18:22.36</time>
<name>4846</name>
</trkpt>
<trkpt lat="48.933148" lon="8.670705">
<ele>347.0</ele>
<speed>4.4</speed>
<course>304.7</course>
<desc>Speed 4.4 km/h Distance 7.41 km</desc>
<time>2010-03-03T17:18:23.37</time>
<name>4847</name>
</trkpt>
<trkpt lat="48.933157" lon="8.670687">
<ele>346.5</ele>
<speed>5.0</speed>
<course>307.3</course>
<desc>Speed 5.0 km/h Distance 7.41 km</desc>
<time>2010-03-03T17:18:24.36</time>
<name>4848</name>
</trkpt>
<trkpt lat="48.933165" lon="8.670670">
<ele>347.0</ele>
<speed>5.1</speed>
<course>320.6</course>
<desc>Speed 5.1 km/h Distance 7.42 km</desc>
<time>2010-03-03T17:18:25.37</time>
<name>4849</name>
</trkpt>
<trkpt lat="48.933178" lon="8.670653">
<ele>347.5</ele>
<speed>5.7</speed>
<course>304.7</course>
<desc>Speed 5.7 km/h Distance 7.42 km</desc>
<time>2010-03-03T17:18:26.36</time>
<name>4850</name>
</trkpt>
<trkpt lat="48.933187" lon="8.670635">
<ele>347.5</ele>
<speed>4.8</speed>
<course>299.7</course>
<desc>Speed 4.8 km/h Distance 7.42 km</desc>
<time>2010-03-03T17:18:27.36</time>
<name>4851</name>
</trkpt>
<trkpt lat="48.933192" lon="8.670622">
<ele>347.5</ele>
<speed>4.0</speed>
<course>312.4</course>
<desc>Speed 4.0 km/h Distance 7.42 km</desc>
<time>2010-03-03T17:18:28.36</time>
<name>4852</name>
</trkpt>
<trkpt lat="48.933202" lon="8.670605">
<ele>347.5</ele>
<speed>5.3</speed>
<course>317.4</course>
<desc>Speed 5.3 km/h Distance 7.42 km</desc>
<time>2010-03-03T17:18:29.36</time>
<name>4853</name>
</trkpt>
<trkpt lat="48.933210" lon="8.670593">
<ele>347.0</ele>
<speed>4.2</speed>
<course>318.8</course>
<desc>Speed 4.2 km/h Distance 7.42 km</desc>
<time>2010-03-03T17:18:30.37</time>
<name>4854</name>
</trkpt>
<trkpt lat="48.933220" lon="8.670580">
<ele>346.5</ele>
<speed>4.5</speed>
<course>319.8</course>
<desc>Speed 4.5 km/h Distance 7.42 km</desc>
<time>2010-03-03T17:18:31.36</time>
<name>4855</name>
</trkpt>
<trkpt lat="48.933232" lon="8.670565">
<ele>346.0</ele>
<speed>4.9</speed>
<course>336.2</course>
<desc>Speed 4.9 km/h Distance 7.43 km</desc>
<time>2010-03-03T17:18:32.36</time>
<name>4856</name>
</trkpt>
<trkpt lat="48.933242" lon="8.670558">
<ele>344.5</ele>
<speed>3.2</speed>
<course>312.4</course>
<desc>Speed 3.2 km/h Distance 7.43 km</desc>
<time>2010-03-03T17:18:33.36</time>
<name>4857</name>
</trkpt>
<trkpt lat="48.933252" lon="8.670542">
<ele>345.0</ele>
<speed>5.4</speed>
<course>322.5</course>
<desc>Speed 5.4 km/h Distance 7.43 km</desc>
<time>2010-03-03T17:18:34.36</time>
<name>4858</name>
</trkpt>
<trkpt lat="48.933262" lon="8.670530">
<ele>343.5</ele>
<speed>4.5</speed>
<course>330.0</course>
<desc>Speed 4.5 km/h Distance 7.43 km</desc>
<time>2010-03-03T17:18:35.36</time>
<name>4859</name>
</trkpt>
<trkpt lat="48.933275" lon="8.670518">
<ele>342.5</ele>
<speed>4.8</speed>
<course>309.7</course>
<desc>Speed 4.8 km/h Distance 7.43 km</desc>
<time>2010-03-03T17:18:36.36</time>
<name>4860</name>
</trkpt>
<trkpt lat="48.933285" lon="8.670500">
<ele>342.5</ele>
<speed>5.1</speed>
<course>300.4</course>
<desc>Speed 5.1 km/h Distance 7.43 km</desc>
<time>2010-03-03T17:18:37.35</time>
<name>4861</name>
</trkpt>
<trkpt lat="48.933293" lon="8.670478">
<ele>343.0</ele>
<speed>5.4</speed>
<course>309.7</course>
<desc>Speed 5.4 km/h Distance 7.44 km</desc>
<time>2010-03-03T17:18:38.35</time>
<name>4862</name>
</trkpt>
<trkpt lat="48.933303" lon="8.670460">
<ele>344.0</ele>
<speed>5.5</speed>
<course>323.1</course>
<desc>Speed 5.5 km/h Distance 7.44 km</desc>
<time>2010-03-03T17:18:39.35</time>
<name>4863</name>
</trkpt>
<trkpt lat="48.933315" lon="8.670447">
<ele>343.0</ele>
<speed>5.0</speed>
<course>312.5</course>
<desc>Speed 5.0 km/h Distance 7.44 km</desc>
<time>2010-03-03T17:18:40.35</time>
<name>4864</name>
</trkpt>
<trkpt lat="48.933325" lon="8.670430">
<ele>343.0</ele>
<speed>4.9</speed>
<course>314.1</course>
<desc>Speed 4.9 km/h Distance 7.44 km</desc>
<time>2010-03-03T17:18:41.35</time>
<name>4865</name>
</trkpt>
<trkpt lat="48.933337" lon="8.670412">
<ele>342.5</ele>
<speed>5.2</speed>
<course>316.9</course>
<desc>Speed 5.2 km/h Distance 7.44 km</desc>
<time>2010-03-03T17:18:42.36</time>
<name>4866</name>
</trkpt>
<trkpt lat="48.933348" lon="8.670395">
<ele>341.5</ele>
<speed>5.6</speed>
<course>323.0</course>
<desc>Speed 5.6 km/h Distance 7.44 km</desc>
<time>2010-03-03T17:18:43.35</time>
<name>4867</name>
</trkpt>
<trkpt lat="48.933360" lon="8.670382">
<ele>340.5</ele>
<speed>4.9</speed>
<course>326.6</course>
<desc>Speed 4.9 km/h Distance 7.45 km</desc>
<time>2010-03-03T17:18:44.35</time>
<name>4868</name>
</trkpt>
<trkpt lat="48.933373" lon="8.670368">
<ele>339.5</ele>
<speed>4.7</speed>
<course>323.4</course>
<desc>Speed 4.7 km/h Distance 7.45 km</desc>
<time>2010-03-03T17:18:45.35</time>
<name>4869</name>
</trkpt>
<trkpt lat="48.933387" lon="8.670353">
<ele>339.0</ele>
<speed>4.9</speed>
<course>316.7</course>
<desc>Speed 4.9 km/h Distance 7.45 km</desc>
<time>2010-03-03T17:18:46.35</time>
<name>4870</name>
</trkpt>
<trkpt lat="48.933398" lon="8.670337">
<ele>338.5</ele>
<speed>5.3</speed>
<course>323.4</course>
<desc>Speed 5.3 km/h Distance 7.45 km</desc>
<time>2010-03-03T17:18:47.36</time>
<name>4871</name>
</trkpt>
<trkpt lat="48.933412" lon="8.670322">
<ele>338.0</ele>
<speed>5.3</speed>
<course>318.8</course>
<desc>Speed 5.3 km/h Distance 7.45 km</desc>
<time>2010-03-03T17:18:48.35</time>
<name>4872</name>
</trkpt>
<trkpt lat="48.933422" lon="8.670308">
<ele>337.0</ele>
<speed>4.8</speed>
<course>319.8</course>
<desc>Speed 4.8 km/h Distance 7.46 km</desc>
<time>2010-03-03T17:18:49.35</time>
<name>4873</name>
</trkpt>
<trkpt lat="48.933433" lon="8.670293">
<ele>336.5</ele>
<speed>5.1</speed>
<course>315.5</course>
<desc>Speed 5.1 km/h Distance 7.46 km</desc>
<time>2010-03-03T17:18:50.35</time>
<name>4874</name>
</trkpt>
<trkpt lat="48.933443" lon="8.670278">
<ele>336.0</ele>
<speed>4.6</speed>
<course>319.8</course>
<desc>Speed 4.6 km/h Distance 7.46 km</desc>
<time>2010-03-03T17:18:51.35</time>
<name>4875</name>
</trkpt>
<trkpt lat="48.933455" lon="8.670263">
<ele>335.5</ele>
<speed>5.1</speed>
<course>323.1</course>
<desc>Speed 5.1 km/h Distance 7.46 km</desc>
<time>2010-03-03T17:18:52.35</time>
<name>4876</name>
</trkpt>
<trkpt lat="48.933467" lon="8.670250">
<ele>335.0</ele>
<speed>5.4</speed>
<course>319.8</course>
<desc>Speed 5.4 km/h Distance 7.46 km</desc>
<time>2010-03-03T17:18:53.34</time>
<name>4877</name>
</trkpt>
<trkpt lat="48.933478" lon="8.670235">
<ele>334.5</ele>
<speed>5.0</speed>
<course>334.0</course>
<desc>Speed 5.0 km/h Distance 7.46 km</desc>
<time>2010-03-03T17:18:54.35</time>
<name>4878</name>
</trkpt>
<trkpt lat="48.933492" lon="8.670225">
<ele>333.5</ele>
<speed>5.4</speed>
<course>326.6</course>
<desc>Speed 5.4 km/h Distance 7.47 km</desc>
<time>2010-03-03T17:18:55.34</time>
<name>4879</name>
</trkpt>
<trkpt lat="48.933505" lon="8.670212">
<ele>333.0</ele>
<speed>5.4</speed>
<course>302.1</course>
<desc>Speed 5.4 km/h Distance 7.47 km</desc>
<time>2010-03-03T17:18:56.36</time>
<name>4880</name>
</trkpt>
<trkpt lat="48.933517" lon="8.670183">
<ele>335.0</ele>
<speed>5.0</speed>
<course>316.7</course>
<desc>Speed 5.0 km/h Distance 7.47 km</desc>
<time>2010-03-03T17:18:57.34</time>
<name>4881</name>
</trkpt>
<trkpt lat="48.933528" lon="8.670167">
<ele>335.0</ele>
<speed>5.3</speed>
<course>320.6</course>
<desc>Speed 5.3 km/h Distance 7.47 km</desc>
<time>2010-03-03T17:18:58.35</time>
<name>4882</name>
</trkpt>
<trkpt lat="48.933542" lon="8.670150">
<ele>335.0</ele>
<speed>5.6</speed>
<course>311.6</course>
<desc>Speed 5.6 km/h Distance 7.47 km</desc>
<time>2010-03-03T17:18:59.34</time>
<name>4883</name>
</trkpt>
<trkpt lat="48.933553" lon="8.670130">
<ele>335.0</ele>
<speed>5.3</speed>
<course>302.3</course>
<desc>Speed 5.3 km/h Distance 7.47 km</desc>
<time>2010-03-03T17:19:00.34</time>
<name>4884</name>
</trkpt>
<trkpt lat="48.933562" lon="8.670110">
<ele>335.0</ele>
<speed>4.2</speed>
<course>309.4</course>
<desc>Speed 4.2 km/h Distance 7.48 km</desc>
<time>2010-03-03T17:19:01.35</time>
<name>4885</name>
</trkpt>
<trkpt lat="48.933573" lon="8.670088">
<ele>335.0</ele>
<speed>5.7</speed>
<course>323.4</course>
<desc>Speed 5.7 km/h Distance 7.48 km</desc>
<time>2010-03-03T17:19:02.35</time>
<name>4886</name>
</trkpt>
<trkpt lat="48.933587" lon="8.670073">
<ele>334.5</ele>
<speed>5.4</speed>
<course>323.0</course>
<desc>Speed 5.4 km/h Distance 7.48 km</desc>
<time>2010-03-03T17:19:03.35</time>
<name>4887</name>
</trkpt>
<trkpt lat="48.933598" lon="8.670060">
<ele>334.0</ele>
<speed>5.1</speed>
<course>316.9</course>
<desc>Speed 5.1 km/h Distance 7.48 km</desc>
<time>2010-03-03T17:19:04.34</time>
<name>4888</name>
</trkpt>
<trkpt lat="48.933610" lon="8.670043">
<ele>334.0</ele>
<speed>5.4</speed>
<course>326.8</course>
<desc>Speed 5.4 km/h Distance 7.48 km</desc>
<time>2010-03-03T17:19:05.35</time>
<name>4889</name>
</trkpt>
<trkpt lat="48.933623" lon="8.670030">
<ele>333.5</ele>
<speed>5.0</speed>
<course>295.7</course>
<desc>Speed 5.0 km/h Distance 7.49 km</desc>
<time>2010-03-03T17:19:06.35</time>
<name>4890</name>
</trkpt>
<trkpt lat="48.933633" lon="8.669998">
<ele>335.5</ele>
<speed>8.0</speed>
<course>309.7</course>
<desc>Speed 8.0 km/h Distance 7.49 km</desc>
<time>2010-03-03T17:19:07.34</time>
<name>4891</name>
</trkpt>
<trkpt lat="48.933643" lon="8.669980">
<ele>336.0</ele>
<speed>5.3</speed>
<course>314.1</course>
<desc>Speed 5.3 km/h Distance 7.49 km</desc>
<time>2010-03-03T17:19:08.34</time>
<name>4892</name>
</trkpt>
<trkpt lat="48.933655" lon="8.669962">
<ele>336.5</ele>
<speed>5.0</speed>
<course>309.7</course>
<desc>Speed 5.0 km/h Distance 7.49 km</desc>
<time>2010-03-03T17:19:09.34</time>
<name>4893</name>
</trkpt>
<trkpt lat="48.933665" lon="8.669943">
<ele>336.5</ele>
<speed>4.8</speed>
<course>326.6</course>
<desc>Speed 4.8 km/h Distance 7.49 km</desc>
<time>2010-03-03T17:19:10.34</time>
<name>4894</name>
</trkpt>
<trkpt lat="48.933678" lon="8.669930">
<ele>336.5</ele>
<speed>5.5</speed>
<course>312.4</course>
<desc>Speed 5.5 km/h Distance 7.50 km</desc>
<time>2010-03-03T17:19:11.35</time>
<name>4895</name>
</trkpt>
<trkpt lat="48.933688" lon="8.669913">
<ele>336.5</ele>
<speed>5.1</speed>
<course>314.1</course>
<desc>Speed 5.1 km/h Distance 7.50 km</desc>
<time>2010-03-03T17:19:12.34</time>
<name>4896</name>
</trkpt>
<trkpt lat="48.933700" lon="8.669895">
<ele>337.5</ele>
<speed>5.1</speed>
<course>323.1</course>
<desc>Speed 5.1 km/h Distance 7.50 km</desc>
<time>2010-03-03T17:19:13.33</time>
<name>4897</name>
</trkpt>
<trkpt lat="48.933712" lon="8.669882">
<ele>337.5</ele>
<speed>4.9</speed>
<course>315.5</course>
<desc>Speed 4.9 km/h Distance 7.50 km</desc>
<time>2010-03-03T17:19:14.33</time>
<name>4898</name>
</trkpt>
<trkpt lat="48.933722" lon="8.669867">
<ele>337.5</ele>
<speed>4.5</speed>
<course>310.2</course>
<desc>Speed 4.5 km/h Distance 7.50 km</desc>
<time>2010-03-03T17:19:15.33</time>
<name>4899</name>
</trkpt>
<trkpt lat="48.933730" lon="8.669852">
<ele>337.5</ele>
<speed>4.4</speed>
<course>305.0</course>
<desc>Speed 4.4 km/h Distance 7.50 km</desc>
<time>2010-03-03T17:19:16.34</time>
<name>4900</name>
</trkpt>
<trkpt lat="48.933740" lon="8.669830">
<ele>338.0</ele>
<speed>5.6</speed>
<course>314.1</course>
<desc>Speed 5.6 km/h Distance 7.51 km</desc>
<time>2010-03-03T17:19:17.34</time>
<name>4901</name>
</trkpt>
<trkpt lat="48.933752" lon="8.669812">
<ele>338.0</ele>
<speed>5.3</speed>
<course>323.1</course>
<desc>Speed 5.3 km/h Distance 7.51 km</desc>
<time>2010-03-03T17:19:18.34</time>
<name>4902</name>
</trkpt>
<trkpt lat="48.933763" lon="8.669798">
<ele>338.0</ele>
<speed>5.0</speed>
<course>309.6</course>
<desc>Speed 5.0 km/h Distance 7.51 km</desc>
<time>2010-03-03T17:19:19.33</time>
<name>4903</name>
</trkpt>
<trkpt lat="48.933773" lon="8.669780">
<ele>337.5</ele>
<speed>5.1</speed>
<course>319.8</course>
<desc>Speed 5.1 km/h Distance 7.51 km</desc>
<time>2010-03-03T17:19:20.33</time>
<name>4904</name>
</trkpt>
<trkpt lat="48.933785" lon="8.669765">
<ele>337.0</ele>
<speed>4.4</speed>
<course>318.0</course>
<desc>Speed 4.4 km/h Distance 7.51 km</desc>
<time>2010-03-03T17:19:21.33</time>
<name>4905</name>
</trkpt>
<trkpt lat="48.933798" lon="8.669747">
<ele>337.5</ele>
<speed>5.4</speed>
<course>287.8</course>
<desc>Speed 5.4 km/h Distance 7.51 km</desc>
<time>2010-03-03T17:19:22.33</time>
<name>4906</name>
</trkpt>
<trkpt lat="48.933805" lon="8.669715">
<ele>340.5</ele>
<speed>4.8</speed>
<course>322.5</course>
<desc>Speed 4.8 km/h Distance 7.52 km</desc>
<time>2010-03-03T17:19:23.33</time>
<name>4907</name>
</trkpt>
<trkpt lat="48.933815" lon="8.669703">
<ele>341.0</ele>
<speed>4.4</speed>
<course>330.2</course>
<desc>Speed 4.4 km/h Distance 7.52 km</desc>
<time>2010-03-03T17:19:24.33</time>
<name>4908</name>
</trkpt>
<trkpt lat="48.933828" lon="8.669692">
<ele>340.5</ele>
<speed>5.1</speed>
<course>326.7</course>
<desc>Speed 5.1 km/h Distance 7.52 km</desc>
<time>2010-03-03T17:19:25.33</time>
<name>4909</name>
</trkpt>
<trkpt lat="48.933840" lon="8.669680">
<ele>340.0</ele>
<speed>4.6</speed>
<course>326.6</course>
<desc>Speed 4.6 km/h Distance 7.52 km</desc>
<time>2010-03-03T17:19:26.33</time>
<name>4910</name>
</trkpt>
<trkpt lat="48.933853" lon="8.669667">
<ele>340.0</ele>
<speed>4.9</speed>
<course>315.4</course>
<desc>Speed 4.9 km/h Distance 7.52 km</desc>
<time>2010-03-03T17:19:27.33</time>
<name>4911</name>
</trkpt>
<trkpt lat="48.933863" lon="8.669652">
<ele>340.5</ele>
<speed>4.3</speed>
<course>289.4</course>
<desc>Speed 4.3 km/h Distance 7.52 km</desc>
<time>2010-03-03T17:19:28.34</time>
<name>4912</name>
</trkpt>
<trkpt lat="48.933868" lon="8.669630">
<ele>341.5</ele>
<speed>3.6</speed>
<course>304.7</course>
<desc>Speed 3.6 km/h Distance 7.53 km</desc>
<time>2010-03-03T17:19:29.33</time>
<name>4913</name>
</trkpt>
<trkpt lat="48.933877" lon="8.669612">
<ele>342.0</ele>
<speed>4.6</speed>
<course>288.1</course>
<desc>Speed 4.6 km/h Distance 7.53 km</desc>
<time>2010-03-03T17:19:30.33</time>
<name>4914</name>
</trkpt>
<trkpt lat="48.933882" lon="8.669588">
<ele>342.0</ele>
<speed>3.2</speed>
<course>289.7</course>
<desc>Speed 3.2 km/h Distance 7.53 km</desc>
<time>2010-03-03T17:19:31.33</time>
<name>4915</name>
</trkpt>
<trkpt lat="48.933888" lon="8.669560">
<ele>343.0</ele>
<speed>4.4</speed>
<course>304.7</course>
<desc>Speed 4.4 km/h Distance 7.53 km</desc>
<time>2010-03-03T17:19:32.33</time>
<name>4916</name>
</trkpt>
<trkpt lat="48.933897" lon="8.669542">
<ele>343.0</ele>
<speed>4.5</speed>
<course>309.4</course>
<desc>Speed 4.5 km/h Distance 7.53 km</desc>
<time>2010-03-03T17:19:33.32</time>
<name>4917</name>
</trkpt>
<trkpt lat="48.933908" lon="8.669520">
<ele>344.0</ele>
<speed>5.4</speed>
<course>319.6</course>
<desc>Speed 5.4 km/h Distance 7.54 km</desc>
<time>2010-03-03T17:19:34.32</time>
<name>4918</name>
</trkpt>
<trkpt lat="48.933925" lon="8.669498">
<ele>346.5</ele>
<speed>5.5</speed>
<course>309.3</course>
<desc>Speed 5.5 km/h Distance 7.54 km</desc>
<time>2010-03-03T17:19:35.32</time>
<name>4919</name>
</trkpt>
<trkpt lat="48.933937" lon="8.669477">
<ele>346.5</ele>
<speed>4.8</speed>
<course>305.4</course>
<desc>Speed 4.8 km/h Distance 7.54 km</desc>
<time>2010-03-03T17:19:36.32</time>
<name>4920</name>
</trkpt>
<trkpt lat="48.933948" lon="8.669452">
<ele>346.0</ele>
<speed>5.4</speed>
<course>296.9</course>
<desc>Speed 5.4 km/h Distance 7.54 km</desc>
<time>2010-03-03T17:19:37.32</time>
<name>4921</name>
</trkpt>
<trkpt lat="48.933957" lon="8.669427">
<ele>347.0</ele>
<speed>5.0</speed>
<course>303.1</course>
<desc>Speed 5.0 km/h Distance 7.54 km</desc>
<time>2010-03-03T17:19:38.32</time>
<name>4922</name>
</trkpt>
<trkpt lat="48.933972" lon="8.669392">
<ele>352.5</ele>
<speed>5.4</speed>
<course>307.3</course>
<desc>Speed 5.4 km/h Distance 7.55 km</desc>
<time>2010-03-03T17:19:39.32</time>
<name>4923</name>
</trkpt>
<trkpt lat="48.933982" lon="8.669372">
<ele>353.0</ele>
<speed>5.4</speed>
<course>309.4</course>
<desc>Speed 5.4 km/h Distance 7.55 km</desc>
<time>2010-03-03T17:19:40.33</time>
<name>4924</name>
</trkpt>
<trkpt lat="48.933993" lon="8.669350">
<ele>353.0</ele>
<speed>5.2</speed>
<course>326.6</course>
<desc>Speed 5.2 km/h Distance 7.55 km</desc>
<time>2010-03-03T17:19:41.33</time>
<name>4925</name>
</trkpt>
<trkpt lat="48.934005" lon="8.669338">
<ele>352.5</ele>
<speed>4.8</speed>
<course>317.9</course>
<desc>Speed 4.8 km/h Distance 7.55 km</desc>
<time>2010-03-03T17:19:42.32</time>
<name>4926</name>
</trkpt>
<trkpt lat="48.934018" lon="8.669320">
<ele>353.0</ele>
<speed>5.7</speed>
<course>315.4</course>
<desc>Speed 5.7 km/h Distance 7.56 km</desc>
<time>2010-03-03T17:19:43.32</time>
<name>4927</name>
</trkpt>
<trkpt lat="48.934028" lon="8.669305">
<ele>353.0</ele>
<speed>4.6</speed>
<course>323.4</course>
<desc>Speed 4.6 km/h Distance 7.56 km</desc>
<time>2010-03-03T17:19:44.32</time>
<name>4928</name>
</trkpt>
<trkpt lat="48.934042" lon="8.669290">
<ele>353.5</ele>
<speed>5.2</speed>
<course>307.3</course>
<desc>Speed 5.2 km/h Distance 7.56 km</desc>
<time>2010-03-03T17:19:45.32</time>
<name>4929</name>
</trkpt>
<trkpt lat="48.934052" lon="8.669270">
<ele>354.0</ele>
<speed>5.0</speed>
<course>312.4</course>
<desc>Speed 5.0 km/h Distance 7.56 km</desc>
<time>2010-03-03T17:19:46.32</time>
<name>4930</name>
</trkpt>
<trkpt lat="48.934062" lon="8.669253">
<ele>354.0</ele>
<speed>4.6</speed>
<course>315.5</course>
<desc>Speed 4.6 km/h Distance 7.56 km</desc>
<time>2010-03-03T17:19:47.32</time>
<name>4931</name>
</trkpt>
<trkpt lat="48.934075" lon="8.669233">
<ele>355.0</ele>
<speed>5.1</speed>
<course>352.5</course>
<desc>Speed 5.1 km/h Distance 7.56 km</desc>
<time>2010-03-03T17:19:48.32</time>
<name>4932</name>
</trkpt>
<trkpt lat="48.934090" lon="8.669230">
<ele>354.5</ele>
<speed>5.4</speed>
<course>336.3</course>
<desc>Speed 5.4 km/h Distance 7.57 km</desc>
<time>2010-03-03T17:19:49.32</time>
<name>4933</name>
</trkpt>
<trkpt lat="48.934105" lon="8.669220">
<ele>354.0</ele>
<speed>4.8</speed>
<course>351.2</course>
<desc>Speed 4.8 km/h Distance 7.57 km</desc>
<time>2010-03-03T17:19:50.32</time>
<name>4934</name>
</trkpt>
<trkpt lat="48.934120" lon="8.669217">
<ele>354.0</ele>
<speed>5.3</speed>
<course>3.8</course>
<desc>Speed 5.3 km/h Distance 7.57 km</desc>
<time>2010-03-03T17:19:51.32</time>
<name>4935</name>
</trkpt>
<trkpt lat="48.934135" lon="8.669218">
<ele>352.5</ele>
<speed>5.4</speed>
<course>348.3</course>
<desc>Speed 5.4 km/h Distance 7.57 km</desc>
<time>2010-03-03T17:19:52.32</time>
<name>4936</name>
</trkpt>
<trkpt lat="48.934150" lon="8.669213">
<ele>352.5</ele>
<speed>5.2</speed>
<course>356.2</course>
<desc>Speed 5.2 km/h Distance 7.57 km</desc>
<time>2010-03-03T17:19:53.32</time>
<name>4937</name>
</trkpt>
<trkpt lat="48.934165" lon="8.669212">
<ele>351.5</ele>
<speed>4.9</speed>
<course>292.9</course>
<desc>Speed 4.9 km/h Distance 7.57 km</desc>
<time>2010-03-03T17:19:54.33</time>
<name>4938</name>
</trkpt>
<trkpt lat="48.934173" lon="8.669182">
<ele>354.5</ele>
<speed>4.2</speed>
<course>6.5</course>
<desc>Speed 4.2 km/h Distance 7.58 km</desc>
<time>2010-03-03T17:19:55.31</time>
<name>4939</name>
</trkpt>
<trkpt lat="48.934190" lon="8.669185">
<ele>352.5</ele>
<speed>5.1</speed>
<course>357.2</course>
<desc>Speed 5.1 km/h Distance 7.58 km</desc>
<time>2010-03-03T17:19:56.31</time>
<name>4940</name>
</trkpt>
<trkpt lat="48.934207" lon="8.669183">
<ele>352.5</ele>
<speed>5.4</speed>
<course>352.3</course>
<desc>Speed 5.4 km/h Distance 7.58 km</desc>
<time>2010-03-03T17:19:57.32</time>
<name>4941</name>
</trkpt>
<trkpt lat="48.934223" lon="8.669180">
<ele>352.0</ele>
<speed>4.9</speed>
<course>347.4</course>
<desc>Speed 4.9 km/h Distance 7.58 km</desc>
<time>2010-03-03T17:19:58.32</time>
<name>4942</name>
</trkpt>
<trkpt lat="48.934233" lon="8.669177">
<ele>352.5</ele>
<speed>4.0</speed>
<course>2.2</course>
<desc>Speed 4.0 km/h Distance 7.58 km</desc>
<time>2010-03-03T17:19:59.32</time>
<name>4943</name>
</trkpt>
<trkpt lat="48.934245" lon="8.669177">
<ele>352.5</ele>
<speed>4.5</speed>
<course>331.4</course>
<desc>Speed 4.5 km/h Distance 7.58 km</desc>
<time>2010-03-03T17:20:00.31</time>
<name>4944</name>
</trkpt>
<trkpt lat="48.934255" lon="8.669168">
<ele>351.5</ele>
<speed>4.0</speed>
<course>9.0</course>
<desc>Speed 4.0 km/h Distance 7.59 km</desc>
<time>2010-03-03T17:20:01.31</time>
<name>4945</name>
</trkpt>
<trkpt lat="48.934268" lon="8.669172">
<ele>351.5</ele>
<speed>4.3</speed>
<course>2.2</course>
<desc>Speed 4.3 km/h Distance 7.59 km</desc>
<time>2010-03-03T17:20:02.31</time>
<name>4946</name>
</trkpt>
<trkpt lat="48.934280" lon="8.669172">
<ele>351.0</ele>
<speed>4.6</speed>
<course>352.5</course>
<desc>Speed 4.6 km/h Distance 7.59 km</desc>
<time>2010-03-03T17:20:03.31</time>
<name>4947</name>
</trkpt>
<trkpt lat="48.934295" lon="8.669168">
<ele>351.5</ele>
<speed>5.2</speed>
<course>304.7</course>
<desc>Speed 5.2 km/h Distance 7.59 km</desc>
<time>2010-03-03T17:20:04.31</time>
<name>4948</name>
</trkpt>
<trkpt lat="48.934303" lon="8.669150">
<ele>354.0</ele>
<speed>4.4</speed>
<course>2.8</course>
<desc>Speed 4.4 km/h Distance 7.59 km</desc>
<time>2010-03-03T17:20:05.31</time>
<name>4949</name>
</trkpt>
<trkpt lat="48.934320" lon="8.669152">
<ele>354.0</ele>
<speed>5.3</speed>
<course>1.2</course>
<desc>Speed 5.3 km/h Distance 7.59 km</desc>
<time>2010-03-03T17:20:06.31</time>
<name>4950</name>
</trkpt>
<trkpt lat="48.934333" lon="8.669152">
<ele>354.0</ele>
<speed>4.4</speed>
<course>1.2</course>
<desc>Speed 4.4 km/h Distance 7.60 km</desc>
<time>2010-03-03T17:20:07.31</time>
<name>4951</name>
</trkpt>
<trkpt lat="48.934347" lon="8.669152">
<ele>354.0</ele>
<speed>4.8</speed>
<course>0.0</course>
<desc>Speed 4.8 km/h Distance 7.60 km</desc>
<time>2010-03-03T17:20:08.31</time>
<name>4952</name>
</trkpt>
<trkpt lat="48.934362" lon="8.669152">
<ele>354.0</ele>
<speed>5.4</speed>
<course>344.0</course>
<desc>Speed 5.4 km/h Distance 7.60 km</desc>
<time>2010-03-03T17:20:09.31</time>
<name>4953</name>
</trkpt>
<trkpt lat="48.934373" lon="8.669147">
<ele>355.5</ele>
<speed>4.4</speed>
<course>20.6</course>
<desc>Speed 4.4 km/h Distance 7.60 km</desc>
<time>2010-03-03T17:20:10.30</time>
<name>4954</name>
</trkpt>
<trkpt lat="48.934385" lon="8.669153">
<ele>355.0</ele>
<speed>4.2</speed>
<course>7.5</course>
<desc>Speed 4.2 km/h Distance 7.60 km</desc>
<time>2010-03-03T17:20:11.31</time>
<name>4955</name>
</trkpt>
<trkpt lat="48.934400" lon="8.669157">
<ele>355.0</ele>
<speed>5.0</speed>
<course>9.0</course>
<desc>Speed 5.0 km/h Distance 7.60 km</desc>
<time>2010-03-03T17:20:12.30</time>
<name>4956</name>
</trkpt>
<trkpt lat="48.934413" lon="8.669160">
<ele>355.0</ele>
<speed>4.6</speed>
<course>3.9</course>
<desc>Speed 4.6 km/h Distance 7.60 km</desc>
<time>2010-03-03T17:20:13.30</time>
<name>4957</name>
</trkpt>
<trkpt lat="48.934427" lon="8.669162">
<ele>355.0</ele>
<speed>4.6</speed>
<course>8.8</course>
<desc>Speed 4.6 km/h Distance 7.61 km</desc>
<time>2010-03-03T17:20:14.30</time>
<name>4958</name>
</trkpt>
<trkpt lat="48.934442" lon="8.669165">
<ele>355.5</ele>
<speed>6.2</speed>
<course>11.2</course>
<desc>Speed 6.2 km/h Distance 7.61 km</desc>
<time>2010-03-03T17:20:15.30</time>
<name>4959</name>
</trkpt>
<trkpt lat="48.934458" lon="8.669170">
<ele>355.0</ele>
<speed>5.6</speed>
<course>29.4</course>
<desc>Speed 5.6 km/h Distance 7.61 km</desc>
<time>2010-03-03T17:20:16.30</time>
<name>4960</name>
</trkpt>
<trkpt lat="48.934470" lon="8.669180">
<ele>354.0</ele>
<speed>5.0</speed>
<course>13.5</course>
<desc>Speed 5.0 km/h Distance 7.61 km</desc>
<time>2010-03-03T17:20:17.30</time>
<name>4961</name>
</trkpt>
<trkpt lat="48.934483" lon="8.669185">
<ele>354.0</ele>
<speed>5.1</speed>
<course>0.0</course>
<desc>Speed 5.1 km/h Distance 7.61 km</desc>
<time>2010-03-03T17:20:18.31</time>
<name>4962</name>
</trkpt>
<trkpt lat="48.934492" lon="8.669185">
<ele>354.5</ele>
<speed>4.1</speed>
<course>13.5</course>
<desc>Speed 4.1 km/h Distance 7.61 km</desc>
<time>2010-03-03T17:20:19.30</time>
<name>4963</name>
</trkpt>
<trkpt lat="48.934505" lon="8.669190">
<ele>354.5</ele>
<speed>4.4</speed>
<course>339.9</course>
<desc>Speed 4.4 km/h Distance 7.62 km</desc>
<time>2010-03-03T17:20:20.30</time>
<name>4964</name>
</trkpt>
<trkpt lat="48.934513" lon="8.669185">
<ele>356.0</ele>
<speed>4.2</speed>
<course>8.1</course>
<desc>Speed 4.2 km/h Distance 7.62 km</desc>
<time>2010-03-03T17:20:21.30</time>
<name>4965</name>
</trkpt>
<trkpt lat="48.934528" lon="8.669188">
<ele>355.5</ele>
<speed>4.5</speed>
<course>13.5</course>
<desc>Speed 4.5 km/h Distance 7.62 km</desc>
<time>2010-03-03T17:20:22.30</time>
<name>4966</name>
</trkpt>
<trkpt lat="48.934542" lon="8.669193">
<ele>355.5</ele>
<speed>4.5</speed>
<course>23.4</course>
<desc>Speed 4.5 km/h Distance 7.62 km</desc>
<time>2010-03-03T17:20:23.30</time>
<name>4967</name>
</trkpt>
<trkpt lat="48.934552" lon="8.669200">
<ele>355.5</ele>
<speed>4.4</speed>
<course>14.9</course>
<desc>Speed 4.4 km/h Distance 7.62 km</desc>
<time>2010-03-03T17:20:24.30</time>
<name>4968</name>
</trkpt>
<trkpt lat="48.934563" lon="8.669205">
<ele>355.0</ele>
<speed>3.7</speed>
<course>18.8</course>
<desc>Speed 3.7 km/h Distance 7.62 km</desc>
<time>2010-03-03T17:20:25.30</time>
<name>4969</name>
</trkpt>
<trkpt lat="48.934570" lon="8.669208">
<ele>354.5</ele>
<speed>2.8</speed>
<course>17.5</course>
<desc>Speed 2.8 km/h Distance 7.62 km</desc>
<time>2010-03-03T17:20:26.30</time>
<name>4970</name>
</trkpt>
<trkpt lat="48.934577" lon="8.669212">
<ele>354.0</ele>
<speed>3.0</speed>
<course>13.8</course>
<desc>Speed 3.0 km/h Distance 7.62 km</desc>
<time>2010-03-03T17:20:27.30</time>
<name>4971</name>
</trkpt>
<trkpt lat="48.934585" lon="8.669215">
<ele>354.5</ele>
<speed>4.0</speed>
<course>17.6</course>
<desc>Speed 4.0 km/h Distance 7.62 km</desc>
<time>2010-03-03T17:20:28.30</time>
<name>4972</name>
</trkpt>
<trkpt lat="48.934595" lon="8.669220">
<ele>355.0</ele>
<speed>4.0</speed>
<course>0.0</course>
<desc>Speed 4.0 km/h Distance 7.63 km</desc>
<time>2010-03-03T17:20:29.29</time>
<name>4973</name>
</trkpt>
<trkpt lat="48.934602" lon="8.669220">
<ele>355.0</ele>
<speed>3.0</speed>
<course>27.9</course>
<desc>Speed 3.0 km/h Distance 7.63 km</desc>
<time>2010-03-03T17:20:30.29</time>
<name>4974</name>
</trkpt>
<trkpt lat="48.934610" lon="8.669227">
<ele>355.0</ele>
<speed>3.6</speed>
<course>28.3</course>
<desc>Speed 3.6 km/h Distance 7.63 km</desc>
<time>2010-03-03T17:20:31.29</time>
<name>4975</name>
</trkpt>
<trkpt lat="48.934618" lon="8.669233">
<ele>354.5</ele>
<speed>3.8</speed>
<course>23.8</course>
<desc>Speed 3.8 km/h Distance 7.63 km</desc>
<time>2010-03-03T17:20:32.30</time>
<name>4976</name>
</trkpt>
<trkpt lat="48.934628" lon="8.669240">
<ele>354.0</ele>
<speed>3.4</speed>
<course>18.2</course>
<desc>Speed 3.4 km/h Distance 7.63 km</desc>
<time>2010-03-03T17:20:33.30</time>
<name>4977</name>
</trkpt>
<trkpt lat="48.934638" lon="8.669245">
<ele>354.0</ele>
<speed>4.1</speed>
<course>21.5</course>
<desc>Speed 4.1 km/h Distance 7.63 km</desc>
<time>2010-03-03T17:20:34.29</time>
<name>4978</name>
</trkpt>
<trkpt lat="48.934647" lon="8.669250">
<ele>354.5</ele>
<speed>3.2</speed>
<course>25.2</course>
<desc>Speed 3.2 km/h Distance 7.63 km</desc>
<time>2010-03-03T17:20:35.29</time>
<name>4979</name>
</trkpt>
<trkpt lat="48.934658" lon="8.669258">
<ele>354.5</ele>
<speed>4.3</speed>
<course>12.6</course>
<desc>Speed 4.3 km/h Distance 7.63 km</desc>
<time>2010-03-03T17:20:36.30</time>
<name>4980</name>
</trkpt>
<trkpt lat="48.934668" lon="8.669262">
<ele>355.0</ele>
<speed>4.0</speed>
<course>12.6</course>
<desc>Speed 4.0 km/h Distance 7.63 km</desc>
<time>2010-03-03T17:20:37.30</time>
<name>4981</name>
</trkpt>
<trkpt lat="48.934678" lon="8.669265">
<ele>355.0</ele>
<speed>3.6</speed>
<course>27.9</course>
<desc>Speed 3.6 km/h Distance 7.64 km</desc>
<time>2010-03-03T17:20:38.30</time>
<name>4982</name>
</trkpt>
<trkpt lat="48.934687" lon="8.669272">
<ele>354.5</ele>
<speed>3.6</speed>
<course>33.2</course>
<desc>Speed 3.6 km/h Distance 7.64 km</desc>
<time>2010-03-03T17:20:39.30</time>
<name>4983</name>
</trkpt>
<trkpt lat="48.934695" lon="8.669280">
<ele>354.0</ele>
<speed>3.0</speed>
<course>4.7</course>
<desc>Speed 3.0 km/h Distance 7.64 km</desc>
<time>2010-03-03T17:20:40.29</time>
<name>4984</name>
</trkpt>
<trkpt lat="48.934707" lon="8.669282">
<ele>355.5</ele>
<speed>4.5</speed>
<course>4.7</course>
<desc>Speed 4.5 km/h Distance 7.64 km</desc>
<time>2010-03-03T17:20:41.29</time>
<name>4985</name>
</trkpt>
<trkpt lat="48.934718" lon="8.669283">
<ele>356.5</ele>
<speed>4.1</speed>
<course>10.8</course>
<desc>Speed 4.1 km/h Distance 7.64 km</desc>
<time>2010-03-03T17:20:42.29</time>
<name>4986</name>
</trkpt>
<trkpt lat="48.934735" lon="8.669288">
<ele>357.0</ele>
<speed>4.6</speed>
<course>33.2</course>
<desc>Speed 4.6 km/h Distance 7.64 km</desc>
<time>2010-03-03T17:20:43.29</time>
<name>4987</name>
</trkpt>
<trkpt lat="48.934745" lon="8.669298">
<ele>356.5</ele>
<speed>3.9</speed>
<course>18.1</course>
<desc>Speed 3.9 km/h Distance 7.64 km</desc>
<time>2010-03-03T17:20:44.29</time>
<name>4988</name>
</trkpt>
<trkpt lat="48.934758" lon="8.669305">
<ele>356.0</ele>
<speed>4.0</speed>
<course>20.6</course>
<desc>Speed 4.0 km/h Distance 7.65 km</desc>
<time>2010-03-03T17:20:45.29</time>
<name>4989</name>
</trkpt>
<trkpt lat="48.934770" lon="8.669312">
<ele>356.0</ele>
<speed>4.0</speed>
<course>12.6</course>
<desc>Speed 4.0 km/h Distance 7.65 km</desc>
<time>2010-03-03T17:20:46.29</time>
<name>4990</name>
</trkpt>
<trkpt lat="48.934780" lon="8.669315">
<ele>356.0</ele>
<speed>3.3</speed>
<course>18.2</course>
<desc>Speed 3.3 km/h Distance 7.65 km</desc>
<time>2010-03-03T17:20:47.29</time>
<name>4991</name>
</trkpt>
<trkpt lat="48.934790" lon="8.669320">
<ele>356.0</ele>
<speed>3.9</speed>
<course>20.9</course>
<desc>Speed 3.9 km/h Distance 7.65 km</desc>
<time>2010-03-03T17:20:48.29</time>
<name>4992</name>
</trkpt>
<trkpt lat="48.934802" lon="8.669327">
<ele>356.0</ele>
<speed>3.7</speed>
<course>23.8</course>
<desc>Speed 3.7 km/h Distance 7.65 km</desc>
<time>2010-03-03T17:20:49.29</time>
<name>4993</name>
</trkpt>
<trkpt lat="48.934812" lon="8.669333">
<ele>356.0</ele>
<speed>3.6</speed>
<course>20.9</course>
<desc>Speed 3.6 km/h Distance 7.65 km</desc>
<time>2010-03-03T17:20:50.29</time>
<name>4994</name>
</trkpt>
<trkpt lat="48.934823" lon="8.669340">
<ele>356.0</ele>
<speed>4.4</speed>
<course>27.9</course>
<desc>Speed 4.4 km/h Distance 7.65 km</desc>
<time>2010-03-03T17:20:51.29</time>
<name>4995</name>
</trkpt>
<trkpt lat="48.934832" lon="8.669347">
<ele>355.5</ele>
<speed>3.4</speed>
<course>14.9</course>
<desc>Speed 3.4 km/h Distance 7.65 km</desc>
<time>2010-03-03T17:20:52.29</time>
<name>4996</name>
</trkpt>
<trkpt lat="48.934840" lon="8.669350">
<ele>356.0</ele>
<speed>3.2</speed>
<course>18.2</course>
<desc>Speed 3.2 km/h Distance 7.65 km</desc>
<time>2010-03-03T17:20:53.29</time>
<name>4997</name>
</trkpt>
<trkpt lat="48.934850" lon="8.669355">
<ele>356.0</ele>
<speed>3.7</speed>
<course>14.9</course>
<desc>Speed 3.7 km/h Distance 7.66 km</desc>
<time>2010-03-03T17:20:54.29</time>
<name>4998</name>
</trkpt>
<trkpt lat="48.934858" lon="8.669358">
<ele>356.5</ele>
<speed>3.6</speed>
<course>17.6</course>
<desc>Speed 3.6 km/h Distance 7.66 km</desc>
<time>2010-03-03T17:20:55.29</time>
<name>4999</name>
</trkpt>
<trkpt lat="48.934868" lon="8.669363">
<ele>356.5</ele>
<speed>3.8</speed>
<course>26.4</course>
<desc>Speed 3.8 km/h Distance 7.66 km</desc>
<time>2010-03-03T17:20:56.29</time>
<name>5000</name>
</trkpt>
<trkpt lat="48.934875" lon="8.669368">
<ele>355.5</ele>
<speed>3.0</speed>
<course>12.2</course>
<desc>Speed 3.0 km/h Distance 7.66 km</desc>
<time>2010-03-03T17:20:57.29</time>
<name>5001</name>
</trkpt>
<trkpt lat="48.934890" lon="8.669373">
<ele>355.0</ele>
<speed>3.6</speed>
<course>21.5</course>
<desc>Speed 3.6 km/h Distance 7.66 km</desc>
<time>2010-03-03T17:20:58.29</time>
<name>5002</name>
</trkpt>
<trkpt lat="48.934898" lon="8.669378">
<ele>354.5</ele>
<speed>3.7</speed>
<course>20.2</course>
<desc>Speed 3.7 km/h Distance 7.66 km</desc>
<time>2010-03-03T17:20:59.28</time>
<name>5003</name>
</trkpt>
<trkpt lat="48.934910" lon="8.669385">
<ele>354.5</ele>
<speed>4.3</speed>
<course>9.5</course>
<desc>Speed 4.3 km/h Distance 7.66 km</desc>
<time>2010-03-03T17:21:00.28</time>
<name>5004</name>
</trkpt>
<trkpt lat="48.934922" lon="8.669388">
<ele>354.5</ele>
<speed>4.5</speed>
<course>16.0</course>
<desc>Speed 4.5 km/h Distance 7.66 km</desc>
<time>2010-03-03T17:21:01.28</time>
<name>5005</name>
</trkpt>
<trkpt lat="48.934933" lon="8.669393">
<ele>354.0</ele>
<speed>4.1</speed>
<course>9.0</course>
<desc>Speed 4.1 km/h Distance 7.67 km</desc>
<time>2010-03-03T17:21:02.28</time>
<name>5006</name>
</trkpt>
<trkpt lat="48.934947" lon="8.669397">
<ele>354.0</ele>
<speed>4.0</speed>
<course>20.1</course>
<desc>Speed 4.0 km/h Distance 7.67 km</desc>
<time>2010-03-03T17:21:03.28</time>
<name>5007</name>
</trkpt>
<trkpt lat="48.934962" lon="8.669405">
<ele>353.0</ele>
<speed>4.8</speed>
<course>13.5</course>
<desc>Speed 4.8 km/h Distance 7.67 km</desc>
<time>2010-03-03T17:21:04.28</time>
<name>5008</name>
</trkpt>
<trkpt lat="48.934975" lon="8.669410">
<ele>352.5</ele>
<speed>4.4</speed>
<course>28.6</course>
<desc>Speed 4.4 km/h Distance 7.67 km</desc>
<time>2010-03-03T17:21:05.28</time>
<name>5009</name>
</trkpt>
<trkpt lat="48.934985" lon="8.669418">
<ele>352.5</ele>
<speed>3.9</speed>
<course>25.2</course>
<desc>Speed 3.9 km/h Distance 7.67 km</desc>
<time>2010-03-03T17:21:06.28</time>
<name>5010</name>
</trkpt>
<trkpt lat="48.934997" lon="8.669427">
<ele>351.5</ele>
<speed>3.6</speed>
<course>24.7</course>
<desc>Speed 3.6 km/h Distance 7.67 km</desc>
<time>2010-03-03T17:21:07.28</time>
<name>5011</name>
</trkpt>
<trkpt lat="48.935013" lon="8.669438">
<ele>351.5</ele>
<speed>5.9</speed>
<course>2.8</course>
<desc>Speed 5.9 km/h Distance 7.68 km</desc>
<time>2010-03-03T17:21:08.28</time>
<name>5012</name>
</trkpt>
<trkpt lat="48.935030" lon="8.669440">
<ele>351.5</ele>
<speed>3.9</speed>
<course>14.9</course>
<desc>Speed 3.9 km/h Distance 7.68 km</desc>
<time>2010-03-03T17:21:09.28</time>
<name>5013</name>
</trkpt>
<trkpt lat="48.935047" lon="8.669447">
<ele>351.0</ele>
<speed>4.4</speed>
<course>16.0</course>
<desc>Speed 4.4 km/h Distance 7.68 km</desc>
<time>2010-03-03T17:21:10.28</time>
<name>5014</name>
</trkpt>
<trkpt lat="48.935058" lon="8.669452">
<ele>350.5</ele>
<speed>4.1</speed>
<course>19.9</course>
<desc>Speed 4.1 km/h Distance 7.68 km</desc>
<time>2010-03-03T17:21:11.28</time>
<name>5015</name>
</trkpt>
<trkpt lat="48.935073" lon="8.669460">
<ele>350.0</ele>
<speed>4.5</speed>
<course>10.2</course>
<desc>Speed 4.5 km/h Distance 7.68 km</desc>
<time>2010-03-03T17:21:12.28</time>
<name>5016</name>
</trkpt>
<trkpt lat="48.935092" lon="8.669465">
<ele>349.5</ele>
<speed>5.5</speed>
<course>24.7</course>
<desc>Speed 5.5 km/h Distance 7.68 km</desc>
<time>2010-03-03T17:21:13.28</time>
<name>5017</name>
</trkpt>
<trkpt lat="48.935108" lon="8.669477">
<ele>349.5</ele>
<speed>4.8</speed>
<course>20.1</course>
<desc>Speed 4.8 km/h Distance 7.69 km</desc>
<time>2010-03-03T17:21:14.27</time>
<name>5018</name>
</trkpt>
<trkpt lat="48.935123" lon="8.669485">
<ele>348.5</ele>
<speed>3.3</speed>
<course>27.9</course>
<desc>Speed 3.3 km/h Distance 7.69 km</desc>
<time>2010-03-03T17:21:15.28</time>
<name>5019</name>
</trkpt>
<trkpt lat="48.935132" lon="8.669492">
<ele>348.5</ele>
<speed>3.0</speed>
<course>13.5</course>
<desc>Speed 3.0 km/h Distance 7.69 km</desc>
<time>2010-03-03T17:21:16.28</time>
<name>5020</name>
</trkpt>
<trkpt lat="48.935145" lon="8.669497">
<ele>348.5</ele>
<speed>3.7</speed>
<course>25.2</course>
<desc>Speed 3.7 km/h Distance 7.69 km</desc>
<time>2010-03-03T17:21:17.27</time>
<name>5021</name>
</trkpt>
<trkpt lat="48.935157" lon="8.669505">
<ele>348.0</ele>
<speed>3.7</speed>
<course>22.1</course>
<desc>Speed 3.7 km/h Distance 7.69 km</desc>
<time>2010-03-03T17:21:18.27</time>
<name>5022</name>
</trkpt>
<trkpt lat="48.935170" lon="8.669513">
<ele>347.5</ele>
<speed>4.4</speed>
<course>19.6</course>
<desc>Speed 4.4 km/h Distance 7.69 km</desc>
<time>2010-03-03T17:21:19.27</time>
<name>5023</name>
</trkpt>
<trkpt lat="48.935185" lon="8.669522">
<ele>347.5</ele>
<speed>4.8</speed>
<course>26.0</course>
<desc>Speed 4.8 km/h Distance 7.70 km</desc>
<time>2010-03-03T17:21:20.27</time>
<name>5024</name>
</trkpt>
<trkpt lat="48.935198" lon="8.669532">
<ele>347.5</ele>
<speed>4.7</speed>
<course>27.0</course>
<desc>Speed 4.7 km/h Distance 7.70 km</desc>
<time>2010-03-03T17:21:21.27</time>
<name>5025</name>
</trkpt>
<trkpt lat="48.935213" lon="8.669543">
<ele>347.0</ele>
<speed>4.3</speed>
<course>13.6</course>
<desc>Speed 4.3 km/h Distance 7.70 km</desc>
<time>2010-03-03T17:21:22.26</time>
<name>5026</name>
</trkpt>
<trkpt lat="48.935232" lon="8.669550">
<ele>347.0</ele>
<speed>4.6</speed>
<course>20.9</course>
<desc>Speed 4.6 km/h Distance 7.70 km</desc>
<time>2010-03-03T17:21:23.27</time>
<name>5027</name>
</trkpt>
<trkpt lat="48.935252" lon="8.669562">
<ele>347.5</ele>
<speed>4.8</speed>
<course>13.5</course>
<desc>Speed 4.8 km/h Distance 7.70 km</desc>
<time>2010-03-03T17:21:24.27</time>
<name>5028</name>
</trkpt>
<trkpt lat="48.935265" lon="8.669567">
<ele>347.5</ele>
<speed>4.3</speed>
<course>23.7</course>
<desc>Speed 4.3 km/h Distance 7.71 km</desc>
<time>2010-03-03T17:21:25.27</time>
<name>5029</name>
</trkpt>
<trkpt lat="48.935280" lon="8.669577">
<ele>347.5</ele>
<speed>5.3</speed>
<course>21.5</course>
<desc>Speed 5.3 km/h Distance 7.71 km</desc>
<time>2010-03-03T17:21:26.27</time>
<name>5030</name>
</trkpt>
<trkpt lat="48.935297" lon="8.669587">
<ele>348.0</ele>
<speed>5.1</speed>
<course>23.7</course>
<desc>Speed 5.1 km/h Distance 7.71 km</desc>
<time>2010-03-03T17:21:27.27</time>
<name>5031</name>
</trkpt>
<trkpt lat="48.935317" lon="8.669600">
<ele>349.5</ele>
<speed>5.1</speed>
<course>33.3</course>
<desc>Speed 5.1 km/h Distance 7.71 km</desc>
<time>2010-03-03T17:21:28.27</time>
<name>5032</name>
</trkpt>
<trkpt lat="48.935333" lon="8.669617">
<ele>350.5</ele>
<speed>5.0</speed>
<course>26.2</course>
<desc>Speed 5.0 km/h Distance 7.71 km</desc>
<time>2010-03-03T17:21:29.27</time>
<name>5033</name>
</trkpt>
<trkpt lat="48.935347" lon="8.669627">
<ele>350.0</ele>
<speed>5.1</speed>
<course>16.6</course>
<desc>Speed 5.1 km/h Distance 7.72 km</desc>
<time>2010-03-03T17:21:30.26</time>
<name>5034</name>
</trkpt>
<trkpt lat="48.935362" lon="8.669633">
<ele>349.5</ele>
<speed>4.9</speed>
<course>20.1</course>
<desc>Speed 4.9 km/h Distance 7.72 km</desc>
<time>2010-03-03T17:21:31.26</time>
<name>5035</name>
</trkpt>
<trkpt lat="48.935377" lon="8.669642">
<ele>349.0</ele>
<speed>4.5</speed>
<course>8.8</course>
<desc>Speed 4.5 km/h Distance 7.72 km</desc>
<time>2010-03-03T17:21:32.27</time>
<name>5036</name>
</trkpt>
<trkpt lat="48.935392" lon="8.669645">
<ele>348.5</ele>
<speed>5.1</speed>
<course>18.1</course>
<desc>Speed 5.1 km/h Distance 7.72 km</desc>
<time>2010-03-03T17:21:33.26</time>
<name>5037</name>
</trkpt>
<trkpt lat="48.935408" lon="8.669653">
<ele>349.0</ele>
<speed>4.9</speed>
<course>26.4</course>
<desc>Speed 4.9 km/h Distance 7.72 km</desc>
<time>2010-03-03T17:21:34.26</time>
<name>5038</name>
</trkpt>
<trkpt lat="48.935422" lon="8.669663">
<ele>348.5</ele>
<speed>5.0</speed>
<course>9.0</course>
<desc>Speed 5.0 km/h Distance 7.72 km</desc>
<time>2010-03-03T17:21:35.27</time>
<name>5039</name>
</trkpt>
<trkpt lat="48.935435" lon="8.669667">
<ele>348.5</ele>
<speed>3.9</speed>
<course>11.2</course>
<desc>Speed 3.9 km/h Distance 7.73 km</desc>
<time>2010-03-03T17:21:36.26</time>
<name>5040</name>
</trkpt>
<trkpt lat="48.935452" lon="8.669672">
<ele>348.0</ele>
<speed>4.6</speed>
<course>25.2</course>
<desc>Speed 4.6 km/h Distance 7.73 km</desc>
<time>2010-03-03T17:21:37.26</time>
<name>5041</name>
</trkpt>
<trkpt lat="48.935463" lon="8.669680">
<ele>348.5</ele>
<speed>4.7</speed>
<course>11.2</course>
<desc>Speed 4.7 km/h Distance 7.73 km</desc>
<time>2010-03-03T17:21:38.26</time>
<name>5042</name>
</trkpt>
<trkpt lat="48.935480" lon="8.669685">
<ele>348.5</ele>
<speed>5.6</speed>
<course>18.1</course>
<desc>Speed 5.6 km/h Distance 7.73 km</desc>
<time>2010-03-03T17:21:39.26</time>
<name>5043</name>
</trkpt>
<trkpt lat="48.935493" lon="8.669692">
<ele>348.5</ele>
<speed>4.7</speed>
<course>23.4</course>
<desc>Speed 4.7 km/h Distance 7.73 km</desc>
<time>2010-03-03T17:21:40.26</time>
<name>5044</name>
</trkpt>
<trkpt lat="48.935503" lon="8.669698">
<ele>348.0</ele>
<speed>3.7</speed>
<course>20.1</course>
<desc>Speed 3.7 km/h Distance 7.73 km</desc>
<time>2010-03-03T17:21:41.26</time>
<name>5045</name>
</trkpt>
<trkpt lat="48.935518" lon="8.669707">
<ele>347.5</ele>
<speed>4.6</speed>
<course>24.9</course>
<desc>Speed 4.6 km/h Distance 7.74 km</desc>
<time>2010-03-03T17:21:42.25</time>
<name>5046</name>
</trkpt>
<trkpt lat="48.935530" lon="8.669715">
<ele>348.0</ele>
<speed>4.4</speed>
<course>13.3</course>
<desc>Speed 4.4 km/h Distance 7.74 km</desc>
<time>2010-03-03T17:21:43.25</time>
<name>5047</name>
</trkpt>
<trkpt lat="48.935548" lon="8.669722">
<ele>348.0</ele>
<speed>5.0</speed>
<course>14.9</course>
<desc>Speed 5.0 km/h Distance 7.74 km</desc>
<time>2010-03-03T17:21:44.25</time>
<name>5048</name>
</trkpt>
<trkpt lat="48.935565" lon="8.669728">
<ele>348.0</ele>
<speed>5.0</speed>
<course>18.2</course>
<desc>Speed 5.0 km/h Distance 7.74 km</desc>
<time>2010-03-03T17:21:45.25</time>
<name>5049</name>
</trkpt>
<trkpt lat="48.935585" lon="8.669738">
<ele>349.0</ele>
<speed>5.2</speed>
<course>16.6</course>
<desc>Speed 5.2 km/h Distance 7.74 km</desc>
<time>2010-03-03T17:21:46.25</time>
<name>5050</name>
</trkpt>
<trkpt lat="48.935603" lon="8.669747">
<ele>348.5</ele>
<speed>5.4</speed>
<course>13.6</course>
<desc>Speed 5.4 km/h Distance 7.75 km</desc>
<time>2010-03-03T17:21:47.25</time>
<name>5051</name>
</trkpt>
<trkpt lat="48.935622" lon="8.669753">
<ele>348.5</ele>
<speed>4.9</speed>
<course>15.3</course>
<desc>Speed 4.9 km/h Distance 7.75 km</desc>
<time>2010-03-03T17:21:48.25</time>
<name>5052</name>
</trkpt>
<trkpt lat="48.935642" lon="8.669762">
<ele>348.0</ele>
<speed>5.1</speed>
<course>20.1</course>
<desc>Speed 5.1 km/h Distance 7.75 km</desc>
<time>2010-03-03T17:21:49.25</time>
<name>5053</name>
</trkpt>
<trkpt lat="48.935657" lon="8.669770">
<ele>347.5</ele>
<speed>5.1</speed>
<course>14.9</course>
<desc>Speed 5.1 km/h Distance 7.75 km</desc>
<time>2010-03-03T17:21:50.25</time>
<name>5054</name>
</trkpt>
<trkpt lat="48.935673" lon="8.669777">
<ele>349.0</ele>
<speed>4.6</speed>
<course>29.4</course>
<desc>Speed 4.6 km/h Distance 7.75 km</desc>
<time>2010-03-03T17:21:51.25</time>
<name>5055</name>
</trkpt>
<trkpt lat="48.935685" lon="8.669787">
<ele>348.0</ele>
<speed>4.7</speed>
<course>15.5</course>
<desc>Speed 4.7 km/h Distance 7.75 km</desc>
<time>2010-03-03T17:21:52.25</time>
<name>5056</name>
</trkpt>
<trkpt lat="48.935697" lon="8.669792">
<ele>348.0</ele>
<speed>4.0</speed>
<course>14.9</course>
<desc>Speed 4.0 km/h Distance 7.76 km</desc>
<time>2010-03-03T17:21:53.25</time>
<name>5057</name>
</trkpt>
<trkpt lat="48.935713" lon="8.669798">
<ele>348.0</ele>
<speed>5.1</speed>
<course>23.8</course>
<desc>Speed 5.1 km/h Distance 7.76 km</desc>
<time>2010-03-03T17:21:54.25</time>
<name>5058</name>
</trkpt>
<trkpt lat="48.935723" lon="8.669805">
<ele>348.0</ele>
<speed>4.4</speed>
<course>20.6</course>
<desc>Speed 4.4 km/h Distance 7.76 km</desc>
<time>2010-03-03T17:21:55.25</time>
<name>5059</name>
</trkpt>
<trkpt lat="48.935735" lon="8.669812">
<ele>348.0</ele>
<speed>4.0</speed>
<course>20.2</course>
<desc>Speed 4.0 km/h Distance 7.76 km</desc>
<time>2010-03-03T17:21:56.25</time>
<name>5060</name>
</trkpt>
<trkpt lat="48.935747" lon="8.669818">
<ele>347.5</ele>
<speed>4.1</speed>
<course>22.1</course>
<desc>Speed 4.1 km/h Distance 7.76 km</desc>
<time>2010-03-03T17:21:57.25</time>
<name>5061</name>
</trkpt>
<trkpt lat="48.935760" lon="8.669827">
<ele>346.0</ele>
<speed>4.9</speed>
<course>12.6</course>
<desc>Speed 4.9 km/h Distance 7.76 km</desc>
<time>2010-03-03T17:21:58.26</time>
<name>5062</name>
</trkpt>
<trkpt lat="48.935775" lon="8.669832">
<ele>345.5</ele>
<speed>4.7</speed>
<course>16.3</course>
<desc>Speed 4.7 km/h Distance 7.77 km</desc>
<time>2010-03-03T17:21:59.26</time>
<name>5063</name>
</trkpt>
<trkpt lat="48.935790" lon="8.669838">
<ele>346.5</ele>
<speed>4.2</speed>
<course>21.5</course>
<desc>Speed 4.2 km/h Distance 7.77 km</desc>
<time>2010-03-03T17:22:00.25</time>
<name>5064</name>
</trkpt>
<trkpt lat="48.935807" lon="8.669848">
<ele>347.0</ele>
<speed>4.2</speed>
<course>22.7</course>
<desc>Speed 4.2 km/h Distance 7.77 km</desc>
<time>2010-03-03T17:22:01.25</time>
<name>5065</name>
</trkpt>
<trkpt lat="48.935825" lon="8.669860">
<ele>348.0</ele>
<speed>4.6</speed>
<course>26.3</course>
<desc>Speed 4.6 km/h Distance 7.77 km</desc>
<time>2010-03-03T17:22:02.25</time>
<name>5066</name>
</trkpt>
<trkpt lat="48.935845" lon="8.669875">
<ele>349.5</ele>
<speed>5.1</speed>
<course>12.6</course>
<desc>Speed 5.1 km/h Distance 7.77 km</desc>
<time>2010-03-03T17:22:03.24</time>
<name>5067</name>
</trkpt>
<trkpt lat="48.935860" lon="8.669880">
<ele>349.0</ele>
<speed>4.9</speed>
<course>22.6</course>
<desc>Speed 4.9 km/h Distance 7.78 km</desc>
<time>2010-03-03T17:22:04.24</time>
<name>5068</name>
</trkpt>
<trkpt lat="48.935873" lon="8.669888">
<ele>349.0</ele>
<speed>5.0</speed>
<course>20.3</course>
<desc>Speed 5.0 km/h Distance 7.78 km</desc>
<time>2010-03-03T17:22:05.25</time>
<name>5069</name>
</trkpt>
<trkpt lat="48.935888" lon="8.669897">
<ele>350.0</ele>
<speed>4.9</speed>
<course>12.6</course>
<desc>Speed 4.9 km/h Distance 7.78 km</desc>
<time>2010-03-03T17:22:06.25</time>
<name>5070</name>
</trkpt>
<trkpt lat="48.935908" lon="8.669903">
<ele>350.5</ele>
<speed>5.3</speed>
<course>13.5</course>
<desc>Speed 5.3 km/h Distance 7.78 km</desc>
<time>2010-03-03T17:22:07.24</time>
<name>5071</name>
</trkpt>
<trkpt lat="48.935922" lon="8.669908">
<ele>350.5</ele>
<speed>4.2</speed>
<course>14.6</course>
<desc>Speed 4.2 km/h Distance 7.78 km</desc>
<time>2010-03-03T17:22:08.25</time>
<name>5072</name>
</trkpt>
<trkpt lat="48.935938" lon="8.669915">
<ele>350.0</ele>
<speed>5.4</speed>
<course>16.6</course>
<desc>Speed 5.4 km/h Distance 7.78 km</desc>
<time>2010-03-03T17:22:09.25</time>
<name>5073</name>
</trkpt>
<trkpt lat="48.935953" lon="8.669922">
<ele>350.5</ele>
<speed>4.8</speed>
<course>16.6</course>
<desc>Speed 4.8 km/h Distance 7.79 km</desc>
<time>2010-03-03T17:22:10.25</time>
<name>5074</name>
</trkpt>
<trkpt lat="48.935968" lon="8.669928">
<ele>350.5</ele>
<speed>5.1</speed>
<course>19.9</course>
<desc>Speed 5.1 km/h Distance 7.79 km</desc>
<time>2010-03-03T17:22:11.25</time>
<name>5075</name>
</trkpt>
<trkpt lat="48.935983" lon="8.669937">
<ele>351.0</ele>
<speed>4.2</speed>
<course>21.5</course>
<desc>Speed 4.2 km/h Distance 7.79 km</desc>
<time>2010-03-03T17:22:12.24</time>
<name>5076</name>
</trkpt>
<trkpt lat="48.936000" lon="8.669947">
<ele>351.5</ele>
<speed>4.5</speed>
<course>18.1</course>
<desc>Speed 4.5 km/h Distance 7.79 km</desc>
<time>2010-03-03T17:22:13.24</time>
<name>5077</name>
</trkpt>
<trkpt lat="48.936017" lon="8.669955">
<ele>351.0</ele>
<speed>5.4</speed>
<course>19.7</course>
<desc>Speed 5.4 km/h Distance 7.79 km</desc>
<time>2010-03-03T17:22:14.24</time>
<name>5078</name>
</trkpt>
<trkpt lat="48.936035" lon="8.669965">
<ele>350.5</ele>
<speed>4.8</speed>
<course>16.6</course>
<desc>Speed 4.8 km/h Distance 7.80 km</desc>
<time>2010-03-03T17:22:15.24</time>
<name>5079</name>
</trkpt>
<trkpt lat="48.936053" lon="8.669973">
<ele>349.5</ele>
<speed>4.6</speed>
<course>7.7</course>
<desc>Speed 4.6 km/h Distance 7.80 km</desc>
<time>2010-03-03T17:22:16.24</time>
<name>5080</name>
</trkpt>
<trkpt lat="48.936070" lon="8.669977">
<ele>348.5</ele>
<speed>4.0</speed>
<course>10.2</course>
<desc>Speed 4.0 km/h Distance 7.80 km</desc>
<time>2010-03-03T17:22:17.24</time>
<name>5081</name>
</trkpt>
<trkpt lat="48.936088" lon="8.669982">
<ele>348.5</ele>
<speed>5.4</speed>
<course>3.8</course>
<desc>Speed 5.4 km/h Distance 7.80 km</desc>
<time>2010-03-03T17:22:18.23</time>
<name>5082</name>
</trkpt>
<trkpt lat="48.936103" lon="8.669983">
<ele>347.5</ele>
<speed>4.0</speed>
<course>3.8</course>
<desc>Speed 4.0 km/h Distance 7.80 km</desc>
<time>2010-03-03T17:22:19.24</time>
<name>5083</name>
</trkpt>
<trkpt lat="48.936118" lon="8.669985">
<ele>346.5</ele>
<speed>4.1</speed>
<course>7.0</course>
<desc>Speed 4.1 km/h Distance 7.81 km</desc>
<time>2010-03-03T17:22:20.23</time>
<name>5084</name>
</trkpt>
<trkpt lat="48.936137" lon="8.669988">
<ele>346.0</ele>
<speed>5.0</speed>
<course>3.9</course>
<desc>Speed 5.0 km/h Distance 7.81 km</desc>
<time>2010-03-03T17:22:21.23</time>
<name>5085</name>
</trkpt>
<trkpt lat="48.936150" lon="8.669990">
<ele>345.5</ele>
<speed>4.3</speed>
<course>3.9</course>
<desc>Speed 4.3 km/h Distance 7.81 km</desc>
<time>2010-03-03T17:22:22.23</time>
<name>5086</name>
</trkpt>
<trkpt lat="48.936163" lon="8.669992">
<ele>345.0</ele>
<speed>4.2</speed>
<course>8.1</course>
<desc>Speed 4.2 km/h Distance 7.81 km</desc>
<time>2010-03-03T17:22:23.24</time>
<name>5087</name>
</trkpt>
<trkpt lat="48.936178" lon="8.669995">
<ele>344.0</ele>
<speed>4.5</speed>
<course>2.8</course>
<desc>Speed 4.5 km/h Distance 7.81 km</desc>
<time>2010-03-03T17:22:24.23</time>
<name>5088</name>
</trkpt>
<trkpt lat="48.936195" lon="8.669997">
<ele>343.5</ele>
<speed>4.3</speed>
<course>5.3</course>
<desc>Speed 4.3 km/h Distance 7.81 km</desc>
<time>2010-03-03T17:22:25.23</time>
<name>5089</name>
</trkpt>
<trkpt lat="48.936208" lon="8.669998">
<ele>342.5</ele>
<speed>4.5</speed>
<course>16.6</course>
<desc>Speed 4.5 km/h Distance 7.82 km</desc>
<time>2010-03-03T17:22:26.23</time>
<name>5090</name>
</trkpt>
<trkpt lat="48.936227" lon="8.670007">
<ele>344.0</ele>
<speed>4.6</speed>
<course>8.4</course>
<desc>Speed 4.6 km/h Distance 7.82 km</desc>
<time>2010-03-03T17:22:27.24</time>
<name>5091</name>
</trkpt>
<trkpt lat="48.936248" lon="8.670012">
<ele>345.5</ele>
<speed>5.1</speed>
<course>8.8</course>
<desc>Speed 5.1 km/h Distance 7.82 km</desc>
<time>2010-03-03T17:22:28.24</time>
<name>5092</name>
</trkpt>
<trkpt lat="48.936263" lon="8.670015">
<ele>346.0</ele>
<speed>5.4</speed>
<course>3.8</course>
<desc>Speed 5.4 km/h Distance 7.82 km</desc>
<time>2010-03-03T17:22:29.24</time>
<name>5093</name>
</trkpt>
<trkpt lat="48.936278" lon="8.670017">
<ele>346.5</ele>
<speed>4.5</speed>
<course>10.8</course>
<desc>Speed 4.5 km/h Distance 7.82 km</desc>
<time>2010-03-03T17:22:30.24</time>
<name>5094</name>
</trkpt>
<trkpt lat="48.936295" lon="8.670022">
<ele>347.5</ele>
<speed>5.0</speed>
<course>14.9</course>
<desc>Speed 5.0 km/h Distance 7.83 km</desc>
<time>2010-03-03T17:22:31.23</time>
<name>5095</name>
</trkpt>
<trkpt lat="48.936312" lon="8.670028">
<ele>348.0</ele>
<speed>4.7</speed>
<course>6.6</course>
<desc>Speed 4.7 km/h Distance 7.83 km</desc>
<time>2010-03-03T17:22:32.24</time>
<name>5096</name>
</trkpt>
<trkpt lat="48.936332" lon="8.670032">
<ele>348.5</ele>
<speed>5.1</speed>
<course>2.7</course>
<desc>Speed 5.1 km/h Distance 7.83 km</desc>
<time>2010-03-03T17:22:33.23</time>
<name>5097</name>
</trkpt>
<trkpt lat="48.936352" lon="8.670033">
<ele>349.5</ele>
<speed>5.1</speed>
<course>2.8</course>
<desc>Speed 5.1 km/h Distance 7.83 km</desc>
<time>2010-03-03T17:22:34.23</time>
<name>5098</name>
</trkpt>
<trkpt lat="48.936368" lon="8.670033">
<ele>349.0</ele>
<speed>5.7</speed>
<course>3.8</course>
<desc>Speed 5.7 km/h Distance 7.83 km</desc>
<time>2010-03-03T17:22:35.23</time>
<name>5099</name>
</trkpt>
<trkpt lat="48.936383" lon="8.670035">
<ele>349.5</ele>
<speed>5.4</speed>
<course>4.1</course>
<desc>Speed 5.4 km/h Distance 7.84 km</desc>
<time>2010-03-03T17:22:36.22</time>
<name>5100</name>
</trkpt>
<trkpt lat="48.936400" lon="8.670037">
<ele>350.0</ele>
<speed>5.3</speed>
<course>6.5</course>
<desc>Speed 5.3 km/h Distance 7.84 km</desc>
<time>2010-03-03T17:22:37.22</time>
<name>5101</name>
</trkpt>
<trkpt lat="48.936418" lon="8.670040">
<ele>350.5</ele>
<speed>5.3</speed>
<course>2.5</course>
<desc>Speed 5.3 km/h Distance 7.84 km</desc>
<time>2010-03-03T17:22:38.23</time>
<name>5102</name>
</trkpt>
<trkpt lat="48.936437" lon="8.670042">
<ele>350.0</ele>
<speed>5.0</speed>
<course>2.7</course>
<desc>Speed 5.0 km/h Distance 7.84 km</desc>
<time>2010-03-03T17:22:39.23</time>
<name>5103</name>
</trkpt>
<trkpt lat="48.936457" lon="8.670043">
<ele>350.5</ele>
<speed>5.3</speed>
<course>2.7</course>
<desc>Speed 5.3 km/h Distance 7.84 km</desc>
<time>2010-03-03T17:22:40.22</time>
<name>5104</name>
</trkpt>
<trkpt lat="48.936477" lon="8.670045">
<ele>352.0</ele>
<speed>5.7</speed>
<course>5.5</course>
<desc>Speed 5.7 km/h Distance 7.85 km</desc>
<time>2010-03-03T17:22:41.22</time>
<name>5105</name>
</trkpt>
<trkpt lat="48.936498" lon="8.670048">
<ele>353.0</ele>
<speed>5.8</speed>
<course>10.2</course>
<desc>Speed 5.8 km/h Distance 7.85 km</desc>
<time>2010-03-03T17:22:42.23</time>
<name>5106</name>
</trkpt>
<trkpt lat="48.936517" lon="8.670053">
<ele>353.5</ele>
<speed>5.3</speed>
<course>2.5</course>
<desc>Speed 5.3 km/h Distance 7.85 km</desc>
<time>2010-03-03T17:22:43.22</time>
<name>5107</name>
</trkpt>
<trkpt lat="48.936535" lon="8.670053">
<ele>354.5</ele>
<speed>5.4</speed>
<course>2.7</course>
<desc>Speed 5.4 km/h Distance 7.85 km</desc>
<time>2010-03-03T17:22:44.22</time>
<name>5108</name>
</trkpt>
<trkpt lat="48.936555" lon="8.670055">
<ele>354.5</ele>
<speed>5.8</speed>
<course>0.0</course>
<desc>Speed 5.8 km/h Distance 7.85 km</desc>
<time>2010-03-03T17:22:45.22</time>
<name>5109</name>
</trkpt>
<trkpt lat="48.936573" lon="8.670055">
<ele>354.0</ele>
<speed>5.0</speed>
<course>2.5</course>
<desc>Speed 5.0 km/h Distance 7.86 km</desc>
<time>2010-03-03T17:22:46.23</time>
<name>5110</name>
</trkpt>
<trkpt lat="48.936592" lon="8.670057">
<ele>353.5</ele>
<speed>5.1</speed>
<course>1.2</course>
<desc>Speed 5.1 km/h Distance 7.86 km</desc>
<time>2010-03-03T17:22:47.22</time>
<name>5111</name>
</trkpt>
<trkpt lat="48.936612" lon="8.670057">
<ele>353.5</ele>
<speed>5.7</speed>
<course>357.5</course>
<desc>Speed 5.7 km/h Distance 7.86 km</desc>
<time>2010-03-03T17:22:48.22</time>
<name>5112</name>
</trkpt>
<trkpt lat="48.936630" lon="8.670055">
<ele>353.0</ele>
<speed>5.6</speed>
<course>353.0</course>
<desc>Speed 5.6 km/h Distance 7.86 km</desc>
<time>2010-03-03T17:22:49.22</time>
<name>5113</name>
</trkpt>
<trkpt lat="48.936648" lon="8.670052">
<ele>352.5</ele>
<speed>5.1</speed>
<course>355.0</course>
<desc>Speed 5.1 km/h Distance 7.86 km</desc>
<time>2010-03-03T17:22:50.22</time>
<name>5114</name>
</trkpt>
<trkpt lat="48.936665" lon="8.670050">
<ele>352.5</ele>
<speed>5.4</speed>
<course>4.1</course>
<desc>Speed 5.4 km/h Distance 7.87 km</desc>
<time>2010-03-03T17:22:51.22</time>
<name>5115</name>
</trkpt>
<trkpt lat="48.936682" lon="8.670052">
<ele>352.5</ele>
<speed>5.4</speed>
<course>355.5</course>
<desc>Speed 5.4 km/h Distance 7.87 km</desc>
<time>2010-03-03T17:22:52.22</time>
<name>5116</name>
</trkpt>
<trkpt lat="48.936700" lon="8.670050">
<ele>352.5</ele>
<speed>5.4</speed>
<course>2.8</course>
<desc>Speed 5.4 km/h Distance 7.87 km</desc>
<time>2010-03-03T17:22:53.22</time>
<name>5117</name>
</trkpt>
<trkpt lat="48.936717" lon="8.670052">
<ele>352.0</ele>
<speed>5.4</speed>
<course>357.2</course>
<desc>Speed 5.4 km/h Distance 7.87 km</desc>
<time>2010-03-03T17:22:54.22</time>
<name>5118</name>
</trkpt>
<trkpt lat="48.936733" lon="8.670050">
<ele>353.0</ele>
<speed>5.0</speed>
<course>349.6</course>
<desc>Speed 5.0 km/h Distance 7.87 km</desc>
<time>2010-03-03T17:22:55.22</time>
<name>5119</name>
</trkpt>
<trkpt lat="48.936750" lon="8.670045">
<ele>353.0</ele>
<speed>5.3</speed>
<course>4.1</course>
<desc>Speed 5.3 km/h Distance 7.88 km</desc>
<time>2010-03-03T17:22:56.22</time>
<name>5120</name>
</trkpt>
<trkpt lat="48.936767" lon="8.670047">
<ele>353.0</ele>
<speed>5.1</speed>
<course>352.5</course>
<desc>Speed 5.1 km/h Distance 7.88 km</desc>
<time>2010-03-03T17:22:57.21</time>
<name>5121</name>
</trkpt>
<trkpt lat="48.936782" lon="8.670043">
<ele>353.5</ele>
<speed>4.7</speed>
<course>351.9</course>
<desc>Speed 4.7 km/h Distance 7.88 km</desc>
<time>2010-03-03T17:22:58.21</time>
<name>5122</name>
</trkpt>
<trkpt lat="48.936797" lon="8.670040">
<ele>353.5</ele>
<speed>5.0</speed>
<course>352.9</course>
<desc>Speed 5.0 km/h Distance 7.88 km</desc>
<time>2010-03-03T17:22:59.21</time>
<name>5123</name>
</trkpt>
<trkpt lat="48.936813" lon="8.670037">
<ele>353.5</ele>
<speed>5.3</speed>
<course>356.1</course>
<desc>Speed 5.3 km/h Distance 7.88 km</desc>
<time>2010-03-03T17:23:00.22</time>
<name>5124</name>
</trkpt>
<trkpt lat="48.936827" lon="8.670035">
<ele>353.0</ele>
<speed>4.4</speed>
<course>351.9</course>
<desc>Speed 4.4 km/h Distance 7.88 km</desc>
<time>2010-03-03T17:23:01.21</time>
<name>5125</name>
</trkpt>
<trkpt lat="48.936842" lon="8.670032">
<ele>352.0</ele>
<speed>4.8</speed>
<course>0.0</course>
<desc>Speed 4.8 km/h Distance 7.89 km</desc>
<time>2010-03-03T17:23:02.21</time>
<name>5126</name>
</trkpt>
<trkpt lat="48.936853" lon="8.670032">
<ele>351.5</ele>
<speed>4.2</speed>
<course>356.2</course>
<desc>Speed 4.2 km/h Distance 7.89 km</desc>
<time>2010-03-03T17:23:03.21</time>
<name>5127</name>
</trkpt>
<trkpt lat="48.936868" lon="8.670030">
<ele>351.0</ele>
<speed>5.1</speed>
<course>346.5</course>
<desc>Speed 5.1 km/h Distance 7.89 km</desc>
<time>2010-03-03T17:23:04.21</time>
<name>5128</name>
</trkpt>
<trkpt lat="48.936882" lon="8.670025">
<ele>351.0</ele>
<speed>4.8</speed>
<course>355.3</course>
<desc>Speed 4.8 km/h Distance 7.89 km</desc>
<time>2010-03-03T17:23:05.21</time>
<name>5129</name>
</trkpt>
<trkpt lat="48.936893" lon="8.670023">
<ele>351.0</ele>
<speed>3.0</speed>
<course>348.8</course>
<desc>Speed 3.0 km/h Distance 7.89 km</desc>
<time>2010-03-03T17:23:06.21</time>
<name>5130</name>
</trkpt>
<trkpt lat="48.936905" lon="8.670020">
<ele>351.0</ele>
<speed>4.0</speed>
<course>352.3</course>
<desc>Speed 4.0 km/h Distance 7.89 km</desc>
<time>2010-03-03T17:23:07.22</time>
<name>5131</name>
</trkpt>
<trkpt lat="48.936922" lon="8.670017">
<ele>351.5</ele>
<speed>5.3</speed>
<course>341.9</course>
<desc>Speed 5.3 km/h Distance 7.90 km</desc>
<time>2010-03-03T17:23:08.21</time>
<name>5132</name>
</trkpt>
<trkpt lat="48.936935" lon="8.670010">
<ele>351.5</ele>
<speed>4.8</speed>
<course>347.4</course>
<desc>Speed 4.8 km/h Distance 7.90 km</desc>
<time>2010-03-03T17:23:09.22</time>
<name>5133</name>
</trkpt>
<trkpt lat="48.936950" lon="8.670005">
<ele>351.5</ele>
<speed>5.2</speed>
<course>351.2</course>
<desc>Speed 5.2 km/h Distance 7.90 km</desc>
<time>2010-03-03T17:23:10.22</time>
<name>5134</name>
</trkpt>
<trkpt lat="48.936965" lon="8.670002">
<ele>351.0</ele>
<speed>4.8</speed>
<course>355.3</course>
<desc>Speed 4.8 km/h Distance 7.90 km</desc>
<time>2010-03-03T17:23:11.22</time>
<name>5135</name>
</trkpt>
<trkpt lat="48.936977" lon="8.670000">
<ele>351.5</ele>
<speed>4.1</speed>
<course>351.0</course>
<desc>Speed 4.1 km/h Distance 7.90 km</desc>
<time>2010-03-03T17:23:12.21</time>
<name>5136</name>
</trkpt>
<trkpt lat="48.936990" lon="8.669997">
<ele>351.0</ele>
<speed>4.5</speed>
<course>350.3</course>
<desc>Speed 4.5 km/h Distance 7.90 km</desc>
<time>2010-03-03T17:23:13.21</time>
<name>5137</name>
</trkpt>
<trkpt lat="48.937003" lon="8.669993">
<ele>350.5</ele>
<speed>4.4</speed>
<course>352.3</course>
<desc>Speed 4.4 km/h Distance 7.90 km</desc>
<time>2010-03-03T17:23:14.20</time>
<name>5138</name>
</trkpt>
<trkpt lat="48.937020" lon="8.669990">
<ele>350.5</ele>
<speed>5.1</speed>
<course>348.8</course>
<desc>Speed 5.1 km/h Distance 7.91 km</desc>
<time>2010-03-03T17:23:15.20</time>
<name>5139</name>
</trkpt>
<trkpt lat="48.937037" lon="8.669985">
<ele>350.5</ele>
<speed>5.4</speed>
<course>352.3</course>
<desc>Speed 5.4 km/h Distance 7.91 km</desc>
<time>2010-03-03T17:23:16.20</time>
<name>5140</name>
</trkpt>
<trkpt lat="48.937053" lon="8.669982">
<ele>350.0</ele>
<speed>5.4</speed>
<course>0.0</course>
<desc>Speed 5.4 km/h Distance 7.91 km</desc>
<time>2010-03-03T17:23:17.20</time>
<name>5141</name>
</trkpt>
<trkpt lat="48.937072" lon="8.669982">
<ele>350.0</ele>
<speed>5.5</speed>
<course>350.5</course>
<desc>Speed 5.5 km/h Distance 7.91 km</desc>
<time>2010-03-03T17:23:18.20</time>
<name>5142</name>
</trkpt>
<trkpt lat="48.937090" lon="8.669977">
<ele>349.5</ele>
<speed>5.6</speed>
<course>344.0</course>
<desc>Speed 5.6 km/h Distance 7.91 km</desc>
<time>2010-03-03T17:23:19.20</time>
<name>5143</name>
</trkpt>
<trkpt lat="48.937105" lon="8.669970">
<ele>349.5</ele>
<speed>5.6</speed>
<course>345.1</course>
<desc>Speed 5.6 km/h Distance 7.92 km</desc>
<time>2010-03-03T17:23:20.20</time>
<name>5144</name>
</trkpt>
<trkpt lat="48.937122" lon="8.669963">
<ele>349.0</ele>
<speed>5.2</speed>
<course>349.6</course>
<desc>Speed 5.2 km/h Distance 7.92 km</desc>
<time>2010-03-03T17:23:21.20</time>
<name>5145</name>
</trkpt>
<trkpt lat="48.937138" lon="8.669958">
<ele>350.0</ele>
<speed>5.3</speed>
<course>349.2</course>
<desc>Speed 5.3 km/h Distance 7.92 km</desc>
<time>2010-03-03T17:23:22.20</time>
<name>5146</name>
</trkpt>
<trkpt lat="48.937155" lon="8.669953">
<ele>350.0</ele>
<speed>5.1</speed>
<course>349.6</course>
<desc>Speed 5.1 km/h Distance 7.92 km</desc>
<time>2010-03-03T17:23:23.20</time>
<name>5147</name>
</trkpt>
<trkpt lat="48.937167" lon="8.669950">
<ele>349.5</ele>
<speed>4.6</speed>
<course>351.9</course>
<desc>Speed 4.6 km/h Distance 7.92 km</desc>
<time>2010-03-03T17:23:24.20</time>
<name>5148</name>
</trkpt>
<trkpt lat="48.937182" lon="8.669947">
<ele>349.5</ele>
<speed>5.4</speed>
<course>355.9</course>
<desc>Speed 5.4 km/h Distance 7.92 km</desc>
<time>2010-03-03T17:23:25.21</time>
<name>5149</name>
</trkpt>
<trkpt lat="48.937198" lon="8.669945">
<ele>349.0</ele>
<speed>5.5</speed>
<course>344.0</course>
<desc>Speed 5.5 km/h Distance 7.93 km</desc>
<time>2010-03-03T17:23:26.21</time>
<name>5150</name>
</trkpt>
<trkpt lat="48.937210" lon="8.669940">
<ele>350.5</ele>
<speed>4.4</speed>
<course>345.1</course>
<desc>Speed 4.4 km/h Distance 7.93 km</desc>
<time>2010-03-03T17:23:27.21</time>
<name>5151</name>
</trkpt>
<trkpt lat="48.937227" lon="8.669933">
<ele>351.0</ele>
<speed>5.3</speed>
<course>357.2</course>
<desc>Speed 5.3 km/h Distance 7.93 km</desc>
<time>2010-03-03T17:23:28.20</time>
<name>5152</name>
</trkpt>
<trkpt lat="48.937243" lon="8.669932">
<ele>351.5</ele>
<speed>5.0</speed>
<course>343.4</course>
<desc>Speed 5.0 km/h Distance 7.93 km</desc>
<time>2010-03-03T17:23:29.20</time>
<name>5153</name>
</trkpt>
<trkpt lat="48.937258" lon="8.669925">
<ele>351.5</ele>
<speed>4.8</speed>
<course>347.8</course>
<desc>Speed 4.8 km/h Distance 7.93 km</desc>
<time>2010-03-03T17:23:30.20</time>
<name>5154</name>
</trkpt>
<trkpt lat="48.937273" lon="8.669920">
<ele>349.5</ele>
<speed>4.5</speed>
<course>339.9</course>
<desc>Speed 4.5 km/h Distance 7.94 km</desc>
<time>2010-03-03T17:23:31.20</time>
<name>5155</name>
</trkpt>
<trkpt lat="48.937288" lon="8.669912">
<ele>348.5</ele>
<speed>4.7</speed>
<course>333.8</course>
<desc>Speed 4.7 km/h Distance 7.94 km</desc>
<time>2010-03-03T17:23:32.20</time>
<name>5156</name>
</trkpt>
<trkpt lat="48.937302" lon="8.669902">
<ele>348.5</ele>
<speed>5.4</speed>
<course>307.3</course>
<desc>Speed 5.4 km/h Distance 7.94 km</desc>
<time>2010-03-03T17:23:33.20</time>
<name>5157</name>
</trkpt>
<trkpt lat="48.937312" lon="8.669882">
<ele>350.0</ele>
<speed>5.7</speed>
<course>318.8</course>
<desc>Speed 5.7 km/h Distance 7.94 km</desc>
<time>2010-03-03T17:23:34.20</time>
<name>5158</name>
</trkpt>
<trkpt lat="48.937322" lon="8.669868">
<ele>351.0</ele>
<speed>4.6</speed>
<course>326.7</course>
<desc>Speed 4.6 km/h Distance 7.94 km</desc>
<time>2010-03-03T17:23:35.19</time>
<name>5159</name>
</trkpt>
<trkpt lat="48.937333" lon="8.669857">
<ele>351.0</ele>
<speed>4.0</speed>
<course>339.4</course>
<desc>Speed 4.0 km/h Distance 7.94 km</desc>
<time>2010-03-03T17:23:36.19</time>
<name>5160</name>
</trkpt>
<trkpt lat="48.937345" lon="8.669850">
<ele>351.0</ele>
<speed>4.8</speed>
<course>346.5</course>
<desc>Speed 4.8 km/h Distance 7.95 km</desc>
<time>2010-03-03T17:23:37.19</time>
<name>5161</name>
</trkpt>
<trkpt lat="48.937358" lon="8.669845">
<ele>351.5</ele>
<speed>5.0</speed>
<course>346.0</course>
<desc>Speed 5.0 km/h Distance 7.95 km</desc>
<time>2010-03-03T17:23:38.19</time>
<name>5162</name>
</trkpt>
<trkpt lat="48.937372" lon="8.669840">
<ele>352.0</ele>
<speed>3.0</speed>
<course>334.8</course>
<desc>Speed 3.0 km/h Distance 7.95 km</desc>
<time>2010-03-03T17:23:39.20</time>
<name>5163</name>
</trkpt>
<trkpt lat="48.937383" lon="8.669832">
<ele>351.5</ele>
<speed>5.1</speed>
<course>340.3</course>
<desc>Speed 5.1 km/h Distance 7.95 km</desc>
<time>2010-03-03T17:23:40.19</time>
<name>5164</name>
</trkpt>
<trkpt lat="48.937402" lon="8.669822">
<ele>351.0</ele>
<speed>5.3</speed>
<course>339.0</course>
<desc>Speed 5.3 km/h Distance 7.95 km</desc>
<time>2010-03-03T17:23:41.19</time>
<name>5165</name>
</trkpt>
<trkpt lat="48.937422" lon="8.669810">
<ele>351.0</ele>
<speed>5.7</speed>
<course>337.7</course>
<desc>Speed 5.7 km/h Distance 7.95 km</desc>
<time>2010-03-03T17:23:42.19</time>
<name>5166</name>
</trkpt>
<trkpt lat="48.937435" lon="8.669802">
<ele>351.5</ele>
<speed>4.5</speed>
<course>330.8</course>
<desc>Speed 4.5 km/h Distance 7.96 km</desc>
<time>2010-03-03T17:23:43.19</time>
<name>5167</name>
</trkpt>
<trkpt lat="48.937447" lon="8.669792">
<ele>352.0</ele>
<speed>4.7</speed>
<course>351.0</course>
<desc>Speed 4.7 km/h Distance 7.96 km</desc>
<time>2010-03-03T17:23:44.19</time>
<name>5168</name>
</trkpt>
<trkpt lat="48.937460" lon="8.669788">
<ele>351.5</ele>
<speed>4.9</speed>
<course>341.9</course>
<desc>Speed 4.9 km/h Distance 7.96 km</desc>
<time>2010-03-03T17:23:45.19</time>
<name>5169</name>
</trkpt>
<trkpt lat="48.937473" lon="8.669782">
<ele>351.0</ele>
<speed>4.9</speed>
<course>349.6</course>
<desc>Speed 4.9 km/h Distance 7.96 km</desc>
<time>2010-03-03T17:23:46.19</time>
<name>5170</name>
</trkpt>
<trkpt lat="48.937485" lon="8.669778">
<ele>350.5</ele>
<speed>3.4</speed>
<course>336.2</course>
<desc>Speed 3.4 km/h Distance 7.96 km</desc>
<time>2010-03-03T17:23:47.19</time>
<name>5171</name>
</trkpt>
<trkpt lat="48.937495" lon="8.669772">
<ele>350.0</ele>
<speed>3.3</speed>
<course>326.6</course>
<desc>Speed 3.3 km/h Distance 7.96 km</desc>
<time>2010-03-03T17:23:48.20</time>
<name>5172</name>
</trkpt>
<trkpt lat="48.937508" lon="8.669758">
<ele>351.0</ele>
<speed>5.8</speed>
<course>334.5</course>
<desc>Speed 5.8 km/h Distance 7.96 km</desc>
<time>2010-03-03T17:23:49.19</time>
<name>5173</name>
</trkpt>
<trkpt lat="48.937527" lon="8.669745">
<ele>351.0</ele>
<speed>5.3</speed>
<course>330.2</course>
<desc>Speed 5.3 km/h Distance 7.97 km</desc>
<time>2010-03-03T17:23:50.19</time>
<name>5174</name>
</trkpt>
<trkpt lat="48.937540" lon="8.669733">
<ele>351.0</ele>
<speed>5.0</speed>
<course>330.0</course>
<desc>Speed 5.0 km/h Distance 7.97 km</desc>
<time>2010-03-03T17:23:51.19</time>
<name>5175</name>
</trkpt>
<trkpt lat="48.937553" lon="8.669722">
<ele>350.5</ele>
<speed>5.4</speed>
<course>339.9</course>
<desc>Speed 5.4 km/h Distance 7.97 km</desc>
<time>2010-03-03T17:23:52.19</time>
<name>5176</name>
</trkpt>
<trkpt lat="48.937568" lon="8.669713">
<ele>350.5</ele>
<speed>6.0</speed>
<course>334.0</course>
<desc>Speed 6.0 km/h Distance 7.97 km</desc>
<time>2010-03-03T17:23:53.20</time>
<name>5177</name>
</trkpt>
<trkpt lat="48.937582" lon="8.669703">
<ele>350.5</ele>
<speed>4.6</speed>
<course>336.3</course>
<desc>Speed 4.6 km/h Distance 7.97 km</desc>
<time>2010-03-03T17:23:54.19</time>
<name>5178</name>
</trkpt>
<trkpt lat="48.937597" lon="8.669693">
<ele>349.5</ele>
<speed>4.8</speed>
<course>334.8</course>
<desc>Speed 4.8 km/h Distance 7.98 km</desc>
<time>2010-03-03T17:23:55.19</time>
<name>5179</name>
</trkpt>
<trkpt lat="48.937608" lon="8.669685">
<ele>349.0</ele>
<speed>4.5</speed>
<course>319.8</course>
<desc>Speed 4.5 km/h Distance 7.98 km</desc>
<time>2010-03-03T17:23:56.18</time>
<name>5180</name>
</trkpt>
<trkpt lat="48.937620" lon="8.669670">
<ele>349.0</ele>
<speed>5.7</speed>
<course>332.2</course>
<desc>Speed 5.7 km/h Distance 7.98 km</desc>
<time>2010-03-03T17:23:57.19</time>
<name>5181</name>
</trkpt>
<trkpt lat="48.937637" lon="8.669657">
<ele>348.5</ele>
<speed>5.1</speed>
<course>336.3</course>
<desc>Speed 5.1 km/h Distance 7.98 km</desc>
<time>2010-03-03T17:23:58.19</time>
<name>5182</name>
</trkpt>
<trkpt lat="48.937652" lon="8.669647">
<ele>348.0</ele>
<speed>4.9</speed>
<course>332.2</course>
<desc>Speed 4.9 km/h Distance 7.98 km</desc>
<time>2010-03-03T17:23:59.18</time>
<name>5183</name>
</trkpt>
<trkpt lat="48.937668" lon="8.669633">
<ele>347.5</ele>
<speed>5.1</speed>
<course>326.6</course>
<desc>Speed 5.1 km/h Distance 7.98 km</desc>
<time>2010-03-03T17:24:00.18</time>
<name>5184</name>
</trkpt>
<trkpt lat="48.937682" lon="8.669620">
<ele>347.0</ele>
<speed>4.3</speed>
<course>323.4</course>
<desc>Speed 4.3 km/h Distance 7.99 km</desc>
<time>2010-03-03T17:24:01.18</time>
<name>5185</name>
</trkpt>
<trkpt lat="48.937695" lon="8.669605">
<ele>347.5</ele>
<speed>5.2</speed>
<course>326.8</course>
<desc>Speed 5.2 km/h Distance 7.99 km</desc>
<time>2010-03-03T17:24:02.19</time>
<name>5186</name>
</trkpt>
<trkpt lat="48.937708" lon="8.669592">
<ele>347.0</ele>
<speed>5.3</speed>
<course>329.7</course>
<desc>Speed 5.3 km/h Distance 7.99 km</desc>
<time>2010-03-03T17:24:03.19</time>
<name>5187</name>
</trkpt>
<trkpt lat="48.937723" lon="8.669578">
<ele>347.5</ele>
<speed>5.7</speed>
<course>326.6</course>
<desc>Speed 5.7 km/h Distance 7.99 km</desc>
<time>2010-03-03T17:24:04.19</time>
<name>5188</name>
</trkpt>
<trkpt lat="48.937735" lon="8.669567">
<ele>347.5</ele>
<speed>4.6</speed>
<course>330.2</course>
<desc>Speed 4.6 km/h Distance 7.99 km</desc>
<time>2010-03-03T17:24:05.18</time>
<name>5189</name>
</trkpt>
<trkpt lat="48.937748" lon="8.669555">
<ele>348.0</ele>
<speed>5.1</speed>
<course>331.4</course>
<desc>Speed 5.1 km/h Distance 8.00 km</desc>
<time>2010-03-03T17:24:06.18</time>
<name>5190</name>
</trkpt>
<trkpt lat="48.937758" lon="8.669547">
<ele>348.5</ele>
<speed>3.6</speed>
<course>335.1</course>
<desc>Speed 3.6 km/h Distance 8.00 km</desc>
<time>2010-03-03T17:24:07.18</time>
<name>5191</name>
</trkpt>
<trkpt lat="48.937770" lon="8.669538">
<ele>348.5</ele>
<speed>4.3</speed>
<course>323.1</course>
<desc>Speed 4.3 km/h Distance 8.00 km</desc>
<time>2010-03-03T17:24:08.18</time>
<name>5192</name>
</trkpt>
<trkpt lat="48.937782" lon="8.669525">
<ele>349.0</ele>
<speed>4.6</speed>
<course>316.9</course>
<desc>Speed 4.6 km/h Distance 8.00 km</desc>
<time>2010-03-03T17:24:09.18</time>
<name>5193</name>
</trkpt>
<trkpt lat="48.937793" lon="8.669508">
<ele>349.5</ele>
<speed>4.8</speed>
<course>319.8</course>
<desc>Speed 4.8 km/h Distance 8.00 km</desc>
<time>2010-03-03T17:24:10.18</time>
<name>5194</name>
</trkpt>
<trkpt lat="48.937805" lon="8.669493">
<ele>350.0</ele>
<speed>5.0</speed>
<course>326.7</course>
<desc>Speed 5.0 km/h Distance 8.00 km</desc>
<time>2010-03-03T17:24:11.18</time>
<name>5195</name>
</trkpt>
<trkpt lat="48.937822" lon="8.669477">
<ele>350.5</ele>
<speed>5.1</speed>
<course>341.9</course>
<desc>Speed 5.1 km/h Distance 8.01 km</desc>
<time>2010-03-03T17:24:12.18</time>
<name>5196</name>
</trkpt>
<trkpt lat="48.937838" lon="8.669468">
<ele>349.0</ele>
<speed>5.0</speed>
<course>337.3</course>
<desc>Speed 5.0 km/h Distance 8.01 km</desc>
<time>2010-03-03T17:24:13.18</time>
<name>5197</name>
</trkpt>
<trkpt lat="48.937857" lon="8.669457">
<ele>348.0</ele>
<speed>5.1</speed>
<course>334.5</course>
<desc>Speed 5.1 km/h Distance 8.01 km</desc>
<time>2010-03-03T17:24:14.18</time>
<name>5198</name>
</trkpt>
<trkpt lat="48.937875" lon="8.669443">
<ele>347.5</ele>
<speed>5.9</speed>
<course>330.2</course>
<desc>Speed 5.9 km/h Distance 8.01 km</desc>
<time>2010-03-03T17:24:15.18</time>
<name>5199</name>
</trkpt>
<trkpt lat="48.937888" lon="8.669432">
<ele>347.5</ele>
<speed>5.3</speed>
<course>329.7</course>
<desc>Speed 5.3 km/h Distance 8.01 km</desc>
<time>2010-03-03T17:24:16.17</time>
<name>5200</name>
</trkpt>
<trkpt lat="48.937903" lon="8.669418">
<ele>347.5</ele>
<speed>5.4</speed>
<course>326.8</course>
<desc>Speed 5.4 km/h Distance 8.02 km</desc>
<time>2010-03-03T17:24:17.17</time>
<name>5201</name>
</trkpt>
<trkpt lat="48.937917" lon="8.669405">
<ele>346.5</ele>
<speed>4.6</speed>
<course>326.7</course>
<desc>Speed 4.6 km/h Distance 8.02 km</desc>
<time>2010-03-03T17:24:18.18</time>
<name>5202</name>
</trkpt>
<trkpt lat="48.937928" lon="8.669393">
<ele>346.0</ele>
<speed>4.8</speed>
<course>322.5</course>
<desc>Speed 4.8 km/h Distance 8.02 km</desc>
<time>2010-03-03T17:24:19.18</time>
<name>5203</name>
</trkpt>
<trkpt lat="48.937938" lon="8.669382">
<ele>346.0</ele>
<speed>4.2</speed>
<course>330.6</course>
<desc>Speed 4.2 km/h Distance 8.02 km</desc>
<time>2010-03-03T17:24:20.17</time>
<name>5204</name>
</trkpt>
<trkpt lat="48.937950" lon="8.669372">
<ele>345.5</ele>
<speed>4.2</speed>
<course>336.3</course>
<desc>Speed 4.2 km/h Distance 8.02 km</desc>
<time>2010-03-03T17:24:21.18</time>
<name>5205</name>
</trkpt>
<trkpt lat="48.937965" lon="8.669362">
<ele>345.0</ele>
<speed>4.4</speed>
<course>330.6</course>
<desc>Speed 4.4 km/h Distance 8.02 km</desc>
<time>2010-03-03T17:24:22.17</time>
<name>5206</name>
</trkpt>
<trkpt lat="48.937977" lon="8.669352">
<ele>344.5</ele>
<speed>4.9</speed>
<course>326.6</course>
<desc>Speed 4.9 km/h Distance 8.02 km</desc>
<time>2010-03-03T17:24:23.20</time>
<name>5207</name>
</trkpt>
<trkpt lat="48.937990" lon="8.669338">
<ele>344.5</ele>
<speed>4.9</speed>
<course>330.2</course>
<desc>Speed 4.9 km/h Distance 8.03 km</desc>
<time>2010-03-03T17:24:24.18</time>
<name>5208</name>
</trkpt>
<trkpt lat="48.938003" lon="8.669327">
<ele>344.5</ele>
<speed>4.9</speed>
<course>334.0</course>
<desc>Speed 4.9 km/h Distance 8.03 km</desc>
<time>2010-03-03T17:24:25.17</time>
<name>5209</name>
</trkpt>
<trkpt lat="48.938017" lon="8.669317">
<ele>344.5</ele>
<speed>5.0</speed>
<course>333.1</course>
<desc>Speed 5.0 km/h Distance 8.03 km</desc>
<time>2010-03-03T17:24:26.18</time>
<name>5210</name>
</trkpt>
<trkpt lat="48.938032" lon="8.669305">
<ele>345.0</ele>
<speed>5.7</speed>
<course>326.6</course>
<desc>Speed 5.7 km/h Distance 8.03 km</desc>
<time>2010-03-03T17:24:27.18</time>
<name>5211</name>
</trkpt>
<trkpt lat="48.938045" lon="8.669292">
<ele>344.0</ele>
<speed>5.1</speed>
<course>326.6</course>
<desc>Speed 5.1 km/h Distance 8.03 km</desc>
<time>2010-03-03T17:24:28.17</time>
<name>5212</name>
</trkpt>
<trkpt lat="48.938057" lon="8.669280">
<ele>344.0</ele>
<speed>4.2</speed>
<course>326.6</course>
<desc>Speed 4.2 km/h Distance 8.04 km</desc>
<time>2010-03-03T17:24:29.17</time>
<name>5213</name>
</trkpt>
<trkpt lat="48.938067" lon="8.669270">
<ele>344.0</ele>
<speed>4.6</speed>
<course>330.2</course>
<desc>Speed 4.6 km/h Distance 8.04 km</desc>
<time>2010-03-03T17:24:30.18</time>
<name>5214</name>
</trkpt>
<trkpt lat="48.938080" lon="8.669258">
<ele>343.5</ele>
<speed>5.0</speed>
<course>330.2</course>
<desc>Speed 5.0 km/h Distance 8.04 km</desc>
<time>2010-03-03T17:24:31.17</time>
<name>5215</name>
</trkpt>
<trkpt lat="48.938093" lon="8.669247">
<ele>343.0</ele>
<speed>4.6</speed>
<course>326.6</course>
<desc>Speed 4.6 km/h Distance 8.04 km</desc>
<time>2010-03-03T17:24:32.17</time>
<name>5216</name>
</trkpt>
<trkpt lat="48.938105" lon="8.669235">
<ele>343.5</ele>
<speed>3.9</speed>
<course>323.1</course>
<desc>Speed 3.9 km/h Distance 8.04 km</desc>
<time>2010-03-03T17:24:33.17</time>
<name>5217</name>
</trkpt>
<trkpt lat="48.938117" lon="8.669222">
<ele>344.5</ele>
<speed>3.3</speed>
<course>307.3</course>
<desc>Speed 3.3 km/h Distance 8.04 km</desc>
<time>2010-03-03T17:24:34.16</time>
<name>5218</name>
</trkpt>
<trkpt lat="48.938128" lon="8.669198">
<ele>346.5</ele>
<speed>7.0</speed>
<course>323.1</course>
<desc>Speed 7.0 km/h Distance 8.05 km</desc>
<time>2010-03-03T17:24:35.17</time>
<name>5219</name>
</trkpt>
<trkpt lat="48.938140" lon="8.669185">
<ele>346.5</ele>
<speed>4.8</speed>
<course>329.4</course>
<desc>Speed 4.8 km/h Distance 8.05 km</desc>
<time>2010-03-03T17:24:36.16</time>
<name>5220</name>
</trkpt>
<trkpt lat="48.938157" lon="8.669170">
<ele>346.5</ele>
<speed>5.7</speed>
<course>323.1</course>
<desc>Speed 5.7 km/h Distance 8.05 km</desc>
<time>2010-03-03T17:24:37.16</time>
<name>5221</name>
</trkpt>
<trkpt lat="48.938168" lon="8.669157">
<ele>346.5</ele>
<speed>5.2</speed>
<course>326.6</course>
<desc>Speed 5.2 km/h Distance 8.05 km</desc>
<time>2010-03-03T17:24:38.16</time>
<name>5222</name>
</trkpt>
<trkpt lat="48.938180" lon="8.669145">
<ele>346.5</ele>
<speed>5.0</speed>
<course>326.6</course>
<desc>Speed 5.0 km/h Distance 8.05 km</desc>
<time>2010-03-03T17:24:39.17</time>
<name>5223</name>
</trkpt>
<trkpt lat="48.938193" lon="8.669132">
<ele>346.5</ele>
<speed>5.3</speed>
<course>330.2</course>
<desc>Speed 5.3 km/h Distance 8.05 km</desc>
<time>2010-03-03T17:24:40.16</time>
<name>5224</name>
</trkpt>
<trkpt lat="48.938207" lon="8.669120">
<ele>346.5</ele>
<speed>4.7</speed>
<course>336.3</course>
<desc>Speed 4.7 km/h Distance 8.06 km</desc>
<time>2010-03-03T17:24:41.16</time>
<name>5225</name>
</trkpt>
<trkpt lat="48.938222" lon="8.669110">
<ele>346.0</ele>
<speed>5.4</speed>
<course>347.4</course>
<desc>Speed 5.4 km/h Distance 8.06 km</desc>
<time>2010-03-03T17:24:42.16</time>
<name>5226</name>
</trkpt>
<trkpt lat="48.938242" lon="8.669103">
<ele>345.0</ele>
<speed>5.6</speed>
<course>333.0</course>
<desc>Speed 5.6 km/h Distance 8.06 km</desc>
<time>2010-03-03T17:24:43.17</time>
<name>5227</name>
</trkpt>
<trkpt lat="48.938257" lon="8.669092">
<ele>344.5</ele>
<speed>4.8</speed>
<course>334.0</course>
<desc>Speed 4.8 km/h Distance 8.06 km</desc>
<time>2010-03-03T17:24:44.16</time>
<name>5228</name>
</trkpt>
<trkpt lat="48.938270" lon="8.669082">
<ele>345.0</ele>
<speed>4.5</speed>
<course>330.2</course>
<desc>Speed 4.5 km/h Distance 8.06 km</desc>
<time>2010-03-03T17:24:45.16</time>
<name>5229</name>
</trkpt>
<trkpt lat="48.938283" lon="8.669070">
<ele>345.0</ele>
<speed>5.1</speed>
<course>323.5</course>
<desc>Speed 5.1 km/h Distance 8.07 km</desc>
<time>2010-03-03T17:24:46.16</time>
<name>5230</name>
</trkpt>
<trkpt lat="48.938297" lon="8.669055">
<ele>345.0</ele>
<speed>4.7</speed>
<course>326.9</course>
<desc>Speed 4.7 km/h Distance 8.07 km</desc>
<time>2010-03-03T17:24:47.16</time>
<name>5231</name>
</trkpt>
<trkpt lat="48.938308" lon="8.669043">
<ele>344.5</ele>
<speed>4.5</speed>
<course>319.8</course>
<desc>Speed 4.5 km/h Distance 8.07 km</desc>
<time>2010-03-03T17:24:48.15</time>
<name>5232</name>
</trkpt>
<trkpt lat="48.938320" lon="8.669028">
<ele>344.0</ele>
<speed>4.6</speed>
<course>316.7</course>
<desc>Speed 4.6 km/h Distance 8.07 km</desc>
<time>2010-03-03T17:24:49.18</time>
<name>5233</name>
</trkpt>
<trkpt lat="48.938332" lon="8.669012">
<ele>344.5</ele>
<speed>5.2</speed>
<course>289.1</course>
<desc>Speed 5.2 km/h Distance 8.07 km</desc>
<time>2010-03-03T17:24:50.16</time>
<name>5234</name>
</trkpt>
<trkpt lat="48.938340" lon="8.668975">
<ele>346.5</ele>
<speed>9.1</speed>
<course>314.1</course>
<desc>Speed 9.1 km/h Distance 8.07 km</desc>
<time>2010-03-03T17:24:51.15</time>
<name>5235</name>
</trkpt>
<trkpt lat="48.938352" lon="8.668957">
<ele>347.0</ele>
<speed>5.3</speed>
<course>323.1</course>
<desc>Speed 5.3 km/h Distance 8.08 km</desc>
<time>2010-03-03T17:24:52.15</time>
<name>5236</name>
</trkpt>
<trkpt lat="48.938363" lon="8.668943">
<ele>346.5</ele>
<speed>4.6</speed>
<course>317.4</course>
<desc>Speed 4.6 km/h Distance 8.08 km</desc>
<time>2010-03-03T17:24:53.16</time>
<name>5237</name>
</trkpt>
<trkpt lat="48.938372" lon="8.668932">
<ele>346.0</ele>
<speed>3.5</speed>
<course>323.0</course>
<desc>Speed 3.5 km/h Distance 8.08 km</desc>
<time>2010-03-03T17:24:54.15</time>
<name>5238</name>
</trkpt>
<trkpt lat="48.938383" lon="8.668918">
<ele>346.0</ele>
<speed>4.5</speed>
<course>323.9</course>
<desc>Speed 4.5 km/h Distance 8.08 km</desc>
<time>2010-03-03T17:24:55.16</time>
<name>5239</name>
</trkpt>
<trkpt lat="48.938398" lon="8.668902">
<ele>345.5</ele>
<speed>5.3</speed>
<course>311.6</course>
<desc>Speed 5.3 km/h Distance 8.08 km</desc>
<time>2010-03-03T17:24:56.16</time>
<name>5240</name>
</trkpt>
<trkpt lat="48.938410" lon="8.668882">
<ele>346.0</ele>
<speed>5.4</speed>
<course>337.9</course>
<desc>Speed 5.4 km/h Distance 8.09 km</desc>
<time>2010-03-03T17:24:57.16</time>
<name>5241</name>
</trkpt>
<trkpt lat="48.938423" lon="8.668873">
<ele>346.0</ele>
<speed>4.7</speed>
<course>326.7</course>
<desc>Speed 4.7 km/h Distance 8.09 km</desc>
<time>2010-03-03T17:24:58.16</time>
<name>5242</name>
</trkpt>
<trkpt lat="48.938437" lon="8.668860">
<ele>346.0</ele>
<speed>5.0</speed>
<course>335.3</course>
<desc>Speed 5.0 km/h Distance 8.09 km</desc>
<time>2010-03-03T17:24:59.16</time>
<name>5243</name>
</trkpt>
<trkpt lat="48.938453" lon="8.668848">
<ele>346.0</ele>
<speed>5.3</speed>
<course>326.8</course>
<desc>Speed 5.3 km/h Distance 8.09 km</desc>
<time>2010-03-03T17:25:00.15</time>
<name>5244</name>
</trkpt>
<trkpt lat="48.938463" lon="8.668838">
<ele>345.5</ele>
<speed>4.4</speed>
<course>326.6</course>
<desc>Speed 4.4 km/h Distance 8.09 km</desc>
<time>2010-03-03T17:25:01.15</time>
<name>5245</name>
</trkpt>
<trkpt lat="48.938477" lon="8.668825">
<ele>345.5</ele>
<speed>5.2</speed>
<course>314.1</course>
<desc>Speed 5.2 km/h Distance 8.09 km</desc>
<time>2010-03-03T17:25:02.15</time>
<name>5246</name>
</trkpt>
<trkpt lat="48.938488" lon="8.668807">
<ele>346.0</ele>
<speed>5.3</speed>
<course>316.8</course>
<desc>Speed 5.3 km/h Distance 8.10 km</desc>
<time>2010-03-03T17:25:03.15</time>
<name>5247</name>
</trkpt>
<trkpt lat="48.938500" lon="8.668790">
<ele>346.0</ele>
<speed>4.9</speed>
<course>326.8</course>
<desc>Speed 4.9 km/h Distance 8.10 km</desc>
<time>2010-03-03T17:25:04.14</time>
<name>5248</name>
</trkpt>
<trkpt lat="48.938513" lon="8.668777">
<ele>345.5</ele>
<speed>4.6</speed>
<course>319.7</course>
<desc>Speed 4.6 km/h Distance 8.10 km</desc>
<time>2010-03-03T17:25:05.14</time>
<name>5249</name>
</trkpt>
<trkpt lat="48.938525" lon="8.668762">
<ele>346.5</ele>
<speed>4.9</speed>
<course>317.4</course>
<desc>Speed 4.9 km/h Distance 8.10 km</desc>
<time>2010-03-03T17:25:06.15</time>
<name>5250</name>
</trkpt>
<trkpt lat="48.938533" lon="8.668750">
<ele>345.5</ele>
<speed>4.3</speed>
<course>351.0</course>
<desc>Speed 4.3 km/h Distance 8.10 km</desc>
<time>2010-03-03T17:25:07.15</time>
<name>5251</name>
</trkpt>
<trkpt lat="48.938547" lon="8.668747">
<ele>344.0</ele>
<speed>4.4</speed>
<course>326.6</course>
<desc>Speed 4.4 km/h Distance 8.10 km</desc>
<time>2010-03-03T17:25:08.14</time>
<name>5252</name>
</trkpt>
<trkpt lat="48.938560" lon="8.668733">
<ele>344.0</ele>
<speed>5.2</speed>
<course>318.8</course>
<desc>Speed 5.2 km/h Distance 8.11 km</desc>
<time>2010-03-03T17:25:09.15</time>
<name>5253</name>
</trkpt>
<trkpt lat="48.938570" lon="8.668720">
<ele>344.0</ele>
<speed>4.6</speed>
<course>338.5</course>
<desc>Speed 4.6 km/h Distance 8.11 km</desc>
<time>2010-03-03T17:25:10.15</time>
<name>5254</name>
</trkpt>
<trkpt lat="48.938587" lon="8.668710">
<ele>342.5</ele>
<speed>5.3</speed>
<course>323.4</course>
<desc>Speed 5.3 km/h Distance 8.11 km</desc>
<time>2010-03-03T17:25:11.16</time>
<name>5255</name>
</trkpt>
<trkpt lat="48.938600" lon="8.668695">
<ele>342.5</ele>
<speed>5.0</speed>
<course>315.3</course>
<desc>Speed 5.0 km/h Distance 8.11 km</desc>
<time>2010-03-03T17:25:12.15</time>
<name>5256</name>
</trkpt>
<trkpt lat="48.938613" lon="8.668675">
<ele>342.5</ele>
<speed>5.7</speed>
<course>302.3</course>
<desc>Speed 5.7 km/h Distance 8.11 km</desc>
<time>2010-03-03T17:25:13.15</time>
<name>5257</name>
</trkpt>
<trkpt lat="48.938622" lon="8.668655">
<ele>343.5</ele>
<speed>4.9</speed>
<course>293.5</course>
<desc>Speed 4.9 km/h Distance 8.11 km</desc>
<time>2010-03-03T17:25:14.14</time>
<name>5258</name>
</trkpt>
<trkpt lat="48.938628" lon="8.668632">
<ele>344.5</ele>
<speed>4.6</speed>
<course>304.7</course>
<desc>Speed 4.6 km/h Distance 8.12 km</desc>
<time>2010-03-03T17:25:15.14</time>
<name>5259</name>
</trkpt>
<trkpt lat="48.938637" lon="8.668613">
<ele>345.0</ele>
<speed>4.6</speed>
<course>315.4</course>
<desc>Speed 4.6 km/h Distance 8.12 km</desc>
<time>2010-03-03T17:25:16.14</time>
<name>5260</name>
</trkpt>
<trkpt lat="48.938647" lon="8.668598">
<ele>345.5</ele>
<speed>4.1</speed>
<course>310.2</course>
<desc>Speed 4.1 km/h Distance 8.12 km</desc>
<time>2010-03-03T17:25:17.14</time>
<name>5261</name>
</trkpt>
<trkpt lat="48.938655" lon="8.668583">
<ele>345.5</ele>
<speed>4.5</speed>
<course>323.4</course>
<desc>Speed 4.5 km/h Distance 8.12 km</desc>
<time>2010-03-03T17:25:18.14</time>
<name>5262</name>
</trkpt>
<trkpt lat="48.938668" lon="8.668568">
<ele>346.0</ele>
<speed>5.1</speed>
<course>318.8</course>
<desc>Speed 5.1 km/h Distance 8.12 km</desc>
<time>2010-03-03T17:25:19.15</time>
<name>5263</name>
</trkpt>
<trkpt lat="48.938678" lon="8.668555">
<ele>346.0</ele>
<speed>4.2</speed>
<course>316.7</course>
<desc>Speed 4.2 km/h Distance 8.12 km</desc>
<time>2010-03-03T17:25:20.14</time>
<name>5264</name>
</trkpt>
<trkpt lat="48.938690" lon="8.668538">
<ele>346.0</ele>
<speed>4.1</speed>
<course>311.6</course>
<desc>Speed 4.1 km/h Distance 8.13 km</desc>
<time>2010-03-03T17:25:21.14</time>
<name>5265</name>
</trkpt>
<trkpt lat="48.938702" lon="8.668518">
<ele>346.5</ele>
<speed>5.3</speed>
<course>315.5</course>
<desc>Speed 5.3 km/h Distance 8.13 km</desc>
<time>2010-03-03T17:25:22.14</time>
<name>5266</name>
</trkpt>
<trkpt lat="48.938712" lon="8.668503">
<ele>347.0</ele>
<speed>4.2</speed>
<course>323.1</course>
<desc>Speed 4.2 km/h Distance 8.13 km</desc>
<time>2010-03-03T17:25:23.14</time>
<name>5267</name>
</trkpt>
<trkpt lat="48.938723" lon="8.668490">
<ele>347.5</ele>
<speed>4.2</speed>
<course>314.1</course>
<desc>Speed 4.2 km/h Distance 8.13 km</desc>
<time>2010-03-03T17:25:24.13</time>
<name>5268</name>
</trkpt>
<trkpt lat="48.938735" lon="8.668472">
<ele>348.0</ele>
<speed>5.3</speed>
<course>311.6</course>
<desc>Speed 5.3 km/h Distance 8.13 km</desc>
<time>2010-03-03T17:25:25.14</time>
<name>5269</name>
</trkpt>
<trkpt lat="48.938747" lon="8.668452">
<ele>349.0</ele>
<speed>5.7</speed>
<course>317.9</course>
<desc>Speed 5.7 km/h Distance 8.14 km</desc>
<time>2010-03-03T17:25:26.13</time>
<name>5270</name>
</trkpt>
<trkpt lat="48.938760" lon="8.668433">
<ele>349.5</ele>
<speed>5.9</speed>
<course>326.6</course>
<desc>Speed 5.9 km/h Distance 8.14 km</desc>
<time>2010-03-03T17:25:27.13</time>
<name>5271</name>
</trkpt>
<trkpt lat="48.938773" lon="8.668420">
<ele>350.0</ele>
<speed>5.1</speed>
<course>323.1</course>
<desc>Speed 5.1 km/h Distance 8.14 km</desc>
<time>2010-03-03T17:25:28.13</time>
<name>5272</name>
</trkpt>
<trkpt lat="48.938785" lon="8.668407">
<ele>350.0</ele>
<speed>4.8</speed>
<course>318.8</course>
<desc>Speed 4.8 km/h Distance 8.14 km</desc>
<time>2010-03-03T17:25:29.13</time>
<name>5273</name>
</trkpt>
<trkpt lat="48.938795" lon="8.668393">
<ele>350.5</ele>
<speed>4.2</speed>
<course>319.9</course>
<desc>Speed 4.2 km/h Distance 8.14 km</desc>
<time>2010-03-03T17:25:30.14</time>
<name>5274</name>
</trkpt>
<trkpt lat="48.938807" lon="8.668378">
<ele>351.0</ele>
<speed>5.1</speed>
<course>323.1</course>
<desc>Speed 5.1 km/h Distance 8.14 km</desc>
<time>2010-03-03T17:25:31.14</time>
<name>5275</name>
</trkpt>
<trkpt lat="48.938818" lon="8.668365">
<ele>351.0</ele>
<speed>5.1</speed>
<course>312.4</course>
<desc>Speed 5.1 km/h Distance 8.15 km</desc>
<time>2010-03-03T17:25:32.13</time>
<name>5276</name>
</trkpt>
<trkpt lat="48.938828" lon="8.668348">
<ele>350.5</ele>
<speed>5.2</speed>
<course>323.0</course>
<desc>Speed 5.2 km/h Distance 8.15 km</desc>
<time>2010-03-03T17:25:33.13</time>
<name>5277</name>
</trkpt>
<trkpt lat="48.938840" lon="8.668335">
<ele>350.5</ele>
<speed>5.1</speed>
<course>319.8</course>
<desc>Speed 5.1 km/h Distance 8.15 km</desc>
<time>2010-03-03T17:25:34.13</time>
<name>5278</name>
</trkpt>
<trkpt lat="48.938852" lon="8.668320">
<ele>350.5</ele>
<speed>4.5</speed>
<course>326.7</course>
<desc>Speed 4.5 km/h Distance 8.15 km</desc>
<time>2010-03-03T17:25:35.14</time>
<name>5279</name>
</trkpt>
<trkpt lat="48.938863" lon="8.668308">
<ele>350.0</ele>
<speed>5.1</speed>
<course>319.8</course>
<desc>Speed 5.1 km/h Distance 8.15 km</desc>
<time>2010-03-03T17:25:36.14</time>
<name>5280</name>
</trkpt>
<trkpt lat="48.938875" lon="8.668293">
<ele>350.0</ele>
<speed>4.6</speed>
<course>321.9</course>
<desc>Speed 4.6 km/h Distance 8.15 km</desc>
<time>2010-03-03T17:25:37.16</time>
<name>5281</name>
</trkpt>
<trkpt lat="48.938883" lon="8.668283">
<ele>350.5</ele>
<speed>3.9</speed>
<course>1.2</course>
<desc>Speed 3.9 km/h Distance 8.15 km</desc>
<time>2010-03-03T17:25:38.13</time>
<name>5282</name>
</trkpt>
<trkpt lat="48.938897" lon="8.668283">
<ele>349.0</ele>
<speed>4.2</speed>
<course>323.1</course>
<desc>Speed 4.2 km/h Distance 8.16 km</desc>
<time>2010-03-03T17:25:39.13</time>
<name>5283</name>
</trkpt>
<trkpt lat="48.938908" lon="8.668270">
<ele>349.0</ele>
<speed>4.7</speed>
<course>323.1</course>
<desc>Speed 4.7 km/h Distance 8.16 km</desc>
<time>2010-03-03T17:25:40.13</time>
<name>5284</name>
</trkpt>
<trkpt lat="48.938920" lon="8.668257">
<ele>349.5</ele>
<speed>4.7</speed>
<course>333.8</course>
<desc>Speed 4.7 km/h Distance 8.16 km</desc>
<time>2010-03-03T17:25:41.12</time>
<name>5285</name>
</trkpt>
<trkpt lat="48.938933" lon="8.668247">
<ele>349.5</ele>
<speed>4.5</speed>
<course>333.6</course>
<desc>Speed 4.5 km/h Distance 8.16 km</desc>
<time>2010-03-03T17:25:42.12</time>
<name>5286</name>
</trkpt>
<trkpt lat="48.938947" lon="8.668237">
<ele>350.0</ele>
<speed>4.9</speed>
<course>322.5</course>
<desc>Speed 4.9 km/h Distance 8.16 km</desc>
<time>2010-03-03T17:25:43.13</time>
<name>5287</name>
</trkpt>
<trkpt lat="48.938957" lon="8.668225">
<ele>350.0</ele>
<speed>4.7</speed>
<course>318.8</course>
<desc>Speed 4.7 km/h Distance 8.16 km</desc>
<time>2010-03-03T17:25:44.13</time>
<name>5288</name>
</trkpt>
<trkpt lat="48.938967" lon="8.668212">
<ele>350.5</ele>
<speed>4.2</speed>
<course>312.4</course>
<desc>Speed 4.2 km/h Distance 8.17 km</desc>
<time>2010-03-03T17:25:45.13</time>
<name>5289</name>
</trkpt>
<trkpt lat="48.938977" lon="8.668195">
<ele>351.0</ele>
<speed>4.3</speed>
<course>300.3</course>
<desc>Speed 4.3 km/h Distance 8.17 km</desc>
<time>2010-03-03T17:25:46.13</time>
<name>5290</name>
</trkpt>
<trkpt lat="48.938985" lon="8.668173">
<ele>352.5</ele>
<speed>4.8</speed>
<course>326.6</course>
<desc>Speed 4.8 km/h Distance 8.17 km</desc>
<time>2010-03-03T17:25:47.13</time>
<name>5291</name>
</trkpt>
<trkpt lat="48.938998" lon="8.668160">
<ele>353.0</ele>
<speed>4.8</speed>
<course>319.7</course>
<desc>Speed 4.8 km/h Distance 8.17 km</desc>
<time>2010-03-03T17:25:48.13</time>
<name>5292</name>
</trkpt>
<trkpt lat="48.939010" lon="8.668145">
<ele>353.5</ele>
<speed>4.6</speed>
<course>307.2</course>
<desc>Speed 4.6 km/h Distance 8.17 km</desc>
<time>2010-03-03T17:25:49.13</time>
<name>5293</name>
</trkpt>
<trkpt lat="48.939020" lon="8.668125">
<ele>354.0</ele>
<speed>5.0</speed>
<course>336.3</course>
<desc>Speed 5.0 km/h Distance 8.17 km</desc>
<time>2010-03-03T17:25:50.13</time>
<name>5294</name>
</trkpt>
<trkpt lat="48.939035" lon="8.668115">
<ele>352.5</ele>
<speed>4.9</speed>
<course>323.5</course>
<desc>Speed 4.9 km/h Distance 8.18 km</desc>
<time>2010-03-03T17:25:51.13</time>
<name>5295</name>
</trkpt>
<trkpt lat="48.939048" lon="8.668100">
<ele>352.5</ele>
<speed>4.5</speed>
<course>318.7</course>
<desc>Speed 4.5 km/h Distance 8.18 km</desc>
<time>2010-03-03T17:25:52.13</time>
<name>5296</name>
</trkpt>
<trkpt lat="48.939058" lon="8.668087">
<ele>353.0</ele>
<speed>4.5</speed>
<course>319.7</course>
<desc>Speed 4.5 km/h Distance 8.18 km</desc>
<time>2010-03-03T17:25:53.12</time>
<name>5297</name>
</trkpt>
<trkpt lat="48.939070" lon="8.668072">
<ele>353.0</ele>
<speed>4.1</speed>
<course>301.3</course>
<desc>Speed 4.1 km/h Distance 8.18 km</desc>
<time>2010-03-03T17:25:54.12</time>
<name>5298</name>
</trkpt>
<trkpt lat="48.939077" lon="8.668055">
<ele>353.5</ele>
<speed>4.0</speed>
<course>307.3</course>
<desc>Speed 4.0 km/h Distance 8.18 km</desc>
<time>2010-03-03T17:25:55.12</time>
<name>5299</name>
</trkpt>
<trkpt lat="48.939087" lon="8.668035">
<ele>354.5</ele>
<speed>4.8</speed>
<course>326.7</course>
<desc>Speed 4.8 km/h Distance 8.18 km</desc>
<time>2010-03-03T17:25:56.12</time>
<name>5300</name>
</trkpt>
<trkpt lat="48.939098" lon="8.668023">
<ele>355.0</ele>
<speed>4.0</speed>
<course>326.9</course>
<desc>Speed 4.0 km/h Distance 8.19 km</desc>
<time>2010-03-03T17:25:57.12</time>
<name>5301</name>
</trkpt>
<trkpt lat="48.939110" lon="8.668012">
<ele>355.0</ele>
<speed>4.7</speed>
<course>329.7</course>
<desc>Speed 4.7 km/h Distance 8.19 km</desc>
<time>2010-03-03T17:25:58.12</time>
<name>5302</name>
</trkpt>
<trkpt lat="48.939125" lon="8.667998">
<ele>354.5</ele>
<speed>5.2</speed>
<course>315.5</course>
<desc>Speed 5.2 km/h Distance 8.19 km</desc>
<time>2010-03-03T17:25:59.12</time>
<name>5303</name>
</trkpt>
<trkpt lat="48.939135" lon="8.667983">
<ele>354.5</ele>
<speed>4.2</speed>
<course>330.2</course>
<desc>Speed 4.2 km/h Distance 8.19 km</desc>
<time>2010-03-03T17:26:00.11</time>
<name>5304</name>
</trkpt>
<trkpt lat="48.939148" lon="8.667972">
<ele>354.0</ele>
<speed>5.0</speed>
<course>315.4</course>
<desc>Speed 5.0 km/h Distance 8.19 km</desc>
<time>2010-03-03T17:26:01.12</time>
<name>5305</name>
</trkpt>
<trkpt lat="48.939162" lon="8.667952">
<ele>354.5</ele>
<speed>5.4</speed>
<course>333.8</course>
<desc>Speed 5.4 km/h Distance 8.19 km</desc>
<time>2010-03-03T17:26:02.11</time>
<name>5306</name>
</trkpt>
<trkpt lat="48.939175" lon="8.667942">
<ele>354.0</ele>
<speed>3.9</speed>
<course>316.7</course>
<desc>Speed 3.9 km/h Distance 8.20 km</desc>
<time>2010-03-03T17:26:03.11</time>
<name>5307</name>
</trkpt>
<trkpt lat="48.939187" lon="8.667925">
<ele>354.0</ele>
<speed>4.7</speed>
<course>341.9</course>
<desc>Speed 4.7 km/h Distance 8.20 km</desc>
<time>2010-03-03T17:26:04.11</time>
<name>5308</name>
</trkpt>
<trkpt lat="48.939200" lon="8.667918">
<ele>352.5</ele>
<speed>4.3</speed>
<course>316.7</course>
<desc>Speed 4.3 km/h Distance 8.20 km</desc>
<time>2010-03-03T17:26:05.11</time>
<name>5309</name>
</trkpt>
<trkpt lat="48.939212" lon="8.667902">
<ele>353.0</ele>
<speed>4.9</speed>
<course>318.7</course>
<desc>Speed 4.9 km/h Distance 8.20 km</desc>
<time>2010-03-03T17:26:06.12</time>
<name>5310</name>
</trkpt>
<trkpt lat="48.939222" lon="8.667888">
<ele>353.0</ele>
<speed>4.1</speed>
<course>311.6</course>
<desc>Speed 4.1 km/h Distance 8.20 km</desc>
<time>2010-03-03T17:26:07.11</time>
<name>5311</name>
</trkpt>
<trkpt lat="48.939233" lon="8.667868">
<ele>353.5</ele>
<speed>5.1</speed>
<course>315.5</course>
<desc>Speed 5.1 km/h Distance 8.21 km</desc>
<time>2010-03-03T17:26:08.11</time>
<name>5312</name>
</trkpt>
<trkpt lat="48.939247" lon="8.667848">
<ele>354.0</ele>
<speed>5.1</speed>
<course>309.4</course>
<desc>Speed 5.1 km/h Distance 8.21 km</desc>
<time>2010-03-03T17:26:09.12</time>
<name>5313</name>
</trkpt>
<trkpt lat="48.939258" lon="8.667827">
<ele>354.5</ele>
<speed>4.7</speed>
<course>323.5</course>
<desc>Speed 4.7 km/h Distance 8.21 km</desc>
<time>2010-03-03T17:26:10.11</time>
<name>5314</name>
</trkpt>
<trkpt lat="48.939272" lon="8.667812">
<ele>354.5</ele>
<speed>5.2</speed>
<course>304.7</course>
<desc>Speed 5.2 km/h Distance 8.21 km</desc>
<time>2010-03-03T17:26:11.12</time>
<name>5315</name>
</trkpt>
<trkpt lat="48.939280" lon="8.667793">
<ele>354.5</ele>
<speed>4.9</speed>
<course>320.6</course>
<desc>Speed 4.9 km/h Distance 8.21 km</desc>
<time>2010-03-03T17:26:12.11</time>
<name>5316</name>
</trkpt>
<trkpt lat="48.939293" lon="8.667777">
<ele>354.5</ele>
<speed>5.0</speed>
<course>316.7</course>
<desc>Speed 5.0 km/h Distance 8.21 km</desc>
<time>2010-03-03T17:26:13.11</time>
<name>5317</name>
</trkpt>
<trkpt lat="48.939305" lon="8.667760">
<ele>354.5</ele>
<speed>5.1</speed>
<course>315.3</course>
<desc>Speed 5.1 km/h Distance 8.22 km</desc>
<time>2010-03-03T17:26:14.11</time>
<name>5318</name>
</trkpt>
<trkpt lat="48.939318" lon="8.667740">
<ele>355.0</ele>
<speed>5.6</speed>
<course>323.4</course>
<desc>Speed 5.6 km/h Distance 8.22 km</desc>
<time>2010-03-03T17:26:15.11</time>
<name>5319</name>
</trkpt>
<trkpt lat="48.939332" lon="8.667725">
<ele>355.0</ele>
<speed>5.6</speed>
<course>283.7</course>
<desc>Speed 5.6 km/h Distance 8.22 km</desc>
<time>2010-03-03T17:26:16.11</time>
<name>5320</name>
</trkpt>
<trkpt lat="48.939338" lon="8.667683">
<ele>359.5</ele>
<speed>4.8</speed>
<course>316.8</course>
<desc>Speed 4.8 km/h Distance 8.22 km</desc>
<time>2010-03-03T17:26:17.10</time>
<name>5321</name>
</trkpt>
<trkpt lat="48.939350" lon="8.667667">
<ele>359.5</ele>
<speed>5.4</speed>
<course>326.6</course>
<desc>Speed 5.4 km/h Distance 8.23 km</desc>
<time>2010-03-03T17:26:18.11</time>
<name>5322</name>
</trkpt>
<trkpt lat="48.939363" lon="8.667653">
<ele>359.0</ele>
<speed>4.5</speed>
<course>337.4</course>
<desc>Speed 4.5 km/h Distance 8.23 km</desc>
<time>2010-03-03T17:26:19.10</time>
<name>5323</name>
</trkpt>
<trkpt lat="48.939377" lon="8.667645">
<ele>358.0</ele>
<speed>5.1</speed>
<course>333.1</course>
<desc>Speed 5.1 km/h Distance 8.23 km</desc>
<time>2010-03-03T17:26:20.10</time>
<name>5324</name>
</trkpt>
<trkpt lat="48.939392" lon="8.667633">
<ele>358.0</ele>
<speed>4.9</speed>
<course>319.8</course>
<desc>Speed 4.9 km/h Distance 8.23 km</desc>
<time>2010-03-03T17:26:21.10</time>
<name>5325</name>
</trkpt>
<trkpt lat="48.939403" lon="8.667618">
<ele>358.0</ele>
<speed>4.9</speed>
<course>329.6</course>
<desc>Speed 4.9 km/h Distance 8.23 km</desc>
<time>2010-03-03T17:26:22.10</time>
<name>5326</name>
</trkpt>
<trkpt lat="48.939418" lon="8.667605">
<ele>357.5</ele>
<speed>5.2</speed>
<course>326.7</course>
<desc>Speed 5.2 km/h Distance 8.23 km</desc>
<time>2010-03-03T17:26:23.10</time>
<name>5327</name>
</trkpt>
<trkpt lat="48.939430" lon="8.667593">
<ele>357.5</ele>
<speed>4.8</speed>
<course>330.2</course>
<desc>Speed 4.8 km/h Distance 8.24 km</desc>
<time>2010-03-03T17:26:24.10</time>
<name>5328</name>
</trkpt>
<trkpt lat="48.939443" lon="8.667582">
<ele>356.5</ele>
<speed>4.7</speed>
<course>320.6</course>
<desc>Speed 4.7 km/h Distance 8.24 km</desc>
<time>2010-03-03T17:26:25.10</time>
<name>5329</name>
</trkpt>
<trkpt lat="48.939457" lon="8.667565">
<ele>356.0</ele>
<speed>4.8</speed>
<course>320.5</course>
<desc>Speed 4.8 km/h Distance 8.24 km</desc>
<time>2010-03-03T17:26:26.11</time>
<name>5330</name>
</trkpt>
<trkpt lat="48.939470" lon="8.667548">
<ele>356.0</ele>
<speed>4.6</speed>
<course>295.4</course>
<desc>Speed 4.6 km/h Distance 8.24 km</desc>
<time>2010-03-03T17:26:27.11</time>
<name>5331</name>
</trkpt>
<trkpt lat="48.939478" lon="8.667522">
<ele>357.5</ele>
<speed>5.9</speed>
<course>301.4</course>
<desc>Speed 5.9 km/h Distance 8.24 km</desc>
<time>2010-03-03T17:26:28.10</time>
<name>5332</name>
</trkpt>
<trkpt lat="48.939488" lon="8.667497">
<ele>358.0</ele>
<speed>5.1</speed>
<course>333.0</course>
<desc>Speed 5.1 km/h Distance 8.25 km</desc>
<time>2010-03-03T17:26:29.10</time>
<name>5333</name>
</trkpt>
<trkpt lat="48.939503" lon="8.667485">
<ele>358.0</ele>
<speed>5.3</speed>
<course>332.8</course>
<desc>Speed 5.3 km/h Distance 8.25 km</desc>
<time>2010-03-03T17:26:30.10</time>
<name>5334</name>
</trkpt>
<trkpt lat="48.939518" lon="8.667473">
<ele>357.5</ele>
<speed>5.1</speed>
<course>332.8</course>
<desc>Speed 5.1 km/h Distance 8.25 km</desc>
<time>2010-03-03T17:26:31.10</time>
<name>5335</name>
</trkpt>
<trkpt lat="48.939533" lon="8.667462">
<ele>357.0</ele>
<speed>5.0</speed>
<course>332.8</course>
<desc>Speed 5.0 km/h Distance 8.25 km</desc>
<time>2010-03-03T17:26:32.10</time>
<name>5336</name>
</trkpt>
<trkpt lat="48.939548" lon="8.667450">
<ele>355.5</ele>
<speed>5.2</speed>
<course>317.9</course>
<desc>Speed 5.2 km/h Distance 8.25 km</desc>
<time>2010-03-03T17:26:33.10</time>
<name>5337</name>
</trkpt>
<trkpt lat="48.939562" lon="8.667432">
<ele>355.5</ele>
<speed>5.3</speed>
<course>311.6</course>
<desc>Speed 5.3 km/h Distance 8.26 km</desc>
<time>2010-03-03T17:26:34.09</time>
<name>5338</name>
</trkpt>
<trkpt lat="48.939573" lon="8.667412">
<ele>355.5</ele>
<speed>5.2</speed>
<course>311.5</course>
<desc>Speed 5.2 km/h Distance 8.26 km</desc>
<time>2010-03-03T17:26:35.09</time>
<name>5339</name>
</trkpt>
<trkpt lat="48.939585" lon="8.667392">
<ele>355.5</ele>
<speed>5.5</speed>
<course>329.7</course>
<desc>Speed 5.5 km/h Distance 8.26 km</desc>
<time>2010-03-03T17:26:36.09</time>
<name>5340</name>
</trkpt>
<trkpt lat="48.939600" lon="8.667378">
<ele>356.0</ele>
<speed>5.5</speed>
<course>324.0</course>
<desc>Speed 5.5 km/h Distance 8.26 km</desc>
<time>2010-03-03T17:26:37.09</time>
<name>5341</name>
</trkpt>
<trkpt lat="48.939615" lon="8.667362">
<ele>356.0</ele>
<speed>6.3</speed>
<course>311.6</course>
<desc>Speed 6.3 km/h Distance 8.26 km</desc>
<time>2010-03-03T17:26:38.09</time>
<name>5342</name>
</trkpt>
<trkpt lat="48.939627" lon="8.667342">
<ele>356.5</ele>
<speed>5.3</speed>
<course>311.6</course>
<desc>Speed 5.3 km/h Distance 8.26 km</desc>
<time>2010-03-03T17:26:39.10</time>
<name>5343</name>
</trkpt>
<trkpt lat="48.939638" lon="8.667322">
<ele>357.0</ele>
<speed>5.5</speed>
<course>330.2</course>
<desc>Speed 5.5 km/h Distance 8.27 km</desc>
<time>2010-03-03T17:26:40.09</time>
<name>5344</name>
</trkpt>
<trkpt lat="48.939652" lon="8.667310">
<ele>356.5</ele>
<speed>5.2</speed>
<course>319.8</course>
<desc>Speed 5.2 km/h Distance 8.27 km</desc>
<time>2010-03-03T17:26:41.09</time>
<name>5345</name>
</trkpt>
<trkpt lat="48.939663" lon="8.667295">
<ele>357.0</ele>
<speed>5.2</speed>
<course>304.1</course>
<desc>Speed 5.2 km/h Distance 8.27 km</desc>
<time>2010-03-03T17:26:42.09</time>
<name>5346</name>
</trkpt>
<trkpt lat="48.939670" lon="8.667280">
<ele>357.0</ele>
<speed>4.1</speed>
<course>315.5</course>
<desc>Speed 4.1 km/h Distance 8.27 km</desc>
<time>2010-03-03T17:26:43.09</time>
<name>5347</name>
</trkpt>
<trkpt lat="48.939680" lon="8.667265">
<ele>357.5</ele>
<speed>3.7</speed>
<course>313.6</course>
<desc>Speed 3.7 km/h Distance 8.27 km</desc>
<time>2010-03-03T17:26:44.09</time>
<name>5348</name>
</trkpt>
<trkpt lat="48.939688" lon="8.667252">
<ele>357.5</ele>
<speed>4.3</speed>
<course>298.6</course>
<desc>Speed 4.3 km/h Distance 8.27 km</desc>
<time>2010-03-03T17:26:45.09</time>
<name>5349</name>
</trkpt>
<trkpt lat="48.939697" lon="8.667228">
<ele>358.5</ele>
<speed>6.0</speed>
<course>351.0</course>
<desc>Speed 6.0 km/h Distance 8.28 km</desc>
<time>2010-03-03T17:26:46.09</time>
<name>5350</name>
</trkpt>
<trkpt lat="48.939710" lon="8.667225">
<ele>357.0</ele>
<speed>4.8</speed>
<course>322.5</course>
<desc>Speed 4.8 km/h Distance 8.28 km</desc>
<time>2010-03-03T17:26:47.09</time>
<name>5351</name>
</trkpt>
<trkpt lat="48.939720" lon="8.667213">
<ele>357.0</ele>
<speed>4.6</speed>
<course>318.6</course>
<desc>Speed 4.6 km/h Distance 8.28 km</desc>
<time>2010-03-03T17:26:48.08</time>
<name>5352</name>
</trkpt>
<trkpt lat="48.939730" lon="8.667200">
<ele>357.0</ele>
<speed>3.9</speed>
<course>303.9</course>
<desc>Speed 3.9 km/h Distance 8.28 km</desc>
<time>2010-03-03T17:26:49.08</time>
<name>5353</name>
</trkpt>
<trkpt lat="48.939737" lon="8.667185">
<ele>357.0</ele>
<speed>3.4</speed>
<course>299.0</course>
<desc>Speed 3.4 km/h Distance 8.28 km</desc>
<time>2010-03-03T17:26:50.08</time>
<name>5354</name>
</trkpt>
<trkpt lat="48.939757" lon="8.667130">
<ele>360.5</ele>
<speed>5.0</speed>
<course>339.8</course>
<desc>Speed 5.0 km/h Distance 8.29 km</desc>
<time>2010-03-03T17:26:52.09</time>
<name>5355</name>
</trkpt>
<trkpt lat="48.939768" lon="8.667123">
<ele>360.0</ele>
<speed>4.6</speed>
<course>312.4</course>
<desc>Speed 4.6 km/h Distance 8.29 km</desc>
<time>2010-03-03T17:26:53.08</time>
<name>5356</name>
</trkpt>
<trkpt lat="48.939778" lon="8.667107">
<ele>360.0</ele>
<speed>5.1</speed>
<course>320.6</course>
<desc>Speed 5.1 km/h Distance 8.29 km</desc>
<time>2010-03-03T17:26:54.09</time>
<name>5357</name>
</trkpt>
<trkpt lat="48.939792" lon="8.667090">
<ele>360.5</ele>
<speed>5.3</speed>
<course>318.8</course>
<desc>Speed 5.3 km/h Distance 8.29 km</desc>
<time>2010-03-03T17:26:55.09</time>
<name>5358</name>
</trkpt>
<trkpt lat="48.939802" lon="8.667077">
<ele>360.0</ele>
<speed>5.1</speed>
<course>323.1</course>
<desc>Speed 5.1 km/h Distance 8.29 km</desc>
<time>2010-03-03T17:26:56.09</time>
<name>5359</name>
</trkpt>
<trkpt lat="48.939813" lon="8.667063">
<ele>359.0</ele>
<speed>5.1</speed>
<course>290.8</course>
<desc>Speed 5.1 km/h Distance 8.29 km</desc>
<time>2010-03-03T17:26:57.08</time>
<name>5360</name>
</trkpt>
<trkpt lat="48.939820" lon="8.667037">
<ele>360.5</ele>
<speed>6.1</speed>
<course>319.8</course>
<desc>Speed 6.1 km/h Distance 8.30 km</desc>
<time>2010-03-03T17:26:58.08</time>
<name>5361</name>
</trkpt>
<trkpt lat="48.939832" lon="8.667022">
<ele>361.0</ele>
<speed>4.8</speed>
<course>326.8</course>
<desc>Speed 4.8 km/h Distance 8.30 km</desc>
<time>2010-03-03T17:26:59.08</time>
<name>5362</name>
</trkpt>
<trkpt lat="48.939842" lon="8.667012">
<ele>360.0</ele>
<speed>4.2</speed>
<course>326.6</course>
<desc>Speed 4.2 km/h Distance 8.30 km</desc>
<time>2010-03-03T17:27:00.08</time>
<name>5363</name>
</trkpt>
<trkpt lat="48.939853" lon="8.667000">
<ele>360.0</ele>
<speed>4.5</speed>
<course>330.0</course>
<desc>Speed 4.5 km/h Distance 8.30 km</desc>
<time>2010-03-03T17:27:01.08</time>
<name>5364</name>
</trkpt>
<trkpt lat="48.939867" lon="8.666988">
<ele>359.5</ele>
<speed>4.7</speed>
<course>326.6</course>
<desc>Speed 4.7 km/h Distance 8.30 km</desc>
<time>2010-03-03T17:27:02.08</time>
<name>5365</name>
</trkpt>
<trkpt lat="48.939878" lon="8.666977">
<ele>359.0</ele>
<speed>4.3</speed>
<course>326.7</course>
<desc>Speed 4.3 km/h Distance 8.30 km</desc>
<time>2010-03-03T17:27:03.08</time>
<name>5366</name>
</trkpt>
<trkpt lat="48.939893" lon="8.666962">
<ele>358.0</ele>
<speed>5.5</speed>
<course>309.6</course>
<desc>Speed 5.5 km/h Distance 8.31 km</desc>
<time>2010-03-03T17:27:04.08</time>
<name>5367</name>
</trkpt>
<trkpt lat="48.939903" lon="8.666943">
<ele>358.5</ele>
<speed>4.7</speed>
<course>326.6</course>
<desc>Speed 4.7 km/h Distance 8.31 km</desc>
<time>2010-03-03T17:27:05.08</time>
<name>5368</name>
</trkpt>
<trkpt lat="48.939917" lon="8.666930">
<ele>358.5</ele>
<speed>5.3</speed>
<course>333.8</course>
<desc>Speed 5.3 km/h Distance 8.31 km</desc>
<time>2010-03-03T17:27:06.08</time>
<name>5369</name>
</trkpt>
<trkpt lat="48.939930" lon="8.666920">
<ele>358.0</ele>
<speed>4.4</speed>
<course>310.9</course>
<desc>Speed 4.4 km/h Distance 8.31 km</desc>
<time>2010-03-03T17:27:07.08</time>
<name>5370</name>
</trkpt>
<trkpt lat="48.939937" lon="8.666908">
<ele>358.0</ele>
<speed>3.7</speed>
<course>307.3</course>
<desc>Speed 3.7 km/h Distance 8.31 km</desc>
<time>2010-03-03T17:27:08.07</time>
<name>5371</name>
</trkpt>
<trkpt lat="48.939945" lon="8.666892">
<ele>358.5</ele>
<speed>3.6</speed>
<course>314.1</course>
<desc>Speed 3.6 km/h Distance 8.31 km</desc>
<time>2010-03-03T17:27:09.07</time>
<name>5372</name>
</trkpt>
<trkpt lat="48.939957" lon="8.666873">
<ele>359.0</ele>
<speed>4.6</speed>
<course>326.8</course>
<desc>Speed 4.6 km/h Distance 8.32 km</desc>
<time>2010-03-03T17:27:10.08</time>
<name>5373</name>
</trkpt>
<trkpt lat="48.939970" lon="8.666860">
<ele>359.0</ele>
<speed>5.4</speed>
<course>329.7</course>
<desc>Speed 5.4 km/h Distance 8.32 km</desc>
<time>2010-03-03T17:27:11.09</time>
<name>5374</name>
</trkpt>
<trkpt lat="48.939985" lon="8.666847">
<ele>359.0</ele>
<speed>5.2</speed>
<course>323.4</course>
<desc>Speed 5.2 km/h Distance 8.32 km</desc>
<time>2010-03-03T17:27:12.08</time>
<name>5375</name>
</trkpt>
<trkpt lat="48.939998" lon="8.666832">
<ele>358.0</ele>
<speed>4.8</speed>
<course>313.1</course>
<desc>Speed 4.8 km/h Distance 8.32 km</desc>
<time>2010-03-03T17:27:13.08</time>
<name>5376</name>
</trkpt>
<trkpt lat="48.940012" lon="8.666810">
<ele>358.5</ele>
<speed>5.7</speed>
<course>323.1</course>
<desc>Speed 5.7 km/h Distance 8.32 km</desc>
<time>2010-03-03T17:27:14.08</time>
<name>5377</name>
</trkpt>
<trkpt lat="48.940023" lon="8.666797">
<ele>358.5</ele>
<speed>4.7</speed>
<course>323.0</course>
<desc>Speed 4.7 km/h Distance 8.33 km</desc>
<time>2010-03-03T17:27:15.07</time>
<name>5378</name>
</trkpt>
<trkpt lat="48.940035" lon="8.666783">
<ele>358.0</ele>
<speed>5.0</speed>
<course>319.8</course>
<desc>Speed 5.0 km/h Distance 8.33 km</desc>
<time>2010-03-03T17:27:16.07</time>
<name>5379</name>
</trkpt>
<trkpt lat="48.940047" lon="8.666768">
<ele>358.5</ele>
<speed>5.4</speed>
<course>320.6</course>
<desc>Speed 5.4 km/h Distance 8.33 km</desc>
<time>2010-03-03T17:27:17.08</time>
<name>5380</name>
</trkpt>
<trkpt lat="48.940060" lon="8.666752">
<ele>358.5</ele>
<speed>5.0</speed>
<course>309.6</course>
<desc>Speed 5.0 km/h Distance 8.33 km</desc>
<time>2010-03-03T17:27:18.07</time>
<name>5381</name>
</trkpt>
<trkpt lat="48.940070" lon="8.666733">
<ele>359.0</ele>
<speed>4.7</speed>
<course>337.4</course>
<desc>Speed 4.7 km/h Distance 8.33 km</desc>
<time>2010-03-03T17:27:19.08</time>
<name>5382</name>
</trkpt>
<trkpt lat="48.940083" lon="8.666725">
<ele>358.5</ele>
<speed>4.7</speed>
<course>322.5</course>
<desc>Speed 4.7 km/h Distance 8.33 km</desc>
<time>2010-03-03T17:27:20.08</time>
<name>5383</name>
</trkpt>
<trkpt lat="48.940093" lon="8.666713">
<ele>358.5</ele>
<speed>4.0</speed>
<course>315.5</course>
<desc>Speed 4.0 km/h Distance 8.34 km</desc>
<time>2010-03-03T17:27:21.07</time>
<name>5384</name>
</trkpt>
<trkpt lat="48.940103" lon="8.666698">
<ele>358.5</ele>
<speed>4.6</speed>
<course>316.8</course>
<desc>Speed 4.6 km/h Distance 8.34 km</desc>
<time>2010-03-03T17:27:22.07</time>
<name>5385</name>
</trkpt>
<trkpt lat="48.940115" lon="8.666682">
<ele>358.5</ele>
<speed>4.7</speed>
<course>326.8</course>
<desc>Speed 4.7 km/h Distance 8.34 km</desc>
<time>2010-03-03T17:27:23.07</time>
<name>5386</name>
</trkpt>
<trkpt lat="48.940128" lon="8.666668">
<ele>358.5</ele>
<speed>5.1</speed>
<course>334.0</course>
<desc>Speed 5.1 km/h Distance 8.34 km</desc>
<time>2010-03-03T17:27:24.07</time>
<name>5387</name>
</trkpt>
<trkpt lat="48.940142" lon="8.666658">
<ele>358.0</ele>
<speed>5.3</speed>
<course>336.3</course>
<desc>Speed 5.3 km/h Distance 8.34 km</desc>
<time>2010-03-03T17:27:25.07</time>
<name>5388</name>
</trkpt>
<trkpt lat="48.940157" lon="8.666648">
<ele>357.5</ele>
<speed>5.3</speed>
<course>339.9</course>
<desc>Speed 5.3 km/h Distance 8.34 km</desc>
<time>2010-03-03T17:27:26.07</time>
<name>5389</name>
</trkpt>
<trkpt lat="48.940172" lon="8.666640">
<ele>357.0</ele>
<speed>5.1</speed>
<course>347.8</course>
<desc>Speed 5.1 km/h Distance 8.35 km</desc>
<time>2010-03-03T17:27:27.07</time>
<name>5390</name>
</trkpt>
<trkpt lat="48.940187" lon="8.666635">
<ele>354.5</ele>
<speed>5.0</speed>
<course>333.8</course>
<desc>Speed 5.0 km/h Distance 8.35 km</desc>
<time>2010-03-03T17:27:28.08</time>
<name>5391</name>
</trkpt>
<trkpt lat="48.940200" lon="8.666625">
<ele>353.5</ele>
<speed>4.7</speed>
<course>315.4</course>
<desc>Speed 4.7 km/h Distance 8.35 km</desc>
<time>2010-03-03T17:27:29.07</time>
<name>5392</name>
</trkpt>
<trkpt lat="48.940210" lon="8.666610">
<ele>354.0</ele>
<speed>5.0</speed>
<course>314.1</course>
<desc>Speed 5.0 km/h Distance 8.35 km</desc>
<time>2010-03-03T17:27:30.06</time>
<name>5393</name>
</trkpt>
<trkpt lat="48.940222" lon="8.666592">
<ele>354.5</ele>
<speed>4.8</speed>
<course>311.6</course>
<desc>Speed 4.8 km/h Distance 8.35 km</desc>
<time>2010-03-03T17:27:31.06</time>
<name>5394</name>
</trkpt>
<trkpt lat="48.940233" lon="8.666572">
<ele>355.5</ele>
<speed>6.2</speed>
<course>336.5</course>
<desc>Speed 6.2 km/h Distance 8.35 km</desc>
<time>2010-03-03T17:27:32.08</time>
<name>5395</name>
</trkpt>
<trkpt lat="48.940248" lon="8.666562">
<ele>354.5</ele>
<speed>5.0</speed>
<course>329.7</course>
<desc>Speed 5.0 km/h Distance 8.36 km</desc>
<time>2010-03-03T17:27:33.06</time>
<name>5396</name>
</trkpt>
<trkpt lat="48.940263" lon="8.666548">
<ele>354.0</ele>
<speed>5.0</speed>
<course>314.1</course>
<desc>Speed 5.0 km/h Distance 8.36 km</desc>
<time>2010-03-03T17:27:34.07</time>
<name>5397</name>
</trkpt>
<trkpt lat="48.940275" lon="8.666530">
<ele>354.0</ele>
<speed>4.9</speed>
<course>323.8</course>
<desc>Speed 4.9 km/h Distance 8.36 km</desc>
<time>2010-03-03T17:27:35.06</time>
<name>5398</name>
</trkpt>
<trkpt lat="48.940290" lon="8.666513">
<ele>354.5</ele>
<speed>5.0</speed>
<course>332.3</course>
<desc>Speed 5.0 km/h Distance 8.36 km</desc>
<time>2010-03-03T17:27:36.06</time>
<name>5399</name>
</trkpt>
<trkpt lat="48.940307" lon="8.666500">
<ele>354.0</ele>
<speed>5.4</speed>
<course>323.0</course>
<desc>Speed 5.4 km/h Distance 8.36 km</desc>
<time>2010-03-03T17:27:37.06</time>
<name>5400</name>
</trkpt>
<trkpt lat="48.940318" lon="8.666487">
<ele>354.0</ele>
<speed>4.9</speed>
<course>326.6</course>
<desc>Speed 4.9 km/h Distance 8.37 km</desc>
<time>2010-03-03T17:27:38.06</time>
<name>5401</name>
</trkpt>
<trkpt lat="48.940332" lon="8.666473">
<ele>354.0</ele>
<speed>5.2</speed>
<course>326.6</course>
<desc>Speed 5.2 km/h Distance 8.37 km</desc>
<time>2010-03-03T17:27:39.07</time>
<name>5402</name>
</trkpt>
<trkpt lat="48.940345" lon="8.666460">
<ele>353.5</ele>
<speed>4.6</speed>
<course>323.1</course>
<desc>Speed 4.6 km/h Distance 8.37 km</desc>
<time>2010-03-03T17:27:40.06</time>
<name>5403</name>
</trkpt>
<trkpt lat="48.940357" lon="8.666447">
<ele>353.0</ele>
<speed>4.3</speed>
<course>332.8</course>
<desc>Speed 4.3 km/h Distance 8.37 km</desc>
<time>2010-03-03T17:27:41.06</time>
<name>5404</name>
</trkpt>
<trkpt lat="48.940372" lon="8.666435">
<ele>353.0</ele>
<speed>5.7</speed>
<course>339.9</course>
<desc>Speed 5.7 km/h Distance 8.37 km</desc>
<time>2010-03-03T17:27:42.06</time>
<name>5405</name>
</trkpt>
<trkpt lat="48.940387" lon="8.666427">
<ele>351.5</ele>
<speed>5.0</speed>
<course>326.6</course>
<desc>Speed 5.0 km/h Distance 8.38 km</desc>
<time>2010-03-03T17:27:43.07</time>
<name>5406</name>
</trkpt>
<trkpt lat="48.940400" lon="8.666413">
<ele>351.0</ele>
<speed>5.0</speed>
<course>307.3</course>
<desc>Speed 5.0 km/h Distance 8.38 km</desc>
<time>2010-03-03T17:27:44.06</time>
<name>5407</name>
</trkpt>
<trkpt lat="48.940410" lon="8.666393">
<ele>351.0</ele>
<speed>4.9</speed>
<course>312.4</course>
<desc>Speed 4.9 km/h Distance 8.38 km</desc>
<time>2010-03-03T17:27:45.07</time>
<name>5408</name>
</trkpt>
<trkpt lat="48.940420" lon="8.666377">
<ele>351.0</ele>
<speed>4.5</speed>
<course>333.6</course>
<desc>Speed 4.5 km/h Distance 8.38 km</desc>
<time>2010-03-03T17:27:46.06</time>
<name>5409</name>
</trkpt>
<trkpt lat="48.940433" lon="8.666367">
<ele>350.5</ele>
<speed>4.2</speed>
<course>319.6</course>
<desc>Speed 4.2 km/h Distance 8.38 km</desc>
<time>2010-03-03T17:27:47.06</time>
<name>5410</name>
</trkpt>
<trkpt lat="48.940445" lon="8.666352">
<ele>350.5</ele>
<speed>5.4</speed>
<course>326.6</course>
<desc>Speed 5.4 km/h Distance 8.38 km</desc>
<time>2010-03-03T17:27:48.06</time>
<name>5411</name>
</trkpt>
<trkpt lat="48.940458" lon="8.666338">
<ele>350.0</ele>
<speed>5.2</speed>
<course>323.4</course>
<desc>Speed 5.2 km/h Distance 8.39 km</desc>
<time>2010-03-03T17:27:49.06</time>
<name>5412</name>
</trkpt>
<trkpt lat="48.940472" lon="8.666323">
<ele>350.0</ele>
<speed>5.0</speed>
<course>312.4</course>
<desc>Speed 5.0 km/h Distance 8.39 km</desc>
<time>2010-03-03T17:27:50.06</time>
<name>5413</name>
</trkpt>
<trkpt lat="48.940482" lon="8.666307">
<ele>350.5</ele>
<speed>4.8</speed>
<course>326.7</course>
<desc>Speed 4.8 km/h Distance 8.39 km</desc>
<time>2010-03-03T17:27:51.06</time>
<name>5414</name>
</trkpt>
<trkpt lat="48.940493" lon="8.666295">
<ele>350.0</ele>
<speed>4.8</speed>
<course>326.6</course>
<desc>Speed 4.8 km/h Distance 8.39 km</desc>
<time>2010-03-03T17:27:52.06</time>
<name>5415</name>
</trkpt>
<trkpt lat="48.940505" lon="8.666283">
<ele>350.0</ele>
<speed>5.1</speed>
<course>307.3</course>
<desc>Speed 5.1 km/h Distance 8.39 km</desc>
<time>2010-03-03T17:27:53.05</time>
<name>5416</name>
</trkpt>
<trkpt lat="48.940513" lon="8.666267">
<ele>350.0</ele>
<speed>4.6</speed>
<course>317.2</course>
<desc>Speed 4.6 km/h Distance 8.39 km</desc>
<time>2010-03-03T17:27:54.06</time>
<name>5417</name>
</trkpt>
<trkpt lat="48.940522" lon="8.666255">
<ele>350.5</ele>
<speed>3.8</speed>
<course>309.7</course>
<desc>Speed 3.8 km/h Distance 8.40 km</desc>
<time>2010-03-03T17:27:55.06</time>
<name>5418</name>
</trkpt>
<trkpt lat="48.940532" lon="8.666237">
<ele>350.5</ele>
<speed>4.8</speed>
<course>320.6</course>
<desc>Speed 4.8 km/h Distance 8.40 km</desc>
<time>2010-03-03T17:27:56.06</time>
<name>5419</name>
</trkpt>
<trkpt lat="48.940545" lon="8.666220">
<ele>351.0</ele>
<speed>5.3</speed>
<course>315.5</course>
<desc>Speed 5.3 km/h Distance 8.40 km</desc>
<time>2010-03-03T17:27:57.05</time>
<name>5420</name>
</trkpt>
<trkpt lat="48.940555" lon="8.666205">
<ele>351.0</ele>
<speed>5.1</speed>
<course>313.6</course>
<desc>Speed 5.1 km/h Distance 8.40 km</desc>
<time>2010-03-03T17:27:58.05</time>
<name>5421</name>
</trkpt>
<trkpt lat="48.940563" lon="8.666192">
<ele>350.5</ele>
<speed>4.9</speed>
<course>304.1</course>
<desc>Speed 4.9 km/h Distance 8.40 km</desc>
<time>2010-03-03T17:27:59.06</time>
<name>5422</name>
</trkpt>
<trkpt lat="48.940570" lon="8.666177">
<ele>350.5</ele>
<speed>4.5</speed>
<course>319.8</course>
<desc>Speed 4.5 km/h Distance 8.40 km</desc>
<time>2010-03-03T17:28:00.05</time>
<name>5423</name>
</trkpt>
<trkpt lat="48.940582" lon="8.666162">
<ele>351.0</ele>
<speed>4.3</speed>
<course>326.7</course>
<desc>Speed 4.3 km/h Distance 8.40 km</desc>
<time>2010-03-03T17:28:01.06</time>
<name>5424</name>
</trkpt>
<trkpt lat="48.940597" lon="8.666147">
<ele>351.0</ele>
<speed>5.5</speed>
<course>316.7</course>
<desc>Speed 5.5 km/h Distance 8.41 km</desc>
<time>2010-03-03T17:28:02.06</time>
<name>5425</name>
</trkpt>
<trkpt lat="48.940608" lon="8.666130">
<ele>351.5</ele>
<speed>5.5</speed>
<course>312.4</course>
<desc>Speed 5.5 km/h Distance 8.41 km</desc>
<time>2010-03-03T17:28:03.05</time>
<name>5426</name>
</trkpt>
<trkpt lat="48.940618" lon="8.666113">
<ele>351.5</ele>
<speed>5.3</speed>
<course>337.9</course>
<desc>Speed 5.3 km/h Distance 8.41 km</desc>
<time>2010-03-03T17:28:04.05</time>
<name>5427</name>
</trkpt>
<trkpt lat="48.940632" lon="8.666105">
<ele>351.0</ele>
<speed>4.3</speed>
<course>326.6</course>
<desc>Speed 4.3 km/h Distance 8.41 km</desc>
<time>2010-03-03T17:28:05.06</time>
<name>5428</name>
</trkpt>
<trkpt lat="48.940645" lon="8.666092">
<ele>350.0</ele>
<speed>5.1</speed>
<course>335.3</course>
<desc>Speed 5.1 km/h Distance 8.41 km</desc>
<time>2010-03-03T17:28:06.06</time>
<name>5429</name>
</trkpt>
<trkpt lat="48.940662" lon="8.666080">
<ele>349.5</ele>
<speed>5.3</speed>
<course>326.6</course>
<desc>Speed 5.3 km/h Distance 8.42 km</desc>
<time>2010-03-03T17:28:07.05</time>
<name>5430</name>
</trkpt>
<trkpt lat="48.940677" lon="8.666065">
<ele>349.5</ele>
<speed>4.9</speed>
<course>316.7</course>
<desc>Speed 4.9 km/h Distance 8.42 km</desc>
<time>2010-03-03T17:28:08.05</time>
<name>5431</name>
</trkpt>
<trkpt lat="48.940688" lon="8.666048">
<ele>350.5</ele>
<speed>5.5</speed>
<course>318.0</course>
<desc>Speed 5.5 km/h Distance 8.42 km</desc>
<time>2010-03-03T17:28:09.05</time>
<name>5432</name>
</trkpt>
<trkpt lat="48.940702" lon="8.666030">
<ele>351.0</ele>
<speed>5.6</speed>
<course>326.6</course>
<desc>Speed 5.6 km/h Distance 8.42 km</desc>
<time>2010-03-03T17:28:10.05</time>
<name>5433</name>
</trkpt>
<trkpt lat="48.940715" lon="8.666017">
<ele>350.5</ele>
<speed>5.3</speed>
<course>329.7</course>
<desc>Speed 5.3 km/h Distance 8.42 km</desc>
<time>2010-03-03T17:28:11.06</time>
<name>5434</name>
</trkpt>
<trkpt lat="48.940730" lon="8.666003">
<ele>350.5</ele>
<speed>5.4</speed>
<course>316.8</course>
<desc>Speed 5.4 km/h Distance 8.42 km</desc>
<time>2010-03-03T17:28:12.05</time>
<name>5435</name>
</trkpt>
<trkpt lat="48.940742" lon="8.665987">
<ele>351.0</ele>
<speed>5.3</speed>
<course>316.8</course>
<desc>Speed 5.3 km/h Distance 8.43 km</desc>
<time>2010-03-03T17:28:13.05</time>
<name>5436</name>
</trkpt>
<trkpt lat="48.940753" lon="8.665970">
<ele>351.0</ele>
<speed>5.4</speed>
<course>323.5</course>
<desc>Speed 5.4 km/h Distance 8.43 km</desc>
<time>2010-03-03T17:28:14.04</time>
<name>5437</name>
</trkpt>
<trkpt lat="48.940767" lon="8.665955">
<ele>351.5</ele>
<speed>5.5</speed>
<course>332.8</course>
<desc>Speed 5.5 km/h Distance 8.43 km</desc>
<time>2010-03-03T17:28:15.04</time>
<name>5438</name>
</trkpt>
<trkpt lat="48.940782" lon="8.665943">
<ele>351.0</ele>
<speed>5.1</speed>
<course>332.8</course>
<desc>Speed 5.1 km/h Distance 8.43 km</desc>
<time>2010-03-03T17:28:16.04</time>
<name>5439</name>
</trkpt>
<trkpt lat="48.940797" lon="8.665932">
<ele>350.5</ele>
<speed>5.1</speed>
<course>335.3</course>
<desc>Speed 5.1 km/h Distance 8.43 km</desc>
<time>2010-03-03T17:28:17.04</time>
<name>5440</name>
</trkpt>
<trkpt lat="48.940813" lon="8.665920">
<ele>350.0</ele>
<speed>5.1</speed>
<course>335.3</course>
<desc>Speed 5.1 km/h Distance 8.44 km</desc>
<time>2010-03-03T17:28:18.04</time>
<name>5441</name>
</trkpt>
<trkpt lat="48.940830" lon="8.665908">
<ele>349.5</ele>
<speed>6.0</speed>
<course>340.3</course>
<desc>Speed 6.0 km/h Distance 8.44 km</desc>
<time>2010-03-03T17:28:19.04</time>
<name>5442</name>
</trkpt>
<trkpt lat="48.940848" lon="8.665898">
<ele>350.0</ele>
<speed>5.5</speed>
<course>347.4</course>
<desc>Speed 5.5 km/h Distance 8.44 km</desc>
<time>2010-03-03T17:28:20.04</time>
<name>5443</name>
</trkpt>
<trkpt lat="48.940863" lon="8.665893">
<ele>350.5</ele>
<speed>5.5</speed>
<course>346.5</course>
<desc>Speed 5.5 km/h Distance 8.44 km</desc>
<time>2010-03-03T17:28:21.04</time>
<name>5444</name>
</trkpt>
<trkpt lat="48.940877" lon="8.665888">
<ele>351.0</ele>
<speed>5.7</speed>
<course>346.5</course>
<desc>Speed 5.7 km/h Distance 8.44 km</desc>
<time>2010-03-03T17:28:22.04</time>
<name>5445</name>
</trkpt>
<trkpt lat="48.940890" lon="8.665883">
<ele>351.0</ele>
<speed>5.2</speed>
<course>5.3</course>
<desc>Speed 5.2 km/h Distance 8.45 km</desc>
<time>2010-03-03T17:28:23.04</time>
<name>5446</name>
</trkpt>
<trkpt lat="48.940903" lon="8.665885">
<ele>351.0</ele>
<speed>5.0</speed>
<course>18.1</course>
<desc>Speed 5.0 km/h Distance 8.45 km</desc>
<time>2010-03-03T17:28:24.04</time>
<name>5447</name>
</trkpt>
<trkpt lat="48.940917" lon="8.665892">
<ele>351.0</ele>
<speed>4.9</speed>
<course>25.2</course>
<desc>Speed 4.9 km/h Distance 8.45 km</desc>
<time>2010-03-03T17:28:25.04</time>
<name>5448</name>
</trkpt>
<trkpt lat="48.940928" lon="8.665900">
<ele>350.5</ele>
<speed>4.6</speed>
<course>16.6</course>
<desc>Speed 4.6 km/h Distance 8.45 km</desc>
<time>2010-03-03T17:28:26.04</time>
<name>5449</name>
</trkpt>
<trkpt lat="48.940943" lon="8.665907">
<ele>350.5</ele>
<speed>5.1</speed>
<course>13.5</course>
<desc>Speed 5.1 km/h Distance 8.45 km</desc>
<time>2010-03-03T17:28:27.04</time>
<name>5450</name>
</trkpt>
<trkpt lat="48.940957" lon="8.665912">
<ele>350.5</ele>
<speed>5.7</speed>
<course>22.3</course>
<desc>Speed 5.7 km/h Distance 8.45 km</desc>
<time>2010-03-03T17:28:28.04</time>
<name>5451</name>
</trkpt>
<trkpt lat="48.940970" lon="8.665920">
<ele>351.0</ele>
<speed>5.7</speed>
<course>18.1</course>
<desc>Speed 5.7 km/h Distance 8.45 km</desc>
<time>2010-03-03T17:28:29.04</time>
<name>5452</name>
</trkpt>
<trkpt lat="48.940983" lon="8.665927">
<ele>351.0</ele>
<speed>5.4</speed>
<course>22.1</course>
<desc>Speed 5.4 km/h Distance 8.46 km</desc>
<time>2010-03-03T17:28:30.04</time>
<name>5453</name>
</trkpt>
<trkpt lat="48.940997" lon="8.665935">
<ele>351.0</ele>
<speed>6.1</speed>
<course>24.6</course>
<desc>Speed 6.1 km/h Distance 8.46 km</desc>
<time>2010-03-03T17:28:31.04</time>
<name>5454</name>
</trkpt>
<trkpt lat="48.941008" lon="8.665943">
<ele>351.5</ele>
<speed>5.5</speed>
<course>26.0</course>
<desc>Speed 5.5 km/h Distance 8.46 km</desc>
<time>2010-03-03T17:28:32.04</time>
<name>5455</name>
</trkpt>
<trkpt lat="48.941022" lon="8.665953">
<ele>351.5</ele>
<speed>5.8</speed>
<course>25.2</course>
<desc>Speed 5.8 km/h Distance 8.46 km</desc>
<time>2010-03-03T17:28:33.04</time>
<name>5456</name>
</trkpt>
<trkpt lat="48.941033" lon="8.665962">
<ele>352.0</ele>
<speed>5.8</speed>
<course>26.4</course>
<desc>Speed 5.8 km/h Distance 8.46 km</desc>
<time>2010-03-03T17:28:34.04</time>
<name>5457</name>
</trkpt>
<trkpt lat="48.941047" lon="8.665972">
<ele>352.0</ele>
<speed>5.9</speed>
<course>27.2</course>
<desc>Speed 5.9 km/h Distance 8.46 km</desc>
<time>2010-03-03T17:28:35.04</time>
<name>5458</name>
</trkpt>
<trkpt lat="48.941062" lon="8.665983">
<ele>352.0</ele>
<speed>6.3</speed>
<course>29.4</course>
<desc>Speed 6.3 km/h Distance 8.47 km</desc>
<time>2010-03-03T17:28:36.04</time>
<name>5459</name>
</trkpt>
<trkpt lat="48.941073" lon="8.665993">
<ele>352.0</ele>
<speed>6.0</speed>
<course>26.0</course>
<desc>Speed 6.0 km/h Distance 8.47 km</desc>
<time>2010-03-03T17:28:37.04</time>
<name>5460</name>
</trkpt>
<trkpt lat="48.941087" lon="8.666003">
<ele>352.0</ele>
<speed>5.7</speed>
<course>30.0</course>
<desc>Speed 5.7 km/h Distance 8.47 km</desc>
<time>2010-03-03T17:28:38.04</time>
<name>5461</name>
</trkpt>
<trkpt lat="48.941100" lon="8.666015">
<ele>352.0</ele>
<speed>5.8</speed>
<course>29.8</course>
<desc>Speed 5.8 km/h Distance 8.47 km</desc>
<time>2010-03-03T17:28:39.04</time>
<name>5462</name>
</trkpt>
<trkpt lat="48.941113" lon="8.666027">
<ele>352.0</ele>
<speed>6.0</speed>
<course>26.2</course>
<desc>Speed 6.0 km/h Distance 8.47 km</desc>
<time>2010-03-03T17:28:40.04</time>
<name>5463</name>
</trkpt>
<trkpt lat="48.941127" lon="8.666037">
<ele>352.5</ele>
<speed>6.0</speed>
<course>33.3</course>
<desc>Speed 6.0 km/h Distance 8.47 km</desc>
<time>2010-03-03T17:28:41.04</time>
<name>5464</name>
</trkpt>
<trkpt lat="48.941140" lon="8.666050">
<ele>352.5</ele>
<speed>5.7</speed>
<course>18.1</course>
<desc>Speed 5.7 km/h Distance 8.48 km</desc>
<time>2010-03-03T17:28:42.04</time>
<name>5465</name>
</trkpt>
<trkpt lat="48.941153" lon="8.666057">
<ele>353.0</ele>
<speed>5.7</speed>
<course>33.4</course>
<desc>Speed 5.7 km/h Distance 8.48 km</desc>
<time>2010-03-03T17:28:43.04</time>
<name>5466</name>
</trkpt>
<trkpt lat="48.941165" lon="8.666068">
<ele>353.0</ele>
<speed>5.6</speed>
<course>18.2</course>
<desc>Speed 5.6 km/h Distance 8.48 km</desc>
<time>2010-03-03T17:28:44.04</time>
<name>5467</name>
</trkpt>
<trkpt lat="48.941175" lon="8.666073">
<ele>354.0</ele>
<speed>5.0</speed>
<course>29.8</course>
<desc>Speed 5.0 km/h Distance 8.48 km</desc>
<time>2010-03-03T17:28:45.04</time>
<name>5468</name>
</trkpt>
<trkpt lat="48.941188" lon="8.666085">
<ele>354.0</ele>
<speed>5.5</speed>
<course>33.1</course>
<desc>Speed 5.5 km/h Distance 8.48 km</desc>
<time>2010-03-03T17:28:46.04</time>
<name>5469</name>
</trkpt>
<trkpt lat="48.941200" lon="8.666097">
<ele>354.0</ele>
<speed>5.1</speed>
<course>40.2</course>
<desc>Speed 5.1 km/h Distance 8.48 km</desc>
<time>2010-03-03T17:28:47.04</time>
<name>5470</name>
</trkpt>
<trkpt lat="48.941212" lon="8.666112">
<ele>354.0</ele>
<speed>5.6</speed>
<course>33.3</course>
<desc>Speed 5.6 km/h Distance 8.48 km</desc>
<time>2010-03-03T17:28:48.04</time>
<name>5471</name>
</trkpt>
<trkpt lat="48.941225" lon="8.666125">
<ele>354.0</ele>
<speed>6.0</speed>
<course>30.0</course>
<desc>Speed 6.0 km/h Distance 8.49 km</desc>
<time>2010-03-03T17:28:49.04</time>
<name>5472</name>
</trkpt>
<trkpt lat="48.941238" lon="8.666137">
<ele>354.0</ele>
<speed>5.7</speed>
<course>29.8</course>
<desc>Speed 5.7 km/h Distance 8.49 km</desc>
<time>2010-03-03T17:28:50.04</time>
<name>5473</name>
</trkpt>
<trkpt lat="48.941252" lon="8.666148">
<ele>353.5</ele>
<speed>5.7</speed>
<course>36.9</course>
<desc>Speed 5.7 km/h Distance 8.49 km</desc>
<time>2010-03-03T17:28:51.04</time>
<name>5474</name>
</trkpt>
<trkpt lat="48.941263" lon="8.666162">
<ele>353.5</ele>
<speed>5.8</speed>
<course>33.4</course>
<desc>Speed 5.8 km/h Distance 8.49 km</desc>
<time>2010-03-03T17:28:52.04</time>
<name>5475</name>
</trkpt>
<trkpt lat="48.941277" lon="8.666175">
<ele>353.5</ele>
<speed>6.0</speed>
<course>33.4</course>
<desc>Speed 6.0 km/h Distance 8.49 km</desc>
<time>2010-03-03T17:28:53.04</time>
<name>5476</name>
</trkpt>
<trkpt lat="48.941290" lon="8.666188">
<ele>353.5</ele>
<speed>6.0</speed>
<course>29.8</course>
<desc>Speed 6.0 km/h Distance 8.50 km</desc>
<time>2010-03-03T17:28:54.04</time>
<name>5477</name>
</trkpt>
<trkpt lat="48.941303" lon="8.666200">
<ele>353.5</ele>
<speed>5.8</speed>
<course>26.0</course>
<desc>Speed 5.8 km/h Distance 8.50 km</desc>
<time>2010-03-03T17:28:55.04</time>
<name>5478</name>
</trkpt>
<trkpt lat="48.941317" lon="8.666210">
<ele>354.0</ele>
<speed>5.9</speed>
<course>33.4</course>
<desc>Speed 5.9 km/h Distance 8.50 km</desc>
<time>2010-03-03T17:28:56.04</time>
<name>5479</name>
</trkpt>
<trkpt lat="48.941328" lon="8.666222">
<ele>354.5</ele>
<speed>6.1</speed>
<course>22.1</course>
<desc>Speed 6.1 km/h Distance 8.50 km</desc>
<time>2010-03-03T17:28:57.04</time>
<name>5480</name>
</trkpt>
<trkpt lat="48.941342" lon="8.666230">
<ele>354.5</ele>
<speed>5.7</speed>
<course>29.8</course>
<desc>Speed 5.7 km/h Distance 8.50 km</desc>
<time>2010-03-03T17:28:58.04</time>
<name>5481</name>
</trkpt>
<trkpt lat="48.941355" lon="8.666242">
<ele>355.0</ele>
<speed>5.8</speed>
<course>30.1</course>
<desc>Speed 5.8 km/h Distance 8.50 km</desc>
<time>2010-03-03T17:28:59.04</time>
<name>5482</name>
</trkpt>
<trkpt lat="48.941368" lon="8.666253">
<ele>355.0</ele>
<speed>5.9</speed>
<course>27.2</course>
<desc>Speed 5.9 km/h Distance 8.51 km</desc>
<time>2010-03-03T17:29:00.04</time>
<name>5483</name>
</trkpt>
<trkpt lat="48.941383" lon="8.666265">
<ele>355.0</ele>
<speed>6.0</speed>
<course>33.3</course>
<desc>Speed 6.0 km/h Distance 8.51 km</desc>
<time>2010-03-03T17:29:01.04</time>
<name>5484</name>
</trkpt>
<trkpt lat="48.941397" lon="8.666278">
<ele>355.0</ele>
<speed>6.1</speed>
<course>33.3</course>
<desc>Speed 6.1 km/h Distance 8.51 km</desc>
<time>2010-03-03T17:29:02.04</time>
<name>5485</name>
</trkpt>
<trkpt lat="48.941412" lon="8.666293">
<ele>355.0</ele>
<speed>5.9</speed>
<course>29.8</course>
<desc>Speed 5.9 km/h Distance 8.51 km</desc>
<time>2010-03-03T17:29:03.04</time>
<name>5486</name>
</trkpt>
<trkpt lat="48.941425" lon="8.666305">
<ele>354.5</ele>
<speed>5.8</speed>
<course>36.9</course>
<desc>Speed 5.8 km/h Distance 8.51 km</desc>
<time>2010-03-03T17:29:04.04</time>
<name>5487</name>
</trkpt>
<trkpt lat="48.941437" lon="8.666318">
<ele>354.5</ele>
<speed>5.6</speed>
<course>30.3</course>
<desc>Speed 5.6 km/h Distance 8.51 km</desc>
<time>2010-03-03T17:29:05.04</time>
<name>5488</name>
</trkpt>
<trkpt lat="48.941452" lon="8.666332">
<ele>354.5</ele>
<speed>6.0</speed>
<course>36.9</course>
<desc>Speed 6.0 km/h Distance 8.52 km</desc>
<time>2010-03-03T17:29:06.04</time>
<name>5489</name>
</trkpt>
<trkpt lat="48.941463" lon="8.666345">
<ele>354.5</ele>
<speed>6.0</speed>
<course>36.9</course>
<desc>Speed 6.0 km/h Distance 8.52 km</desc>
<time>2010-03-03T17:29:07.04</time>
<name>5490</name>
</trkpt>
<trkpt lat="48.941475" lon="8.666358">
<ele>354.5</ele>
<speed>5.7</speed>
<course>33.4</course>
<desc>Speed 5.7 km/h Distance 8.52 km</desc>
<time>2010-03-03T17:29:08.04</time>
<name>5491</name>
</trkpt>
<trkpt lat="48.941488" lon="8.666372">
<ele>354.5</ele>
<speed>5.7</speed>
<course>30.0</course>
<desc>Speed 5.7 km/h Distance 8.52 km</desc>
<time>2010-03-03T17:29:09.04</time>
<name>5492</name>
</trkpt>
<trkpt lat="48.941502" lon="8.666383">
<ele>354.0</ele>
<speed>5.8</speed>
<course>33.3</course>
<desc>Speed 5.8 km/h Distance 8.52 km</desc>
<time>2010-03-03T17:29:10.04</time>
<name>5493</name>
</trkpt>
<trkpt lat="48.941515" lon="8.666397">
<ele>354.0</ele>
<speed>5.8</speed>
<course>29.8</course>
<desc>Speed 5.8 km/h Distance 8.52 km</desc>
<time>2010-03-03T17:29:11.04</time>
<name>5494</name>
</trkpt>
<trkpt lat="48.941528" lon="8.666408">
<ele>354.0</ele>
<speed>5.8</speed>
<course>26.0</course>
<desc>Speed 5.8 km/h Distance 8.53 km</desc>
<time>2010-03-03T17:29:12.04</time>
<name>5495</name>
</trkpt>
<trkpt lat="48.941542" lon="8.666418">
<ele>354.0</ele>
<speed>5.8</speed>
<course>33.4</course>
<desc>Speed 5.8 km/h Distance 8.53 km</desc>
<time>2010-03-03T17:29:13.04</time>
<name>5496</name>
</trkpt>
<trkpt lat="48.941555" lon="8.666432">
<ele>354.0</ele>
<speed>6.0</speed>
<course>29.8</course>
<desc>Speed 6.0 km/h Distance 8.53 km</desc>
<time>2010-03-03T17:29:14.04</time>
<name>5497</name>
</trkpt>
<trkpt lat="48.941568" lon="8.666443">
<ele>354.0</ele>
<speed>5.9</speed>
<course>30.3</course>
<desc>Speed 5.9 km/h Distance 8.53 km</desc>
<time>2010-03-03T17:29:15.04</time>
<name>5498</name>
</trkpt>
<trkpt lat="48.941583" lon="8.666457">
<ele>354.0</ele>
<speed>5.9</speed>
<course>26.2</course>
<desc>Speed 5.9 km/h Distance 8.53 km</desc>
<time>2010-03-03T17:29:16.04</time>
<name>5499</name>
</trkpt>
<trkpt lat="48.941597" lon="8.666467">
<ele>354.0</ele>
<speed>5.8</speed>
<course>29.8</course>
<desc>Speed 5.8 km/h Distance 8.54 km</desc>
<time>2010-03-03T17:29:17.04</time>
<name>5500</name>
</trkpt>
<trkpt lat="48.941610" lon="8.666478">
<ele>353.5</ele>
<speed>5.8</speed>
<course>29.8</course>
<desc>Speed 5.8 km/h Distance 8.54 km</desc>
<time>2010-03-03T17:29:18.04</time>
<name>5501</name>
</trkpt>
<trkpt lat="48.941623" lon="8.666490">
<ele>353.5</ele>
<speed>5.6</speed>
<course>27.0</course>
<desc>Speed 5.6 km/h Distance 8.54 km</desc>
<time>2010-03-03T17:29:19.04</time>
<name>5502</name>
</trkpt>
<trkpt lat="48.941638" lon="8.666502">
<ele>353.5</ele>
<speed>5.9</speed>
<course>29.8</course>
<desc>Speed 5.9 km/h Distance 8.54 km</desc>
<time>2010-03-03T17:29:20.04</time>
<name>5503</name>
</trkpt>
<trkpt lat="48.941652" lon="8.666513">
<ele>353.5</ele>
<speed>5.9</speed>
<course>40.2</course>
<desc>Speed 5.9 km/h Distance 8.54 km</desc>
<time>2010-03-03T17:29:21.04</time>
<name>5504</name>
</trkpt>
<trkpt lat="48.941663" lon="8.666528">
<ele>353.0</ele>
<speed>5.8</speed>
<course>36.9</course>
<desc>Speed 5.8 km/h Distance 8.54 km</desc>
<time>2010-03-03T17:29:22.04</time>
<name>5505</name>
</trkpt>
<trkpt lat="48.941675" lon="8.666542">
<ele>353.0</ele>
<speed>5.7</speed>
<course>24.7</course>
<desc>Speed 5.7 km/h Distance 8.55 km</desc>
<time>2010-03-03T17:29:23.04</time>
<name>5506</name>
</trkpt>
<trkpt lat="48.941692" lon="8.666553">
<ele>352.5</ele>
<speed>5.9</speed>
<course>29.8</course>
<desc>Speed 5.9 km/h Distance 8.55 km</desc>
<time>2010-03-03T17:29:24.04</time>
<name>5507</name>
</trkpt>
<trkpt lat="48.941705" lon="8.666565">
<ele>352.5</ele>
<speed>6.0</speed>
<course>23.7</course>
<desc>Speed 6.0 km/h Distance 8.55 km</desc>
<time>2010-03-03T17:29:25.04</time>
<name>5508</name>
</trkpt>
<trkpt lat="48.941720" lon="8.666575">
<ele>352.5</ele>
<speed>5.9</speed>
<course>27.0</course>
<desc>Speed 5.9 km/h Distance 8.55 km</desc>
<time>2010-03-03T17:29:26.04</time>
<name>5509</name>
</trkpt>
<trkpt lat="48.941735" lon="8.666587">
<ele>352.0</ele>
<speed>5.8</speed>
<course>30.0</course>
<desc>Speed 5.8 km/h Distance 8.55 km</desc>
<time>2010-03-03T17:29:27.04</time>
<name>5510</name>
</trkpt>
<trkpt lat="48.941748" lon="8.666598">
<ele>351.5</ele>
<speed>5.7</speed>
<course>26.0</course>
<desc>Speed 5.7 km/h Distance 8.55 km</desc>
<time>2010-03-03T17:29:28.04</time>
<name>5511</name>
</trkpt>
<trkpt lat="48.941762" lon="8.666608">
<ele>351.5</ele>
<speed>5.5</speed>
<course>30.0</course>
<desc>Speed 5.5 km/h Distance 8.56 km</desc>
<time>2010-03-03T17:29:29.04</time>
<name>5512</name>
</trkpt>
<trkpt lat="48.941775" lon="8.666620">
<ele>351.0</ele>
<speed>5.5</speed>
<course>33.4</course>
<desc>Speed 5.5 km/h Distance 8.56 km</desc>
<time>2010-03-03T17:29:30.04</time>
<name>5513</name>
</trkpt>
<trkpt lat="48.941787" lon="8.666632">
<ele>351.0</ele>
<speed>5.5</speed>
<course>29.8</course>
<desc>Speed 5.5 km/h Distance 8.56 km</desc>
<time>2010-03-03T17:29:31.04</time>
<name>5514</name>
</trkpt>
<trkpt lat="48.941800" lon="8.666643">
<ele>351.0</ele>
<speed>5.6</speed>
<course>40.2</course>
<desc>Speed 5.6 km/h Distance 8.56 km</desc>
<time>2010-03-03T17:29:32.04</time>
<name>5515</name>
</trkpt>
<trkpt lat="48.941812" lon="8.666658">
<ele>350.5</ele>
<speed>5.9</speed>
<course>36.4</course>
<desc>Speed 5.9 km/h Distance 8.56 km</desc>
<time>2010-03-03T17:29:33.04</time>
<name>5516</name>
</trkpt>
<trkpt lat="48.941825" lon="8.666673">
<ele>350.5</ele>
<speed>5.8</speed>
<course>36.9</course>
<desc>Speed 5.8 km/h Distance 8.56 km</desc>
<time>2010-03-03T17:29:34.04</time>
<name>5517</name>
</trkpt>
<trkpt lat="48.941837" lon="8.666687">
<ele>350.0</ele>
<speed>5.5</speed>
<course>30.1</course>
<desc>Speed 5.5 km/h Distance 8.57 km</desc>
<time>2010-03-03T17:29:35.04</time>
<name>5518</name>
</trkpt>
<trkpt lat="48.941852" lon="8.666700">
<ele>350.0</ele>
<speed>5.8</speed>
<course>36.9</course>
<desc>Speed 5.8 km/h Distance 8.57 km</desc>
<time>2010-03-03T17:29:36.04</time>
<name>5519</name>
</trkpt>
<trkpt lat="48.941863" lon="8.666713">
<ele>349.5</ele>
<speed>5.7</speed>
<course>43.3</course>
<desc>Speed 5.7 km/h Distance 8.57 km</desc>
<time>2010-03-03T17:29:37.04</time>
<name>5520</name>
</trkpt>
<trkpt lat="48.941875" lon="8.666730">
<ele>349.5</ele>
<speed>5.6</speed>
<course>43.3</course>
<desc>Speed 5.6 km/h Distance 8.57 km</desc>
<time>2010-03-03T17:29:38.04</time>
<name>5521</name>
</trkpt>
<trkpt lat="48.941887" lon="8.666747">
<ele>349.0</ele>
<speed>5.8</speed>
<course>47.6</course>
<desc>Speed 5.8 km/h Distance 8.57 km</desc>
<time>2010-03-03T17:29:39.04</time>
<name>5522</name>
</trkpt>
<trkpt lat="48.941897" lon="8.666763">
<ele>349.0</ele>
<speed>5.8</speed>
<course>33.4</course>
<desc>Speed 5.8 km/h Distance 8.58 km</desc>
<time>2010-03-03T17:29:40.04</time>
<name>5523</name>
</trkpt>
<trkpt lat="48.941910" lon="8.666777">
<ele>348.5</ele>
<speed>5.7</speed>
<course>26.4</course>
<desc>Speed 5.7 km/h Distance 8.58 km</desc>
<time>2010-03-03T17:29:41.04</time>
<name>5524</name>
</trkpt>
<trkpt lat="48.941923" lon="8.666787">
<ele>348.0</ele>
<speed>5.4</speed>
<course>16.0</course>
<desc>Speed 5.4 km/h Distance 8.58 km</desc>
<time>2010-03-03T17:29:42.04</time>
<name>5525</name>
</trkpt>
<trkpt lat="48.941938" lon="8.666793">
<ele>348.0</ele>
<speed>5.9</speed>
<course>11.2</course>
<desc>Speed 5.9 km/h Distance 8.58 km</desc>
<time>2010-03-03T17:29:43.04</time>
<name>5526</name>
</trkpt>
<trkpt lat="48.941955" lon="8.666798">
<ele>347.5</ele>
<speed>5.9</speed>
<course>2.8</course>
<desc>Speed 5.9 km/h Distance 8.58 km</desc>
<time>2010-03-03T17:29:44.04</time>
<name>5527</name>
</trkpt>
<trkpt lat="48.941972" lon="8.666800">
<ele>347.5</ele>
<speed>5.6</speed>
<course>3.8</course>
<desc>Speed 5.6 km/h Distance 8.58 km</desc>
<time>2010-03-03T17:29:45.04</time>
<name>5528</name>
</trkpt>
<trkpt lat="48.941987" lon="8.666802">
<ele>347.5</ele>
<speed>5.7</speed>
<course>0.0</course>
<desc>Speed 5.7 km/h Distance 8.59 km</desc>
<time>2010-03-03T17:29:46.04</time>
<name>5529</name>
</trkpt>
<trkpt lat="48.942003" lon="8.666802">
<ele>347.0</ele>
<speed>5.7</speed>
<course>7.1</course>
<desc>Speed 5.7 km/h Distance 8.59 km</desc>
<time>2010-03-03T17:29:47.04</time>
<name>5530</name>
</trkpt>
<trkpt lat="48.942020" lon="8.666805">
<ele>346.5</ele>
<speed>5.5</speed>
<course>0.0</course>
<desc>Speed 5.5 km/h Distance 8.59 km</desc>
<time>2010-03-03T17:29:48.04</time>
<name>5531</name>
</trkpt>
<trkpt lat="48.942037" lon="8.666805">
<ele>346.5</ele>
<speed>5.4</speed>
<course>1.9</course>
<desc>Speed 5.4 km/h Distance 8.59 km</desc>
<time>2010-03-03T17:29:49.04</time>
<name>5532</name>
</trkpt>
<trkpt lat="48.942052" lon="8.666805">
<ele>346.0</ele>
<speed>5.1</speed>
<course>3.8</course>
<desc>Speed 5.1 km/h Distance 8.59 km</desc>
<time>2010-03-03T17:29:50.04</time>
<name>5533</name>
</trkpt>
<trkpt lat="48.942067" lon="8.666807">
<ele>346.0</ele>
<speed>5.6</speed>
<course>3.8</course>
<desc>Speed 5.6 km/h Distance 8.59 km</desc>
<time>2010-03-03T17:29:51.04</time>
<name>5534</name>
</trkpt>
<trkpt lat="48.942082" lon="8.666808">
<ele>345.5</ele>
<speed>5.3</speed>
<course>0.0</course>
<desc>Speed 5.3 km/h Distance 8.60 km</desc>
<time>2010-03-03T17:29:52.04</time>
<name>5535</name>
</trkpt>
<trkpt lat="48.942097" lon="8.666808">
<ele>345.0</ele>
<speed>5.4</speed>
<course>5.3</course>
<desc>Speed 5.4 km/h Distance 8.60 km</desc>
<time>2010-03-03T17:29:53.04</time>
<name>5536</name>
</trkpt>
<trkpt lat="48.942110" lon="8.666810">
<ele>345.0</ele>
<speed>5.3</speed>
<course>3.8</course>
<desc>Speed 5.3 km/h Distance 8.60 km</desc>
<time>2010-03-03T17:29:54.04</time>
<name>5537</name>
</trkpt>
<trkpt lat="48.942125" lon="8.666812">
<ele>345.0</ele>
<speed>5.3</speed>
<course>8.1</course>
<desc>Speed 5.3 km/h Distance 8.60 km</desc>
<time>2010-03-03T17:29:55.04</time>
<name>5538</name>
</trkpt>
<trkpt lat="48.942140" lon="8.666815">
<ele>344.5</ele>
<speed>5.0</speed>
<course>4.7</course>
<desc>Speed 5.0 km/h Distance 8.60 km</desc>
<time>2010-03-03T17:29:56.04</time>
<name>5539</name>
</trkpt>
<trkpt lat="48.942152" lon="8.666815">
<ele>344.0</ele>
<speed>4.2</speed>
<course>350.3</course>
<desc>Speed 4.2 km/h Distance 8.60 km</desc>
<time>2010-03-03T17:29:57.04</time>
<name>5540</name>
</trkpt>
<trkpt lat="48.942165" lon="8.666812">
<ele>344.0</ele>
<speed>4.7</speed>
<course>7.0</course>
<desc>Speed 4.7 km/h Distance 8.61 km</desc>
<time>2010-03-03T17:29:58.04</time>
<name>5541</name>
</trkpt>
<trkpt lat="48.942183" lon="8.666815">
<ele>344.0</ele>
<speed>5.9</speed>
<course>7.0</course>
<desc>Speed 5.9 km/h Distance 8.61 km</desc>
<time>2010-03-03T17:29:59.04</time>
<name>5542</name>
</trkpt>
<trkpt lat="48.942202" lon="8.666818">
<ele>344.5</ele>
<speed>5.5</speed>
<course>4.1</course>
<desc>Speed 5.5 km/h Distance 8.61 km</desc>
<time>2010-03-03T17:30:00.04</time>
<name>5543</name>
</trkpt>
<trkpt lat="48.942218" lon="8.666820">
<ele>344.5</ele>
<speed>5.7</speed>
<course>8.8</course>
<desc>Speed 5.7 km/h Distance 8.61 km</desc>
<time>2010-03-03T17:30:01.04</time>
<name>5544</name>
</trkpt>
<trkpt lat="48.942233" lon="8.666823">
<ele>345.0</ele>
<speed>5.1</speed>
<course>2.8</course>
<desc>Speed 5.1 km/h Distance 8.61 km</desc>
<time>2010-03-03T17:30:02.04</time>
<name>5545</name>
</trkpt>
<trkpt lat="48.942250" lon="8.666825">
<ele>344.5</ele>
<speed>5.8</speed>
<course>3.8</course>
<desc>Speed 5.8 km/h Distance 8.62 km</desc>
<time>2010-03-03T17:30:03.04</time>
<name>5546</name>
</trkpt>
<trkpt lat="48.942265" lon="8.666827">
<ele>344.5</ele>
<speed>5.6</speed>
<course>0.0</course>
<desc>Speed 5.6 km/h Distance 8.62 km</desc>
<time>2010-03-03T17:30:04.04</time>
<name>5547</name>
</trkpt>
<trkpt lat="48.942283" lon="8.666827">
<ele>344.5</ele>
<speed>5.9</speed>
<course>2.8</course>
<desc>Speed 5.9 km/h Distance 8.62 km</desc>
<time>2010-03-03T17:30:05.04</time>
<name>5548</name>
</trkpt>
<trkpt lat="48.942300" lon="8.666828">
<ele>344.5</ele>
<speed>6.2</speed>
<course>2.8</course>
<desc>Speed 6.2 km/h Distance 8.62 km</desc>
<time>2010-03-03T17:30:06.04</time>
<name>5549</name>
</trkpt>
<trkpt lat="48.942317" lon="8.666830">
<ele>344.0</ele>
<speed>5.9</speed>
<course>2.8</course>
<desc>Speed 5.9 km/h Distance 8.62 km</desc>
<time>2010-03-03T17:30:07.04</time>
<name>5550</name>
</trkpt>
<trkpt lat="48.942333" lon="8.666832">
<ele>343.5</ele>
<speed>5.9</speed>
<course>0.0</course>
<desc>Speed 5.9 km/h Distance 8.62 km</desc>
<time>2010-03-03T17:30:08.04</time>
<name>5551</name>
</trkpt>
<trkpt lat="48.942350" lon="8.666832">
<ele>343.5</ele>
<speed>5.6</speed>
<course>3.8</course>
<desc>Speed 5.6 km/h Distance 8.63 km</desc>
<time>2010-03-03T17:30:09.04</time>
<name>5552</name>
</trkpt>
<trkpt lat="48.942365" lon="8.666833">
<ele>343.0</ele>
<speed>5.5</speed>
<course>11.2</course>
<desc>Speed 5.5 km/h Distance 8.63 km</desc>
<time>2010-03-03T17:30:10.04</time>
<name>5553</name>
</trkpt>
<trkpt lat="48.942382" lon="8.666838">
<ele>343.0</ele>
<speed>6.2</speed>
<course>2.8</course>
<desc>Speed 6.2 km/h Distance 8.63 km</desc>
<time>2010-03-03T17:30:11.04</time>
<name>5554</name>
</trkpt>
<trkpt lat="48.942398" lon="8.666840">
<ele>342.5</ele>
<speed>6.0</speed>
<course>1.9</course>
<desc>Speed 6.0 km/h Distance 8.63 km</desc>
<time>2010-03-03T17:30:12.04</time>
<name>5555</name>
</trkpt>
<trkpt lat="48.942413" lon="8.666840">
<ele>342.0</ele>
<speed>5.8</speed>
<course>5.0</course>
<desc>Speed 5.8 km/h Distance 8.63 km</desc>
<time>2010-03-03T17:30:13.04</time>
<name>5556</name>
</trkpt>
<trkpt lat="48.942430" lon="8.666842">
<ele>341.5</ele>
<speed>5.9</speed>
<course>5.3</course>
<desc>Speed 5.9 km/h Distance 8.64 km</desc>
<time>2010-03-03T17:30:14.04</time>
<name>5557</name>
</trkpt>
<trkpt lat="48.942443" lon="8.666843">
<ele>341.0</ele>
<speed>4.9</speed>
<course>355.3</course>
<desc>Speed 4.9 km/h Distance 8.64 km</desc>
<time>2010-03-03T17:30:15.04</time>
<name>5558</name>
</trkpt>
<trkpt lat="48.942455" lon="8.666842">
<ele>341.0</ele>
<speed>4.5</speed>
<course>345.6</course>
<desc>Speed 4.5 km/h Distance 8.64 km</desc>
<time>2010-03-03T17:30:16.04</time>
<name>5559</name>
</trkpt>
<trkpt lat="48.942468" lon="8.666837">
<ele>340.0</ele>
<speed>5.4</speed>
<course>354.1</course>
<desc>Speed 5.4 km/h Distance 8.64 km</desc>
<time>2010-03-03T17:30:17.04</time>
<name>5560</name>
</trkpt>
<trkpt lat="48.942483" lon="8.666835">
<ele>339.5</ele>
<speed>5.4</speed>
<course>356.2</course>
<desc>Speed 5.4 km/h Distance 8.64 km</desc>
<time>2010-03-03T17:30:18.04</time>
<name>5561</name>
</trkpt>
<trkpt lat="48.942498" lon="8.666833">
<ele>339.0</ele>
<speed>5.4</speed>
<course>1.2</course>
<desc>Speed 5.4 km/h Distance 8.64 km</desc>
<time>2010-03-03T17:30:19.04</time>
<name>5562</name>
</trkpt>
<trkpt lat="48.942512" lon="8.666833">
<ele>338.5</ele>
<speed>4.9</speed>
<course>3.9</course>
<desc>Speed 4.9 km/h Distance 8.64 km</desc>
<time>2010-03-03T17:30:20.04</time>
<name>5563</name>
</trkpt>
<trkpt lat="48.942525" lon="8.666835">
<ele>338.5</ele>
<speed>4.7</speed>
<course>0.0</course>
<desc>Speed 4.7 km/h Distance 8.65 km</desc>
<time>2010-03-03T17:30:21.04</time>
<name>5564</name>
</trkpt>
<trkpt lat="48.942542" lon="8.666835">
<ele>338.0</ele>
<speed>6.4</speed>
<course>1.2</course>
<desc>Speed 6.4 km/h Distance 8.65 km</desc>
<time>2010-03-03T17:30:22.04</time>
<name>5565</name>
</trkpt>
<trkpt lat="48.942555" lon="8.666837">
<ele>338.0</ele>
<speed>4.8</speed>
<course>6.3</course>
<desc>Speed 4.8 km/h Distance 8.65 km</desc>
<time>2010-03-03T17:30:23.04</time>
<name>5566</name>
</trkpt>
<trkpt lat="48.942567" lon="8.666838">
<ele>337.5</ele>
<speed>3.9</speed>
<course>347.4</course>
<desc>Speed 3.9 km/h Distance 8.65 km</desc>
<time>2010-03-03T17:30:24.04</time>
<name>5567</name>
</trkpt>
<trkpt lat="48.942573" lon="8.666837">
<ele>337.0</ele>
<speed>2.9</speed>
<course>3.0</course>
<desc>Speed 2.9 km/h Distance 8.65 km</desc>
<time>2010-03-03T17:30:25.04</time>
<name>5568</name>
</trkpt>
<trkpt lat="48.942617" lon="8.666840">
<ele>336.5</ele>
<speed>5.0</speed>
<course>8.8</course>
<desc>Speed 5.0 km/h Distance 8.66 km</desc>
<time>2010-03-03T17:30:27.04</time>
<name>5569</name>
</trkpt>
<trkpt lat="48.942632" lon="8.666843">
<ele>336.5</ele>
<speed>5.5</speed>
<course>11.2</course>
<desc>Speed 5.5 km/h Distance 8.66 km</desc>
<time>2010-03-03T17:30:28.04</time>
<name>5570</name>
</trkpt>
<trkpt lat="48.942648" lon="8.666848">
<ele>336.0</ele>
<speed>5.6</speed>
<course>9.5</course>
<desc>Speed 5.6 km/h Distance 8.66 km</desc>
<time>2010-03-03T17:30:29.04</time>
<name>5571</name>
</trkpt>
<trkpt lat="48.942660" lon="8.666852">
<ele>336.0</ele>
<speed>4.6</speed>
<course>9.0</course>
<desc>Speed 4.6 km/h Distance 8.66 km</desc>
<time>2010-03-03T17:30:30.04</time>
<name>5572</name>
</trkpt>
<trkpt lat="48.942673" lon="8.666855">
<ele>335.5</ele>
<speed>5.3</speed>
<course>2.8</course>
<desc>Speed 5.3 km/h Distance 8.66 km</desc>
<time>2010-03-03T17:30:31.04</time>
<name>5573</name>
</trkpt>
<trkpt lat="48.942690" lon="8.666857">
<ele>335.5</ele>
<speed>5.6</speed>
<course>354.7</course>
<desc>Speed 5.6 km/h Distance 8.66 km</desc>
<time>2010-03-03T17:30:32.04</time>
<name>5574</name>
</trkpt>
<trkpt lat="48.942703" lon="8.666855">
<ele>335.5</ele>
<speed>5.1</speed>
<course>357.2</course>
<desc>Speed 5.1 km/h Distance 8.67 km</desc>
<time>2010-03-03T17:30:33.04</time>
<name>5575</name>
</trkpt>
<trkpt lat="48.942720" lon="8.666853">
<ele>335.0</ele>
<speed>5.5</speed>
<course>343.4</course>
<desc>Speed 5.5 km/h Distance 8.67 km</desc>
<time>2010-03-03T17:30:34.04</time>
<name>5576</name>
</trkpt>
<trkpt lat="48.942735" lon="8.666847">
<ele>335.0</ele>
<speed>5.4</speed>
<course>336.3</course>
<desc>Speed 5.4 km/h Distance 8.67 km</desc>
<time>2010-03-03T17:30:35.04</time>
<name>5577</name>
</trkpt>
<trkpt lat="48.942750" lon="8.666837">
<ele>335.0</ele>
<speed>5.4</speed>
<course>333.6</course>
<desc>Speed 5.4 km/h Distance 8.67 km</desc>
<time>2010-03-03T17:30:36.04</time>
<name>5578</name>
</trkpt>
<trkpt lat="48.942763" lon="8.666827">
<ele>335.0</ele>
<speed>5.3</speed>
<course>337.7</course>
<desc>Speed 5.3 km/h Distance 8.67 km</desc>
<time>2010-03-03T17:30:37.04</time>
<name>5579</name>
</trkpt>
<trkpt lat="48.942777" lon="8.666818">
<ele>335.0</ele>
<speed>5.3</speed>
<course>342.1</course>
<desc>Speed 5.3 km/h Distance 8.67 km</desc>
<time>2010-03-03T17:30:38.04</time>
<name>5580</name>
</trkpt>
<trkpt lat="48.942793" lon="8.666810">
<ele>334.5</ele>
<speed>5.8</speed>
<course>339.4</course>
<desc>Speed 5.8 km/h Distance 8.68 km</desc>
<time>2010-03-03T17:30:39.04</time>
<name>5581</name>
</trkpt>
<trkpt lat="48.942805" lon="8.666803">
<ele>333.0</ele>
<speed>4.0</speed>
<course>333.8</course>
<desc>Speed 4.0 km/h Distance 8.68 km</desc>
<time>2010-03-03T17:30:40.04</time>
<name>5582</name>
</trkpt>
<trkpt lat="48.942818" lon="8.666793">
<ele>332.5</ele>
<speed>5.2</speed>
<course>339.9</course>
<desc>Speed 5.2 km/h Distance 8.68 km</desc>
<time>2010-03-03T17:30:41.04</time>
<name>5583</name>
</trkpt>
<trkpt lat="48.942833" lon="8.666785">
<ele>332.5</ele>
<speed>5.3</speed>
<course>337.7</course>
<desc>Speed 5.3 km/h Distance 8.68 km</desc>
<time>2010-03-03T17:30:42.04</time>
<name>5584</name>
</trkpt>
<trkpt lat="48.942847" lon="8.666777">
<ele>332.5</ele>
<speed>4.9</speed>
<course>339.9</course>
<desc>Speed 4.9 km/h Distance 8.68 km</desc>
<time>2010-03-03T17:30:43.04</time>
<name>5585</name>
</trkpt>
<trkpt lat="48.942862" lon="8.666768">
<ele>332.5</ele>
<speed>5.4</speed>
<course>346.5</course>
<desc>Speed 5.4 km/h Distance 8.68 km</desc>
<time>2010-03-03T17:30:44.04</time>
<name>5586</name>
</trkpt>
<trkpt lat="48.942875" lon="8.666763">
<ele>332.5</ele>
<speed>5.2</speed>
<course>344.0</course>
<desc>Speed 5.2 km/h Distance 8.69 km</desc>
<time>2010-03-03T17:30:45.04</time>
<name>5587</name>
</trkpt>
<trkpt lat="48.942890" lon="8.666757">
<ele>332.5</ele>
<speed>5.1</speed>
<course>346.5</course>
<desc>Speed 5.1 km/h Distance 8.69 km</desc>
<time>2010-03-03T17:30:46.04</time>
<name>5588</name>
</trkpt>
<trkpt lat="48.942903" lon="8.666752">
<ele>333.0</ele>
<speed>5.4</speed>
<course>348.8</course>
<desc>Speed 5.4 km/h Distance 8.69 km</desc>
<time>2010-03-03T17:30:47.04</time>
<name>5589</name>
</trkpt>
<trkpt lat="48.942920" lon="8.666747">
<ele>333.0</ele>
<speed>5.5</speed>
<course>351.2</course>
<desc>Speed 5.5 km/h Distance 8.69 km</desc>
<time>2010-03-03T17:30:48.04</time>
<name>5590</name>
</trkpt>
<trkpt lat="48.942935" lon="8.666743">
<ele>333.5</ele>
<speed>5.4</speed>
<course>357.2</course>
<desc>Speed 5.4 km/h Distance 8.69 km</desc>
<time>2010-03-03T17:30:49.04</time>
<name>5591</name>
</trkpt>
<trkpt lat="48.942952" lon="8.666742">
<ele>333.5</ele>
<speed>5.3</speed>
<course>1.9</course>
<desc>Speed 5.3 km/h Distance 8.70 km</desc>
<time>2010-03-03T17:30:50.04</time>
<name>5592</name>
</trkpt>
<trkpt lat="48.942967" lon="8.666742">
<ele>334.0</ele>
<speed>5.5</speed>
<course>341.6</course>
<desc>Speed 5.5 km/h Distance 8.70 km</desc>
<time>2010-03-03T17:30:51.04</time>
<name>5593</name>
</trkpt>
<trkpt lat="48.942980" lon="8.666735">
<ele>334.0</ele>
<speed>4.7</speed>
<course>334.8</course>
<desc>Speed 4.7 km/h Distance 8.70 km</desc>
<time>2010-03-03T17:30:52.04</time>
<name>5594</name>
</trkpt>
<trkpt lat="48.942992" lon="8.666727">
<ele>334.0</ele>
<speed>5.1</speed>
<course>333.8</course>
<desc>Speed 5.1 km/h Distance 8.70 km</desc>
<time>2010-03-03T17:30:53.04</time>
<name>5595</name>
</trkpt>
<trkpt lat="48.943005" lon="8.666717">
<ele>334.0</ele>
<speed>5.4</speed>
<course>332.8</course>
<desc>Speed 5.4 km/h Distance 8.70 km</desc>
<time>2010-03-03T17:30:54.04</time>
<name>5596</name>
</trkpt>
<trkpt lat="48.943020" lon="8.666705">
<ele>334.0</ele>
<speed>5.9</speed>
<course>337.4</course>
<desc>Speed 5.9 km/h Distance 8.70 km</desc>
<time>2010-03-03T17:30:55.04</time>
<name>5597</name>
</trkpt>
<trkpt lat="48.943033" lon="8.666697">
<ele>334.5</ele>
<speed>4.8</speed>
<course>326.8</course>
<desc>Speed 4.8 km/h Distance 8.70 km</desc>
<time>2010-03-03T17:30:56.04</time>
<name>5598</name>
</trkpt>
<trkpt lat="48.943043" lon="8.666687">
<ele>334.5</ele>
<speed>5.0</speed>
<course>333.6</course>
<desc>Speed 5.0 km/h Distance 8.71 km</desc>
<time>2010-03-03T17:30:57.04</time>
<name>5599</name>
</trkpt>
<trkpt lat="48.943057" lon="8.666677">
<ele>334.5</ele>
<speed>5.4</speed>
<course>326.7</course>
<desc>Speed 5.4 km/h Distance 8.71 km</desc>
<time>2010-03-03T17:30:58.04</time>
<name>5600</name>
</trkpt>
<trkpt lat="48.943068" lon="8.666665">
<ele>334.5</ele>
<speed>4.9</speed>
<course>326.6</course>
<desc>Speed 4.9 km/h Distance 8.71 km</desc>
<time>2010-03-03T17:30:59.04</time>
<name>5601</name>
</trkpt>
<trkpt lat="48.943080" lon="8.666653">
<ele>334.5</ele>
<speed>5.5</speed>
<course>326.7</course>
<desc>Speed 5.5 km/h Distance 8.71 km</desc>
<time>2010-03-03T17:31:00.04</time>
<name>5602</name>
</trkpt>
<trkpt lat="48.943092" lon="8.666642">
<ele>334.5</ele>
<speed>5.1</speed>
<course>316.8</course>
<desc>Speed 5.1 km/h Distance 8.71 km</desc>
<time>2010-03-03T17:31:01.04</time>
<name>5603</name>
</trkpt>
<trkpt lat="48.943103" lon="8.666625">
<ele>334.5</ele>
<speed>5.5</speed>
<course>323.1</course>
<desc>Speed 5.5 km/h Distance 8.71 km</desc>
<time>2010-03-03T17:31:02.04</time>
<name>5604</name>
</trkpt>
<trkpt lat="48.943115" lon="8.666612">
<ele>334.5</ele>
<speed>5.6</speed>
<course>319.8</course>
<desc>Speed 5.6 km/h Distance 8.72 km</desc>
<time>2010-03-03T17:31:03.04</time>
<name>5605</name>
</trkpt>
<trkpt lat="48.943127" lon="8.666597">
<ele>334.5</ele>
<speed>5.4</speed>
<course>323.1</course>
<desc>Speed 5.4 km/h Distance 8.72 km</desc>
<time>2010-03-03T17:31:04.04</time>
<name>5606</name>
</trkpt>
<trkpt lat="48.943138" lon="8.666583">
<ele>334.5</ele>
<speed>5.4</speed>
<course>323.4</course>
<desc>Speed 5.4 km/h Distance 8.72 km</desc>
<time>2010-03-03T17:31:05.04</time>
<name>5607</name>
</trkpt>
<trkpt lat="48.943152" lon="8.666568">
<ele>334.5</ele>
<speed>5.7</speed>
<course>312.4</course>
<desc>Speed 5.7 km/h Distance 8.72 km</desc>
<time>2010-03-03T17:31:06.04</time>
<name>5608</name>
</trkpt>
<trkpt lat="48.943162" lon="8.666552">
<ele>335.0</ele>
<speed>5.5</speed>
<course>323.1</course>
<desc>Speed 5.5 km/h Distance 8.72 km</desc>
<time>2010-03-03T17:31:07.04</time>
<name>5609</name>
</trkpt>
<trkpt lat="48.943173" lon="8.666538">
<ele>335.0</ele>
<speed>5.4</speed>
<course>319.7</course>
<desc>Speed 5.4 km/h Distance 8.72 km</desc>
<time>2010-03-03T17:31:08.04</time>
<name>5610</name>
</trkpt>
<trkpt lat="48.943185" lon="8.666523">
<ele>335.0</ele>
<speed>5.5</speed>
<course>323.1</course>
<desc>Speed 5.5 km/h Distance 8.73 km</desc>
<time>2010-03-03T17:31:09.04</time>
<name>5611</name>
</trkpt>
<trkpt lat="48.943197" lon="8.666510">
<ele>335.0</ele>
<speed>5.6</speed>
<course>323.1</course>
<desc>Speed 5.6 km/h Distance 8.73 km</desc>
<time>2010-03-03T17:31:10.04</time>
<name>5612</name>
</trkpt>
<trkpt lat="48.943208" lon="8.666497">
<ele>335.0</ele>
<speed>5.7</speed>
<course>323.1</course>
<desc>Speed 5.7 km/h Distance 8.73 km</desc>
<time>2010-03-03T17:31:11.04</time>
<name>5613</name>
</trkpt>
<trkpt lat="48.943220" lon="8.666483">
<ele>335.0</ele>
<speed>5.2</speed>
<course>322.5</course>
<desc>Speed 5.2 km/h Distance 8.73 km</desc>
<time>2010-03-03T17:31:12.04</time>
<name>5614</name>
</trkpt>
<trkpt lat="48.943230" lon="8.666472">
<ele>335.5</ele>
<speed>5.2</speed>
<course>346.0</course>
<desc>Speed 5.2 km/h Distance 8.73 km</desc>
<time>2010-03-03T17:31:13.04</time>
<name>5615</name>
</trkpt>
<trkpt lat="48.943243" lon="8.666467">
<ele>335.5</ele>
<speed>4.9</speed>
<course>11.2</course>
<desc>Speed 4.9 km/h Distance 8.73 km</desc>
<time>2010-03-03T17:31:14.04</time>
<name>5616</name>
</trkpt>
<trkpt lat="48.943255" lon="8.666470">
<ele>335.0</ele>
<speed>4.8</speed>
<course>20.9</course>
<desc>Speed 4.8 km/h Distance 8.74 km</desc>
<time>2010-03-03T17:31:15.04</time>
<name>5617</name>
</trkpt>
<trkpt lat="48.943267" lon="8.666477">
<ele>335.0</ele>
<speed>4.7</speed>
<course>23.8</course>
<desc>Speed 4.7 km/h Distance 8.74 km</desc>
<time>2010-03-03T17:31:16.04</time>
<name>5618</name>
</trkpt>
<trkpt lat="48.943277" lon="8.666483">
<ele>335.0</ele>
<speed>4.4</speed>
<course>41.4</course>
<desc>Speed 4.4 km/h Distance 8.74 km</desc>
<time>2010-03-03T17:31:17.04</time>
<name>5619</name>
</trkpt>
<trkpt lat="48.943282" lon="8.666490">
<ele>335.0</ele>
<speed>2.5</speed>
<course>26.4</course>
<desc>Speed 2.5 km/h Distance 8.74 km</desc>
<time>2010-03-03T17:31:18.04</time>
<name>5620</name>
</trkpt>
<trkpt lat="48.943288" lon="8.666495">
<ele>334.5</ele>
<speed>3.3</speed>
<course>33.2</course>
<desc>Speed 3.3 km/h Distance 8.74 km</desc>
<time>2010-03-03T17:31:19.04</time>
<name>5621</name>
</trkpt>
<trkpt lat="48.943298" lon="8.666505">
<ele>334.5</ele>
<speed>4.2</speed>
<course>27.9</course>
<desc>Speed 4.2 km/h Distance 8.74 km</desc>
<time>2010-03-03T17:31:20.04</time>
<name>5622</name>
</trkpt>
<trkpt lat="48.943307" lon="8.666512">
<ele>334.5</ele>
<speed>3.5</speed>
<course>21.5</course>
<desc>Speed 3.5 km/h Distance 8.74 km</desc>
<time>2010-03-03T17:31:21.04</time>
<name>5623</name>
</trkpt>
<trkpt lat="48.943315" lon="8.666517">
<ele>334.5</ele>
<speed>3.4</speed>
<course>27.5</course>
<desc>Speed 3.4 km/h Distance 8.74 km</desc>
<time>2010-03-03T17:31:22.04</time>
<name>5624</name>
</trkpt>
<trkpt lat="48.943323" lon="8.666523">
<ele>334.0</ele>
<speed>3.7</speed>
<course>28.6</course>
<desc>Speed 3.7 km/h Distance 8.74 km</desc>
<time>2010-03-03T17:31:23.04</time>
<name>5625</name>
</trkpt>
<trkpt lat="48.943333" lon="8.666532">
<ele>334.5</ele>
<speed>4.9</speed>
<course>33.4</course>
<desc>Speed 4.9 km/h Distance 8.75 km</desc>
<time>2010-03-03T17:31:24.04</time>
<name>5626</name>
</trkpt>
<trkpt lat="48.943345" lon="8.666543">
<ele>334.5</ele>
<speed>5.0</speed>
<course>49.9</course>
<desc>Speed 5.0 km/h Distance 8.75 km</desc>
<time>2010-03-03T17:31:25.04</time>
<name>5627</name>
</trkpt>
<trkpt lat="48.943353" lon="8.666558">
<ele>333.5</ele>
<speed>4.8</speed>
<course>175.0</course>
<desc>Speed 4.8 km/h Distance 8.75 km</desc>
<time>2010-03-03T17:31:26.04</time>
<name>5628</name>
</trkpt>
<trkpt lat="48.943345" lon="8.666558">
<ele>333.5</ele>
<speed>3.7</speed>
<course>44.5</course>
<desc>Speed 3.7 km/h Distance 8.75 km</desc>
<time>2010-03-03T17:31:27.04</time>
<name>5629</name>
</trkpt>
<trkpt lat="48.943348" lon="8.666563">
<ele>332.5</ele>
<speed>2.1</speed>
<course>66.5</course>
<desc>Speed 2.1 km/h Distance 8.75 km</desc>
<time>2010-03-03T17:31:28.05</time>
<name>5630</name>
</trkpt>
<trkpt lat="48.943352" lon="8.666575">
<ele>331.0</ele>
<speed>3.1</speed>
<course>167.4</course>
<desc>Speed 3.1 km/h Distance 8.75 km</desc>
<time>2010-03-03T17:31:29.05</time>
<name>5631</name>
</trkpt>
<trkpt lat="48.943348" lon="8.666577">
<ele>331.0</ele>
<speed>1.6</speed>
<course>40.9</course>
<desc>Speed 1.6 km/h Distance 8.75 km</desc>
<time>2010-03-03T17:31:30.05</time>
<name>5632</name>
</trkpt>
<trkpt lat="48.943353" lon="8.666583">
<ele>330.0</ele>
<speed>2.0</speed>
<course>40.9</course>
<desc>Speed 2.0 km/h Distance 8.75 km</desc>
<time>2010-03-03T17:31:31.05</time>
<name>5633</name>
</trkpt>
</trkseg>
</trk>
</gpx>
